<?xml version="1.0" encoding="UTF-8" standalone="no" ?>
<gpx xmlns="http://www.topografix.com/GPX/1/1" xmlns:xsi="http://www.w3.org/2001/XMLSchema-instance" xsi:schemaLocation="http://www.topografix.com/GPX/1/1 http://www.topografix.com/GPX/1/1/gpx.xsd" version="1.1" creator="VisuGPX - https://www.visugpx.com">
  <metadata>
    <name>83 - V - Tourtour</name>
    <desc><![CDATA[Le grand Défens]]></desc>
  </metadata>
  <trk>
    <name><![CDATA[6 janv. 2023]]></name>
    <desc><![CDATA[comment ...]]></desc>
    <extensions>
      <line xmlns="http://www.topografix.com/GPX/gpx_style/0/2">
        <color>0000FF</color>
        <width>4</width>
      </line>
    </extensions>
    <trkseg>
      <trkpt lat="43.59429" lon="6.30597">
        <ele>656</ele>
        <time>2023-01-06T13:03:19Z</time>
      </trkpt>
      <trkpt lat="43.59428" lon="6.30599">
        <ele>656</ele>
        <time>2023-01-06T13:03:20Z</time>
      </trkpt>
      <trkpt lat="43.59428" lon="6.30601">
        <ele>657</ele>
        <time>2023-01-06T13:03:21Z</time>
      </trkpt>
      <trkpt lat="43.59428" lon="6.30602">
        <ele>657</ele>
        <time>2023-01-06T13:03:22Z</time>
      </trkpt>
      <trkpt lat="43.59428" lon="6.30604">
        <ele>658</ele>
        <time>2023-01-06T13:03:23Z</time>
      </trkpt>
      <trkpt lat="43.59427" lon="6.30606">
        <ele>658</ele>
        <time>2023-01-06T13:03:24Z</time>
      </trkpt>
      <trkpt lat="43.59427" lon="6.30607">
        <ele>658</ele>
        <time>2023-01-06T13:03:25Z</time>
      </trkpt>
      <trkpt lat="43.59427" lon="6.30608">
        <ele>658</ele>
        <time>2023-01-06T13:03:26Z</time>
      </trkpt>
      <trkpt lat="43.59426" lon="6.30609">
        <ele>660</ele>
        <time>2023-01-06T13:03:27Z</time>
      </trkpt>
      <trkpt lat="43.59426" lon="6.3061">
        <ele>660</ele>
        <time>2023-01-06T13:03:28Z</time>
      </trkpt>
      <trkpt lat="43.59425" lon="6.30611">
        <ele>660</ele>
        <time>2023-01-06T13:03:29Z</time>
      </trkpt>
      <trkpt lat="43.59425" lon="6.30613">
        <ele>661</ele>
        <time>2023-01-06T13:03:30Z</time>
      </trkpt>
      <trkpt lat="43.59425" lon="6.30614">
        <ele>661</ele>
        <time>2023-01-06T13:03:31Z</time>
      </trkpt>
      <trkpt lat="43.59425" lon="6.30615">
        <ele>661</ele>
        <time>2023-01-06T13:03:32Z</time>
      </trkpt>
      <trkpt lat="43.59424" lon="6.30616">
        <ele>661</ele>
        <time>2023-01-06T13:03:33Z</time>
      </trkpt>
      <trkpt lat="43.59424" lon="6.30617">
        <ele>661</ele>
        <time>2023-01-06T13:03:34Z</time>
      </trkpt>
      <trkpt lat="43.59424" lon="6.30619">
        <ele>661</ele>
        <time>2023-01-06T13:03:35Z</time>
      </trkpt>
      <trkpt lat="43.59423" lon="6.3062">
        <ele>661</ele>
        <time>2023-01-06T13:03:36Z</time>
      </trkpt>
      <trkpt lat="43.59423" lon="6.30621">
        <ele>661</ele>
        <time>2023-01-06T13:03:37Z</time>
      </trkpt>
      <trkpt lat="43.59422" lon="6.30622">
        <ele>661</ele>
        <time>2023-01-06T13:03:38Z</time>
      </trkpt>
      <trkpt lat="43.59422" lon="6.30624">
        <ele>661</ele>
        <time>2023-01-06T13:03:39Z</time>
      </trkpt>
      <trkpt lat="43.59421" lon="6.30625">
        <ele>660</ele>
        <time>2023-01-06T13:03:40Z</time>
      </trkpt>
      <trkpt lat="43.5942" lon="6.30626">
        <ele>659</ele>
        <time>2023-01-06T13:03:41Z</time>
      </trkpt>
      <trkpt lat="43.59419" lon="6.30627">
        <ele>659</ele>
        <time>2023-01-06T13:03:42Z</time>
      </trkpt>
      <trkpt lat="43.59419" lon="6.30628">
        <ele>658</ele>
        <time>2023-01-06T13:03:43Z</time>
      </trkpt>
      <trkpt lat="43.59419" lon="6.30629">
        <ele>658</ele>
        <time>2023-01-06T13:03:44Z</time>
      </trkpt>
      <trkpt lat="43.59418" lon="6.3063">
        <ele>658</ele>
        <time>2023-01-06T13:03:45Z</time>
      </trkpt>
      <trkpt lat="43.59418" lon="6.30631">
        <ele>658</ele>
        <time>2023-01-06T13:03:46Z</time>
      </trkpt>
      <trkpt lat="43.59417" lon="6.30631">
        <ele>658</ele>
        <time>2023-01-06T13:03:47Z</time>
      </trkpt>
      <trkpt lat="43.59417" lon="6.30632">
        <ele>657</ele>
        <time>2023-01-06T13:03:48Z</time>
      </trkpt>
      <trkpt lat="43.59416" lon="6.30633">
        <ele>657</ele>
        <time>2023-01-06T13:03:49Z</time>
      </trkpt>
      <trkpt lat="43.59415" lon="6.30633">
        <ele>657</ele>
        <time>2023-01-06T13:03:50Z</time>
      </trkpt>
      <trkpt lat="43.59415" lon="6.30634">
        <ele>657</ele>
        <time>2023-01-06T13:03:51Z</time>
      </trkpt>
      <trkpt lat="43.59414" lon="6.30634">
        <ele>657</ele>
        <time>2023-01-06T13:03:52Z</time>
      </trkpt>
      <trkpt lat="43.59414" lon="6.30634">
        <ele>657</ele>
        <time>2023-01-06T13:03:53Z</time>
      </trkpt>
      <trkpt lat="43.59414" lon="6.30634">
        <ele>657</ele>
        <time>2023-01-06T13:03:54Z</time>
      </trkpt>
      <trkpt lat="43.59413" lon="6.30634">
        <ele>657</ele>
        <time>2023-01-06T13:03:55Z</time>
      </trkpt>
      <trkpt lat="43.59413" lon="6.30635">
        <ele>657</ele>
        <time>2023-01-06T13:03:56Z</time>
      </trkpt>
      <trkpt lat="43.59413" lon="6.30635">
        <ele>657</ele>
        <time>2023-01-06T13:03:57Z</time>
      </trkpt>
      <trkpt lat="43.59412" lon="6.30635">
        <ele>657</ele>
        <time>2023-01-06T13:03:58Z</time>
      </trkpt>
      <trkpt lat="43.5941" lon="6.30635">
        <ele>657</ele>
        <time>2023-01-06T13:03:59Z</time>
      </trkpt>
      <trkpt lat="43.59409" lon="6.30636">
        <ele>656</ele>
        <time>2023-01-06T13:04:00Z</time>
      </trkpt>
      <trkpt lat="43.59408" lon="6.30636">
        <ele>656</ele>
        <time>2023-01-06T13:04:01Z</time>
      </trkpt>
      <trkpt lat="43.59407" lon="6.30636">
        <ele>656</ele>
        <time>2023-01-06T13:04:02Z</time>
      </trkpt>
      <trkpt lat="43.59405" lon="6.30637">
        <ele>656</ele>
        <time>2023-01-06T13:04:03Z</time>
      </trkpt>
      <trkpt lat="43.59404" lon="6.30637">
        <ele>656</ele>
        <time>2023-01-06T13:04:04Z</time>
      </trkpt>
      <trkpt lat="43.59403" lon="6.30637">
        <ele>655</ele>
        <time>2023-01-06T13:04:05Z</time>
      </trkpt>
      <trkpt lat="43.59402" lon="6.30638">
        <ele>655</ele>
        <time>2023-01-06T13:04:06Z</time>
      </trkpt>
      <trkpt lat="43.59401" lon="6.30638">
        <ele>655</ele>
        <time>2023-01-06T13:04:07Z</time>
      </trkpt>
      <trkpt lat="43.594" lon="6.30639">
        <ele>655</ele>
        <time>2023-01-06T13:04:08Z</time>
      </trkpt>
      <trkpt lat="43.59399" lon="6.30639">
        <ele>655</ele>
        <time>2023-01-06T13:04:09Z</time>
      </trkpt>
      <trkpt lat="43.59398" lon="6.3064">
        <ele>655</ele>
        <time>2023-01-06T13:04:10Z</time>
      </trkpt>
      <trkpt lat="43.59397" lon="6.30641">
        <ele>655</ele>
        <time>2023-01-06T13:04:11Z</time>
      </trkpt>
      <trkpt lat="43.59396" lon="6.30641">
        <ele>654</ele>
        <time>2023-01-06T13:04:12Z</time>
      </trkpt>
      <trkpt lat="43.59395" lon="6.30642">
        <ele>654</ele>
        <time>2023-01-06T13:04:13Z</time>
      </trkpt>
      <trkpt lat="43.59394" lon="6.30642">
        <ele>654</ele>
        <time>2023-01-06T13:04:14Z</time>
      </trkpt>
      <trkpt lat="43.59394" lon="6.30643">
        <ele>654</ele>
        <time>2023-01-06T13:04:15Z</time>
      </trkpt>
      <trkpt lat="43.59392" lon="6.30644">
        <ele>654</ele>
        <time>2023-01-06T13:04:16Z</time>
      </trkpt>
      <trkpt lat="43.5939" lon="6.30645">
        <ele>654</ele>
        <time>2023-01-06T13:04:17Z</time>
      </trkpt>
      <trkpt lat="43.59389" lon="6.30646">
        <ele>654</ele>
        <time>2023-01-06T13:04:18Z</time>
      </trkpt>
      <trkpt lat="43.59387" lon="6.30647">
        <ele>654</ele>
        <time>2023-01-06T13:04:19Z</time>
      </trkpt>
      <trkpt lat="43.59386" lon="6.30648">
        <ele>654</ele>
        <time>2023-01-06T13:04:20Z</time>
      </trkpt>
      <trkpt lat="43.59384" lon="6.30649">
        <ele>654</ele>
        <time>2023-01-06T13:04:21Z</time>
      </trkpt>
      <trkpt lat="43.59383" lon="6.3065">
        <ele>655</ele>
        <time>2023-01-06T13:04:22Z</time>
      </trkpt>
      <trkpt lat="43.59382" lon="6.30651">
        <ele>655</ele>
        <time>2023-01-06T13:04:23Z</time>
      </trkpt>
      <trkpt lat="43.59381" lon="6.30653">
        <ele>655</ele>
        <time>2023-01-06T13:04:24Z</time>
      </trkpt>
      <trkpt lat="43.5938" lon="6.30654">
        <ele>655</ele>
        <time>2023-01-06T13:04:25Z</time>
      </trkpt>
      <trkpt lat="43.5938" lon="6.30655">
        <ele>655</ele>
        <time>2023-01-06T13:04:26Z</time>
      </trkpt>
      <trkpt lat="43.59381" lon="6.30656">
        <ele>655</ele>
        <time>2023-01-06T13:04:27Z</time>
      </trkpt>
      <trkpt lat="43.59381" lon="6.30656">
        <ele>655</ele>
        <time>2023-01-06T13:04:28Z</time>
      </trkpt>
      <trkpt lat="43.59382" lon="6.30657">
        <ele>655</ele>
        <time>2023-01-06T13:04:29Z</time>
      </trkpt>
      <trkpt lat="43.59383" lon="6.30657">
        <ele>656</ele>
        <time>2023-01-06T13:04:30Z</time>
      </trkpt>
      <trkpt lat="43.59384" lon="6.30657">
        <ele>656</ele>
        <time>2023-01-06T13:04:31Z</time>
      </trkpt>
      <trkpt lat="43.59385" lon="6.30657">
        <ele>656</ele>
        <time>2023-01-06T13:04:32Z</time>
      </trkpt>
      <trkpt lat="43.59385" lon="6.30657">
        <ele>656</ele>
        <time>2023-01-06T13:04:33Z</time>
      </trkpt>
      <trkpt lat="43.59386" lon="6.30658">
        <ele>656</ele>
        <time>2023-01-06T13:04:34Z</time>
      </trkpt>
      <trkpt lat="43.59387" lon="6.30658">
        <ele>656</ele>
        <time>2023-01-06T13:04:35Z</time>
      </trkpt>
      <trkpt lat="43.59388" lon="6.30659">
        <ele>657</ele>
        <time>2023-01-06T13:04:36Z</time>
      </trkpt>
      <trkpt lat="43.59389" lon="6.30659">
        <ele>657</ele>
        <time>2023-01-06T13:04:37Z</time>
      </trkpt>
      <trkpt lat="43.5939" lon="6.3066">
        <ele>658</ele>
        <time>2023-01-06T13:04:38Z</time>
      </trkpt>
      <trkpt lat="43.59391" lon="6.3066">
        <ele>658</ele>
        <time>2023-01-06T13:04:39Z</time>
      </trkpt>
      <trkpt lat="43.59391" lon="6.3066">
        <ele>658</ele>
        <time>2023-01-06T13:04:40Z</time>
      </trkpt>
      <trkpt lat="43.59392" lon="6.30661">
        <ele>658</ele>
        <time>2023-01-06T13:04:41Z</time>
      </trkpt>
      <trkpt lat="43.59393" lon="6.30661">
        <ele>658</ele>
        <time>2023-01-06T13:04:42Z</time>
      </trkpt>
      <trkpt lat="43.59394" lon="6.30662">
        <ele>658</ele>
        <time>2023-01-06T13:04:43Z</time>
      </trkpt>
      <trkpt lat="43.59395" lon="6.30663">
        <ele>658</ele>
        <time>2023-01-06T13:04:44Z</time>
      </trkpt>
      <trkpt lat="43.59396" lon="6.30664">
        <ele>658</ele>
        <time>2023-01-06T13:04:45Z</time>
      </trkpt>
      <trkpt lat="43.59397" lon="6.30665">
        <ele>658</ele>
        <time>2023-01-06T13:04:46Z</time>
      </trkpt>
      <trkpt lat="43.59398" lon="6.30666">
        <ele>658</ele>
        <time>2023-01-06T13:04:47Z</time>
      </trkpt>
      <trkpt lat="43.59399" lon="6.30668">
        <ele>658</ele>
        <time>2023-01-06T13:04:48Z</time>
      </trkpt>
      <trkpt lat="43.594" lon="6.30669">
        <ele>658</ele>
        <time>2023-01-06T13:04:49Z</time>
      </trkpt>
      <trkpt lat="43.59401" lon="6.3067">
        <ele>658</ele>
        <time>2023-01-06T13:04:50Z</time>
      </trkpt>
      <trkpt lat="43.59402" lon="6.30671">
        <ele>658</ele>
        <time>2023-01-06T13:04:51Z</time>
      </trkpt>
      <trkpt lat="43.59403" lon="6.30672">
        <ele>658</ele>
        <time>2023-01-06T13:04:52Z</time>
      </trkpt>
      <trkpt lat="43.59404" lon="6.30673">
        <ele>657</ele>
        <time>2023-01-06T13:04:53Z</time>
      </trkpt>
      <trkpt lat="43.59405" lon="6.30674">
        <ele>657</ele>
        <time>2023-01-06T13:04:54Z</time>
      </trkpt>
      <trkpt lat="43.59405" lon="6.30675">
        <ele>657</ele>
        <time>2023-01-06T13:04:55Z</time>
      </trkpt>
      <trkpt lat="43.59406" lon="6.30676">
        <ele>657</ele>
        <time>2023-01-06T13:04:56Z</time>
      </trkpt>
      <trkpt lat="43.59407" lon="6.30677">
        <ele>657</ele>
        <time>2023-01-06T13:04:57Z</time>
      </trkpt>
      <trkpt lat="43.59408" lon="6.30678">
        <ele>657</ele>
        <time>2023-01-06T13:04:58Z</time>
      </trkpt>
      <trkpt lat="43.59409" lon="6.30679">
        <ele>657</ele>
        <time>2023-01-06T13:04:59Z</time>
      </trkpt>
      <trkpt lat="43.5941" lon="6.3068">
        <ele>657</ele>
        <time>2023-01-06T13:05:00Z</time>
      </trkpt>
      <trkpt lat="43.5941" lon="6.3068">
        <ele>657</ele>
        <time>2023-01-06T13:05:01Z</time>
      </trkpt>
      <trkpt lat="43.59411" lon="6.30681">
        <ele>657</ele>
        <time>2023-01-06T13:05:02Z</time>
      </trkpt>
      <trkpt lat="43.59412" lon="6.30682">
        <ele>657</ele>
        <time>2023-01-06T13:05:03Z</time>
      </trkpt>
      <trkpt lat="43.59413" lon="6.30683">
        <ele>657</ele>
        <time>2023-01-06T13:05:04Z</time>
      </trkpt>
      <trkpt lat="43.59414" lon="6.30683">
        <ele>657</ele>
        <time>2023-01-06T13:05:05Z</time>
      </trkpt>
      <trkpt lat="43.59414" lon="6.30684">
        <ele>657</ele>
        <time>2023-01-06T13:05:06Z</time>
      </trkpt>
      <trkpt lat="43.59415" lon="6.30685">
        <ele>657</ele>
        <time>2023-01-06T13:05:07Z</time>
      </trkpt>
      <trkpt lat="43.59416" lon="6.30685">
        <ele>657</ele>
        <time>2023-01-06T13:05:08Z</time>
      </trkpt>
      <trkpt lat="43.59417" lon="6.30686">
        <ele>657</ele>
        <time>2023-01-06T13:05:09Z</time>
      </trkpt>
      <trkpt lat="43.59418" lon="6.30686">
        <ele>657</ele>
        <time>2023-01-06T13:05:10Z</time>
      </trkpt>
      <trkpt lat="43.59418" lon="6.30687">
        <ele>657</ele>
        <time>2023-01-06T13:05:11Z</time>
      </trkpt>
      <trkpt lat="43.59419" lon="6.30688">
        <ele>657</ele>
        <time>2023-01-06T13:05:12Z</time>
      </trkpt>
      <trkpt lat="43.5942" lon="6.30688">
        <ele>657</ele>
        <time>2023-01-06T13:05:13Z</time>
      </trkpt>
      <trkpt lat="43.59421" lon="6.30689">
        <ele>657</ele>
        <time>2023-01-06T13:05:14Z</time>
      </trkpt>
      <trkpt lat="43.59422" lon="6.30689">
        <ele>657</ele>
        <time>2023-01-06T13:05:15Z</time>
      </trkpt>
      <trkpt lat="43.59423" lon="6.3069">
        <ele>657</ele>
        <time>2023-01-06T13:05:16Z</time>
      </trkpt>
      <trkpt lat="43.59424" lon="6.3069">
        <ele>657</ele>
        <time>2023-01-06T13:05:17Z</time>
      </trkpt>
      <trkpt lat="43.59425" lon="6.30691">
        <ele>657</ele>
        <time>2023-01-06T13:05:18Z</time>
      </trkpt>
      <trkpt lat="43.59426" lon="6.30691">
        <ele>657</ele>
        <time>2023-01-06T13:05:19Z</time>
      </trkpt>
      <trkpt lat="43.59427" lon="6.30691">
        <ele>657</ele>
        <time>2023-01-06T13:05:20Z</time>
      </trkpt>
      <trkpt lat="43.59428" lon="6.30692">
        <ele>657</ele>
        <time>2023-01-06T13:05:21Z</time>
      </trkpt>
      <trkpt lat="43.5943" lon="6.30692">
        <ele>658</ele>
        <time>2023-01-06T13:05:22Z</time>
      </trkpt>
      <trkpt lat="43.59431" lon="6.30692">
        <ele>658</ele>
        <time>2023-01-06T13:05:23Z</time>
      </trkpt>
      <trkpt lat="43.59432" lon="6.30692">
        <ele>658</ele>
        <time>2023-01-06T13:05:24Z</time>
      </trkpt>
      <trkpt lat="43.59433" lon="6.30692">
        <ele>658</ele>
        <time>2023-01-06T13:05:25Z</time>
      </trkpt>
      <trkpt lat="43.59434" lon="6.30691">
        <ele>659</ele>
        <time>2023-01-06T13:05:26Z</time>
      </trkpt>
      <trkpt lat="43.59435" lon="6.30691">
        <ele>659</ele>
        <time>2023-01-06T13:05:27Z</time>
      </trkpt>
      <trkpt lat="43.59437" lon="6.30691">
        <ele>659</ele>
        <time>2023-01-06T13:05:28Z</time>
      </trkpt>
      <trkpt lat="43.59438" lon="6.30691">
        <ele>660</ele>
        <time>2023-01-06T13:05:29Z</time>
      </trkpt>
      <trkpt lat="43.59439" lon="6.30691">
        <ele>660</ele>
        <time>2023-01-06T13:05:30Z</time>
      </trkpt>
      <trkpt lat="43.5944" lon="6.30691">
        <ele>660</ele>
        <time>2023-01-06T13:05:31Z</time>
      </trkpt>
      <trkpt lat="43.59441" lon="6.30691">
        <ele>660</ele>
        <time>2023-01-06T13:05:32Z</time>
      </trkpt>
      <trkpt lat="43.59442" lon="6.30692">
        <ele>660</ele>
        <time>2023-01-06T13:05:33Z</time>
      </trkpt>
      <trkpt lat="43.59443" lon="6.30693">
        <ele>660</ele>
        <time>2023-01-06T13:05:34Z</time>
      </trkpt>
      <trkpt lat="43.59444" lon="6.30694">
        <ele>660</ele>
        <time>2023-01-06T13:05:35Z</time>
      </trkpt>
      <trkpt lat="43.59444" lon="6.30695">
        <ele>660</ele>
        <time>2023-01-06T13:05:36Z</time>
      </trkpt>
      <trkpt lat="43.59445" lon="6.30696">
        <ele>660</ele>
        <time>2023-01-06T13:05:37Z</time>
      </trkpt>
      <trkpt lat="43.59445" lon="6.30697">
        <ele>660</ele>
        <time>2023-01-06T13:05:38Z</time>
      </trkpt>
      <trkpt lat="43.59446" lon="6.30698">
        <ele>660</ele>
        <time>2023-01-06T13:05:39Z</time>
      </trkpt>
      <trkpt lat="43.59447" lon="6.30699">
        <ele>660</ele>
        <time>2023-01-06T13:05:40Z</time>
      </trkpt>
      <trkpt lat="43.59447" lon="6.307">
        <ele>660</ele>
        <time>2023-01-06T13:05:41Z</time>
      </trkpt>
      <trkpt lat="43.59448" lon="6.30701">
        <ele>660</ele>
        <time>2023-01-06T13:05:42Z</time>
      </trkpt>
      <trkpt lat="43.59448" lon="6.30702">
        <ele>660</ele>
        <time>2023-01-06T13:05:43Z</time>
      </trkpt>
      <trkpt lat="43.59449" lon="6.30703">
        <ele>660</ele>
        <time>2023-01-06T13:05:44Z</time>
      </trkpt>
      <trkpt lat="43.5945" lon="6.30704">
        <ele>660</ele>
        <time>2023-01-06T13:05:45Z</time>
      </trkpt>
      <trkpt lat="43.5945" lon="6.30705">
        <ele>660</ele>
        <time>2023-01-06T13:05:46Z</time>
      </trkpt>
      <trkpt lat="43.59451" lon="6.30706">
        <ele>660</ele>
        <time>2023-01-06T13:05:47Z</time>
      </trkpt>
      <trkpt lat="43.59452" lon="6.30707">
        <ele>660</ele>
        <time>2023-01-06T13:05:48Z</time>
      </trkpt>
      <trkpt lat="43.59452" lon="6.30708">
        <ele>661</ele>
        <time>2023-01-06T13:05:49Z</time>
      </trkpt>
      <trkpt lat="43.59453" lon="6.30709">
        <ele>661</ele>
        <time>2023-01-06T13:05:50Z</time>
      </trkpt>
      <trkpt lat="43.59454" lon="6.3071">
        <ele>661</ele>
        <time>2023-01-06T13:05:51Z</time>
      </trkpt>
      <trkpt lat="43.59455" lon="6.30711">
        <ele>661</ele>
        <time>2023-01-06T13:05:52Z</time>
      </trkpt>
      <trkpt lat="43.59455" lon="6.30712">
        <ele>661</ele>
        <time>2023-01-06T13:05:53Z</time>
      </trkpt>
      <trkpt lat="43.59456" lon="6.30714">
        <ele>662</ele>
        <time>2023-01-06T13:05:54Z</time>
      </trkpt>
      <trkpt lat="43.59457" lon="6.30715">
        <ele>662</ele>
        <time>2023-01-06T13:05:55Z</time>
      </trkpt>
      <trkpt lat="43.59457" lon="6.30716">
        <ele>662</ele>
        <time>2023-01-06T13:05:56Z</time>
      </trkpt>
      <trkpt lat="43.59458" lon="6.30717">
        <ele>662</ele>
        <time>2023-01-06T13:05:57Z</time>
      </trkpt>
      <trkpt lat="43.59458" lon="6.30718">
        <ele>662</ele>
        <time>2023-01-06T13:05:58Z</time>
      </trkpt>
      <trkpt lat="43.59459" lon="6.30719">
        <ele>662</ele>
        <time>2023-01-06T13:05:59Z</time>
      </trkpt>
      <trkpt lat="43.5946" lon="6.3072">
        <ele>662</ele>
        <time>2023-01-06T13:06:00Z</time>
      </trkpt>
      <trkpt lat="43.5946" lon="6.30721">
        <ele>662</ele>
        <time>2023-01-06T13:06:01Z</time>
      </trkpt>
      <trkpt lat="43.59461" lon="6.30723">
        <ele>662</ele>
        <time>2023-01-06T13:06:02Z</time>
      </trkpt>
      <trkpt lat="43.59461" lon="6.30724">
        <ele>662</ele>
        <time>2023-01-06T13:06:03Z</time>
      </trkpt>
      <trkpt lat="43.59461" lon="6.30724">
        <ele>662</ele>
        <time>2023-01-06T13:06:04Z</time>
      </trkpt>
      <trkpt lat="43.59462" lon="6.30725">
        <ele>662</ele>
        <time>2023-01-06T13:06:05Z</time>
      </trkpt>
      <trkpt lat="43.59462" lon="6.30727">
        <ele>663</ele>
        <time>2023-01-06T13:06:06Z</time>
      </trkpt>
      <trkpt lat="43.59463" lon="6.30728">
        <ele>663</ele>
        <time>2023-01-06T13:06:07Z</time>
      </trkpt>
      <trkpt lat="43.59463" lon="6.30729">
        <ele>663</ele>
        <time>2023-01-06T13:06:08Z</time>
      </trkpt>
      <trkpt lat="43.59463" lon="6.3073">
        <ele>663</ele>
        <time>2023-01-06T13:06:09Z</time>
      </trkpt>
      <trkpt lat="43.59464" lon="6.30731">
        <ele>664</ele>
        <time>2023-01-06T13:06:10Z</time>
      </trkpt>
      <trkpt lat="43.59464" lon="6.30732">
        <ele>664</ele>
        <time>2023-01-06T13:06:11Z</time>
      </trkpt>
      <trkpt lat="43.59465" lon="6.30734">
        <ele>664</ele>
        <time>2023-01-06T13:06:12Z</time>
      </trkpt>
      <trkpt lat="43.59465" lon="6.30735">
        <ele>664</ele>
        <time>2023-01-06T13:06:13Z</time>
      </trkpt>
      <trkpt lat="43.59466" lon="6.30736">
        <ele>664</ele>
        <time>2023-01-06T13:06:14Z</time>
      </trkpt>
      <trkpt lat="43.59466" lon="6.30737">
        <ele>665</ele>
        <time>2023-01-06T13:06:15Z</time>
      </trkpt>
      <trkpt lat="43.59466" lon="6.30738">
        <ele>665</ele>
        <time>2023-01-06T13:06:16Z</time>
      </trkpt>
      <trkpt lat="43.59467" lon="6.3074">
        <ele>665</ele>
        <time>2023-01-06T13:06:17Z</time>
      </trkpt>
      <trkpt lat="43.59467" lon="6.30741">
        <ele>665</ele>
        <time>2023-01-06T13:06:18Z</time>
      </trkpt>
      <trkpt lat="43.59468" lon="6.30743">
        <ele>665</ele>
        <time>2023-01-06T13:06:19Z</time>
      </trkpt>
      <trkpt lat="43.59468" lon="6.30744">
        <ele>665</ele>
        <time>2023-01-06T13:06:20Z</time>
      </trkpt>
      <trkpt lat="43.59469" lon="6.30745">
        <ele>665</ele>
        <time>2023-01-06T13:06:21Z</time>
      </trkpt>
      <trkpt lat="43.59469" lon="6.30747">
        <ele>665</ele>
        <time>2023-01-06T13:06:22Z</time>
      </trkpt>
      <trkpt lat="43.5947" lon="6.30748">
        <ele>666</ele>
        <time>2023-01-06T13:06:23Z</time>
      </trkpt>
      <trkpt lat="43.5947" lon="6.30749">
        <ele>666</ele>
        <time>2023-01-06T13:06:24Z</time>
      </trkpt>
      <trkpt lat="43.59471" lon="6.30751">
        <ele>666</ele>
        <time>2023-01-06T13:06:25Z</time>
      </trkpt>
      <trkpt lat="43.59471" lon="6.30752">
        <ele>666</ele>
        <time>2023-01-06T13:06:26Z</time>
      </trkpt>
      <trkpt lat="43.59471" lon="6.30753">
        <ele>666</ele>
        <time>2023-01-06T13:06:27Z</time>
      </trkpt>
      <trkpt lat="43.59472" lon="6.30754">
        <ele>666</ele>
        <time>2023-01-06T13:06:28Z</time>
      </trkpt>
      <trkpt lat="43.59472" lon="6.30755">
        <ele>667</ele>
        <time>2023-01-06T13:06:29Z</time>
      </trkpt>
      <trkpt lat="43.59472" lon="6.30756">
        <ele>667</ele>
        <time>2023-01-06T13:06:30Z</time>
      </trkpt>
      <trkpt lat="43.59473" lon="6.30757">
        <ele>667</ele>
        <time>2023-01-06T13:06:31Z</time>
      </trkpt>
      <trkpt lat="43.59473" lon="6.30758">
        <ele>667</ele>
        <time>2023-01-06T13:06:32Z</time>
      </trkpt>
      <trkpt lat="43.59474" lon="6.30758">
        <ele>667</ele>
        <time>2023-01-06T13:06:33Z</time>
      </trkpt>
      <trkpt lat="43.59474" lon="6.3076">
        <ele>667</ele>
        <time>2023-01-06T13:06:34Z</time>
      </trkpt>
      <trkpt lat="43.59474" lon="6.30761">
        <ele>667</ele>
        <time>2023-01-06T13:06:35Z</time>
      </trkpt>
      <trkpt lat="43.59475" lon="6.30762">
        <ele>667</ele>
        <time>2023-01-06T13:06:36Z</time>
      </trkpt>
      <trkpt lat="43.59475" lon="6.30763">
        <ele>666</ele>
        <time>2023-01-06T13:06:37Z</time>
      </trkpt>
      <trkpt lat="43.59476" lon="6.30764">
        <ele>666</ele>
        <time>2023-01-06T13:06:38Z</time>
      </trkpt>
      <trkpt lat="43.59476" lon="6.30765">
        <ele>666</ele>
        <time>2023-01-06T13:06:39Z</time>
      </trkpt>
      <trkpt lat="43.59477" lon="6.30766">
        <ele>666</ele>
        <time>2023-01-06T13:06:40Z</time>
      </trkpt>
      <trkpt lat="43.59478" lon="6.30767">
        <ele>665</ele>
        <time>2023-01-06T13:06:41Z</time>
      </trkpt>
      <trkpt lat="43.59478" lon="6.30768">
        <ele>665</ele>
        <time>2023-01-06T13:06:42Z</time>
      </trkpt>
      <trkpt lat="43.59479" lon="6.30769">
        <ele>665</ele>
        <time>2023-01-06T13:06:43Z</time>
      </trkpt>
      <trkpt lat="43.5948" lon="6.3077">
        <ele>665</ele>
        <time>2023-01-06T13:06:44Z</time>
      </trkpt>
      <trkpt lat="43.5948" lon="6.30771">
        <ele>664</ele>
        <time>2023-01-06T13:06:45Z</time>
      </trkpt>
      <trkpt lat="43.59481" lon="6.30772">
        <ele>664</ele>
        <time>2023-01-06T13:06:46Z</time>
      </trkpt>
      <trkpt lat="43.59482" lon="6.30773">
        <ele>664</ele>
        <time>2023-01-06T13:06:47Z</time>
      </trkpt>
      <trkpt lat="43.59482" lon="6.30774">
        <ele>664</ele>
        <time>2023-01-06T13:06:48Z</time>
      </trkpt>
      <trkpt lat="43.59483" lon="6.30775">
        <ele>663</ele>
        <time>2023-01-06T13:06:49Z</time>
      </trkpt>
      <trkpt lat="43.59483" lon="6.30776">
        <ele>663</ele>
        <time>2023-01-06T13:06:50Z</time>
      </trkpt>
      <trkpt lat="43.59484" lon="6.30778">
        <ele>664</ele>
        <time>2023-01-06T13:06:51Z</time>
      </trkpt>
      <trkpt lat="43.59484" lon="6.30779">
        <ele>664</ele>
        <time>2023-01-06T13:06:52Z</time>
      </trkpt>
      <trkpt lat="43.59483" lon="6.30779">
        <ele>664</ele>
        <time>2023-01-06T13:06:53Z</time>
      </trkpt>
      <trkpt lat="43.59482" lon="6.3078">
        <ele>664</ele>
        <time>2023-01-06T13:06:54Z</time>
      </trkpt>
      <trkpt lat="43.59482" lon="6.30781">
        <ele>664</ele>
        <time>2023-01-06T13:06:55Z</time>
      </trkpt>
      <trkpt lat="43.59483" lon="6.30782">
        <ele>664</ele>
        <time>2023-01-06T13:06:56Z</time>
      </trkpt>
      <trkpt lat="43.59483" lon="6.30783">
        <ele>664</ele>
        <time>2023-01-06T13:06:57Z</time>
      </trkpt>
      <trkpt lat="43.59483" lon="6.30784">
        <ele>664</ele>
        <time>2023-01-06T13:06:58Z</time>
      </trkpt>
      <trkpt lat="43.59483" lon="6.30785">
        <ele>664</ele>
        <time>2023-01-06T13:06:59Z</time>
      </trkpt>
      <trkpt lat="43.59483" lon="6.30785">
        <ele>664</ele>
        <time>2023-01-06T13:07:00Z</time>
      </trkpt>
      <trkpt lat="43.59484" lon="6.30786">
        <ele>664</ele>
        <time>2023-01-06T13:07:01Z</time>
      </trkpt>
      <trkpt lat="43.59484" lon="6.30786">
        <ele>664</ele>
        <time>2023-01-06T13:07:02Z</time>
      </trkpt>
      <trkpt lat="43.59484" lon="6.30787">
        <ele>664</ele>
        <time>2023-01-06T13:07:03Z</time>
      </trkpt>
      <trkpt lat="43.59484" lon="6.30788">
        <ele>664</ele>
        <time>2023-01-06T13:07:04Z</time>
      </trkpt>
      <trkpt lat="43.59484" lon="6.30789">
        <ele>664</ele>
        <time>2023-01-06T13:07:05Z</time>
      </trkpt>
      <trkpt lat="43.59484" lon="6.3079">
        <ele>664</ele>
        <time>2023-01-06T13:07:06Z</time>
      </trkpt>
      <trkpt lat="43.59484" lon="6.30792">
        <ele>664</ele>
        <time>2023-01-06T13:07:07Z</time>
      </trkpt>
      <trkpt lat="43.59484" lon="6.30793">
        <ele>664</ele>
        <time>2023-01-06T13:07:08Z</time>
      </trkpt>
      <trkpt lat="43.59484" lon="6.30794">
        <ele>664</ele>
        <time>2023-01-06T13:07:09Z</time>
      </trkpt>
      <trkpt lat="43.59485" lon="6.30795">
        <ele>664</ele>
        <time>2023-01-06T13:07:10Z</time>
      </trkpt>
      <trkpt lat="43.59485" lon="6.30796">
        <ele>664</ele>
        <time>2023-01-06T13:07:11Z</time>
      </trkpt>
      <trkpt lat="43.59485" lon="6.30798">
        <ele>664</ele>
        <time>2023-01-06T13:07:12Z</time>
      </trkpt>
      <trkpt lat="43.59485" lon="6.30799">
        <ele>664</ele>
        <time>2023-01-06T13:07:13Z</time>
      </trkpt>
      <trkpt lat="43.59485" lon="6.30801">
        <ele>664</ele>
        <time>2023-01-06T13:07:14Z</time>
      </trkpt>
      <trkpt lat="43.59485" lon="6.30802">
        <ele>664</ele>
        <time>2023-01-06T13:07:15Z</time>
      </trkpt>
      <trkpt lat="43.59485" lon="6.30803">
        <ele>664</ele>
        <time>2023-01-06T13:07:16Z</time>
      </trkpt>
      <trkpt lat="43.59485" lon="6.30804">
        <ele>664</ele>
        <time>2023-01-06T13:07:17Z</time>
      </trkpt>
      <trkpt lat="43.59484" lon="6.30806">
        <ele>664</ele>
        <time>2023-01-06T13:07:18Z</time>
      </trkpt>
      <trkpt lat="43.59484" lon="6.30807">
        <ele>664</ele>
        <time>2023-01-06T13:07:19Z</time>
      </trkpt>
      <trkpt lat="43.59484" lon="6.30809">
        <ele>664</ele>
        <time>2023-01-06T13:07:20Z</time>
      </trkpt>
      <trkpt lat="43.59484" lon="6.3081">
        <ele>664</ele>
        <time>2023-01-06T13:07:21Z</time>
      </trkpt>
      <trkpt lat="43.59484" lon="6.30811">
        <ele>664</ele>
        <time>2023-01-06T13:07:22Z</time>
      </trkpt>
      <trkpt lat="43.59484" lon="6.30812">
        <ele>663</ele>
        <time>2023-01-06T13:07:23Z</time>
      </trkpt>
      <trkpt lat="43.59484" lon="6.30814">
        <ele>663</ele>
        <time>2023-01-06T13:07:24Z</time>
      </trkpt>
      <trkpt lat="43.59484" lon="6.30815">
        <ele>663</ele>
        <time>2023-01-06T13:07:25Z</time>
      </trkpt>
      <trkpt lat="43.59483" lon="6.30816">
        <ele>662</ele>
        <time>2023-01-06T13:07:26Z</time>
      </trkpt>
      <trkpt lat="43.59483" lon="6.30817">
        <ele>662</ele>
        <time>2023-01-06T13:07:27Z</time>
      </trkpt>
      <trkpt lat="43.59483" lon="6.30819">
        <ele>662</ele>
        <time>2023-01-06T13:07:28Z</time>
      </trkpt>
      <trkpt lat="43.59483" lon="6.3082">
        <ele>662</ele>
        <time>2023-01-06T13:07:29Z</time>
      </trkpt>
      <trkpt lat="43.59483" lon="6.30822">
        <ele>662</ele>
        <time>2023-01-06T13:07:30Z</time>
      </trkpt>
      <trkpt lat="43.59483" lon="6.30824">
        <ele>662</ele>
        <time>2023-01-06T13:07:31Z</time>
      </trkpt>
      <trkpt lat="43.59483" lon="6.30825">
        <ele>662</ele>
        <time>2023-01-06T13:07:32Z</time>
      </trkpt>
      <trkpt lat="43.59483" lon="6.30826">
        <ele>662</ele>
        <time>2023-01-06T13:07:33Z</time>
      </trkpt>
      <trkpt lat="43.59483" lon="6.30828">
        <ele>662</ele>
        <time>2023-01-06T13:07:34Z</time>
      </trkpt>
      <trkpt lat="43.59483" lon="6.3083">
        <ele>663</ele>
        <time>2023-01-06T13:07:35Z</time>
      </trkpt>
      <trkpt lat="43.59483" lon="6.30831">
        <ele>663</ele>
        <time>2023-01-06T13:07:36Z</time>
      </trkpt>
      <trkpt lat="43.59484" lon="6.30833">
        <ele>664</ele>
        <time>2023-01-06T13:07:37Z</time>
      </trkpt>
      <trkpt lat="43.59485" lon="6.30834">
        <ele>664</ele>
        <time>2023-01-06T13:07:38Z</time>
      </trkpt>
      <trkpt lat="43.59485" lon="6.30835">
        <ele>664</ele>
        <time>2023-01-06T13:07:39Z</time>
      </trkpt>
      <trkpt lat="43.59486" lon="6.30836">
        <ele>664</ele>
        <time>2023-01-06T13:07:40Z</time>
      </trkpt>
      <trkpt lat="43.59486" lon="6.30838">
        <ele>664</ele>
        <time>2023-01-06T13:07:41Z</time>
      </trkpt>
      <trkpt lat="43.59487" lon="6.30839">
        <ele>664</ele>
        <time>2023-01-06T13:07:42Z</time>
      </trkpt>
      <trkpt lat="43.59487" lon="6.3084">
        <ele>665</ele>
        <time>2023-01-06T13:07:43Z</time>
      </trkpt>
      <trkpt lat="43.59488" lon="6.30841">
        <ele>665</ele>
        <time>2023-01-06T13:07:44Z</time>
      </trkpt>
      <trkpt lat="43.59489" lon="6.30842">
        <ele>665</ele>
        <time>2023-01-06T13:07:45Z</time>
      </trkpt>
      <trkpt lat="43.59489" lon="6.30843">
        <ele>665</ele>
        <time>2023-01-06T13:07:46Z</time>
      </trkpt>
      <trkpt lat="43.5949" lon="6.30844">
        <ele>665</ele>
        <time>2023-01-06T13:07:47Z</time>
      </trkpt>
      <trkpt lat="43.59491" lon="6.30845">
        <ele>666</ele>
        <time>2023-01-06T13:07:48Z</time>
      </trkpt>
      <trkpt lat="43.59491" lon="6.30846">
        <ele>666</ele>
        <time>2023-01-06T13:07:49Z</time>
      </trkpt>
      <trkpt lat="43.59492" lon="6.30847">
        <ele>666</ele>
        <time>2023-01-06T13:07:50Z</time>
      </trkpt>
      <trkpt lat="43.59493" lon="6.30848">
        <ele>666</ele>
        <time>2023-01-06T13:07:51Z</time>
      </trkpt>
      <trkpt lat="43.59493" lon="6.30849">
        <ele>666</ele>
        <time>2023-01-06T13:07:52Z</time>
      </trkpt>
      <trkpt lat="43.59494" lon="6.3085">
        <ele>666</ele>
        <time>2023-01-06T13:07:53Z</time>
      </trkpt>
      <trkpt lat="43.59495" lon="6.30851">
        <ele>667</ele>
        <time>2023-01-06T13:07:54Z</time>
      </trkpt>
      <trkpt lat="43.59495" lon="6.30852">
        <ele>667</ele>
        <time>2023-01-06T13:07:55Z</time>
      </trkpt>
      <trkpt lat="43.59496" lon="6.30853">
        <ele>667</ele>
        <time>2023-01-06T13:07:56Z</time>
      </trkpt>
      <trkpt lat="43.59497" lon="6.30854">
        <ele>667</ele>
        <time>2023-01-06T13:07:57Z</time>
      </trkpt>
      <trkpt lat="43.59497" lon="6.30855">
        <ele>667</ele>
        <time>2023-01-06T13:07:58Z</time>
      </trkpt>
      <trkpt lat="43.59497" lon="6.30857">
        <ele>667</ele>
        <time>2023-01-06T13:07:59Z</time>
      </trkpt>
      <trkpt lat="43.59498" lon="6.30858">
        <ele>667</ele>
        <time>2023-01-06T13:08:00Z</time>
      </trkpt>
      <trkpt lat="43.59498" lon="6.30859">
        <ele>667</ele>
        <time>2023-01-06T13:08:01Z</time>
      </trkpt>
      <trkpt lat="43.59498" lon="6.30861">
        <ele>667</ele>
        <time>2023-01-06T13:08:02Z</time>
      </trkpt>
      <trkpt lat="43.59499" lon="6.30862">
        <ele>668</ele>
        <time>2023-01-06T13:08:03Z</time>
      </trkpt>
      <trkpt lat="43.595" lon="6.30863">
        <ele>668</ele>
        <time>2023-01-06T13:08:04Z</time>
      </trkpt>
      <trkpt lat="43.595" lon="6.30864">
        <ele>669</ele>
        <time>2023-01-06T13:08:05Z</time>
      </trkpt>
      <trkpt lat="43.59501" lon="6.30866">
        <ele>669</ele>
        <time>2023-01-06T13:08:06Z</time>
      </trkpt>
      <trkpt lat="43.59502" lon="6.30867">
        <ele>669</ele>
        <time>2023-01-06T13:08:07Z</time>
      </trkpt>
      <trkpt lat="43.59502" lon="6.30869">
        <ele>669</ele>
        <time>2023-01-06T13:08:08Z</time>
      </trkpt>
      <trkpt lat="43.59502" lon="6.3087">
        <ele>669</ele>
        <time>2023-01-06T13:08:09Z</time>
      </trkpt>
      <trkpt lat="43.59503" lon="6.30872">
        <ele>669</ele>
        <time>2023-01-06T13:08:10Z</time>
      </trkpt>
      <trkpt lat="43.59503" lon="6.30873">
        <ele>670</ele>
        <time>2023-01-06T13:08:11Z</time>
      </trkpt>
      <trkpt lat="43.59503" lon="6.30875">
        <ele>670</ele>
        <time>2023-01-06T13:08:12Z</time>
      </trkpt>
      <trkpt lat="43.59503" lon="6.30877">
        <ele>670</ele>
        <time>2023-01-06T13:08:13Z</time>
      </trkpt>
      <trkpt lat="43.59503" lon="6.30878">
        <ele>670</ele>
        <time>2023-01-06T13:08:14Z</time>
      </trkpt>
      <trkpt lat="43.59503" lon="6.30879">
        <ele>670</ele>
        <time>2023-01-06T13:08:15Z</time>
      </trkpt>
      <trkpt lat="43.59502" lon="6.3088">
        <ele>671</ele>
        <time>2023-01-06T13:08:16Z</time>
      </trkpt>
      <trkpt lat="43.59502" lon="6.30881">
        <ele>672</ele>
        <time>2023-01-06T13:08:17Z</time>
      </trkpt>
      <trkpt lat="43.59502" lon="6.30882">
        <ele>672</ele>
        <time>2023-01-06T13:08:18Z</time>
      </trkpt>
      <trkpt lat="43.59502" lon="6.30883">
        <ele>672</ele>
        <time>2023-01-06T13:08:19Z</time>
      </trkpt>
      <trkpt lat="43.59501" lon="6.30884">
        <ele>672</ele>
        <time>2023-01-06T13:08:20Z</time>
      </trkpt>
      <trkpt lat="43.59501" lon="6.30885">
        <ele>672</ele>
        <time>2023-01-06T13:08:21Z</time>
      </trkpt>
      <trkpt lat="43.59501" lon="6.30885">
        <ele>672</ele>
        <time>2023-01-06T13:08:22Z</time>
      </trkpt>
      <trkpt lat="43.59501" lon="6.30886">
        <ele>672</ele>
        <time>2023-01-06T13:08:23Z</time>
      </trkpt>
      <trkpt lat="43.595" lon="6.30887">
        <ele>673</ele>
        <time>2023-01-06T13:08:24Z</time>
      </trkpt>
      <trkpt lat="43.595" lon="6.30888">
        <ele>673</ele>
        <time>2023-01-06T13:08:25Z</time>
      </trkpt>
      <trkpt lat="43.595" lon="6.30889">
        <ele>673</ele>
        <time>2023-01-06T13:08:26Z</time>
      </trkpt>
      <trkpt lat="43.59499" lon="6.3089">
        <ele>673</ele>
        <time>2023-01-06T13:08:27Z</time>
      </trkpt>
      <trkpt lat="43.59499" lon="6.30891">
        <ele>673</ele>
        <time>2023-01-06T13:08:28Z</time>
      </trkpt>
      <trkpt lat="43.59499" lon="6.30892">
        <ele>673</ele>
        <time>2023-01-06T13:08:29Z</time>
      </trkpt>
      <trkpt lat="43.59498" lon="6.30892">
        <ele>673</ele>
        <time>2023-01-06T13:08:30Z</time>
      </trkpt>
      <trkpt lat="43.59498" lon="6.30893">
        <ele>673</ele>
        <time>2023-01-06T13:08:31Z</time>
      </trkpt>
      <trkpt lat="43.59498" lon="6.30893">
        <ele>673</ele>
        <time>2023-01-06T13:08:32Z</time>
      </trkpt>
      <trkpt lat="43.59498" lon="6.30894">
        <ele>673</ele>
        <time>2023-01-06T13:08:33Z</time>
      </trkpt>
      <trkpt lat="43.59497" lon="6.30894">
        <ele>673</ele>
        <time>2023-01-06T13:08:34Z</time>
      </trkpt>
      <trkpt lat="43.59497" lon="6.30895">
        <ele>673</ele>
        <time>2023-01-06T13:08:35Z</time>
      </trkpt>
      <trkpt lat="43.59497" lon="6.30895">
        <ele>673</ele>
        <time>2023-01-06T13:08:36Z</time>
      </trkpt>
      <trkpt lat="43.59496" lon="6.30896">
        <ele>673</ele>
        <time>2023-01-06T13:08:37Z</time>
      </trkpt>
      <trkpt lat="43.59496" lon="6.30897">
        <ele>673</ele>
        <time>2023-01-06T13:08:38Z</time>
      </trkpt>
      <trkpt lat="43.59496" lon="6.30898">
        <ele>673</ele>
        <time>2023-01-06T13:08:39Z</time>
      </trkpt>
      <trkpt lat="43.59495" lon="6.30898">
        <ele>673</ele>
        <time>2023-01-06T13:08:40Z</time>
      </trkpt>
      <trkpt lat="43.59495" lon="6.30899">
        <ele>673</ele>
        <time>2023-01-06T13:08:41Z</time>
      </trkpt>
      <trkpt lat="43.59494" lon="6.30899">
        <ele>673</ele>
        <time>2023-01-06T13:08:42Z</time>
      </trkpt>
      <trkpt lat="43.59493" lon="6.309">
        <ele>673</ele>
        <time>2023-01-06T13:08:43Z</time>
      </trkpt>
      <trkpt lat="43.59493" lon="6.30901">
        <ele>673</ele>
        <time>2023-01-06T13:08:44Z</time>
      </trkpt>
      <trkpt lat="43.59492" lon="6.30901">
        <ele>673</ele>
        <time>2023-01-06T13:08:45Z</time>
      </trkpt>
      <trkpt lat="43.59491" lon="6.30902">
        <ele>673</ele>
        <time>2023-01-06T13:08:46Z</time>
      </trkpt>
      <trkpt lat="43.5949" lon="6.30903">
        <ele>673</ele>
        <time>2023-01-06T13:08:47Z</time>
      </trkpt>
      <trkpt lat="43.5949" lon="6.30903">
        <ele>672</ele>
        <time>2023-01-06T13:08:48Z</time>
      </trkpt>
      <trkpt lat="43.5949" lon="6.30904">
        <ele>672</ele>
        <time>2023-01-06T13:08:49Z</time>
      </trkpt>
      <trkpt lat="43.5949" lon="6.30905">
        <ele>672</ele>
        <time>2023-01-06T13:08:50Z</time>
      </trkpt>
      <trkpt lat="43.5949" lon="6.30906">
        <ele>672</ele>
        <time>2023-01-06T13:08:51Z</time>
      </trkpt>
      <trkpt lat="43.5949" lon="6.30906">
        <ele>672</ele>
        <time>2023-01-06T13:08:52Z</time>
      </trkpt>
      <trkpt lat="43.5949" lon="6.30906">
        <ele>672</ele>
        <time>2023-01-06T13:08:53Z</time>
      </trkpt>
      <trkpt lat="43.5949" lon="6.30906">
        <ele>672</ele>
        <time>2023-01-06T13:08:54Z</time>
      </trkpt>
      <trkpt lat="43.5949" lon="6.30906">
        <ele>672</ele>
        <time>2023-01-06T13:08:55Z</time>
      </trkpt>
      <trkpt lat="43.5949" lon="6.30905">
        <ele>672</ele>
        <time>2023-01-06T13:08:56Z</time>
      </trkpt>
      <trkpt lat="43.5949" lon="6.30905">
        <ele>672</ele>
        <time>2023-01-06T13:08:57Z</time>
      </trkpt>
      <trkpt lat="43.59491" lon="6.30905">
        <ele>672</ele>
        <time>2023-01-06T13:08:58Z</time>
      </trkpt>
      <trkpt lat="43.59491" lon="6.30905">
        <ele>672</ele>
        <time>2023-01-06T13:08:59Z</time>
      </trkpt>
      <trkpt lat="43.59491" lon="6.30905">
        <ele>672</ele>
        <time>2023-01-06T13:09:00Z</time>
      </trkpt>
      <trkpt lat="43.59491" lon="6.30905">
        <ele>672</ele>
        <time>2023-01-06T13:09:01Z</time>
      </trkpt>
      <trkpt lat="43.59491" lon="6.30905">
        <ele>672</ele>
        <time>2023-01-06T13:09:02Z</time>
      </trkpt>
      <trkpt lat="43.59491" lon="6.30905">
        <ele>672</ele>
        <time>2023-01-06T13:09:03Z</time>
      </trkpt>
      <trkpt lat="43.59491" lon="6.30905">
        <ele>672</ele>
        <time>2023-01-06T13:09:04Z</time>
      </trkpt>
      <trkpt lat="43.59491" lon="6.30905">
        <ele>672</ele>
        <time>2023-01-06T13:09:05Z</time>
      </trkpt>
      <trkpt lat="43.59491" lon="6.30905">
        <ele>672</ele>
        <time>2023-01-06T13:09:06Z</time>
      </trkpt>
      <trkpt lat="43.59491" lon="6.30905">
        <ele>672</ele>
        <time>2023-01-06T13:09:07Z</time>
      </trkpt>
      <trkpt lat="43.59491" lon="6.30905">
        <ele>672</ele>
        <time>2023-01-06T13:09:08Z</time>
      </trkpt>
      <trkpt lat="43.59491" lon="6.30905">
        <ele>672</ele>
        <time>2023-01-06T13:09:09Z</time>
      </trkpt>
      <trkpt lat="43.59491" lon="6.30905">
        <ele>672</ele>
        <time>2023-01-06T13:09:10Z</time>
      </trkpt>
      <trkpt lat="43.59491" lon="6.30904">
        <ele>672</ele>
        <time>2023-01-06T13:09:11Z</time>
      </trkpt>
      <trkpt lat="43.5949" lon="6.30904">
        <ele>672</ele>
        <time>2023-01-06T13:09:12Z</time>
      </trkpt>
      <trkpt lat="43.5949" lon="6.30904">
        <ele>672</ele>
        <time>2023-01-06T13:09:13Z</time>
      </trkpt>
      <trkpt lat="43.5949" lon="6.30904">
        <ele>672</ele>
        <time>2023-01-06T13:09:14Z</time>
      </trkpt>
      <trkpt lat="43.5949" lon="6.30904">
        <ele>672</ele>
        <time>2023-01-06T13:09:15Z</time>
      </trkpt>
      <trkpt lat="43.5949" lon="6.30904">
        <ele>672</ele>
        <time>2023-01-06T13:09:16Z</time>
      </trkpt>
      <trkpt lat="43.59489" lon="6.30905">
        <ele>672</ele>
        <time>2023-01-06T13:09:17Z</time>
      </trkpt>
      <trkpt lat="43.59489" lon="6.30905">
        <ele>672</ele>
        <time>2023-01-06T13:09:18Z</time>
      </trkpt>
      <trkpt lat="43.59489" lon="6.30905">
        <ele>672</ele>
        <time>2023-01-06T13:09:19Z</time>
      </trkpt>
      <trkpt lat="43.59489" lon="6.30906">
        <ele>672</ele>
        <time>2023-01-06T13:09:20Z</time>
      </trkpt>
      <trkpt lat="43.59489" lon="6.30907">
        <ele>672</ele>
        <time>2023-01-06T13:09:21Z</time>
      </trkpt>
      <trkpt lat="43.59488" lon="6.30907">
        <ele>672</ele>
        <time>2023-01-06T13:09:22Z</time>
      </trkpt>
      <trkpt lat="43.59488" lon="6.30908">
        <ele>672</ele>
        <time>2023-01-06T13:09:23Z</time>
      </trkpt>
      <trkpt lat="43.59487" lon="6.30909">
        <ele>672</ele>
        <time>2023-01-06T13:09:24Z</time>
      </trkpt>
      <trkpt lat="43.59487" lon="6.3091">
        <ele>672</ele>
        <time>2023-01-06T13:09:25Z</time>
      </trkpt>
      <trkpt lat="43.59486" lon="6.30911">
        <ele>672</ele>
        <time>2023-01-06T13:09:26Z</time>
      </trkpt>
      <trkpt lat="43.59486" lon="6.30911">
        <ele>672</ele>
        <time>2023-01-06T13:09:27Z</time>
      </trkpt>
      <trkpt lat="43.59485" lon="6.30912">
        <ele>672</ele>
        <time>2023-01-06T13:09:28Z</time>
      </trkpt>
      <trkpt lat="43.59484" lon="6.30913">
        <ele>672</ele>
        <time>2023-01-06T13:09:29Z</time>
      </trkpt>
      <trkpt lat="43.59483" lon="6.30914">
        <ele>672</ele>
        <time>2023-01-06T13:09:30Z</time>
      </trkpt>
      <trkpt lat="43.59483" lon="6.30915">
        <ele>672</ele>
        <time>2023-01-06T13:09:31Z</time>
      </trkpt>
      <trkpt lat="43.59482" lon="6.30915">
        <ele>672</ele>
        <time>2023-01-06T13:09:32Z</time>
      </trkpt>
      <trkpt lat="43.59481" lon="6.30916">
        <ele>672</ele>
        <time>2023-01-06T13:09:33Z</time>
      </trkpt>
      <trkpt lat="43.59481" lon="6.30917">
        <ele>672</ele>
        <time>2023-01-06T13:09:34Z</time>
      </trkpt>
      <trkpt lat="43.5948" lon="6.30918">
        <ele>672</ele>
        <time>2023-01-06T13:09:35Z</time>
      </trkpt>
      <trkpt lat="43.59479" lon="6.30918">
        <ele>672</ele>
        <time>2023-01-06T13:09:36Z</time>
      </trkpt>
      <trkpt lat="43.59478" lon="6.30918">
        <ele>672</ele>
        <time>2023-01-06T13:09:37Z</time>
      </trkpt>
      <trkpt lat="43.59478" lon="6.30919">
        <ele>672</ele>
        <time>2023-01-06T13:09:38Z</time>
      </trkpt>
      <trkpt lat="43.59477" lon="6.30919">
        <ele>672</ele>
        <time>2023-01-06T13:09:39Z</time>
      </trkpt>
      <trkpt lat="43.59477" lon="6.30919">
        <ele>672</ele>
        <time>2023-01-06T13:09:40Z</time>
      </trkpt>
      <trkpt lat="43.59477" lon="6.30919">
        <ele>672</ele>
        <time>2023-01-06T13:09:41Z</time>
      </trkpt>
      <trkpt lat="43.59476" lon="6.30919">
        <ele>672</ele>
        <time>2023-01-06T13:09:42Z</time>
      </trkpt>
      <trkpt lat="43.59476" lon="6.30919">
        <ele>672</ele>
        <time>2023-01-06T13:09:43Z</time>
      </trkpt>
      <trkpt lat="43.59476" lon="6.30919">
        <ele>672</ele>
        <time>2023-01-06T13:09:44Z</time>
      </trkpt>
      <trkpt lat="43.59476" lon="6.3092">
        <ele>672</ele>
        <time>2023-01-06T13:09:45Z</time>
      </trkpt>
      <trkpt lat="43.59475" lon="6.3092">
        <ele>672</ele>
        <time>2023-01-06T13:09:46Z</time>
      </trkpt>
      <trkpt lat="43.59475" lon="6.30921">
        <ele>672</ele>
        <time>2023-01-06T13:09:47Z</time>
      </trkpt>
      <trkpt lat="43.59475" lon="6.30921">
        <ele>672</ele>
        <time>2023-01-06T13:09:48Z</time>
      </trkpt>
      <trkpt lat="43.59475" lon="6.30922">
        <ele>672</ele>
        <time>2023-01-06T13:09:49Z</time>
      </trkpt>
      <trkpt lat="43.59475" lon="6.30922">
        <ele>672</ele>
        <time>2023-01-06T13:09:50Z</time>
      </trkpt>
      <trkpt lat="43.59474" lon="6.30923">
        <ele>673</ele>
        <time>2023-01-06T13:09:51Z</time>
      </trkpt>
      <trkpt lat="43.59474" lon="6.30924">
        <ele>673</ele>
        <time>2023-01-06T13:09:52Z</time>
      </trkpt>
      <trkpt lat="43.59474" lon="6.30925">
        <ele>673</ele>
        <time>2023-01-06T13:09:53Z</time>
      </trkpt>
      <trkpt lat="43.59474" lon="6.30926">
        <ele>673</ele>
        <time>2023-01-06T13:09:54Z</time>
      </trkpt>
      <trkpt lat="43.59473" lon="6.30927">
        <ele>673</ele>
        <time>2023-01-06T13:09:55Z</time>
      </trkpt>
      <trkpt lat="43.59473" lon="6.30928">
        <ele>672</ele>
        <time>2023-01-06T13:09:56Z</time>
      </trkpt>
      <trkpt lat="43.59473" lon="6.30929">
        <ele>672</ele>
        <time>2023-01-06T13:09:57Z</time>
      </trkpt>
      <trkpt lat="43.59472" lon="6.3093">
        <ele>672</ele>
        <time>2023-01-06T13:09:58Z</time>
      </trkpt>
      <trkpt lat="43.59472" lon="6.30931">
        <ele>672</ele>
        <time>2023-01-06T13:09:59Z</time>
      </trkpt>
      <trkpt lat="43.59471" lon="6.30932">
        <ele>672</ele>
        <time>2023-01-06T13:10:00Z</time>
      </trkpt>
      <trkpt lat="43.59471" lon="6.30933">
        <ele>672</ele>
        <time>2023-01-06T13:10:01Z</time>
      </trkpt>
      <trkpt lat="43.59471" lon="6.30934">
        <ele>672</ele>
        <time>2023-01-06T13:10:02Z</time>
      </trkpt>
      <trkpt lat="43.5947" lon="6.30935">
        <ele>672</ele>
        <time>2023-01-06T13:10:03Z</time>
      </trkpt>
      <trkpt lat="43.5947" lon="6.30935">
        <ele>672</ele>
        <time>2023-01-06T13:10:04Z</time>
      </trkpt>
      <trkpt lat="43.5947" lon="6.30935">
        <ele>672</ele>
        <time>2023-01-06T13:10:05Z</time>
      </trkpt>
      <trkpt lat="43.5947" lon="6.30935">
        <ele>672</ele>
        <time>2023-01-06T13:10:06Z</time>
      </trkpt>
      <trkpt lat="43.5947" lon="6.30935">
        <ele>672</ele>
        <time>2023-01-06T13:10:07Z</time>
      </trkpt>
      <trkpt lat="43.5947" lon="6.30935">
        <ele>672</ele>
        <time>2023-01-06T13:10:08Z</time>
      </trkpt>
      <trkpt lat="43.5947" lon="6.30935">
        <ele>672</ele>
        <time>2023-01-06T13:10:09Z</time>
      </trkpt>
      <trkpt lat="43.5947" lon="6.30935">
        <ele>672</ele>
        <time>2023-01-06T13:10:10Z</time>
      </trkpt>
      <trkpt lat="43.5947" lon="6.30935">
        <ele>672</ele>
        <time>2023-01-06T13:10:11Z</time>
      </trkpt>
      <trkpt lat="43.59469" lon="6.30937">
        <ele>672</ele>
        <time>2023-01-06T13:10:12Z</time>
      </trkpt>
      <trkpt lat="43.59469" lon="6.30937">
        <ele>672</ele>
        <time>2023-01-06T13:10:13Z</time>
      </trkpt>
      <trkpt lat="43.59469" lon="6.30937">
        <ele>672</ele>
        <time>2023-01-06T13:10:14Z</time>
      </trkpt>
      <trkpt lat="43.59468" lon="6.30937">
        <ele>672</ele>
        <time>2023-01-06T13:10:15Z</time>
      </trkpt>
      <trkpt lat="43.59468" lon="6.30937">
        <ele>672</ele>
        <time>2023-01-06T13:10:16Z</time>
      </trkpt>
      <trkpt lat="43.59468" lon="6.30938">
        <ele>672</ele>
        <time>2023-01-06T13:10:17Z</time>
      </trkpt>
      <trkpt lat="43.59468" lon="6.30938">
        <ele>672</ele>
        <time>2023-01-06T13:10:18Z</time>
      </trkpt>
      <trkpt lat="43.59468" lon="6.30938">
        <ele>672</ele>
        <time>2023-01-06T13:10:19Z</time>
      </trkpt>
      <trkpt lat="43.59468" lon="6.30938">
        <ele>672</ele>
        <time>2023-01-06T13:10:20Z</time>
      </trkpt>
      <trkpt lat="43.59468" lon="6.30938">
        <ele>672</ele>
        <time>2023-01-06T13:10:21Z</time>
      </trkpt>
      <trkpt lat="43.59468" lon="6.30938">
        <ele>672</ele>
        <time>2023-01-06T13:10:22Z</time>
      </trkpt>
      <trkpt lat="43.59468" lon="6.30938">
        <ele>672</ele>
        <time>2023-01-06T13:10:23Z</time>
      </trkpt>
      <trkpt lat="43.59468" lon="6.30938">
        <ele>672</ele>
        <time>2023-01-06T13:10:24Z</time>
      </trkpt>
      <trkpt lat="43.59468" lon="6.30938">
        <ele>672</ele>
        <time>2023-01-06T13:10:25Z</time>
      </trkpt>
      <trkpt lat="43.59468" lon="6.30938">
        <ele>672</ele>
        <time>2023-01-06T13:10:26Z</time>
      </trkpt>
      <trkpt lat="43.59468" lon="6.30938">
        <ele>672</ele>
        <time>2023-01-06T13:10:27Z</time>
      </trkpt>
      <trkpt lat="43.59468" lon="6.30938">
        <ele>672</ele>
        <time>2023-01-06T13:10:28Z</time>
      </trkpt>
      <trkpt lat="43.59468" lon="6.30938">
        <ele>672</ele>
        <time>2023-01-06T13:10:29Z</time>
      </trkpt>
      <trkpt lat="43.59468" lon="6.30938">
        <ele>672</ele>
        <time>2023-01-06T13:10:30Z</time>
      </trkpt>
      <trkpt lat="43.59468" lon="6.30938">
        <ele>672</ele>
        <time>2023-01-06T13:10:31Z</time>
      </trkpt>
      <trkpt lat="43.59468" lon="6.30938">
        <ele>672</ele>
        <time>2023-01-06T13:10:32Z</time>
      </trkpt>
      <trkpt lat="43.59468" lon="6.30938">
        <ele>672</ele>
        <time>2023-01-06T13:10:33Z</time>
      </trkpt>
      <trkpt lat="43.59468" lon="6.30938">
        <ele>672</ele>
        <time>2023-01-06T13:10:34Z</time>
      </trkpt>
      <trkpt lat="43.59468" lon="6.30938">
        <ele>672</ele>
        <time>2023-01-06T13:10:35Z</time>
      </trkpt>
      <trkpt lat="43.59468" lon="6.30938">
        <ele>672</ele>
        <time>2023-01-06T13:10:36Z</time>
      </trkpt>
      <trkpt lat="43.59468" lon="6.30938">
        <ele>672</ele>
        <time>2023-01-06T13:10:37Z</time>
      </trkpt>
      <trkpt lat="43.59468" lon="6.30938">
        <ele>672</ele>
        <time>2023-01-06T13:10:38Z</time>
      </trkpt>
      <trkpt lat="43.59468" lon="6.30938">
        <ele>672</ele>
        <time>2023-01-06T13:10:39Z</time>
      </trkpt>
      <trkpt lat="43.59468" lon="6.30938">
        <ele>672</ele>
        <time>2023-01-06T13:10:40Z</time>
      </trkpt>
      <trkpt lat="43.59468" lon="6.30938">
        <ele>672</ele>
        <time>2023-01-06T13:10:41Z</time>
      </trkpt>
      <trkpt lat="43.59468" lon="6.30938">
        <ele>672</ele>
        <time>2023-01-06T13:10:42Z</time>
      </trkpt>
      <trkpt lat="43.59468" lon="6.30938">
        <ele>672</ele>
        <time>2023-01-06T13:10:43Z</time>
      </trkpt>
      <trkpt lat="43.59468" lon="6.30938">
        <ele>672</ele>
        <time>2023-01-06T13:10:44Z</time>
      </trkpt>
      <trkpt lat="43.59468" lon="6.30938">
        <ele>672</ele>
        <time>2023-01-06T13:10:45Z</time>
      </trkpt>
      <trkpt lat="43.59468" lon="6.30938">
        <ele>672</ele>
        <time>2023-01-06T13:10:46Z</time>
      </trkpt>
      <trkpt lat="43.59468" lon="6.30938">
        <ele>672</ele>
        <time>2023-01-06T13:10:47Z</time>
      </trkpt>
      <trkpt lat="43.59468" lon="6.30938">
        <ele>672</ele>
        <time>2023-01-06T13:10:48Z</time>
      </trkpt>
      <trkpt lat="43.59468" lon="6.30938">
        <ele>672</ele>
        <time>2023-01-06T13:10:49Z</time>
      </trkpt>
      <trkpt lat="43.59468" lon="6.30938">
        <ele>672</ele>
        <time>2023-01-06T13:10:50Z</time>
      </trkpt>
      <trkpt lat="43.59468" lon="6.30938">
        <ele>672</ele>
        <time>2023-01-06T13:10:51Z</time>
      </trkpt>
      <trkpt lat="43.59468" lon="6.30938">
        <ele>672</ele>
        <time>2023-01-06T13:10:52Z</time>
      </trkpt>
      <trkpt lat="43.59468" lon="6.30938">
        <ele>672</ele>
        <time>2023-01-06T13:10:53Z</time>
      </trkpt>
      <trkpt lat="43.59468" lon="6.30938">
        <ele>672</ele>
        <time>2023-01-06T13:10:54Z</time>
      </trkpt>
      <trkpt lat="43.59468" lon="6.30938">
        <ele>672</ele>
        <time>2023-01-06T13:10:55Z</time>
      </trkpt>
      <trkpt lat="43.59468" lon="6.30938">
        <ele>672</ele>
        <time>2023-01-06T13:10:56Z</time>
      </trkpt>
      <trkpt lat="43.59468" lon="6.30938">
        <ele>672</ele>
        <time>2023-01-06T13:10:57Z</time>
      </trkpt>
      <trkpt lat="43.59468" lon="6.30938">
        <ele>672</ele>
        <time>2023-01-06T13:10:58Z</time>
      </trkpt>
      <trkpt lat="43.59468" lon="6.30938">
        <ele>672</ele>
        <time>2023-01-06T13:10:59Z</time>
      </trkpt>
      <trkpt lat="43.59468" lon="6.30938">
        <ele>672</ele>
        <time>2023-01-06T13:11:00Z</time>
      </trkpt>
      <trkpt lat="43.59468" lon="6.30938">
        <ele>672</ele>
        <time>2023-01-06T13:11:01Z</time>
      </trkpt>
      <trkpt lat="43.59468" lon="6.30938">
        <ele>672</ele>
        <time>2023-01-06T13:11:02Z</time>
      </trkpt>
      <trkpt lat="43.59468" lon="6.30938">
        <ele>672</ele>
        <time>2023-01-06T13:11:03Z</time>
      </trkpt>
      <trkpt lat="43.59468" lon="6.30938">
        <ele>672</ele>
        <time>2023-01-06T13:11:04Z</time>
      </trkpt>
      <trkpt lat="43.59468" lon="6.30938">
        <ele>672</ele>
        <time>2023-01-06T13:11:05Z</time>
      </trkpt>
      <trkpt lat="43.59468" lon="6.30938">
        <ele>672</ele>
        <time>2023-01-06T13:11:06Z</time>
      </trkpt>
      <trkpt lat="43.59468" lon="6.30938">
        <ele>672</ele>
        <time>2023-01-06T13:11:07Z</time>
      </trkpt>
      <trkpt lat="43.59469" lon="6.30937">
        <ele>672</ele>
        <time>2023-01-06T13:11:08Z</time>
      </trkpt>
      <trkpt lat="43.59469" lon="6.30937">
        <ele>672</ele>
        <time>2023-01-06T13:11:09Z</time>
      </trkpt>
      <trkpt lat="43.59469" lon="6.30937">
        <ele>672</ele>
        <time>2023-01-06T13:11:10Z</time>
      </trkpt>
      <trkpt lat="43.59469" lon="6.30937">
        <ele>672</ele>
        <time>2023-01-06T13:11:11Z</time>
      </trkpt>
      <trkpt lat="43.59469" lon="6.30936">
        <ele>672</ele>
        <time>2023-01-06T13:11:12Z</time>
      </trkpt>
      <trkpt lat="43.5947" lon="6.30936">
        <ele>672</ele>
        <time>2023-01-06T13:11:13Z</time>
      </trkpt>
      <trkpt lat="43.5947" lon="6.30936">
        <ele>672</ele>
        <time>2023-01-06T13:11:14Z</time>
      </trkpt>
      <trkpt lat="43.5947" lon="6.30936">
        <ele>672</ele>
        <time>2023-01-06T13:11:15Z</time>
      </trkpt>
      <trkpt lat="43.5947" lon="6.30936">
        <ele>672</ele>
        <time>2023-01-06T13:11:16Z</time>
      </trkpt>
      <trkpt lat="43.5947" lon="6.30936">
        <ele>672</ele>
        <time>2023-01-06T13:11:17Z</time>
      </trkpt>
      <trkpt lat="43.5947" lon="6.30936">
        <ele>672</ele>
        <time>2023-01-06T13:11:18Z</time>
      </trkpt>
      <trkpt lat="43.5947" lon="6.30936">
        <ele>672</ele>
        <time>2023-01-06T13:11:19Z</time>
      </trkpt>
      <trkpt lat="43.5947" lon="6.30936">
        <ele>672</ele>
        <time>2023-01-06T13:11:20Z</time>
      </trkpt>
      <trkpt lat="43.5947" lon="6.30936">
        <ele>672</ele>
        <time>2023-01-06T13:11:21Z</time>
      </trkpt>
      <trkpt lat="43.5947" lon="6.30935">
        <ele>672</ele>
        <time>2023-01-06T13:11:22Z</time>
      </trkpt>
      <trkpt lat="43.5947" lon="6.30935">
        <ele>672</ele>
        <time>2023-01-06T13:11:23Z</time>
      </trkpt>
      <trkpt lat="43.59471" lon="6.30934">
        <ele>672</ele>
        <time>2023-01-06T13:11:24Z</time>
      </trkpt>
      <trkpt lat="43.59471" lon="6.30933">
        <ele>672</ele>
        <time>2023-01-06T13:11:25Z</time>
      </trkpt>
      <trkpt lat="43.59472" lon="6.30933">
        <ele>672</ele>
        <time>2023-01-06T13:11:26Z</time>
      </trkpt>
      <trkpt lat="43.59472" lon="6.30931">
        <ele>672</ele>
        <time>2023-01-06T13:11:27Z</time>
      </trkpt>
      <trkpt lat="43.59473" lon="6.3093">
        <ele>672</ele>
        <time>2023-01-06T13:11:28Z</time>
      </trkpt>
      <trkpt lat="43.59473" lon="6.30929">
        <ele>672</ele>
        <time>2023-01-06T13:11:29Z</time>
      </trkpt>
      <trkpt lat="43.59474" lon="6.30928">
        <ele>672</ele>
        <time>2023-01-06T13:11:30Z</time>
      </trkpt>
      <trkpt lat="43.59474" lon="6.30927">
        <ele>672</ele>
        <time>2023-01-06T13:11:31Z</time>
      </trkpt>
      <trkpt lat="43.59475" lon="6.30926">
        <ele>672</ele>
        <time>2023-01-06T13:11:32Z</time>
      </trkpt>
      <trkpt lat="43.59476" lon="6.30925">
        <ele>672</ele>
        <time>2023-01-06T13:11:33Z</time>
      </trkpt>
      <trkpt lat="43.59476" lon="6.30924">
        <ele>674</ele>
        <time>2023-01-06T13:11:34Z</time>
      </trkpt>
      <trkpt lat="43.59477" lon="6.30923">
        <ele>674</ele>
        <time>2023-01-06T13:11:35Z</time>
      </trkpt>
      <trkpt lat="43.59477" lon="6.30923">
        <ele>674</ele>
        <time>2023-01-06T13:11:36Z</time>
      </trkpt>
      <trkpt lat="43.59477" lon="6.30922">
        <ele>674</ele>
        <time>2023-01-06T13:11:37Z</time>
      </trkpt>
      <trkpt lat="43.59478" lon="6.30922">
        <ele>674</ele>
        <time>2023-01-06T13:11:38Z</time>
      </trkpt>
      <trkpt lat="43.59478" lon="6.30922">
        <ele>674</ele>
        <time>2023-01-06T13:11:39Z</time>
      </trkpt>
      <trkpt lat="43.59479" lon="6.30921">
        <ele>674</ele>
        <time>2023-01-06T13:11:40Z</time>
      </trkpt>
      <trkpt lat="43.59479" lon="6.30921">
        <ele>674</ele>
        <time>2023-01-06T13:11:41Z</time>
      </trkpt>
      <trkpt lat="43.5948" lon="6.3092">
        <ele>674</ele>
        <time>2023-01-06T13:11:42Z</time>
      </trkpt>
      <trkpt lat="43.5948" lon="6.3092">
        <ele>674</ele>
        <time>2023-01-06T13:11:43Z</time>
      </trkpt>
      <trkpt lat="43.5948" lon="6.3092">
        <ele>674</ele>
        <time>2023-01-06T13:11:44Z</time>
      </trkpt>
      <trkpt lat="43.59481" lon="6.30919">
        <ele>674</ele>
        <time>2023-01-06T13:11:45Z</time>
      </trkpt>
      <trkpt lat="43.59481" lon="6.30919">
        <ele>674</ele>
        <time>2023-01-06T13:11:46Z</time>
      </trkpt>
      <trkpt lat="43.59482" lon="6.30919">
        <ele>675</ele>
        <time>2023-01-06T13:11:47Z</time>
      </trkpt>
      <trkpt lat="43.59482" lon="6.30919">
        <ele>675</ele>
        <time>2023-01-06T13:11:48Z</time>
      </trkpt>
      <trkpt lat="43.59483" lon="6.30919">
        <ele>675</ele>
        <time>2023-01-06T13:11:49Z</time>
      </trkpt>
      <trkpt lat="43.59484" lon="6.30919">
        <ele>675</ele>
        <time>2023-01-06T13:11:50Z</time>
      </trkpt>
      <trkpt lat="43.59484" lon="6.30919">
        <ele>676</ele>
        <time>2023-01-06T13:11:51Z</time>
      </trkpt>
      <trkpt lat="43.59485" lon="6.30919">
        <ele>676</ele>
        <time>2023-01-06T13:11:52Z</time>
      </trkpt>
      <trkpt lat="43.59486" lon="6.30919">
        <ele>676</ele>
        <time>2023-01-06T13:11:53Z</time>
      </trkpt>
      <trkpt lat="43.59486" lon="6.30919">
        <ele>676</ele>
        <time>2023-01-06T13:11:54Z</time>
      </trkpt>
      <trkpt lat="43.59486" lon="6.30919">
        <ele>676</ele>
        <time>2023-01-06T13:11:55Z</time>
      </trkpt>
      <trkpt lat="43.59487" lon="6.30919">
        <ele>676</ele>
        <time>2023-01-06T13:11:56Z</time>
      </trkpt>
      <trkpt lat="43.59487" lon="6.3092">
        <ele>677</ele>
        <time>2023-01-06T13:11:57Z</time>
      </trkpt>
      <trkpt lat="43.59487" lon="6.3092">
        <ele>677</ele>
        <time>2023-01-06T13:11:58Z</time>
      </trkpt>
      <trkpt lat="43.59488" lon="6.30921">
        <ele>677</ele>
        <time>2023-01-06T13:11:59Z</time>
      </trkpt>
      <trkpt lat="43.59488" lon="6.30921">
        <ele>677</ele>
        <time>2023-01-06T13:12:00Z</time>
      </trkpt>
      <trkpt lat="43.59489" lon="6.30922">
        <ele>677</ele>
        <time>2023-01-06T13:12:01Z</time>
      </trkpt>
      <trkpt lat="43.59489" lon="6.30922">
        <ele>677</ele>
        <time>2023-01-06T13:12:02Z</time>
      </trkpt>
      <trkpt lat="43.59489" lon="6.30922">
        <ele>677</ele>
        <time>2023-01-06T13:12:03Z</time>
      </trkpt>
      <trkpt lat="43.5949" lon="6.30923">
        <ele>677</ele>
        <time>2023-01-06T13:12:04Z</time>
      </trkpt>
      <trkpt lat="43.5949" lon="6.30923">
        <ele>677</ele>
        <time>2023-01-06T13:12:05Z</time>
      </trkpt>
      <trkpt lat="43.5949" lon="6.30924">
        <ele>677</ele>
        <time>2023-01-06T13:12:06Z</time>
      </trkpt>
      <trkpt lat="43.59491" lon="6.30924">
        <ele>677</ele>
        <time>2023-01-06T13:12:07Z</time>
      </trkpt>
      <trkpt lat="43.59491" lon="6.30925">
        <ele>677</ele>
        <time>2023-01-06T13:12:08Z</time>
      </trkpt>
      <trkpt lat="43.59492" lon="6.30926">
        <ele>678</ele>
        <time>2023-01-06T13:12:09Z</time>
      </trkpt>
      <trkpt lat="43.59492" lon="6.30926">
        <ele>678</ele>
        <time>2023-01-06T13:12:10Z</time>
      </trkpt>
      <trkpt lat="43.59493" lon="6.30927">
        <ele>678</ele>
        <time>2023-01-06T13:12:11Z</time>
      </trkpt>
      <trkpt lat="43.59493" lon="6.30928">
        <ele>678</ele>
        <time>2023-01-06T13:12:12Z</time>
      </trkpt>
      <trkpt lat="43.59494" lon="6.30928">
        <ele>679</ele>
        <time>2023-01-06T13:12:13Z</time>
      </trkpt>
      <trkpt lat="43.59494" lon="6.30929">
        <ele>679</ele>
        <time>2023-01-06T13:12:14Z</time>
      </trkpt>
      <trkpt lat="43.59494" lon="6.3093">
        <ele>679</ele>
        <time>2023-01-06T13:12:15Z</time>
      </trkpt>
      <trkpt lat="43.59495" lon="6.30931">
        <ele>679</ele>
        <time>2023-01-06T13:12:16Z</time>
      </trkpt>
      <trkpt lat="43.59495" lon="6.30932">
        <ele>679</ele>
        <time>2023-01-06T13:12:17Z</time>
      </trkpt>
      <trkpt lat="43.59495" lon="6.30933">
        <ele>679</ele>
        <time>2023-01-06T13:12:18Z</time>
      </trkpt>
      <trkpt lat="43.59496" lon="6.30934">
        <ele>679</ele>
        <time>2023-01-06T13:12:19Z</time>
      </trkpt>
      <trkpt lat="43.59496" lon="6.30935">
        <ele>679</ele>
        <time>2023-01-06T13:12:20Z</time>
      </trkpt>
      <trkpt lat="43.59496" lon="6.30937">
        <ele>679</ele>
        <time>2023-01-06T13:12:21Z</time>
      </trkpt>
      <trkpt lat="43.59497" lon="6.30938">
        <ele>679</ele>
        <time>2023-01-06T13:12:22Z</time>
      </trkpt>
      <trkpt lat="43.59497" lon="6.3094">
        <ele>679</ele>
        <time>2023-01-06T13:12:23Z</time>
      </trkpt>
      <trkpt lat="43.59497" lon="6.3094">
        <ele>679</ele>
        <time>2023-01-06T13:12:24Z</time>
      </trkpt>
      <trkpt lat="43.59498" lon="6.30941">
        <ele>679</ele>
        <time>2023-01-06T13:12:25Z</time>
      </trkpt>
      <trkpt lat="43.59498" lon="6.30943">
        <ele>679</ele>
        <time>2023-01-06T13:12:26Z</time>
      </trkpt>
      <trkpt lat="43.59499" lon="6.30944">
        <ele>679</ele>
        <time>2023-01-06T13:12:27Z</time>
      </trkpt>
      <trkpt lat="43.59499" lon="6.30945">
        <ele>679</ele>
        <time>2023-01-06T13:12:28Z</time>
      </trkpt>
      <trkpt lat="43.59499" lon="6.30947">
        <ele>679</ele>
        <time>2023-01-06T13:12:29Z</time>
      </trkpt>
      <trkpt lat="43.595" lon="6.30948">
        <ele>679</ele>
        <time>2023-01-06T13:12:30Z</time>
      </trkpt>
      <trkpt lat="43.59501" lon="6.30949">
        <ele>679</ele>
        <time>2023-01-06T13:12:31Z</time>
      </trkpt>
      <trkpt lat="43.59501" lon="6.3095">
        <ele>679</ele>
        <time>2023-01-06T13:12:32Z</time>
      </trkpt>
      <trkpt lat="43.59501" lon="6.3095">
        <ele>678</ele>
        <time>2023-01-06T13:12:33Z</time>
      </trkpt>
      <trkpt lat="43.59502" lon="6.30951">
        <ele>678</ele>
        <time>2023-01-06T13:12:34Z</time>
      </trkpt>
      <trkpt lat="43.59502" lon="6.30952">
        <ele>678</ele>
        <time>2023-01-06T13:12:35Z</time>
      </trkpt>
      <trkpt lat="43.59502" lon="6.30952">
        <ele>678</ele>
        <time>2023-01-06T13:12:36Z</time>
      </trkpt>
      <trkpt lat="43.59503" lon="6.30953">
        <ele>678</ele>
        <time>2023-01-06T13:12:37Z</time>
      </trkpt>
      <trkpt lat="43.59503" lon="6.30954">
        <ele>678</ele>
        <time>2023-01-06T13:12:38Z</time>
      </trkpt>
      <trkpt lat="43.59503" lon="6.30955">
        <ele>678</ele>
        <time>2023-01-06T13:12:39Z</time>
      </trkpt>
      <trkpt lat="43.59504" lon="6.30956">
        <ele>678</ele>
        <time>2023-01-06T13:12:40Z</time>
      </trkpt>
      <trkpt lat="43.59504" lon="6.30957">
        <ele>679</ele>
        <time>2023-01-06T13:12:41Z</time>
      </trkpt>
      <trkpt lat="43.59504" lon="6.30958">
        <ele>679</ele>
        <time>2023-01-06T13:12:42Z</time>
      </trkpt>
      <trkpt lat="43.59505" lon="6.30958">
        <ele>679</ele>
        <time>2023-01-06T13:12:43Z</time>
      </trkpt>
      <trkpt lat="43.59505" lon="6.30959">
        <ele>679</ele>
        <time>2023-01-06T13:12:44Z</time>
      </trkpt>
      <trkpt lat="43.59506" lon="6.3096">
        <ele>679</ele>
        <time>2023-01-06T13:12:45Z</time>
      </trkpt>
      <trkpt lat="43.59506" lon="6.30961">
        <ele>679</ele>
        <time>2023-01-06T13:12:46Z</time>
      </trkpt>
      <trkpt lat="43.59507" lon="6.30962">
        <ele>679</ele>
        <time>2023-01-06T13:12:47Z</time>
      </trkpt>
      <trkpt lat="43.59508" lon="6.30963">
        <ele>679</ele>
        <time>2023-01-06T13:12:48Z</time>
      </trkpt>
      <trkpt lat="43.59509" lon="6.30964">
        <ele>679</ele>
        <time>2023-01-06T13:12:49Z</time>
      </trkpt>
      <trkpt lat="43.59509" lon="6.30965">
        <ele>679</ele>
        <time>2023-01-06T13:12:50Z</time>
      </trkpt>
      <trkpt lat="43.5951" lon="6.30966">
        <ele>679</ele>
        <time>2023-01-06T13:12:51Z</time>
      </trkpt>
      <trkpt lat="43.5951" lon="6.30968">
        <ele>679</ele>
        <time>2023-01-06T13:12:52Z</time>
      </trkpt>
      <trkpt lat="43.59511" lon="6.30969">
        <ele>679</ele>
        <time>2023-01-06T13:12:53Z</time>
      </trkpt>
      <trkpt lat="43.59511" lon="6.30971">
        <ele>679</ele>
        <time>2023-01-06T13:12:54Z</time>
      </trkpt>
      <trkpt lat="43.59512" lon="6.30972">
        <ele>679</ele>
        <time>2023-01-06T13:12:55Z</time>
      </trkpt>
      <trkpt lat="43.59512" lon="6.30972">
        <ele>679</ele>
        <time>2023-01-06T13:12:56Z</time>
      </trkpt>
      <trkpt lat="43.59512" lon="6.30973">
        <ele>679</ele>
        <time>2023-01-06T13:12:57Z</time>
      </trkpt>
      <trkpt lat="43.59513" lon="6.30974">
        <ele>679</ele>
        <time>2023-01-06T13:12:58Z</time>
      </trkpt>
      <trkpt lat="43.59513" lon="6.30974">
        <ele>679</ele>
        <time>2023-01-06T13:12:59Z</time>
      </trkpt>
      <trkpt lat="43.59514" lon="6.30975">
        <ele>679</ele>
        <time>2023-01-06T13:13:00Z</time>
      </trkpt>
      <trkpt lat="43.59514" lon="6.30976">
        <ele>679</ele>
        <time>2023-01-06T13:13:01Z</time>
      </trkpt>
      <trkpt lat="43.59515" lon="6.30977">
        <ele>679</ele>
        <time>2023-01-06T13:13:02Z</time>
      </trkpt>
      <trkpt lat="43.59515" lon="6.30978">
        <ele>679</ele>
        <time>2023-01-06T13:13:03Z</time>
      </trkpt>
      <trkpt lat="43.59515" lon="6.30978">
        <ele>679</ele>
        <time>2023-01-06T13:13:04Z</time>
      </trkpt>
      <trkpt lat="43.59516" lon="6.30979">
        <ele>679</ele>
        <time>2023-01-06T13:13:05Z</time>
      </trkpt>
      <trkpt lat="43.59516" lon="6.30979">
        <ele>679</ele>
        <time>2023-01-06T13:13:06Z</time>
      </trkpt>
      <trkpt lat="43.59516" lon="6.3098">
        <ele>679</ele>
        <time>2023-01-06T13:13:07Z</time>
      </trkpt>
      <trkpt lat="43.59516" lon="6.3098">
        <ele>679</ele>
        <time>2023-01-06T13:13:08Z</time>
      </trkpt>
      <trkpt lat="43.59516" lon="6.3098">
        <ele>679</ele>
        <time>2023-01-06T13:13:09Z</time>
      </trkpt>
      <trkpt lat="43.59516" lon="6.3098">
        <ele>679</ele>
        <time>2023-01-06T13:13:10Z</time>
      </trkpt>
      <trkpt lat="43.59517" lon="6.30981">
        <ele>679</ele>
        <time>2023-01-06T13:13:11Z</time>
      </trkpt>
      <trkpt lat="43.59517" lon="6.30981">
        <ele>679</ele>
        <time>2023-01-06T13:13:12Z</time>
      </trkpt>
      <trkpt lat="43.59517" lon="6.30981">
        <ele>679</ele>
        <time>2023-01-06T13:13:13Z</time>
      </trkpt>
      <trkpt lat="43.59517" lon="6.30981">
        <ele>679</ele>
        <time>2023-01-06T13:13:14Z</time>
      </trkpt>
      <trkpt lat="43.59517" lon="6.30981">
        <ele>679</ele>
        <time>2023-01-06T13:13:15Z</time>
      </trkpt>
      <trkpt lat="43.59517" lon="6.30981">
        <ele>679</ele>
        <time>2023-01-06T13:13:16Z</time>
      </trkpt>
      <trkpt lat="43.59517" lon="6.30981">
        <ele>679</ele>
        <time>2023-01-06T13:13:17Z</time>
      </trkpt>
      <trkpt lat="43.59517" lon="6.30981">
        <ele>679</ele>
        <time>2023-01-06T13:13:18Z</time>
      </trkpt>
      <trkpt lat="43.59517" lon="6.30981">
        <ele>679</ele>
        <time>2023-01-06T13:13:19Z</time>
      </trkpt>
      <trkpt lat="43.59517" lon="6.30981">
        <ele>679</ele>
        <time>2023-01-06T13:13:20Z</time>
      </trkpt>
      <trkpt lat="43.59517" lon="6.30981">
        <ele>679</ele>
        <time>2023-01-06T13:13:21Z</time>
      </trkpt>
      <trkpt lat="43.59517" lon="6.30981">
        <ele>679</ele>
        <time>2023-01-06T13:13:22Z</time>
      </trkpt>
      <trkpt lat="43.59517" lon="6.30981">
        <ele>679</ele>
        <time>2023-01-06T13:13:23Z</time>
      </trkpt>
      <trkpt lat="43.59517" lon="6.30981">
        <ele>679</ele>
        <time>2023-01-06T13:13:24Z</time>
      </trkpt>
      <trkpt lat="43.59517" lon="6.30981">
        <ele>679</ele>
        <time>2023-01-06T13:13:25Z</time>
      </trkpt>
      <trkpt lat="43.59517" lon="6.30981">
        <ele>679</ele>
        <time>2023-01-06T13:13:26Z</time>
      </trkpt>
      <trkpt lat="43.59517" lon="6.30981">
        <ele>679</ele>
        <time>2023-01-06T13:13:27Z</time>
      </trkpt>
      <trkpt lat="43.59518" lon="6.30982">
        <ele>679</ele>
        <time>2023-01-06T13:13:28Z</time>
      </trkpt>
      <trkpt lat="43.59518" lon="6.30982">
        <ele>679</ele>
        <time>2023-01-06T13:13:29Z</time>
      </trkpt>
      <trkpt lat="43.59518" lon="6.30983">
        <ele>679</ele>
        <time>2023-01-06T13:13:30Z</time>
      </trkpt>
      <trkpt lat="43.59518" lon="6.30983">
        <ele>679</ele>
        <time>2023-01-06T13:13:31Z</time>
      </trkpt>
      <trkpt lat="43.59518" lon="6.30983">
        <ele>679</ele>
        <time>2023-01-06T13:13:32Z</time>
      </trkpt>
      <trkpt lat="43.59518" lon="6.30983">
        <ele>679</ele>
        <time>2023-01-06T13:13:33Z</time>
      </trkpt>
      <trkpt lat="43.59518" lon="6.30984">
        <ele>679</ele>
        <time>2023-01-06T13:13:34Z</time>
      </trkpt>
      <trkpt lat="43.59519" lon="6.30984">
        <ele>679</ele>
        <time>2023-01-06T13:13:35Z</time>
      </trkpt>
      <trkpt lat="43.59519" lon="6.30985">
        <ele>679</ele>
        <time>2023-01-06T13:13:36Z</time>
      </trkpt>
      <trkpt lat="43.59519" lon="6.30985">
        <ele>679</ele>
        <time>2023-01-06T13:13:37Z</time>
      </trkpt>
      <trkpt lat="43.59519" lon="6.30986">
        <ele>679</ele>
        <time>2023-01-06T13:13:38Z</time>
      </trkpt>
      <trkpt lat="43.5952" lon="6.30986">
        <ele>679</ele>
        <time>2023-01-06T13:13:39Z</time>
      </trkpt>
      <trkpt lat="43.5952" lon="6.30987">
        <ele>679</ele>
        <time>2023-01-06T13:13:40Z</time>
      </trkpt>
      <trkpt lat="43.59521" lon="6.30988">
        <ele>679</ele>
        <time>2023-01-06T13:13:41Z</time>
      </trkpt>
      <trkpt lat="43.59521" lon="6.30989">
        <ele>680</ele>
        <time>2023-01-06T13:13:42Z</time>
      </trkpt>
      <trkpt lat="43.59521" lon="6.3099">
        <ele>680</ele>
        <time>2023-01-06T13:13:43Z</time>
      </trkpt>
      <trkpt lat="43.59522" lon="6.30991">
        <ele>680</ele>
        <time>2023-01-06T13:13:44Z</time>
      </trkpt>
      <trkpt lat="43.59522" lon="6.30992">
        <ele>680</ele>
        <time>2023-01-06T13:13:45Z</time>
      </trkpt>
      <trkpt lat="43.59523" lon="6.30993">
        <ele>680</ele>
        <time>2023-01-06T13:13:46Z</time>
      </trkpt>
      <trkpt lat="43.59523" lon="6.30994">
        <ele>680</ele>
        <time>2023-01-06T13:13:47Z</time>
      </trkpt>
      <trkpt lat="43.59524" lon="6.30995">
        <ele>680</ele>
        <time>2023-01-06T13:13:48Z</time>
      </trkpt>
      <trkpt lat="43.59525" lon="6.30997">
        <ele>680</ele>
        <time>2023-01-06T13:13:49Z</time>
      </trkpt>
      <trkpt lat="43.59526" lon="6.31">
        <ele>680</ele>
        <time>2023-01-06T13:13:50Z</time>
      </trkpt>
      <trkpt lat="43.59527" lon="6.31002">
        <ele>680</ele>
        <time>2023-01-06T13:13:51Z</time>
      </trkpt>
      <trkpt lat="43.59528" lon="6.31003">
        <ele>680</ele>
        <time>2023-01-06T13:13:52Z</time>
      </trkpt>
      <trkpt lat="43.59529" lon="6.31004">
        <ele>681</ele>
        <time>2023-01-06T13:13:53Z</time>
      </trkpt>
      <trkpt lat="43.59529" lon="6.31005">
        <ele>681</ele>
        <time>2023-01-06T13:13:54Z</time>
      </trkpt>
      <trkpt lat="43.5953" lon="6.31006">
        <ele>681</ele>
        <time>2023-01-06T13:13:55Z</time>
      </trkpt>
      <trkpt lat="43.5953" lon="6.31007">
        <ele>681</ele>
        <time>2023-01-06T13:13:56Z</time>
      </trkpt>
      <trkpt lat="43.59531" lon="6.31008">
        <ele>681</ele>
        <time>2023-01-06T13:13:57Z</time>
      </trkpt>
      <trkpt lat="43.59531" lon="6.31008">
        <ele>681</ele>
        <time>2023-01-06T13:13:58Z</time>
      </trkpt>
      <trkpt lat="43.59531" lon="6.31008">
        <ele>681</ele>
        <time>2023-01-06T13:13:59Z</time>
      </trkpt>
      <trkpt lat="43.59531" lon="6.31008">
        <ele>681</ele>
        <time>2023-01-06T13:14:00Z</time>
      </trkpt>
      <trkpt lat="43.59531" lon="6.31009">
        <ele>682</ele>
        <time>2023-01-06T13:14:01Z</time>
      </trkpt>
      <trkpt lat="43.59532" lon="6.31009">
        <ele>682</ele>
        <time>2023-01-06T13:14:02Z</time>
      </trkpt>
      <trkpt lat="43.59532" lon="6.3101">
        <ele>683</ele>
        <time>2023-01-06T13:14:03Z</time>
      </trkpt>
      <trkpt lat="43.59532" lon="6.31011">
        <ele>683</ele>
        <time>2023-01-06T13:14:04Z</time>
      </trkpt>
      <trkpt lat="43.59533" lon="6.31011">
        <ele>683</ele>
        <time>2023-01-06T13:14:05Z</time>
      </trkpt>
      <trkpt lat="43.59533" lon="6.31012">
        <ele>683</ele>
        <time>2023-01-06T13:14:06Z</time>
      </trkpt>
      <trkpt lat="43.59534" lon="6.31013">
        <ele>683</ele>
        <time>2023-01-06T13:14:07Z</time>
      </trkpt>
      <trkpt lat="43.59535" lon="6.31014">
        <ele>683</ele>
        <time>2023-01-06T13:14:08Z</time>
      </trkpt>
      <trkpt lat="43.59536" lon="6.31015">
        <ele>683</ele>
        <time>2023-01-06T13:14:09Z</time>
      </trkpt>
      <trkpt lat="43.59537" lon="6.31016">
        <ele>683</ele>
        <time>2023-01-06T13:14:10Z</time>
      </trkpt>
      <trkpt lat="43.59537" lon="6.31017">
        <ele>683</ele>
        <time>2023-01-06T13:14:11Z</time>
      </trkpt>
      <trkpt lat="43.59538" lon="6.31019">
        <ele>684</ele>
        <time>2023-01-06T13:14:12Z</time>
      </trkpt>
      <trkpt lat="43.5954" lon="6.3102">
        <ele>684</ele>
        <time>2023-01-06T13:14:13Z</time>
      </trkpt>
      <trkpt lat="43.59541" lon="6.31022">
        <ele>684</ele>
        <time>2023-01-06T13:14:14Z</time>
      </trkpt>
      <trkpt lat="43.59542" lon="6.31024">
        <ele>684</ele>
        <time>2023-01-06T13:14:15Z</time>
      </trkpt>
      <trkpt lat="43.59543" lon="6.31026">
        <ele>684</ele>
        <time>2023-01-06T13:14:16Z</time>
      </trkpt>
      <trkpt lat="43.59544" lon="6.31027">
        <ele>684</ele>
        <time>2023-01-06T13:14:17Z</time>
      </trkpt>
      <trkpt lat="43.59544" lon="6.31028">
        <ele>684</ele>
        <time>2023-01-06T13:14:18Z</time>
      </trkpt>
      <trkpt lat="43.59545" lon="6.31029">
        <ele>684</ele>
        <time>2023-01-06T13:14:19Z</time>
      </trkpt>
      <trkpt lat="43.59546" lon="6.3103">
        <ele>684</ele>
        <time>2023-01-06T13:14:20Z</time>
      </trkpt>
      <trkpt lat="43.59546" lon="6.31031">
        <ele>684</ele>
        <time>2023-01-06T13:14:21Z</time>
      </trkpt>
      <trkpt lat="43.59547" lon="6.31033">
        <ele>684</ele>
        <time>2023-01-06T13:14:22Z</time>
      </trkpt>
      <trkpt lat="43.59548" lon="6.31034">
        <ele>684</ele>
        <time>2023-01-06T13:14:23Z</time>
      </trkpt>
      <trkpt lat="43.59549" lon="6.31037">
        <ele>684</ele>
        <time>2023-01-06T13:14:24Z</time>
      </trkpt>
      <trkpt lat="43.5955" lon="6.31039">
        <ele>684</ele>
        <time>2023-01-06T13:14:25Z</time>
      </trkpt>
      <trkpt lat="43.59551" lon="6.3104">
        <ele>683</ele>
        <time>2023-01-06T13:14:26Z</time>
      </trkpt>
      <trkpt lat="43.59552" lon="6.31041">
        <ele>683</ele>
        <time>2023-01-06T13:14:27Z</time>
      </trkpt>
      <trkpt lat="43.59552" lon="6.31041">
        <ele>683</ele>
        <time>2023-01-06T13:14:28Z</time>
      </trkpt>
      <trkpt lat="43.59552" lon="6.31042">
        <ele>683</ele>
        <time>2023-01-06T13:14:29Z</time>
      </trkpt>
      <trkpt lat="43.59552" lon="6.31042">
        <ele>683</ele>
        <time>2023-01-06T13:14:30Z</time>
      </trkpt>
      <trkpt lat="43.59553" lon="6.31043">
        <ele>683</ele>
        <time>2023-01-06T13:14:31Z</time>
      </trkpt>
      <trkpt lat="43.59553" lon="6.31044">
        <ele>684</ele>
        <time>2023-01-06T13:14:32Z</time>
      </trkpt>
      <trkpt lat="43.59553" lon="6.31044">
        <ele>684</ele>
        <time>2023-01-06T13:14:33Z</time>
      </trkpt>
      <trkpt lat="43.59554" lon="6.31045">
        <ele>684</ele>
        <time>2023-01-06T13:14:34Z</time>
      </trkpt>
      <trkpt lat="43.59554" lon="6.31046">
        <ele>684</ele>
        <time>2023-01-06T13:14:35Z</time>
      </trkpt>
      <trkpt lat="43.59555" lon="6.31047">
        <ele>684</ele>
        <time>2023-01-06T13:14:36Z</time>
      </trkpt>
      <trkpt lat="43.59555" lon="6.31049">
        <ele>684</ele>
        <time>2023-01-06T13:14:37Z</time>
      </trkpt>
      <trkpt lat="43.59556" lon="6.3105">
        <ele>684</ele>
        <time>2023-01-06T13:14:38Z</time>
      </trkpt>
      <trkpt lat="43.59556" lon="6.31052">
        <ele>684</ele>
        <time>2023-01-06T13:14:39Z</time>
      </trkpt>
      <trkpt lat="43.59557" lon="6.31053">
        <ele>684</ele>
        <time>2023-01-06T13:14:40Z</time>
      </trkpt>
      <trkpt lat="43.59557" lon="6.31054">
        <ele>684</ele>
        <time>2023-01-06T13:14:41Z</time>
      </trkpt>
      <trkpt lat="43.59558" lon="6.31055">
        <ele>684</ele>
        <time>2023-01-06T13:14:42Z</time>
      </trkpt>
      <trkpt lat="43.59558" lon="6.31056">
        <ele>684</ele>
        <time>2023-01-06T13:14:43Z</time>
      </trkpt>
      <trkpt lat="43.59558" lon="6.31057">
        <ele>684</ele>
        <time>2023-01-06T13:14:44Z</time>
      </trkpt>
      <trkpt lat="43.59558" lon="6.31057">
        <ele>685</ele>
        <time>2023-01-06T13:14:45Z</time>
      </trkpt>
      <trkpt lat="43.59558" lon="6.31058">
        <ele>685</ele>
        <time>2023-01-06T13:14:46Z</time>
      </trkpt>
      <trkpt lat="43.59558" lon="6.31058">
        <ele>685</ele>
        <time>2023-01-06T13:14:47Z</time>
      </trkpt>
      <trkpt lat="43.59558" lon="6.31059">
        <ele>685</ele>
        <time>2023-01-06T13:14:48Z</time>
      </trkpt>
      <trkpt lat="43.59559" lon="6.3106">
        <ele>685</ele>
        <time>2023-01-06T13:14:49Z</time>
      </trkpt>
      <trkpt lat="43.59559" lon="6.31061">
        <ele>685</ele>
        <time>2023-01-06T13:14:50Z</time>
      </trkpt>
      <trkpt lat="43.59559" lon="6.31062">
        <ele>685</ele>
        <time>2023-01-06T13:14:51Z</time>
      </trkpt>
      <trkpt lat="43.59559" lon="6.31063">
        <ele>686</ele>
        <time>2023-01-06T13:14:52Z</time>
      </trkpt>
      <trkpt lat="43.5956" lon="6.31064">
        <ele>686</ele>
        <time>2023-01-06T13:14:53Z</time>
      </trkpt>
      <trkpt lat="43.5956" lon="6.31066">
        <ele>686</ele>
        <time>2023-01-06T13:14:54Z</time>
      </trkpt>
      <trkpt lat="43.59561" lon="6.31067">
        <ele>685</ele>
        <time>2023-01-06T13:14:55Z</time>
      </trkpt>
      <trkpt lat="43.59561" lon="6.31069">
        <ele>685</ele>
        <time>2023-01-06T13:14:56Z</time>
      </trkpt>
      <trkpt lat="43.59562" lon="6.3107">
        <ele>685</ele>
        <time>2023-01-06T13:14:57Z</time>
      </trkpt>
      <trkpt lat="43.59563" lon="6.31072">
        <ele>685</ele>
        <time>2023-01-06T13:14:58Z</time>
      </trkpt>
      <trkpt lat="43.59563" lon="6.31074">
        <ele>685</ele>
        <time>2023-01-06T13:14:59Z</time>
      </trkpt>
      <trkpt lat="43.59564" lon="6.31076">
        <ele>684</ele>
        <time>2023-01-06T13:15:00Z</time>
      </trkpt>
      <trkpt lat="43.59564" lon="6.31077">
        <ele>684</ele>
        <time>2023-01-06T13:15:01Z</time>
      </trkpt>
      <trkpt lat="43.59564" lon="6.31077">
        <ele>683</ele>
        <time>2023-01-06T13:15:02Z</time>
      </trkpt>
      <trkpt lat="43.59565" lon="6.31078">
        <ele>683</ele>
        <time>2023-01-06T13:15:03Z</time>
      </trkpt>
      <trkpt lat="43.59565" lon="6.31079">
        <ele>683</ele>
        <time>2023-01-06T13:15:04Z</time>
      </trkpt>
      <trkpt lat="43.59565" lon="6.31079">
        <ele>683</ele>
        <time>2023-01-06T13:15:05Z</time>
      </trkpt>
      <trkpt lat="43.59565" lon="6.31081">
        <ele>683</ele>
        <time>2023-01-06T13:15:06Z</time>
      </trkpt>
      <trkpt lat="43.59566" lon="6.31082">
        <ele>683</ele>
        <time>2023-01-06T13:15:07Z</time>
      </trkpt>
      <trkpt lat="43.59567" lon="6.31084">
        <ele>683</ele>
        <time>2023-01-06T13:15:08Z</time>
      </trkpt>
      <trkpt lat="43.59568" lon="6.31086">
        <ele>683</ele>
        <time>2023-01-06T13:15:09Z</time>
      </trkpt>
      <trkpt lat="43.59568" lon="6.31088">
        <ele>683</ele>
        <time>2023-01-06T13:15:10Z</time>
      </trkpt>
      <trkpt lat="43.59569" lon="6.31089">
        <ele>683</ele>
        <time>2023-01-06T13:15:11Z</time>
      </trkpt>
      <trkpt lat="43.5957" lon="6.3109">
        <ele>682</ele>
        <time>2023-01-06T13:15:12Z</time>
      </trkpt>
      <trkpt lat="43.5957" lon="6.31091">
        <ele>681</ele>
        <time>2023-01-06T13:15:13Z</time>
      </trkpt>
      <trkpt lat="43.59571" lon="6.31091">
        <ele>681</ele>
        <time>2023-01-06T13:15:14Z</time>
      </trkpt>
      <trkpt lat="43.59571" lon="6.31092">
        <ele>681</ele>
        <time>2023-01-06T13:15:15Z</time>
      </trkpt>
      <trkpt lat="43.59571" lon="6.31092">
        <ele>681</ele>
        <time>2023-01-06T13:15:16Z</time>
      </trkpt>
      <trkpt lat="43.59571" lon="6.31092">
        <ele>681</ele>
        <time>2023-01-06T13:15:17Z</time>
      </trkpt>
      <trkpt lat="43.59571" lon="6.31092">
        <ele>681</ele>
        <time>2023-01-06T13:15:18Z</time>
      </trkpt>
      <trkpt lat="43.59572" lon="6.31092">
        <ele>681</ele>
        <time>2023-01-06T13:15:19Z</time>
      </trkpt>
      <trkpt lat="43.59572" lon="6.31093">
        <ele>681</ele>
        <time>2023-01-06T13:15:20Z</time>
      </trkpt>
      <trkpt lat="43.59572" lon="6.31094">
        <ele>681</ele>
        <time>2023-01-06T13:15:21Z</time>
      </trkpt>
      <trkpt lat="43.59573" lon="6.31095">
        <ele>681</ele>
        <time>2023-01-06T13:15:22Z</time>
      </trkpt>
      <trkpt lat="43.59573" lon="6.31096">
        <ele>681</ele>
        <time>2023-01-06T13:15:23Z</time>
      </trkpt>
      <trkpt lat="43.59573" lon="6.31096">
        <ele>681</ele>
        <time>2023-01-06T13:15:24Z</time>
      </trkpt>
      <trkpt lat="43.59574" lon="6.31097">
        <ele>681</ele>
        <time>2023-01-06T13:15:25Z</time>
      </trkpt>
      <trkpt lat="43.59575" lon="6.31099">
        <ele>681</ele>
        <time>2023-01-06T13:15:26Z</time>
      </trkpt>
      <trkpt lat="43.59576" lon="6.31101">
        <ele>680</ele>
        <time>2023-01-06T13:15:27Z</time>
      </trkpt>
      <trkpt lat="43.59578" lon="6.31104">
        <ele>680</ele>
        <time>2023-01-06T13:15:28Z</time>
      </trkpt>
      <trkpt lat="43.59579" lon="6.31105">
        <ele>680</ele>
        <time>2023-01-06T13:15:29Z</time>
      </trkpt>
      <trkpt lat="43.59579" lon="6.31106">
        <ele>680</ele>
        <time>2023-01-06T13:15:30Z</time>
      </trkpt>
      <trkpt lat="43.5958" lon="6.31107">
        <ele>679</ele>
        <time>2023-01-06T13:15:31Z</time>
      </trkpt>
      <trkpt lat="43.5958" lon="6.31108">
        <ele>679</ele>
        <time>2023-01-06T13:15:32Z</time>
      </trkpt>
      <trkpt lat="43.5958" lon="6.31108">
        <ele>679</ele>
        <time>2023-01-06T13:15:33Z</time>
      </trkpt>
      <trkpt lat="43.59581" lon="6.31109">
        <ele>679</ele>
        <time>2023-01-06T13:15:34Z</time>
      </trkpt>
      <trkpt lat="43.59581" lon="6.3111">
        <ele>679</ele>
        <time>2023-01-06T13:15:35Z</time>
      </trkpt>
      <trkpt lat="43.59581" lon="6.3111">
        <ele>679</ele>
        <time>2023-01-06T13:15:36Z</time>
      </trkpt>
      <trkpt lat="43.59581" lon="6.31111">
        <ele>679</ele>
        <time>2023-01-06T13:15:37Z</time>
      </trkpt>
      <trkpt lat="43.59582" lon="6.31112">
        <ele>679</ele>
        <time>2023-01-06T13:15:38Z</time>
      </trkpt>
      <trkpt lat="43.59582" lon="6.31112">
        <ele>679</ele>
        <time>2023-01-06T13:15:39Z</time>
      </trkpt>
      <trkpt lat="43.59582" lon="6.31113">
        <ele>679</ele>
        <time>2023-01-06T13:15:40Z</time>
      </trkpt>
      <trkpt lat="43.59582" lon="6.31113">
        <ele>679</ele>
        <time>2023-01-06T13:15:41Z</time>
      </trkpt>
      <trkpt lat="43.59583" lon="6.31114">
        <ele>679</ele>
        <time>2023-01-06T13:15:42Z</time>
      </trkpt>
      <trkpt lat="43.59583" lon="6.31114">
        <ele>679</ele>
        <time>2023-01-06T13:15:43Z</time>
      </trkpt>
      <trkpt lat="43.59583" lon="6.31115">
        <ele>679</ele>
        <time>2023-01-06T13:15:44Z</time>
      </trkpt>
      <trkpt lat="43.59583" lon="6.31116">
        <ele>679</ele>
        <time>2023-01-06T13:15:45Z</time>
      </trkpt>
      <trkpt lat="43.59583" lon="6.31117">
        <ele>679</ele>
        <time>2023-01-06T13:15:46Z</time>
      </trkpt>
      <trkpt lat="43.59584" lon="6.31118">
        <ele>679</ele>
        <time>2023-01-06T13:15:47Z</time>
      </trkpt>
      <trkpt lat="43.59584" lon="6.31119">
        <ele>680</ele>
        <time>2023-01-06T13:15:48Z</time>
      </trkpt>
      <trkpt lat="43.59585" lon="6.31121">
        <ele>681</ele>
        <time>2023-01-06T13:15:49Z</time>
      </trkpt>
      <trkpt lat="43.59585" lon="6.31123">
        <ele>681</ele>
        <time>2023-01-06T13:15:50Z</time>
      </trkpt>
      <trkpt lat="43.59585" lon="6.31124">
        <ele>681</ele>
        <time>2023-01-06T13:15:51Z</time>
      </trkpt>
      <trkpt lat="43.59586" lon="6.31125">
        <ele>681</ele>
        <time>2023-01-06T13:15:52Z</time>
      </trkpt>
      <trkpt lat="43.59586" lon="6.31125">
        <ele>682</ele>
        <time>2023-01-06T13:15:53Z</time>
      </trkpt>
      <trkpt lat="43.59586" lon="6.31126">
        <ele>682</ele>
        <time>2023-01-06T13:15:54Z</time>
      </trkpt>
      <trkpt lat="43.59586" lon="6.31126">
        <ele>682</ele>
        <time>2023-01-06T13:15:55Z</time>
      </trkpt>
      <trkpt lat="43.59586" lon="6.31127">
        <ele>682</ele>
        <time>2023-01-06T13:15:56Z</time>
      </trkpt>
      <trkpt lat="43.59587" lon="6.31128">
        <ele>682</ele>
        <time>2023-01-06T13:15:57Z</time>
      </trkpt>
      <trkpt lat="43.59588" lon="6.31131">
        <ele>682</ele>
        <time>2023-01-06T13:15:58Z</time>
      </trkpt>
      <trkpt lat="43.59588" lon="6.31133">
        <ele>682</ele>
        <time>2023-01-06T13:15:59Z</time>
      </trkpt>
      <trkpt lat="43.59589" lon="6.31135">
        <ele>683</ele>
        <time>2023-01-06T13:16:00Z</time>
      </trkpt>
      <trkpt lat="43.59589" lon="6.31136">
        <ele>684</ele>
        <time>2023-01-06T13:16:01Z</time>
      </trkpt>
      <trkpt lat="43.59589" lon="6.31136">
        <ele>684</ele>
        <time>2023-01-06T13:16:02Z</time>
      </trkpt>
      <trkpt lat="43.59589" lon="6.31137">
        <ele>684</ele>
        <time>2023-01-06T13:16:03Z</time>
      </trkpt>
      <trkpt lat="43.5959" lon="6.31138">
        <ele>684</ele>
        <time>2023-01-06T13:16:04Z</time>
      </trkpt>
      <trkpt lat="43.5959" lon="6.31138">
        <ele>684</ele>
        <time>2023-01-06T13:16:05Z</time>
      </trkpt>
      <trkpt lat="43.5959" lon="6.31139">
        <ele>684</ele>
        <time>2023-01-06T13:16:06Z</time>
      </trkpt>
      <trkpt lat="43.59591" lon="6.3114">
        <ele>684</ele>
        <time>2023-01-06T13:16:07Z</time>
      </trkpt>
      <trkpt lat="43.59591" lon="6.3114">
        <ele>684</ele>
        <time>2023-01-06T13:16:08Z</time>
      </trkpt>
      <trkpt lat="43.59591" lon="6.31141">
        <ele>684</ele>
        <time>2023-01-06T13:16:09Z</time>
      </trkpt>
      <trkpt lat="43.59591" lon="6.31141">
        <ele>684</ele>
        <time>2023-01-06T13:16:10Z</time>
      </trkpt>
      <trkpt lat="43.59592" lon="6.31142">
        <ele>684</ele>
        <time>2023-01-06T13:16:11Z</time>
      </trkpt>
      <trkpt lat="43.59592" lon="6.31142">
        <ele>684</ele>
        <time>2023-01-06T13:16:12Z</time>
      </trkpt>
      <trkpt lat="43.59592" lon="6.31142">
        <ele>684</ele>
        <time>2023-01-06T13:16:13Z</time>
      </trkpt>
      <trkpt lat="43.59592" lon="6.31143">
        <ele>684</ele>
        <time>2023-01-06T13:16:14Z</time>
      </trkpt>
      <trkpt lat="43.59592" lon="6.31143">
        <ele>684</ele>
        <time>2023-01-06T13:16:15Z</time>
      </trkpt>
      <trkpt lat="43.59592" lon="6.31144">
        <ele>684</ele>
        <time>2023-01-06T13:16:16Z</time>
      </trkpt>
      <trkpt lat="43.59592" lon="6.31144">
        <ele>684</ele>
        <time>2023-01-06T13:16:17Z</time>
      </trkpt>
      <trkpt lat="43.59593" lon="6.31144">
        <ele>684</ele>
        <time>2023-01-06T13:16:18Z</time>
      </trkpt>
      <trkpt lat="43.59593" lon="6.31144">
        <ele>684</ele>
        <time>2023-01-06T13:16:19Z</time>
      </trkpt>
      <trkpt lat="43.59594" lon="6.31145">
        <ele>684</ele>
        <time>2023-01-06T13:16:20Z</time>
      </trkpt>
      <trkpt lat="43.59595" lon="6.31146">
        <ele>684</ele>
        <time>2023-01-06T13:16:21Z</time>
      </trkpt>
      <trkpt lat="43.59596" lon="6.31147">
        <ele>685</ele>
        <time>2023-01-06T13:16:22Z</time>
      </trkpt>
      <trkpt lat="43.59596" lon="6.31148">
        <ele>685</ele>
        <time>2023-01-06T13:16:23Z</time>
      </trkpt>
      <trkpt lat="43.59597" lon="6.31149">
        <ele>686</ele>
        <time>2023-01-06T13:16:24Z</time>
      </trkpt>
      <trkpt lat="43.59598" lon="6.3115">
        <ele>686</ele>
        <time>2023-01-06T13:16:25Z</time>
      </trkpt>
      <trkpt lat="43.59599" lon="6.31151">
        <ele>686</ele>
        <time>2023-01-06T13:16:26Z</time>
      </trkpt>
      <trkpt lat="43.596" lon="6.31152">
        <ele>686</ele>
        <time>2023-01-06T13:16:27Z</time>
      </trkpt>
      <trkpt lat="43.59601" lon="6.31153">
        <ele>686</ele>
        <time>2023-01-06T13:16:28Z</time>
      </trkpt>
      <trkpt lat="43.59602" lon="6.31154">
        <ele>687</ele>
        <time>2023-01-06T13:16:29Z</time>
      </trkpt>
      <trkpt lat="43.59603" lon="6.31155">
        <ele>687</ele>
        <time>2023-01-06T13:16:30Z</time>
      </trkpt>
      <trkpt lat="43.59605" lon="6.31157">
        <ele>687</ele>
        <time>2023-01-06T13:16:31Z</time>
      </trkpt>
      <trkpt lat="43.59607" lon="6.31158">
        <ele>688</ele>
        <time>2023-01-06T13:16:32Z</time>
      </trkpt>
      <trkpt lat="43.59608" lon="6.31159">
        <ele>688</ele>
        <time>2023-01-06T13:16:33Z</time>
      </trkpt>
      <trkpt lat="43.59608" lon="6.3116">
        <ele>688</ele>
        <time>2023-01-06T13:16:34Z</time>
      </trkpt>
      <trkpt lat="43.59609" lon="6.3116">
        <ele>688</ele>
        <time>2023-01-06T13:16:35Z</time>
      </trkpt>
      <trkpt lat="43.59609" lon="6.31161">
        <ele>688</ele>
        <time>2023-01-06T13:16:36Z</time>
      </trkpt>
      <trkpt lat="43.5961" lon="6.31162">
        <ele>689</ele>
        <time>2023-01-06T13:16:37Z</time>
      </trkpt>
      <trkpt lat="43.5961" lon="6.31162">
        <ele>689</ele>
        <time>2023-01-06T13:16:38Z</time>
      </trkpt>
      <trkpt lat="43.59611" lon="6.31163">
        <ele>689</ele>
        <time>2023-01-06T13:16:39Z</time>
      </trkpt>
      <trkpt lat="43.59611" lon="6.31164">
        <ele>689</ele>
        <time>2023-01-06T13:16:40Z</time>
      </trkpt>
      <trkpt lat="43.59612" lon="6.31165">
        <ele>689</ele>
        <time>2023-01-06T13:16:41Z</time>
      </trkpt>
      <trkpt lat="43.59612" lon="6.31166">
        <ele>689</ele>
        <time>2023-01-06T13:16:42Z</time>
      </trkpt>
      <trkpt lat="43.59613" lon="6.31167">
        <ele>690</ele>
        <time>2023-01-06T13:16:43Z</time>
      </trkpt>
      <trkpt lat="43.59613" lon="6.31168">
        <ele>691</ele>
        <time>2023-01-06T13:16:44Z</time>
      </trkpt>
      <trkpt lat="43.59614" lon="6.31168">
        <ele>691</ele>
        <time>2023-01-06T13:16:45Z</time>
      </trkpt>
      <trkpt lat="43.59614" lon="6.31169">
        <ele>691</ele>
        <time>2023-01-06T13:16:46Z</time>
      </trkpt>
      <trkpt lat="43.59615" lon="6.3117">
        <ele>691</ele>
        <time>2023-01-06T13:16:47Z</time>
      </trkpt>
      <trkpt lat="43.59615" lon="6.31171">
        <ele>691</ele>
        <time>2023-01-06T13:16:48Z</time>
      </trkpt>
      <trkpt lat="43.59615" lon="6.31171">
        <ele>691</ele>
        <time>2023-01-06T13:16:49Z</time>
      </trkpt>
      <trkpt lat="43.59616" lon="6.31172">
        <ele>691</ele>
        <time>2023-01-06T13:16:50Z</time>
      </trkpt>
      <trkpt lat="43.59616" lon="6.31173">
        <ele>691</ele>
        <time>2023-01-06T13:16:51Z</time>
      </trkpt>
      <trkpt lat="43.59616" lon="6.31174">
        <ele>691</ele>
        <time>2023-01-06T13:16:52Z</time>
      </trkpt>
      <trkpt lat="43.59617" lon="6.31175">
        <ele>691</ele>
        <time>2023-01-06T13:16:53Z</time>
      </trkpt>
      <trkpt lat="43.59618" lon="6.31177">
        <ele>691</ele>
        <time>2023-01-06T13:16:54Z</time>
      </trkpt>
      <trkpt lat="43.59619" lon="6.31179">
        <ele>691</ele>
        <time>2023-01-06T13:16:55Z</time>
      </trkpt>
      <trkpt lat="43.5962" lon="6.31182">
        <ele>691</ele>
        <time>2023-01-06T13:16:56Z</time>
      </trkpt>
      <trkpt lat="43.59621" lon="6.31184">
        <ele>691</ele>
        <time>2023-01-06T13:16:57Z</time>
      </trkpt>
      <trkpt lat="43.59621" lon="6.31185">
        <ele>691</ele>
        <time>2023-01-06T13:16:58Z</time>
      </trkpt>
      <trkpt lat="43.59622" lon="6.31186">
        <ele>691</ele>
        <time>2023-01-06T13:16:59Z</time>
      </trkpt>
      <trkpt lat="43.59622" lon="6.31187">
        <ele>691</ele>
        <time>2023-01-06T13:17:00Z</time>
      </trkpt>
      <trkpt lat="43.59622" lon="6.31187">
        <ele>691</ele>
        <time>2023-01-06T13:17:01Z</time>
      </trkpt>
      <trkpt lat="43.59623" lon="6.31187">
        <ele>691</ele>
        <time>2023-01-06T13:17:02Z</time>
      </trkpt>
      <trkpt lat="43.59623" lon="6.31188">
        <ele>692</ele>
        <time>2023-01-06T13:17:03Z</time>
      </trkpt>
      <trkpt lat="43.59623" lon="6.31188">
        <ele>692</ele>
        <time>2023-01-06T13:17:04Z</time>
      </trkpt>
      <trkpt lat="43.59623" lon="6.31188">
        <ele>692</ele>
        <time>2023-01-06T13:17:05Z</time>
      </trkpt>
      <trkpt lat="43.59623" lon="6.31189">
        <ele>692</ele>
        <time>2023-01-06T13:17:06Z</time>
      </trkpt>
      <trkpt lat="43.59624" lon="6.31189">
        <ele>692</ele>
        <time>2023-01-06T13:17:07Z</time>
      </trkpt>
      <trkpt lat="43.59624" lon="6.3119">
        <ele>692</ele>
        <time>2023-01-06T13:17:08Z</time>
      </trkpt>
      <trkpt lat="43.59625" lon="6.31191">
        <ele>692</ele>
        <time>2023-01-06T13:17:09Z</time>
      </trkpt>
      <trkpt lat="43.59626" lon="6.31193">
        <ele>692</ele>
        <time>2023-01-06T13:17:10Z</time>
      </trkpt>
      <trkpt lat="43.59627" lon="6.31193">
        <ele>693</ele>
        <time>2023-01-06T13:17:11Z</time>
      </trkpt>
      <trkpt lat="43.59627" lon="6.31194">
        <ele>693</ele>
        <time>2023-01-06T13:17:12Z</time>
      </trkpt>
      <trkpt lat="43.59628" lon="6.31195">
        <ele>693</ele>
        <time>2023-01-06T13:17:13Z</time>
      </trkpt>
      <trkpt lat="43.59628" lon="6.31195">
        <ele>693</ele>
        <time>2023-01-06T13:17:14Z</time>
      </trkpt>
      <trkpt lat="43.59628" lon="6.31196">
        <ele>693</ele>
        <time>2023-01-06T13:17:15Z</time>
      </trkpt>
      <trkpt lat="43.59628" lon="6.31196">
        <ele>693</ele>
        <time>2023-01-06T13:17:16Z</time>
      </trkpt>
      <trkpt lat="43.59628" lon="6.31197">
        <ele>693</ele>
        <time>2023-01-06T13:17:17Z</time>
      </trkpt>
      <trkpt lat="43.59628" lon="6.31197">
        <ele>693</ele>
        <time>2023-01-06T13:17:18Z</time>
      </trkpt>
      <trkpt lat="43.59628" lon="6.31197">
        <ele>693</ele>
        <time>2023-01-06T13:17:19Z</time>
      </trkpt>
      <trkpt lat="43.59628" lon="6.31198">
        <ele>693</ele>
        <time>2023-01-06T13:17:20Z</time>
      </trkpt>
      <trkpt lat="43.59628" lon="6.31198">
        <ele>693</ele>
        <time>2023-01-06T13:17:21Z</time>
      </trkpt>
      <trkpt lat="43.59628" lon="6.31198">
        <ele>693</ele>
        <time>2023-01-06T13:17:22Z</time>
      </trkpt>
      <trkpt lat="43.59628" lon="6.31198">
        <ele>693</ele>
        <time>2023-01-06T13:17:23Z</time>
      </trkpt>
      <trkpt lat="43.59628" lon="6.31198">
        <ele>693</ele>
        <time>2023-01-06T13:17:24Z</time>
      </trkpt>
      <trkpt lat="43.59628" lon="6.31198">
        <ele>693</ele>
        <time>2023-01-06T13:17:25Z</time>
      </trkpt>
      <trkpt lat="43.59628" lon="6.31198">
        <ele>693</ele>
        <time>2023-01-06T13:17:26Z</time>
      </trkpt>
      <trkpt lat="43.59628" lon="6.31198">
        <ele>693</ele>
        <time>2023-01-06T13:17:27Z</time>
      </trkpt>
      <trkpt lat="43.59628" lon="6.31198">
        <ele>693</ele>
        <time>2023-01-06T13:17:28Z</time>
      </trkpt>
      <trkpt lat="43.59628" lon="6.31198">
        <ele>693</ele>
        <time>2023-01-06T13:17:29Z</time>
      </trkpt>
      <trkpt lat="43.59628" lon="6.31198">
        <ele>693</ele>
        <time>2023-01-06T13:17:30Z</time>
      </trkpt>
      <trkpt lat="43.59628" lon="6.31198">
        <ele>693</ele>
        <time>2023-01-06T13:17:31Z</time>
      </trkpt>
      <trkpt lat="43.59628" lon="6.31198">
        <ele>693</ele>
        <time>2023-01-06T13:17:32Z</time>
      </trkpt>
      <trkpt lat="43.59628" lon="6.31198">
        <ele>693</ele>
        <time>2023-01-06T13:17:33Z</time>
      </trkpt>
      <trkpt lat="43.59628" lon="6.31198">
        <ele>693</ele>
        <time>2023-01-06T13:17:34Z</time>
      </trkpt>
      <trkpt lat="43.59628" lon="6.31198">
        <ele>693</ele>
        <time>2023-01-06T13:17:35Z</time>
      </trkpt>
      <trkpt lat="43.59628" lon="6.31198">
        <ele>693</ele>
        <time>2023-01-06T13:17:36Z</time>
      </trkpt>
      <trkpt lat="43.59628" lon="6.31198">
        <ele>693</ele>
        <time>2023-01-06T13:17:37Z</time>
      </trkpt>
      <trkpt lat="43.59628" lon="6.31198">
        <ele>693</ele>
        <time>2023-01-06T13:17:38Z</time>
      </trkpt>
      <trkpt lat="43.59628" lon="6.31198">
        <ele>693</ele>
        <time>2023-01-06T13:17:39Z</time>
      </trkpt>
      <trkpt lat="43.59628" lon="6.31198">
        <ele>693</ele>
        <time>2023-01-06T13:17:40Z</time>
      </trkpt>
      <trkpt lat="43.59628" lon="6.31198">
        <ele>693</ele>
        <time>2023-01-06T13:17:41Z</time>
      </trkpt>
      <trkpt lat="43.59628" lon="6.31198">
        <ele>693</ele>
        <time>2023-01-06T13:17:42Z</time>
      </trkpt>
      <trkpt lat="43.59628" lon="6.31198">
        <ele>693</ele>
        <time>2023-01-06T13:17:43Z</time>
      </trkpt>
      <trkpt lat="43.59628" lon="6.31198">
        <ele>693</ele>
        <time>2023-01-06T13:17:44Z</time>
      </trkpt>
      <trkpt lat="43.59628" lon="6.31198">
        <ele>693</ele>
        <time>2023-01-06T13:17:45Z</time>
      </trkpt>
      <trkpt lat="43.59628" lon="6.31198">
        <ele>693</ele>
        <time>2023-01-06T13:17:46Z</time>
      </trkpt>
      <trkpt lat="43.59628" lon="6.31198">
        <ele>693</ele>
        <time>2023-01-06T13:17:47Z</time>
      </trkpt>
      <trkpt lat="43.59628" lon="6.31198">
        <ele>693</ele>
        <time>2023-01-06T13:17:48Z</time>
      </trkpt>
      <trkpt lat="43.59628" lon="6.31198">
        <ele>693</ele>
        <time>2023-01-06T13:17:49Z</time>
      </trkpt>
      <trkpt lat="43.59628" lon="6.31198">
        <ele>693</ele>
        <time>2023-01-06T13:17:50Z</time>
      </trkpt>
      <trkpt lat="43.59628" lon="6.31198">
        <ele>693</ele>
        <time>2023-01-06T13:17:51Z</time>
      </trkpt>
      <trkpt lat="43.59628" lon="6.31198">
        <ele>693</ele>
        <time>2023-01-06T13:17:52Z</time>
      </trkpt>
      <trkpt lat="43.59628" lon="6.31198">
        <ele>693</ele>
        <time>2023-01-06T13:17:53Z</time>
      </trkpt>
      <trkpt lat="43.59628" lon="6.31198">
        <ele>693</ele>
        <time>2023-01-06T13:17:54Z</time>
      </trkpt>
      <trkpt lat="43.59628" lon="6.31198">
        <ele>693</ele>
        <time>2023-01-06T13:17:55Z</time>
      </trkpt>
      <trkpt lat="43.59628" lon="6.31198">
        <ele>693</ele>
        <time>2023-01-06T13:17:56Z</time>
      </trkpt>
      <trkpt lat="43.59628" lon="6.31198">
        <ele>693</ele>
        <time>2023-01-06T13:17:57Z</time>
      </trkpt>
      <trkpt lat="43.59628" lon="6.31198">
        <ele>693</ele>
        <time>2023-01-06T13:17:58Z</time>
      </trkpt>
      <trkpt lat="43.59628" lon="6.31201">
        <ele>693</ele>
        <time>2023-01-06T13:17:59Z</time>
      </trkpt>
      <trkpt lat="43.59627" lon="6.31201">
        <ele>693</ele>
        <time>2023-01-06T13:18:00Z</time>
      </trkpt>
      <trkpt lat="43.59627" lon="6.31201">
        <ele>693</ele>
        <time>2023-01-06T13:18:01Z</time>
      </trkpt>
      <trkpt lat="43.59627" lon="6.31201">
        <ele>692</ele>
        <time>2023-01-06T13:18:02Z</time>
      </trkpt>
      <trkpt lat="43.59626" lon="6.31201">
        <ele>692</ele>
        <time>2023-01-06T13:18:03Z</time>
      </trkpt>
      <trkpt lat="43.59626" lon="6.31202">
        <ele>692</ele>
        <time>2023-01-06T13:18:04Z</time>
      </trkpt>
      <trkpt lat="43.59625" lon="6.31202">
        <ele>692</ele>
        <time>2023-01-06T13:18:05Z</time>
      </trkpt>
      <trkpt lat="43.59625" lon="6.31202">
        <ele>692</ele>
        <time>2023-01-06T13:18:06Z</time>
      </trkpt>
      <trkpt lat="43.59625" lon="6.31202">
        <ele>692</ele>
        <time>2023-01-06T13:18:07Z</time>
      </trkpt>
      <trkpt lat="43.59624" lon="6.31203">
        <ele>692</ele>
        <time>2023-01-06T13:18:08Z</time>
      </trkpt>
      <trkpt lat="43.59624" lon="6.31203">
        <ele>692</ele>
        <time>2023-01-06T13:18:09Z</time>
      </trkpt>
      <trkpt lat="43.59623" lon="6.31203">
        <ele>692</ele>
        <time>2023-01-06T13:18:10Z</time>
      </trkpt>
      <trkpt lat="43.59623" lon="6.31203">
        <ele>690</ele>
        <time>2023-01-06T13:18:11Z</time>
      </trkpt>
      <trkpt lat="43.59622" lon="6.31203">
        <ele>689</ele>
        <time>2023-01-06T13:18:12Z</time>
      </trkpt>
      <trkpt lat="43.59622" lon="6.31204">
        <ele>689</ele>
        <time>2023-01-06T13:18:13Z</time>
      </trkpt>
      <trkpt lat="43.59622" lon="6.31204">
        <ele>688</ele>
        <time>2023-01-06T13:18:14Z</time>
      </trkpt>
      <trkpt lat="43.59621" lon="6.31204">
        <ele>688</ele>
        <time>2023-01-06T13:18:15Z</time>
      </trkpt>
      <trkpt lat="43.59621" lon="6.31204">
        <ele>688</ele>
        <time>2023-01-06T13:18:16Z</time>
      </trkpt>
      <trkpt lat="43.5962" lon="6.31204">
        <ele>688</ele>
        <time>2023-01-06T13:18:17Z</time>
      </trkpt>
      <trkpt lat="43.59619" lon="6.31204">
        <ele>687</ele>
        <time>2023-01-06T13:18:18Z</time>
      </trkpt>
      <trkpt lat="43.59619" lon="6.31204">
        <ele>687</ele>
        <time>2023-01-06T13:18:19Z</time>
      </trkpt>
      <trkpt lat="43.59618" lon="6.31204">
        <ele>687</ele>
        <time>2023-01-06T13:18:20Z</time>
      </trkpt>
      <trkpt lat="43.59618" lon="6.31204">
        <ele>687</ele>
        <time>2023-01-06T13:18:21Z</time>
      </trkpt>
      <trkpt lat="43.59617" lon="6.31204">
        <ele>687</ele>
        <time>2023-01-06T13:18:22Z</time>
      </trkpt>
      <trkpt lat="43.59617" lon="6.31204">
        <ele>687</ele>
        <time>2023-01-06T13:18:23Z</time>
      </trkpt>
      <trkpt lat="43.59616" lon="6.31204">
        <ele>687</ele>
        <time>2023-01-06T13:18:24Z</time>
      </trkpt>
      <trkpt lat="43.59615" lon="6.31204">
        <ele>687</ele>
        <time>2023-01-06T13:18:25Z</time>
      </trkpt>
      <trkpt lat="43.59615" lon="6.31205">
        <ele>687</ele>
        <time>2023-01-06T13:18:26Z</time>
      </trkpt>
      <trkpt lat="43.59614" lon="6.31205">
        <ele>687</ele>
        <time>2023-01-06T13:18:27Z</time>
      </trkpt>
      <trkpt lat="43.59613" lon="6.31205">
        <ele>687</ele>
        <time>2023-01-06T13:18:28Z</time>
      </trkpt>
      <trkpt lat="43.59613" lon="6.31206">
        <ele>687</ele>
        <time>2023-01-06T13:18:29Z</time>
      </trkpt>
      <trkpt lat="43.59612" lon="6.31207">
        <ele>687</ele>
        <time>2023-01-06T13:18:30Z</time>
      </trkpt>
      <trkpt lat="43.59612" lon="6.31207">
        <ele>687</ele>
        <time>2023-01-06T13:18:31Z</time>
      </trkpt>
      <trkpt lat="43.59611" lon="6.31209">
        <ele>688</ele>
        <time>2023-01-06T13:18:32Z</time>
      </trkpt>
      <trkpt lat="43.59611" lon="6.3121">
        <ele>688</ele>
        <time>2023-01-06T13:18:33Z</time>
      </trkpt>
      <trkpt lat="43.5961" lon="6.31213">
        <ele>688</ele>
        <time>2023-01-06T13:18:34Z</time>
      </trkpt>
      <trkpt lat="43.59609" lon="6.31214">
        <ele>688</ele>
        <time>2023-01-06T13:18:35Z</time>
      </trkpt>
      <trkpt lat="43.59609" lon="6.31215">
        <ele>688</ele>
        <time>2023-01-06T13:18:36Z</time>
      </trkpt>
      <trkpt lat="43.59608" lon="6.31216">
        <ele>688</ele>
        <time>2023-01-06T13:18:37Z</time>
      </trkpt>
      <trkpt lat="43.59608" lon="6.31217">
        <ele>688</ele>
        <time>2023-01-06T13:18:38Z</time>
      </trkpt>
      <trkpt lat="43.59608" lon="6.31217">
        <ele>688</ele>
        <time>2023-01-06T13:18:39Z</time>
      </trkpt>
      <trkpt lat="43.59608" lon="6.31218">
        <ele>688</ele>
        <time>2023-01-06T13:18:40Z</time>
      </trkpt>
      <trkpt lat="43.59608" lon="6.31218">
        <ele>688</ele>
        <time>2023-01-06T13:18:41Z</time>
      </trkpt>
      <trkpt lat="43.59608" lon="6.31219">
        <ele>688</ele>
        <time>2023-01-06T13:18:42Z</time>
      </trkpt>
      <trkpt lat="43.59608" lon="6.31219">
        <ele>688</ele>
        <time>2023-01-06T13:18:43Z</time>
      </trkpt>
      <trkpt lat="43.59608" lon="6.31219">
        <ele>688</ele>
        <time>2023-01-06T13:18:44Z</time>
      </trkpt>
      <trkpt lat="43.59608" lon="6.3122">
        <ele>688</ele>
        <time>2023-01-06T13:18:45Z</time>
      </trkpt>
      <trkpt lat="43.59608" lon="6.3122">
        <ele>688</ele>
        <time>2023-01-06T13:18:46Z</time>
      </trkpt>
      <trkpt lat="43.59608" lon="6.31221">
        <ele>688</ele>
        <time>2023-01-06T13:18:47Z</time>
      </trkpt>
      <trkpt lat="43.59608" lon="6.31221">
        <ele>688</ele>
        <time>2023-01-06T13:18:48Z</time>
      </trkpt>
      <trkpt lat="43.59608" lon="6.31221">
        <ele>688</ele>
        <time>2023-01-06T13:18:49Z</time>
      </trkpt>
      <trkpt lat="43.59608" lon="6.31222">
        <ele>688</ele>
        <time>2023-01-06T13:18:50Z</time>
      </trkpt>
      <trkpt lat="43.59608" lon="6.31222">
        <ele>688</ele>
        <time>2023-01-06T13:18:51Z</time>
      </trkpt>
      <trkpt lat="43.59608" lon="6.31222">
        <ele>688</ele>
        <time>2023-01-06T13:18:52Z</time>
      </trkpt>
      <trkpt lat="43.59608" lon="6.31222">
        <ele>688</ele>
        <time>2023-01-06T13:18:53Z</time>
      </trkpt>
      <trkpt lat="43.59608" lon="6.31222">
        <ele>688</ele>
        <time>2023-01-06T13:18:54Z</time>
      </trkpt>
      <trkpt lat="43.59608" lon="6.31222">
        <ele>688</ele>
        <time>2023-01-06T13:18:55Z</time>
      </trkpt>
      <trkpt lat="43.59608" lon="6.31222">
        <ele>688</ele>
        <time>2023-01-06T13:18:56Z</time>
      </trkpt>
      <trkpt lat="43.59608" lon="6.31222">
        <ele>688</ele>
        <time>2023-01-06T13:18:57Z</time>
      </trkpt>
      <trkpt lat="43.59608" lon="6.31223">
        <ele>688</ele>
        <time>2023-01-06T13:18:58Z</time>
      </trkpt>
      <trkpt lat="43.59609" lon="6.31223">
        <ele>688</ele>
        <time>2023-01-06T13:18:59Z</time>
      </trkpt>
      <trkpt lat="43.59609" lon="6.31223">
        <ele>688</ele>
        <time>2023-01-06T13:19:00Z</time>
      </trkpt>
      <trkpt lat="43.59609" lon="6.31224">
        <ele>688</ele>
        <time>2023-01-06T13:19:01Z</time>
      </trkpt>
      <trkpt lat="43.5961" lon="6.31224">
        <ele>688</ele>
        <time>2023-01-06T13:19:02Z</time>
      </trkpt>
      <trkpt lat="43.5961" lon="6.31224">
        <ele>688</ele>
        <time>2023-01-06T13:19:03Z</time>
      </trkpt>
      <trkpt lat="43.5961" lon="6.31225">
        <ele>688</ele>
        <time>2023-01-06T13:19:04Z</time>
      </trkpt>
      <trkpt lat="43.5961" lon="6.31225">
        <ele>688</ele>
        <time>2023-01-06T13:19:05Z</time>
      </trkpt>
      <trkpt lat="43.59611" lon="6.31226">
        <ele>688</ele>
        <time>2023-01-06T13:19:06Z</time>
      </trkpt>
      <trkpt lat="43.59612" lon="6.31226">
        <ele>689</ele>
        <time>2023-01-06T13:19:07Z</time>
      </trkpt>
      <trkpt lat="43.59613" lon="6.31228">
        <ele>689</ele>
        <time>2023-01-06T13:19:08Z</time>
      </trkpt>
      <trkpt lat="43.59614" lon="6.31229">
        <ele>689</ele>
        <time>2023-01-06T13:19:09Z</time>
      </trkpt>
      <trkpt lat="43.59615" lon="6.31229">
        <ele>690</ele>
        <time>2023-01-06T13:19:10Z</time>
      </trkpt>
      <trkpt lat="43.59615" lon="6.3123">
        <ele>690</ele>
        <time>2023-01-06T13:19:11Z</time>
      </trkpt>
      <trkpt lat="43.59615" lon="6.3123">
        <ele>690</ele>
        <time>2023-01-06T13:19:12Z</time>
      </trkpt>
      <trkpt lat="43.59615" lon="6.3123">
        <ele>690</ele>
        <time>2023-01-06T13:19:13Z</time>
      </trkpt>
      <trkpt lat="43.59616" lon="6.3123">
        <ele>690</ele>
        <time>2023-01-06T13:19:14Z</time>
      </trkpt>
      <trkpt lat="43.59616" lon="6.31231">
        <ele>690</ele>
        <time>2023-01-06T13:19:15Z</time>
      </trkpt>
      <trkpt lat="43.59616" lon="6.31231">
        <ele>690</ele>
        <time>2023-01-06T13:19:16Z</time>
      </trkpt>
      <trkpt lat="43.59616" lon="6.31231">
        <ele>690</ele>
        <time>2023-01-06T13:19:17Z</time>
      </trkpt>
      <trkpt lat="43.59616" lon="6.31231">
        <ele>690</ele>
        <time>2023-01-06T13:19:18Z</time>
      </trkpt>
      <trkpt lat="43.59617" lon="6.31231">
        <ele>690</ele>
        <time>2023-01-06T13:19:19Z</time>
      </trkpt>
      <trkpt lat="43.59617" lon="6.31232">
        <ele>690</ele>
        <time>2023-01-06T13:19:20Z</time>
      </trkpt>
      <trkpt lat="43.59617" lon="6.31232">
        <ele>690</ele>
        <time>2023-01-06T13:19:21Z</time>
      </trkpt>
      <trkpt lat="43.59617" lon="6.31232">
        <ele>690</ele>
        <time>2023-01-06T13:19:22Z</time>
      </trkpt>
      <trkpt lat="43.59617" lon="6.31232">
        <ele>690</ele>
        <time>2023-01-06T13:19:23Z</time>
      </trkpt>
      <trkpt lat="43.59618" lon="6.31233">
        <ele>690</ele>
        <time>2023-01-06T13:19:24Z</time>
      </trkpt>
      <trkpt lat="43.59618" lon="6.31234">
        <ele>690</ele>
        <time>2023-01-06T13:19:25Z</time>
      </trkpt>
      <trkpt lat="43.59619" lon="6.31234">
        <ele>690</ele>
        <time>2023-01-06T13:19:26Z</time>
      </trkpt>
      <trkpt lat="43.5962" lon="6.31235">
        <ele>690</ele>
        <time>2023-01-06T13:19:27Z</time>
      </trkpt>
      <trkpt lat="43.59621" lon="6.31236">
        <ele>690</ele>
        <time>2023-01-06T13:19:28Z</time>
      </trkpt>
      <trkpt lat="43.59622" lon="6.31237">
        <ele>691</ele>
        <time>2023-01-06T13:19:29Z</time>
      </trkpt>
      <trkpt lat="43.59622" lon="6.31237">
        <ele>691</ele>
        <time>2023-01-06T13:19:30Z</time>
      </trkpt>
      <trkpt lat="43.59623" lon="6.31238">
        <ele>691</ele>
        <time>2023-01-06T13:19:31Z</time>
      </trkpt>
      <trkpt lat="43.59623" lon="6.31238">
        <ele>691</ele>
        <time>2023-01-06T13:19:32Z</time>
      </trkpt>
      <trkpt lat="43.59624" lon="6.31239">
        <ele>691</ele>
        <time>2023-01-06T13:19:33Z</time>
      </trkpt>
      <trkpt lat="43.59624" lon="6.31239">
        <ele>691</ele>
        <time>2023-01-06T13:19:34Z</time>
      </trkpt>
      <trkpt lat="43.59625" lon="6.3124">
        <ele>691</ele>
        <time>2023-01-06T13:19:35Z</time>
      </trkpt>
      <trkpt lat="43.59626" lon="6.31241">
        <ele>690</ele>
        <time>2023-01-06T13:19:36Z</time>
      </trkpt>
      <trkpt lat="43.59627" lon="6.31242">
        <ele>690</ele>
        <time>2023-01-06T13:19:37Z</time>
      </trkpt>
      <trkpt lat="43.59629" lon="6.31243">
        <ele>690</ele>
        <time>2023-01-06T13:19:38Z</time>
      </trkpt>
      <trkpt lat="43.5963" lon="6.31244">
        <ele>690</ele>
        <time>2023-01-06T13:19:39Z</time>
      </trkpt>
      <trkpt lat="43.59632" lon="6.31245">
        <ele>690</ele>
        <time>2023-01-06T13:19:40Z</time>
      </trkpt>
      <trkpt lat="43.59635" lon="6.31247">
        <ele>690</ele>
        <time>2023-01-06T13:19:41Z</time>
      </trkpt>
      <trkpt lat="43.59637" lon="6.31248">
        <ele>690</ele>
        <time>2023-01-06T13:19:42Z</time>
      </trkpt>
      <trkpt lat="43.59638" lon="6.31249">
        <ele>690</ele>
        <time>2023-01-06T13:19:43Z</time>
      </trkpt>
      <trkpt lat="43.5964" lon="6.3125">
        <ele>690</ele>
        <time>2023-01-06T13:19:44Z</time>
      </trkpt>
      <trkpt lat="43.59641" lon="6.31251">
        <ele>690</ele>
        <time>2023-01-06T13:19:45Z</time>
      </trkpt>
      <trkpt lat="43.59643" lon="6.31252">
        <ele>690</ele>
        <time>2023-01-06T13:19:46Z</time>
      </trkpt>
      <trkpt lat="43.59643" lon="6.31253">
        <ele>690</ele>
        <time>2023-01-06T13:19:47Z</time>
      </trkpt>
      <trkpt lat="43.59644" lon="6.31253">
        <ele>690</ele>
        <time>2023-01-06T13:19:48Z</time>
      </trkpt>
      <trkpt lat="43.59645" lon="6.31254">
        <ele>690</ele>
        <time>2023-01-06T13:19:49Z</time>
      </trkpt>
      <trkpt lat="43.59645" lon="6.31254">
        <ele>690</ele>
        <time>2023-01-06T13:19:50Z</time>
      </trkpt>
      <trkpt lat="43.59646" lon="6.31255">
        <ele>690</ele>
        <time>2023-01-06T13:19:51Z</time>
      </trkpt>
      <trkpt lat="43.59647" lon="6.31256">
        <ele>690</ele>
        <time>2023-01-06T13:19:52Z</time>
      </trkpt>
      <trkpt lat="43.59648" lon="6.31257">
        <ele>690</ele>
        <time>2023-01-06T13:19:53Z</time>
      </trkpt>
      <trkpt lat="43.59648" lon="6.31257">
        <ele>691</ele>
        <time>2023-01-06T13:19:54Z</time>
      </trkpt>
      <trkpt lat="43.59648" lon="6.31257">
        <ele>691</ele>
        <time>2023-01-06T13:19:55Z</time>
      </trkpt>
      <trkpt lat="43.59649" lon="6.31258">
        <ele>691</ele>
        <time>2023-01-06T13:19:56Z</time>
      </trkpt>
      <trkpt lat="43.59649" lon="6.31258">
        <ele>691</ele>
        <time>2023-01-06T13:19:57Z</time>
      </trkpt>
      <trkpt lat="43.59649" lon="6.31258">
        <ele>691</ele>
        <time>2023-01-06T13:19:58Z</time>
      </trkpt>
      <trkpt lat="43.59649" lon="6.31259">
        <ele>691</ele>
        <time>2023-01-06T13:19:59Z</time>
      </trkpt>
      <trkpt lat="43.5965" lon="6.31259">
        <ele>692</ele>
        <time>2023-01-06T13:20:00Z</time>
      </trkpt>
      <trkpt lat="43.5965" lon="6.31259">
        <ele>692</ele>
        <time>2023-01-06T13:20:01Z</time>
      </trkpt>
      <trkpt lat="43.5965" lon="6.3126">
        <ele>692</ele>
        <time>2023-01-06T13:20:02Z</time>
      </trkpt>
      <trkpt lat="43.5965" lon="6.3126">
        <ele>692</ele>
        <time>2023-01-06T13:20:03Z</time>
      </trkpt>
      <trkpt lat="43.59651" lon="6.3126">
        <ele>692</ele>
        <time>2023-01-06T13:20:04Z</time>
      </trkpt>
      <trkpt lat="43.59651" lon="6.31261">
        <ele>692</ele>
        <time>2023-01-06T13:20:05Z</time>
      </trkpt>
      <trkpt lat="43.59651" lon="6.31261">
        <ele>692</ele>
        <time>2023-01-06T13:20:06Z</time>
      </trkpt>
      <trkpt lat="43.59652" lon="6.31262">
        <ele>692</ele>
        <time>2023-01-06T13:20:07Z</time>
      </trkpt>
      <trkpt lat="43.59653" lon="6.31263">
        <ele>692</ele>
        <time>2023-01-06T13:20:08Z</time>
      </trkpt>
      <trkpt lat="43.59654" lon="6.31264">
        <ele>693</ele>
        <time>2023-01-06T13:20:09Z</time>
      </trkpt>
      <trkpt lat="43.59655" lon="6.31266">
        <ele>693</ele>
        <time>2023-01-06T13:20:10Z</time>
      </trkpt>
      <trkpt lat="43.59656" lon="6.31267">
        <ele>693</ele>
        <time>2023-01-06T13:20:11Z</time>
      </trkpt>
      <trkpt lat="43.59656" lon="6.31267">
        <ele>694</ele>
        <time>2023-01-06T13:20:12Z</time>
      </trkpt>
      <trkpt lat="43.59657" lon="6.31267">
        <ele>694</ele>
        <time>2023-01-06T13:20:13Z</time>
      </trkpt>
      <trkpt lat="43.59657" lon="6.31268">
        <ele>694</ele>
        <time>2023-01-06T13:20:14Z</time>
      </trkpt>
      <trkpt lat="43.59657" lon="6.31268">
        <ele>694</ele>
        <time>2023-01-06T13:20:15Z</time>
      </trkpt>
      <trkpt lat="43.59657" lon="6.31268">
        <ele>694</ele>
        <time>2023-01-06T13:20:16Z</time>
      </trkpt>
      <trkpt lat="43.59658" lon="6.31269">
        <ele>695</ele>
        <time>2023-01-06T13:20:17Z</time>
      </trkpt>
      <trkpt lat="43.59658" lon="6.3127">
        <ele>695</ele>
        <time>2023-01-06T13:20:18Z</time>
      </trkpt>
      <trkpt lat="43.59659" lon="6.31271">
        <ele>695</ele>
        <time>2023-01-06T13:20:19Z</time>
      </trkpt>
      <trkpt lat="43.5966" lon="6.31272">
        <ele>695</ele>
        <time>2023-01-06T13:20:20Z</time>
      </trkpt>
      <trkpt lat="43.5966" lon="6.31273">
        <ele>695</ele>
        <time>2023-01-06T13:20:21Z</time>
      </trkpt>
      <trkpt lat="43.59662" lon="6.31275">
        <ele>696</ele>
        <time>2023-01-06T13:20:22Z</time>
      </trkpt>
      <trkpt lat="43.59663" lon="6.31278">
        <ele>696</ele>
        <time>2023-01-06T13:20:23Z</time>
      </trkpt>
      <trkpt lat="43.59664" lon="6.31279">
        <ele>698</ele>
        <time>2023-01-06T13:20:24Z</time>
      </trkpt>
      <trkpt lat="43.59664" lon="6.3128">
        <ele>698</ele>
        <time>2023-01-06T13:20:25Z</time>
      </trkpt>
      <trkpt lat="43.59665" lon="6.31281">
        <ele>699</ele>
        <time>2023-01-06T13:20:26Z</time>
      </trkpt>
      <trkpt lat="43.59665" lon="6.31281">
        <ele>699</ele>
        <time>2023-01-06T13:20:27Z</time>
      </trkpt>
      <trkpt lat="43.59665" lon="6.31282">
        <ele>699</ele>
        <time>2023-01-06T13:20:28Z</time>
      </trkpt>
      <trkpt lat="43.59665" lon="6.31282">
        <ele>699</ele>
        <time>2023-01-06T13:20:29Z</time>
      </trkpt>
      <trkpt lat="43.59665" lon="6.31282">
        <ele>699</ele>
        <time>2023-01-06T13:20:30Z</time>
      </trkpt>
      <trkpt lat="43.59666" lon="6.31283">
        <ele>699</ele>
        <time>2023-01-06T13:20:31Z</time>
      </trkpt>
      <trkpt lat="43.59666" lon="6.31283">
        <ele>699</ele>
        <time>2023-01-06T13:20:32Z</time>
      </trkpt>
      <trkpt lat="43.59666" lon="6.31283">
        <ele>699</ele>
        <time>2023-01-06T13:20:33Z</time>
      </trkpt>
      <trkpt lat="43.59666" lon="6.31284">
        <ele>699</ele>
        <time>2023-01-06T13:20:34Z</time>
      </trkpt>
      <trkpt lat="43.59666" lon="6.31284">
        <ele>699</ele>
        <time>2023-01-06T13:20:35Z</time>
      </trkpt>
      <trkpt lat="43.59666" lon="6.31284">
        <ele>699</ele>
        <time>2023-01-06T13:20:36Z</time>
      </trkpt>
      <trkpt lat="43.59667" lon="6.31284">
        <ele>699</ele>
        <time>2023-01-06T13:20:37Z</time>
      </trkpt>
      <trkpt lat="43.59667" lon="6.31285">
        <ele>699</ele>
        <time>2023-01-06T13:20:38Z</time>
      </trkpt>
      <trkpt lat="43.59667" lon="6.31285">
        <ele>699</ele>
        <time>2023-01-06T13:20:39Z</time>
      </trkpt>
      <trkpt lat="43.59667" lon="6.31285">
        <ele>700</ele>
        <time>2023-01-06T13:20:40Z</time>
      </trkpt>
      <trkpt lat="43.59668" lon="6.31286">
        <ele>700</ele>
        <time>2023-01-06T13:20:41Z</time>
      </trkpt>
      <trkpt lat="43.59668" lon="6.31287">
        <ele>700</ele>
        <time>2023-01-06T13:20:42Z</time>
      </trkpt>
      <trkpt lat="43.59669" lon="6.31287">
        <ele>700</ele>
        <time>2023-01-06T13:20:43Z</time>
      </trkpt>
      <trkpt lat="43.59669" lon="6.31288">
        <ele>700</ele>
        <time>2023-01-06T13:20:44Z</time>
      </trkpt>
      <trkpt lat="43.59669" lon="6.31288">
        <ele>700</ele>
        <time>2023-01-06T13:20:45Z</time>
      </trkpt>
      <trkpt lat="43.5967" lon="6.31288">
        <ele>701</ele>
        <time>2023-01-06T13:20:46Z</time>
      </trkpt>
      <trkpt lat="43.5967" lon="6.31289">
        <ele>702</ele>
        <time>2023-01-06T13:20:47Z</time>
      </trkpt>
      <trkpt lat="43.5967" lon="6.31289">
        <ele>702</ele>
        <time>2023-01-06T13:20:48Z</time>
      </trkpt>
      <trkpt lat="43.59671" lon="6.3129">
        <ele>702</ele>
        <time>2023-01-06T13:20:49Z</time>
      </trkpt>
      <trkpt lat="43.59671" lon="6.31291">
        <ele>703</ele>
        <time>2023-01-06T13:20:50Z</time>
      </trkpt>
      <trkpt lat="43.59672" lon="6.31291">
        <ele>703</ele>
        <time>2023-01-06T13:20:51Z</time>
      </trkpt>
      <trkpt lat="43.59672" lon="6.31292">
        <ele>703</ele>
        <time>2023-01-06T13:20:52Z</time>
      </trkpt>
      <trkpt lat="43.59673" lon="6.31293">
        <ele>703</ele>
        <time>2023-01-06T13:20:53Z</time>
      </trkpt>
      <trkpt lat="43.59673" lon="6.31293">
        <ele>703</ele>
        <time>2023-01-06T13:20:54Z</time>
      </trkpt>
      <trkpt lat="43.59674" lon="6.31294">
        <ele>703</ele>
        <time>2023-01-06T13:20:55Z</time>
      </trkpt>
      <trkpt lat="43.59675" lon="6.31295">
        <ele>704</ele>
        <time>2023-01-06T13:20:56Z</time>
      </trkpt>
      <trkpt lat="43.59675" lon="6.31296">
        <ele>704</ele>
        <time>2023-01-06T13:20:57Z</time>
      </trkpt>
      <trkpt lat="43.59676" lon="6.31297">
        <ele>704</ele>
        <time>2023-01-06T13:20:58Z</time>
      </trkpt>
      <trkpt lat="43.59676" lon="6.31297">
        <ele>705</ele>
        <time>2023-01-06T13:20:59Z</time>
      </trkpt>
      <trkpt lat="43.59677" lon="6.31298">
        <ele>705</ele>
        <time>2023-01-06T13:21:00Z</time>
      </trkpt>
      <trkpt lat="43.59677" lon="6.31298">
        <ele>705</ele>
        <time>2023-01-06T13:21:01Z</time>
      </trkpt>
      <trkpt lat="43.59677" lon="6.31298">
        <ele>705</ele>
        <time>2023-01-06T13:21:02Z</time>
      </trkpt>
      <trkpt lat="43.59677" lon="6.31299">
        <ele>705</ele>
        <time>2023-01-06T13:21:03Z</time>
      </trkpt>
      <trkpt lat="43.59678" lon="6.31299">
        <ele>705</ele>
        <time>2023-01-06T13:21:04Z</time>
      </trkpt>
      <trkpt lat="43.59678" lon="6.31299">
        <ele>705</ele>
        <time>2023-01-06T13:21:05Z</time>
      </trkpt>
      <trkpt lat="43.59678" lon="6.31299">
        <ele>705</ele>
        <time>2023-01-06T13:21:06Z</time>
      </trkpt>
      <trkpt lat="43.59678" lon="6.313">
        <ele>705</ele>
        <time>2023-01-06T13:21:07Z</time>
      </trkpt>
      <trkpt lat="43.59678" lon="6.313">
        <ele>705</ele>
        <time>2023-01-06T13:21:08Z</time>
      </trkpt>
      <trkpt lat="43.59679" lon="6.313">
        <ele>705</ele>
        <time>2023-01-06T13:21:09Z</time>
      </trkpt>
      <trkpt lat="43.59679" lon="6.31301">
        <ele>705</ele>
        <time>2023-01-06T13:21:10Z</time>
      </trkpt>
      <trkpt lat="43.59679" lon="6.31301">
        <ele>705</ele>
        <time>2023-01-06T13:21:11Z</time>
      </trkpt>
      <trkpt lat="43.5968" lon="6.31302">
        <ele>705</ele>
        <time>2023-01-06T13:21:12Z</time>
      </trkpt>
      <trkpt lat="43.5968" lon="6.31303">
        <ele>706</ele>
        <time>2023-01-06T13:21:13Z</time>
      </trkpt>
      <trkpt lat="43.59681" lon="6.31304">
        <ele>706</ele>
        <time>2023-01-06T13:21:14Z</time>
      </trkpt>
      <trkpt lat="43.59681" lon="6.31305">
        <ele>706</ele>
        <time>2023-01-06T13:21:15Z</time>
      </trkpt>
      <trkpt lat="43.59682" lon="6.31306">
        <ele>706</ele>
        <time>2023-01-06T13:21:16Z</time>
      </trkpt>
      <trkpt lat="43.59683" lon="6.31307">
        <ele>707</ele>
        <time>2023-01-06T13:21:17Z</time>
      </trkpt>
      <trkpt lat="43.59683" lon="6.31308">
        <ele>707</ele>
        <time>2023-01-06T13:21:18Z</time>
      </trkpt>
      <trkpt lat="43.59684" lon="6.31309">
        <ele>708</ele>
        <time>2023-01-06T13:21:19Z</time>
      </trkpt>
      <trkpt lat="43.59684" lon="6.3131">
        <ele>708</ele>
        <time>2023-01-06T13:21:20Z</time>
      </trkpt>
      <trkpt lat="43.59685" lon="6.31311">
        <ele>708</ele>
        <time>2023-01-06T13:21:21Z</time>
      </trkpt>
      <trkpt lat="43.59685" lon="6.31311">
        <ele>708</ele>
        <time>2023-01-06T13:21:22Z</time>
      </trkpt>
      <trkpt lat="43.59685" lon="6.31312">
        <ele>708</ele>
        <time>2023-01-06T13:21:23Z</time>
      </trkpt>
      <trkpt lat="43.59685" lon="6.31312">
        <ele>708</ele>
        <time>2023-01-06T13:21:24Z</time>
      </trkpt>
      <trkpt lat="43.59686" lon="6.31313">
        <ele>708</ele>
        <time>2023-01-06T13:21:25Z</time>
      </trkpt>
      <trkpt lat="43.59686" lon="6.31313">
        <ele>708</ele>
        <time>2023-01-06T13:21:26Z</time>
      </trkpt>
      <trkpt lat="43.59686" lon="6.31313">
        <ele>708</ele>
        <time>2023-01-06T13:21:27Z</time>
      </trkpt>
      <trkpt lat="43.59686" lon="6.31313">
        <ele>708</ele>
        <time>2023-01-06T13:21:28Z</time>
      </trkpt>
      <trkpt lat="43.59686" lon="6.31314">
        <ele>708</ele>
        <time>2023-01-06T13:21:29Z</time>
      </trkpt>
      <trkpt lat="43.59686" lon="6.31314">
        <ele>708</ele>
        <time>2023-01-06T13:21:30Z</time>
      </trkpt>
      <trkpt lat="43.59686" lon="6.31314">
        <ele>708</ele>
        <time>2023-01-06T13:21:31Z</time>
      </trkpt>
      <trkpt lat="43.59686" lon="6.31314">
        <ele>708</ele>
        <time>2023-01-06T13:21:32Z</time>
      </trkpt>
      <trkpt lat="43.59686" lon="6.31314">
        <ele>708</ele>
        <time>2023-01-06T13:21:33Z</time>
      </trkpt>
      <trkpt lat="43.59686" lon="6.31314">
        <ele>708</ele>
        <time>2023-01-06T13:21:34Z</time>
      </trkpt>
      <trkpt lat="43.59686" lon="6.31314">
        <ele>708</ele>
        <time>2023-01-06T13:21:35Z</time>
      </trkpt>
      <trkpt lat="43.59687" lon="6.31315">
        <ele>708</ele>
        <time>2023-01-06T13:21:36Z</time>
      </trkpt>
      <trkpt lat="43.59687" lon="6.31315">
        <ele>708</ele>
        <time>2023-01-06T13:21:37Z</time>
      </trkpt>
      <trkpt lat="43.59688" lon="6.31316">
        <ele>708</ele>
        <time>2023-01-06T13:21:38Z</time>
      </trkpt>
      <trkpt lat="43.59688" lon="6.31317">
        <ele>708</ele>
        <time>2023-01-06T13:21:39Z</time>
      </trkpt>
      <trkpt lat="43.59689" lon="6.31318">
        <ele>708</ele>
        <time>2023-01-06T13:21:40Z</time>
      </trkpt>
      <trkpt lat="43.5969" lon="6.31319">
        <ele>708</ele>
        <time>2023-01-06T13:21:41Z</time>
      </trkpt>
      <trkpt lat="43.59692" lon="6.31321">
        <ele>710</ele>
        <time>2023-01-06T13:21:42Z</time>
      </trkpt>
      <trkpt lat="43.59693" lon="6.31324">
        <ele>710</ele>
        <time>2023-01-06T13:21:43Z</time>
      </trkpt>
      <trkpt lat="43.59696" lon="6.31328">
        <ele>711</ele>
        <time>2023-01-06T13:21:44Z</time>
      </trkpt>
      <trkpt lat="43.597" lon="6.31332">
        <ele>711</ele>
        <time>2023-01-06T13:21:45Z</time>
      </trkpt>
      <trkpt lat="43.59702" lon="6.31335">
        <ele>712</ele>
        <time>2023-01-06T13:21:46Z</time>
      </trkpt>
      <trkpt lat="43.59704" lon="6.31337">
        <ele>712</ele>
        <time>2023-01-06T13:21:47Z</time>
      </trkpt>
      <trkpt lat="43.59705" lon="6.31338">
        <ele>713</ele>
        <time>2023-01-06T13:21:48Z</time>
      </trkpt>
      <trkpt lat="43.59706" lon="6.3134">
        <ele>713</ele>
        <time>2023-01-06T13:21:49Z</time>
      </trkpt>
      <trkpt lat="43.59707" lon="6.31341">
        <ele>713</ele>
        <time>2023-01-06T13:21:50Z</time>
      </trkpt>
      <trkpt lat="43.59707" lon="6.31342">
        <ele>713</ele>
        <time>2023-01-06T13:21:51Z</time>
      </trkpt>
      <trkpt lat="43.59707" lon="6.31342">
        <ele>713</ele>
        <time>2023-01-06T13:21:52Z</time>
      </trkpt>
      <trkpt lat="43.59707" lon="6.31343">
        <ele>713</ele>
        <time>2023-01-06T13:21:53Z</time>
      </trkpt>
      <trkpt lat="43.59708" lon="6.31343">
        <ele>713</ele>
        <time>2023-01-06T13:21:54Z</time>
      </trkpt>
      <trkpt lat="43.59708" lon="6.31344">
        <ele>713</ele>
        <time>2023-01-06T13:21:55Z</time>
      </trkpt>
      <trkpt lat="43.59708" lon="6.31344">
        <ele>714</ele>
        <time>2023-01-06T13:21:56Z</time>
      </trkpt>
      <trkpt lat="43.59709" lon="6.31345">
        <ele>714</ele>
        <time>2023-01-06T13:21:57Z</time>
      </trkpt>
      <trkpt lat="43.59709" lon="6.31346">
        <ele>714</ele>
        <time>2023-01-06T13:21:58Z</time>
      </trkpt>
      <trkpt lat="43.59709" lon="6.31347">
        <ele>714</ele>
        <time>2023-01-06T13:21:59Z</time>
      </trkpt>
      <trkpt lat="43.5971" lon="6.31348">
        <ele>714</ele>
        <time>2023-01-06T13:22:00Z</time>
      </trkpt>
      <trkpt lat="43.5971" lon="6.31349">
        <ele>715</ele>
        <time>2023-01-06T13:22:01Z</time>
      </trkpt>
      <trkpt lat="43.5971" lon="6.3135">
        <ele>715</ele>
        <time>2023-01-06T13:22:02Z</time>
      </trkpt>
      <trkpt lat="43.5971" lon="6.3135">
        <ele>715</ele>
        <time>2023-01-06T13:22:03Z</time>
      </trkpt>
      <trkpt lat="43.5971" lon="6.31351">
        <ele>715</ele>
        <time>2023-01-06T13:22:04Z</time>
      </trkpt>
      <trkpt lat="43.59711" lon="6.31351">
        <ele>715</ele>
        <time>2023-01-06T13:22:05Z</time>
      </trkpt>
      <trkpt lat="43.59711" lon="6.31352">
        <ele>715</ele>
        <time>2023-01-06T13:22:06Z</time>
      </trkpt>
      <trkpt lat="43.59711" lon="6.31352">
        <ele>715</ele>
        <time>2023-01-06T13:22:07Z</time>
      </trkpt>
      <trkpt lat="43.59711" lon="6.31352">
        <ele>715</ele>
        <time>2023-01-06T13:22:08Z</time>
      </trkpt>
      <trkpt lat="43.59711" lon="6.31353">
        <ele>715</ele>
        <time>2023-01-06T13:22:09Z</time>
      </trkpt>
      <trkpt lat="43.59711" lon="6.31353">
        <ele>715</ele>
        <time>2023-01-06T13:22:10Z</time>
      </trkpt>
      <trkpt lat="43.59711" lon="6.31354">
        <ele>715</ele>
        <time>2023-01-06T13:22:11Z</time>
      </trkpt>
      <trkpt lat="43.59711" lon="6.31354">
        <ele>715</ele>
        <time>2023-01-06T13:22:12Z</time>
      </trkpt>
      <trkpt lat="43.59711" lon="6.31355">
        <ele>715</ele>
        <time>2023-01-06T13:22:13Z</time>
      </trkpt>
      <trkpt lat="43.59712" lon="6.31355">
        <ele>715</ele>
        <time>2023-01-06T13:22:14Z</time>
      </trkpt>
      <trkpt lat="43.59712" lon="6.31356">
        <ele>715</ele>
        <time>2023-01-06T13:22:15Z</time>
      </trkpt>
      <trkpt lat="43.59712" lon="6.31357">
        <ele>716</ele>
        <time>2023-01-06T13:22:16Z</time>
      </trkpt>
      <trkpt lat="43.59712" lon="6.31358">
        <ele>716</ele>
        <time>2023-01-06T13:22:17Z</time>
      </trkpt>
      <trkpt lat="43.59713" lon="6.31359">
        <ele>716</ele>
        <time>2023-01-06T13:22:18Z</time>
      </trkpt>
      <trkpt lat="43.59713" lon="6.3136">
        <ele>716</ele>
        <time>2023-01-06T13:22:19Z</time>
      </trkpt>
      <trkpt lat="43.59713" lon="6.31361">
        <ele>717</ele>
        <time>2023-01-06T13:22:20Z</time>
      </trkpt>
      <trkpt lat="43.59713" lon="6.31362">
        <ele>717</ele>
        <time>2023-01-06T13:22:21Z</time>
      </trkpt>
      <trkpt lat="43.59713" lon="6.31362">
        <ele>717</ele>
        <time>2023-01-06T13:22:22Z</time>
      </trkpt>
      <trkpt lat="43.59713" lon="6.31363">
        <ele>717</ele>
        <time>2023-01-06T13:22:23Z</time>
      </trkpt>
      <trkpt lat="43.59713" lon="6.31363">
        <ele>717</ele>
        <time>2023-01-06T13:22:24Z</time>
      </trkpt>
      <trkpt lat="43.59714" lon="6.31364">
        <ele>717</ele>
        <time>2023-01-06T13:22:25Z</time>
      </trkpt>
      <trkpt lat="43.59714" lon="6.31364">
        <ele>717</ele>
        <time>2023-01-06T13:22:26Z</time>
      </trkpt>
      <trkpt lat="43.59714" lon="6.31364">
        <ele>717</ele>
        <time>2023-01-06T13:22:27Z</time>
      </trkpt>
      <trkpt lat="43.59714" lon="6.31364">
        <ele>717</ele>
        <time>2023-01-06T13:22:28Z</time>
      </trkpt>
      <trkpt lat="43.59714" lon="6.31364">
        <ele>717</ele>
        <time>2023-01-06T13:22:29Z</time>
      </trkpt>
      <trkpt lat="43.59714" lon="6.31364">
        <ele>717</ele>
        <time>2023-01-06T13:22:30Z</time>
      </trkpt>
      <trkpt lat="43.59714" lon="6.31364">
        <ele>717</ele>
        <time>2023-01-06T13:22:31Z</time>
      </trkpt>
      <trkpt lat="43.59714" lon="6.31364">
        <ele>717</ele>
        <time>2023-01-06T13:22:32Z</time>
      </trkpt>
      <trkpt lat="43.59714" lon="6.31364">
        <ele>717</ele>
        <time>2023-01-06T13:22:33Z</time>
      </trkpt>
      <trkpt lat="43.59714" lon="6.31364">
        <ele>717</ele>
        <time>2023-01-06T13:22:34Z</time>
      </trkpt>
      <trkpt lat="43.59714" lon="6.31364">
        <ele>717</ele>
        <time>2023-01-06T13:22:35Z</time>
      </trkpt>
      <trkpt lat="43.59714" lon="6.31364">
        <ele>717</ele>
        <time>2023-01-06T13:22:36Z</time>
      </trkpt>
      <trkpt lat="43.59714" lon="6.31364">
        <ele>717</ele>
        <time>2023-01-06T13:22:37Z</time>
      </trkpt>
      <trkpt lat="43.59714" lon="6.31364">
        <ele>717</ele>
        <time>2023-01-06T13:22:38Z</time>
      </trkpt>
      <trkpt lat="43.59714" lon="6.31364">
        <ele>717</ele>
        <time>2023-01-06T13:22:39Z</time>
      </trkpt>
      <trkpt lat="43.59714" lon="6.31364">
        <ele>717</ele>
        <time>2023-01-06T13:22:40Z</time>
      </trkpt>
      <trkpt lat="43.59714" lon="6.31364">
        <ele>717</ele>
        <time>2023-01-06T13:22:41Z</time>
      </trkpt>
      <trkpt lat="43.59714" lon="6.31364">
        <ele>717</ele>
        <time>2023-01-06T13:22:42Z</time>
      </trkpt>
      <trkpt lat="43.59714" lon="6.31364">
        <ele>717</ele>
        <time>2023-01-06T13:22:43Z</time>
      </trkpt>
      <trkpt lat="43.59714" lon="6.31364">
        <ele>717</ele>
        <time>2023-01-06T13:22:44Z</time>
      </trkpt>
      <trkpt lat="43.59714" lon="6.31364">
        <ele>717</ele>
        <time>2023-01-06T13:22:45Z</time>
      </trkpt>
      <trkpt lat="43.59714" lon="6.31364">
        <ele>717</ele>
        <time>2023-01-06T13:22:46Z</time>
      </trkpt>
      <trkpt lat="43.59714" lon="6.31364">
        <ele>717</ele>
        <time>2023-01-06T13:22:47Z</time>
      </trkpt>
      <trkpt lat="43.59714" lon="6.31364">
        <ele>717</ele>
        <time>2023-01-06T13:22:48Z</time>
      </trkpt>
      <trkpt lat="43.59714" lon="6.31364">
        <ele>717</ele>
        <time>2023-01-06T13:22:49Z</time>
      </trkpt>
      <trkpt lat="43.59714" lon="6.31364">
        <ele>717</ele>
        <time>2023-01-06T13:22:50Z</time>
      </trkpt>
      <trkpt lat="43.59714" lon="6.31364">
        <ele>717</ele>
        <time>2023-01-06T13:22:51Z</time>
      </trkpt>
      <trkpt lat="43.59714" lon="6.31364">
        <ele>717</ele>
        <time>2023-01-06T13:22:52Z</time>
      </trkpt>
      <trkpt lat="43.59714" lon="6.31364">
        <ele>717</ele>
        <time>2023-01-06T13:22:53Z</time>
      </trkpt>
      <trkpt lat="43.59714" lon="6.31364">
        <ele>717</ele>
        <time>2023-01-06T13:22:54Z</time>
      </trkpt>
      <trkpt lat="43.59714" lon="6.31364">
        <ele>717</ele>
        <time>2023-01-06T13:22:55Z</time>
      </trkpt>
      <trkpt lat="43.59714" lon="6.31364">
        <ele>717</ele>
        <time>2023-01-06T13:22:56Z</time>
      </trkpt>
      <trkpt lat="43.59714" lon="6.31364">
        <ele>717</ele>
        <time>2023-01-06T13:22:57Z</time>
      </trkpt>
      <trkpt lat="43.59714" lon="6.31364">
        <ele>717</ele>
        <time>2023-01-06T13:22:58Z</time>
      </trkpt>
      <trkpt lat="43.59714" lon="6.31364">
        <ele>717</ele>
        <time>2023-01-06T13:22:59Z</time>
      </trkpt>
      <trkpt lat="43.59714" lon="6.31364">
        <ele>717</ele>
        <time>2023-01-06T13:23:00Z</time>
      </trkpt>
      <trkpt lat="43.59714" lon="6.31364">
        <ele>717</ele>
        <time>2023-01-06T13:23:01Z</time>
      </trkpt>
      <trkpt lat="43.59714" lon="6.31364">
        <ele>717</ele>
        <time>2023-01-06T13:23:02Z</time>
      </trkpt>
      <trkpt lat="43.59714" lon="6.31364">
        <ele>717</ele>
        <time>2023-01-06T13:23:03Z</time>
      </trkpt>
      <trkpt lat="43.59714" lon="6.31364">
        <ele>717</ele>
        <time>2023-01-06T13:23:04Z</time>
      </trkpt>
      <trkpt lat="43.59714" lon="6.31364">
        <ele>717</ele>
        <time>2023-01-06T13:23:05Z</time>
      </trkpt>
      <trkpt lat="43.59714" lon="6.31366">
        <ele>717</ele>
        <time>2023-01-06T13:23:06Z</time>
      </trkpt>
      <trkpt lat="43.59714" lon="6.31366">
        <ele>717</ele>
        <time>2023-01-06T13:23:07Z</time>
      </trkpt>
      <trkpt lat="43.59714" lon="6.31366">
        <ele>717</ele>
        <time>2023-01-06T13:23:08Z</time>
      </trkpt>
      <trkpt lat="43.59714" lon="6.31366">
        <ele>717</ele>
        <time>2023-01-06T13:23:09Z</time>
      </trkpt>
      <trkpt lat="43.59714" lon="6.31366">
        <ele>717</ele>
        <time>2023-01-06T13:23:10Z</time>
      </trkpt>
      <trkpt lat="43.59714" lon="6.31366">
        <ele>717</ele>
        <time>2023-01-06T13:23:11Z</time>
      </trkpt>
      <trkpt lat="43.59714" lon="6.31366">
        <ele>717</ele>
        <time>2023-01-06T13:23:12Z</time>
      </trkpt>
      <trkpt lat="43.59714" lon="6.31366">
        <ele>717</ele>
        <time>2023-01-06T13:23:13Z</time>
      </trkpt>
      <trkpt lat="43.59715" lon="6.31366">
        <ele>717</ele>
        <time>2023-01-06T13:23:14Z</time>
      </trkpt>
      <trkpt lat="43.59716" lon="6.31365">
        <ele>717</ele>
        <time>2023-01-06T13:23:15Z</time>
      </trkpt>
      <trkpt lat="43.59716" lon="6.31365">
        <ele>717</ele>
        <time>2023-01-06T13:23:16Z</time>
      </trkpt>
      <trkpt lat="43.59717" lon="6.31365">
        <ele>717</ele>
        <time>2023-01-06T13:23:17Z</time>
      </trkpt>
      <trkpt lat="43.59717" lon="6.31365">
        <ele>717</ele>
        <time>2023-01-06T13:23:18Z</time>
      </trkpt>
      <trkpt lat="43.59717" lon="6.31365">
        <ele>717</ele>
        <time>2023-01-06T13:23:19Z</time>
      </trkpt>
      <trkpt lat="43.59717" lon="6.31365">
        <ele>717</ele>
        <time>2023-01-06T13:23:20Z</time>
      </trkpt>
      <trkpt lat="43.59717" lon="6.31365">
        <ele>717</ele>
        <time>2023-01-06T13:23:21Z</time>
      </trkpt>
      <trkpt lat="43.59717" lon="6.31365">
        <ele>717</ele>
        <time>2023-01-06T13:23:22Z</time>
      </trkpt>
      <trkpt lat="43.59717" lon="6.31365">
        <ele>717</ele>
        <time>2023-01-06T13:23:23Z</time>
      </trkpt>
      <trkpt lat="43.59717" lon="6.31365">
        <ele>717</ele>
        <time>2023-01-06T13:23:24Z</time>
      </trkpt>
      <trkpt lat="43.59717" lon="6.31365">
        <ele>717</ele>
        <time>2023-01-06T13:23:25Z</time>
      </trkpt>
      <trkpt lat="43.59717" lon="6.31365">
        <ele>717</ele>
        <time>2023-01-06T13:23:26Z</time>
      </trkpt>
      <trkpt lat="43.59717" lon="6.31365">
        <ele>717</ele>
        <time>2023-01-06T13:23:27Z</time>
      </trkpt>
      <trkpt lat="43.59717" lon="6.31365">
        <ele>717</ele>
        <time>2023-01-06T13:23:28Z</time>
      </trkpt>
      <trkpt lat="43.59717" lon="6.31365">
        <ele>717</ele>
        <time>2023-01-06T13:23:29Z</time>
      </trkpt>
      <trkpt lat="43.59717" lon="6.31365">
        <ele>717</ele>
        <time>2023-01-06T13:23:30Z</time>
      </trkpt>
      <trkpt lat="43.59717" lon="6.31365">
        <ele>717</ele>
        <time>2023-01-06T13:23:31Z</time>
      </trkpt>
      <trkpt lat="43.59717" lon="6.31365">
        <ele>717</ele>
        <time>2023-01-06T13:23:32Z</time>
      </trkpt>
      <trkpt lat="43.59717" lon="6.31365">
        <ele>717</ele>
        <time>2023-01-06T13:23:33Z</time>
      </trkpt>
      <trkpt lat="43.59717" lon="6.31365">
        <ele>717</ele>
        <time>2023-01-06T13:23:34Z</time>
      </trkpt>
      <trkpt lat="43.59717" lon="6.31365">
        <ele>717</ele>
        <time>2023-01-06T13:23:35Z</time>
      </trkpt>
      <trkpt lat="43.59717" lon="6.31365">
        <ele>717</ele>
        <time>2023-01-06T13:23:36Z</time>
      </trkpt>
      <trkpt lat="43.59717" lon="6.31365">
        <ele>717</ele>
        <time>2023-01-06T13:23:37Z</time>
      </trkpt>
      <trkpt lat="43.59717" lon="6.31365">
        <ele>717</ele>
        <time>2023-01-06T13:23:38Z</time>
      </trkpt>
      <trkpt lat="43.59717" lon="6.31365">
        <ele>717</ele>
        <time>2023-01-06T13:23:39Z</time>
      </trkpt>
      <trkpt lat="43.59717" lon="6.31365">
        <ele>717</ele>
        <time>2023-01-06T13:23:40Z</time>
      </trkpt>
      <trkpt lat="43.59717" lon="6.31365">
        <ele>717</ele>
        <time>2023-01-06T13:23:41Z</time>
      </trkpt>
      <trkpt lat="43.59717" lon="6.31365">
        <ele>717</ele>
        <time>2023-01-06T13:23:42Z</time>
      </trkpt>
      <trkpt lat="43.59717" lon="6.31365">
        <ele>717</ele>
        <time>2023-01-06T13:23:43Z</time>
      </trkpt>
      <trkpt lat="43.59717" lon="6.31365">
        <ele>717</ele>
        <time>2023-01-06T13:23:44Z</time>
      </trkpt>
      <trkpt lat="43.59717" lon="6.31365">
        <ele>717</ele>
        <time>2023-01-06T13:23:45Z</time>
      </trkpt>
      <trkpt lat="43.59717" lon="6.31365">
        <ele>717</ele>
        <time>2023-01-06T13:23:46Z</time>
      </trkpt>
      <trkpt lat="43.59717" lon="6.31365">
        <ele>717</ele>
        <time>2023-01-06T13:23:47Z</time>
      </trkpt>
      <trkpt lat="43.59717" lon="6.31365">
        <ele>717</ele>
        <time>2023-01-06T13:23:48Z</time>
      </trkpt>
      <trkpt lat="43.59717" lon="6.31365">
        <ele>717</ele>
        <time>2023-01-06T13:23:49Z</time>
      </trkpt>
      <trkpt lat="43.59717" lon="6.31365">
        <ele>717</ele>
        <time>2023-01-06T13:23:50Z</time>
      </trkpt>
      <trkpt lat="43.59717" lon="6.31365">
        <ele>717</ele>
        <time>2023-01-06T13:23:51Z</time>
      </trkpt>
      <trkpt lat="43.59717" lon="6.31365">
        <ele>717</ele>
        <time>2023-01-06T13:23:52Z</time>
      </trkpt>
      <trkpt lat="43.59717" lon="6.31365">
        <ele>717</ele>
        <time>2023-01-06T13:23:53Z</time>
      </trkpt>
      <trkpt lat="43.59717" lon="6.31365">
        <ele>717</ele>
        <time>2023-01-06T13:23:54Z</time>
      </trkpt>
      <trkpt lat="43.59717" lon="6.31365">
        <ele>717</ele>
        <time>2023-01-06T13:23:55Z</time>
      </trkpt>
      <trkpt lat="43.59717" lon="6.31365">
        <ele>717</ele>
        <time>2023-01-06T13:23:56Z</time>
      </trkpt>
      <trkpt lat="43.59717" lon="6.31365">
        <ele>717</ele>
        <time>2023-01-06T13:23:57Z</time>
      </trkpt>
      <trkpt lat="43.59717" lon="6.31365">
        <ele>717</ele>
        <time>2023-01-06T13:23:58Z</time>
      </trkpt>
      <trkpt lat="43.59717" lon="6.31365">
        <ele>717</ele>
        <time>2023-01-06T13:23:59Z</time>
      </trkpt>
      <trkpt lat="43.59717" lon="6.31365">
        <ele>717</ele>
        <time>2023-01-06T13:24:00Z</time>
      </trkpt>
      <trkpt lat="43.59717" lon="6.31365">
        <ele>717</ele>
        <time>2023-01-06T13:24:01Z</time>
      </trkpt>
      <trkpt lat="43.59717" lon="6.31365">
        <ele>717</ele>
        <time>2023-01-06T13:24:02Z</time>
      </trkpt>
      <trkpt lat="43.59717" lon="6.31365">
        <ele>717</ele>
        <time>2023-01-06T13:24:03Z</time>
      </trkpt>
      <trkpt lat="43.59717" lon="6.31365">
        <ele>717</ele>
        <time>2023-01-06T13:24:04Z</time>
      </trkpt>
      <trkpt lat="43.59717" lon="6.31365">
        <ele>717</ele>
        <time>2023-01-06T13:24:05Z</time>
      </trkpt>
      <trkpt lat="43.59717" lon="6.31365">
        <ele>717</ele>
        <time>2023-01-06T13:24:06Z</time>
      </trkpt>
      <trkpt lat="43.59717" lon="6.31365">
        <ele>717</ele>
        <time>2023-01-06T13:24:07Z</time>
      </trkpt>
      <trkpt lat="43.59717" lon="6.31365">
        <ele>717</ele>
        <time>2023-01-06T13:24:08Z</time>
      </trkpt>
      <trkpt lat="43.59717" lon="6.31365">
        <ele>717</ele>
        <time>2023-01-06T13:24:09Z</time>
      </trkpt>
      <trkpt lat="43.59717" lon="6.31365">
        <ele>717</ele>
        <time>2023-01-06T13:24:10Z</time>
      </trkpt>
      <trkpt lat="43.59717" lon="6.31365">
        <ele>717</ele>
        <time>2023-01-06T13:24:11Z</time>
      </trkpt>
      <trkpt lat="43.59717" lon="6.31365">
        <ele>717</ele>
        <time>2023-01-06T13:24:12Z</time>
      </trkpt>
      <trkpt lat="43.59717" lon="6.31365">
        <ele>717</ele>
        <time>2023-01-06T13:24:13Z</time>
      </trkpt>
      <trkpt lat="43.59717" lon="6.31365">
        <ele>717</ele>
        <time>2023-01-06T13:24:14Z</time>
      </trkpt>
      <trkpt lat="43.59717" lon="6.31365">
        <ele>717</ele>
        <time>2023-01-06T13:24:15Z</time>
      </trkpt>
      <trkpt lat="43.59717" lon="6.31365">
        <ele>717</ele>
        <time>2023-01-06T13:24:16Z</time>
      </trkpt>
      <trkpt lat="43.59717" lon="6.31365">
        <ele>717</ele>
        <time>2023-01-06T13:24:17Z</time>
      </trkpt>
      <trkpt lat="43.59717" lon="6.31365">
        <ele>717</ele>
        <time>2023-01-06T13:24:18Z</time>
      </trkpt>
      <trkpt lat="43.59717" lon="6.31365">
        <ele>717</ele>
        <time>2023-01-06T13:24:19Z</time>
      </trkpt>
      <trkpt lat="43.59717" lon="6.31365">
        <ele>717</ele>
        <time>2023-01-06T13:24:20Z</time>
      </trkpt>
      <trkpt lat="43.59717" lon="6.31365">
        <ele>717</ele>
        <time>2023-01-06T13:24:21Z</time>
      </trkpt>
      <trkpt lat="43.59717" lon="6.31365">
        <ele>717</ele>
        <time>2023-01-06T13:24:22Z</time>
      </trkpt>
      <trkpt lat="43.59717" lon="6.31365">
        <ele>717</ele>
        <time>2023-01-06T13:24:23Z</time>
      </trkpt>
      <trkpt lat="43.59717" lon="6.31365">
        <ele>717</ele>
        <time>2023-01-06T13:24:24Z</time>
      </trkpt>
      <trkpt lat="43.59717" lon="6.31365">
        <ele>717</ele>
        <time>2023-01-06T13:24:25Z</time>
      </trkpt>
      <trkpt lat="43.59717" lon="6.31365">
        <ele>717</ele>
        <time>2023-01-06T13:24:26Z</time>
      </trkpt>
      <trkpt lat="43.59717" lon="6.31365">
        <ele>717</ele>
        <time>2023-01-06T13:24:27Z</time>
      </trkpt>
      <trkpt lat="43.59717" lon="6.31365">
        <ele>717</ele>
        <time>2023-01-06T13:24:28Z</time>
      </trkpt>
      <trkpt lat="43.59717" lon="6.31365">
        <ele>717</ele>
        <time>2023-01-06T13:24:29Z</time>
      </trkpt>
      <trkpt lat="43.59717" lon="6.31365">
        <ele>717</ele>
        <time>2023-01-06T13:24:30Z</time>
      </trkpt>
      <trkpt lat="43.59717" lon="6.31365">
        <ele>717</ele>
        <time>2023-01-06T13:24:31Z</time>
      </trkpt>
      <trkpt lat="43.59717" lon="6.31365">
        <ele>717</ele>
        <time>2023-01-06T13:24:32Z</time>
      </trkpt>
      <trkpt lat="43.59717" lon="6.31365">
        <ele>717</ele>
        <time>2023-01-06T13:24:33Z</time>
      </trkpt>
      <trkpt lat="43.59717" lon="6.31365">
        <ele>717</ele>
        <time>2023-01-06T13:24:34Z</time>
      </trkpt>
      <trkpt lat="43.59717" lon="6.31365">
        <ele>717</ele>
        <time>2023-01-06T13:24:35Z</time>
      </trkpt>
      <trkpt lat="43.59717" lon="6.31365">
        <ele>717</ele>
        <time>2023-01-06T13:24:36Z</time>
      </trkpt>
      <trkpt lat="43.59717" lon="6.31365">
        <ele>717</ele>
        <time>2023-01-06T13:24:37Z</time>
      </trkpt>
      <trkpt lat="43.59718" lon="6.31365">
        <ele>717</ele>
        <time>2023-01-06T13:24:38Z</time>
      </trkpt>
      <trkpt lat="43.59718" lon="6.31364">
        <ele>717</ele>
        <time>2023-01-06T13:24:39Z</time>
      </trkpt>
      <trkpt lat="43.59718" lon="6.31364">
        <ele>717</ele>
        <time>2023-01-06T13:24:40Z</time>
      </trkpt>
      <trkpt lat="43.59718" lon="6.31364">
        <ele>717</ele>
        <time>2023-01-06T13:24:41Z</time>
      </trkpt>
      <trkpt lat="43.59718" lon="6.31364">
        <ele>717</ele>
        <time>2023-01-06T13:24:42Z</time>
      </trkpt>
      <trkpt lat="43.59718" lon="6.31364">
        <ele>717</ele>
        <time>2023-01-06T13:24:43Z</time>
      </trkpt>
      <trkpt lat="43.59718" lon="6.31364">
        <ele>717</ele>
        <time>2023-01-06T13:24:44Z</time>
      </trkpt>
      <trkpt lat="43.59718" lon="6.31364">
        <ele>717</ele>
        <time>2023-01-06T13:24:45Z</time>
      </trkpt>
      <trkpt lat="43.59718" lon="6.31364">
        <ele>717</ele>
        <time>2023-01-06T13:24:46Z</time>
      </trkpt>
      <trkpt lat="43.59718" lon="6.31364">
        <ele>717</ele>
        <time>2023-01-06T13:24:47Z</time>
      </trkpt>
      <trkpt lat="43.59718" lon="6.31364">
        <ele>717</ele>
        <time>2023-01-06T13:24:48Z</time>
      </trkpt>
      <trkpt lat="43.59718" lon="6.31364">
        <ele>717</ele>
        <time>2023-01-06T13:24:49Z</time>
      </trkpt>
      <trkpt lat="43.59718" lon="6.31364">
        <ele>717</ele>
        <time>2023-01-06T13:24:50Z</time>
      </trkpt>
      <trkpt lat="43.59718" lon="6.31364">
        <ele>717</ele>
        <time>2023-01-06T13:24:51Z</time>
      </trkpt>
      <trkpt lat="43.59718" lon="6.31364">
        <ele>717</ele>
        <time>2023-01-06T13:24:52Z</time>
      </trkpt>
      <trkpt lat="43.59718" lon="6.31364">
        <ele>717</ele>
        <time>2023-01-06T13:24:53Z</time>
      </trkpt>
      <trkpt lat="43.59718" lon="6.31364">
        <ele>717</ele>
        <time>2023-01-06T13:24:54Z</time>
      </trkpt>
      <trkpt lat="43.59718" lon="6.31364">
        <ele>717</ele>
        <time>2023-01-06T13:24:55Z</time>
      </trkpt>
      <trkpt lat="43.59718" lon="6.31364">
        <ele>717</ele>
        <time>2023-01-06T13:24:56Z</time>
      </trkpt>
      <trkpt lat="43.59718" lon="6.31364">
        <ele>717</ele>
        <time>2023-01-06T13:24:57Z</time>
      </trkpt>
      <trkpt lat="43.59718" lon="6.31364">
        <ele>717</ele>
        <time>2023-01-06T13:24:58Z</time>
      </trkpt>
      <trkpt lat="43.59718" lon="6.31364">
        <ele>717</ele>
        <time>2023-01-06T13:24:59Z</time>
      </trkpt>
      <trkpt lat="43.59718" lon="6.31364">
        <ele>717</ele>
        <time>2023-01-06T13:25:00Z</time>
      </trkpt>
      <trkpt lat="43.59718" lon="6.31364">
        <ele>717</ele>
        <time>2023-01-06T13:25:01Z</time>
      </trkpt>
      <trkpt lat="43.59718" lon="6.31364">
        <ele>717</ele>
        <time>2023-01-06T13:25:02Z</time>
      </trkpt>
      <trkpt lat="43.59718" lon="6.31364">
        <ele>717</ele>
        <time>2023-01-06T13:25:03Z</time>
      </trkpt>
      <trkpt lat="43.59718" lon="6.31364">
        <ele>717</ele>
        <time>2023-01-06T13:25:04Z</time>
      </trkpt>
      <trkpt lat="43.59719" lon="6.31364">
        <ele>717</ele>
        <time>2023-01-06T13:25:05Z</time>
      </trkpt>
      <trkpt lat="43.59719" lon="6.31363">
        <ele>717</ele>
        <time>2023-01-06T13:25:06Z</time>
      </trkpt>
      <trkpt lat="43.59719" lon="6.31363">
        <ele>717</ele>
        <time>2023-01-06T13:25:07Z</time>
      </trkpt>
      <trkpt lat="43.59719" lon="6.31363">
        <ele>717</ele>
        <time>2023-01-06T13:25:08Z</time>
      </trkpt>
      <trkpt lat="43.59719" lon="6.31363">
        <ele>717</ele>
        <time>2023-01-06T13:25:09Z</time>
      </trkpt>
      <trkpt lat="43.59719" lon="6.31363">
        <ele>717</ele>
        <time>2023-01-06T13:25:10Z</time>
      </trkpt>
      <trkpt lat="43.59719" lon="6.31363">
        <ele>717</ele>
        <time>2023-01-06T13:25:11Z</time>
      </trkpt>
      <trkpt lat="43.59719" lon="6.31363">
        <ele>717</ele>
        <time>2023-01-06T13:25:12Z</time>
      </trkpt>
      <trkpt lat="43.59719" lon="6.31363">
        <ele>717</ele>
        <time>2023-01-06T13:25:13Z</time>
      </trkpt>
      <trkpt lat="43.59719" lon="6.31363">
        <ele>717</ele>
        <time>2023-01-06T13:25:14Z</time>
      </trkpt>
      <trkpt lat="43.59719" lon="6.31363">
        <ele>717</ele>
        <time>2023-01-06T13:25:15Z</time>
      </trkpt>
      <trkpt lat="43.59719" lon="6.31363">
        <ele>717</ele>
        <time>2023-01-06T13:25:16Z</time>
      </trkpt>
      <trkpt lat="43.59719" lon="6.31363">
        <ele>717</ele>
        <time>2023-01-06T13:25:17Z</time>
      </trkpt>
      <trkpt lat="43.5972" lon="6.31362">
        <ele>717</ele>
        <time>2023-01-06T13:25:18Z</time>
      </trkpt>
      <trkpt lat="43.5972" lon="6.31362">
        <ele>717</ele>
        <time>2023-01-06T13:25:19Z</time>
      </trkpt>
      <trkpt lat="43.5972" lon="6.31362">
        <ele>717</ele>
        <time>2023-01-06T13:25:20Z</time>
      </trkpt>
      <trkpt lat="43.5972" lon="6.31362">
        <ele>717</ele>
        <time>2023-01-06T13:25:21Z</time>
      </trkpt>
      <trkpt lat="43.5972" lon="6.31362">
        <ele>717</ele>
        <time>2023-01-06T13:25:22Z</time>
      </trkpt>
      <trkpt lat="43.5972" lon="6.31362">
        <ele>717</ele>
        <time>2023-01-06T13:25:23Z</time>
      </trkpt>
      <trkpt lat="43.5972" lon="6.31362">
        <ele>717</ele>
        <time>2023-01-06T13:25:24Z</time>
      </trkpt>
      <trkpt lat="43.5972" lon="6.31362">
        <ele>717</ele>
        <time>2023-01-06T13:25:25Z</time>
      </trkpt>
      <trkpt lat="43.5972" lon="6.31362">
        <ele>717</ele>
        <time>2023-01-06T13:25:26Z</time>
      </trkpt>
      <trkpt lat="43.5972" lon="6.31362">
        <ele>717</ele>
        <time>2023-01-06T13:25:27Z</time>
      </trkpt>
      <trkpt lat="43.5972" lon="6.31362">
        <ele>717</ele>
        <time>2023-01-06T13:25:28Z</time>
      </trkpt>
      <trkpt lat="43.5972" lon="6.31362">
        <ele>717</ele>
        <time>2023-01-06T13:25:29Z</time>
      </trkpt>
      <trkpt lat="43.5972" lon="6.31362">
        <ele>717</ele>
        <time>2023-01-06T13:25:30Z</time>
      </trkpt>
      <trkpt lat="43.5972" lon="6.31362">
        <ele>718</ele>
        <time>2023-01-06T13:25:31Z</time>
      </trkpt>
      <trkpt lat="43.5972" lon="6.31362">
        <ele>718</ele>
        <time>2023-01-06T13:25:32Z</time>
      </trkpt>
      <trkpt lat="43.5972" lon="6.31362">
        <ele>718</ele>
        <time>2023-01-06T13:25:33Z</time>
      </trkpt>
      <trkpt lat="43.5972" lon="6.31362">
        <ele>718</ele>
        <time>2023-01-06T13:25:34Z</time>
      </trkpt>
      <trkpt lat="43.5972" lon="6.31362">
        <ele>718</ele>
        <time>2023-01-06T13:25:35Z</time>
      </trkpt>
      <trkpt lat="43.5972" lon="6.31362">
        <ele>719</ele>
        <time>2023-01-06T13:25:36Z</time>
      </trkpt>
      <trkpt lat="43.5972" lon="6.31362">
        <ele>719</ele>
        <time>2023-01-06T13:25:37Z</time>
      </trkpt>
      <trkpt lat="43.5972" lon="6.31362">
        <ele>720</ele>
        <time>2023-01-06T13:25:38Z</time>
      </trkpt>
      <trkpt lat="43.5972" lon="6.31362">
        <ele>720</ele>
        <time>2023-01-06T13:25:39Z</time>
      </trkpt>
      <trkpt lat="43.5972" lon="6.31362">
        <ele>720</ele>
        <time>2023-01-06T13:25:40Z</time>
      </trkpt>
      <trkpt lat="43.5972" lon="6.31362">
        <ele>720</ele>
        <time>2023-01-06T13:25:41Z</time>
      </trkpt>
      <trkpt lat="43.5972" lon="6.31362">
        <ele>720</ele>
        <time>2023-01-06T13:25:42Z</time>
      </trkpt>
      <trkpt lat="43.5972" lon="6.31362">
        <ele>720</ele>
        <time>2023-01-06T13:25:43Z</time>
      </trkpt>
      <trkpt lat="43.5972" lon="6.31362">
        <ele>720</ele>
        <time>2023-01-06T13:25:44Z</time>
      </trkpt>
      <trkpt lat="43.5972" lon="6.31362">
        <ele>720</ele>
        <time>2023-01-06T13:25:45Z</time>
      </trkpt>
      <trkpt lat="43.5972" lon="6.31362">
        <ele>720</ele>
        <time>2023-01-06T13:25:46Z</time>
      </trkpt>
      <trkpt lat="43.5972" lon="6.31362">
        <ele>720</ele>
        <time>2023-01-06T13:25:47Z</time>
      </trkpt>
      <trkpt lat="43.5972" lon="6.31362">
        <ele>720</ele>
        <time>2023-01-06T13:25:48Z</time>
      </trkpt>
      <trkpt lat="43.5972" lon="6.31362">
        <ele>720</ele>
        <time>2023-01-06T13:25:49Z</time>
      </trkpt>
      <trkpt lat="43.5972" lon="6.31362">
        <ele>720</ele>
        <time>2023-01-06T13:25:50Z</time>
      </trkpt>
      <trkpt lat="43.5972" lon="6.31362">
        <ele>720</ele>
        <time>2023-01-06T13:25:51Z</time>
      </trkpt>
      <trkpt lat="43.5972" lon="6.31362">
        <ele>720</ele>
        <time>2023-01-06T13:25:52Z</time>
      </trkpt>
      <trkpt lat="43.5972" lon="6.31362">
        <ele>720</ele>
        <time>2023-01-06T13:25:53Z</time>
      </trkpt>
      <trkpt lat="43.5972" lon="6.31362">
        <ele>720</ele>
        <time>2023-01-06T13:25:54Z</time>
      </trkpt>
      <trkpt lat="43.5972" lon="6.31362">
        <ele>720</ele>
        <time>2023-01-06T13:25:55Z</time>
      </trkpt>
      <trkpt lat="43.5972" lon="6.31362">
        <ele>720</ele>
        <time>2023-01-06T13:25:56Z</time>
      </trkpt>
      <trkpt lat="43.5972" lon="6.31362">
        <ele>720</ele>
        <time>2023-01-06T13:25:57Z</time>
      </trkpt>
      <trkpt lat="43.5972" lon="6.31362">
        <ele>720</ele>
        <time>2023-01-06T13:25:58Z</time>
      </trkpt>
      <trkpt lat="43.5972" lon="6.31362">
        <ele>720</ele>
        <time>2023-01-06T13:25:59Z</time>
      </trkpt>
      <trkpt lat="43.5972" lon="6.31362">
        <ele>720</ele>
        <time>2023-01-06T13:26:00Z</time>
      </trkpt>
      <trkpt lat="43.5972" lon="6.31362">
        <ele>720</ele>
        <time>2023-01-06T13:26:01Z</time>
      </trkpt>
      <trkpt lat="43.5972" lon="6.31362">
        <ele>720</ele>
        <time>2023-01-06T13:26:02Z</time>
      </trkpt>
      <trkpt lat="43.5972" lon="6.31362">
        <ele>720</ele>
        <time>2023-01-06T13:26:03Z</time>
      </trkpt>
      <trkpt lat="43.5972" lon="6.31362">
        <ele>720</ele>
        <time>2023-01-06T13:26:04Z</time>
      </trkpt>
      <trkpt lat="43.5972" lon="6.31362">
        <ele>720</ele>
        <time>2023-01-06T13:26:05Z</time>
      </trkpt>
      <trkpt lat="43.5972" lon="6.31362">
        <ele>720</ele>
        <time>2023-01-06T13:26:06Z</time>
      </trkpt>
      <trkpt lat="43.5972" lon="6.31362">
        <ele>720</ele>
        <time>2023-01-06T13:26:07Z</time>
      </trkpt>
      <trkpt lat="43.5972" lon="6.31362">
        <ele>720</ele>
        <time>2023-01-06T13:26:08Z</time>
      </trkpt>
      <trkpt lat="43.5972" lon="6.31362">
        <ele>720</ele>
        <time>2023-01-06T13:26:09Z</time>
      </trkpt>
      <trkpt lat="43.5972" lon="6.31362">
        <ele>720</ele>
        <time>2023-01-06T13:26:10Z</time>
      </trkpt>
      <trkpt lat="43.5972" lon="6.31362">
        <ele>720</ele>
        <time>2023-01-06T13:26:11Z</time>
      </trkpt>
      <trkpt lat="43.5972" lon="6.31362">
        <ele>720</ele>
        <time>2023-01-06T13:26:12Z</time>
      </trkpt>
      <trkpt lat="43.5972" lon="6.31362">
        <ele>720</ele>
        <time>2023-01-06T13:26:13Z</time>
      </trkpt>
      <trkpt lat="43.5972" lon="6.31362">
        <ele>720</ele>
        <time>2023-01-06T13:26:14Z</time>
      </trkpt>
      <trkpt lat="43.5972" lon="6.31362">
        <ele>720</ele>
        <time>2023-01-06T13:26:15Z</time>
      </trkpt>
      <trkpt lat="43.5972" lon="6.31362">
        <ele>720</ele>
        <time>2023-01-06T13:26:16Z</time>
      </trkpt>
      <trkpt lat="43.5972" lon="6.31362">
        <ele>720</ele>
        <time>2023-01-06T13:26:17Z</time>
      </trkpt>
      <trkpt lat="43.5972" lon="6.31362">
        <ele>720</ele>
        <time>2023-01-06T13:26:18Z</time>
      </trkpt>
      <trkpt lat="43.5972" lon="6.31362">
        <ele>720</ele>
        <time>2023-01-06T13:26:19Z</time>
      </trkpt>
      <trkpt lat="43.5972" lon="6.31362">
        <ele>720</ele>
        <time>2023-01-06T13:26:20Z</time>
      </trkpt>
      <trkpt lat="43.5972" lon="6.31362">
        <ele>720</ele>
        <time>2023-01-06T13:26:21Z</time>
      </trkpt>
      <trkpt lat="43.5972" lon="6.31362">
        <ele>720</ele>
        <time>2023-01-06T13:26:22Z</time>
      </trkpt>
      <trkpt lat="43.5972" lon="6.31362">
        <ele>720</ele>
        <time>2023-01-06T13:26:23Z</time>
      </trkpt>
      <trkpt lat="43.5972" lon="6.31362">
        <ele>720</ele>
        <time>2023-01-06T13:26:24Z</time>
      </trkpt>
      <trkpt lat="43.5972" lon="6.31362">
        <ele>720</ele>
        <time>2023-01-06T13:26:25Z</time>
      </trkpt>
      <trkpt lat="43.5972" lon="6.31362">
        <ele>720</ele>
        <time>2023-01-06T13:26:26Z</time>
      </trkpt>
      <trkpt lat="43.5972" lon="6.31362">
        <ele>720</ele>
        <time>2023-01-06T13:26:27Z</time>
      </trkpt>
      <trkpt lat="43.5972" lon="6.31362">
        <ele>720</ele>
        <time>2023-01-06T13:26:28Z</time>
      </trkpt>
      <trkpt lat="43.5972" lon="6.31362">
        <ele>720</ele>
        <time>2023-01-06T13:26:29Z</time>
      </trkpt>
      <trkpt lat="43.5972" lon="6.31362">
        <ele>720</ele>
        <time>2023-01-06T13:26:30Z</time>
      </trkpt>
      <trkpt lat="43.5972" lon="6.31362">
        <ele>720</ele>
        <time>2023-01-06T13:26:31Z</time>
      </trkpt>
      <trkpt lat="43.5972" lon="6.31362">
        <ele>720</ele>
        <time>2023-01-06T13:26:32Z</time>
      </trkpt>
      <trkpt lat="43.5972" lon="6.31362">
        <ele>720</ele>
        <time>2023-01-06T13:26:33Z</time>
      </trkpt>
      <trkpt lat="43.5972" lon="6.31362">
        <ele>720</ele>
        <time>2023-01-06T13:26:34Z</time>
      </trkpt>
      <trkpt lat="43.5972" lon="6.31362">
        <ele>720</ele>
        <time>2023-01-06T13:26:35Z</time>
      </trkpt>
      <trkpt lat="43.5972" lon="6.31362">
        <ele>720</ele>
        <time>2023-01-06T13:26:36Z</time>
      </trkpt>
      <trkpt lat="43.5972" lon="6.31362">
        <ele>720</ele>
        <time>2023-01-06T13:26:37Z</time>
      </trkpt>
      <trkpt lat="43.5972" lon="6.31362">
        <ele>720</ele>
        <time>2023-01-06T13:26:38Z</time>
      </trkpt>
      <trkpt lat="43.5972" lon="6.31362">
        <ele>720</ele>
        <time>2023-01-06T13:26:39Z</time>
      </trkpt>
      <trkpt lat="43.5972" lon="6.31362">
        <ele>720</ele>
        <time>2023-01-06T13:26:40Z</time>
      </trkpt>
      <trkpt lat="43.5972" lon="6.31362">
        <ele>720</ele>
        <time>2023-01-06T13:26:41Z</time>
      </trkpt>
      <trkpt lat="43.5972" lon="6.31362">
        <ele>720</ele>
        <time>2023-01-06T13:26:42Z</time>
      </trkpt>
      <trkpt lat="43.5972" lon="6.31362">
        <ele>720</ele>
        <time>2023-01-06T13:26:43Z</time>
      </trkpt>
      <trkpt lat="43.5972" lon="6.31362">
        <ele>720</ele>
        <time>2023-01-06T13:26:44Z</time>
      </trkpt>
      <trkpt lat="43.5972" lon="6.31362">
        <ele>720</ele>
        <time>2023-01-06T13:26:45Z</time>
      </trkpt>
      <trkpt lat="43.5972" lon="6.31362">
        <ele>720</ele>
        <time>2023-01-06T13:26:46Z</time>
      </trkpt>
      <trkpt lat="43.5972" lon="6.31362">
        <ele>720</ele>
        <time>2023-01-06T13:26:47Z</time>
      </trkpt>
      <trkpt lat="43.5972" lon="6.31362">
        <ele>720</ele>
        <time>2023-01-06T13:26:48Z</time>
      </trkpt>
      <trkpt lat="43.5972" lon="6.31362">
        <ele>720</ele>
        <time>2023-01-06T13:26:49Z</time>
      </trkpt>
      <trkpt lat="43.5972" lon="6.31362">
        <ele>720</ele>
        <time>2023-01-06T13:26:50Z</time>
      </trkpt>
      <trkpt lat="43.5972" lon="6.31362">
        <ele>720</ele>
        <time>2023-01-06T13:26:51Z</time>
      </trkpt>
      <trkpt lat="43.5972" lon="6.31362">
        <ele>720</ele>
        <time>2023-01-06T13:26:52Z</time>
      </trkpt>
      <trkpt lat="43.5972" lon="6.31362">
        <ele>720</ele>
        <time>2023-01-06T13:26:53Z</time>
      </trkpt>
      <trkpt lat="43.5972" lon="6.31362">
        <ele>720</ele>
        <time>2023-01-06T13:26:54Z</time>
      </trkpt>
      <trkpt lat="43.5972" lon="6.31362">
        <ele>720</ele>
        <time>2023-01-06T13:26:55Z</time>
      </trkpt>
      <trkpt lat="43.5972" lon="6.31362">
        <ele>720</ele>
        <time>2023-01-06T13:26:56Z</time>
      </trkpt>
      <trkpt lat="43.5972" lon="6.31362">
        <ele>720</ele>
        <time>2023-01-06T13:26:57Z</time>
      </trkpt>
      <trkpt lat="43.5972" lon="6.31362">
        <ele>720</ele>
        <time>2023-01-06T13:26:58Z</time>
      </trkpt>
      <trkpt lat="43.5972" lon="6.31362">
        <ele>720</ele>
        <time>2023-01-06T13:26:59Z</time>
      </trkpt>
      <trkpt lat="43.5972" lon="6.31362">
        <ele>720</ele>
        <time>2023-01-06T13:27:00Z</time>
      </trkpt>
      <trkpt lat="43.5972" lon="6.31362">
        <ele>720</ele>
        <time>2023-01-06T13:27:01Z</time>
      </trkpt>
      <trkpt lat="43.5972" lon="6.31362">
        <ele>720</ele>
        <time>2023-01-06T13:27:02Z</time>
      </trkpt>
      <trkpt lat="43.5972" lon="6.31362">
        <ele>720</ele>
        <time>2023-01-06T13:27:03Z</time>
      </trkpt>
      <trkpt lat="43.5972" lon="6.31362">
        <ele>720</ele>
        <time>2023-01-06T13:27:04Z</time>
      </trkpt>
      <trkpt lat="43.5972" lon="6.31362">
        <ele>720</ele>
        <time>2023-01-06T13:27:05Z</time>
      </trkpt>
      <trkpt lat="43.5972" lon="6.31362">
        <ele>720</ele>
        <time>2023-01-06T13:27:06Z</time>
      </trkpt>
      <trkpt lat="43.5972" lon="6.31362">
        <ele>720</ele>
        <time>2023-01-06T13:27:07Z</time>
      </trkpt>
      <trkpt lat="43.5972" lon="6.31362">
        <ele>720</ele>
        <time>2023-01-06T13:27:08Z</time>
      </trkpt>
      <trkpt lat="43.5972" lon="6.31362">
        <ele>720</ele>
        <time>2023-01-06T13:27:09Z</time>
      </trkpt>
      <trkpt lat="43.5972" lon="6.31362">
        <ele>720</ele>
        <time>2023-01-06T13:27:10Z</time>
      </trkpt>
      <trkpt lat="43.5972" lon="6.31362">
        <ele>720</ele>
        <time>2023-01-06T13:27:11Z</time>
      </trkpt>
      <trkpt lat="43.5972" lon="6.31362">
        <ele>720</ele>
        <time>2023-01-06T13:27:12Z</time>
      </trkpt>
      <trkpt lat="43.5972" lon="6.31362">
        <ele>720</ele>
        <time>2023-01-06T13:27:13Z</time>
      </trkpt>
      <trkpt lat="43.5972" lon="6.31362">
        <ele>720</ele>
        <time>2023-01-06T13:27:14Z</time>
      </trkpt>
      <trkpt lat="43.5972" lon="6.31362">
        <ele>720</ele>
        <time>2023-01-06T13:27:15Z</time>
      </trkpt>
      <trkpt lat="43.5972" lon="6.31362">
        <ele>720</ele>
        <time>2023-01-06T13:27:16Z</time>
      </trkpt>
      <trkpt lat="43.5972" lon="6.31362">
        <ele>720</ele>
        <time>2023-01-06T13:27:17Z</time>
      </trkpt>
      <trkpt lat="43.5972" lon="6.31362">
        <ele>720</ele>
        <time>2023-01-06T13:27:18Z</time>
      </trkpt>
      <trkpt lat="43.5972" lon="6.31362">
        <ele>720</ele>
        <time>2023-01-06T13:27:19Z</time>
      </trkpt>
      <trkpt lat="43.5972" lon="6.31362">
        <ele>720</ele>
        <time>2023-01-06T13:27:20Z</time>
      </trkpt>
      <trkpt lat="43.5972" lon="6.31362">
        <ele>720</ele>
        <time>2023-01-06T13:27:21Z</time>
      </trkpt>
      <trkpt lat="43.5972" lon="6.31362">
        <ele>720</ele>
        <time>2023-01-06T13:27:22Z</time>
      </trkpt>
      <trkpt lat="43.5972" lon="6.31362">
        <ele>720</ele>
        <time>2023-01-06T13:27:23Z</time>
      </trkpt>
      <trkpt lat="43.5972" lon="6.31362">
        <ele>720</ele>
        <time>2023-01-06T13:27:24Z</time>
      </trkpt>
      <trkpt lat="43.5972" lon="6.31362">
        <ele>720</ele>
        <time>2023-01-06T13:27:25Z</time>
      </trkpt>
      <trkpt lat="43.5972" lon="6.31362">
        <ele>720</ele>
        <time>2023-01-06T13:27:26Z</time>
      </trkpt>
      <trkpt lat="43.5972" lon="6.31362">
        <ele>720</ele>
        <time>2023-01-06T13:27:27Z</time>
      </trkpt>
      <trkpt lat="43.5972" lon="6.31362">
        <ele>720</ele>
        <time>2023-01-06T13:27:28Z</time>
      </trkpt>
      <trkpt lat="43.5972" lon="6.31362">
        <ele>720</ele>
        <time>2023-01-06T13:27:29Z</time>
      </trkpt>
      <trkpt lat="43.5972" lon="6.31362">
        <ele>720</ele>
        <time>2023-01-06T13:27:30Z</time>
      </trkpt>
      <trkpt lat="43.5972" lon="6.31362">
        <ele>720</ele>
        <time>2023-01-06T13:27:31Z</time>
      </trkpt>
      <trkpt lat="43.5972" lon="6.31362">
        <ele>720</ele>
        <time>2023-01-06T13:27:32Z</time>
      </trkpt>
      <trkpt lat="43.5972" lon="6.31362">
        <ele>720</ele>
        <time>2023-01-06T13:27:33Z</time>
      </trkpt>
      <trkpt lat="43.5972" lon="6.31362">
        <ele>720</ele>
        <time>2023-01-06T13:27:34Z</time>
      </trkpt>
      <trkpt lat="43.5972" lon="6.31362">
        <ele>720</ele>
        <time>2023-01-06T13:27:35Z</time>
      </trkpt>
      <trkpt lat="43.5972" lon="6.31362">
        <ele>720</ele>
        <time>2023-01-06T13:27:36Z</time>
      </trkpt>
      <trkpt lat="43.5972" lon="6.31362">
        <ele>720</ele>
        <time>2023-01-06T13:27:37Z</time>
      </trkpt>
      <trkpt lat="43.5972" lon="6.31362">
        <ele>720</ele>
        <time>2023-01-06T13:27:38Z</time>
      </trkpt>
      <trkpt lat="43.5972" lon="6.31362">
        <ele>720</ele>
        <time>2023-01-06T13:27:39Z</time>
      </trkpt>
      <trkpt lat="43.5972" lon="6.31362">
        <ele>720</ele>
        <time>2023-01-06T13:27:40Z</time>
      </trkpt>
      <trkpt lat="43.5972" lon="6.31362">
        <ele>720</ele>
        <time>2023-01-06T13:27:41Z</time>
      </trkpt>
      <trkpt lat="43.5972" lon="6.31362">
        <ele>720</ele>
        <time>2023-01-06T13:27:42Z</time>
      </trkpt>
      <trkpt lat="43.5972" lon="6.31362">
        <ele>720</ele>
        <time>2023-01-06T13:27:43Z</time>
      </trkpt>
      <trkpt lat="43.5972" lon="6.31362">
        <ele>720</ele>
        <time>2023-01-06T13:27:44Z</time>
      </trkpt>
      <trkpt lat="43.5972" lon="6.31362">
        <ele>720</ele>
        <time>2023-01-06T13:27:45Z</time>
      </trkpt>
      <trkpt lat="43.5972" lon="6.31362">
        <ele>720</ele>
        <time>2023-01-06T13:27:46Z</time>
      </trkpt>
      <trkpt lat="43.5972" lon="6.31362">
        <ele>720</ele>
        <time>2023-01-06T13:27:47Z</time>
      </trkpt>
      <trkpt lat="43.5972" lon="6.31362">
        <ele>720</ele>
        <time>2023-01-06T13:27:48Z</time>
      </trkpt>
      <trkpt lat="43.5972" lon="6.31362">
        <ele>720</ele>
        <time>2023-01-06T13:27:49Z</time>
      </trkpt>
      <trkpt lat="43.5972" lon="6.31362">
        <ele>720</ele>
        <time>2023-01-06T13:27:50Z</time>
      </trkpt>
      <trkpt lat="43.5972" lon="6.31362">
        <ele>720</ele>
        <time>2023-01-06T13:27:51Z</time>
      </trkpt>
      <trkpt lat="43.5972" lon="6.31362">
        <ele>720</ele>
        <time>2023-01-06T13:27:52Z</time>
      </trkpt>
      <trkpt lat="43.5972" lon="6.31362">
        <ele>720</ele>
        <time>2023-01-06T13:27:53Z</time>
      </trkpt>
      <trkpt lat="43.5972" lon="6.31362">
        <ele>720</ele>
        <time>2023-01-06T13:27:54Z</time>
      </trkpt>
      <trkpt lat="43.5972" lon="6.31362">
        <ele>720</ele>
        <time>2023-01-06T13:27:55Z</time>
      </trkpt>
      <trkpt lat="43.5972" lon="6.31362">
        <ele>720</ele>
        <time>2023-01-06T13:27:56Z</time>
      </trkpt>
      <trkpt lat="43.5972" lon="6.31362">
        <ele>720</ele>
        <time>2023-01-06T13:27:57Z</time>
      </trkpt>
      <trkpt lat="43.5972" lon="6.31362">
        <ele>720</ele>
        <time>2023-01-06T13:27:58Z</time>
      </trkpt>
      <trkpt lat="43.5972" lon="6.31362">
        <ele>720</ele>
        <time>2023-01-06T13:27:59Z</time>
      </trkpt>
      <trkpt lat="43.5972" lon="6.31362">
        <ele>720</ele>
        <time>2023-01-06T13:28:00Z</time>
      </trkpt>
      <trkpt lat="43.5972" lon="6.31362">
        <ele>720</ele>
        <time>2023-01-06T13:28:01Z</time>
      </trkpt>
      <trkpt lat="43.5972" lon="6.31362">
        <ele>720</ele>
        <time>2023-01-06T13:28:02Z</time>
      </trkpt>
      <trkpt lat="43.5972" lon="6.31362">
        <ele>720</ele>
        <time>2023-01-06T13:28:03Z</time>
      </trkpt>
      <trkpt lat="43.5972" lon="6.31363">
        <ele>720</ele>
        <time>2023-01-06T13:28:04Z</time>
      </trkpt>
      <trkpt lat="43.5972" lon="6.31364">
        <ele>720</ele>
        <time>2023-01-06T13:28:05Z</time>
      </trkpt>
      <trkpt lat="43.59719" lon="6.31366">
        <ele>720</ele>
        <time>2023-01-06T13:28:06Z</time>
      </trkpt>
      <trkpt lat="43.59719" lon="6.31368">
        <ele>720</ele>
        <time>2023-01-06T13:28:07Z</time>
      </trkpt>
      <trkpt lat="43.59719" lon="6.3137">
        <ele>720</ele>
        <time>2023-01-06T13:28:08Z</time>
      </trkpt>
      <trkpt lat="43.59719" lon="6.31373">
        <ele>720</ele>
        <time>2023-01-06T13:28:09Z</time>
      </trkpt>
      <trkpt lat="43.59719" lon="6.31375">
        <ele>720</ele>
        <time>2023-01-06T13:28:10Z</time>
      </trkpt>
      <trkpt lat="43.59719" lon="6.31376">
        <ele>720</ele>
        <time>2023-01-06T13:28:11Z</time>
      </trkpt>
      <trkpt lat="43.59719" lon="6.31378">
        <ele>720</ele>
        <time>2023-01-06T13:28:12Z</time>
      </trkpt>
      <trkpt lat="43.59719" lon="6.31379">
        <ele>720</ele>
        <time>2023-01-06T13:28:13Z</time>
      </trkpt>
      <trkpt lat="43.59718" lon="6.31381">
        <ele>720</ele>
        <time>2023-01-06T13:28:14Z</time>
      </trkpt>
      <trkpt lat="43.59718" lon="6.31382">
        <ele>720</ele>
        <time>2023-01-06T13:28:15Z</time>
      </trkpt>
      <trkpt lat="43.59718" lon="6.31383">
        <ele>720</ele>
        <time>2023-01-06T13:28:16Z</time>
      </trkpt>
      <trkpt lat="43.59718" lon="6.31384">
        <ele>720</ele>
        <time>2023-01-06T13:28:17Z</time>
      </trkpt>
      <trkpt lat="43.59718" lon="6.31385">
        <ele>720</ele>
        <time>2023-01-06T13:28:18Z</time>
      </trkpt>
      <trkpt lat="43.59718" lon="6.31386">
        <ele>720</ele>
        <time>2023-01-06T13:28:19Z</time>
      </trkpt>
      <trkpt lat="43.59718" lon="6.31387">
        <ele>720</ele>
        <time>2023-01-06T13:28:20Z</time>
      </trkpt>
      <trkpt lat="43.59718" lon="6.31388">
        <ele>720</ele>
        <time>2023-01-06T13:28:21Z</time>
      </trkpt>
      <trkpt lat="43.59718" lon="6.3139">
        <ele>720</ele>
        <time>2023-01-06T13:28:22Z</time>
      </trkpt>
      <trkpt lat="43.59718" lon="6.31391">
        <ele>720</ele>
        <time>2023-01-06T13:28:23Z</time>
      </trkpt>
      <trkpt lat="43.59717" lon="6.31392">
        <ele>720</ele>
        <time>2023-01-06T13:28:24Z</time>
      </trkpt>
      <trkpt lat="43.59717" lon="6.31392">
        <ele>720</ele>
        <time>2023-01-06T13:28:25Z</time>
      </trkpt>
      <trkpt lat="43.59717" lon="6.31393">
        <ele>720</ele>
        <time>2023-01-06T13:28:26Z</time>
      </trkpt>
      <trkpt lat="43.59717" lon="6.31394">
        <ele>720</ele>
        <time>2023-01-06T13:28:27Z</time>
      </trkpt>
      <trkpt lat="43.59717" lon="6.31395">
        <ele>720</ele>
        <time>2023-01-06T13:28:28Z</time>
      </trkpt>
      <trkpt lat="43.59717" lon="6.31397">
        <ele>720</ele>
        <time>2023-01-06T13:28:29Z</time>
      </trkpt>
      <trkpt lat="43.59717" lon="6.31398">
        <ele>720</ele>
        <time>2023-01-06T13:28:30Z</time>
      </trkpt>
      <trkpt lat="43.59717" lon="6.314">
        <ele>720</ele>
        <time>2023-01-06T13:28:31Z</time>
      </trkpt>
      <trkpt lat="43.59717" lon="6.31401">
        <ele>721</ele>
        <time>2023-01-06T13:28:32Z</time>
      </trkpt>
      <trkpt lat="43.59717" lon="6.31403">
        <ele>721</ele>
        <time>2023-01-06T13:28:33Z</time>
      </trkpt>
      <trkpt lat="43.59717" lon="6.31404">
        <ele>721</ele>
        <time>2023-01-06T13:28:34Z</time>
      </trkpt>
      <trkpt lat="43.59717" lon="6.31406">
        <ele>721</ele>
        <time>2023-01-06T13:28:35Z</time>
      </trkpt>
      <trkpt lat="43.59717" lon="6.31407">
        <ele>721</ele>
        <time>2023-01-06T13:28:36Z</time>
      </trkpt>
      <trkpt lat="43.59717" lon="6.31407">
        <ele>721</ele>
        <time>2023-01-06T13:28:37Z</time>
      </trkpt>
      <trkpt lat="43.59717" lon="6.31408">
        <ele>721</ele>
        <time>2023-01-06T13:28:38Z</time>
      </trkpt>
      <trkpt lat="43.59717" lon="6.31408">
        <ele>721</ele>
        <time>2023-01-06T13:28:39Z</time>
      </trkpt>
      <trkpt lat="43.59717" lon="6.31409">
        <ele>721</ele>
        <time>2023-01-06T13:28:40Z</time>
      </trkpt>
      <trkpt lat="43.59717" lon="6.3141">
        <ele>721</ele>
        <time>2023-01-06T13:28:41Z</time>
      </trkpt>
      <trkpt lat="43.59718" lon="6.31411">
        <ele>721</ele>
        <time>2023-01-06T13:28:42Z</time>
      </trkpt>
      <trkpt lat="43.59718" lon="6.31412">
        <ele>721</ele>
        <time>2023-01-06T13:28:43Z</time>
      </trkpt>
      <trkpt lat="43.59718" lon="6.31412">
        <ele>721</ele>
        <time>2023-01-06T13:28:44Z</time>
      </trkpt>
      <trkpt lat="43.59718" lon="6.31413">
        <ele>721</ele>
        <time>2023-01-06T13:28:45Z</time>
      </trkpt>
      <trkpt lat="43.59718" lon="6.31414">
        <ele>721</ele>
        <time>2023-01-06T13:28:46Z</time>
      </trkpt>
      <trkpt lat="43.59718" lon="6.31415">
        <ele>721</ele>
        <time>2023-01-06T13:28:47Z</time>
      </trkpt>
      <trkpt lat="43.59718" lon="6.31416">
        <ele>721</ele>
        <time>2023-01-06T13:28:48Z</time>
      </trkpt>
      <trkpt lat="43.59719" lon="6.31417">
        <ele>722</ele>
        <time>2023-01-06T13:28:49Z</time>
      </trkpt>
      <trkpt lat="43.59719" lon="6.31419">
        <ele>722</ele>
        <time>2023-01-06T13:28:50Z</time>
      </trkpt>
      <trkpt lat="43.59719" lon="6.3142">
        <ele>722</ele>
        <time>2023-01-06T13:28:51Z</time>
      </trkpt>
      <trkpt lat="43.59719" lon="6.31422">
        <ele>722</ele>
        <time>2023-01-06T13:28:52Z</time>
      </trkpt>
      <trkpt lat="43.59719" lon="6.31423">
        <ele>722</ele>
        <time>2023-01-06T13:28:53Z</time>
      </trkpt>
      <trkpt lat="43.5972" lon="6.31424">
        <ele>722</ele>
        <time>2023-01-06T13:28:54Z</time>
      </trkpt>
      <trkpt lat="43.5972" lon="6.31425">
        <ele>722</ele>
        <time>2023-01-06T13:28:55Z</time>
      </trkpt>
      <trkpt lat="43.5972" lon="6.31426">
        <ele>722</ele>
        <time>2023-01-06T13:28:56Z</time>
      </trkpt>
      <trkpt lat="43.5972" lon="6.31427">
        <ele>722</ele>
        <time>2023-01-06T13:28:57Z</time>
      </trkpt>
      <trkpt lat="43.5972" lon="6.31427">
        <ele>722</ele>
        <time>2023-01-06T13:28:58Z</time>
      </trkpt>
      <trkpt lat="43.5972" lon="6.31428">
        <ele>722</ele>
        <time>2023-01-06T13:28:59Z</time>
      </trkpt>
      <trkpt lat="43.5972" lon="6.31428">
        <ele>722</ele>
        <time>2023-01-06T13:29:00Z</time>
      </trkpt>
      <trkpt lat="43.5972" lon="6.31429">
        <ele>722</ele>
        <time>2023-01-06T13:29:01Z</time>
      </trkpt>
      <trkpt lat="43.5972" lon="6.3143">
        <ele>722</ele>
        <time>2023-01-06T13:29:02Z</time>
      </trkpt>
      <trkpt lat="43.5972" lon="6.31431">
        <ele>723</ele>
        <time>2023-01-06T13:29:03Z</time>
      </trkpt>
      <trkpt lat="43.5972" lon="6.31432">
        <ele>723</ele>
        <time>2023-01-06T13:29:04Z</time>
      </trkpt>
      <trkpt lat="43.59721" lon="6.31434">
        <ele>723</ele>
        <time>2023-01-06T13:29:05Z</time>
      </trkpt>
      <trkpt lat="43.59721" lon="6.31435">
        <ele>723</ele>
        <time>2023-01-06T13:29:06Z</time>
      </trkpt>
      <trkpt lat="43.59721" lon="6.31437">
        <ele>723</ele>
        <time>2023-01-06T13:29:07Z</time>
      </trkpt>
      <trkpt lat="43.59721" lon="6.31439">
        <ele>723</ele>
        <time>2023-01-06T13:29:08Z</time>
      </trkpt>
      <trkpt lat="43.59721" lon="6.31441">
        <ele>724</ele>
        <time>2023-01-06T13:29:09Z</time>
      </trkpt>
      <trkpt lat="43.59721" lon="6.31442">
        <ele>725</ele>
        <time>2023-01-06T13:29:10Z</time>
      </trkpt>
      <trkpt lat="43.59721" lon="6.31444">
        <ele>725</ele>
        <time>2023-01-06T13:29:11Z</time>
      </trkpt>
      <trkpt lat="43.59721" lon="6.31446">
        <ele>725</ele>
        <time>2023-01-06T13:29:12Z</time>
      </trkpt>
      <trkpt lat="43.59722" lon="6.31447">
        <ele>725</ele>
        <time>2023-01-06T13:29:13Z</time>
      </trkpt>
      <trkpt lat="43.59722" lon="6.31448">
        <ele>725</ele>
        <time>2023-01-06T13:29:14Z</time>
      </trkpt>
      <trkpt lat="43.59722" lon="6.3145">
        <ele>726</ele>
        <time>2023-01-06T13:29:15Z</time>
      </trkpt>
      <trkpt lat="43.59722" lon="6.31451">
        <ele>726</ele>
        <time>2023-01-06T13:29:16Z</time>
      </trkpt>
      <trkpt lat="43.59722" lon="6.31452">
        <ele>726</ele>
        <time>2023-01-06T13:29:17Z</time>
      </trkpt>
      <trkpt lat="43.59722" lon="6.31453">
        <ele>726</ele>
        <time>2023-01-06T13:29:18Z</time>
      </trkpt>
      <trkpt lat="43.59722" lon="6.31454">
        <ele>726</ele>
        <time>2023-01-06T13:29:19Z</time>
      </trkpt>
      <trkpt lat="43.59722" lon="6.31454">
        <ele>726</ele>
        <time>2023-01-06T13:29:20Z</time>
      </trkpt>
      <trkpt lat="43.59722" lon="6.31455">
        <ele>726</ele>
        <time>2023-01-06T13:29:21Z</time>
      </trkpt>
      <trkpt lat="43.59722" lon="6.31456">
        <ele>726</ele>
        <time>2023-01-06T13:29:22Z</time>
      </trkpt>
      <trkpt lat="43.59722" lon="6.31457">
        <ele>727</ele>
        <time>2023-01-06T13:29:23Z</time>
      </trkpt>
      <trkpt lat="43.59722" lon="6.31458">
        <ele>727</ele>
        <time>2023-01-06T13:29:24Z</time>
      </trkpt>
      <trkpt lat="43.59723" lon="6.31459">
        <ele>727</ele>
        <time>2023-01-06T13:29:25Z</time>
      </trkpt>
      <trkpt lat="43.59723" lon="6.31459">
        <ele>727</ele>
        <time>2023-01-06T13:29:26Z</time>
      </trkpt>
      <trkpt lat="43.59723" lon="6.3146">
        <ele>727</ele>
        <time>2023-01-06T13:29:27Z</time>
      </trkpt>
      <trkpt lat="43.59723" lon="6.31461">
        <ele>727</ele>
        <time>2023-01-06T13:29:28Z</time>
      </trkpt>
      <trkpt lat="43.59723" lon="6.31462">
        <ele>727</ele>
        <time>2023-01-06T13:29:29Z</time>
      </trkpt>
      <trkpt lat="43.59724" lon="6.31463">
        <ele>727</ele>
        <time>2023-01-06T13:29:30Z</time>
      </trkpt>
      <trkpt lat="43.59724" lon="6.31464">
        <ele>727</ele>
        <time>2023-01-06T13:29:31Z</time>
      </trkpt>
      <trkpt lat="43.59724" lon="6.31465">
        <ele>728</ele>
        <time>2023-01-06T13:29:32Z</time>
      </trkpt>
      <trkpt lat="43.59724" lon="6.31466">
        <ele>728</ele>
        <time>2023-01-06T13:29:33Z</time>
      </trkpt>
      <trkpt lat="43.59724" lon="6.31467">
        <ele>728</ele>
        <time>2023-01-06T13:29:34Z</time>
      </trkpt>
      <trkpt lat="43.59724" lon="6.31467">
        <ele>728</ele>
        <time>2023-01-06T13:29:35Z</time>
      </trkpt>
      <trkpt lat="43.59724" lon="6.31468">
        <ele>728</ele>
        <time>2023-01-06T13:29:36Z</time>
      </trkpt>
      <trkpt lat="43.59724" lon="6.31469">
        <ele>728</ele>
        <time>2023-01-06T13:29:37Z</time>
      </trkpt>
      <trkpt lat="43.59725" lon="6.31469">
        <ele>728</ele>
        <time>2023-01-06T13:29:38Z</time>
      </trkpt>
      <trkpt lat="43.59725" lon="6.3147">
        <ele>728</ele>
        <time>2023-01-06T13:29:39Z</time>
      </trkpt>
      <trkpt lat="43.59725" lon="6.31471">
        <ele>728</ele>
        <time>2023-01-06T13:29:40Z</time>
      </trkpt>
      <trkpt lat="43.59725" lon="6.31472">
        <ele>728</ele>
        <time>2023-01-06T13:29:41Z</time>
      </trkpt>
      <trkpt lat="43.59725" lon="6.31472">
        <ele>729</ele>
        <time>2023-01-06T13:29:42Z</time>
      </trkpt>
      <trkpt lat="43.59726" lon="6.31473">
        <ele>729</ele>
        <time>2023-01-06T13:29:43Z</time>
      </trkpt>
      <trkpt lat="43.59726" lon="6.31474">
        <ele>729</ele>
        <time>2023-01-06T13:29:44Z</time>
      </trkpt>
      <trkpt lat="43.59726" lon="6.31475">
        <ele>729</ele>
        <time>2023-01-06T13:29:45Z</time>
      </trkpt>
      <trkpt lat="43.59727" lon="6.31476">
        <ele>730</ele>
        <time>2023-01-06T13:29:46Z</time>
      </trkpt>
      <trkpt lat="43.59727" lon="6.31478">
        <ele>730</ele>
        <time>2023-01-06T13:29:47Z</time>
      </trkpt>
      <trkpt lat="43.59727" lon="6.31479">
        <ele>730</ele>
        <time>2023-01-06T13:29:48Z</time>
      </trkpt>
      <trkpt lat="43.59727" lon="6.3148">
        <ele>731</ele>
        <time>2023-01-06T13:29:49Z</time>
      </trkpt>
      <trkpt lat="43.59728" lon="6.31481">
        <ele>731</ele>
        <time>2023-01-06T13:29:50Z</time>
      </trkpt>
      <trkpt lat="43.59728" lon="6.31483">
        <ele>731</ele>
        <time>2023-01-06T13:29:51Z</time>
      </trkpt>
      <trkpt lat="43.59728" lon="6.31484">
        <ele>731</ele>
        <time>2023-01-06T13:29:52Z</time>
      </trkpt>
      <trkpt lat="43.59728" lon="6.31485">
        <ele>731</ele>
        <time>2023-01-06T13:29:53Z</time>
      </trkpt>
      <trkpt lat="43.59729" lon="6.31487">
        <ele>731</ele>
        <time>2023-01-06T13:29:54Z</time>
      </trkpt>
      <trkpt lat="43.59729" lon="6.31488">
        <ele>732</ele>
        <time>2023-01-06T13:29:55Z</time>
      </trkpt>
      <trkpt lat="43.59729" lon="6.31489">
        <ele>732</ele>
        <time>2023-01-06T13:29:56Z</time>
      </trkpt>
      <trkpt lat="43.5973" lon="6.3149">
        <ele>732</ele>
        <time>2023-01-06T13:29:57Z</time>
      </trkpt>
      <trkpt lat="43.5973" lon="6.31492">
        <ele>733</ele>
        <time>2023-01-06T13:29:58Z</time>
      </trkpt>
      <trkpt lat="43.59731" lon="6.31493">
        <ele>733</ele>
        <time>2023-01-06T13:29:59Z</time>
      </trkpt>
      <trkpt lat="43.59731" lon="6.31495">
        <ele>733</ele>
        <time>2023-01-06T13:30:00Z</time>
      </trkpt>
      <trkpt lat="43.59731" lon="6.31497">
        <ele>733</ele>
        <time>2023-01-06T13:30:01Z</time>
      </trkpt>
      <trkpt lat="43.59732" lon="6.31499">
        <ele>733</ele>
        <time>2023-01-06T13:30:02Z</time>
      </trkpt>
      <trkpt lat="43.59732" lon="6.315">
        <ele>733</ele>
        <time>2023-01-06T13:30:03Z</time>
      </trkpt>
      <trkpt lat="43.59732" lon="6.31501">
        <ele>733</ele>
        <time>2023-01-06T13:30:04Z</time>
      </trkpt>
      <trkpt lat="43.59732" lon="6.31501">
        <ele>734</ele>
        <time>2023-01-06T13:30:05Z</time>
      </trkpt>
      <trkpt lat="43.59732" lon="6.31502">
        <ele>734</ele>
        <time>2023-01-06T13:30:06Z</time>
      </trkpt>
      <trkpt lat="43.59732" lon="6.31504">
        <ele>734</ele>
        <time>2023-01-06T13:30:07Z</time>
      </trkpt>
      <trkpt lat="43.59733" lon="6.31506">
        <ele>734</ele>
        <time>2023-01-06T13:30:08Z</time>
      </trkpt>
      <trkpt lat="43.59734" lon="6.31508">
        <ele>734</ele>
        <time>2023-01-06T13:30:09Z</time>
      </trkpt>
      <trkpt lat="43.59734" lon="6.31509">
        <ele>734</ele>
        <time>2023-01-06T13:30:10Z</time>
      </trkpt>
      <trkpt lat="43.59735" lon="6.31509">
        <ele>734</ele>
        <time>2023-01-06T13:30:11Z</time>
      </trkpt>
      <trkpt lat="43.59735" lon="6.3151">
        <ele>734</ele>
        <time>2023-01-06T13:30:12Z</time>
      </trkpt>
      <trkpt lat="43.59735" lon="6.3151">
        <ele>734</ele>
        <time>2023-01-06T13:30:13Z</time>
      </trkpt>
      <trkpt lat="43.59735" lon="6.3151">
        <ele>734</ele>
        <time>2023-01-06T13:30:14Z</time>
      </trkpt>
      <trkpt lat="43.59735" lon="6.3151">
        <ele>734</ele>
        <time>2023-01-06T13:30:15Z</time>
      </trkpt>
      <trkpt lat="43.59735" lon="6.31511">
        <ele>734</ele>
        <time>2023-01-06T13:30:16Z</time>
      </trkpt>
      <trkpt lat="43.59735" lon="6.31511">
        <ele>734</ele>
        <time>2023-01-06T13:30:17Z</time>
      </trkpt>
      <trkpt lat="43.59735" lon="6.31511">
        <ele>734</ele>
        <time>2023-01-06T13:30:18Z</time>
      </trkpt>
      <trkpt lat="43.59736" lon="6.31512">
        <ele>734</ele>
        <time>2023-01-06T13:30:19Z</time>
      </trkpt>
      <trkpt lat="43.59736" lon="6.31513">
        <ele>734</ele>
        <time>2023-01-06T13:30:20Z</time>
      </trkpt>
      <trkpt lat="43.59736" lon="6.31514">
        <ele>734</ele>
        <time>2023-01-06T13:30:21Z</time>
      </trkpt>
      <trkpt lat="43.59737" lon="6.31514">
        <ele>734</ele>
        <time>2023-01-06T13:30:22Z</time>
      </trkpt>
      <trkpt lat="43.59737" lon="6.31515">
        <ele>734</ele>
        <time>2023-01-06T13:30:23Z</time>
      </trkpt>
      <trkpt lat="43.59737" lon="6.31517">
        <ele>734</ele>
        <time>2023-01-06T13:30:24Z</time>
      </trkpt>
      <trkpt lat="43.59738" lon="6.31518">
        <ele>734</ele>
        <time>2023-01-06T13:30:25Z</time>
      </trkpt>
      <trkpt lat="43.59738" lon="6.31519">
        <ele>735</ele>
        <time>2023-01-06T13:30:26Z</time>
      </trkpt>
      <trkpt lat="43.59739" lon="6.3152">
        <ele>735</ele>
        <time>2023-01-06T13:30:27Z</time>
      </trkpt>
      <trkpt lat="43.59739" lon="6.31522">
        <ele>735</ele>
        <time>2023-01-06T13:30:28Z</time>
      </trkpt>
      <trkpt lat="43.5974" lon="6.31523">
        <ele>735</ele>
        <time>2023-01-06T13:30:29Z</time>
      </trkpt>
      <trkpt lat="43.5974" lon="6.31524">
        <ele>735</ele>
        <time>2023-01-06T13:30:30Z</time>
      </trkpt>
      <trkpt lat="43.59741" lon="6.31526">
        <ele>735</ele>
        <time>2023-01-06T13:30:31Z</time>
      </trkpt>
      <trkpt lat="43.59742" lon="6.31527">
        <ele>735</ele>
        <time>2023-01-06T13:30:32Z</time>
      </trkpt>
      <trkpt lat="43.59742" lon="6.31529">
        <ele>735</ele>
        <time>2023-01-06T13:30:33Z</time>
      </trkpt>
      <trkpt lat="43.59742" lon="6.3153">
        <ele>735</ele>
        <time>2023-01-06T13:30:34Z</time>
      </trkpt>
      <trkpt lat="43.59743" lon="6.31531">
        <ele>735</ele>
        <time>2023-01-06T13:30:35Z</time>
      </trkpt>
      <trkpt lat="43.59743" lon="6.31532">
        <ele>735</ele>
        <time>2023-01-06T13:30:36Z</time>
      </trkpt>
      <trkpt lat="43.59744" lon="6.31533">
        <ele>735</ele>
        <time>2023-01-06T13:30:37Z</time>
      </trkpt>
      <trkpt lat="43.59744" lon="6.31535">
        <ele>735</ele>
        <time>2023-01-06T13:30:38Z</time>
      </trkpt>
      <trkpt lat="43.59744" lon="6.31536">
        <ele>735</ele>
        <time>2023-01-06T13:30:39Z</time>
      </trkpt>
      <trkpt lat="43.59744" lon="6.31538">
        <ele>735</ele>
        <time>2023-01-06T13:30:40Z</time>
      </trkpt>
      <trkpt lat="43.59745" lon="6.31539">
        <ele>735</ele>
        <time>2023-01-06T13:30:41Z</time>
      </trkpt>
      <trkpt lat="43.59745" lon="6.31541">
        <ele>735</ele>
        <time>2023-01-06T13:30:42Z</time>
      </trkpt>
      <trkpt lat="43.59746" lon="6.31542">
        <ele>735</ele>
        <time>2023-01-06T13:30:43Z</time>
      </trkpt>
      <trkpt lat="43.59746" lon="6.31543">
        <ele>735</ele>
        <time>2023-01-06T13:30:44Z</time>
      </trkpt>
      <trkpt lat="43.59747" lon="6.31544">
        <ele>735</ele>
        <time>2023-01-06T13:30:45Z</time>
      </trkpt>
      <trkpt lat="43.59747" lon="6.31545">
        <ele>735</ele>
        <time>2023-01-06T13:30:46Z</time>
      </trkpt>
      <trkpt lat="43.59748" lon="6.31547">
        <ele>735</ele>
        <time>2023-01-06T13:30:47Z</time>
      </trkpt>
      <trkpt lat="43.59748" lon="6.31548">
        <ele>735</ele>
        <time>2023-01-06T13:30:48Z</time>
      </trkpt>
      <trkpt lat="43.59749" lon="6.31549">
        <ele>735</ele>
        <time>2023-01-06T13:30:49Z</time>
      </trkpt>
      <trkpt lat="43.59749" lon="6.3155">
        <ele>735</ele>
        <time>2023-01-06T13:30:50Z</time>
      </trkpt>
      <trkpt lat="43.5975" lon="6.31551">
        <ele>735</ele>
        <time>2023-01-06T13:30:51Z</time>
      </trkpt>
      <trkpt lat="43.5975" lon="6.31552">
        <ele>735</ele>
        <time>2023-01-06T13:30:52Z</time>
      </trkpt>
      <trkpt lat="43.59751" lon="6.31553">
        <ele>735</ele>
        <time>2023-01-06T13:30:53Z</time>
      </trkpt>
      <trkpt lat="43.59751" lon="6.31554">
        <ele>735</ele>
        <time>2023-01-06T13:30:54Z</time>
      </trkpt>
      <trkpt lat="43.59752" lon="6.31555">
        <ele>735</ele>
        <time>2023-01-06T13:30:55Z</time>
      </trkpt>
      <trkpt lat="43.59752" lon="6.31556">
        <ele>735</ele>
        <time>2023-01-06T13:30:56Z</time>
      </trkpt>
      <trkpt lat="43.59752" lon="6.31557">
        <ele>735</ele>
        <time>2023-01-06T13:30:57Z</time>
      </trkpt>
      <trkpt lat="43.59753" lon="6.31559">
        <ele>736</ele>
        <time>2023-01-06T13:30:58Z</time>
      </trkpt>
      <trkpt lat="43.59753" lon="6.3156">
        <ele>736</ele>
        <time>2023-01-06T13:30:59Z</time>
      </trkpt>
      <trkpt lat="43.59754" lon="6.31561">
        <ele>736</ele>
        <time>2023-01-06T13:31:00Z</time>
      </trkpt>
      <trkpt lat="43.59754" lon="6.31562">
        <ele>736</ele>
        <time>2023-01-06T13:31:01Z</time>
      </trkpt>
      <trkpt lat="43.59754" lon="6.31563">
        <ele>736</ele>
        <time>2023-01-06T13:31:02Z</time>
      </trkpt>
      <trkpt lat="43.59755" lon="6.31564">
        <ele>736</ele>
        <time>2023-01-06T13:31:03Z</time>
      </trkpt>
      <trkpt lat="43.59755" lon="6.31565">
        <ele>737</ele>
        <time>2023-01-06T13:31:04Z</time>
      </trkpt>
      <trkpt lat="43.59756" lon="6.31566">
        <ele>738</ele>
        <time>2023-01-06T13:31:05Z</time>
      </trkpt>
      <trkpt lat="43.59756" lon="6.31567">
        <ele>738</ele>
        <time>2023-01-06T13:31:06Z</time>
      </trkpt>
      <trkpt lat="43.59757" lon="6.31569">
        <ele>738</ele>
        <time>2023-01-06T13:31:07Z</time>
      </trkpt>
      <trkpt lat="43.59757" lon="6.3157">
        <ele>738</ele>
        <time>2023-01-06T13:31:08Z</time>
      </trkpt>
      <trkpt lat="43.59757" lon="6.3157">
        <ele>739</ele>
        <time>2023-01-06T13:31:09Z</time>
      </trkpt>
      <trkpt lat="43.59757" lon="6.31571">
        <ele>739</ele>
        <time>2023-01-06T13:31:10Z</time>
      </trkpt>
      <trkpt lat="43.59757" lon="6.31572">
        <ele>739</ele>
        <time>2023-01-06T13:31:11Z</time>
      </trkpt>
      <trkpt lat="43.59758" lon="6.31572">
        <ele>739</ele>
        <time>2023-01-06T13:31:12Z</time>
      </trkpt>
      <trkpt lat="43.59758" lon="6.31574">
        <ele>739</ele>
        <time>2023-01-06T13:31:13Z</time>
      </trkpt>
      <trkpt lat="43.59758" lon="6.31575">
        <ele>739</ele>
        <time>2023-01-06T13:31:14Z</time>
      </trkpt>
      <trkpt lat="43.59758" lon="6.31576">
        <ele>740</ele>
        <time>2023-01-06T13:31:15Z</time>
      </trkpt>
      <trkpt lat="43.59759" lon="6.31577">
        <ele>740</ele>
        <time>2023-01-06T13:31:16Z</time>
      </trkpt>
      <trkpt lat="43.59759" lon="6.31578">
        <ele>740</ele>
        <time>2023-01-06T13:31:17Z</time>
      </trkpt>
      <trkpt lat="43.59759" lon="6.31579">
        <ele>740</ele>
        <time>2023-01-06T13:31:18Z</time>
      </trkpt>
      <trkpt lat="43.59759" lon="6.31579">
        <ele>740</ele>
        <time>2023-01-06T13:31:19Z</time>
      </trkpt>
      <trkpt lat="43.59759" lon="6.3158">
        <ele>741</ele>
        <time>2023-01-06T13:31:20Z</time>
      </trkpt>
      <trkpt lat="43.59759" lon="6.31581">
        <ele>741</ele>
        <time>2023-01-06T13:31:21Z</time>
      </trkpt>
      <trkpt lat="43.59759" lon="6.31583">
        <ele>741</ele>
        <time>2023-01-06T13:31:22Z</time>
      </trkpt>
      <trkpt lat="43.59759" lon="6.31585">
        <ele>741</ele>
        <time>2023-01-06T13:31:23Z</time>
      </trkpt>
      <trkpt lat="43.59759" lon="6.31586">
        <ele>741</ele>
        <time>2023-01-06T13:31:24Z</time>
      </trkpt>
      <trkpt lat="43.59759" lon="6.31588">
        <ele>742</ele>
        <time>2023-01-06T13:31:25Z</time>
      </trkpt>
      <trkpt lat="43.5976" lon="6.31589">
        <ele>742</ele>
        <time>2023-01-06T13:31:26Z</time>
      </trkpt>
      <trkpt lat="43.5976" lon="6.31591">
        <ele>743</ele>
        <time>2023-01-06T13:31:27Z</time>
      </trkpt>
      <trkpt lat="43.5976" lon="6.31592">
        <ele>743</ele>
        <time>2023-01-06T13:31:28Z</time>
      </trkpt>
      <trkpt lat="43.59761" lon="6.31593">
        <ele>743</ele>
        <time>2023-01-06T13:31:29Z</time>
      </trkpt>
      <trkpt lat="43.59761" lon="6.31594">
        <ele>743</ele>
        <time>2023-01-06T13:31:30Z</time>
      </trkpt>
      <trkpt lat="43.59762" lon="6.31596">
        <ele>743</ele>
        <time>2023-01-06T13:31:31Z</time>
      </trkpt>
      <trkpt lat="43.59762" lon="6.31597">
        <ele>743</ele>
        <time>2023-01-06T13:31:32Z</time>
      </trkpt>
      <trkpt lat="43.59763" lon="6.31598">
        <ele>743</ele>
        <time>2023-01-06T13:31:33Z</time>
      </trkpt>
      <trkpt lat="43.59763" lon="6.31599">
        <ele>743</ele>
        <time>2023-01-06T13:31:34Z</time>
      </trkpt>
      <trkpt lat="43.59764" lon="6.316">
        <ele>743</ele>
        <time>2023-01-06T13:31:35Z</time>
      </trkpt>
      <trkpt lat="43.59765" lon="6.31601">
        <ele>742</ele>
        <time>2023-01-06T13:31:36Z</time>
      </trkpt>
      <trkpt lat="43.59765" lon="6.31602">
        <ele>742</ele>
        <time>2023-01-06T13:31:37Z</time>
      </trkpt>
      <trkpt lat="43.59766" lon="6.31604">
        <ele>742</ele>
        <time>2023-01-06T13:31:38Z</time>
      </trkpt>
      <trkpt lat="43.59766" lon="6.31605">
        <ele>742</ele>
        <time>2023-01-06T13:31:39Z</time>
      </trkpt>
      <trkpt lat="43.59767" lon="6.31606">
        <ele>742</ele>
        <time>2023-01-06T13:31:40Z</time>
      </trkpt>
      <trkpt lat="43.59768" lon="6.31607">
        <ele>742</ele>
        <time>2023-01-06T13:31:41Z</time>
      </trkpt>
      <trkpt lat="43.59768" lon="6.31607">
        <ele>742</ele>
        <time>2023-01-06T13:31:42Z</time>
      </trkpt>
      <trkpt lat="43.59769" lon="6.31608">
        <ele>741</ele>
        <time>2023-01-06T13:31:43Z</time>
      </trkpt>
      <trkpt lat="43.5977" lon="6.31609">
        <ele>741</ele>
        <time>2023-01-06T13:31:44Z</time>
      </trkpt>
      <trkpt lat="43.5977" lon="6.3161">
        <ele>741</ele>
        <time>2023-01-06T13:31:45Z</time>
      </trkpt>
      <trkpt lat="43.59771" lon="6.31611">
        <ele>741</ele>
        <time>2023-01-06T13:31:46Z</time>
      </trkpt>
      <trkpt lat="43.59772" lon="6.31611">
        <ele>741</ele>
        <time>2023-01-06T13:31:47Z</time>
      </trkpt>
      <trkpt lat="43.59773" lon="6.31612">
        <ele>741</ele>
        <time>2023-01-06T13:31:48Z</time>
      </trkpt>
      <trkpt lat="43.59774" lon="6.31613">
        <ele>741</ele>
        <time>2023-01-06T13:31:49Z</time>
      </trkpt>
      <trkpt lat="43.59774" lon="6.31614">
        <ele>741</ele>
        <time>2023-01-06T13:31:50Z</time>
      </trkpt>
      <trkpt lat="43.59775" lon="6.31614">
        <ele>741</ele>
        <time>2023-01-06T13:31:51Z</time>
      </trkpt>
      <trkpt lat="43.59776" lon="6.31613">
        <ele>741</ele>
        <time>2023-01-06T13:31:52Z</time>
      </trkpt>
      <trkpt lat="43.59777" lon="6.31613">
        <ele>741</ele>
        <time>2023-01-06T13:31:53Z</time>
      </trkpt>
      <trkpt lat="43.59778" lon="6.31613">
        <ele>741</ele>
        <time>2023-01-06T13:31:54Z</time>
      </trkpt>
      <trkpt lat="43.59779" lon="6.31614">
        <ele>741</ele>
        <time>2023-01-06T13:31:55Z</time>
      </trkpt>
      <trkpt lat="43.5978" lon="6.31614">
        <ele>741</ele>
        <time>2023-01-06T13:31:56Z</time>
      </trkpt>
      <trkpt lat="43.5978" lon="6.31615">
        <ele>741</ele>
        <time>2023-01-06T13:31:57Z</time>
      </trkpt>
      <trkpt lat="43.59781" lon="6.31616">
        <ele>741</ele>
        <time>2023-01-06T13:31:58Z</time>
      </trkpt>
      <trkpt lat="43.59781" lon="6.31617">
        <ele>741</ele>
        <time>2023-01-06T13:31:59Z</time>
      </trkpt>
      <trkpt lat="43.59781" lon="6.31618">
        <ele>741</ele>
        <time>2023-01-06T13:32:00Z</time>
      </trkpt>
      <trkpt lat="43.59782" lon="6.31619">
        <ele>741</ele>
        <time>2023-01-06T13:32:01Z</time>
      </trkpt>
      <trkpt lat="43.59782" lon="6.31621">
        <ele>741</ele>
        <time>2023-01-06T13:32:02Z</time>
      </trkpt>
      <trkpt lat="43.59783" lon="6.31622">
        <ele>742</ele>
        <time>2023-01-06T13:32:03Z</time>
      </trkpt>
      <trkpt lat="43.59783" lon="6.31623">
        <ele>742</ele>
        <time>2023-01-06T13:32:04Z</time>
      </trkpt>
      <trkpt lat="43.59784" lon="6.31624">
        <ele>742</ele>
        <time>2023-01-06T13:32:05Z</time>
      </trkpt>
      <trkpt lat="43.59785" lon="6.31626">
        <ele>742</ele>
        <time>2023-01-06T13:32:06Z</time>
      </trkpt>
      <trkpt lat="43.59786" lon="6.31627">
        <ele>742</ele>
        <time>2023-01-06T13:32:07Z</time>
      </trkpt>
      <trkpt lat="43.59786" lon="6.31628">
        <ele>742</ele>
        <time>2023-01-06T13:32:08Z</time>
      </trkpt>
      <trkpt lat="43.59787" lon="6.31629">
        <ele>742</ele>
        <time>2023-01-06T13:32:09Z</time>
      </trkpt>
      <trkpt lat="43.59788" lon="6.3163">
        <ele>742</ele>
        <time>2023-01-06T13:32:10Z</time>
      </trkpt>
      <trkpt lat="43.59788" lon="6.3163">
        <ele>742</ele>
        <time>2023-01-06T13:32:11Z</time>
      </trkpt>
      <trkpt lat="43.59789" lon="6.31631">
        <ele>742</ele>
        <time>2023-01-06T13:32:12Z</time>
      </trkpt>
      <trkpt lat="43.5979" lon="6.31632">
        <ele>742</ele>
        <time>2023-01-06T13:32:13Z</time>
      </trkpt>
      <trkpt lat="43.59791" lon="6.31633">
        <ele>742</ele>
        <time>2023-01-06T13:32:14Z</time>
      </trkpt>
      <trkpt lat="43.59792" lon="6.31634">
        <ele>742</ele>
        <time>2023-01-06T13:32:15Z</time>
      </trkpt>
      <trkpt lat="43.59793" lon="6.31635">
        <ele>742</ele>
        <time>2023-01-06T13:32:16Z</time>
      </trkpt>
      <trkpt lat="43.59793" lon="6.31635">
        <ele>742</ele>
        <time>2023-01-06T13:32:17Z</time>
      </trkpt>
      <trkpt lat="43.59794" lon="6.31637">
        <ele>742</ele>
        <time>2023-01-06T13:32:18Z</time>
      </trkpt>
      <trkpt lat="43.59795" lon="6.31638">
        <ele>742</ele>
        <time>2023-01-06T13:32:19Z</time>
      </trkpt>
      <trkpt lat="43.59796" lon="6.31639">
        <ele>742</ele>
        <time>2023-01-06T13:32:20Z</time>
      </trkpt>
      <trkpt lat="43.59797" lon="6.31639">
        <ele>743</ele>
        <time>2023-01-06T13:32:21Z</time>
      </trkpt>
      <trkpt lat="43.59797" lon="6.31641">
        <ele>743</ele>
        <time>2023-01-06T13:32:22Z</time>
      </trkpt>
      <trkpt lat="43.59798" lon="6.31642">
        <ele>743</ele>
        <time>2023-01-06T13:32:23Z</time>
      </trkpt>
      <trkpt lat="43.59799" lon="6.31642">
        <ele>743</ele>
        <time>2023-01-06T13:32:24Z</time>
      </trkpt>
      <trkpt lat="43.598" lon="6.31643">
        <ele>743</ele>
        <time>2023-01-06T13:32:25Z</time>
      </trkpt>
      <trkpt lat="43.598" lon="6.31644">
        <ele>743</ele>
        <time>2023-01-06T13:32:26Z</time>
      </trkpt>
      <trkpt lat="43.59801" lon="6.31645">
        <ele>743</ele>
        <time>2023-01-06T13:32:27Z</time>
      </trkpt>
      <trkpt lat="43.59802" lon="6.31646">
        <ele>743</ele>
        <time>2023-01-06T13:32:28Z</time>
      </trkpt>
      <trkpt lat="43.59803" lon="6.31647">
        <ele>743</ele>
        <time>2023-01-06T13:32:29Z</time>
      </trkpt>
      <trkpt lat="43.59804" lon="6.31648">
        <ele>742</ele>
        <time>2023-01-06T13:32:30Z</time>
      </trkpt>
      <trkpt lat="43.59804" lon="6.31648">
        <ele>742</ele>
        <time>2023-01-06T13:32:31Z</time>
      </trkpt>
      <trkpt lat="43.59805" lon="6.31649">
        <ele>742</ele>
        <time>2023-01-06T13:32:32Z</time>
      </trkpt>
      <trkpt lat="43.59806" lon="6.3165">
        <ele>742</ele>
        <time>2023-01-06T13:32:33Z</time>
      </trkpt>
      <trkpt lat="43.59807" lon="6.31651">
        <ele>742</ele>
        <time>2023-01-06T13:32:34Z</time>
      </trkpt>
      <trkpt lat="43.59808" lon="6.31651">
        <ele>742</ele>
        <time>2023-01-06T13:32:35Z</time>
      </trkpt>
      <trkpt lat="43.59808" lon="6.31652">
        <ele>742</ele>
        <time>2023-01-06T13:32:36Z</time>
      </trkpt>
      <trkpt lat="43.59809" lon="6.31653">
        <ele>742</ele>
        <time>2023-01-06T13:32:37Z</time>
      </trkpt>
      <trkpt lat="43.5981" lon="6.31654">
        <ele>742</ele>
        <time>2023-01-06T13:32:38Z</time>
      </trkpt>
      <trkpt lat="43.5981" lon="6.31655">
        <ele>742</ele>
        <time>2023-01-06T13:32:39Z</time>
      </trkpt>
      <trkpt lat="43.59811" lon="6.31656">
        <ele>742</ele>
        <time>2023-01-06T13:32:40Z</time>
      </trkpt>
      <trkpt lat="43.59812" lon="6.31657">
        <ele>742</ele>
        <time>2023-01-06T13:32:41Z</time>
      </trkpt>
      <trkpt lat="43.59812" lon="6.31658">
        <ele>742</ele>
        <time>2023-01-06T13:32:42Z</time>
      </trkpt>
      <trkpt lat="43.59813" lon="6.31659">
        <ele>742</ele>
        <time>2023-01-06T13:32:43Z</time>
      </trkpt>
      <trkpt lat="43.59814" lon="6.3166">
        <ele>742</ele>
        <time>2023-01-06T13:32:44Z</time>
      </trkpt>
      <trkpt lat="43.59814" lon="6.31661">
        <ele>742</ele>
        <time>2023-01-06T13:32:45Z</time>
      </trkpt>
      <trkpt lat="43.59815" lon="6.31662">
        <ele>742</ele>
        <time>2023-01-06T13:32:46Z</time>
      </trkpt>
      <trkpt lat="43.59815" lon="6.31663">
        <ele>742</ele>
        <time>2023-01-06T13:32:47Z</time>
      </trkpt>
      <trkpt lat="43.59816" lon="6.31664">
        <ele>742</ele>
        <time>2023-01-06T13:32:48Z</time>
      </trkpt>
      <trkpt lat="43.59816" lon="6.31665">
        <ele>741</ele>
        <time>2023-01-06T13:32:49Z</time>
      </trkpt>
      <trkpt lat="43.59817" lon="6.31666">
        <ele>742</ele>
        <time>2023-01-06T13:32:50Z</time>
      </trkpt>
      <trkpt lat="43.59817" lon="6.31667">
        <ele>742</ele>
        <time>2023-01-06T13:32:51Z</time>
      </trkpt>
      <trkpt lat="43.59818" lon="6.31668">
        <ele>742</ele>
        <time>2023-01-06T13:32:52Z</time>
      </trkpt>
      <trkpt lat="43.59818" lon="6.3167">
        <ele>742</ele>
        <time>2023-01-06T13:32:53Z</time>
      </trkpt>
      <trkpt lat="43.59819" lon="6.31671">
        <ele>742</ele>
        <time>2023-01-06T13:32:54Z</time>
      </trkpt>
      <trkpt lat="43.59819" lon="6.31672">
        <ele>741</ele>
        <time>2023-01-06T13:32:55Z</time>
      </trkpt>
      <trkpt lat="43.5982" lon="6.31673">
        <ele>742</ele>
        <time>2023-01-06T13:32:56Z</time>
      </trkpt>
      <trkpt lat="43.5982" lon="6.31674">
        <ele>742</ele>
        <time>2023-01-06T13:32:57Z</time>
      </trkpt>
      <trkpt lat="43.59821" lon="6.31675">
        <ele>742</ele>
        <time>2023-01-06T13:32:58Z</time>
      </trkpt>
      <trkpt lat="43.59821" lon="6.31676">
        <ele>742</ele>
        <time>2023-01-06T13:32:59Z</time>
      </trkpt>
      <trkpt lat="43.59822" lon="6.31677">
        <ele>742</ele>
        <time>2023-01-06T13:33:00Z</time>
      </trkpt>
      <trkpt lat="43.59822" lon="6.31678">
        <ele>742</ele>
        <time>2023-01-06T13:33:01Z</time>
      </trkpt>
      <trkpt lat="43.59822" lon="6.31679">
        <ele>741</ele>
        <time>2023-01-06T13:33:02Z</time>
      </trkpt>
      <trkpt lat="43.59823" lon="6.3168">
        <ele>741</ele>
        <time>2023-01-06T13:33:03Z</time>
      </trkpt>
      <trkpt lat="43.59823" lon="6.31681">
        <ele>741</ele>
        <time>2023-01-06T13:33:04Z</time>
      </trkpt>
      <trkpt lat="43.59824" lon="6.31682">
        <ele>741</ele>
        <time>2023-01-06T13:33:05Z</time>
      </trkpt>
      <trkpt lat="43.59825" lon="6.31683">
        <ele>741</ele>
        <time>2023-01-06T13:33:06Z</time>
      </trkpt>
      <trkpt lat="43.59825" lon="6.31685">
        <ele>741</ele>
        <time>2023-01-06T13:33:07Z</time>
      </trkpt>
      <trkpt lat="43.59826" lon="6.31686">
        <ele>741</ele>
        <time>2023-01-06T13:33:08Z</time>
      </trkpt>
      <trkpt lat="43.59826" lon="6.31687">
        <ele>741</ele>
        <time>2023-01-06T13:33:09Z</time>
      </trkpt>
      <trkpt lat="43.59827" lon="6.31688">
        <ele>741</ele>
        <time>2023-01-06T13:33:10Z</time>
      </trkpt>
      <trkpt lat="43.59827" lon="6.31689">
        <ele>741</ele>
        <time>2023-01-06T13:33:11Z</time>
      </trkpt>
      <trkpt lat="43.59828" lon="6.3169">
        <ele>741</ele>
        <time>2023-01-06T13:33:12Z</time>
      </trkpt>
      <trkpt lat="43.59828" lon="6.31691">
        <ele>741</ele>
        <time>2023-01-06T13:33:13Z</time>
      </trkpt>
      <trkpt lat="43.59829" lon="6.31693">
        <ele>741</ele>
        <time>2023-01-06T13:33:14Z</time>
      </trkpt>
      <trkpt lat="43.59829" lon="6.31694">
        <ele>741</ele>
        <time>2023-01-06T13:33:15Z</time>
      </trkpt>
      <trkpt lat="43.5983" lon="6.31695">
        <ele>742</ele>
        <time>2023-01-06T13:33:16Z</time>
      </trkpt>
      <trkpt lat="43.5983" lon="6.31696">
        <ele>742</ele>
        <time>2023-01-06T13:33:17Z</time>
      </trkpt>
      <trkpt lat="43.59831" lon="6.31697">
        <ele>742</ele>
        <time>2023-01-06T13:33:18Z</time>
      </trkpt>
      <trkpt lat="43.59831" lon="6.31699">
        <ele>742</ele>
        <time>2023-01-06T13:33:19Z</time>
      </trkpt>
      <trkpt lat="43.59832" lon="6.317">
        <ele>742</ele>
        <time>2023-01-06T13:33:20Z</time>
      </trkpt>
      <trkpt lat="43.59832" lon="6.31701">
        <ele>742</ele>
        <time>2023-01-06T13:33:21Z</time>
      </trkpt>
      <trkpt lat="43.59833" lon="6.31703">
        <ele>742</ele>
        <time>2023-01-06T13:33:22Z</time>
      </trkpt>
      <trkpt lat="43.59834" lon="6.31704">
        <ele>742</ele>
        <time>2023-01-06T13:33:23Z</time>
      </trkpt>
      <trkpt lat="43.59834" lon="6.31705">
        <ele>742</ele>
        <time>2023-01-06T13:33:24Z</time>
      </trkpt>
      <trkpt lat="43.59835" lon="6.31706">
        <ele>742</ele>
        <time>2023-01-06T13:33:25Z</time>
      </trkpt>
      <trkpt lat="43.59835" lon="6.31708">
        <ele>742</ele>
        <time>2023-01-06T13:33:26Z</time>
      </trkpt>
      <trkpt lat="43.59836" lon="6.31709">
        <ele>742</ele>
        <time>2023-01-06T13:33:27Z</time>
      </trkpt>
      <trkpt lat="43.59836" lon="6.31711">
        <ele>742</ele>
        <time>2023-01-06T13:33:28Z</time>
      </trkpt>
      <trkpt lat="43.59837" lon="6.31712">
        <ele>742</ele>
        <time>2023-01-06T13:33:29Z</time>
      </trkpt>
      <trkpt lat="43.59837" lon="6.31713">
        <ele>742</ele>
        <time>2023-01-06T13:33:30Z</time>
      </trkpt>
      <trkpt lat="43.59838" lon="6.31715">
        <ele>742</ele>
        <time>2023-01-06T13:33:31Z</time>
      </trkpt>
      <trkpt lat="43.59838" lon="6.31716">
        <ele>742</ele>
        <time>2023-01-06T13:33:32Z</time>
      </trkpt>
      <trkpt lat="43.59839" lon="6.31718">
        <ele>742</ele>
        <time>2023-01-06T13:33:33Z</time>
      </trkpt>
      <trkpt lat="43.59839" lon="6.31719">
        <ele>741</ele>
        <time>2023-01-06T13:33:34Z</time>
      </trkpt>
      <trkpt lat="43.5984" lon="6.3172">
        <ele>741</ele>
        <time>2023-01-06T13:33:35Z</time>
      </trkpt>
      <trkpt lat="43.5984" lon="6.31722">
        <ele>741</ele>
        <time>2023-01-06T13:33:36Z</time>
      </trkpt>
      <trkpt lat="43.59841" lon="6.31723">
        <ele>741</ele>
        <time>2023-01-06T13:33:37Z</time>
      </trkpt>
      <trkpt lat="43.59841" lon="6.31725">
        <ele>741</ele>
        <time>2023-01-06T13:33:38Z</time>
      </trkpt>
      <trkpt lat="43.59841" lon="6.31726">
        <ele>741</ele>
        <time>2023-01-06T13:33:39Z</time>
      </trkpt>
      <trkpt lat="43.59842" lon="6.31727">
        <ele>741</ele>
        <time>2023-01-06T13:33:40Z</time>
      </trkpt>
      <trkpt lat="43.59842" lon="6.31729">
        <ele>741</ele>
        <time>2023-01-06T13:33:41Z</time>
      </trkpt>
      <trkpt lat="43.59842" lon="6.3173">
        <ele>742</ele>
        <time>2023-01-06T13:33:42Z</time>
      </trkpt>
      <trkpt lat="43.59843" lon="6.31732">
        <ele>742</ele>
        <time>2023-01-06T13:33:43Z</time>
      </trkpt>
      <trkpt lat="43.59843" lon="6.31733">
        <ele>742</ele>
        <time>2023-01-06T13:33:44Z</time>
      </trkpt>
      <trkpt lat="43.59843" lon="6.31734">
        <ele>742</ele>
        <time>2023-01-06T13:33:45Z</time>
      </trkpt>
      <trkpt lat="43.59844" lon="6.31736">
        <ele>742</ele>
        <time>2023-01-06T13:33:46Z</time>
      </trkpt>
      <trkpt lat="43.59844" lon="6.31737">
        <ele>742</ele>
        <time>2023-01-06T13:33:47Z</time>
      </trkpt>
      <trkpt lat="43.59844" lon="6.31738">
        <ele>742</ele>
        <time>2023-01-06T13:33:48Z</time>
      </trkpt>
      <trkpt lat="43.59845" lon="6.31739">
        <ele>742</ele>
        <time>2023-01-06T13:33:49Z</time>
      </trkpt>
      <trkpt lat="43.59845" lon="6.3174">
        <ele>742</ele>
        <time>2023-01-06T13:33:50Z</time>
      </trkpt>
      <trkpt lat="43.59845" lon="6.31741">
        <ele>742</ele>
        <time>2023-01-06T13:33:51Z</time>
      </trkpt>
      <trkpt lat="43.59846" lon="6.31743">
        <ele>742</ele>
        <time>2023-01-06T13:33:52Z</time>
      </trkpt>
      <trkpt lat="43.59847" lon="6.31743">
        <ele>741</ele>
        <time>2023-01-06T13:33:53Z</time>
      </trkpt>
      <trkpt lat="43.59847" lon="6.31744">
        <ele>741</ele>
        <time>2023-01-06T13:33:54Z</time>
      </trkpt>
      <trkpt lat="43.59848" lon="6.31745">
        <ele>741</ele>
        <time>2023-01-06T13:33:55Z</time>
      </trkpt>
      <trkpt lat="43.59848" lon="6.31746">
        <ele>741</ele>
        <time>2023-01-06T13:33:56Z</time>
      </trkpt>
      <trkpt lat="43.59849" lon="6.31747">
        <ele>741</ele>
        <time>2023-01-06T13:33:57Z</time>
      </trkpt>
      <trkpt lat="43.5985" lon="6.31748">
        <ele>741</ele>
        <time>2023-01-06T13:33:58Z</time>
      </trkpt>
      <trkpt lat="43.5985" lon="6.31748">
        <ele>741</ele>
        <time>2023-01-06T13:33:59Z</time>
      </trkpt>
      <trkpt lat="43.59851" lon="6.31749">
        <ele>740</ele>
        <time>2023-01-06T13:34:00Z</time>
      </trkpt>
      <trkpt lat="43.59852" lon="6.3175">
        <ele>739</ele>
        <time>2023-01-06T13:34:01Z</time>
      </trkpt>
      <trkpt lat="43.59853" lon="6.3175">
        <ele>739</ele>
        <time>2023-01-06T13:34:02Z</time>
      </trkpt>
      <trkpt lat="43.59853" lon="6.31751">
        <ele>739</ele>
        <time>2023-01-06T13:34:03Z</time>
      </trkpt>
      <trkpt lat="43.59854" lon="6.31752">
        <ele>739</ele>
        <time>2023-01-06T13:34:04Z</time>
      </trkpt>
      <trkpt lat="43.59855" lon="6.31752">
        <ele>739</ele>
        <time>2023-01-06T13:34:05Z</time>
      </trkpt>
      <trkpt lat="43.59856" lon="6.31753">
        <ele>739</ele>
        <time>2023-01-06T13:34:06Z</time>
      </trkpt>
      <trkpt lat="43.59856" lon="6.31754">
        <ele>739</ele>
        <time>2023-01-06T13:34:07Z</time>
      </trkpt>
      <trkpt lat="43.59857" lon="6.31754">
        <ele>739</ele>
        <time>2023-01-06T13:34:08Z</time>
      </trkpt>
      <trkpt lat="43.59858" lon="6.31755">
        <ele>739</ele>
        <time>2023-01-06T13:34:09Z</time>
      </trkpt>
      <trkpt lat="43.59859" lon="6.31756">
        <ele>739</ele>
        <time>2023-01-06T13:34:10Z</time>
      </trkpt>
      <trkpt lat="43.5986" lon="6.31757">
        <ele>739</ele>
        <time>2023-01-06T13:34:11Z</time>
      </trkpt>
      <trkpt lat="43.5986" lon="6.31758">
        <ele>739</ele>
        <time>2023-01-06T13:34:12Z</time>
      </trkpt>
      <trkpt lat="43.59861" lon="6.31759">
        <ele>739</ele>
        <time>2023-01-06T13:34:13Z</time>
      </trkpt>
      <trkpt lat="43.59862" lon="6.3176">
        <ele>739</ele>
        <time>2023-01-06T13:34:14Z</time>
      </trkpt>
      <trkpt lat="43.59862" lon="6.3176">
        <ele>739</ele>
        <time>2023-01-06T13:34:15Z</time>
      </trkpt>
      <trkpt lat="43.59863" lon="6.31761">
        <ele>739</ele>
        <time>2023-01-06T13:34:16Z</time>
      </trkpt>
      <trkpt lat="43.59864" lon="6.31762">
        <ele>739</ele>
        <time>2023-01-06T13:34:17Z</time>
      </trkpt>
      <trkpt lat="43.59865" lon="6.31763">
        <ele>740</ele>
        <time>2023-01-06T13:34:18Z</time>
      </trkpt>
      <trkpt lat="43.59865" lon="6.31764">
        <ele>740</ele>
        <time>2023-01-06T13:34:19Z</time>
      </trkpt>
      <trkpt lat="43.59866" lon="6.31764">
        <ele>740</ele>
        <time>2023-01-06T13:34:20Z</time>
      </trkpt>
      <trkpt lat="43.59867" lon="6.31765">
        <ele>741</ele>
        <time>2023-01-06T13:34:21Z</time>
      </trkpt>
      <trkpt lat="43.59867" lon="6.31765">
        <ele>741</ele>
        <time>2023-01-06T13:34:22Z</time>
      </trkpt>
      <trkpt lat="43.59868" lon="6.31766">
        <ele>741</ele>
        <time>2023-01-06T13:34:23Z</time>
      </trkpt>
      <trkpt lat="43.59869" lon="6.31766">
        <ele>741</ele>
        <time>2023-01-06T13:34:24Z</time>
      </trkpt>
      <trkpt lat="43.59869" lon="6.31766">
        <ele>741</ele>
        <time>2023-01-06T13:34:25Z</time>
      </trkpt>
      <trkpt lat="43.59869" lon="6.31767">
        <ele>741</ele>
        <time>2023-01-06T13:34:26Z</time>
      </trkpt>
      <trkpt lat="43.5987" lon="6.31767">
        <ele>741</ele>
        <time>2023-01-06T13:34:27Z</time>
      </trkpt>
      <trkpt lat="43.5987" lon="6.31768">
        <ele>741</ele>
        <time>2023-01-06T13:34:28Z</time>
      </trkpt>
      <trkpt lat="43.59871" lon="6.31768">
        <ele>741</ele>
        <time>2023-01-06T13:34:29Z</time>
      </trkpt>
      <trkpt lat="43.59872" lon="6.31769">
        <ele>741</ele>
        <time>2023-01-06T13:34:30Z</time>
      </trkpt>
      <trkpt lat="43.59872" lon="6.31769">
        <ele>742</ele>
        <time>2023-01-06T13:34:31Z</time>
      </trkpt>
      <trkpt lat="43.59873" lon="6.3177">
        <ele>742</ele>
        <time>2023-01-06T13:34:32Z</time>
      </trkpt>
      <trkpt lat="43.59874" lon="6.3177">
        <ele>742</ele>
        <time>2023-01-06T13:34:33Z</time>
      </trkpt>
      <trkpt lat="43.59875" lon="6.31771">
        <ele>742</ele>
        <time>2023-01-06T13:34:34Z</time>
      </trkpt>
      <trkpt lat="43.59876" lon="6.31771">
        <ele>742</ele>
        <time>2023-01-06T13:34:35Z</time>
      </trkpt>
      <trkpt lat="43.59877" lon="6.31772">
        <ele>742</ele>
        <time>2023-01-06T13:34:36Z</time>
      </trkpt>
      <trkpt lat="43.59878" lon="6.31772">
        <ele>742</ele>
        <time>2023-01-06T13:34:37Z</time>
      </trkpt>
      <trkpt lat="43.59879" lon="6.31773">
        <ele>742</ele>
        <time>2023-01-06T13:34:38Z</time>
      </trkpt>
      <trkpt lat="43.5988" lon="6.31774">
        <ele>742</ele>
        <time>2023-01-06T13:34:39Z</time>
      </trkpt>
      <trkpt lat="43.59881" lon="6.31774">
        <ele>742</ele>
        <time>2023-01-06T13:34:40Z</time>
      </trkpt>
      <trkpt lat="43.59882" lon="6.31775">
        <ele>742</ele>
        <time>2023-01-06T13:34:41Z</time>
      </trkpt>
      <trkpt lat="43.59884" lon="6.31776">
        <ele>742</ele>
        <time>2023-01-06T13:34:42Z</time>
      </trkpt>
      <trkpt lat="43.59885" lon="6.31777">
        <ele>742</ele>
        <time>2023-01-06T13:34:43Z</time>
      </trkpt>
      <trkpt lat="43.59886" lon="6.31777">
        <ele>743</ele>
        <time>2023-01-06T13:34:44Z</time>
      </trkpt>
      <trkpt lat="43.59887" lon="6.31778">
        <ele>743</ele>
        <time>2023-01-06T13:34:45Z</time>
      </trkpt>
      <trkpt lat="43.59888" lon="6.31779">
        <ele>743</ele>
        <time>2023-01-06T13:34:46Z</time>
      </trkpt>
      <trkpt lat="43.59889" lon="6.31779">
        <ele>743</ele>
        <time>2023-01-06T13:34:47Z</time>
      </trkpt>
      <trkpt lat="43.59889" lon="6.31779">
        <ele>743</ele>
        <time>2023-01-06T13:34:48Z</time>
      </trkpt>
      <trkpt lat="43.5989" lon="6.3178">
        <ele>744</ele>
        <time>2023-01-06T13:34:49Z</time>
      </trkpt>
      <trkpt lat="43.59892" lon="6.3178">
        <ele>744</ele>
        <time>2023-01-06T13:34:50Z</time>
      </trkpt>
      <trkpt lat="43.59893" lon="6.3178">
        <ele>744</ele>
        <time>2023-01-06T13:34:51Z</time>
      </trkpt>
      <trkpt lat="43.59894" lon="6.31781">
        <ele>744</ele>
        <time>2023-01-06T13:34:52Z</time>
      </trkpt>
      <trkpt lat="43.59895" lon="6.31781">
        <ele>744</ele>
        <time>2023-01-06T13:34:53Z</time>
      </trkpt>
      <trkpt lat="43.59895" lon="6.31782">
        <ele>744</ele>
        <time>2023-01-06T13:34:54Z</time>
      </trkpt>
      <trkpt lat="43.59896" lon="6.31782">
        <ele>744</ele>
        <time>2023-01-06T13:34:55Z</time>
      </trkpt>
      <trkpt lat="43.59897" lon="6.31783">
        <ele>745</ele>
        <time>2023-01-06T13:34:56Z</time>
      </trkpt>
      <trkpt lat="43.59898" lon="6.31783">
        <ele>745</ele>
        <time>2023-01-06T13:34:57Z</time>
      </trkpt>
      <trkpt lat="43.59899" lon="6.31784">
        <ele>745</ele>
        <time>2023-01-06T13:34:58Z</time>
      </trkpt>
      <trkpt lat="43.59899" lon="6.31784">
        <ele>744</ele>
        <time>2023-01-06T13:34:59Z</time>
      </trkpt>
      <trkpt lat="43.599" lon="6.31785">
        <ele>744</ele>
        <time>2023-01-06T13:35:00Z</time>
      </trkpt>
      <trkpt lat="43.59901" lon="6.31786">
        <ele>744</ele>
        <time>2023-01-06T13:35:01Z</time>
      </trkpt>
      <trkpt lat="43.59901" lon="6.31787">
        <ele>744</ele>
        <time>2023-01-06T13:35:02Z</time>
      </trkpt>
      <trkpt lat="43.59902" lon="6.31787">
        <ele>744</ele>
        <time>2023-01-06T13:35:03Z</time>
      </trkpt>
      <trkpt lat="43.59902" lon="6.31788">
        <ele>744</ele>
        <time>2023-01-06T13:35:04Z</time>
      </trkpt>
      <trkpt lat="43.59903" lon="6.31789">
        <ele>744</ele>
        <time>2023-01-06T13:35:05Z</time>
      </trkpt>
      <trkpt lat="43.59904" lon="6.3179">
        <ele>743</ele>
        <time>2023-01-06T13:35:06Z</time>
      </trkpt>
      <trkpt lat="43.59904" lon="6.31791">
        <ele>743</ele>
        <time>2023-01-06T13:35:07Z</time>
      </trkpt>
      <trkpt lat="43.59905" lon="6.31793">
        <ele>742</ele>
        <time>2023-01-06T13:35:08Z</time>
      </trkpt>
      <trkpt lat="43.59905" lon="6.31794">
        <ele>742</ele>
        <time>2023-01-06T13:35:09Z</time>
      </trkpt>
      <trkpt lat="43.59905" lon="6.31796">
        <ele>742</ele>
        <time>2023-01-06T13:35:10Z</time>
      </trkpt>
      <trkpt lat="43.59905" lon="6.31797">
        <ele>742</ele>
        <time>2023-01-06T13:35:11Z</time>
      </trkpt>
      <trkpt lat="43.59905" lon="6.31798">
        <ele>742</ele>
        <time>2023-01-06T13:35:12Z</time>
      </trkpt>
      <trkpt lat="43.59905" lon="6.31799">
        <ele>742</ele>
        <time>2023-01-06T13:35:13Z</time>
      </trkpt>
      <trkpt lat="43.59905" lon="6.31801">
        <ele>742</ele>
        <time>2023-01-06T13:35:14Z</time>
      </trkpt>
      <trkpt lat="43.59905" lon="6.31802">
        <ele>742</ele>
        <time>2023-01-06T13:35:15Z</time>
      </trkpt>
      <trkpt lat="43.59905" lon="6.31803">
        <ele>742</ele>
        <time>2023-01-06T13:35:16Z</time>
      </trkpt>
      <trkpt lat="43.59905" lon="6.31805">
        <ele>742</ele>
        <time>2023-01-06T13:35:17Z</time>
      </trkpt>
      <trkpt lat="43.59905" lon="6.31806">
        <ele>742</ele>
        <time>2023-01-06T13:35:18Z</time>
      </trkpt>
      <trkpt lat="43.59905" lon="6.31807">
        <ele>742</ele>
        <time>2023-01-06T13:35:19Z</time>
      </trkpt>
      <trkpt lat="43.59905" lon="6.31808">
        <ele>742</ele>
        <time>2023-01-06T13:35:20Z</time>
      </trkpt>
      <trkpt lat="43.59905" lon="6.31809">
        <ele>742</ele>
        <time>2023-01-06T13:35:21Z</time>
      </trkpt>
      <trkpt lat="43.59905" lon="6.3181">
        <ele>742</ele>
        <time>2023-01-06T13:35:22Z</time>
      </trkpt>
      <trkpt lat="43.59905" lon="6.31811">
        <ele>742</ele>
        <time>2023-01-06T13:35:23Z</time>
      </trkpt>
      <trkpt lat="43.59905" lon="6.31812">
        <ele>742</ele>
        <time>2023-01-06T13:35:24Z</time>
      </trkpt>
      <trkpt lat="43.59905" lon="6.31813">
        <ele>742</ele>
        <time>2023-01-06T13:35:25Z</time>
      </trkpt>
      <trkpt lat="43.59906" lon="6.31814">
        <ele>742</ele>
        <time>2023-01-06T13:35:26Z</time>
      </trkpt>
      <trkpt lat="43.59906" lon="6.31815">
        <ele>742</ele>
        <time>2023-01-06T13:35:27Z</time>
      </trkpt>
      <trkpt lat="43.59906" lon="6.31817">
        <ele>742</ele>
        <time>2023-01-06T13:35:28Z</time>
      </trkpt>
      <trkpt lat="43.59906" lon="6.31818">
        <ele>742</ele>
        <time>2023-01-06T13:35:29Z</time>
      </trkpt>
      <trkpt lat="43.59907" lon="6.31819">
        <ele>742</ele>
        <time>2023-01-06T13:35:30Z</time>
      </trkpt>
      <trkpt lat="43.59907" lon="6.3182">
        <ele>742</ele>
        <time>2023-01-06T13:35:31Z</time>
      </trkpt>
      <trkpt lat="43.59908" lon="6.3182">
        <ele>742</ele>
        <time>2023-01-06T13:35:32Z</time>
      </trkpt>
      <trkpt lat="43.59909" lon="6.31821">
        <ele>742</ele>
        <time>2023-01-06T13:35:33Z</time>
      </trkpt>
      <trkpt lat="43.5991" lon="6.31822">
        <ele>741</ele>
        <time>2023-01-06T13:35:34Z</time>
      </trkpt>
      <trkpt lat="43.59912" lon="6.31823">
        <ele>740</ele>
        <time>2023-01-06T13:35:35Z</time>
      </trkpt>
      <trkpt lat="43.59913" lon="6.31824">
        <ele>740</ele>
        <time>2023-01-06T13:35:36Z</time>
      </trkpt>
      <trkpt lat="43.59914" lon="6.31825">
        <ele>739</ele>
        <time>2023-01-06T13:35:37Z</time>
      </trkpt>
      <trkpt lat="43.59915" lon="6.31826">
        <ele>739</ele>
        <time>2023-01-06T13:35:38Z</time>
      </trkpt>
      <trkpt lat="43.59916" lon="6.31826">
        <ele>739</ele>
        <time>2023-01-06T13:35:39Z</time>
      </trkpt>
      <trkpt lat="43.59918" lon="6.31827">
        <ele>738</ele>
        <time>2023-01-06T13:35:40Z</time>
      </trkpt>
      <trkpt lat="43.59918" lon="6.31828">
        <ele>738</ele>
        <time>2023-01-06T13:35:41Z</time>
      </trkpt>
      <trkpt lat="43.59919" lon="6.31829">
        <ele>736</ele>
        <time>2023-01-06T13:35:42Z</time>
      </trkpt>
      <trkpt lat="43.5992" lon="6.3183">
        <ele>736</ele>
        <time>2023-01-06T13:35:43Z</time>
      </trkpt>
      <trkpt lat="43.59921" lon="6.31831">
        <ele>736</ele>
        <time>2023-01-06T13:35:44Z</time>
      </trkpt>
      <trkpt lat="43.59922" lon="6.31832">
        <ele>735</ele>
        <time>2023-01-06T13:35:45Z</time>
      </trkpt>
      <trkpt lat="43.59922" lon="6.31833">
        <ele>735</ele>
        <time>2023-01-06T13:35:46Z</time>
      </trkpt>
      <trkpt lat="43.59923" lon="6.31835">
        <ele>735</ele>
        <time>2023-01-06T13:35:47Z</time>
      </trkpt>
      <trkpt lat="43.59924" lon="6.31836">
        <ele>735</ele>
        <time>2023-01-06T13:35:48Z</time>
      </trkpt>
      <trkpt lat="43.59924" lon="6.31837">
        <ele>735</ele>
        <time>2023-01-06T13:35:49Z</time>
      </trkpt>
      <trkpt lat="43.59924" lon="6.31839">
        <ele>735</ele>
        <time>2023-01-06T13:35:50Z</time>
      </trkpt>
      <trkpt lat="43.59925" lon="6.3184">
        <ele>734</ele>
        <time>2023-01-06T13:35:51Z</time>
      </trkpt>
      <trkpt lat="43.59925" lon="6.31841">
        <ele>734</ele>
        <time>2023-01-06T13:35:52Z</time>
      </trkpt>
      <trkpt lat="43.59925" lon="6.31842">
        <ele>734</ele>
        <time>2023-01-06T13:35:53Z</time>
      </trkpt>
      <trkpt lat="43.59925" lon="6.31844">
        <ele>734</ele>
        <time>2023-01-06T13:35:54Z</time>
      </trkpt>
      <trkpt lat="43.59926" lon="6.31845">
        <ele>734</ele>
        <time>2023-01-06T13:35:55Z</time>
      </trkpt>
      <trkpt lat="43.59926" lon="6.31846">
        <ele>734</ele>
        <time>2023-01-06T13:35:56Z</time>
      </trkpt>
      <trkpt lat="43.59927" lon="6.31847">
        <ele>734</ele>
        <time>2023-01-06T13:35:57Z</time>
      </trkpt>
      <trkpt lat="43.59928" lon="6.31848">
        <ele>734</ele>
        <time>2023-01-06T13:35:58Z</time>
      </trkpt>
      <trkpt lat="43.59929" lon="6.31849">
        <ele>734</ele>
        <time>2023-01-06T13:35:59Z</time>
      </trkpt>
      <trkpt lat="43.5993" lon="6.3185">
        <ele>734</ele>
        <time>2023-01-06T13:36:00Z</time>
      </trkpt>
      <trkpt lat="43.59931" lon="6.31851">
        <ele>734</ele>
        <time>2023-01-06T13:36:01Z</time>
      </trkpt>
      <trkpt lat="43.59931" lon="6.31852">
        <ele>735</ele>
        <time>2023-01-06T13:36:02Z</time>
      </trkpt>
      <trkpt lat="43.59932" lon="6.31853">
        <ele>734</ele>
        <time>2023-01-06T13:36:03Z</time>
      </trkpt>
      <trkpt lat="43.59933" lon="6.31854">
        <ele>734</ele>
        <time>2023-01-06T13:36:04Z</time>
      </trkpt>
      <trkpt lat="43.59933" lon="6.31855">
        <ele>734</ele>
        <time>2023-01-06T13:36:05Z</time>
      </trkpt>
      <trkpt lat="43.59934" lon="6.31856">
        <ele>734</ele>
        <time>2023-01-06T13:36:06Z</time>
      </trkpt>
      <trkpt lat="43.59934" lon="6.31857">
        <ele>734</ele>
        <time>2023-01-06T13:36:07Z</time>
      </trkpt>
      <trkpt lat="43.59935" lon="6.31858">
        <ele>734</ele>
        <time>2023-01-06T13:36:08Z</time>
      </trkpt>
      <trkpt lat="43.59935" lon="6.31859">
        <ele>734</ele>
        <time>2023-01-06T13:36:09Z</time>
      </trkpt>
      <trkpt lat="43.59936" lon="6.31859">
        <ele>734</ele>
        <time>2023-01-06T13:36:10Z</time>
      </trkpt>
      <trkpt lat="43.59937" lon="6.31859">
        <ele>735</ele>
        <time>2023-01-06T13:36:11Z</time>
      </trkpt>
      <trkpt lat="43.59937" lon="6.3186">
        <ele>735</ele>
        <time>2023-01-06T13:36:12Z</time>
      </trkpt>
      <trkpt lat="43.59938" lon="6.3186">
        <ele>735</ele>
        <time>2023-01-06T13:36:13Z</time>
      </trkpt>
      <trkpt lat="43.59939" lon="6.3186">
        <ele>735</ele>
        <time>2023-01-06T13:36:14Z</time>
      </trkpt>
      <trkpt lat="43.5994" lon="6.3186">
        <ele>735</ele>
        <time>2023-01-06T13:36:15Z</time>
      </trkpt>
      <trkpt lat="43.59941" lon="6.3186">
        <ele>735</ele>
        <time>2023-01-06T13:36:16Z</time>
      </trkpt>
      <trkpt lat="43.59942" lon="6.3186">
        <ele>735</ele>
        <time>2023-01-06T13:36:17Z</time>
      </trkpt>
      <trkpt lat="43.59943" lon="6.3186">
        <ele>735</ele>
        <time>2023-01-06T13:36:18Z</time>
      </trkpt>
      <trkpt lat="43.59943" lon="6.31859">
        <ele>735</ele>
        <time>2023-01-06T13:36:19Z</time>
      </trkpt>
      <trkpt lat="43.59944" lon="6.31859">
        <ele>735</ele>
        <time>2023-01-06T13:36:20Z</time>
      </trkpt>
      <trkpt lat="43.59945" lon="6.31859">
        <ele>735</ele>
        <time>2023-01-06T13:36:21Z</time>
      </trkpt>
      <trkpt lat="43.59945" lon="6.31859">
        <ele>735</ele>
        <time>2023-01-06T13:36:22Z</time>
      </trkpt>
      <trkpt lat="43.59946" lon="6.31859">
        <ele>735</ele>
        <time>2023-01-06T13:36:23Z</time>
      </trkpt>
      <trkpt lat="43.59946" lon="6.31859">
        <ele>735</ele>
        <time>2023-01-06T13:36:24Z</time>
      </trkpt>
      <trkpt lat="43.59946" lon="6.31859">
        <ele>735</ele>
        <time>2023-01-06T13:36:25Z</time>
      </trkpt>
      <trkpt lat="43.59947" lon="6.31859">
        <ele>735</ele>
        <time>2023-01-06T13:36:26Z</time>
      </trkpt>
      <trkpt lat="43.59947" lon="6.31859">
        <ele>735</ele>
        <time>2023-01-06T13:36:27Z</time>
      </trkpt>
      <trkpt lat="43.59948" lon="6.31859">
        <ele>735</ele>
        <time>2023-01-06T13:36:28Z</time>
      </trkpt>
      <trkpt lat="43.59949" lon="6.31859">
        <ele>735</ele>
        <time>2023-01-06T13:36:29Z</time>
      </trkpt>
      <trkpt lat="43.59949" lon="6.31859">
        <ele>735</ele>
        <time>2023-01-06T13:36:30Z</time>
      </trkpt>
      <trkpt lat="43.5995" lon="6.31859">
        <ele>735</ele>
        <time>2023-01-06T13:36:31Z</time>
      </trkpt>
      <trkpt lat="43.59951" lon="6.31859">
        <ele>735</ele>
        <time>2023-01-06T13:36:32Z</time>
      </trkpt>
      <trkpt lat="43.59951" lon="6.31859">
        <ele>735</ele>
        <time>2023-01-06T13:36:33Z</time>
      </trkpt>
      <trkpt lat="43.59952" lon="6.31859">
        <ele>735</ele>
        <time>2023-01-06T13:36:34Z</time>
      </trkpt>
      <trkpt lat="43.59952" lon="6.31859">
        <ele>735</ele>
        <time>2023-01-06T13:36:35Z</time>
      </trkpt>
      <trkpt lat="43.59953" lon="6.31859">
        <ele>735</ele>
        <time>2023-01-06T13:36:36Z</time>
      </trkpt>
      <trkpt lat="43.59953" lon="6.31859">
        <ele>735</ele>
        <time>2023-01-06T13:36:37Z</time>
      </trkpt>
      <trkpt lat="43.59954" lon="6.31859">
        <ele>735</ele>
        <time>2023-01-06T13:36:38Z</time>
      </trkpt>
      <trkpt lat="43.59955" lon="6.3186">
        <ele>735</ele>
        <time>2023-01-06T13:36:39Z</time>
      </trkpt>
      <trkpt lat="43.59956" lon="6.3186">
        <ele>734</ele>
        <time>2023-01-06T13:36:40Z</time>
      </trkpt>
      <trkpt lat="43.59957" lon="6.3186">
        <ele>734</ele>
        <time>2023-01-06T13:36:41Z</time>
      </trkpt>
      <trkpt lat="43.59958" lon="6.3186">
        <ele>734</ele>
        <time>2023-01-06T13:36:42Z</time>
      </trkpt>
      <trkpt lat="43.59959" lon="6.3186">
        <ele>734</ele>
        <time>2023-01-06T13:36:43Z</time>
      </trkpt>
      <trkpt lat="43.5996" lon="6.3186">
        <ele>734</ele>
        <time>2023-01-06T13:36:44Z</time>
      </trkpt>
      <trkpt lat="43.59961" lon="6.31861">
        <ele>734</ele>
        <time>2023-01-06T13:36:45Z</time>
      </trkpt>
      <trkpt lat="43.59962" lon="6.31862">
        <ele>734</ele>
        <time>2023-01-06T13:36:46Z</time>
      </trkpt>
      <trkpt lat="43.59963" lon="6.31863">
        <ele>733</ele>
        <time>2023-01-06T13:36:47Z</time>
      </trkpt>
      <trkpt lat="43.59964" lon="6.31864">
        <ele>733</ele>
        <time>2023-01-06T13:36:48Z</time>
      </trkpt>
      <trkpt lat="43.59965" lon="6.31865">
        <ele>733</ele>
        <time>2023-01-06T13:36:49Z</time>
      </trkpt>
      <trkpt lat="43.59966" lon="6.31866">
        <ele>733</ele>
        <time>2023-01-06T13:36:50Z</time>
      </trkpt>
      <trkpt lat="43.59967" lon="6.31867">
        <ele>733</ele>
        <time>2023-01-06T13:36:51Z</time>
      </trkpt>
      <trkpt lat="43.59968" lon="6.31868">
        <ele>733</ele>
        <time>2023-01-06T13:36:52Z</time>
      </trkpt>
      <trkpt lat="43.59969" lon="6.31869">
        <ele>733</ele>
        <time>2023-01-06T13:36:53Z</time>
      </trkpt>
      <trkpt lat="43.59969" lon="6.3187">
        <ele>733</ele>
        <time>2023-01-06T13:36:54Z</time>
      </trkpt>
      <trkpt lat="43.5997" lon="6.31871">
        <ele>733</ele>
        <time>2023-01-06T13:36:55Z</time>
      </trkpt>
      <trkpt lat="43.5997" lon="6.31873">
        <ele>733</ele>
        <time>2023-01-06T13:36:56Z</time>
      </trkpt>
      <trkpt lat="43.59971" lon="6.31874">
        <ele>733</ele>
        <time>2023-01-06T13:36:57Z</time>
      </trkpt>
      <trkpt lat="43.59971" lon="6.31875">
        <ele>733</ele>
        <time>2023-01-06T13:36:58Z</time>
      </trkpt>
      <trkpt lat="43.59972" lon="6.31876">
        <ele>734</ele>
        <time>2023-01-06T13:36:59Z</time>
      </trkpt>
      <trkpt lat="43.59972" lon="6.31878">
        <ele>734</ele>
        <time>2023-01-06T13:37:00Z</time>
      </trkpt>
      <trkpt lat="43.59973" lon="6.31879">
        <ele>734</ele>
        <time>2023-01-06T13:37:01Z</time>
      </trkpt>
      <trkpt lat="43.59974" lon="6.3188">
        <ele>734</ele>
        <time>2023-01-06T13:37:02Z</time>
      </trkpt>
      <trkpt lat="43.59974" lon="6.31881">
        <ele>734</ele>
        <time>2023-01-06T13:37:03Z</time>
      </trkpt>
      <trkpt lat="43.59975" lon="6.31882">
        <ele>734</ele>
        <time>2023-01-06T13:37:04Z</time>
      </trkpt>
      <trkpt lat="43.59976" lon="6.31883">
        <ele>734</ele>
        <time>2023-01-06T13:37:05Z</time>
      </trkpt>
      <trkpt lat="43.59977" lon="6.31884">
        <ele>734</ele>
        <time>2023-01-06T13:37:06Z</time>
      </trkpt>
      <trkpt lat="43.59977" lon="6.31886">
        <ele>734</ele>
        <time>2023-01-06T13:37:07Z</time>
      </trkpt>
      <trkpt lat="43.59978" lon="6.31886">
        <ele>734</ele>
        <time>2023-01-06T13:37:08Z</time>
      </trkpt>
      <trkpt lat="43.59979" lon="6.31887">
        <ele>734</ele>
        <time>2023-01-06T13:37:09Z</time>
      </trkpt>
      <trkpt lat="43.59979" lon="6.31888">
        <ele>733</ele>
        <time>2023-01-06T13:37:10Z</time>
      </trkpt>
      <trkpt lat="43.5998" lon="6.31889">
        <ele>733</ele>
        <time>2023-01-06T13:37:11Z</time>
      </trkpt>
      <trkpt lat="43.59981" lon="6.3189">
        <ele>733</ele>
        <time>2023-01-06T13:37:12Z</time>
      </trkpt>
      <trkpt lat="43.59982" lon="6.31891">
        <ele>732</ele>
        <time>2023-01-06T13:37:13Z</time>
      </trkpt>
      <trkpt lat="43.59983" lon="6.31891">
        <ele>732</ele>
        <time>2023-01-06T13:37:14Z</time>
      </trkpt>
      <trkpt lat="43.59984" lon="6.31891">
        <ele>732</ele>
        <time>2023-01-06T13:37:15Z</time>
      </trkpt>
      <trkpt lat="43.59985" lon="6.31892">
        <ele>732</ele>
        <time>2023-01-06T13:37:16Z</time>
      </trkpt>
      <trkpt lat="43.59986" lon="6.31892">
        <ele>731</ele>
        <time>2023-01-06T13:37:17Z</time>
      </trkpt>
      <trkpt lat="43.59987" lon="6.31892">
        <ele>731</ele>
        <time>2023-01-06T13:37:18Z</time>
      </trkpt>
      <trkpt lat="43.59988" lon="6.31892">
        <ele>731</ele>
        <time>2023-01-06T13:37:19Z</time>
      </trkpt>
      <trkpt lat="43.59989" lon="6.31892">
        <ele>731</ele>
        <time>2023-01-06T13:37:20Z</time>
      </trkpt>
      <trkpt lat="43.5999" lon="6.31891">
        <ele>730</ele>
        <time>2023-01-06T13:37:21Z</time>
      </trkpt>
      <trkpt lat="43.5999" lon="6.31891">
        <ele>730</ele>
        <time>2023-01-06T13:37:22Z</time>
      </trkpt>
      <trkpt lat="43.59991" lon="6.31891">
        <ele>729</ele>
        <time>2023-01-06T13:37:23Z</time>
      </trkpt>
      <trkpt lat="43.59992" lon="6.31891">
        <ele>729</ele>
        <time>2023-01-06T13:37:24Z</time>
      </trkpt>
      <trkpt lat="43.59992" lon="6.31891">
        <ele>729</ele>
        <time>2023-01-06T13:37:25Z</time>
      </trkpt>
      <trkpt lat="43.59993" lon="6.3189">
        <ele>729</ele>
        <time>2023-01-06T13:37:26Z</time>
      </trkpt>
      <trkpt lat="43.59994" lon="6.3189">
        <ele>729</ele>
        <time>2023-01-06T13:37:27Z</time>
      </trkpt>
      <trkpt lat="43.59995" lon="6.3189">
        <ele>729</ele>
        <time>2023-01-06T13:37:28Z</time>
      </trkpt>
      <trkpt lat="43.59996" lon="6.31889">
        <ele>729</ele>
        <time>2023-01-06T13:37:29Z</time>
      </trkpt>
      <trkpt lat="43.59996" lon="6.31889">
        <ele>729</ele>
        <time>2023-01-06T13:37:30Z</time>
      </trkpt>
      <trkpt lat="43.59997" lon="6.31888">
        <ele>729</ele>
        <time>2023-01-06T13:37:31Z</time>
      </trkpt>
      <trkpt lat="43.59998" lon="6.31888">
        <ele>729</ele>
        <time>2023-01-06T13:37:32Z</time>
      </trkpt>
      <trkpt lat="43.59999" lon="6.31888">
        <ele>728</ele>
        <time>2023-01-06T13:37:33Z</time>
      </trkpt>
      <trkpt lat="43.59999" lon="6.31888">
        <ele>728</ele>
        <time>2023-01-06T13:37:34Z</time>
      </trkpt>
      <trkpt lat="43.6" lon="6.31888">
        <ele>728</ele>
        <time>2023-01-06T13:37:35Z</time>
      </trkpt>
      <trkpt lat="43.60001" lon="6.31887">
        <ele>728</ele>
        <time>2023-01-06T13:37:36Z</time>
      </trkpt>
      <trkpt lat="43.60001" lon="6.31887">
        <ele>728</ele>
        <time>2023-01-06T13:37:37Z</time>
      </trkpt>
      <trkpt lat="43.60002" lon="6.31887">
        <ele>728</ele>
        <time>2023-01-06T13:37:38Z</time>
      </trkpt>
      <trkpt lat="43.60003" lon="6.31886">
        <ele>728</ele>
        <time>2023-01-06T13:37:39Z</time>
      </trkpt>
      <trkpt lat="43.60004" lon="6.31886">
        <ele>728</ele>
        <time>2023-01-06T13:37:40Z</time>
      </trkpt>
      <trkpt lat="43.60004" lon="6.31886">
        <ele>728</ele>
        <time>2023-01-06T13:37:41Z</time>
      </trkpt>
      <trkpt lat="43.60005" lon="6.31885">
        <ele>728</ele>
        <time>2023-01-06T13:37:42Z</time>
      </trkpt>
      <trkpt lat="43.60006" lon="6.31885">
        <ele>728</ele>
        <time>2023-01-06T13:37:43Z</time>
      </trkpt>
      <trkpt lat="43.60006" lon="6.31884">
        <ele>727</ele>
        <time>2023-01-06T13:37:44Z</time>
      </trkpt>
      <trkpt lat="43.60007" lon="6.31884">
        <ele>727</ele>
        <time>2023-01-06T13:37:45Z</time>
      </trkpt>
      <trkpt lat="43.60008" lon="6.31883">
        <ele>727</ele>
        <time>2023-01-06T13:37:46Z</time>
      </trkpt>
      <trkpt lat="43.60008" lon="6.31883">
        <ele>727</ele>
        <time>2023-01-06T13:37:47Z</time>
      </trkpt>
      <trkpt lat="43.60009" lon="6.31883">
        <ele>727</ele>
        <time>2023-01-06T13:37:48Z</time>
      </trkpt>
      <trkpt lat="43.6001" lon="6.31882">
        <ele>727</ele>
        <time>2023-01-06T13:37:49Z</time>
      </trkpt>
      <trkpt lat="43.60011" lon="6.31882">
        <ele>726</ele>
        <time>2023-01-06T13:37:50Z</time>
      </trkpt>
      <trkpt lat="43.60012" lon="6.31881">
        <ele>726</ele>
        <time>2023-01-06T13:37:51Z</time>
      </trkpt>
      <trkpt lat="43.60013" lon="6.31881">
        <ele>726</ele>
        <time>2023-01-06T13:37:52Z</time>
      </trkpt>
      <trkpt lat="43.60014" lon="6.3188">
        <ele>726</ele>
        <time>2023-01-06T13:37:53Z</time>
      </trkpt>
      <trkpt lat="43.60015" lon="6.3188">
        <ele>726</ele>
        <time>2023-01-06T13:37:54Z</time>
      </trkpt>
      <trkpt lat="43.60016" lon="6.31879">
        <ele>726</ele>
        <time>2023-01-06T13:37:55Z</time>
      </trkpt>
      <trkpt lat="43.60016" lon="6.31879">
        <ele>726</ele>
        <time>2023-01-06T13:37:56Z</time>
      </trkpt>
      <trkpt lat="43.60017" lon="6.31879">
        <ele>726</ele>
        <time>2023-01-06T13:37:57Z</time>
      </trkpt>
      <trkpt lat="43.60018" lon="6.31878">
        <ele>726</ele>
        <time>2023-01-06T13:37:58Z</time>
      </trkpt>
      <trkpt lat="43.60019" lon="6.31879">
        <ele>725</ele>
        <time>2023-01-06T13:37:59Z</time>
      </trkpt>
      <trkpt lat="43.6002" lon="6.3188">
        <ele>725</ele>
        <time>2023-01-06T13:38:00Z</time>
      </trkpt>
      <trkpt lat="43.6002" lon="6.31881">
        <ele>725</ele>
        <time>2023-01-06T13:38:01Z</time>
      </trkpt>
      <trkpt lat="43.6002" lon="6.31882">
        <ele>725</ele>
        <time>2023-01-06T13:38:02Z</time>
      </trkpt>
      <trkpt lat="43.60019" lon="6.31883">
        <ele>725</ele>
        <time>2023-01-06T13:38:03Z</time>
      </trkpt>
      <trkpt lat="43.60019" lon="6.31883">
        <ele>725</ele>
        <time>2023-01-06T13:38:04Z</time>
      </trkpt>
      <trkpt lat="43.60019" lon="6.31883">
        <ele>725</ele>
        <time>2023-01-06T13:38:05Z</time>
      </trkpt>
      <trkpt lat="43.60019" lon="6.31883">
        <ele>725</ele>
        <time>2023-01-06T13:38:06Z</time>
      </trkpt>
      <trkpt lat="43.60019" lon="6.31883">
        <ele>725</ele>
        <time>2023-01-06T13:38:07Z</time>
      </trkpt>
      <trkpt lat="43.60019" lon="6.31883">
        <ele>725</ele>
        <time>2023-01-06T13:38:08Z</time>
      </trkpt>
      <trkpt lat="43.60019" lon="6.31883">
        <ele>725</ele>
        <time>2023-01-06T13:38:09Z</time>
      </trkpt>
      <trkpt lat="43.60019" lon="6.31883">
        <ele>725</ele>
        <time>2023-01-06T13:38:10Z</time>
      </trkpt>
      <trkpt lat="43.60019" lon="6.31883">
        <ele>725</ele>
        <time>2023-01-06T13:38:11Z</time>
      </trkpt>
      <trkpt lat="43.60019" lon="6.31883">
        <ele>725</ele>
        <time>2023-01-06T13:38:12Z</time>
      </trkpt>
      <trkpt lat="43.60019" lon="6.31883">
        <ele>725</ele>
        <time>2023-01-06T13:38:13Z</time>
      </trkpt>
      <trkpt lat="43.60019" lon="6.31883">
        <ele>725</ele>
        <time>2023-01-06T13:38:14Z</time>
      </trkpt>
      <trkpt lat="43.60019" lon="6.31883">
        <ele>725</ele>
        <time>2023-01-06T13:38:15Z</time>
      </trkpt>
      <trkpt lat="43.60019" lon="6.31883">
        <ele>725</ele>
        <time>2023-01-06T13:38:16Z</time>
      </trkpt>
      <trkpt lat="43.60019" lon="6.31883">
        <ele>725</ele>
        <time>2023-01-06T13:38:17Z</time>
      </trkpt>
      <trkpt lat="43.60019" lon="6.31883">
        <ele>725</ele>
        <time>2023-01-06T13:38:18Z</time>
      </trkpt>
      <trkpt lat="43.60019" lon="6.31883">
        <ele>725</ele>
        <time>2023-01-06T13:38:19Z</time>
      </trkpt>
      <trkpt lat="43.60019" lon="6.31883">
        <ele>725</ele>
        <time>2023-01-06T13:38:20Z</time>
      </trkpt>
      <trkpt lat="43.60019" lon="6.31883">
        <ele>725</ele>
        <time>2023-01-06T13:38:21Z</time>
      </trkpt>
      <trkpt lat="43.60019" lon="6.31883">
        <ele>725</ele>
        <time>2023-01-06T13:38:22Z</time>
      </trkpt>
      <trkpt lat="43.60019" lon="6.31883">
        <ele>725</ele>
        <time>2023-01-06T13:38:23Z</time>
      </trkpt>
      <trkpt lat="43.60019" lon="6.31883">
        <ele>725</ele>
        <time>2023-01-06T13:38:24Z</time>
      </trkpt>
      <trkpt lat="43.60019" lon="6.31883">
        <ele>725</ele>
        <time>2023-01-06T13:38:25Z</time>
      </trkpt>
      <trkpt lat="43.60019" lon="6.31883">
        <ele>725</ele>
        <time>2023-01-06T13:38:26Z</time>
      </trkpt>
      <trkpt lat="43.60019" lon="6.31883">
        <ele>725</ele>
        <time>2023-01-06T13:38:27Z</time>
      </trkpt>
      <trkpt lat="43.60017" lon="6.31884">
        <ele>725</ele>
        <time>2023-01-06T13:38:28Z</time>
      </trkpt>
      <trkpt lat="43.60017" lon="6.31884">
        <ele>725</ele>
        <time>2023-01-06T13:38:29Z</time>
      </trkpt>
      <trkpt lat="43.60017" lon="6.31883">
        <ele>725</ele>
        <time>2023-01-06T13:38:30Z</time>
      </trkpt>
      <trkpt lat="43.60017" lon="6.31883">
        <ele>725</ele>
        <time>2023-01-06T13:38:31Z</time>
      </trkpt>
      <trkpt lat="43.60016" lon="6.31883">
        <ele>725</ele>
        <time>2023-01-06T13:38:32Z</time>
      </trkpt>
      <trkpt lat="43.60016" lon="6.31883">
        <ele>725</ele>
        <time>2023-01-06T13:38:33Z</time>
      </trkpt>
      <trkpt lat="43.60016" lon="6.31883">
        <ele>725</ele>
        <time>2023-01-06T13:38:34Z</time>
      </trkpt>
      <trkpt lat="43.60016" lon="6.31882">
        <ele>725</ele>
        <time>2023-01-06T13:38:35Z</time>
      </trkpt>
      <trkpt lat="43.60016" lon="6.31882">
        <ele>725</ele>
        <time>2023-01-06T13:38:36Z</time>
      </trkpt>
      <trkpt lat="43.60016" lon="6.31882">
        <ele>725</ele>
        <time>2023-01-06T13:38:37Z</time>
      </trkpt>
      <trkpt lat="43.60016" lon="6.31882">
        <ele>725</ele>
        <time>2023-01-06T13:38:38Z</time>
      </trkpt>
      <trkpt lat="43.60016" lon="6.31882">
        <ele>725</ele>
        <time>2023-01-06T13:38:39Z</time>
      </trkpt>
      <trkpt lat="43.60016" lon="6.31882">
        <ele>725</ele>
        <time>2023-01-06T13:38:40Z</time>
      </trkpt>
      <trkpt lat="43.60016" lon="6.31882">
        <ele>725</ele>
        <time>2023-01-06T13:38:41Z</time>
      </trkpt>
      <trkpt lat="43.60016" lon="6.31882">
        <ele>725</ele>
        <time>2023-01-06T13:38:42Z</time>
      </trkpt>
      <trkpt lat="43.60016" lon="6.31882">
        <ele>725</ele>
        <time>2023-01-06T13:38:43Z</time>
      </trkpt>
      <trkpt lat="43.60016" lon="6.31882">
        <ele>725</ele>
        <time>2023-01-06T13:38:44Z</time>
      </trkpt>
      <trkpt lat="43.60016" lon="6.31882">
        <ele>725</ele>
        <time>2023-01-06T13:38:45Z</time>
      </trkpt>
      <trkpt lat="43.60016" lon="6.31882">
        <ele>725</ele>
        <time>2023-01-06T13:38:46Z</time>
      </trkpt>
      <trkpt lat="43.60016" lon="6.31882">
        <ele>725</ele>
        <time>2023-01-06T13:38:47Z</time>
      </trkpt>
      <trkpt lat="43.60016" lon="6.31882">
        <ele>725</ele>
        <time>2023-01-06T13:38:48Z</time>
      </trkpt>
      <trkpt lat="43.60016" lon="6.31882">
        <ele>725</ele>
        <time>2023-01-06T13:38:49Z</time>
      </trkpt>
      <trkpt lat="43.60016" lon="6.31882">
        <ele>725</ele>
        <time>2023-01-06T13:38:50Z</time>
      </trkpt>
      <trkpt lat="43.60016" lon="6.31882">
        <ele>725</ele>
        <time>2023-01-06T13:38:51Z</time>
      </trkpt>
      <trkpt lat="43.60016" lon="6.31882">
        <ele>725</ele>
        <time>2023-01-06T13:38:52Z</time>
      </trkpt>
      <trkpt lat="43.60016" lon="6.31882">
        <ele>725</ele>
        <time>2023-01-06T13:38:53Z</time>
      </trkpt>
      <trkpt lat="43.60016" lon="6.31882">
        <ele>725</ele>
        <time>2023-01-06T13:38:54Z</time>
      </trkpt>
      <trkpt lat="43.60016" lon="6.31882">
        <ele>725</ele>
        <time>2023-01-06T13:38:55Z</time>
      </trkpt>
      <trkpt lat="43.60016" lon="6.31882">
        <ele>725</ele>
        <time>2023-01-06T13:38:56Z</time>
      </trkpt>
      <trkpt lat="43.60016" lon="6.31882">
        <ele>725</ele>
        <time>2023-01-06T13:38:57Z</time>
      </trkpt>
      <trkpt lat="43.60016" lon="6.31882">
        <ele>725</ele>
        <time>2023-01-06T13:38:58Z</time>
      </trkpt>
      <trkpt lat="43.60016" lon="6.31882">
        <ele>725</ele>
        <time>2023-01-06T13:38:59Z</time>
      </trkpt>
      <trkpt lat="43.60016" lon="6.31882">
        <ele>725</ele>
        <time>2023-01-06T13:39:00Z</time>
      </trkpt>
      <trkpt lat="43.60016" lon="6.31882">
        <ele>725</ele>
        <time>2023-01-06T13:39:01Z</time>
      </trkpt>
      <trkpt lat="43.60016" lon="6.31882">
        <ele>725</ele>
        <time>2023-01-06T13:39:02Z</time>
      </trkpt>
      <trkpt lat="43.60016" lon="6.31882">
        <ele>725</ele>
        <time>2023-01-06T13:39:03Z</time>
      </trkpt>
      <trkpt lat="43.60016" lon="6.31882">
        <ele>725</ele>
        <time>2023-01-06T13:39:04Z</time>
      </trkpt>
      <trkpt lat="43.60016" lon="6.31882">
        <ele>725</ele>
        <time>2023-01-06T13:39:05Z</time>
      </trkpt>
      <trkpt lat="43.60016" lon="6.31882">
        <ele>725</ele>
        <time>2023-01-06T13:39:06Z</time>
      </trkpt>
      <trkpt lat="43.60016" lon="6.31882">
        <ele>725</ele>
        <time>2023-01-06T13:39:07Z</time>
      </trkpt>
      <trkpt lat="43.60016" lon="6.31882">
        <ele>725</ele>
        <time>2023-01-06T13:39:08Z</time>
      </trkpt>
      <trkpt lat="43.60016" lon="6.31882">
        <ele>725</ele>
        <time>2023-01-06T13:39:09Z</time>
      </trkpt>
      <trkpt lat="43.60016" lon="6.31882">
        <ele>725</ele>
        <time>2023-01-06T13:39:10Z</time>
      </trkpt>
      <trkpt lat="43.60016" lon="6.31882">
        <ele>725</ele>
        <time>2023-01-06T13:39:11Z</time>
      </trkpt>
      <trkpt lat="43.60016" lon="6.31882">
        <ele>725</ele>
        <time>2023-01-06T13:39:12Z</time>
      </trkpt>
      <trkpt lat="43.60016" lon="6.31882">
        <ele>725</ele>
        <time>2023-01-06T13:39:13Z</time>
      </trkpt>
      <trkpt lat="43.60016" lon="6.31882">
        <ele>725</ele>
        <time>2023-01-06T13:39:14Z</time>
      </trkpt>
      <trkpt lat="43.60016" lon="6.31882">
        <ele>725</ele>
        <time>2023-01-06T13:39:15Z</time>
      </trkpt>
      <trkpt lat="43.60016" lon="6.31882">
        <ele>725</ele>
        <time>2023-01-06T13:39:16Z</time>
      </trkpt>
      <trkpt lat="43.60016" lon="6.31882">
        <ele>725</ele>
        <time>2023-01-06T13:39:17Z</time>
      </trkpt>
      <trkpt lat="43.60016" lon="6.31882">
        <ele>725</ele>
        <time>2023-01-06T13:39:18Z</time>
      </trkpt>
      <trkpt lat="43.60016" lon="6.31882">
        <ele>725</ele>
        <time>2023-01-06T13:39:19Z</time>
      </trkpt>
      <trkpt lat="43.60016" lon="6.31882">
        <ele>725</ele>
        <time>2023-01-06T13:39:20Z</time>
      </trkpt>
      <trkpt lat="43.60016" lon="6.31882">
        <ele>725</ele>
        <time>2023-01-06T13:39:21Z</time>
      </trkpt>
      <trkpt lat="43.60016" lon="6.31882">
        <ele>725</ele>
        <time>2023-01-06T13:39:22Z</time>
      </trkpt>
      <trkpt lat="43.60016" lon="6.31882">
        <ele>725</ele>
        <time>2023-01-06T13:39:23Z</time>
      </trkpt>
      <trkpt lat="43.60016" lon="6.31882">
        <ele>725</ele>
        <time>2023-01-06T13:39:24Z</time>
      </trkpt>
      <trkpt lat="43.60016" lon="6.31882">
        <ele>725</ele>
        <time>2023-01-06T13:39:25Z</time>
      </trkpt>
      <trkpt lat="43.60016" lon="6.31882">
        <ele>725</ele>
        <time>2023-01-06T13:39:26Z</time>
      </trkpt>
      <trkpt lat="43.60016" lon="6.31882">
        <ele>725</ele>
        <time>2023-01-06T13:39:27Z</time>
      </trkpt>
      <trkpt lat="43.60016" lon="6.31882">
        <ele>725</ele>
        <time>2023-01-06T13:39:28Z</time>
      </trkpt>
      <trkpt lat="43.60016" lon="6.31882">
        <ele>725</ele>
        <time>2023-01-06T13:39:29Z</time>
      </trkpt>
      <trkpt lat="43.60016" lon="6.31882">
        <ele>725</ele>
        <time>2023-01-06T13:39:30Z</time>
      </trkpt>
      <trkpt lat="43.60016" lon="6.31882">
        <ele>725</ele>
        <time>2023-01-06T13:39:31Z</time>
      </trkpt>
      <trkpt lat="43.60016" lon="6.31882">
        <ele>725</ele>
        <time>2023-01-06T13:39:32Z</time>
      </trkpt>
      <trkpt lat="43.60016" lon="6.31882">
        <ele>725</ele>
        <time>2023-01-06T13:39:33Z</time>
      </trkpt>
      <trkpt lat="43.60016" lon="6.31882">
        <ele>725</ele>
        <time>2023-01-06T13:39:34Z</time>
      </trkpt>
      <trkpt lat="43.60016" lon="6.31882">
        <ele>725</ele>
        <time>2023-01-06T13:39:35Z</time>
      </trkpt>
      <trkpt lat="43.60016" lon="6.31882">
        <ele>725</ele>
        <time>2023-01-06T13:39:36Z</time>
      </trkpt>
      <trkpt lat="43.60016" lon="6.31882">
        <ele>725</ele>
        <time>2023-01-06T13:39:37Z</time>
      </trkpt>
      <trkpt lat="43.60016" lon="6.31882">
        <ele>725</ele>
        <time>2023-01-06T13:39:38Z</time>
      </trkpt>
      <trkpt lat="43.60016" lon="6.31882">
        <ele>725</ele>
        <time>2023-01-06T13:39:39Z</time>
      </trkpt>
      <trkpt lat="43.60016" lon="6.31882">
        <ele>725</ele>
        <time>2023-01-06T13:39:40Z</time>
      </trkpt>
      <trkpt lat="43.60016" lon="6.31882">
        <ele>725</ele>
        <time>2023-01-06T13:39:41Z</time>
      </trkpt>
      <trkpt lat="43.60016" lon="6.31882">
        <ele>725</ele>
        <time>2023-01-06T13:39:42Z</time>
      </trkpt>
      <trkpt lat="43.60016" lon="6.31882">
        <ele>725</ele>
        <time>2023-01-06T13:39:43Z</time>
      </trkpt>
      <trkpt lat="43.60016" lon="6.31882">
        <ele>725</ele>
        <time>2023-01-06T13:39:44Z</time>
      </trkpt>
      <trkpt lat="43.60016" lon="6.31882">
        <ele>725</ele>
        <time>2023-01-06T13:39:45Z</time>
      </trkpt>
      <trkpt lat="43.60016" lon="6.31882">
        <ele>725</ele>
        <time>2023-01-06T13:39:46Z</time>
      </trkpt>
      <trkpt lat="43.60016" lon="6.31882">
        <ele>725</ele>
        <time>2023-01-06T13:39:47Z</time>
      </trkpt>
      <trkpt lat="43.60016" lon="6.31882">
        <ele>725</ele>
        <time>2023-01-06T13:39:48Z</time>
      </trkpt>
      <trkpt lat="43.60016" lon="6.31882">
        <ele>725</ele>
        <time>2023-01-06T13:39:49Z</time>
      </trkpt>
      <trkpt lat="43.60016" lon="6.31882">
        <ele>725</ele>
        <time>2023-01-06T13:39:50Z</time>
      </trkpt>
      <trkpt lat="43.60016" lon="6.31882">
        <ele>725</ele>
        <time>2023-01-06T13:39:51Z</time>
      </trkpt>
      <trkpt lat="43.60016" lon="6.31882">
        <ele>725</ele>
        <time>2023-01-06T13:39:52Z</time>
      </trkpt>
      <trkpt lat="43.60017" lon="6.31882">
        <ele>725</ele>
        <time>2023-01-06T13:39:53Z</time>
      </trkpt>
      <trkpt lat="43.60017" lon="6.31883">
        <ele>725</ele>
        <time>2023-01-06T13:39:54Z</time>
      </trkpt>
      <trkpt lat="43.60017" lon="6.31883">
        <ele>725</ele>
        <time>2023-01-06T13:39:55Z</time>
      </trkpt>
      <trkpt lat="43.60017" lon="6.31883">
        <ele>725</ele>
        <time>2023-01-06T13:39:56Z</time>
      </trkpt>
      <trkpt lat="43.60018" lon="6.31883">
        <ele>725</ele>
        <time>2023-01-06T13:39:57Z</time>
      </trkpt>
      <trkpt lat="43.60018" lon="6.31883">
        <ele>725</ele>
        <time>2023-01-06T13:39:58Z</time>
      </trkpt>
      <trkpt lat="43.60019" lon="6.31883">
        <ele>725</ele>
        <time>2023-01-06T13:39:59Z</time>
      </trkpt>
      <trkpt lat="43.6002" lon="6.31883">
        <ele>725</ele>
        <time>2023-01-06T13:40:00Z</time>
      </trkpt>
      <trkpt lat="43.6002" lon="6.31883">
        <ele>725</ele>
        <time>2023-01-06T13:40:01Z</time>
      </trkpt>
      <trkpt lat="43.60022" lon="6.31883">
        <ele>725</ele>
        <time>2023-01-06T13:40:02Z</time>
      </trkpt>
      <trkpt lat="43.60023" lon="6.31883">
        <ele>726</ele>
        <time>2023-01-06T13:40:03Z</time>
      </trkpt>
      <trkpt lat="43.60025" lon="6.31884">
        <ele>726</ele>
        <time>2023-01-06T13:40:04Z</time>
      </trkpt>
      <trkpt lat="43.60025" lon="6.31884">
        <ele>726</ele>
        <time>2023-01-06T13:40:05Z</time>
      </trkpt>
      <trkpt lat="43.60026" lon="6.31884">
        <ele>726</ele>
        <time>2023-01-06T13:40:06Z</time>
      </trkpt>
      <trkpt lat="43.60026" lon="6.31884">
        <ele>726</ele>
        <time>2023-01-06T13:40:07Z</time>
      </trkpt>
      <trkpt lat="43.60026" lon="6.31884">
        <ele>726</ele>
        <time>2023-01-06T13:40:08Z</time>
      </trkpt>
      <trkpt lat="43.60027" lon="6.31884">
        <ele>726</ele>
        <time>2023-01-06T13:40:09Z</time>
      </trkpt>
      <trkpt lat="43.60027" lon="6.31885">
        <ele>726</ele>
        <time>2023-01-06T13:40:10Z</time>
      </trkpt>
      <trkpt lat="43.60028" lon="6.31885">
        <ele>726</ele>
        <time>2023-01-06T13:40:11Z</time>
      </trkpt>
      <trkpt lat="43.60028" lon="6.31886">
        <ele>726</ele>
        <time>2023-01-06T13:40:12Z</time>
      </trkpt>
      <trkpt lat="43.60029" lon="6.31886">
        <ele>726</ele>
        <time>2023-01-06T13:40:13Z</time>
      </trkpt>
      <trkpt lat="43.60029" lon="6.31887">
        <ele>726</ele>
        <time>2023-01-06T13:40:14Z</time>
      </trkpt>
      <trkpt lat="43.6003" lon="6.31887">
        <ele>726</ele>
        <time>2023-01-06T13:40:15Z</time>
      </trkpt>
      <trkpt lat="43.6003" lon="6.31887">
        <ele>726</ele>
        <time>2023-01-06T13:40:16Z</time>
      </trkpt>
      <trkpt lat="43.60031" lon="6.31887">
        <ele>726</ele>
        <time>2023-01-06T13:40:17Z</time>
      </trkpt>
      <trkpt lat="43.60032" lon="6.31887">
        <ele>725</ele>
        <time>2023-01-06T13:40:18Z</time>
      </trkpt>
      <trkpt lat="43.60032" lon="6.31887">
        <ele>725</ele>
        <time>2023-01-06T13:40:19Z</time>
      </trkpt>
      <trkpt lat="43.60033" lon="6.31887">
        <ele>725</ele>
        <time>2023-01-06T13:40:20Z</time>
      </trkpt>
      <trkpt lat="43.60033" lon="6.31887">
        <ele>725</ele>
        <time>2023-01-06T13:40:21Z</time>
      </trkpt>
      <trkpt lat="43.60034" lon="6.31887">
        <ele>725</ele>
        <time>2023-01-06T13:40:22Z</time>
      </trkpt>
      <trkpt lat="43.60035" lon="6.31887">
        <ele>725</ele>
        <time>2023-01-06T13:40:23Z</time>
      </trkpt>
      <trkpt lat="43.60036" lon="6.31887">
        <ele>725</ele>
        <time>2023-01-06T13:40:24Z</time>
      </trkpt>
      <trkpt lat="43.60037" lon="6.31887">
        <ele>725</ele>
        <time>2023-01-06T13:40:25Z</time>
      </trkpt>
      <trkpt lat="43.60038" lon="6.31887">
        <ele>724</ele>
        <time>2023-01-06T13:40:26Z</time>
      </trkpt>
      <trkpt lat="43.60039" lon="6.31887">
        <ele>724</ele>
        <time>2023-01-06T13:40:27Z</time>
      </trkpt>
      <trkpt lat="43.60041" lon="6.31887">
        <ele>724</ele>
        <time>2023-01-06T13:40:28Z</time>
      </trkpt>
      <trkpt lat="43.60042" lon="6.31888">
        <ele>723</ele>
        <time>2023-01-06T13:40:29Z</time>
      </trkpt>
      <trkpt lat="43.60044" lon="6.31889">
        <ele>723</ele>
        <time>2023-01-06T13:40:30Z</time>
      </trkpt>
      <trkpt lat="43.60045" lon="6.31889">
        <ele>723</ele>
        <time>2023-01-06T13:40:31Z</time>
      </trkpt>
      <trkpt lat="43.60045" lon="6.3189">
        <ele>723</ele>
        <time>2023-01-06T13:40:32Z</time>
      </trkpt>
      <trkpt lat="43.60046" lon="6.3189">
        <ele>723</ele>
        <time>2023-01-06T13:40:33Z</time>
      </trkpt>
      <trkpt lat="43.60046" lon="6.3189">
        <ele>723</ele>
        <time>2023-01-06T13:40:34Z</time>
      </trkpt>
      <trkpt lat="43.60046" lon="6.3189">
        <ele>723</ele>
        <time>2023-01-06T13:40:35Z</time>
      </trkpt>
      <trkpt lat="43.60046" lon="6.3189">
        <ele>722</ele>
        <time>2023-01-06T13:40:36Z</time>
      </trkpt>
      <trkpt lat="43.60046" lon="6.31891">
        <ele>722</ele>
        <time>2023-01-06T13:40:37Z</time>
      </trkpt>
      <trkpt lat="43.60047" lon="6.31891">
        <ele>722</ele>
        <time>2023-01-06T13:40:38Z</time>
      </trkpt>
      <trkpt lat="43.60047" lon="6.31892">
        <ele>722</ele>
        <time>2023-01-06T13:40:39Z</time>
      </trkpt>
      <trkpt lat="43.60048" lon="6.31892">
        <ele>722</ele>
        <time>2023-01-06T13:40:40Z</time>
      </trkpt>
      <trkpt lat="43.60049" lon="6.31892">
        <ele>722</ele>
        <time>2023-01-06T13:40:41Z</time>
      </trkpt>
      <trkpt lat="43.60049" lon="6.31893">
        <ele>722</ele>
        <time>2023-01-06T13:40:42Z</time>
      </trkpt>
      <trkpt lat="43.6005" lon="6.31893">
        <ele>722</ele>
        <time>2023-01-06T13:40:43Z</time>
      </trkpt>
      <trkpt lat="43.60051" lon="6.31893">
        <ele>722</ele>
        <time>2023-01-06T13:40:44Z</time>
      </trkpt>
      <trkpt lat="43.60051" lon="6.31893">
        <ele>722</ele>
        <time>2023-01-06T13:40:45Z</time>
      </trkpt>
      <trkpt lat="43.60051" lon="6.31893">
        <ele>722</ele>
        <time>2023-01-06T13:40:46Z</time>
      </trkpt>
      <trkpt lat="43.60052" lon="6.31893">
        <ele>722</ele>
        <time>2023-01-06T13:40:47Z</time>
      </trkpt>
      <trkpt lat="43.60052" lon="6.31893">
        <ele>721</ele>
        <time>2023-01-06T13:40:48Z</time>
      </trkpt>
      <trkpt lat="43.60052" lon="6.31893">
        <ele>721</ele>
        <time>2023-01-06T13:40:49Z</time>
      </trkpt>
      <trkpt lat="43.60053" lon="6.31893">
        <ele>721</ele>
        <time>2023-01-06T13:40:50Z</time>
      </trkpt>
      <trkpt lat="43.60053" lon="6.31893">
        <ele>721</ele>
        <time>2023-01-06T13:40:51Z</time>
      </trkpt>
      <trkpt lat="43.60053" lon="6.31893">
        <ele>721</ele>
        <time>2023-01-06T13:40:52Z</time>
      </trkpt>
      <trkpt lat="43.60054" lon="6.31893">
        <ele>721</ele>
        <time>2023-01-06T13:40:53Z</time>
      </trkpt>
      <trkpt lat="43.60054" lon="6.31893">
        <ele>721</ele>
        <time>2023-01-06T13:40:54Z</time>
      </trkpt>
      <trkpt lat="43.60055" lon="6.31893">
        <ele>721</ele>
        <time>2023-01-06T13:40:55Z</time>
      </trkpt>
      <trkpt lat="43.60056" lon="6.31894">
        <ele>721</ele>
        <time>2023-01-06T13:40:56Z</time>
      </trkpt>
      <trkpt lat="43.60058" lon="6.31894">
        <ele>721</ele>
        <time>2023-01-06T13:40:57Z</time>
      </trkpt>
      <trkpt lat="43.6006" lon="6.31895">
        <ele>721</ele>
        <time>2023-01-06T13:40:58Z</time>
      </trkpt>
      <trkpt lat="43.60061" lon="6.31896">
        <ele>721</ele>
        <time>2023-01-06T13:40:59Z</time>
      </trkpt>
      <trkpt lat="43.60062" lon="6.31896">
        <ele>721</ele>
        <time>2023-01-06T13:41:00Z</time>
      </trkpt>
      <trkpt lat="43.60063" lon="6.31896">
        <ele>720</ele>
        <time>2023-01-06T13:41:01Z</time>
      </trkpt>
      <trkpt lat="43.60063" lon="6.31896">
        <ele>720</ele>
        <time>2023-01-06T13:41:02Z</time>
      </trkpt>
      <trkpt lat="43.60064" lon="6.31895">
        <ele>720</ele>
        <time>2023-01-06T13:41:03Z</time>
      </trkpt>
      <trkpt lat="43.60065" lon="6.31895">
        <ele>720</ele>
        <time>2023-01-06T13:41:04Z</time>
      </trkpt>
      <trkpt lat="43.60066" lon="6.31895">
        <ele>720</ele>
        <time>2023-01-06T13:41:05Z</time>
      </trkpt>
      <trkpt lat="43.60067" lon="6.31895">
        <ele>720</ele>
        <time>2023-01-06T13:41:06Z</time>
      </trkpt>
      <trkpt lat="43.60069" lon="6.31896">
        <ele>720</ele>
        <time>2023-01-06T13:41:07Z</time>
      </trkpt>
      <trkpt lat="43.60071" lon="6.31897">
        <ele>720</ele>
        <time>2023-01-06T13:41:08Z</time>
      </trkpt>
      <trkpt lat="43.60073" lon="6.31898">
        <ele>720</ele>
        <time>2023-01-06T13:41:09Z</time>
      </trkpt>
      <trkpt lat="43.60075" lon="6.31899">
        <ele>720</ele>
        <time>2023-01-06T13:41:10Z</time>
      </trkpt>
      <trkpt lat="43.60078" lon="6.31899">
        <ele>720</ele>
        <time>2023-01-06T13:41:11Z</time>
      </trkpt>
      <trkpt lat="43.60079" lon="6.31899">
        <ele>720</ele>
        <time>2023-01-06T13:41:12Z</time>
      </trkpt>
      <trkpt lat="43.60081" lon="6.31899">
        <ele>720</ele>
        <time>2023-01-06T13:41:13Z</time>
      </trkpt>
      <trkpt lat="43.60082" lon="6.31899">
        <ele>720</ele>
        <time>2023-01-06T13:41:14Z</time>
      </trkpt>
      <trkpt lat="43.60083" lon="6.31898">
        <ele>720</ele>
        <time>2023-01-06T13:41:15Z</time>
      </trkpt>
      <trkpt lat="43.60084" lon="6.31898">
        <ele>720</ele>
        <time>2023-01-06T13:41:16Z</time>
      </trkpt>
      <trkpt lat="43.60085" lon="6.31897">
        <ele>720</ele>
        <time>2023-01-06T13:41:17Z</time>
      </trkpt>
      <trkpt lat="43.60086" lon="6.31896">
        <ele>720</ele>
        <time>2023-01-06T13:41:18Z</time>
      </trkpt>
      <trkpt lat="43.60086" lon="6.31896">
        <ele>720</ele>
        <time>2023-01-06T13:41:19Z</time>
      </trkpt>
      <trkpt lat="43.60087" lon="6.31895">
        <ele>720</ele>
        <time>2023-01-06T13:41:20Z</time>
      </trkpt>
      <trkpt lat="43.60087" lon="6.31895">
        <ele>719</ele>
        <time>2023-01-06T13:41:21Z</time>
      </trkpt>
      <trkpt lat="43.60088" lon="6.31894">
        <ele>719</ele>
        <time>2023-01-06T13:41:22Z</time>
      </trkpt>
      <trkpt lat="43.60088" lon="6.31894">
        <ele>719</ele>
        <time>2023-01-06T13:41:23Z</time>
      </trkpt>
      <trkpt lat="43.60089" lon="6.31894">
        <ele>718</ele>
        <time>2023-01-06T13:41:24Z</time>
      </trkpt>
      <trkpt lat="43.6009" lon="6.31894">
        <ele>718</ele>
        <time>2023-01-06T13:41:25Z</time>
      </trkpt>
      <trkpt lat="43.60091" lon="6.31894">
        <ele>717</ele>
        <time>2023-01-06T13:41:26Z</time>
      </trkpt>
      <trkpt lat="43.60091" lon="6.31894">
        <ele>717</ele>
        <time>2023-01-06T13:41:27Z</time>
      </trkpt>
      <trkpt lat="43.60092" lon="6.31894">
        <ele>716</ele>
        <time>2023-01-06T13:41:28Z</time>
      </trkpt>
      <trkpt lat="43.60093" lon="6.31893">
        <ele>716</ele>
        <time>2023-01-06T13:41:29Z</time>
      </trkpt>
      <trkpt lat="43.60094" lon="6.31892">
        <ele>716</ele>
        <time>2023-01-06T13:41:30Z</time>
      </trkpt>
      <trkpt lat="43.60095" lon="6.31892">
        <ele>715</ele>
        <time>2023-01-06T13:41:31Z</time>
      </trkpt>
      <trkpt lat="43.60096" lon="6.31891">
        <ele>715</ele>
        <time>2023-01-06T13:41:32Z</time>
      </trkpt>
      <trkpt lat="43.60097" lon="6.3189">
        <ele>715</ele>
        <time>2023-01-06T13:41:33Z</time>
      </trkpt>
      <trkpt lat="43.60099" lon="6.31889">
        <ele>715</ele>
        <time>2023-01-06T13:41:34Z</time>
      </trkpt>
      <trkpt lat="43.60101" lon="6.31888">
        <ele>715</ele>
        <time>2023-01-06T13:41:35Z</time>
      </trkpt>
      <trkpt lat="43.60102" lon="6.31887">
        <ele>715</ele>
        <time>2023-01-06T13:41:36Z</time>
      </trkpt>
      <trkpt lat="43.60103" lon="6.31887">
        <ele>715</ele>
        <time>2023-01-06T13:41:37Z</time>
      </trkpt>
      <trkpt lat="43.60103" lon="6.31886">
        <ele>715</ele>
        <time>2023-01-06T13:41:38Z</time>
      </trkpt>
      <trkpt lat="43.60104" lon="6.31886">
        <ele>715</ele>
        <time>2023-01-06T13:41:39Z</time>
      </trkpt>
      <trkpt lat="43.60104" lon="6.31885">
        <ele>715</ele>
        <time>2023-01-06T13:41:40Z</time>
      </trkpt>
      <trkpt lat="43.60105" lon="6.31885">
        <ele>715</ele>
        <time>2023-01-06T13:41:41Z</time>
      </trkpt>
      <trkpt lat="43.60105" lon="6.31884">
        <ele>715</ele>
        <time>2023-01-06T13:41:42Z</time>
      </trkpt>
      <trkpt lat="43.60106" lon="6.31884">
        <ele>716</ele>
        <time>2023-01-06T13:41:43Z</time>
      </trkpt>
      <trkpt lat="43.60106" lon="6.31883">
        <ele>716</ele>
        <time>2023-01-06T13:41:44Z</time>
      </trkpt>
      <trkpt lat="43.60107" lon="6.31882">
        <ele>716</ele>
        <time>2023-01-06T13:41:45Z</time>
      </trkpt>
      <trkpt lat="43.60107" lon="6.31881">
        <ele>716</ele>
        <time>2023-01-06T13:41:46Z</time>
      </trkpt>
      <trkpt lat="43.60108" lon="6.3188">
        <ele>716</ele>
        <time>2023-01-06T13:41:47Z</time>
      </trkpt>
      <trkpt lat="43.60109" lon="6.31879">
        <ele>716</ele>
        <time>2023-01-06T13:41:48Z</time>
      </trkpt>
      <trkpt lat="43.6011" lon="6.31877">
        <ele>717</ele>
        <time>2023-01-06T13:41:49Z</time>
      </trkpt>
      <trkpt lat="43.60111" lon="6.31875">
        <ele>718</ele>
        <time>2023-01-06T13:41:50Z</time>
      </trkpt>
      <trkpt lat="43.60114" lon="6.31873">
        <ele>718</ele>
        <time>2023-01-06T13:41:51Z</time>
      </trkpt>
      <trkpt lat="43.60115" lon="6.31872">
        <ele>718</ele>
        <time>2023-01-06T13:41:52Z</time>
      </trkpt>
      <trkpt lat="43.60116" lon="6.31871">
        <ele>718</ele>
        <time>2023-01-06T13:41:53Z</time>
      </trkpt>
      <trkpt lat="43.60116" lon="6.3187">
        <ele>718</ele>
        <time>2023-01-06T13:41:54Z</time>
      </trkpt>
      <trkpt lat="43.60117" lon="6.31869">
        <ele>718</ele>
        <time>2023-01-06T13:41:55Z</time>
      </trkpt>
      <trkpt lat="43.60118" lon="6.31868">
        <ele>718</ele>
        <time>2023-01-06T13:41:56Z</time>
      </trkpt>
      <trkpt lat="43.60119" lon="6.31868">
        <ele>718</ele>
        <time>2023-01-06T13:41:57Z</time>
      </trkpt>
      <trkpt lat="43.60119" lon="6.31867">
        <ele>718</ele>
        <time>2023-01-06T13:41:58Z</time>
      </trkpt>
      <trkpt lat="43.6012" lon="6.31866">
        <ele>718</ele>
        <time>2023-01-06T13:41:59Z</time>
      </trkpt>
      <trkpt lat="43.60121" lon="6.31866">
        <ele>718</ele>
        <time>2023-01-06T13:42:00Z</time>
      </trkpt>
      <trkpt lat="43.60122" lon="6.31865">
        <ele>718</ele>
        <time>2023-01-06T13:42:01Z</time>
      </trkpt>
      <trkpt lat="43.60123" lon="6.31864">
        <ele>718</ele>
        <time>2023-01-06T13:42:02Z</time>
      </trkpt>
      <trkpt lat="43.60123" lon="6.31864">
        <ele>718</ele>
        <time>2023-01-06T13:42:03Z</time>
      </trkpt>
      <trkpt lat="43.60124" lon="6.31863">
        <ele>718</ele>
        <time>2023-01-06T13:42:04Z</time>
      </trkpt>
      <trkpt lat="43.60125" lon="6.31862">
        <ele>718</ele>
        <time>2023-01-06T13:42:05Z</time>
      </trkpt>
      <trkpt lat="43.60126" lon="6.31862">
        <ele>718</ele>
        <time>2023-01-06T13:42:06Z</time>
      </trkpt>
      <trkpt lat="43.60126" lon="6.31861">
        <ele>718</ele>
        <time>2023-01-06T13:42:07Z</time>
      </trkpt>
      <trkpt lat="43.60127" lon="6.3186">
        <ele>718</ele>
        <time>2023-01-06T13:42:08Z</time>
      </trkpt>
      <trkpt lat="43.60128" lon="6.31859">
        <ele>718</ele>
        <time>2023-01-06T13:42:09Z</time>
      </trkpt>
      <trkpt lat="43.6013" lon="6.31858">
        <ele>717</ele>
        <time>2023-01-06T13:42:10Z</time>
      </trkpt>
      <trkpt lat="43.60131" lon="6.31857">
        <ele>717</ele>
        <time>2023-01-06T13:42:11Z</time>
      </trkpt>
      <trkpt lat="43.60133" lon="6.31855">
        <ele>717</ele>
        <time>2023-01-06T13:42:12Z</time>
      </trkpt>
      <trkpt lat="43.60134" lon="6.31854">
        <ele>717</ele>
        <time>2023-01-06T13:42:13Z</time>
      </trkpt>
      <trkpt lat="43.60135" lon="6.31853">
        <ele>716</ele>
        <time>2023-01-06T13:42:14Z</time>
      </trkpt>
      <trkpt lat="43.60136" lon="6.31852">
        <ele>716</ele>
        <time>2023-01-06T13:42:15Z</time>
      </trkpt>
      <trkpt lat="43.60137" lon="6.31851">
        <ele>716</ele>
        <time>2023-01-06T13:42:16Z</time>
      </trkpt>
      <trkpt lat="43.60138" lon="6.3185">
        <ele>716</ele>
        <time>2023-01-06T13:42:17Z</time>
      </trkpt>
      <trkpt lat="43.60139" lon="6.31848">
        <ele>716</ele>
        <time>2023-01-06T13:42:18Z</time>
      </trkpt>
      <trkpt lat="43.6014" lon="6.31847">
        <ele>716</ele>
        <time>2023-01-06T13:42:19Z</time>
      </trkpt>
      <trkpt lat="43.60141" lon="6.31846">
        <ele>715</ele>
        <time>2023-01-06T13:42:20Z</time>
      </trkpt>
      <trkpt lat="43.60142" lon="6.31845">
        <ele>715</ele>
        <time>2023-01-06T13:42:21Z</time>
      </trkpt>
      <trkpt lat="43.60142" lon="6.31844">
        <ele>715</ele>
        <time>2023-01-06T13:42:22Z</time>
      </trkpt>
      <trkpt lat="43.60143" lon="6.31843">
        <ele>714</ele>
        <time>2023-01-06T13:42:23Z</time>
      </trkpt>
      <trkpt lat="43.60144" lon="6.31842">
        <ele>714</ele>
        <time>2023-01-06T13:42:24Z</time>
      </trkpt>
      <trkpt lat="43.60144" lon="6.31841">
        <ele>714</ele>
        <time>2023-01-06T13:42:25Z</time>
      </trkpt>
      <trkpt lat="43.60145" lon="6.31839">
        <ele>714</ele>
        <time>2023-01-06T13:42:26Z</time>
      </trkpt>
      <trkpt lat="43.60146" lon="6.31838">
        <ele>714</ele>
        <time>2023-01-06T13:42:27Z</time>
      </trkpt>
      <trkpt lat="43.60147" lon="6.31837">
        <ele>714</ele>
        <time>2023-01-06T13:42:28Z</time>
      </trkpt>
      <trkpt lat="43.60148" lon="6.31835">
        <ele>714</ele>
        <time>2023-01-06T13:42:29Z</time>
      </trkpt>
      <trkpt lat="43.60149" lon="6.31834">
        <ele>714</ele>
        <time>2023-01-06T13:42:30Z</time>
      </trkpt>
      <trkpt lat="43.60149" lon="6.31833">
        <ele>714</ele>
        <time>2023-01-06T13:42:31Z</time>
      </trkpt>
      <trkpt lat="43.6015" lon="6.31832">
        <ele>714</ele>
        <time>2023-01-06T13:42:32Z</time>
      </trkpt>
      <trkpt lat="43.60151" lon="6.31831">
        <ele>713</ele>
        <time>2023-01-06T13:42:33Z</time>
      </trkpt>
      <trkpt lat="43.60152" lon="6.31831">
        <ele>713</ele>
        <time>2023-01-06T13:42:34Z</time>
      </trkpt>
      <trkpt lat="43.60153" lon="6.3183">
        <ele>713</ele>
        <time>2023-01-06T13:42:35Z</time>
      </trkpt>
      <trkpt lat="43.60154" lon="6.3183">
        <ele>713</ele>
        <time>2023-01-06T13:42:36Z</time>
      </trkpt>
      <trkpt lat="43.60155" lon="6.31829">
        <ele>713</ele>
        <time>2023-01-06T13:42:37Z</time>
      </trkpt>
      <trkpt lat="43.60156" lon="6.31829">
        <ele>713</ele>
        <time>2023-01-06T13:42:38Z</time>
      </trkpt>
      <trkpt lat="43.60157" lon="6.31829">
        <ele>713</ele>
        <time>2023-01-06T13:42:39Z</time>
      </trkpt>
      <trkpt lat="43.60158" lon="6.31829">
        <ele>713</ele>
        <time>2023-01-06T13:42:40Z</time>
      </trkpt>
      <trkpt lat="43.60159" lon="6.31829">
        <ele>713</ele>
        <time>2023-01-06T13:42:41Z</time>
      </trkpt>
      <trkpt lat="43.60159" lon="6.3183">
        <ele>713</ele>
        <time>2023-01-06T13:42:42Z</time>
      </trkpt>
      <trkpt lat="43.6016" lon="6.3183">
        <ele>713</ele>
        <time>2023-01-06T13:42:43Z</time>
      </trkpt>
      <trkpt lat="43.60161" lon="6.3183">
        <ele>712</ele>
        <time>2023-01-06T13:42:44Z</time>
      </trkpt>
      <trkpt lat="43.60162" lon="6.31831">
        <ele>711</ele>
        <time>2023-01-06T13:42:45Z</time>
      </trkpt>
      <trkpt lat="43.60164" lon="6.31831">
        <ele>711</ele>
        <time>2023-01-06T13:42:46Z</time>
      </trkpt>
      <trkpt lat="43.60165" lon="6.31832">
        <ele>710</ele>
        <time>2023-01-06T13:42:47Z</time>
      </trkpt>
      <trkpt lat="43.60166" lon="6.31832">
        <ele>710</ele>
        <time>2023-01-06T13:42:48Z</time>
      </trkpt>
      <trkpt lat="43.60167" lon="6.31833">
        <ele>710</ele>
        <time>2023-01-06T13:42:49Z</time>
      </trkpt>
      <trkpt lat="43.60168" lon="6.31833">
        <ele>710</ele>
        <time>2023-01-06T13:42:50Z</time>
      </trkpt>
      <trkpt lat="43.60168" lon="6.31834">
        <ele>710</ele>
        <time>2023-01-06T13:42:51Z</time>
      </trkpt>
      <trkpt lat="43.60168" lon="6.31835">
        <ele>710</ele>
        <time>2023-01-06T13:42:52Z</time>
      </trkpt>
      <trkpt lat="43.60169" lon="6.31836">
        <ele>710</ele>
        <time>2023-01-06T13:42:53Z</time>
      </trkpt>
      <trkpt lat="43.60169" lon="6.31837">
        <ele>710</ele>
        <time>2023-01-06T13:42:54Z</time>
      </trkpt>
      <trkpt lat="43.6017" lon="6.31838">
        <ele>710</ele>
        <time>2023-01-06T13:42:55Z</time>
      </trkpt>
      <trkpt lat="43.60171" lon="6.31839">
        <ele>710</ele>
        <time>2023-01-06T13:42:56Z</time>
      </trkpt>
      <trkpt lat="43.60171" lon="6.3184">
        <ele>710</ele>
        <time>2023-01-06T13:42:57Z</time>
      </trkpt>
      <trkpt lat="43.60172" lon="6.31841">
        <ele>710</ele>
        <time>2023-01-06T13:42:58Z</time>
      </trkpt>
      <trkpt lat="43.60173" lon="6.31842">
        <ele>709</ele>
        <time>2023-01-06T13:42:59Z</time>
      </trkpt>
      <trkpt lat="43.60174" lon="6.31843">
        <ele>709</ele>
        <time>2023-01-06T13:43:00Z</time>
      </trkpt>
      <trkpt lat="43.60174" lon="6.31844">
        <ele>709</ele>
        <time>2023-01-06T13:43:01Z</time>
      </trkpt>
      <trkpt lat="43.60175" lon="6.31845">
        <ele>709</ele>
        <time>2023-01-06T13:43:02Z</time>
      </trkpt>
      <trkpt lat="43.60176" lon="6.31846">
        <ele>709</ele>
        <time>2023-01-06T13:43:03Z</time>
      </trkpt>
      <trkpt lat="43.60177" lon="6.31847">
        <ele>709</ele>
        <time>2023-01-06T13:43:04Z</time>
      </trkpt>
      <trkpt lat="43.60178" lon="6.31847">
        <ele>708</ele>
        <time>2023-01-06T13:43:05Z</time>
      </trkpt>
      <trkpt lat="43.60179" lon="6.31848">
        <ele>708</ele>
        <time>2023-01-06T13:43:06Z</time>
      </trkpt>
      <trkpt lat="43.6018" lon="6.31849">
        <ele>708</ele>
        <time>2023-01-06T13:43:07Z</time>
      </trkpt>
      <trkpt lat="43.60181" lon="6.31849">
        <ele>708</ele>
        <time>2023-01-06T13:43:08Z</time>
      </trkpt>
      <trkpt lat="43.60182" lon="6.3185">
        <ele>707</ele>
        <time>2023-01-06T13:43:09Z</time>
      </trkpt>
      <trkpt lat="43.60183" lon="6.31851">
        <ele>707</ele>
        <time>2023-01-06T13:43:10Z</time>
      </trkpt>
      <trkpt lat="43.60184" lon="6.31851">
        <ele>707</ele>
        <time>2023-01-06T13:43:11Z</time>
      </trkpt>
      <trkpt lat="43.60185" lon="6.31852">
        <ele>707</ele>
        <time>2023-01-06T13:43:12Z</time>
      </trkpt>
      <trkpt lat="43.60186" lon="6.31852">
        <ele>707</ele>
        <time>2023-01-06T13:43:13Z</time>
      </trkpt>
      <trkpt lat="43.60187" lon="6.31852">
        <ele>706</ele>
        <time>2023-01-06T13:43:14Z</time>
      </trkpt>
      <trkpt lat="43.60189" lon="6.31853">
        <ele>706</ele>
        <time>2023-01-06T13:43:15Z</time>
      </trkpt>
      <trkpt lat="43.6019" lon="6.31853">
        <ele>706</ele>
        <time>2023-01-06T13:43:16Z</time>
      </trkpt>
      <trkpt lat="43.6019" lon="6.31853">
        <ele>705</ele>
        <time>2023-01-06T13:43:17Z</time>
      </trkpt>
      <trkpt lat="43.60191" lon="6.31853">
        <ele>705</ele>
        <time>2023-01-06T13:43:18Z</time>
      </trkpt>
      <trkpt lat="43.60192" lon="6.31854">
        <ele>705</ele>
        <time>2023-01-06T13:43:19Z</time>
      </trkpt>
      <trkpt lat="43.60193" lon="6.31854">
        <ele>705</ele>
        <time>2023-01-06T13:43:20Z</time>
      </trkpt>
      <trkpt lat="43.60194" lon="6.31855">
        <ele>705</ele>
        <time>2023-01-06T13:43:21Z</time>
      </trkpt>
      <trkpt lat="43.60195" lon="6.31855">
        <ele>705</ele>
        <time>2023-01-06T13:43:22Z</time>
      </trkpt>
      <trkpt lat="43.60196" lon="6.31856">
        <ele>705</ele>
        <time>2023-01-06T13:43:23Z</time>
      </trkpt>
      <trkpt lat="43.60196" lon="6.31856">
        <ele>705</ele>
        <time>2023-01-06T13:43:24Z</time>
      </trkpt>
      <trkpt lat="43.60197" lon="6.31857">
        <ele>705</ele>
        <time>2023-01-06T13:43:25Z</time>
      </trkpt>
      <trkpt lat="43.60198" lon="6.31857">
        <ele>704</ele>
        <time>2023-01-06T13:43:26Z</time>
      </trkpt>
      <trkpt lat="43.60199" lon="6.31857">
        <ele>704</ele>
        <time>2023-01-06T13:43:27Z</time>
      </trkpt>
      <trkpt lat="43.602" lon="6.31857">
        <ele>704</ele>
        <time>2023-01-06T13:43:28Z</time>
      </trkpt>
      <trkpt lat="43.60201" lon="6.31857">
        <ele>704</ele>
        <time>2023-01-06T13:43:29Z</time>
      </trkpt>
      <trkpt lat="43.60202" lon="6.31858">
        <ele>704</ele>
        <time>2023-01-06T13:43:30Z</time>
      </trkpt>
      <trkpt lat="43.60204" lon="6.31857">
        <ele>703</ele>
        <time>2023-01-06T13:43:31Z</time>
      </trkpt>
      <trkpt lat="43.60205" lon="6.31857">
        <ele>703</ele>
        <time>2023-01-06T13:43:32Z</time>
      </trkpt>
      <trkpt lat="43.60206" lon="6.31857">
        <ele>703</ele>
        <time>2023-01-06T13:43:33Z</time>
      </trkpt>
      <trkpt lat="43.60207" lon="6.31857">
        <ele>703</ele>
        <time>2023-01-06T13:43:34Z</time>
      </trkpt>
      <trkpt lat="43.60208" lon="6.31857">
        <ele>704</ele>
        <time>2023-01-06T13:43:35Z</time>
      </trkpt>
      <trkpt lat="43.60209" lon="6.31856">
        <ele>704</ele>
        <time>2023-01-06T13:43:36Z</time>
      </trkpt>
      <trkpt lat="43.6021" lon="6.31856">
        <ele>704</ele>
        <time>2023-01-06T13:43:37Z</time>
      </trkpt>
      <trkpt lat="43.60211" lon="6.31856">
        <ele>704</ele>
        <time>2023-01-06T13:43:38Z</time>
      </trkpt>
      <trkpt lat="43.60212" lon="6.31856">
        <ele>704</ele>
        <time>2023-01-06T13:43:39Z</time>
      </trkpt>
      <trkpt lat="43.60213" lon="6.31856">
        <ele>705</ele>
        <time>2023-01-06T13:43:40Z</time>
      </trkpt>
      <trkpt lat="43.60214" lon="6.31856">
        <ele>705</ele>
        <time>2023-01-06T13:43:41Z</time>
      </trkpt>
      <trkpt lat="43.60215" lon="6.31856">
        <ele>705</ele>
        <time>2023-01-06T13:43:42Z</time>
      </trkpt>
      <trkpt lat="43.60216" lon="6.31856">
        <ele>705</ele>
        <time>2023-01-06T13:43:43Z</time>
      </trkpt>
      <trkpt lat="43.60217" lon="6.31856">
        <ele>705</ele>
        <time>2023-01-06T13:43:44Z</time>
      </trkpt>
      <trkpt lat="43.60218" lon="6.31856">
        <ele>705</ele>
        <time>2023-01-06T13:43:45Z</time>
      </trkpt>
      <trkpt lat="43.60219" lon="6.31856">
        <ele>705</ele>
        <time>2023-01-06T13:43:46Z</time>
      </trkpt>
      <trkpt lat="43.6022" lon="6.31856">
        <ele>705</ele>
        <time>2023-01-06T13:43:47Z</time>
      </trkpt>
      <trkpt lat="43.60221" lon="6.31856">
        <ele>705</ele>
        <time>2023-01-06T13:43:48Z</time>
      </trkpt>
      <trkpt lat="43.60222" lon="6.31856">
        <ele>705</ele>
        <time>2023-01-06T13:43:49Z</time>
      </trkpt>
      <trkpt lat="43.60223" lon="6.31856">
        <ele>705</ele>
        <time>2023-01-06T13:43:50Z</time>
      </trkpt>
      <trkpt lat="43.60224" lon="6.31856">
        <ele>705</ele>
        <time>2023-01-06T13:43:51Z</time>
      </trkpt>
      <trkpt lat="43.60225" lon="6.31856">
        <ele>705</ele>
        <time>2023-01-06T13:43:52Z</time>
      </trkpt>
      <trkpt lat="43.60226" lon="6.31856">
        <ele>705</ele>
        <time>2023-01-06T13:43:53Z</time>
      </trkpt>
      <trkpt lat="43.60227" lon="6.31857">
        <ele>705</ele>
        <time>2023-01-06T13:43:54Z</time>
      </trkpt>
      <trkpt lat="43.60228" lon="6.31857">
        <ele>705</ele>
        <time>2023-01-06T13:43:55Z</time>
      </trkpt>
      <trkpt lat="43.60229" lon="6.31857">
        <ele>705</ele>
        <time>2023-01-06T13:43:56Z</time>
      </trkpt>
      <trkpt lat="43.6023" lon="6.31857">
        <ele>704</ele>
        <time>2023-01-06T13:43:57Z</time>
      </trkpt>
      <trkpt lat="43.60231" lon="6.31857">
        <ele>704</ele>
        <time>2023-01-06T13:43:58Z</time>
      </trkpt>
      <trkpt lat="43.60232" lon="6.31857">
        <ele>704</ele>
        <time>2023-01-06T13:43:59Z</time>
      </trkpt>
      <trkpt lat="43.60233" lon="6.31858">
        <ele>704</ele>
        <time>2023-01-06T13:44:00Z</time>
      </trkpt>
      <trkpt lat="43.60234" lon="6.31858">
        <ele>704</ele>
        <time>2023-01-06T13:44:01Z</time>
      </trkpt>
      <trkpt lat="43.60235" lon="6.31858">
        <ele>704</ele>
        <time>2023-01-06T13:44:02Z</time>
      </trkpt>
      <trkpt lat="43.60236" lon="6.31859">
        <ele>703</ele>
        <time>2023-01-06T13:44:03Z</time>
      </trkpt>
      <trkpt lat="43.60237" lon="6.31859">
        <ele>703</ele>
        <time>2023-01-06T13:44:04Z</time>
      </trkpt>
      <trkpt lat="43.60238" lon="6.31859">
        <ele>703</ele>
        <time>2023-01-06T13:44:05Z</time>
      </trkpt>
      <trkpt lat="43.60239" lon="6.3186">
        <ele>703</ele>
        <time>2023-01-06T13:44:06Z</time>
      </trkpt>
      <trkpt lat="43.6024" lon="6.3186">
        <ele>703</ele>
        <time>2023-01-06T13:44:07Z</time>
      </trkpt>
      <trkpt lat="43.60241" lon="6.31861">
        <ele>703</ele>
        <time>2023-01-06T13:44:08Z</time>
      </trkpt>
      <trkpt lat="43.60242" lon="6.31861">
        <ele>703</ele>
        <time>2023-01-06T13:44:09Z</time>
      </trkpt>
      <trkpt lat="43.60243" lon="6.31862">
        <ele>703</ele>
        <time>2023-01-06T13:44:10Z</time>
      </trkpt>
      <trkpt lat="43.60244" lon="6.31862">
        <ele>703</ele>
        <time>2023-01-06T13:44:11Z</time>
      </trkpt>
      <trkpt lat="43.60245" lon="6.31863">
        <ele>703</ele>
        <time>2023-01-06T13:44:12Z</time>
      </trkpt>
      <trkpt lat="43.60245" lon="6.31864">
        <ele>703</ele>
        <time>2023-01-06T13:44:13Z</time>
      </trkpt>
      <trkpt lat="43.60246" lon="6.31865">
        <ele>703</ele>
        <time>2023-01-06T13:44:14Z</time>
      </trkpt>
      <trkpt lat="43.60247" lon="6.31866">
        <ele>703</ele>
        <time>2023-01-06T13:44:15Z</time>
      </trkpt>
      <trkpt lat="43.60248" lon="6.31866">
        <ele>703</ele>
        <time>2023-01-06T13:44:16Z</time>
      </trkpt>
      <trkpt lat="43.60249" lon="6.31867">
        <ele>704</ele>
        <time>2023-01-06T13:44:17Z</time>
      </trkpt>
      <trkpt lat="43.6025" lon="6.31868">
        <ele>704</ele>
        <time>2023-01-06T13:44:18Z</time>
      </trkpt>
      <trkpt lat="43.6025" lon="6.31869">
        <ele>704</ele>
        <time>2023-01-06T13:44:19Z</time>
      </trkpt>
      <trkpt lat="43.60251" lon="6.3187">
        <ele>704</ele>
        <time>2023-01-06T13:44:20Z</time>
      </trkpt>
      <trkpt lat="43.60251" lon="6.3187">
        <ele>704</ele>
        <time>2023-01-06T13:44:21Z</time>
      </trkpt>
      <trkpt lat="43.60252" lon="6.31871">
        <ele>704</ele>
        <time>2023-01-06T13:44:22Z</time>
      </trkpt>
      <trkpt lat="43.60253" lon="6.31872">
        <ele>704</ele>
        <time>2023-01-06T13:44:23Z</time>
      </trkpt>
      <trkpt lat="43.60254" lon="6.31873">
        <ele>704</ele>
        <time>2023-01-06T13:44:24Z</time>
      </trkpt>
      <trkpt lat="43.60255" lon="6.31875">
        <ele>704</ele>
        <time>2023-01-06T13:44:25Z</time>
      </trkpt>
      <trkpt lat="43.60255" lon="6.31876">
        <ele>705</ele>
        <time>2023-01-06T13:44:26Z</time>
      </trkpt>
      <trkpt lat="43.60256" lon="6.31877">
        <ele>705</ele>
        <time>2023-01-06T13:44:27Z</time>
      </trkpt>
      <trkpt lat="43.60257" lon="6.31878">
        <ele>705</ele>
        <time>2023-01-06T13:44:28Z</time>
      </trkpt>
      <trkpt lat="43.60257" lon="6.31878">
        <ele>705</ele>
        <time>2023-01-06T13:44:29Z</time>
      </trkpt>
      <trkpt lat="43.60258" lon="6.31879">
        <ele>705</ele>
        <time>2023-01-06T13:44:30Z</time>
      </trkpt>
      <trkpt lat="43.60259" lon="6.3188">
        <ele>705</ele>
        <time>2023-01-06T13:44:31Z</time>
      </trkpt>
      <trkpt lat="43.6026" lon="6.3188">
        <ele>705</ele>
        <time>2023-01-06T13:44:32Z</time>
      </trkpt>
      <trkpt lat="43.60261" lon="6.31881">
        <ele>705</ele>
        <time>2023-01-06T13:44:33Z</time>
      </trkpt>
      <trkpt lat="43.60262" lon="6.31882">
        <ele>705</ele>
        <time>2023-01-06T13:44:34Z</time>
      </trkpt>
      <trkpt lat="43.60263" lon="6.31882">
        <ele>705</ele>
        <time>2023-01-06T13:44:35Z</time>
      </trkpt>
      <trkpt lat="43.60264" lon="6.31882">
        <ele>705</ele>
        <time>2023-01-06T13:44:36Z</time>
      </trkpt>
      <trkpt lat="43.60265" lon="6.31883">
        <ele>705</ele>
        <time>2023-01-06T13:44:37Z</time>
      </trkpt>
      <trkpt lat="43.60266" lon="6.31883">
        <ele>705</ele>
        <time>2023-01-06T13:44:38Z</time>
      </trkpt>
      <trkpt lat="43.60267" lon="6.31884">
        <ele>705</ele>
        <time>2023-01-06T13:44:39Z</time>
      </trkpt>
      <trkpt lat="43.60267" lon="6.31884">
        <ele>705</ele>
        <time>2023-01-06T13:44:40Z</time>
      </trkpt>
      <trkpt lat="43.60268" lon="6.31884">
        <ele>705</ele>
        <time>2023-01-06T13:44:41Z</time>
      </trkpt>
      <trkpt lat="43.60269" lon="6.31885">
        <ele>705</ele>
        <time>2023-01-06T13:44:42Z</time>
      </trkpt>
      <trkpt lat="43.6027" lon="6.31884">
        <ele>705</ele>
        <time>2023-01-06T13:44:43Z</time>
      </trkpt>
      <trkpt lat="43.60271" lon="6.31885">
        <ele>705</ele>
        <time>2023-01-06T13:44:44Z</time>
      </trkpt>
      <trkpt lat="43.60272" lon="6.31885">
        <ele>706</ele>
        <time>2023-01-06T13:44:45Z</time>
      </trkpt>
      <trkpt lat="43.60272" lon="6.31886">
        <ele>706</ele>
        <time>2023-01-06T13:44:46Z</time>
      </trkpt>
      <trkpt lat="43.60273" lon="6.31887">
        <ele>706</ele>
        <time>2023-01-06T13:44:47Z</time>
      </trkpt>
      <trkpt lat="43.60274" lon="6.31887">
        <ele>706</ele>
        <time>2023-01-06T13:44:48Z</time>
      </trkpt>
      <trkpt lat="43.60275" lon="6.31888">
        <ele>706</ele>
        <time>2023-01-06T13:44:49Z</time>
      </trkpt>
      <trkpt lat="43.60276" lon="6.31889">
        <ele>706</ele>
        <time>2023-01-06T13:44:50Z</time>
      </trkpt>
      <trkpt lat="43.60277" lon="6.31889">
        <ele>706</ele>
        <time>2023-01-06T13:44:51Z</time>
      </trkpt>
      <trkpt lat="43.60278" lon="6.3189">
        <ele>706</ele>
        <time>2023-01-06T13:44:52Z</time>
      </trkpt>
      <trkpt lat="43.60279" lon="6.31891">
        <ele>706</ele>
        <time>2023-01-06T13:44:53Z</time>
      </trkpt>
      <trkpt lat="43.6028" lon="6.31892">
        <ele>706</ele>
        <time>2023-01-06T13:44:54Z</time>
      </trkpt>
      <trkpt lat="43.60281" lon="6.31892">
        <ele>706</ele>
        <time>2023-01-06T13:44:55Z</time>
      </trkpt>
      <trkpt lat="43.60282" lon="6.31893">
        <ele>706</ele>
        <time>2023-01-06T13:44:56Z</time>
      </trkpt>
      <trkpt lat="43.60283" lon="6.31894">
        <ele>706</ele>
        <time>2023-01-06T13:44:57Z</time>
      </trkpt>
      <trkpt lat="43.60284" lon="6.31895">
        <ele>706</ele>
        <time>2023-01-06T13:44:58Z</time>
      </trkpt>
      <trkpt lat="43.60285" lon="6.31895">
        <ele>706</ele>
        <time>2023-01-06T13:44:59Z</time>
      </trkpt>
      <trkpt lat="43.60286" lon="6.31896">
        <ele>707</ele>
        <time>2023-01-06T13:45:00Z</time>
      </trkpt>
      <trkpt lat="43.60287" lon="6.31896">
        <ele>707</ele>
        <time>2023-01-06T13:45:01Z</time>
      </trkpt>
      <trkpt lat="43.60288" lon="6.31897">
        <ele>707</ele>
        <time>2023-01-06T13:45:02Z</time>
      </trkpt>
      <trkpt lat="43.60289" lon="6.31898">
        <ele>707</ele>
        <time>2023-01-06T13:45:03Z</time>
      </trkpt>
      <trkpt lat="43.6029" lon="6.31898">
        <ele>707</ele>
        <time>2023-01-06T13:45:04Z</time>
      </trkpt>
      <trkpt lat="43.60291" lon="6.31899">
        <ele>707</ele>
        <time>2023-01-06T13:45:05Z</time>
      </trkpt>
      <trkpt lat="43.60292" lon="6.319">
        <ele>707</ele>
        <time>2023-01-06T13:45:06Z</time>
      </trkpt>
      <trkpt lat="43.60293" lon="6.31901">
        <ele>707</ele>
        <time>2023-01-06T13:45:07Z</time>
      </trkpt>
      <trkpt lat="43.60293" lon="6.31902">
        <ele>708</ele>
        <time>2023-01-06T13:45:08Z</time>
      </trkpt>
      <trkpt lat="43.60294" lon="6.31902">
        <ele>708</ele>
        <time>2023-01-06T13:45:09Z</time>
      </trkpt>
      <trkpt lat="43.60295" lon="6.31903">
        <ele>708</ele>
        <time>2023-01-06T13:45:10Z</time>
      </trkpt>
      <trkpt lat="43.60296" lon="6.31904">
        <ele>708</ele>
        <time>2023-01-06T13:45:11Z</time>
      </trkpt>
      <trkpt lat="43.60297" lon="6.31904">
        <ele>708</ele>
        <time>2023-01-06T13:45:12Z</time>
      </trkpt>
      <trkpt lat="43.60298" lon="6.31905">
        <ele>708</ele>
        <time>2023-01-06T13:45:13Z</time>
      </trkpt>
      <trkpt lat="43.60299" lon="6.31905">
        <ele>708</ele>
        <time>2023-01-06T13:45:14Z</time>
      </trkpt>
      <trkpt lat="43.603" lon="6.31906">
        <ele>708</ele>
        <time>2023-01-06T13:45:15Z</time>
      </trkpt>
      <trkpt lat="43.603" lon="6.31907">
        <ele>708</ele>
        <time>2023-01-06T13:45:16Z</time>
      </trkpt>
      <trkpt lat="43.60301" lon="6.31908">
        <ele>708</ele>
        <time>2023-01-06T13:45:17Z</time>
      </trkpt>
      <trkpt lat="43.60302" lon="6.31909">
        <ele>708</ele>
        <time>2023-01-06T13:45:18Z</time>
      </trkpt>
      <trkpt lat="43.60303" lon="6.3191">
        <ele>708</ele>
        <time>2023-01-06T13:45:19Z</time>
      </trkpt>
      <trkpt lat="43.60304" lon="6.3191">
        <ele>708</ele>
        <time>2023-01-06T13:45:20Z</time>
      </trkpt>
      <trkpt lat="43.60305" lon="6.31911">
        <ele>708</ele>
        <time>2023-01-06T13:45:21Z</time>
      </trkpt>
      <trkpt lat="43.60305" lon="6.31912">
        <ele>708</ele>
        <time>2023-01-06T13:45:22Z</time>
      </trkpt>
      <trkpt lat="43.60306" lon="6.31912">
        <ele>708</ele>
        <time>2023-01-06T13:45:23Z</time>
      </trkpt>
      <trkpt lat="43.60307" lon="6.31913">
        <ele>708</ele>
        <time>2023-01-06T13:45:24Z</time>
      </trkpt>
      <trkpt lat="43.60308" lon="6.31914">
        <ele>707</ele>
        <time>2023-01-06T13:45:25Z</time>
      </trkpt>
      <trkpt lat="43.60309" lon="6.31915">
        <ele>707</ele>
        <time>2023-01-06T13:45:26Z</time>
      </trkpt>
      <trkpt lat="43.6031" lon="6.31916">
        <ele>707</ele>
        <time>2023-01-06T13:45:27Z</time>
      </trkpt>
      <trkpt lat="43.60311" lon="6.31917">
        <ele>707</ele>
        <time>2023-01-06T13:45:28Z</time>
      </trkpt>
      <trkpt lat="43.60311" lon="6.31919">
        <ele>707</ele>
        <time>2023-01-06T13:45:29Z</time>
      </trkpt>
      <trkpt lat="43.60313" lon="6.3192">
        <ele>707</ele>
        <time>2023-01-06T13:45:30Z</time>
      </trkpt>
      <trkpt lat="43.60313" lon="6.31921">
        <ele>706</ele>
        <time>2023-01-06T13:45:31Z</time>
      </trkpt>
      <trkpt lat="43.60314" lon="6.31922">
        <ele>706</ele>
        <time>2023-01-06T13:45:32Z</time>
      </trkpt>
      <trkpt lat="43.60315" lon="6.31923">
        <ele>706</ele>
        <time>2023-01-06T13:45:33Z</time>
      </trkpt>
      <trkpt lat="43.60315" lon="6.31924">
        <ele>706</ele>
        <time>2023-01-06T13:45:34Z</time>
      </trkpt>
      <trkpt lat="43.60316" lon="6.31926">
        <ele>706</ele>
        <time>2023-01-06T13:45:35Z</time>
      </trkpt>
      <trkpt lat="43.60317" lon="6.31927">
        <ele>706</ele>
        <time>2023-01-06T13:45:36Z</time>
      </trkpt>
      <trkpt lat="43.60318" lon="6.31928">
        <ele>706</ele>
        <time>2023-01-06T13:45:37Z</time>
      </trkpt>
      <trkpt lat="43.60319" lon="6.31928">
        <ele>706</ele>
        <time>2023-01-06T13:45:38Z</time>
      </trkpt>
      <trkpt lat="43.6032" lon="6.31929">
        <ele>706</ele>
        <time>2023-01-06T13:45:39Z</time>
      </trkpt>
      <trkpt lat="43.60321" lon="6.3193">
        <ele>706</ele>
        <time>2023-01-06T13:45:40Z</time>
      </trkpt>
      <trkpt lat="43.60322" lon="6.31931">
        <ele>706</ele>
        <time>2023-01-06T13:45:41Z</time>
      </trkpt>
      <trkpt lat="43.60323" lon="6.31931">
        <ele>706</ele>
        <time>2023-01-06T13:45:42Z</time>
      </trkpt>
      <trkpt lat="43.60324" lon="6.31932">
        <ele>706</ele>
        <time>2023-01-06T13:45:43Z</time>
      </trkpt>
      <trkpt lat="43.60324" lon="6.31932">
        <ele>707</ele>
        <time>2023-01-06T13:45:44Z</time>
      </trkpt>
      <trkpt lat="43.60325" lon="6.31932">
        <ele>707</ele>
        <time>2023-01-06T13:45:45Z</time>
      </trkpt>
      <trkpt lat="43.60325" lon="6.31933">
        <ele>707</ele>
        <time>2023-01-06T13:45:46Z</time>
      </trkpt>
      <trkpt lat="43.60326" lon="6.31933">
        <ele>707</ele>
        <time>2023-01-06T13:45:47Z</time>
      </trkpt>
      <trkpt lat="43.60326" lon="6.31934">
        <ele>708</ele>
        <time>2023-01-06T13:45:48Z</time>
      </trkpt>
      <trkpt lat="43.60327" lon="6.31934">
        <ele>708</ele>
        <time>2023-01-06T13:45:49Z</time>
      </trkpt>
      <trkpt lat="43.60328" lon="6.31934">
        <ele>709</ele>
        <time>2023-01-06T13:45:50Z</time>
      </trkpt>
      <trkpt lat="43.60328" lon="6.31935">
        <ele>709</ele>
        <time>2023-01-06T13:45:51Z</time>
      </trkpt>
      <trkpt lat="43.60329" lon="6.31935">
        <ele>709</ele>
        <time>2023-01-06T13:45:52Z</time>
      </trkpt>
      <trkpt lat="43.60329" lon="6.31935">
        <ele>709</ele>
        <time>2023-01-06T13:45:53Z</time>
      </trkpt>
      <trkpt lat="43.6033" lon="6.31936">
        <ele>709</ele>
        <time>2023-01-06T13:45:54Z</time>
      </trkpt>
      <trkpt lat="43.60331" lon="6.31936">
        <ele>709</ele>
        <time>2023-01-06T13:45:55Z</time>
      </trkpt>
      <trkpt lat="43.60332" lon="6.31937">
        <ele>709</ele>
        <time>2023-01-06T13:45:56Z</time>
      </trkpt>
      <trkpt lat="43.60333" lon="6.31938">
        <ele>709</ele>
        <time>2023-01-06T13:45:57Z</time>
      </trkpt>
      <trkpt lat="43.60334" lon="6.31938">
        <ele>709</ele>
        <time>2023-01-06T13:45:58Z</time>
      </trkpt>
      <trkpt lat="43.60334" lon="6.31938">
        <ele>709</ele>
        <time>2023-01-06T13:45:59Z</time>
      </trkpt>
      <trkpt lat="43.60335" lon="6.31939">
        <ele>709</ele>
        <time>2023-01-06T13:46:00Z</time>
      </trkpt>
      <trkpt lat="43.60336" lon="6.3194">
        <ele>709</ele>
        <time>2023-01-06T13:46:01Z</time>
      </trkpt>
      <trkpt lat="43.60337" lon="6.3194">
        <ele>709</ele>
        <time>2023-01-06T13:46:02Z</time>
      </trkpt>
      <trkpt lat="43.60338" lon="6.31941">
        <ele>709</ele>
        <time>2023-01-06T13:46:03Z</time>
      </trkpt>
      <trkpt lat="43.60339" lon="6.31942">
        <ele>709</ele>
        <time>2023-01-06T13:46:04Z</time>
      </trkpt>
      <trkpt lat="43.6034" lon="6.31942">
        <ele>709</ele>
        <time>2023-01-06T13:46:05Z</time>
      </trkpt>
      <trkpt lat="43.60341" lon="6.31942">
        <ele>709</ele>
        <time>2023-01-06T13:46:06Z</time>
      </trkpt>
      <trkpt lat="43.60342" lon="6.31943">
        <ele>710</ele>
        <time>2023-01-06T13:46:07Z</time>
      </trkpt>
      <trkpt lat="43.60343" lon="6.31943">
        <ele>710</ele>
        <time>2023-01-06T13:46:08Z</time>
      </trkpt>
      <trkpt lat="43.60344" lon="6.31944">
        <ele>710</ele>
        <time>2023-01-06T13:46:09Z</time>
      </trkpt>
      <trkpt lat="43.60345" lon="6.31944">
        <ele>710</ele>
        <time>2023-01-06T13:46:10Z</time>
      </trkpt>
      <trkpt lat="43.60346" lon="6.31945">
        <ele>710</ele>
        <time>2023-01-06T13:46:11Z</time>
      </trkpt>
      <trkpt lat="43.60347" lon="6.31945">
        <ele>710</ele>
        <time>2023-01-06T13:46:12Z</time>
      </trkpt>
      <trkpt lat="43.60347" lon="6.31946">
        <ele>712</ele>
        <time>2023-01-06T13:46:13Z</time>
      </trkpt>
      <trkpt lat="43.60348" lon="6.31946">
        <ele>712</ele>
        <time>2023-01-06T13:46:14Z</time>
      </trkpt>
      <trkpt lat="43.60349" lon="6.31946">
        <ele>712</ele>
        <time>2023-01-06T13:46:15Z</time>
      </trkpt>
      <trkpt lat="43.6035" lon="6.31946">
        <ele>713</ele>
        <time>2023-01-06T13:46:16Z</time>
      </trkpt>
      <trkpt lat="43.60351" lon="6.31947">
        <ele>713</ele>
        <time>2023-01-06T13:46:17Z</time>
      </trkpt>
      <trkpt lat="43.60352" lon="6.31948">
        <ele>713</ele>
        <time>2023-01-06T13:46:18Z</time>
      </trkpt>
      <trkpt lat="43.60353" lon="6.31948">
        <ele>713</ele>
        <time>2023-01-06T13:46:19Z</time>
      </trkpt>
      <trkpt lat="43.60354" lon="6.31949">
        <ele>713</ele>
        <time>2023-01-06T13:46:20Z</time>
      </trkpt>
      <trkpt lat="43.60355" lon="6.31949">
        <ele>713</ele>
        <time>2023-01-06T13:46:21Z</time>
      </trkpt>
      <trkpt lat="43.60355" lon="6.3195">
        <ele>713</ele>
        <time>2023-01-06T13:46:22Z</time>
      </trkpt>
      <trkpt lat="43.60356" lon="6.3195">
        <ele>712</ele>
        <time>2023-01-06T13:46:23Z</time>
      </trkpt>
      <trkpt lat="43.60357" lon="6.3195">
        <ele>712</ele>
        <time>2023-01-06T13:46:24Z</time>
      </trkpt>
      <trkpt lat="43.60358" lon="6.3195">
        <ele>711</ele>
        <time>2023-01-06T13:46:25Z</time>
      </trkpt>
      <trkpt lat="43.60359" lon="6.3195">
        <ele>711</ele>
        <time>2023-01-06T13:46:26Z</time>
      </trkpt>
      <trkpt lat="43.6036" lon="6.3195">
        <ele>711</ele>
        <time>2023-01-06T13:46:27Z</time>
      </trkpt>
      <trkpt lat="43.60362" lon="6.3195">
        <ele>711</ele>
        <time>2023-01-06T13:46:28Z</time>
      </trkpt>
      <trkpt lat="43.60363" lon="6.3195">
        <ele>710</ele>
        <time>2023-01-06T13:46:29Z</time>
      </trkpt>
      <trkpt lat="43.60364" lon="6.31951">
        <ele>710</ele>
        <time>2023-01-06T13:46:30Z</time>
      </trkpt>
      <trkpt lat="43.60365" lon="6.31951">
        <ele>710</ele>
        <time>2023-01-06T13:46:31Z</time>
      </trkpt>
      <trkpt lat="43.60365" lon="6.31951">
        <ele>710</ele>
        <time>2023-01-06T13:46:32Z</time>
      </trkpt>
      <trkpt lat="43.60366" lon="6.31951">
        <ele>710</ele>
        <time>2023-01-06T13:46:33Z</time>
      </trkpt>
      <trkpt lat="43.60367" lon="6.31951">
        <ele>710</ele>
        <time>2023-01-06T13:46:34Z</time>
      </trkpt>
      <trkpt lat="43.60368" lon="6.31952">
        <ele>710</ele>
        <time>2023-01-06T13:46:35Z</time>
      </trkpt>
      <trkpt lat="43.60369" lon="6.31953">
        <ele>710</ele>
        <time>2023-01-06T13:46:36Z</time>
      </trkpt>
      <trkpt lat="43.6037" lon="6.31954">
        <ele>710</ele>
        <time>2023-01-06T13:46:37Z</time>
      </trkpt>
      <trkpt lat="43.60371" lon="6.31955">
        <ele>710</ele>
        <time>2023-01-06T13:46:38Z</time>
      </trkpt>
      <trkpt lat="43.60372" lon="6.31957">
        <ele>710</ele>
        <time>2023-01-06T13:46:39Z</time>
      </trkpt>
      <trkpt lat="43.60373" lon="6.31958">
        <ele>710</ele>
        <time>2023-01-06T13:46:40Z</time>
      </trkpt>
      <trkpt lat="43.60374" lon="6.31959">
        <ele>710</ele>
        <time>2023-01-06T13:46:41Z</time>
      </trkpt>
      <trkpt lat="43.60375" lon="6.31961">
        <ele>710</ele>
        <time>2023-01-06T13:46:42Z</time>
      </trkpt>
      <trkpt lat="43.60375" lon="6.31962">
        <ele>710</ele>
        <time>2023-01-06T13:46:43Z</time>
      </trkpt>
      <trkpt lat="43.60376" lon="6.31963">
        <ele>710</ele>
        <time>2023-01-06T13:46:44Z</time>
      </trkpt>
      <trkpt lat="43.60377" lon="6.31965">
        <ele>710</ele>
        <time>2023-01-06T13:46:45Z</time>
      </trkpt>
      <trkpt lat="43.60378" lon="6.31966">
        <ele>710</ele>
        <time>2023-01-06T13:46:46Z</time>
      </trkpt>
      <trkpt lat="43.60379" lon="6.31966">
        <ele>710</ele>
        <time>2023-01-06T13:46:47Z</time>
      </trkpt>
      <trkpt lat="43.6038" lon="6.31967">
        <ele>710</ele>
        <time>2023-01-06T13:46:48Z</time>
      </trkpt>
      <trkpt lat="43.60381" lon="6.31967">
        <ele>710</ele>
        <time>2023-01-06T13:46:49Z</time>
      </trkpt>
      <trkpt lat="43.60382" lon="6.31968">
        <ele>710</ele>
        <time>2023-01-06T13:46:50Z</time>
      </trkpt>
      <trkpt lat="43.60382" lon="6.31969">
        <ele>710</ele>
        <time>2023-01-06T13:46:51Z</time>
      </trkpt>
      <trkpt lat="43.60383" lon="6.31969">
        <ele>711</ele>
        <time>2023-01-06T13:46:52Z</time>
      </trkpt>
      <trkpt lat="43.60384" lon="6.3197">
        <ele>711</ele>
        <time>2023-01-06T13:46:53Z</time>
      </trkpt>
      <trkpt lat="43.60384" lon="6.3197">
        <ele>711</ele>
        <time>2023-01-06T13:46:54Z</time>
      </trkpt>
      <trkpt lat="43.60385" lon="6.31969">
        <ele>711</ele>
        <time>2023-01-06T13:46:55Z</time>
      </trkpt>
      <trkpt lat="43.60386" lon="6.31969">
        <ele>711</ele>
        <time>2023-01-06T13:46:56Z</time>
      </trkpt>
      <trkpt lat="43.60387" lon="6.31968">
        <ele>710</ele>
        <time>2023-01-06T13:46:57Z</time>
      </trkpt>
      <trkpt lat="43.60387" lon="6.31969">
        <ele>710</ele>
        <time>2023-01-06T13:46:58Z</time>
      </trkpt>
      <trkpt lat="43.60388" lon="6.3197">
        <ele>710</ele>
        <time>2023-01-06T13:46:59Z</time>
      </trkpt>
      <trkpt lat="43.60389" lon="6.31971">
        <ele>710</ele>
        <time>2023-01-06T13:47:00Z</time>
      </trkpt>
      <trkpt lat="43.60389" lon="6.31972">
        <ele>710</ele>
        <time>2023-01-06T13:47:01Z</time>
      </trkpt>
      <trkpt lat="43.6039" lon="6.31973">
        <ele>709</ele>
        <time>2023-01-06T13:47:02Z</time>
      </trkpt>
      <trkpt lat="43.60391" lon="6.31974">
        <ele>708</ele>
        <time>2023-01-06T13:47:03Z</time>
      </trkpt>
      <trkpt lat="43.60392" lon="6.31974">
        <ele>708</ele>
        <time>2023-01-06T13:47:04Z</time>
      </trkpt>
      <trkpt lat="43.60393" lon="6.31975">
        <ele>708</ele>
        <time>2023-01-06T13:47:05Z</time>
      </trkpt>
      <trkpt lat="43.60394" lon="6.31975">
        <ele>707</ele>
        <time>2023-01-06T13:47:06Z</time>
      </trkpt>
      <trkpt lat="43.60394" lon="6.31974">
        <ele>707</ele>
        <time>2023-01-06T13:47:07Z</time>
      </trkpt>
      <trkpt lat="43.60396" lon="6.31974">
        <ele>707</ele>
        <time>2023-01-06T13:47:08Z</time>
      </trkpt>
      <trkpt lat="43.60397" lon="6.31974">
        <ele>706</ele>
        <time>2023-01-06T13:47:09Z</time>
      </trkpt>
      <trkpt lat="43.60398" lon="6.31973">
        <ele>706</ele>
        <time>2023-01-06T13:47:10Z</time>
      </trkpt>
      <trkpt lat="43.60399" lon="6.31973">
        <ele>705</ele>
        <time>2023-01-06T13:47:11Z</time>
      </trkpt>
      <trkpt lat="43.60399" lon="6.31973">
        <ele>704</ele>
        <time>2023-01-06T13:47:12Z</time>
      </trkpt>
      <trkpt lat="43.604" lon="6.31973">
        <ele>704</ele>
        <time>2023-01-06T13:47:13Z</time>
      </trkpt>
      <trkpt lat="43.60401" lon="6.31972">
        <ele>704</ele>
        <time>2023-01-06T13:47:14Z</time>
      </trkpt>
      <trkpt lat="43.60402" lon="6.31972">
        <ele>704</ele>
        <time>2023-01-06T13:47:15Z</time>
      </trkpt>
      <trkpt lat="43.60403" lon="6.31971">
        <ele>704</ele>
        <time>2023-01-06T13:47:16Z</time>
      </trkpt>
      <trkpt lat="43.60404" lon="6.3197">
        <ele>704</ele>
        <time>2023-01-06T13:47:17Z</time>
      </trkpt>
      <trkpt lat="43.60404" lon="6.31969">
        <ele>704</ele>
        <time>2023-01-06T13:47:18Z</time>
      </trkpt>
      <trkpt lat="43.60405" lon="6.31968">
        <ele>704</ele>
        <time>2023-01-06T13:47:19Z</time>
      </trkpt>
      <trkpt lat="43.60406" lon="6.31967">
        <ele>704</ele>
        <time>2023-01-06T13:47:20Z</time>
      </trkpt>
      <trkpt lat="43.60406" lon="6.31967">
        <ele>704</ele>
        <time>2023-01-06T13:47:21Z</time>
      </trkpt>
      <trkpt lat="43.60407" lon="6.31966">
        <ele>704</ele>
        <time>2023-01-06T13:47:22Z</time>
      </trkpt>
      <trkpt lat="43.60408" lon="6.31965">
        <ele>704</ele>
        <time>2023-01-06T13:47:23Z</time>
      </trkpt>
      <trkpt lat="43.60409" lon="6.31964">
        <ele>704</ele>
        <time>2023-01-06T13:47:24Z</time>
      </trkpt>
      <trkpt lat="43.60409" lon="6.31963">
        <ele>704</ele>
        <time>2023-01-06T13:47:25Z</time>
      </trkpt>
      <trkpt lat="43.6041" lon="6.31962">
        <ele>703</ele>
        <time>2023-01-06T13:47:26Z</time>
      </trkpt>
      <trkpt lat="43.60411" lon="6.31961">
        <ele>703</ele>
        <time>2023-01-06T13:47:27Z</time>
      </trkpt>
      <trkpt lat="43.60412" lon="6.3196">
        <ele>703</ele>
        <time>2023-01-06T13:47:28Z</time>
      </trkpt>
      <trkpt lat="43.60413" lon="6.31959">
        <ele>702</ele>
        <time>2023-01-06T13:47:29Z</time>
      </trkpt>
      <trkpt lat="43.60414" lon="6.31958">
        <ele>702</ele>
        <time>2023-01-06T13:47:30Z</time>
      </trkpt>
      <trkpt lat="43.60415" lon="6.31957">
        <ele>702</ele>
        <time>2023-01-06T13:47:31Z</time>
      </trkpt>
      <trkpt lat="43.60416" lon="6.31956">
        <ele>702</ele>
        <time>2023-01-06T13:47:32Z</time>
      </trkpt>
      <trkpt lat="43.60417" lon="6.31955">
        <ele>701</ele>
        <time>2023-01-06T13:47:33Z</time>
      </trkpt>
      <trkpt lat="43.60419" lon="6.31954">
        <ele>701</ele>
        <time>2023-01-06T13:47:34Z</time>
      </trkpt>
      <trkpt lat="43.6042" lon="6.31952">
        <ele>701</ele>
        <time>2023-01-06T13:47:35Z</time>
      </trkpt>
      <trkpt lat="43.60421" lon="6.31951">
        <ele>701</ele>
        <time>2023-01-06T13:47:36Z</time>
      </trkpt>
      <trkpt lat="43.60423" lon="6.3195">
        <ele>701</ele>
        <time>2023-01-06T13:47:37Z</time>
      </trkpt>
      <trkpt lat="43.60424" lon="6.31949">
        <ele>700</ele>
        <time>2023-01-06T13:47:38Z</time>
      </trkpt>
      <trkpt lat="43.60425" lon="6.31949">
        <ele>700</ele>
        <time>2023-01-06T13:47:39Z</time>
      </trkpt>
      <trkpt lat="43.60426" lon="6.31948">
        <ele>700</ele>
        <time>2023-01-06T13:47:40Z</time>
      </trkpt>
      <trkpt lat="43.60427" lon="6.31947">
        <ele>701</ele>
        <time>2023-01-06T13:47:41Z</time>
      </trkpt>
      <trkpt lat="43.60428" lon="6.31947">
        <ele>701</ele>
        <time>2023-01-06T13:47:42Z</time>
      </trkpt>
      <trkpt lat="43.60429" lon="6.31946">
        <ele>701</ele>
        <time>2023-01-06T13:47:43Z</time>
      </trkpt>
      <trkpt lat="43.60429" lon="6.31945">
        <ele>701</ele>
        <time>2023-01-06T13:47:44Z</time>
      </trkpt>
      <trkpt lat="43.6043" lon="6.31944">
        <ele>701</ele>
        <time>2023-01-06T13:47:45Z</time>
      </trkpt>
      <trkpt lat="43.60431" lon="6.31943">
        <ele>701</ele>
        <time>2023-01-06T13:47:46Z</time>
      </trkpt>
      <trkpt lat="43.60431" lon="6.31942">
        <ele>701</ele>
        <time>2023-01-06T13:47:47Z</time>
      </trkpt>
      <trkpt lat="43.60432" lon="6.31942">
        <ele>701</ele>
        <time>2023-01-06T13:47:48Z</time>
      </trkpt>
      <trkpt lat="43.60433" lon="6.31941">
        <ele>701</ele>
        <time>2023-01-06T13:47:49Z</time>
      </trkpt>
      <trkpt lat="43.60434" lon="6.3194">
        <ele>701</ele>
        <time>2023-01-06T13:47:50Z</time>
      </trkpt>
      <trkpt lat="43.60435" lon="6.3194">
        <ele>701</ele>
        <time>2023-01-06T13:47:51Z</time>
      </trkpt>
      <trkpt lat="43.60436" lon="6.31939">
        <ele>701</ele>
        <time>2023-01-06T13:47:52Z</time>
      </trkpt>
      <trkpt lat="43.60437" lon="6.31939">
        <ele>701</ele>
        <time>2023-01-06T13:47:53Z</time>
      </trkpt>
      <trkpt lat="43.60438" lon="6.31939">
        <ele>701</ele>
        <time>2023-01-06T13:47:54Z</time>
      </trkpt>
      <trkpt lat="43.60439" lon="6.31938">
        <ele>700</ele>
        <time>2023-01-06T13:47:55Z</time>
      </trkpt>
      <trkpt lat="43.60439" lon="6.31938">
        <ele>699</ele>
        <time>2023-01-06T13:47:56Z</time>
      </trkpt>
      <trkpt lat="43.6044" lon="6.31938">
        <ele>699</ele>
        <time>2023-01-06T13:47:57Z</time>
      </trkpt>
      <trkpt lat="43.60441" lon="6.31937">
        <ele>699</ele>
        <time>2023-01-06T13:47:58Z</time>
      </trkpt>
      <trkpt lat="43.60442" lon="6.31936">
        <ele>699</ele>
        <time>2023-01-06T13:47:59Z</time>
      </trkpt>
      <trkpt lat="43.60443" lon="6.31935">
        <ele>699</ele>
        <time>2023-01-06T13:48:00Z</time>
      </trkpt>
      <trkpt lat="43.60444" lon="6.31934">
        <ele>699</ele>
        <time>2023-01-06T13:48:01Z</time>
      </trkpt>
      <trkpt lat="43.60445" lon="6.31934">
        <ele>699</ele>
        <time>2023-01-06T13:48:02Z</time>
      </trkpt>
      <trkpt lat="43.60446" lon="6.31933">
        <ele>698</ele>
        <time>2023-01-06T13:48:03Z</time>
      </trkpt>
      <trkpt lat="43.60447" lon="6.31932">
        <ele>698</ele>
        <time>2023-01-06T13:48:04Z</time>
      </trkpt>
      <trkpt lat="43.60448" lon="6.31931">
        <ele>698</ele>
        <time>2023-01-06T13:48:05Z</time>
      </trkpt>
      <trkpt lat="43.60449" lon="6.31931">
        <ele>698</ele>
        <time>2023-01-06T13:48:06Z</time>
      </trkpt>
      <trkpt lat="43.6045" lon="6.3193">
        <ele>698</ele>
        <time>2023-01-06T13:48:07Z</time>
      </trkpt>
      <trkpt lat="43.60451" lon="6.31929">
        <ele>698</ele>
        <time>2023-01-06T13:48:08Z</time>
      </trkpt>
      <trkpt lat="43.60452" lon="6.31928">
        <ele>698</ele>
        <time>2023-01-06T13:48:09Z</time>
      </trkpt>
      <trkpt lat="43.60453" lon="6.31927">
        <ele>698</ele>
        <time>2023-01-06T13:48:10Z</time>
      </trkpt>
      <trkpt lat="43.60453" lon="6.31926">
        <ele>698</ele>
        <time>2023-01-06T13:48:11Z</time>
      </trkpt>
      <trkpt lat="43.60454" lon="6.31925">
        <ele>698</ele>
        <time>2023-01-06T13:48:12Z</time>
      </trkpt>
      <trkpt lat="43.60455" lon="6.31925">
        <ele>698</ele>
        <time>2023-01-06T13:48:13Z</time>
      </trkpt>
      <trkpt lat="43.60456" lon="6.31924">
        <ele>698</ele>
        <time>2023-01-06T13:48:14Z</time>
      </trkpt>
      <trkpt lat="43.60457" lon="6.31924">
        <ele>699</ele>
        <time>2023-01-06T13:48:15Z</time>
      </trkpt>
      <trkpt lat="43.60458" lon="6.31923">
        <ele>699</ele>
        <time>2023-01-06T13:48:16Z</time>
      </trkpt>
      <trkpt lat="43.60459" lon="6.31923">
        <ele>700</ele>
        <time>2023-01-06T13:48:17Z</time>
      </trkpt>
      <trkpt lat="43.6046" lon="6.31923">
        <ele>700</ele>
        <time>2023-01-06T13:48:18Z</time>
      </trkpt>
      <trkpt lat="43.60461" lon="6.31923">
        <ele>700</ele>
        <time>2023-01-06T13:48:19Z</time>
      </trkpt>
      <trkpt lat="43.60462" lon="6.31923">
        <ele>700</ele>
        <time>2023-01-06T13:48:20Z</time>
      </trkpt>
      <trkpt lat="43.60463" lon="6.31923">
        <ele>700</ele>
        <time>2023-01-06T13:48:21Z</time>
      </trkpt>
      <trkpt lat="43.60463" lon="6.31924">
        <ele>701</ele>
        <time>2023-01-06T13:48:22Z</time>
      </trkpt>
      <trkpt lat="43.60464" lon="6.31924">
        <ele>701</ele>
        <time>2023-01-06T13:48:23Z</time>
      </trkpt>
      <trkpt lat="43.60464" lon="6.31926">
        <ele>701</ele>
        <time>2023-01-06T13:48:24Z</time>
      </trkpt>
      <trkpt lat="43.60464" lon="6.31927">
        <ele>701</ele>
        <time>2023-01-06T13:48:25Z</time>
      </trkpt>
      <trkpt lat="43.60464" lon="6.31928">
        <ele>701</ele>
        <time>2023-01-06T13:48:26Z</time>
      </trkpt>
      <trkpt lat="43.60465" lon="6.31929">
        <ele>702</ele>
        <time>2023-01-06T13:48:27Z</time>
      </trkpt>
      <trkpt lat="43.60466" lon="6.31929">
        <ele>703</ele>
        <time>2023-01-06T13:48:28Z</time>
      </trkpt>
      <trkpt lat="43.60467" lon="6.31929">
        <ele>703</ele>
        <time>2023-01-06T13:48:29Z</time>
      </trkpt>
      <trkpt lat="43.60468" lon="6.31928">
        <ele>703</ele>
        <time>2023-01-06T13:48:30Z</time>
      </trkpt>
      <trkpt lat="43.60468" lon="6.31928">
        <ele>703</ele>
        <time>2023-01-06T13:48:31Z</time>
      </trkpt>
      <trkpt lat="43.60469" lon="6.31928">
        <ele>703</ele>
        <time>2023-01-06T13:48:32Z</time>
      </trkpt>
      <trkpt lat="43.6047" lon="6.31927">
        <ele>703</ele>
        <time>2023-01-06T13:48:33Z</time>
      </trkpt>
      <trkpt lat="43.6047" lon="6.31927">
        <ele>704</ele>
        <time>2023-01-06T13:48:34Z</time>
      </trkpt>
      <trkpt lat="43.60471" lon="6.31926">
        <ele>704</ele>
        <time>2023-01-06T13:48:35Z</time>
      </trkpt>
      <trkpt lat="43.60471" lon="6.31926">
        <ele>704</ele>
        <time>2023-01-06T13:48:36Z</time>
      </trkpt>
      <trkpt lat="43.60472" lon="6.31926">
        <ele>704</ele>
        <time>2023-01-06T13:48:37Z</time>
      </trkpt>
      <trkpt lat="43.60472" lon="6.31927">
        <ele>704</ele>
        <time>2023-01-06T13:48:38Z</time>
      </trkpt>
      <trkpt lat="43.60473" lon="6.31927">
        <ele>704</ele>
        <time>2023-01-06T13:48:39Z</time>
      </trkpt>
      <trkpt lat="43.60474" lon="6.31927">
        <ele>704</ele>
        <time>2023-01-06T13:48:40Z</time>
      </trkpt>
      <trkpt lat="43.60475" lon="6.31927">
        <ele>704</ele>
        <time>2023-01-06T13:48:41Z</time>
      </trkpt>
      <trkpt lat="43.60476" lon="6.31927">
        <ele>704</ele>
        <time>2023-01-06T13:48:42Z</time>
      </trkpt>
      <trkpt lat="43.60476" lon="6.31926">
        <ele>704</ele>
        <time>2023-01-06T13:48:43Z</time>
      </trkpt>
      <trkpt lat="43.60477" lon="6.31926">
        <ele>704</ele>
        <time>2023-01-06T13:48:44Z</time>
      </trkpt>
      <trkpt lat="43.60478" lon="6.31925">
        <ele>704</ele>
        <time>2023-01-06T13:48:45Z</time>
      </trkpt>
      <trkpt lat="43.60479" lon="6.31924">
        <ele>703</ele>
        <time>2023-01-06T13:48:46Z</time>
      </trkpt>
      <trkpt lat="43.6048" lon="6.31923">
        <ele>703</ele>
        <time>2023-01-06T13:48:47Z</time>
      </trkpt>
      <trkpt lat="43.6048" lon="6.31922">
        <ele>704</ele>
        <time>2023-01-06T13:48:48Z</time>
      </trkpt>
      <trkpt lat="43.60481" lon="6.31921">
        <ele>704</ele>
        <time>2023-01-06T13:48:49Z</time>
      </trkpt>
      <trkpt lat="43.60482" lon="6.3192">
        <ele>704</ele>
        <time>2023-01-06T13:48:50Z</time>
      </trkpt>
      <trkpt lat="43.60482" lon="6.31918">
        <ele>704</ele>
        <time>2023-01-06T13:48:51Z</time>
      </trkpt>
      <trkpt lat="43.60483" lon="6.31917">
        <ele>704</ele>
        <time>2023-01-06T13:48:52Z</time>
      </trkpt>
      <trkpt lat="43.60484" lon="6.31916">
        <ele>703</ele>
        <time>2023-01-06T13:48:53Z</time>
      </trkpt>
      <trkpt lat="43.60485" lon="6.31914">
        <ele>703</ele>
        <time>2023-01-06T13:48:54Z</time>
      </trkpt>
      <trkpt lat="43.60486" lon="6.31913">
        <ele>703</ele>
        <time>2023-01-06T13:48:55Z</time>
      </trkpt>
      <trkpt lat="43.60487" lon="6.31911">
        <ele>703</ele>
        <time>2023-01-06T13:48:56Z</time>
      </trkpt>
      <trkpt lat="43.60488" lon="6.31909">
        <ele>703</ele>
        <time>2023-01-06T13:48:57Z</time>
      </trkpt>
      <trkpt lat="43.6049" lon="6.31907">
        <ele>703</ele>
        <time>2023-01-06T13:48:58Z</time>
      </trkpt>
      <trkpt lat="43.60491" lon="6.31906">
        <ele>702</ele>
        <time>2023-01-06T13:48:59Z</time>
      </trkpt>
      <trkpt lat="43.60492" lon="6.31904">
        <ele>702</ele>
        <time>2023-01-06T13:49:00Z</time>
      </trkpt>
      <trkpt lat="43.60493" lon="6.31903">
        <ele>702</ele>
        <time>2023-01-06T13:49:01Z</time>
      </trkpt>
      <trkpt lat="43.60494" lon="6.31901">
        <ele>702</ele>
        <time>2023-01-06T13:49:02Z</time>
      </trkpt>
      <trkpt lat="43.60495" lon="6.319">
        <ele>702</ele>
        <time>2023-01-06T13:49:03Z</time>
      </trkpt>
      <trkpt lat="43.60496" lon="6.31898">
        <ele>702</ele>
        <time>2023-01-06T13:49:04Z</time>
      </trkpt>
      <trkpt lat="43.60497" lon="6.31897">
        <ele>702</ele>
        <time>2023-01-06T13:49:05Z</time>
      </trkpt>
      <trkpt lat="43.60498" lon="6.31895">
        <ele>703</ele>
        <time>2023-01-06T13:49:06Z</time>
      </trkpt>
      <trkpt lat="43.60499" lon="6.31894">
        <ele>703</ele>
        <time>2023-01-06T13:49:07Z</time>
      </trkpt>
      <trkpt lat="43.60499" lon="6.31893">
        <ele>703</ele>
        <time>2023-01-06T13:49:08Z</time>
      </trkpt>
      <trkpt lat="43.605" lon="6.31892">
        <ele>703</ele>
        <time>2023-01-06T13:49:09Z</time>
      </trkpt>
      <trkpt lat="43.60501" lon="6.3189">
        <ele>703</ele>
        <time>2023-01-06T13:49:10Z</time>
      </trkpt>
      <trkpt lat="43.60501" lon="6.31889">
        <ele>703</ele>
        <time>2023-01-06T13:49:11Z</time>
      </trkpt>
      <trkpt lat="43.60502" lon="6.31888">
        <ele>703</ele>
        <time>2023-01-06T13:49:12Z</time>
      </trkpt>
      <trkpt lat="43.60503" lon="6.31887">
        <ele>703</ele>
        <time>2023-01-06T13:49:13Z</time>
      </trkpt>
      <trkpt lat="43.60503" lon="6.31886">
        <ele>704</ele>
        <time>2023-01-06T13:49:14Z</time>
      </trkpt>
      <trkpt lat="43.60504" lon="6.31885">
        <ele>704</ele>
        <time>2023-01-06T13:49:15Z</time>
      </trkpt>
      <trkpt lat="43.60504" lon="6.31884">
        <ele>704</ele>
        <time>2023-01-06T13:49:16Z</time>
      </trkpt>
      <trkpt lat="43.60505" lon="6.31883">
        <ele>704</ele>
        <time>2023-01-06T13:49:17Z</time>
      </trkpt>
      <trkpt lat="43.60505" lon="6.31882">
        <ele>704</ele>
        <time>2023-01-06T13:49:18Z</time>
      </trkpt>
      <trkpt lat="43.60506" lon="6.31882">
        <ele>704</ele>
        <time>2023-01-06T13:49:19Z</time>
      </trkpt>
      <trkpt lat="43.60506" lon="6.31881">
        <ele>704</ele>
        <time>2023-01-06T13:49:20Z</time>
      </trkpt>
      <trkpt lat="43.60507" lon="6.3188">
        <ele>704</ele>
        <time>2023-01-06T13:49:21Z</time>
      </trkpt>
      <trkpt lat="43.60507" lon="6.31879">
        <ele>704</ele>
        <time>2023-01-06T13:49:22Z</time>
      </trkpt>
      <trkpt lat="43.60508" lon="6.31879">
        <ele>704</ele>
        <time>2023-01-06T13:49:23Z</time>
      </trkpt>
      <trkpt lat="43.60508" lon="6.31878">
        <ele>704</ele>
        <time>2023-01-06T13:49:24Z</time>
      </trkpt>
      <trkpt lat="43.60509" lon="6.31877">
        <ele>704</ele>
        <time>2023-01-06T13:49:25Z</time>
      </trkpt>
      <trkpt lat="43.60509" lon="6.31876">
        <ele>704</ele>
        <time>2023-01-06T13:49:26Z</time>
      </trkpt>
      <trkpt lat="43.6051" lon="6.31875">
        <ele>704</ele>
        <time>2023-01-06T13:49:27Z</time>
      </trkpt>
      <trkpt lat="43.6051" lon="6.31875">
        <ele>704</ele>
        <time>2023-01-06T13:49:28Z</time>
      </trkpt>
      <trkpt lat="43.6051" lon="6.31874">
        <ele>704</ele>
        <time>2023-01-06T13:49:29Z</time>
      </trkpt>
      <trkpt lat="43.60511" lon="6.31874">
        <ele>704</ele>
        <time>2023-01-06T13:49:30Z</time>
      </trkpt>
      <trkpt lat="43.60511" lon="6.31874">
        <ele>704</ele>
        <time>2023-01-06T13:49:31Z</time>
      </trkpt>
      <trkpt lat="43.60511" lon="6.31875">
        <ele>704</ele>
        <time>2023-01-06T13:49:32Z</time>
      </trkpt>
      <trkpt lat="43.60512" lon="6.31876">
        <ele>704</ele>
        <time>2023-01-06T13:49:33Z</time>
      </trkpt>
      <trkpt lat="43.60512" lon="6.31876">
        <ele>704</ele>
        <time>2023-01-06T13:49:34Z</time>
      </trkpt>
      <trkpt lat="43.60512" lon="6.31877">
        <ele>704</ele>
        <time>2023-01-06T13:49:35Z</time>
      </trkpt>
      <trkpt lat="43.60512" lon="6.31877">
        <ele>704</ele>
        <time>2023-01-06T13:49:36Z</time>
      </trkpt>
      <trkpt lat="43.60512" lon="6.31877">
        <ele>704</ele>
        <time>2023-01-06T13:49:37Z</time>
      </trkpt>
      <trkpt lat="43.60513" lon="6.31878">
        <ele>704</ele>
        <time>2023-01-06T13:49:38Z</time>
      </trkpt>
      <trkpt lat="43.60513" lon="6.31878">
        <ele>704</ele>
        <time>2023-01-06T13:49:39Z</time>
      </trkpt>
      <trkpt lat="43.60513" lon="6.31878">
        <ele>704</ele>
        <time>2023-01-06T13:49:40Z</time>
      </trkpt>
      <trkpt lat="43.60513" lon="6.31878">
        <ele>704</ele>
        <time>2023-01-06T13:49:41Z</time>
      </trkpt>
      <trkpt lat="43.60513" lon="6.31879">
        <ele>704</ele>
        <time>2023-01-06T13:49:42Z</time>
      </trkpt>
      <trkpt lat="43.60512" lon="6.31879">
        <ele>704</ele>
        <time>2023-01-06T13:49:43Z</time>
      </trkpt>
      <trkpt lat="43.60512" lon="6.31879">
        <ele>704</ele>
        <time>2023-01-06T13:49:44Z</time>
      </trkpt>
      <trkpt lat="43.60512" lon="6.31879">
        <ele>704</ele>
        <time>2023-01-06T13:49:45Z</time>
      </trkpt>
      <trkpt lat="43.60512" lon="6.31879">
        <ele>704</ele>
        <time>2023-01-06T13:49:46Z</time>
      </trkpt>
      <trkpt lat="43.60512" lon="6.31879">
        <ele>704</ele>
        <time>2023-01-06T13:49:47Z</time>
      </trkpt>
      <trkpt lat="43.60512" lon="6.31879">
        <ele>704</ele>
        <time>2023-01-06T13:49:48Z</time>
      </trkpt>
      <trkpt lat="43.60512" lon="6.31879">
        <ele>704</ele>
        <time>2023-01-06T13:49:49Z</time>
      </trkpt>
      <trkpt lat="43.60511" lon="6.3188">
        <ele>704</ele>
        <time>2023-01-06T13:49:50Z</time>
      </trkpt>
      <trkpt lat="43.6051" lon="6.3188">
        <ele>704</ele>
        <time>2023-01-06T13:49:51Z</time>
      </trkpt>
      <trkpt lat="43.6051" lon="6.3188">
        <ele>704</ele>
        <time>2023-01-06T13:49:52Z</time>
      </trkpt>
      <trkpt lat="43.60509" lon="6.31881">
        <ele>704</ele>
        <time>2023-01-06T13:49:53Z</time>
      </trkpt>
      <trkpt lat="43.60509" lon="6.31881">
        <ele>704</ele>
        <time>2023-01-06T13:49:54Z</time>
      </trkpt>
      <trkpt lat="43.60509" lon="6.31881">
        <ele>704</ele>
        <time>2023-01-06T13:49:55Z</time>
      </trkpt>
      <trkpt lat="43.60509" lon="6.31881">
        <ele>704</ele>
        <time>2023-01-06T13:49:56Z</time>
      </trkpt>
      <trkpt lat="43.60509" lon="6.31881">
        <ele>704</ele>
        <time>2023-01-06T13:49:57Z</time>
      </trkpt>
      <trkpt lat="43.60508" lon="6.31881">
        <ele>704</ele>
        <time>2023-01-06T13:49:58Z</time>
      </trkpt>
      <trkpt lat="43.60508" lon="6.31881">
        <ele>704</ele>
        <time>2023-01-06T13:49:59Z</time>
      </trkpt>
      <trkpt lat="43.60508" lon="6.31881">
        <ele>704</ele>
        <time>2023-01-06T13:50:00Z</time>
      </trkpt>
      <trkpt lat="43.60508" lon="6.31881">
        <ele>704</ele>
        <time>2023-01-06T13:50:01Z</time>
      </trkpt>
      <trkpt lat="43.60508" lon="6.31881">
        <ele>704</ele>
        <time>2023-01-06T13:50:02Z</time>
      </trkpt>
      <trkpt lat="43.60508" lon="6.31881">
        <ele>704</ele>
        <time>2023-01-06T13:50:03Z</time>
      </trkpt>
      <trkpt lat="43.60508" lon="6.31881">
        <ele>704</ele>
        <time>2023-01-06T13:50:04Z</time>
      </trkpt>
      <trkpt lat="43.60508" lon="6.31881">
        <ele>704</ele>
        <time>2023-01-06T13:50:05Z</time>
      </trkpt>
      <trkpt lat="43.60508" lon="6.31881">
        <ele>704</ele>
        <time>2023-01-06T13:50:06Z</time>
      </trkpt>
      <trkpt lat="43.60508" lon="6.31881">
        <ele>704</ele>
        <time>2023-01-06T13:50:07Z</time>
      </trkpt>
      <trkpt lat="43.60508" lon="6.31881">
        <ele>704</ele>
        <time>2023-01-06T13:50:08Z</time>
      </trkpt>
      <trkpt lat="43.60508" lon="6.31881">
        <ele>704</ele>
        <time>2023-01-06T13:50:09Z</time>
      </trkpt>
      <trkpt lat="43.60508" lon="6.31881">
        <ele>704</ele>
        <time>2023-01-06T13:50:10Z</time>
      </trkpt>
      <trkpt lat="43.60508" lon="6.31881">
        <ele>704</ele>
        <time>2023-01-06T13:50:11Z</time>
      </trkpt>
      <trkpt lat="43.60508" lon="6.31881">
        <ele>704</ele>
        <time>2023-01-06T13:50:12Z</time>
      </trkpt>
      <trkpt lat="43.60508" lon="6.31881">
        <ele>704</ele>
        <time>2023-01-06T13:50:13Z</time>
      </trkpt>
      <trkpt lat="43.60508" lon="6.31881">
        <ele>704</ele>
        <time>2023-01-06T13:50:14Z</time>
      </trkpt>
      <trkpt lat="43.60508" lon="6.31881">
        <ele>704</ele>
        <time>2023-01-06T13:50:15Z</time>
      </trkpt>
      <trkpt lat="43.60508" lon="6.31881">
        <ele>704</ele>
        <time>2023-01-06T13:50:16Z</time>
      </trkpt>
      <trkpt lat="43.60508" lon="6.31881">
        <ele>704</ele>
        <time>2023-01-06T13:50:17Z</time>
      </trkpt>
      <trkpt lat="43.60508" lon="6.31881">
        <ele>704</ele>
        <time>2023-01-06T13:50:18Z</time>
      </trkpt>
      <trkpt lat="43.60508" lon="6.31881">
        <ele>704</ele>
        <time>2023-01-06T13:50:19Z</time>
      </trkpt>
      <trkpt lat="43.60508" lon="6.31881">
        <ele>704</ele>
        <time>2023-01-06T13:50:20Z</time>
      </trkpt>
      <trkpt lat="43.60508" lon="6.31881">
        <ele>704</ele>
        <time>2023-01-06T13:50:21Z</time>
      </trkpt>
      <trkpt lat="43.60508" lon="6.31881">
        <ele>704</ele>
        <time>2023-01-06T13:50:22Z</time>
      </trkpt>
      <trkpt lat="43.60508" lon="6.31881">
        <ele>704</ele>
        <time>2023-01-06T13:50:23Z</time>
      </trkpt>
      <trkpt lat="43.60509" lon="6.31883">
        <ele>704</ele>
        <time>2023-01-06T13:50:24Z</time>
      </trkpt>
      <trkpt lat="43.60509" lon="6.31883">
        <ele>704</ele>
        <time>2023-01-06T13:50:25Z</time>
      </trkpt>
      <trkpt lat="43.60509" lon="6.31883">
        <ele>704</ele>
        <time>2023-01-06T13:50:26Z</time>
      </trkpt>
      <trkpt lat="43.60509" lon="6.31883">
        <ele>704</ele>
        <time>2023-01-06T13:50:27Z</time>
      </trkpt>
      <trkpt lat="43.60509" lon="6.31883">
        <ele>704</ele>
        <time>2023-01-06T13:50:28Z</time>
      </trkpt>
      <trkpt lat="43.60509" lon="6.31883">
        <ele>705</ele>
        <time>2023-01-06T13:50:29Z</time>
      </trkpt>
      <trkpt lat="43.60509" lon="6.31883">
        <ele>705</ele>
        <time>2023-01-06T13:50:30Z</time>
      </trkpt>
      <trkpt lat="43.60509" lon="6.31883">
        <ele>705</ele>
        <time>2023-01-06T13:50:31Z</time>
      </trkpt>
      <trkpt lat="43.60509" lon="6.31882">
        <ele>705</ele>
        <time>2023-01-06T13:50:32Z</time>
      </trkpt>
      <trkpt lat="43.60509" lon="6.31882">
        <ele>705</ele>
        <time>2023-01-06T13:50:33Z</time>
      </trkpt>
      <trkpt lat="43.60509" lon="6.31882">
        <ele>705</ele>
        <time>2023-01-06T13:50:34Z</time>
      </trkpt>
      <trkpt lat="43.60509" lon="6.31882">
        <ele>705</ele>
        <time>2023-01-06T13:50:35Z</time>
      </trkpt>
      <trkpt lat="43.60509" lon="6.31882">
        <ele>705</ele>
        <time>2023-01-06T13:50:36Z</time>
      </trkpt>
      <trkpt lat="43.60509" lon="6.31882">
        <ele>705</ele>
        <time>2023-01-06T13:50:37Z</time>
      </trkpt>
      <trkpt lat="43.60509" lon="6.31882">
        <ele>705</ele>
        <time>2023-01-06T13:50:38Z</time>
      </trkpt>
      <trkpt lat="43.60509" lon="6.31882">
        <ele>705</ele>
        <time>2023-01-06T13:50:39Z</time>
      </trkpt>
      <trkpt lat="43.60509" lon="6.31882">
        <ele>705</ele>
        <time>2023-01-06T13:50:40Z</time>
      </trkpt>
      <trkpt lat="43.60509" lon="6.31882">
        <ele>705</ele>
        <time>2023-01-06T13:50:41Z</time>
      </trkpt>
      <trkpt lat="43.60509" lon="6.31882">
        <ele>705</ele>
        <time>2023-01-06T13:50:42Z</time>
      </trkpt>
      <trkpt lat="43.60509" lon="6.31882">
        <ele>705</ele>
        <time>2023-01-06T13:50:43Z</time>
      </trkpt>
      <trkpt lat="43.60509" lon="6.31882">
        <ele>705</ele>
        <time>2023-01-06T13:50:44Z</time>
      </trkpt>
      <trkpt lat="43.60509" lon="6.31882">
        <ele>705</ele>
        <time>2023-01-06T13:50:45Z</time>
      </trkpt>
      <trkpt lat="43.60509" lon="6.31882">
        <ele>705</ele>
        <time>2023-01-06T13:50:46Z</time>
      </trkpt>
      <trkpt lat="43.60509" lon="6.31882">
        <ele>705</ele>
        <time>2023-01-06T13:50:47Z</time>
      </trkpt>
      <trkpt lat="43.60509" lon="6.31882">
        <ele>705</ele>
        <time>2023-01-06T13:50:48Z</time>
      </trkpt>
      <trkpt lat="43.60509" lon="6.31882">
        <ele>705</ele>
        <time>2023-01-06T13:50:49Z</time>
      </trkpt>
      <trkpt lat="43.60509" lon="6.31882">
        <ele>705</ele>
        <time>2023-01-06T13:50:50Z</time>
      </trkpt>
      <trkpt lat="43.60509" lon="6.31882">
        <ele>705</ele>
        <time>2023-01-06T13:50:51Z</time>
      </trkpt>
      <trkpt lat="43.60509" lon="6.31882">
        <ele>705</ele>
        <time>2023-01-06T13:50:52Z</time>
      </trkpt>
      <trkpt lat="43.60509" lon="6.31882">
        <ele>705</ele>
        <time>2023-01-06T13:50:53Z</time>
      </trkpt>
      <trkpt lat="43.60509" lon="6.31882">
        <ele>705</ele>
        <time>2023-01-06T13:50:54Z</time>
      </trkpt>
      <trkpt lat="43.60509" lon="6.31882">
        <ele>705</ele>
        <time>2023-01-06T13:50:55Z</time>
      </trkpt>
      <trkpt lat="43.60509" lon="6.31882">
        <ele>705</ele>
        <time>2023-01-06T13:50:56Z</time>
      </trkpt>
      <trkpt lat="43.60509" lon="6.31882">
        <ele>705</ele>
        <time>2023-01-06T13:50:57Z</time>
      </trkpt>
      <trkpt lat="43.60509" lon="6.31882">
        <ele>705</ele>
        <time>2023-01-06T13:50:58Z</time>
      </trkpt>
      <trkpt lat="43.60509" lon="6.31882">
        <ele>705</ele>
        <time>2023-01-06T13:50:59Z</time>
      </trkpt>
      <trkpt lat="43.60509" lon="6.31882">
        <ele>705</ele>
        <time>2023-01-06T13:51:00Z</time>
      </trkpt>
      <trkpt lat="43.60509" lon="6.31882">
        <ele>705</ele>
        <time>2023-01-06T13:51:01Z</time>
      </trkpt>
      <trkpt lat="43.60509" lon="6.31882">
        <ele>705</ele>
        <time>2023-01-06T13:51:02Z</time>
      </trkpt>
      <trkpt lat="43.60509" lon="6.31882">
        <ele>705</ele>
        <time>2023-01-06T13:51:03Z</time>
      </trkpt>
      <trkpt lat="43.60509" lon="6.31882">
        <ele>705</ele>
        <time>2023-01-06T13:51:04Z</time>
      </trkpt>
      <trkpt lat="43.60509" lon="6.31882">
        <ele>705</ele>
        <time>2023-01-06T13:51:05Z</time>
      </trkpt>
      <trkpt lat="43.60509" lon="6.31882">
        <ele>705</ele>
        <time>2023-01-06T13:51:06Z</time>
      </trkpt>
      <trkpt lat="43.60509" lon="6.31882">
        <ele>705</ele>
        <time>2023-01-06T13:51:07Z</time>
      </trkpt>
      <trkpt lat="43.60509" lon="6.31882">
        <ele>705</ele>
        <time>2023-01-06T13:51:08Z</time>
      </trkpt>
      <trkpt lat="43.60509" lon="6.31882">
        <ele>705</ele>
        <time>2023-01-06T13:51:09Z</time>
      </trkpt>
      <trkpt lat="43.60509" lon="6.31882">
        <ele>705</ele>
        <time>2023-01-06T13:51:10Z</time>
      </trkpt>
      <trkpt lat="43.60509" lon="6.31882">
        <ele>705</ele>
        <time>2023-01-06T13:51:11Z</time>
      </trkpt>
      <trkpt lat="43.60509" lon="6.31882">
        <ele>705</ele>
        <time>2023-01-06T13:51:12Z</time>
      </trkpt>
      <trkpt lat="43.60509" lon="6.31882">
        <ele>705</ele>
        <time>2023-01-06T13:51:13Z</time>
      </trkpt>
      <trkpt lat="43.60509" lon="6.31882">
        <ele>705</ele>
        <time>2023-01-06T13:51:14Z</time>
      </trkpt>
      <trkpt lat="43.60509" lon="6.31882">
        <ele>705</ele>
        <time>2023-01-06T13:51:15Z</time>
      </trkpt>
      <trkpt lat="43.60509" lon="6.31882">
        <ele>705</ele>
        <time>2023-01-06T13:51:16Z</time>
      </trkpt>
      <trkpt lat="43.60509" lon="6.31882">
        <ele>705</ele>
        <time>2023-01-06T13:51:17Z</time>
      </trkpt>
      <trkpt lat="43.60509" lon="6.31882">
        <ele>705</ele>
        <time>2023-01-06T13:51:18Z</time>
      </trkpt>
      <trkpt lat="43.60509" lon="6.31882">
        <ele>705</ele>
        <time>2023-01-06T13:51:19Z</time>
      </trkpt>
      <trkpt lat="43.60509" lon="6.31882">
        <ele>705</ele>
        <time>2023-01-06T13:51:20Z</time>
      </trkpt>
      <trkpt lat="43.60509" lon="6.31882">
        <ele>705</ele>
        <time>2023-01-06T13:51:21Z</time>
      </trkpt>
      <trkpt lat="43.60509" lon="6.31882">
        <ele>705</ele>
        <time>2023-01-06T13:51:22Z</time>
      </trkpt>
      <trkpt lat="43.60509" lon="6.31882">
        <ele>705</ele>
        <time>2023-01-06T13:51:23Z</time>
      </trkpt>
      <trkpt lat="43.60509" lon="6.31882">
        <ele>705</ele>
        <time>2023-01-06T13:51:24Z</time>
      </trkpt>
      <trkpt lat="43.60509" lon="6.31882">
        <ele>705</ele>
        <time>2023-01-06T13:51:25Z</time>
      </trkpt>
      <trkpt lat="43.60509" lon="6.31882">
        <ele>705</ele>
        <time>2023-01-06T13:51:26Z</time>
      </trkpt>
      <trkpt lat="43.60509" lon="6.31882">
        <ele>705</ele>
        <time>2023-01-06T13:51:27Z</time>
      </trkpt>
      <trkpt lat="43.60509" lon="6.31882">
        <ele>705</ele>
        <time>2023-01-06T13:51:28Z</time>
      </trkpt>
      <trkpt lat="43.60509" lon="6.31882">
        <ele>705</ele>
        <time>2023-01-06T13:51:29Z</time>
      </trkpt>
      <trkpt lat="43.60509" lon="6.31882">
        <ele>705</ele>
        <time>2023-01-06T13:51:30Z</time>
      </trkpt>
      <trkpt lat="43.60509" lon="6.31882">
        <ele>705</ele>
        <time>2023-01-06T13:51:31Z</time>
      </trkpt>
      <trkpt lat="43.60509" lon="6.31882">
        <ele>705</ele>
        <time>2023-01-06T13:51:32Z</time>
      </trkpt>
      <trkpt lat="43.60509" lon="6.31882">
        <ele>705</ele>
        <time>2023-01-06T13:51:33Z</time>
      </trkpt>
      <trkpt lat="43.60509" lon="6.31882">
        <ele>705</ele>
        <time>2023-01-06T13:51:34Z</time>
      </trkpt>
      <trkpt lat="43.60509" lon="6.31882">
        <ele>705</ele>
        <time>2023-01-06T13:51:35Z</time>
      </trkpt>
      <trkpt lat="43.60509" lon="6.31882">
        <ele>705</ele>
        <time>2023-01-06T13:51:36Z</time>
      </trkpt>
      <trkpt lat="43.60509" lon="6.31882">
        <ele>705</ele>
        <time>2023-01-06T13:51:37Z</time>
      </trkpt>
      <trkpt lat="43.60509" lon="6.31882">
        <ele>705</ele>
        <time>2023-01-06T13:51:38Z</time>
      </trkpt>
      <trkpt lat="43.60509" lon="6.31882">
        <ele>705</ele>
        <time>2023-01-06T13:51:39Z</time>
      </trkpt>
      <trkpt lat="43.60509" lon="6.31882">
        <ele>705</ele>
        <time>2023-01-06T13:51:40Z</time>
      </trkpt>
      <trkpt lat="43.60509" lon="6.31882">
        <ele>705</ele>
        <time>2023-01-06T13:51:41Z</time>
      </trkpt>
      <trkpt lat="43.60509" lon="6.31882">
        <ele>705</ele>
        <time>2023-01-06T13:51:42Z</time>
      </trkpt>
      <trkpt lat="43.60509" lon="6.31882">
        <ele>705</ele>
        <time>2023-01-06T13:51:43Z</time>
      </trkpt>
      <trkpt lat="43.60509" lon="6.31882">
        <ele>705</ele>
        <time>2023-01-06T13:51:44Z</time>
      </trkpt>
      <trkpt lat="43.60509" lon="6.31882">
        <ele>705</ele>
        <time>2023-01-06T13:51:45Z</time>
      </trkpt>
      <trkpt lat="43.60509" lon="6.31882">
        <ele>705</ele>
        <time>2023-01-06T13:51:46Z</time>
      </trkpt>
      <trkpt lat="43.60509" lon="6.31882">
        <ele>705</ele>
        <time>2023-01-06T13:51:47Z</time>
      </trkpt>
      <trkpt lat="43.60509" lon="6.31882">
        <ele>705</ele>
        <time>2023-01-06T13:51:48Z</time>
      </trkpt>
      <trkpt lat="43.60509" lon="6.31882">
        <ele>705</ele>
        <time>2023-01-06T13:51:49Z</time>
      </trkpt>
      <trkpt lat="43.60508" lon="6.31881">
        <ele>705</ele>
        <time>2023-01-06T13:51:50Z</time>
      </trkpt>
      <trkpt lat="43.60508" lon="6.31881">
        <ele>705</ele>
        <time>2023-01-06T13:51:51Z</time>
      </trkpt>
      <trkpt lat="43.60508" lon="6.31881">
        <ele>705</ele>
        <time>2023-01-06T13:51:52Z</time>
      </trkpt>
      <trkpt lat="43.60508" lon="6.31881">
        <ele>705</ele>
        <time>2023-01-06T13:51:53Z</time>
      </trkpt>
      <trkpt lat="43.60508" lon="6.31881">
        <ele>705</ele>
        <time>2023-01-06T13:51:54Z</time>
      </trkpt>
      <trkpt lat="43.60508" lon="6.31881">
        <ele>705</ele>
        <time>2023-01-06T13:51:55Z</time>
      </trkpt>
      <trkpt lat="43.60508" lon="6.31881">
        <ele>705</ele>
        <time>2023-01-06T13:51:56Z</time>
      </trkpt>
      <trkpt lat="43.60508" lon="6.31881">
        <ele>705</ele>
        <time>2023-01-06T13:51:57Z</time>
      </trkpt>
      <trkpt lat="43.60508" lon="6.31881">
        <ele>705</ele>
        <time>2023-01-06T13:51:58Z</time>
      </trkpt>
      <trkpt lat="43.60508" lon="6.31881">
        <ele>705</ele>
        <time>2023-01-06T13:51:59Z</time>
      </trkpt>
      <trkpt lat="43.60508" lon="6.31881">
        <ele>705</ele>
        <time>2023-01-06T13:52:00Z</time>
      </trkpt>
      <trkpt lat="43.60508" lon="6.31881">
        <ele>705</ele>
        <time>2023-01-06T13:52:01Z</time>
      </trkpt>
      <trkpt lat="43.60508" lon="6.31881">
        <ele>705</ele>
        <time>2023-01-06T13:52:02Z</time>
      </trkpt>
      <trkpt lat="43.60508" lon="6.3188">
        <ele>705</ele>
        <time>2023-01-06T13:52:03Z</time>
      </trkpt>
      <trkpt lat="43.60508" lon="6.3188">
        <ele>705</ele>
        <time>2023-01-06T13:52:04Z</time>
      </trkpt>
      <trkpt lat="43.60508" lon="6.3188">
        <ele>705</ele>
        <time>2023-01-06T13:52:05Z</time>
      </trkpt>
      <trkpt lat="43.60508" lon="6.3188">
        <ele>705</ele>
        <time>2023-01-06T13:52:06Z</time>
      </trkpt>
      <trkpt lat="43.60508" lon="6.3188">
        <ele>705</ele>
        <time>2023-01-06T13:52:07Z</time>
      </trkpt>
      <trkpt lat="43.60508" lon="6.3188">
        <ele>705</ele>
        <time>2023-01-06T13:52:08Z</time>
      </trkpt>
      <trkpt lat="43.60508" lon="6.3188">
        <ele>705</ele>
        <time>2023-01-06T13:52:09Z</time>
      </trkpt>
      <trkpt lat="43.60508" lon="6.3188">
        <ele>705</ele>
        <time>2023-01-06T13:52:10Z</time>
      </trkpt>
      <trkpt lat="43.60508" lon="6.3188">
        <ele>705</ele>
        <time>2023-01-06T13:52:11Z</time>
      </trkpt>
      <trkpt lat="43.60508" lon="6.3188">
        <ele>705</ele>
        <time>2023-01-06T13:52:12Z</time>
      </trkpt>
      <trkpt lat="43.60508" lon="6.3188">
        <ele>705</ele>
        <time>2023-01-06T13:52:13Z</time>
      </trkpt>
      <trkpt lat="43.60508" lon="6.3188">
        <ele>705</ele>
        <time>2023-01-06T13:52:14Z</time>
      </trkpt>
      <trkpt lat="43.60508" lon="6.3188">
        <ele>705</ele>
        <time>2023-01-06T13:52:15Z</time>
      </trkpt>
      <trkpt lat="43.60508" lon="6.3188">
        <ele>705</ele>
        <time>2023-01-06T13:52:16Z</time>
      </trkpt>
      <trkpt lat="43.60508" lon="6.3188">
        <ele>705</ele>
        <time>2023-01-06T13:52:17Z</time>
      </trkpt>
      <trkpt lat="43.60508" lon="6.3188">
        <ele>705</ele>
        <time>2023-01-06T13:52:18Z</time>
      </trkpt>
      <trkpt lat="43.60508" lon="6.3188">
        <ele>705</ele>
        <time>2023-01-06T13:52:19Z</time>
      </trkpt>
      <trkpt lat="43.60508" lon="6.3188">
        <ele>705</ele>
        <time>2023-01-06T13:52:20Z</time>
      </trkpt>
      <trkpt lat="43.60508" lon="6.3188">
        <ele>705</ele>
        <time>2023-01-06T13:52:21Z</time>
      </trkpt>
      <trkpt lat="43.60508" lon="6.3188">
        <ele>705</ele>
        <time>2023-01-06T13:52:22Z</time>
      </trkpt>
      <trkpt lat="43.60508" lon="6.3188">
        <ele>705</ele>
        <time>2023-01-06T13:52:23Z</time>
      </trkpt>
      <trkpt lat="43.60508" lon="6.3188">
        <ele>705</ele>
        <time>2023-01-06T13:52:24Z</time>
      </trkpt>
      <trkpt lat="43.60508" lon="6.3188">
        <ele>705</ele>
        <time>2023-01-06T13:52:25Z</time>
      </trkpt>
      <trkpt lat="43.60508" lon="6.3188">
        <ele>705</ele>
        <time>2023-01-06T13:52:26Z</time>
      </trkpt>
      <trkpt lat="43.60508" lon="6.3188">
        <ele>705</ele>
        <time>2023-01-06T13:52:27Z</time>
      </trkpt>
      <trkpt lat="43.60508" lon="6.3188">
        <ele>705</ele>
        <time>2023-01-06T13:52:28Z</time>
      </trkpt>
      <trkpt lat="43.60508" lon="6.3188">
        <ele>705</ele>
        <time>2023-01-06T13:52:29Z</time>
      </trkpt>
      <trkpt lat="43.60508" lon="6.3188">
        <ele>705</ele>
        <time>2023-01-06T13:52:30Z</time>
      </trkpt>
      <trkpt lat="43.60508" lon="6.3188">
        <ele>705</ele>
        <time>2023-01-06T13:52:31Z</time>
      </trkpt>
      <trkpt lat="43.60508" lon="6.3188">
        <ele>705</ele>
        <time>2023-01-06T13:52:32Z</time>
      </trkpt>
      <trkpt lat="43.60508" lon="6.3188">
        <ele>705</ele>
        <time>2023-01-06T13:52:33Z</time>
      </trkpt>
      <trkpt lat="43.60508" lon="6.3188">
        <ele>705</ele>
        <time>2023-01-06T13:52:34Z</time>
      </trkpt>
      <trkpt lat="43.60508" lon="6.3188">
        <ele>705</ele>
        <time>2023-01-06T13:52:35Z</time>
      </trkpt>
      <trkpt lat="43.60508" lon="6.3188">
        <ele>705</ele>
        <time>2023-01-06T13:52:36Z</time>
      </trkpt>
      <trkpt lat="43.60508" lon="6.3188">
        <ele>705</ele>
        <time>2023-01-06T13:52:37Z</time>
      </trkpt>
      <trkpt lat="43.60508" lon="6.3188">
        <ele>705</ele>
        <time>2023-01-06T13:52:38Z</time>
      </trkpt>
      <trkpt lat="43.60508" lon="6.3188">
        <ele>705</ele>
        <time>2023-01-06T13:52:39Z</time>
      </trkpt>
      <trkpt lat="43.60508" lon="6.3188">
        <ele>705</ele>
        <time>2023-01-06T13:52:40Z</time>
      </trkpt>
      <trkpt lat="43.60508" lon="6.31879">
        <ele>705</ele>
        <time>2023-01-06T13:52:41Z</time>
      </trkpt>
      <trkpt lat="43.60507" lon="6.31878">
        <ele>705</ele>
        <time>2023-01-06T13:52:42Z</time>
      </trkpt>
      <trkpt lat="43.60507" lon="6.31876">
        <ele>705</ele>
        <time>2023-01-06T13:52:43Z</time>
      </trkpt>
      <trkpt lat="43.60507" lon="6.31875">
        <ele>705</ele>
        <time>2023-01-06T13:52:44Z</time>
      </trkpt>
      <trkpt lat="43.60507" lon="6.31875">
        <ele>705</ele>
        <time>2023-01-06T13:52:45Z</time>
      </trkpt>
      <trkpt lat="43.60506" lon="6.31874">
        <ele>706</ele>
        <time>2023-01-06T13:52:46Z</time>
      </trkpt>
      <trkpt lat="43.60506" lon="6.31874">
        <ele>706</ele>
        <time>2023-01-06T13:52:47Z</time>
      </trkpt>
      <trkpt lat="43.60506" lon="6.31873">
        <ele>706</ele>
        <time>2023-01-06T13:52:48Z</time>
      </trkpt>
      <trkpt lat="43.60506" lon="6.31873">
        <ele>706</ele>
        <time>2023-01-06T13:52:49Z</time>
      </trkpt>
      <trkpt lat="43.60506" lon="6.31873">
        <ele>706</ele>
        <time>2023-01-06T13:52:50Z</time>
      </trkpt>
      <trkpt lat="43.60506" lon="6.31872">
        <ele>706</ele>
        <time>2023-01-06T13:52:51Z</time>
      </trkpt>
      <trkpt lat="43.60506" lon="6.31871">
        <ele>706</ele>
        <time>2023-01-06T13:52:52Z</time>
      </trkpt>
      <trkpt lat="43.60507" lon="6.3187">
        <ele>706</ele>
        <time>2023-01-06T13:52:53Z</time>
      </trkpt>
      <trkpt lat="43.60507" lon="6.31869">
        <ele>706</ele>
        <time>2023-01-06T13:52:54Z</time>
      </trkpt>
      <trkpt lat="43.60507" lon="6.31868">
        <ele>706</ele>
        <time>2023-01-06T13:52:55Z</time>
      </trkpt>
      <trkpt lat="43.60507" lon="6.31868">
        <ele>706</ele>
        <time>2023-01-06T13:52:56Z</time>
      </trkpt>
      <trkpt lat="43.60507" lon="6.31868">
        <ele>706</ele>
        <time>2023-01-06T13:52:57Z</time>
      </trkpt>
      <trkpt lat="43.60507" lon="6.31867">
        <ele>706</ele>
        <time>2023-01-06T13:52:58Z</time>
      </trkpt>
      <trkpt lat="43.60507" lon="6.31867">
        <ele>706</ele>
        <time>2023-01-06T13:52:59Z</time>
      </trkpt>
      <trkpt lat="43.60507" lon="6.31867">
        <ele>706</ele>
        <time>2023-01-06T13:53:00Z</time>
      </trkpt>
      <trkpt lat="43.60507" lon="6.31867">
        <ele>706</ele>
        <time>2023-01-06T13:53:01Z</time>
      </trkpt>
      <trkpt lat="43.60507" lon="6.31867">
        <ele>706</ele>
        <time>2023-01-06T13:53:02Z</time>
      </trkpt>
      <trkpt lat="43.60507" lon="6.31867">
        <ele>706</ele>
        <time>2023-01-06T13:53:03Z</time>
      </trkpt>
      <trkpt lat="43.60507" lon="6.31867">
        <ele>706</ele>
        <time>2023-01-06T13:53:04Z</time>
      </trkpt>
      <trkpt lat="43.60507" lon="6.31867">
        <ele>706</ele>
        <time>2023-01-06T13:53:05Z</time>
      </trkpt>
      <trkpt lat="43.60507" lon="6.31867">
        <ele>706</ele>
        <time>2023-01-06T13:53:06Z</time>
      </trkpt>
      <trkpt lat="43.60507" lon="6.31866">
        <ele>706</ele>
        <time>2023-01-06T13:53:07Z</time>
      </trkpt>
      <trkpt lat="43.60507" lon="6.31866">
        <ele>706</ele>
        <time>2023-01-06T13:53:08Z</time>
      </trkpt>
      <trkpt lat="43.60507" lon="6.31866">
        <ele>706</ele>
        <time>2023-01-06T13:53:09Z</time>
      </trkpt>
      <trkpt lat="43.60507" lon="6.31866">
        <ele>706</ele>
        <time>2023-01-06T13:53:10Z</time>
      </trkpt>
      <trkpt lat="43.60507" lon="6.31866">
        <ele>706</ele>
        <time>2023-01-06T13:53:11Z</time>
      </trkpt>
      <trkpt lat="43.60507" lon="6.31866">
        <ele>706</ele>
        <time>2023-01-06T13:53:12Z</time>
      </trkpt>
      <trkpt lat="43.60507" lon="6.31866">
        <ele>706</ele>
        <time>2023-01-06T13:53:13Z</time>
      </trkpt>
      <trkpt lat="43.60507" lon="6.31866">
        <ele>706</ele>
        <time>2023-01-06T13:53:14Z</time>
      </trkpt>
      <trkpt lat="43.60507" lon="6.31866">
        <ele>706</ele>
        <time>2023-01-06T13:53:15Z</time>
      </trkpt>
      <trkpt lat="43.60507" lon="6.31866">
        <ele>706</ele>
        <time>2023-01-06T13:53:16Z</time>
      </trkpt>
      <trkpt lat="43.60507" lon="6.31866">
        <ele>706</ele>
        <time>2023-01-06T13:53:17Z</time>
      </trkpt>
      <trkpt lat="43.60507" lon="6.31866">
        <ele>706</ele>
        <time>2023-01-06T13:53:18Z</time>
      </trkpt>
      <trkpt lat="43.60507" lon="6.31866">
        <ele>706</ele>
        <time>2023-01-06T13:53:19Z</time>
      </trkpt>
      <trkpt lat="43.60507" lon="6.31866">
        <ele>706</ele>
        <time>2023-01-06T13:53:20Z</time>
      </trkpt>
      <trkpt lat="43.60507" lon="6.31866">
        <ele>706</ele>
        <time>2023-01-06T13:53:21Z</time>
      </trkpt>
      <trkpt lat="43.60507" lon="6.31866">
        <ele>706</ele>
        <time>2023-01-06T13:53:22Z</time>
      </trkpt>
      <trkpt lat="43.60507" lon="6.31866">
        <ele>706</ele>
        <time>2023-01-06T13:53:23Z</time>
      </trkpt>
      <trkpt lat="43.60507" lon="6.31866">
        <ele>706</ele>
        <time>2023-01-06T13:53:24Z</time>
      </trkpt>
      <trkpt lat="43.60507" lon="6.31866">
        <ele>706</ele>
        <time>2023-01-06T13:53:25Z</time>
      </trkpt>
      <trkpt lat="43.60507" lon="6.31866">
        <ele>706</ele>
        <time>2023-01-06T13:53:26Z</time>
      </trkpt>
      <trkpt lat="43.60507" lon="6.31866">
        <ele>706</ele>
        <time>2023-01-06T13:53:27Z</time>
      </trkpt>
      <trkpt lat="43.60507" lon="6.31866">
        <ele>706</ele>
        <time>2023-01-06T13:53:28Z</time>
      </trkpt>
      <trkpt lat="43.60507" lon="6.31866">
        <ele>706</ele>
        <time>2023-01-06T13:53:29Z</time>
      </trkpt>
      <trkpt lat="43.60507" lon="6.31866">
        <ele>706</ele>
        <time>2023-01-06T13:53:30Z</time>
      </trkpt>
      <trkpt lat="43.60507" lon="6.31866">
        <ele>706</ele>
        <time>2023-01-06T13:53:31Z</time>
      </trkpt>
      <trkpt lat="43.60507" lon="6.31866">
        <ele>706</ele>
        <time>2023-01-06T13:53:32Z</time>
      </trkpt>
      <trkpt lat="43.60507" lon="6.31866">
        <ele>706</ele>
        <time>2023-01-06T13:53:33Z</time>
      </trkpt>
      <trkpt lat="43.60507" lon="6.31866">
        <ele>706</ele>
        <time>2023-01-06T13:53:34Z</time>
      </trkpt>
      <trkpt lat="43.60507" lon="6.31866">
        <ele>706</ele>
        <time>2023-01-06T13:53:35Z</time>
      </trkpt>
      <trkpt lat="43.60507" lon="6.31866">
        <ele>706</ele>
        <time>2023-01-06T13:53:36Z</time>
      </trkpt>
      <trkpt lat="43.60507" lon="6.31866">
        <ele>706</ele>
        <time>2023-01-06T13:53:37Z</time>
      </trkpt>
      <trkpt lat="43.60507" lon="6.31866">
        <ele>706</ele>
        <time>2023-01-06T13:53:38Z</time>
      </trkpt>
      <trkpt lat="43.60507" lon="6.31866">
        <ele>706</ele>
        <time>2023-01-06T13:53:39Z</time>
      </trkpt>
      <trkpt lat="43.60507" lon="6.31866">
        <ele>706</ele>
        <time>2023-01-06T13:53:40Z</time>
      </trkpt>
      <trkpt lat="43.60507" lon="6.31866">
        <ele>706</ele>
        <time>2023-01-06T13:53:41Z</time>
      </trkpt>
      <trkpt lat="43.60507" lon="6.31866">
        <ele>706</ele>
        <time>2023-01-06T13:53:42Z</time>
      </trkpt>
      <trkpt lat="43.60507" lon="6.31866">
        <ele>706</ele>
        <time>2023-01-06T13:53:43Z</time>
      </trkpt>
      <trkpt lat="43.60507" lon="6.31866">
        <ele>706</ele>
        <time>2023-01-06T13:53:44Z</time>
      </trkpt>
      <trkpt lat="43.60507" lon="6.31866">
        <ele>706</ele>
        <time>2023-01-06T13:53:45Z</time>
      </trkpt>
      <trkpt lat="43.60507" lon="6.31867">
        <ele>706</ele>
        <time>2023-01-06T13:53:46Z</time>
      </trkpt>
      <trkpt lat="43.60507" lon="6.31867">
        <ele>706</ele>
        <time>2023-01-06T13:53:47Z</time>
      </trkpt>
      <trkpt lat="43.60507" lon="6.31867">
        <ele>706</ele>
        <time>2023-01-06T13:53:48Z</time>
      </trkpt>
      <trkpt lat="43.60507" lon="6.31868">
        <ele>706</ele>
        <time>2023-01-06T13:53:49Z</time>
      </trkpt>
      <trkpt lat="43.60506" lon="6.31868">
        <ele>706</ele>
        <time>2023-01-06T13:53:50Z</time>
      </trkpt>
      <trkpt lat="43.60506" lon="6.31869">
        <ele>706</ele>
        <time>2023-01-06T13:53:51Z</time>
      </trkpt>
      <trkpt lat="43.60505" lon="6.31869">
        <ele>706</ele>
        <time>2023-01-06T13:53:52Z</time>
      </trkpt>
      <trkpt lat="43.60505" lon="6.3187">
        <ele>706</ele>
        <time>2023-01-06T13:53:53Z</time>
      </trkpt>
      <trkpt lat="43.60505" lon="6.3187">
        <ele>706</ele>
        <time>2023-01-06T13:53:54Z</time>
      </trkpt>
      <trkpt lat="43.60504" lon="6.3187">
        <ele>706</ele>
        <time>2023-01-06T13:53:55Z</time>
      </trkpt>
      <trkpt lat="43.60504" lon="6.31871">
        <ele>706</ele>
        <time>2023-01-06T13:53:56Z</time>
      </trkpt>
      <trkpt lat="43.60504" lon="6.31871">
        <ele>706</ele>
        <time>2023-01-06T13:53:57Z</time>
      </trkpt>
      <trkpt lat="43.60504" lon="6.31871">
        <ele>706</ele>
        <time>2023-01-06T13:53:58Z</time>
      </trkpt>
      <trkpt lat="43.60504" lon="6.31871">
        <ele>706</ele>
        <time>2023-01-06T13:53:59Z</time>
      </trkpt>
      <trkpt lat="43.60504" lon="6.31871">
        <ele>706</ele>
        <time>2023-01-06T13:54:00Z</time>
      </trkpt>
      <trkpt lat="43.60504" lon="6.31871">
        <ele>706</ele>
        <time>2023-01-06T13:54:01Z</time>
      </trkpt>
      <trkpt lat="43.60504" lon="6.31872">
        <ele>706</ele>
        <time>2023-01-06T13:54:02Z</time>
      </trkpt>
      <trkpt lat="43.60504" lon="6.31872">
        <ele>706</ele>
        <time>2023-01-06T13:54:03Z</time>
      </trkpt>
      <trkpt lat="43.60504" lon="6.31872">
        <ele>706</ele>
        <time>2023-01-06T13:54:04Z</time>
      </trkpt>
      <trkpt lat="43.60504" lon="6.31872">
        <ele>706</ele>
        <time>2023-01-06T13:54:05Z</time>
      </trkpt>
      <trkpt lat="43.60504" lon="6.31872">
        <ele>706</ele>
        <time>2023-01-06T13:54:06Z</time>
      </trkpt>
      <trkpt lat="43.60503" lon="6.31872">
        <ele>706</ele>
        <time>2023-01-06T13:54:07Z</time>
      </trkpt>
      <trkpt lat="43.60503" lon="6.31872">
        <ele>706</ele>
        <time>2023-01-06T13:54:08Z</time>
      </trkpt>
      <trkpt lat="43.60503" lon="6.31872">
        <ele>706</ele>
        <time>2023-01-06T13:54:09Z</time>
      </trkpt>
      <trkpt lat="43.60503" lon="6.31872">
        <ele>706</ele>
        <time>2023-01-06T13:54:10Z</time>
      </trkpt>
      <trkpt lat="43.60502" lon="6.31872">
        <ele>706</ele>
        <time>2023-01-06T13:54:11Z</time>
      </trkpt>
      <trkpt lat="43.60502" lon="6.31872">
        <ele>706</ele>
        <time>2023-01-06T13:54:12Z</time>
      </trkpt>
      <trkpt lat="43.60502" lon="6.31872">
        <ele>706</ele>
        <time>2023-01-06T13:54:13Z</time>
      </trkpt>
      <trkpt lat="43.60502" lon="6.31872">
        <ele>706</ele>
        <time>2023-01-06T13:54:14Z</time>
      </trkpt>
      <trkpt lat="43.60502" lon="6.31872">
        <ele>706</ele>
        <time>2023-01-06T13:54:15Z</time>
      </trkpt>
      <trkpt lat="43.60502" lon="6.31872">
        <ele>706</ele>
        <time>2023-01-06T13:54:16Z</time>
      </trkpt>
      <trkpt lat="43.60502" lon="6.31872">
        <ele>706</ele>
        <time>2023-01-06T13:54:17Z</time>
      </trkpt>
      <trkpt lat="43.60502" lon="6.31872">
        <ele>706</ele>
        <time>2023-01-06T13:54:18Z</time>
      </trkpt>
      <trkpt lat="43.60502" lon="6.31872">
        <ele>706</ele>
        <time>2023-01-06T13:54:19Z</time>
      </trkpt>
      <trkpt lat="43.60502" lon="6.31872">
        <ele>706</ele>
        <time>2023-01-06T13:54:20Z</time>
      </trkpt>
      <trkpt lat="43.60502" lon="6.31872">
        <ele>706</ele>
        <time>2023-01-06T13:54:21Z</time>
      </trkpt>
      <trkpt lat="43.60502" lon="6.31872">
        <ele>706</ele>
        <time>2023-01-06T13:54:22Z</time>
      </trkpt>
      <trkpt lat="43.60502" lon="6.31872">
        <ele>706</ele>
        <time>2023-01-06T13:54:23Z</time>
      </trkpt>
      <trkpt lat="43.60502" lon="6.31872">
        <ele>706</ele>
        <time>2023-01-06T13:54:24Z</time>
      </trkpt>
      <trkpt lat="43.60502" lon="6.31872">
        <ele>706</ele>
        <time>2023-01-06T13:54:25Z</time>
      </trkpt>
      <trkpt lat="43.60502" lon="6.31872">
        <ele>706</ele>
        <time>2023-01-06T13:54:26Z</time>
      </trkpt>
      <trkpt lat="43.60502" lon="6.31872">
        <ele>706</ele>
        <time>2023-01-06T13:54:27Z</time>
      </trkpt>
      <trkpt lat="43.60502" lon="6.31872">
        <ele>706</ele>
        <time>2023-01-06T13:54:28Z</time>
      </trkpt>
      <trkpt lat="43.60502" lon="6.31872">
        <ele>706</ele>
        <time>2023-01-06T13:54:29Z</time>
      </trkpt>
      <trkpt lat="43.60502" lon="6.31872">
        <ele>706</ele>
        <time>2023-01-06T13:54:30Z</time>
      </trkpt>
      <trkpt lat="43.60502" lon="6.31872">
        <ele>706</ele>
        <time>2023-01-06T13:54:31Z</time>
      </trkpt>
      <trkpt lat="43.60502" lon="6.31872">
        <ele>706</ele>
        <time>2023-01-06T13:54:32Z</time>
      </trkpt>
      <trkpt lat="43.60502" lon="6.31872">
        <ele>706</ele>
        <time>2023-01-06T13:54:33Z</time>
      </trkpt>
      <trkpt lat="43.60502" lon="6.31872">
        <ele>706</ele>
        <time>2023-01-06T13:54:34Z</time>
      </trkpt>
      <trkpt lat="43.60502" lon="6.31872">
        <ele>706</ele>
        <time>2023-01-06T13:54:35Z</time>
      </trkpt>
      <trkpt lat="43.60502" lon="6.31872">
        <ele>706</ele>
        <time>2023-01-06T13:54:36Z</time>
      </trkpt>
      <trkpt lat="43.60502" lon="6.31872">
        <ele>706</ele>
        <time>2023-01-06T13:54:37Z</time>
      </trkpt>
      <trkpt lat="43.60502" lon="6.31872">
        <ele>706</ele>
        <time>2023-01-06T13:54:38Z</time>
      </trkpt>
      <trkpt lat="43.60502" lon="6.31872">
        <ele>706</ele>
        <time>2023-01-06T13:54:39Z</time>
      </trkpt>
      <trkpt lat="43.60502" lon="6.31872">
        <ele>706</ele>
        <time>2023-01-06T13:54:40Z</time>
      </trkpt>
      <trkpt lat="43.60502" lon="6.31872">
        <ele>707</ele>
        <time>2023-01-06T13:54:41Z</time>
      </trkpt>
      <trkpt lat="43.60502" lon="6.31872">
        <ele>707</ele>
        <time>2023-01-06T13:54:42Z</time>
      </trkpt>
      <trkpt lat="43.60502" lon="6.31872">
        <ele>707</ele>
        <time>2023-01-06T13:54:43Z</time>
      </trkpt>
      <trkpt lat="43.60502" lon="6.31872">
        <ele>707</ele>
        <time>2023-01-06T13:54:44Z</time>
      </trkpt>
      <trkpt lat="43.60502" lon="6.31872">
        <ele>707</ele>
        <time>2023-01-06T13:54:45Z</time>
      </trkpt>
      <trkpt lat="43.60502" lon="6.31872">
        <ele>707</ele>
        <time>2023-01-06T13:54:46Z</time>
      </trkpt>
      <trkpt lat="43.60502" lon="6.31872">
        <ele>707</ele>
        <time>2023-01-06T13:54:47Z</time>
      </trkpt>
      <trkpt lat="43.60502" lon="6.31872">
        <ele>707</ele>
        <time>2023-01-06T13:54:48Z</time>
      </trkpt>
      <trkpt lat="43.60502" lon="6.31872">
        <ele>707</ele>
        <time>2023-01-06T13:54:49Z</time>
      </trkpt>
      <trkpt lat="43.60502" lon="6.31872">
        <ele>707</ele>
        <time>2023-01-06T13:54:50Z</time>
      </trkpt>
      <trkpt lat="43.60502" lon="6.31872">
        <ele>707</ele>
        <time>2023-01-06T13:54:51Z</time>
      </trkpt>
      <trkpt lat="43.60502" lon="6.31872">
        <ele>707</ele>
        <time>2023-01-06T13:54:52Z</time>
      </trkpt>
      <trkpt lat="43.60502" lon="6.31872">
        <ele>707</ele>
        <time>2023-01-06T13:54:53Z</time>
      </trkpt>
      <trkpt lat="43.60502" lon="6.31872">
        <ele>707</ele>
        <time>2023-01-06T13:54:54Z</time>
      </trkpt>
      <trkpt lat="43.60502" lon="6.31872">
        <ele>707</ele>
        <time>2023-01-06T13:54:55Z</time>
      </trkpt>
      <trkpt lat="43.60502" lon="6.31872">
        <ele>707</ele>
        <time>2023-01-06T13:54:56Z</time>
      </trkpt>
      <trkpt lat="43.60502" lon="6.31872">
        <ele>707</ele>
        <time>2023-01-06T13:54:57Z</time>
      </trkpt>
      <trkpt lat="43.60502" lon="6.31872">
        <ele>707</ele>
        <time>2023-01-06T13:54:58Z</time>
      </trkpt>
      <trkpt lat="43.60502" lon="6.31872">
        <ele>707</ele>
        <time>2023-01-06T13:54:59Z</time>
      </trkpt>
      <trkpt lat="43.60502" lon="6.31872">
        <ele>707</ele>
        <time>2023-01-06T13:55:00Z</time>
      </trkpt>
      <trkpt lat="43.60502" lon="6.31872">
        <ele>707</ele>
        <time>2023-01-06T13:55:01Z</time>
      </trkpt>
      <trkpt lat="43.60502" lon="6.31872">
        <ele>707</ele>
        <time>2023-01-06T13:55:02Z</time>
      </trkpt>
      <trkpt lat="43.60502" lon="6.31872">
        <ele>707</ele>
        <time>2023-01-06T13:55:03Z</time>
      </trkpt>
      <trkpt lat="43.60502" lon="6.31872">
        <ele>707</ele>
        <time>2023-01-06T13:55:04Z</time>
      </trkpt>
      <trkpt lat="43.60502" lon="6.31872">
        <ele>707</ele>
        <time>2023-01-06T13:55:05Z</time>
      </trkpt>
      <trkpt lat="43.60502" lon="6.31872">
        <ele>707</ele>
        <time>2023-01-06T13:55:06Z</time>
      </trkpt>
      <trkpt lat="43.60502" lon="6.31872">
        <ele>707</ele>
        <time>2023-01-06T13:55:07Z</time>
      </trkpt>
      <trkpt lat="43.60502" lon="6.31872">
        <ele>707</ele>
        <time>2023-01-06T13:55:08Z</time>
      </trkpt>
      <trkpt lat="43.60502" lon="6.31872">
        <ele>707</ele>
        <time>2023-01-06T13:55:09Z</time>
      </trkpt>
      <trkpt lat="43.60502" lon="6.31872">
        <ele>707</ele>
        <time>2023-01-06T13:55:10Z</time>
      </trkpt>
      <trkpt lat="43.60502" lon="6.31872">
        <ele>707</ele>
        <time>2023-01-06T13:55:11Z</time>
      </trkpt>
      <trkpt lat="43.60502" lon="6.31872">
        <ele>707</ele>
        <time>2023-01-06T13:55:12Z</time>
      </trkpt>
      <trkpt lat="43.60502" lon="6.31872">
        <ele>707</ele>
        <time>2023-01-06T13:55:13Z</time>
      </trkpt>
      <trkpt lat="43.60502" lon="6.31872">
        <ele>707</ele>
        <time>2023-01-06T13:55:14Z</time>
      </trkpt>
      <trkpt lat="43.60502" lon="6.31872">
        <ele>707</ele>
        <time>2023-01-06T13:55:15Z</time>
      </trkpt>
      <trkpt lat="43.60502" lon="6.31872">
        <ele>707</ele>
        <time>2023-01-06T13:55:16Z</time>
      </trkpt>
      <trkpt lat="43.60502" lon="6.31872">
        <ele>707</ele>
        <time>2023-01-06T13:55:17Z</time>
      </trkpt>
      <trkpt lat="43.60502" lon="6.31872">
        <ele>707</ele>
        <time>2023-01-06T13:55:18Z</time>
      </trkpt>
      <trkpt lat="43.60502" lon="6.31872">
        <ele>707</ele>
        <time>2023-01-06T13:55:19Z</time>
      </trkpt>
      <trkpt lat="43.60502" lon="6.31872">
        <ele>707</ele>
        <time>2023-01-06T13:55:20Z</time>
      </trkpt>
      <trkpt lat="43.60502" lon="6.31872">
        <ele>707</ele>
        <time>2023-01-06T13:55:21Z</time>
      </trkpt>
      <trkpt lat="43.60502" lon="6.31872">
        <ele>707</ele>
        <time>2023-01-06T13:55:22Z</time>
      </trkpt>
      <trkpt lat="43.60502" lon="6.31872">
        <ele>707</ele>
        <time>2023-01-06T13:55:23Z</time>
      </trkpt>
      <trkpt lat="43.60502" lon="6.31872">
        <ele>707</ele>
        <time>2023-01-06T13:55:24Z</time>
      </trkpt>
      <trkpt lat="43.60502" lon="6.31872">
        <ele>707</ele>
        <time>2023-01-06T13:55:25Z</time>
      </trkpt>
      <trkpt lat="43.60502" lon="6.31872">
        <ele>707</ele>
        <time>2023-01-06T13:55:26Z</time>
      </trkpt>
      <trkpt lat="43.60502" lon="6.31872">
        <ele>707</ele>
        <time>2023-01-06T13:55:27Z</time>
      </trkpt>
      <trkpt lat="43.60502" lon="6.31872">
        <ele>707</ele>
        <time>2023-01-06T13:55:28Z</time>
      </trkpt>
      <trkpt lat="43.60502" lon="6.31872">
        <ele>707</ele>
        <time>2023-01-06T13:55:29Z</time>
      </trkpt>
      <trkpt lat="43.60502" lon="6.31872">
        <ele>707</ele>
        <time>2023-01-06T13:55:30Z</time>
      </trkpt>
      <trkpt lat="43.60502" lon="6.31872">
        <ele>707</ele>
        <time>2023-01-06T13:55:31Z</time>
      </trkpt>
      <trkpt lat="43.60502" lon="6.31872">
        <ele>707</ele>
        <time>2023-01-06T13:55:32Z</time>
      </trkpt>
      <trkpt lat="43.60502" lon="6.31872">
        <ele>707</ele>
        <time>2023-01-06T13:55:33Z</time>
      </trkpt>
      <trkpt lat="43.60502" lon="6.31872">
        <ele>707</ele>
        <time>2023-01-06T13:55:34Z</time>
      </trkpt>
      <trkpt lat="43.60502" lon="6.31872">
        <ele>707</ele>
        <time>2023-01-06T13:55:35Z</time>
      </trkpt>
      <trkpt lat="43.60502" lon="6.31872">
        <ele>707</ele>
        <time>2023-01-06T13:55:36Z</time>
      </trkpt>
      <trkpt lat="43.60502" lon="6.31872">
        <ele>707</ele>
        <time>2023-01-06T13:55:37Z</time>
      </trkpt>
      <trkpt lat="43.60502" lon="6.31872">
        <ele>707</ele>
        <time>2023-01-06T13:55:38Z</time>
      </trkpt>
      <trkpt lat="43.60502" lon="6.31872">
        <ele>707</ele>
        <time>2023-01-06T13:55:39Z</time>
      </trkpt>
      <trkpt lat="43.60502" lon="6.31872">
        <ele>707</ele>
        <time>2023-01-06T13:55:40Z</time>
      </trkpt>
      <trkpt lat="43.60502" lon="6.31872">
        <ele>707</ele>
        <time>2023-01-06T13:55:41Z</time>
      </trkpt>
      <trkpt lat="43.60502" lon="6.31872">
        <ele>707</ele>
        <time>2023-01-06T13:55:42Z</time>
      </trkpt>
      <trkpt lat="43.60502" lon="6.31872">
        <ele>707</ele>
        <time>2023-01-06T13:55:43Z</time>
      </trkpt>
      <trkpt lat="43.60502" lon="6.31872">
        <ele>707</ele>
        <time>2023-01-06T13:55:44Z</time>
      </trkpt>
      <trkpt lat="43.60502" lon="6.31872">
        <ele>707</ele>
        <time>2023-01-06T13:55:45Z</time>
      </trkpt>
      <trkpt lat="43.60502" lon="6.31872">
        <ele>707</ele>
        <time>2023-01-06T13:55:46Z</time>
      </trkpt>
      <trkpt lat="43.60502" lon="6.31872">
        <ele>707</ele>
        <time>2023-01-06T13:55:47Z</time>
      </trkpt>
      <trkpt lat="43.60502" lon="6.31872">
        <ele>707</ele>
        <time>2023-01-06T13:55:48Z</time>
      </trkpt>
      <trkpt lat="43.60502" lon="6.31872">
        <ele>707</ele>
        <time>2023-01-06T13:55:49Z</time>
      </trkpt>
      <trkpt lat="43.60502" lon="6.31872">
        <ele>707</ele>
        <time>2023-01-06T13:55:50Z</time>
      </trkpt>
      <trkpt lat="43.60502" lon="6.31872">
        <ele>707</ele>
        <time>2023-01-06T13:55:51Z</time>
      </trkpt>
      <trkpt lat="43.60502" lon="6.31872">
        <ele>707</ele>
        <time>2023-01-06T13:55:52Z</time>
      </trkpt>
      <trkpt lat="43.60502" lon="6.31872">
        <ele>707</ele>
        <time>2023-01-06T13:55:53Z</time>
      </trkpt>
      <trkpt lat="43.60502" lon="6.31872">
        <ele>707</ele>
        <time>2023-01-06T13:55:54Z</time>
      </trkpt>
      <trkpt lat="43.60502" lon="6.31872">
        <ele>707</ele>
        <time>2023-01-06T13:55:55Z</time>
      </trkpt>
      <trkpt lat="43.60502" lon="6.31872">
        <ele>707</ele>
        <time>2023-01-06T13:55:56Z</time>
      </trkpt>
      <trkpt lat="43.60502" lon="6.31872">
        <ele>707</ele>
        <time>2023-01-06T13:55:57Z</time>
      </trkpt>
      <trkpt lat="43.60502" lon="6.31872">
        <ele>707</ele>
        <time>2023-01-06T13:55:58Z</time>
      </trkpt>
      <trkpt lat="43.60502" lon="6.31872">
        <ele>707</ele>
        <time>2023-01-06T13:55:59Z</time>
      </trkpt>
      <trkpt lat="43.60502" lon="6.31872">
        <ele>707</ele>
        <time>2023-01-06T13:56:00Z</time>
      </trkpt>
      <trkpt lat="43.60502" lon="6.31872">
        <ele>707</ele>
        <time>2023-01-06T13:56:01Z</time>
      </trkpt>
      <trkpt lat="43.60502" lon="6.31872">
        <ele>707</ele>
        <time>2023-01-06T13:56:02Z</time>
      </trkpt>
      <trkpt lat="43.60502" lon="6.31872">
        <ele>707</ele>
        <time>2023-01-06T13:56:03Z</time>
      </trkpt>
      <trkpt lat="43.60502" lon="6.31872">
        <ele>707</ele>
        <time>2023-01-06T13:56:04Z</time>
      </trkpt>
      <trkpt lat="43.60502" lon="6.31872">
        <ele>707</ele>
        <time>2023-01-06T13:56:05Z</time>
      </trkpt>
      <trkpt lat="43.60502" lon="6.31872">
        <ele>707</ele>
        <time>2023-01-06T13:56:06Z</time>
      </trkpt>
      <trkpt lat="43.60502" lon="6.31872">
        <ele>707</ele>
        <time>2023-01-06T13:56:07Z</time>
      </trkpt>
      <trkpt lat="43.60502" lon="6.31872">
        <ele>707</ele>
        <time>2023-01-06T13:56:08Z</time>
      </trkpt>
      <trkpt lat="43.60502" lon="6.31872">
        <ele>707</ele>
        <time>2023-01-06T13:56:09Z</time>
      </trkpt>
      <trkpt lat="43.60502" lon="6.31872">
        <ele>707</ele>
        <time>2023-01-06T13:56:10Z</time>
      </trkpt>
      <trkpt lat="43.60501" lon="6.31872">
        <ele>707</ele>
        <time>2023-01-06T13:56:11Z</time>
      </trkpt>
      <trkpt lat="43.60501" lon="6.31872">
        <ele>707</ele>
        <time>2023-01-06T13:56:12Z</time>
      </trkpt>
      <trkpt lat="43.60501" lon="6.31873">
        <ele>707</ele>
        <time>2023-01-06T13:56:13Z</time>
      </trkpt>
      <trkpt lat="43.60501" lon="6.31873">
        <ele>707</ele>
        <time>2023-01-06T13:56:14Z</time>
      </trkpt>
      <trkpt lat="43.605" lon="6.31873">
        <ele>707</ele>
        <time>2023-01-06T13:56:15Z</time>
      </trkpt>
      <trkpt lat="43.605" lon="6.31874">
        <ele>707</ele>
        <time>2023-01-06T13:56:16Z</time>
      </trkpt>
      <trkpt lat="43.60499" lon="6.31874">
        <ele>707</ele>
        <time>2023-01-06T13:56:17Z</time>
      </trkpt>
      <trkpt lat="43.60499" lon="6.31875">
        <ele>707</ele>
        <time>2023-01-06T13:56:18Z</time>
      </trkpt>
      <trkpt lat="43.60499" lon="6.31876">
        <ele>707</ele>
        <time>2023-01-06T13:56:19Z</time>
      </trkpt>
      <trkpt lat="43.60498" lon="6.31876">
        <ele>707</ele>
        <time>2023-01-06T13:56:20Z</time>
      </trkpt>
      <trkpt lat="43.60498" lon="6.31877">
        <ele>707</ele>
        <time>2023-01-06T13:56:21Z</time>
      </trkpt>
      <trkpt lat="43.60498" lon="6.31878">
        <ele>707</ele>
        <time>2023-01-06T13:56:22Z</time>
      </trkpt>
      <trkpt lat="43.60497" lon="6.31879">
        <ele>707</ele>
        <time>2023-01-06T13:56:23Z</time>
      </trkpt>
      <trkpt lat="43.60497" lon="6.3188">
        <ele>708</ele>
        <time>2023-01-06T13:56:24Z</time>
      </trkpt>
      <trkpt lat="43.60497" lon="6.31881">
        <ele>708</ele>
        <time>2023-01-06T13:56:25Z</time>
      </trkpt>
      <trkpt lat="43.60496" lon="6.31882">
        <ele>708</ele>
        <time>2023-01-06T13:56:26Z</time>
      </trkpt>
      <trkpt lat="43.60496" lon="6.31882">
        <ele>708</ele>
        <time>2023-01-06T13:56:27Z</time>
      </trkpt>
      <trkpt lat="43.60496" lon="6.31883">
        <ele>709</ele>
        <time>2023-01-06T13:56:28Z</time>
      </trkpt>
      <trkpt lat="43.60496" lon="6.31883">
        <ele>709</ele>
        <time>2023-01-06T13:56:29Z</time>
      </trkpt>
      <trkpt lat="43.60495" lon="6.31884">
        <ele>709</ele>
        <time>2023-01-06T13:56:30Z</time>
      </trkpt>
      <trkpt lat="43.60495" lon="6.31884">
        <ele>709</ele>
        <time>2023-01-06T13:56:31Z</time>
      </trkpt>
      <trkpt lat="43.60495" lon="6.31885">
        <ele>709</ele>
        <time>2023-01-06T13:56:32Z</time>
      </trkpt>
      <trkpt lat="43.60495" lon="6.31885">
        <ele>709</ele>
        <time>2023-01-06T13:56:33Z</time>
      </trkpt>
      <trkpt lat="43.60495" lon="6.31886">
        <ele>709</ele>
        <time>2023-01-06T13:56:34Z</time>
      </trkpt>
      <trkpt lat="43.60494" lon="6.31887">
        <ele>709</ele>
        <time>2023-01-06T13:56:35Z</time>
      </trkpt>
      <trkpt lat="43.60494" lon="6.31888">
        <ele>710</ele>
        <time>2023-01-06T13:56:36Z</time>
      </trkpt>
      <trkpt lat="43.60494" lon="6.31888">
        <ele>710</ele>
        <time>2023-01-06T13:56:37Z</time>
      </trkpt>
      <trkpt lat="43.60493" lon="6.31889">
        <ele>710</ele>
        <time>2023-01-06T13:56:38Z</time>
      </trkpt>
      <trkpt lat="43.60493" lon="6.31889">
        <ele>710</ele>
        <time>2023-01-06T13:56:39Z</time>
      </trkpt>
      <trkpt lat="43.60493" lon="6.3189">
        <ele>710</ele>
        <time>2023-01-06T13:56:40Z</time>
      </trkpt>
      <trkpt lat="43.60492" lon="6.31891">
        <ele>710</ele>
        <time>2023-01-06T13:56:41Z</time>
      </trkpt>
      <trkpt lat="43.60492" lon="6.31891">
        <ele>710</ele>
        <time>2023-01-06T13:56:42Z</time>
      </trkpt>
      <trkpt lat="43.60492" lon="6.31892">
        <ele>710</ele>
        <time>2023-01-06T13:56:43Z</time>
      </trkpt>
      <trkpt lat="43.60492" lon="6.31893">
        <ele>710</ele>
        <time>2023-01-06T13:56:44Z</time>
      </trkpt>
      <trkpt lat="43.60491" lon="6.31894">
        <ele>710</ele>
        <time>2023-01-06T13:56:45Z</time>
      </trkpt>
      <trkpt lat="43.60491" lon="6.31895">
        <ele>710</ele>
        <time>2023-01-06T13:56:46Z</time>
      </trkpt>
      <trkpt lat="43.60491" lon="6.31896">
        <ele>710</ele>
        <time>2023-01-06T13:56:47Z</time>
      </trkpt>
      <trkpt lat="43.6049" lon="6.31897">
        <ele>710</ele>
        <time>2023-01-06T13:56:48Z</time>
      </trkpt>
      <trkpt lat="43.6049" lon="6.31898">
        <ele>710</ele>
        <time>2023-01-06T13:56:49Z</time>
      </trkpt>
      <trkpt lat="43.60489" lon="6.319">
        <ele>710</ele>
        <time>2023-01-06T13:56:50Z</time>
      </trkpt>
      <trkpt lat="43.60489" lon="6.31901">
        <ele>710</ele>
        <time>2023-01-06T13:56:51Z</time>
      </trkpt>
      <trkpt lat="43.60488" lon="6.31902">
        <ele>710</ele>
        <time>2023-01-06T13:56:52Z</time>
      </trkpt>
      <trkpt lat="43.60488" lon="6.31903">
        <ele>710</ele>
        <time>2023-01-06T13:56:53Z</time>
      </trkpt>
      <trkpt lat="43.60487" lon="6.31904">
        <ele>710</ele>
        <time>2023-01-06T13:56:54Z</time>
      </trkpt>
      <trkpt lat="43.60487" lon="6.31905">
        <ele>710</ele>
        <time>2023-01-06T13:56:55Z</time>
      </trkpt>
      <trkpt lat="43.60487" lon="6.31907">
        <ele>710</ele>
        <time>2023-01-06T13:56:56Z</time>
      </trkpt>
      <trkpt lat="43.60486" lon="6.31909">
        <ele>710</ele>
        <time>2023-01-06T13:56:57Z</time>
      </trkpt>
      <trkpt lat="43.60486" lon="6.3191">
        <ele>710</ele>
        <time>2023-01-06T13:56:58Z</time>
      </trkpt>
      <trkpt lat="43.60486" lon="6.31912">
        <ele>710</ele>
        <time>2023-01-06T13:56:59Z</time>
      </trkpt>
      <trkpt lat="43.60486" lon="6.31913">
        <ele>710</ele>
        <time>2023-01-06T13:57:00Z</time>
      </trkpt>
      <trkpt lat="43.60486" lon="6.31914">
        <ele>710</ele>
        <time>2023-01-06T13:57:01Z</time>
      </trkpt>
      <trkpt lat="43.60485" lon="6.31915">
        <ele>710</ele>
        <time>2023-01-06T13:57:02Z</time>
      </trkpt>
      <trkpt lat="43.60485" lon="6.31917">
        <ele>710</ele>
        <time>2023-01-06T13:57:03Z</time>
      </trkpt>
      <trkpt lat="43.60485" lon="6.31918">
        <ele>710</ele>
        <time>2023-01-06T13:57:04Z</time>
      </trkpt>
      <trkpt lat="43.60485" lon="6.31919">
        <ele>710</ele>
        <time>2023-01-06T13:57:05Z</time>
      </trkpt>
      <trkpt lat="43.60485" lon="6.3192">
        <ele>710</ele>
        <time>2023-01-06T13:57:06Z</time>
      </trkpt>
      <trkpt lat="43.60485" lon="6.31922">
        <ele>710</ele>
        <time>2023-01-06T13:57:07Z</time>
      </trkpt>
      <trkpt lat="43.60484" lon="6.31924">
        <ele>710</ele>
        <time>2023-01-06T13:57:08Z</time>
      </trkpt>
      <trkpt lat="43.60484" lon="6.31926">
        <ele>710</ele>
        <time>2023-01-06T13:57:09Z</time>
      </trkpt>
      <trkpt lat="43.60484" lon="6.31928">
        <ele>710</ele>
        <time>2023-01-06T13:57:10Z</time>
      </trkpt>
      <trkpt lat="43.60484" lon="6.3193">
        <ele>710</ele>
        <time>2023-01-06T13:57:11Z</time>
      </trkpt>
      <trkpt lat="43.60484" lon="6.31931">
        <ele>710</ele>
        <time>2023-01-06T13:57:12Z</time>
      </trkpt>
      <trkpt lat="43.60484" lon="6.31932">
        <ele>710</ele>
        <time>2023-01-06T13:57:13Z</time>
      </trkpt>
      <trkpt lat="43.60484" lon="6.31933">
        <ele>710</ele>
        <time>2023-01-06T13:57:14Z</time>
      </trkpt>
      <trkpt lat="43.60484" lon="6.31934">
        <ele>710</ele>
        <time>2023-01-06T13:57:15Z</time>
      </trkpt>
      <trkpt lat="43.60485" lon="6.31936">
        <ele>709</ele>
        <time>2023-01-06T13:57:16Z</time>
      </trkpt>
      <trkpt lat="43.60486" lon="6.31938">
        <ele>709</ele>
        <time>2023-01-06T13:57:17Z</time>
      </trkpt>
      <trkpt lat="43.60486" lon="6.31939">
        <ele>709</ele>
        <time>2023-01-06T13:57:18Z</time>
      </trkpt>
      <trkpt lat="43.60486" lon="6.31939">
        <ele>709</ele>
        <time>2023-01-06T13:57:19Z</time>
      </trkpt>
      <trkpt lat="43.60487" lon="6.3194">
        <ele>709</ele>
        <time>2023-01-06T13:57:20Z</time>
      </trkpt>
      <trkpt lat="43.60487" lon="6.3194">
        <ele>709</ele>
        <time>2023-01-06T13:57:21Z</time>
      </trkpt>
      <trkpt lat="43.60487" lon="6.31941">
        <ele>709</ele>
        <time>2023-01-06T13:57:22Z</time>
      </trkpt>
      <trkpt lat="43.60488" lon="6.31941">
        <ele>709</ele>
        <time>2023-01-06T13:57:23Z</time>
      </trkpt>
      <trkpt lat="43.60488" lon="6.31942">
        <ele>709</ele>
        <time>2023-01-06T13:57:24Z</time>
      </trkpt>
      <trkpt lat="43.60489" lon="6.31942">
        <ele>709</ele>
        <time>2023-01-06T13:57:25Z</time>
      </trkpt>
      <trkpt lat="43.6049" lon="6.31943">
        <ele>708</ele>
        <time>2023-01-06T13:57:26Z</time>
      </trkpt>
      <trkpt lat="43.60491" lon="6.31944">
        <ele>708</ele>
        <time>2023-01-06T13:57:27Z</time>
      </trkpt>
      <trkpt lat="43.60492" lon="6.31944">
        <ele>708</ele>
        <time>2023-01-06T13:57:28Z</time>
      </trkpt>
      <trkpt lat="43.60492" lon="6.31945">
        <ele>708</ele>
        <time>2023-01-06T13:57:29Z</time>
      </trkpt>
      <trkpt lat="43.60493" lon="6.31945">
        <ele>708</ele>
        <time>2023-01-06T13:57:30Z</time>
      </trkpt>
      <trkpt lat="43.60493" lon="6.31945">
        <ele>708</ele>
        <time>2023-01-06T13:57:31Z</time>
      </trkpt>
      <trkpt lat="43.60494" lon="6.31946">
        <ele>708</ele>
        <time>2023-01-06T13:57:32Z</time>
      </trkpt>
      <trkpt lat="43.60495" lon="6.31946">
        <ele>708</ele>
        <time>2023-01-06T13:57:33Z</time>
      </trkpt>
      <trkpt lat="43.60496" lon="6.31946">
        <ele>708</ele>
        <time>2023-01-06T13:57:34Z</time>
      </trkpt>
      <trkpt lat="43.60497" lon="6.31947">
        <ele>708</ele>
        <time>2023-01-06T13:57:35Z</time>
      </trkpt>
      <trkpt lat="43.60498" lon="6.31948">
        <ele>708</ele>
        <time>2023-01-06T13:57:36Z</time>
      </trkpt>
      <trkpt lat="43.60499" lon="6.31949">
        <ele>709</ele>
        <time>2023-01-06T13:57:37Z</time>
      </trkpt>
      <trkpt lat="43.605" lon="6.3195">
        <ele>709</ele>
        <time>2023-01-06T13:57:38Z</time>
      </trkpt>
      <trkpt lat="43.60501" lon="6.3195">
        <ele>709</ele>
        <time>2023-01-06T13:57:39Z</time>
      </trkpt>
      <trkpt lat="43.60501" lon="6.31951">
        <ele>709</ele>
        <time>2023-01-06T13:57:40Z</time>
      </trkpt>
      <trkpt lat="43.60501" lon="6.31951">
        <ele>709</ele>
        <time>2023-01-06T13:57:41Z</time>
      </trkpt>
      <trkpt lat="43.60502" lon="6.31951">
        <ele>709</ele>
        <time>2023-01-06T13:57:42Z</time>
      </trkpt>
      <trkpt lat="43.60502" lon="6.31951">
        <ele>709</ele>
        <time>2023-01-06T13:57:43Z</time>
      </trkpt>
      <trkpt lat="43.60502" lon="6.31952">
        <ele>710</ele>
        <time>2023-01-06T13:57:44Z</time>
      </trkpt>
      <trkpt lat="43.60502" lon="6.31952">
        <ele>710</ele>
        <time>2023-01-06T13:57:45Z</time>
      </trkpt>
      <trkpt lat="43.60502" lon="6.31952">
        <ele>710</ele>
        <time>2023-01-06T13:57:46Z</time>
      </trkpt>
      <trkpt lat="43.60503" lon="6.31952">
        <ele>710</ele>
        <time>2023-01-06T13:57:47Z</time>
      </trkpt>
      <trkpt lat="43.60503" lon="6.31952">
        <ele>710</ele>
        <time>2023-01-06T13:57:48Z</time>
      </trkpt>
      <trkpt lat="43.60504" lon="6.31951">
        <ele>710</ele>
        <time>2023-01-06T13:57:49Z</time>
      </trkpt>
      <trkpt lat="43.60505" lon="6.31949">
        <ele>710</ele>
        <time>2023-01-06T13:57:50Z</time>
      </trkpt>
      <trkpt lat="43.60506" lon="6.31948">
        <ele>710</ele>
        <time>2023-01-06T13:57:51Z</time>
      </trkpt>
      <trkpt lat="43.60508" lon="6.31947">
        <ele>710</ele>
        <time>2023-01-06T13:57:52Z</time>
      </trkpt>
      <trkpt lat="43.60509" lon="6.31945">
        <ele>710</ele>
        <time>2023-01-06T13:57:53Z</time>
      </trkpt>
      <trkpt lat="43.6051" lon="6.31944">
        <ele>710</ele>
        <time>2023-01-06T13:57:54Z</time>
      </trkpt>
      <trkpt lat="43.60511" lon="6.31943">
        <ele>710</ele>
        <time>2023-01-06T13:57:55Z</time>
      </trkpt>
      <trkpt lat="43.60512" lon="6.31942">
        <ele>710</ele>
        <time>2023-01-06T13:57:56Z</time>
      </trkpt>
      <trkpt lat="43.60513" lon="6.31941">
        <ele>711</ele>
        <time>2023-01-06T13:57:57Z</time>
      </trkpt>
      <trkpt lat="43.60515" lon="6.3194">
        <ele>710</ele>
        <time>2023-01-06T13:57:59Z</time>
      </trkpt>
      <trkpt lat="43.60516" lon="6.31939">
        <ele>710</ele>
        <time>2023-01-06T13:58:00Z</time>
      </trkpt>
      <trkpt lat="43.60516" lon="6.31938">
        <ele>710</ele>
        <time>2023-01-06T13:58:01Z</time>
      </trkpt>
      <trkpt lat="43.60517" lon="6.31937">
        <ele>710</ele>
        <time>2023-01-06T13:58:02Z</time>
      </trkpt>
      <trkpt lat="43.60518" lon="6.31935">
        <ele>710</ele>
        <time>2023-01-06T13:58:03Z</time>
      </trkpt>
      <trkpt lat="43.60519" lon="6.31934">
        <ele>710</ele>
        <time>2023-01-06T13:58:04Z</time>
      </trkpt>
      <trkpt lat="43.6052" lon="6.31933">
        <ele>710</ele>
        <time>2023-01-06T13:58:05Z</time>
      </trkpt>
      <trkpt lat="43.60521" lon="6.31932">
        <ele>710</ele>
        <time>2023-01-06T13:58:06Z</time>
      </trkpt>
      <trkpt lat="43.60521" lon="6.31931">
        <ele>710</ele>
        <time>2023-01-06T13:58:07Z</time>
      </trkpt>
      <trkpt lat="43.60522" lon="6.3193">
        <ele>710</ele>
        <time>2023-01-06T13:58:08Z</time>
      </trkpt>
      <trkpt lat="43.60522" lon="6.31929">
        <ele>710</ele>
        <time>2023-01-06T13:58:09Z</time>
      </trkpt>
      <trkpt lat="43.60523" lon="6.31928">
        <ele>710</ele>
        <time>2023-01-06T13:58:10Z</time>
      </trkpt>
      <trkpt lat="43.60523" lon="6.31927">
        <ele>710</ele>
        <time>2023-01-06T13:58:11Z</time>
      </trkpt>
      <trkpt lat="43.60524" lon="6.31925">
        <ele>710</ele>
        <time>2023-01-06T13:58:12Z</time>
      </trkpt>
      <trkpt lat="43.60525" lon="6.31923">
        <ele>710</ele>
        <time>2023-01-06T13:58:13Z</time>
      </trkpt>
      <trkpt lat="43.60526" lon="6.31922">
        <ele>710</ele>
        <time>2023-01-06T13:58:14Z</time>
      </trkpt>
      <trkpt lat="43.60527" lon="6.31921">
        <ele>711</ele>
        <time>2023-01-06T13:58:15Z</time>
      </trkpt>
      <trkpt lat="43.60528" lon="6.3192">
        <ele>711</ele>
        <time>2023-01-06T13:58:16Z</time>
      </trkpt>
      <trkpt lat="43.60529" lon="6.3192">
        <ele>711</ele>
        <time>2023-01-06T13:58:17Z</time>
      </trkpt>
      <trkpt lat="43.60529" lon="6.3192">
        <ele>712</ele>
        <time>2023-01-06T13:58:18Z</time>
      </trkpt>
      <trkpt lat="43.6053" lon="6.31919">
        <ele>712</ele>
        <time>2023-01-06T13:58:19Z</time>
      </trkpt>
      <trkpt lat="43.60531" lon="6.31918">
        <ele>712</ele>
        <time>2023-01-06T13:58:20Z</time>
      </trkpt>
      <trkpt lat="43.60532" lon="6.31917">
        <ele>712</ele>
        <time>2023-01-06T13:58:21Z</time>
      </trkpt>
      <trkpt lat="43.60533" lon="6.31916">
        <ele>712</ele>
        <time>2023-01-06T13:58:22Z</time>
      </trkpt>
      <trkpt lat="43.60535" lon="6.31915">
        <ele>712</ele>
        <time>2023-01-06T13:58:23Z</time>
      </trkpt>
      <trkpt lat="43.60536" lon="6.31915">
        <ele>713</ele>
        <time>2023-01-06T13:58:24Z</time>
      </trkpt>
      <trkpt lat="43.60536" lon="6.31914">
        <ele>713</ele>
        <time>2023-01-06T13:58:25Z</time>
      </trkpt>
      <trkpt lat="43.60537" lon="6.31913">
        <ele>713</ele>
        <time>2023-01-06T13:58:26Z</time>
      </trkpt>
      <trkpt lat="43.60538" lon="6.31912">
        <ele>714</ele>
        <time>2023-01-06T13:58:27Z</time>
      </trkpt>
      <trkpt lat="43.60539" lon="6.31911">
        <ele>714</ele>
        <time>2023-01-06T13:58:28Z</time>
      </trkpt>
      <trkpt lat="43.60539" lon="6.3191">
        <ele>714</ele>
        <time>2023-01-06T13:58:29Z</time>
      </trkpt>
      <trkpt lat="43.6054" lon="6.31909">
        <ele>714</ele>
        <time>2023-01-06T13:58:30Z</time>
      </trkpt>
      <trkpt lat="43.6054" lon="6.31908">
        <ele>714</ele>
        <time>2023-01-06T13:58:31Z</time>
      </trkpt>
      <trkpt lat="43.6054" lon="6.31908">
        <ele>714</ele>
        <time>2023-01-06T13:58:32Z</time>
      </trkpt>
      <trkpt lat="43.6054" lon="6.31907">
        <ele>714</ele>
        <time>2023-01-06T13:58:33Z</time>
      </trkpt>
      <trkpt lat="43.6054" lon="6.31906">
        <ele>714</ele>
        <time>2023-01-06T13:58:34Z</time>
      </trkpt>
      <trkpt lat="43.6054" lon="6.31905">
        <ele>714</ele>
        <time>2023-01-06T13:58:35Z</time>
      </trkpt>
      <trkpt lat="43.60541" lon="6.31904">
        <ele>714</ele>
        <time>2023-01-06T13:58:36Z</time>
      </trkpt>
      <trkpt lat="43.60541" lon="6.31903">
        <ele>714</ele>
        <time>2023-01-06T13:58:37Z</time>
      </trkpt>
      <trkpt lat="43.60541" lon="6.31902">
        <ele>715</ele>
        <time>2023-01-06T13:58:38Z</time>
      </trkpt>
      <trkpt lat="43.60541" lon="6.31901">
        <ele>715</ele>
        <time>2023-01-06T13:58:39Z</time>
      </trkpt>
      <trkpt lat="43.60542" lon="6.319">
        <ele>715</ele>
        <time>2023-01-06T13:58:40Z</time>
      </trkpt>
      <trkpt lat="43.60542" lon="6.31899">
        <ele>715</ele>
        <time>2023-01-06T13:58:41Z</time>
      </trkpt>
      <trkpt lat="43.60542" lon="6.31898">
        <ele>715</ele>
        <time>2023-01-06T13:58:42Z</time>
      </trkpt>
      <trkpt lat="43.60542" lon="6.31897">
        <ele>715</ele>
        <time>2023-01-06T13:58:43Z</time>
      </trkpt>
      <trkpt lat="43.60543" lon="6.31896">
        <ele>715</ele>
        <time>2023-01-06T13:58:44Z</time>
      </trkpt>
      <trkpt lat="43.60543" lon="6.31894">
        <ele>715</ele>
        <time>2023-01-06T13:58:45Z</time>
      </trkpt>
      <trkpt lat="43.60544" lon="6.31893">
        <ele>715</ele>
        <time>2023-01-06T13:58:46Z</time>
      </trkpt>
      <trkpt lat="43.60545" lon="6.31891">
        <ele>715</ele>
        <time>2023-01-06T13:58:47Z</time>
      </trkpt>
      <trkpt lat="43.60545" lon="6.31889">
        <ele>716</ele>
        <time>2023-01-06T13:58:48Z</time>
      </trkpt>
      <trkpt lat="43.60546" lon="6.31887">
        <ele>716</ele>
        <time>2023-01-06T13:58:49Z</time>
      </trkpt>
      <trkpt lat="43.60547" lon="6.31886">
        <ele>716</ele>
        <time>2023-01-06T13:58:50Z</time>
      </trkpt>
      <trkpt lat="43.60548" lon="6.31884">
        <ele>717</ele>
        <time>2023-01-06T13:58:51Z</time>
      </trkpt>
      <trkpt lat="43.60548" lon="6.31882">
        <ele>717</ele>
        <time>2023-01-06T13:58:52Z</time>
      </trkpt>
      <trkpt lat="43.60549" lon="6.31881">
        <ele>717</ele>
        <time>2023-01-06T13:58:53Z</time>
      </trkpt>
      <trkpt lat="43.60549" lon="6.3188">
        <ele>717</ele>
        <time>2023-01-06T13:58:54Z</time>
      </trkpt>
      <trkpt lat="43.6055" lon="6.31879">
        <ele>718</ele>
        <time>2023-01-06T13:58:55Z</time>
      </trkpt>
      <trkpt lat="43.60551" lon="6.31878">
        <ele>718</ele>
        <time>2023-01-06T13:58:56Z</time>
      </trkpt>
      <trkpt lat="43.60551" lon="6.31877">
        <ele>718</ele>
        <time>2023-01-06T13:58:57Z</time>
      </trkpt>
      <trkpt lat="43.60552" lon="6.31876">
        <ele>718</ele>
        <time>2023-01-06T13:58:58Z</time>
      </trkpt>
      <trkpt lat="43.60553" lon="6.31875">
        <ele>719</ele>
        <time>2023-01-06T13:58:59Z</time>
      </trkpt>
      <trkpt lat="43.60553" lon="6.31873">
        <ele>719</ele>
        <time>2023-01-06T13:59:00Z</time>
      </trkpt>
      <trkpt lat="43.60554" lon="6.31872">
        <ele>719</ele>
        <time>2023-01-06T13:59:01Z</time>
      </trkpt>
      <trkpt lat="43.60554" lon="6.31871">
        <ele>719</ele>
        <time>2023-01-06T13:59:02Z</time>
      </trkpt>
      <trkpt lat="43.60555" lon="6.3187">
        <ele>719</ele>
        <time>2023-01-06T13:59:03Z</time>
      </trkpt>
      <trkpt lat="43.60555" lon="6.31869">
        <ele>719</ele>
        <time>2023-01-06T13:59:04Z</time>
      </trkpt>
      <trkpt lat="43.60556" lon="6.31868">
        <ele>719</ele>
        <time>2023-01-06T13:59:05Z</time>
      </trkpt>
      <trkpt lat="43.60557" lon="6.31867">
        <ele>719</ele>
        <time>2023-01-06T13:59:06Z</time>
      </trkpt>
      <trkpt lat="43.60557" lon="6.31866">
        <ele>719</ele>
        <time>2023-01-06T13:59:07Z</time>
      </trkpt>
      <trkpt lat="43.60558" lon="6.31864">
        <ele>719</ele>
        <time>2023-01-06T13:59:08Z</time>
      </trkpt>
      <trkpt lat="43.60559" lon="6.31863">
        <ele>719</ele>
        <time>2023-01-06T13:59:09Z</time>
      </trkpt>
      <trkpt lat="43.60559" lon="6.31862">
        <ele>719</ele>
        <time>2023-01-06T13:59:10Z</time>
      </trkpt>
      <trkpt lat="43.6056" lon="6.31861">
        <ele>719</ele>
        <time>2023-01-06T13:59:11Z</time>
      </trkpt>
      <trkpt lat="43.60561" lon="6.3186">
        <ele>719</ele>
        <time>2023-01-06T13:59:12Z</time>
      </trkpt>
      <trkpt lat="43.60561" lon="6.31859">
        <ele>720</ele>
        <time>2023-01-06T13:59:13Z</time>
      </trkpt>
      <trkpt lat="43.60562" lon="6.31858">
        <ele>720</ele>
        <time>2023-01-06T13:59:14Z</time>
      </trkpt>
      <trkpt lat="43.60563" lon="6.31857">
        <ele>720</ele>
        <time>2023-01-06T13:59:15Z</time>
      </trkpt>
      <trkpt lat="43.60563" lon="6.31856">
        <ele>720</ele>
        <time>2023-01-06T13:59:16Z</time>
      </trkpt>
      <trkpt lat="43.60564" lon="6.31855">
        <ele>720</ele>
        <time>2023-01-06T13:59:17Z</time>
      </trkpt>
      <trkpt lat="43.60564" lon="6.31854">
        <ele>720</ele>
        <time>2023-01-06T13:59:18Z</time>
      </trkpt>
      <trkpt lat="43.60565" lon="6.31853">
        <ele>720</ele>
        <time>2023-01-06T13:59:19Z</time>
      </trkpt>
      <trkpt lat="43.60566" lon="6.31851">
        <ele>720</ele>
        <time>2023-01-06T13:59:20Z</time>
      </trkpt>
      <trkpt lat="43.60567" lon="6.3185">
        <ele>720</ele>
        <time>2023-01-06T13:59:21Z</time>
      </trkpt>
      <trkpt lat="43.60567" lon="6.31849">
        <ele>720</ele>
        <time>2023-01-06T13:59:22Z</time>
      </trkpt>
      <trkpt lat="43.60568" lon="6.31848">
        <ele>720</ele>
        <time>2023-01-06T13:59:23Z</time>
      </trkpt>
      <trkpt lat="43.60568" lon="6.31847">
        <ele>720</ele>
        <time>2023-01-06T13:59:24Z</time>
      </trkpt>
      <trkpt lat="43.60569" lon="6.31846">
        <ele>720</ele>
        <time>2023-01-06T13:59:25Z</time>
      </trkpt>
      <trkpt lat="43.60569" lon="6.31845">
        <ele>720</ele>
        <time>2023-01-06T13:59:26Z</time>
      </trkpt>
      <trkpt lat="43.6057" lon="6.31843">
        <ele>720</ele>
        <time>2023-01-06T13:59:27Z</time>
      </trkpt>
      <trkpt lat="43.6057" lon="6.31842">
        <ele>720</ele>
        <time>2023-01-06T13:59:28Z</time>
      </trkpt>
      <trkpt lat="43.60571" lon="6.31841">
        <ele>720</ele>
        <time>2023-01-06T13:59:29Z</time>
      </trkpt>
      <trkpt lat="43.60571" lon="6.3184">
        <ele>720</ele>
        <time>2023-01-06T13:59:30Z</time>
      </trkpt>
      <trkpt lat="43.60571" lon="6.31839">
        <ele>720</ele>
        <time>2023-01-06T13:59:31Z</time>
      </trkpt>
      <trkpt lat="43.6057" lon="6.31838">
        <ele>720</ele>
        <time>2023-01-06T13:59:32Z</time>
      </trkpt>
      <trkpt lat="43.6057" lon="6.31837">
        <ele>720</ele>
        <time>2023-01-06T13:59:33Z</time>
      </trkpt>
      <trkpt lat="43.6057" lon="6.31835">
        <ele>720</ele>
        <time>2023-01-06T13:59:34Z</time>
      </trkpt>
      <trkpt lat="43.6057" lon="6.31834">
        <ele>720</ele>
        <time>2023-01-06T13:59:35Z</time>
      </trkpt>
      <trkpt lat="43.60571" lon="6.31833">
        <ele>720</ele>
        <time>2023-01-06T13:59:36Z</time>
      </trkpt>
      <trkpt lat="43.60571" lon="6.31832">
        <ele>720</ele>
        <time>2023-01-06T13:59:37Z</time>
      </trkpt>
      <trkpt lat="43.60571" lon="6.31831">
        <ele>720</ele>
        <time>2023-01-06T13:59:38Z</time>
      </trkpt>
      <trkpt lat="43.60572" lon="6.3183">
        <ele>720</ele>
        <time>2023-01-06T13:59:39Z</time>
      </trkpt>
      <trkpt lat="43.60572" lon="6.31828">
        <ele>720</ele>
        <time>2023-01-06T13:59:40Z</time>
      </trkpt>
      <trkpt lat="43.60572" lon="6.31827">
        <ele>720</ele>
        <time>2023-01-06T13:59:41Z</time>
      </trkpt>
      <trkpt lat="43.60573" lon="6.31826">
        <ele>720</ele>
        <time>2023-01-06T13:59:42Z</time>
      </trkpt>
      <trkpt lat="43.60573" lon="6.31825">
        <ele>720</ele>
        <time>2023-01-06T13:59:43Z</time>
      </trkpt>
      <trkpt lat="43.60574" lon="6.31824">
        <ele>719</ele>
        <time>2023-01-06T13:59:44Z</time>
      </trkpt>
      <trkpt lat="43.60574" lon="6.31822">
        <ele>719</ele>
        <time>2023-01-06T13:59:45Z</time>
      </trkpt>
      <trkpt lat="43.60575" lon="6.31821">
        <ele>719</ele>
        <time>2023-01-06T13:59:46Z</time>
      </trkpt>
      <trkpt lat="43.60575" lon="6.31819">
        <ele>719</ele>
        <time>2023-01-06T13:59:47Z</time>
      </trkpt>
      <trkpt lat="43.60576" lon="6.31818">
        <ele>719</ele>
        <time>2023-01-06T13:59:48Z</time>
      </trkpt>
      <trkpt lat="43.60577" lon="6.31816">
        <ele>719</ele>
        <time>2023-01-06T13:59:49Z</time>
      </trkpt>
      <trkpt lat="43.60577" lon="6.31815">
        <ele>719</ele>
        <time>2023-01-06T13:59:50Z</time>
      </trkpt>
      <trkpt lat="43.60578" lon="6.31814">
        <ele>719</ele>
        <time>2023-01-06T13:59:51Z</time>
      </trkpt>
      <trkpt lat="43.60579" lon="6.31813">
        <ele>719</ele>
        <time>2023-01-06T13:59:52Z</time>
      </trkpt>
      <trkpt lat="43.6058" lon="6.31812">
        <ele>719</ele>
        <time>2023-01-06T13:59:53Z</time>
      </trkpt>
      <trkpt lat="43.60581" lon="6.31811">
        <ele>719</ele>
        <time>2023-01-06T13:59:54Z</time>
      </trkpt>
      <trkpt lat="43.60581" lon="6.3181">
        <ele>719</ele>
        <time>2023-01-06T13:59:55Z</time>
      </trkpt>
      <trkpt lat="43.60582" lon="6.31808">
        <ele>719</ele>
        <time>2023-01-06T13:59:56Z</time>
      </trkpt>
      <trkpt lat="43.60583" lon="6.31807">
        <ele>720</ele>
        <time>2023-01-06T13:59:57Z</time>
      </trkpt>
      <trkpt lat="43.60583" lon="6.31806">
        <ele>720</ele>
        <time>2023-01-06T13:59:58Z</time>
      </trkpt>
      <trkpt lat="43.60584" lon="6.31806">
        <ele>721</ele>
        <time>2023-01-06T13:59:59Z</time>
      </trkpt>
      <trkpt lat="43.60585" lon="6.31805">
        <ele>721</ele>
        <time>2023-01-06T14:00:00Z</time>
      </trkpt>
      <trkpt lat="43.60585" lon="6.31803">
        <ele>721</ele>
        <time>2023-01-06T14:00:01Z</time>
      </trkpt>
      <trkpt lat="43.60586" lon="6.31802">
        <ele>721</ele>
        <time>2023-01-06T14:00:02Z</time>
      </trkpt>
      <trkpt lat="43.60587" lon="6.31801">
        <ele>721</ele>
        <time>2023-01-06T14:00:03Z</time>
      </trkpt>
      <trkpt lat="43.60587" lon="6.318">
        <ele>721</ele>
        <time>2023-01-06T14:00:04Z</time>
      </trkpt>
      <trkpt lat="43.60588" lon="6.31799">
        <ele>721</ele>
        <time>2023-01-06T14:00:05Z</time>
      </trkpt>
      <trkpt lat="43.60589" lon="6.31798">
        <ele>721</ele>
        <time>2023-01-06T14:00:06Z</time>
      </trkpt>
      <trkpt lat="43.60589" lon="6.31797">
        <ele>721</ele>
        <time>2023-01-06T14:00:07Z</time>
      </trkpt>
      <trkpt lat="43.6059" lon="6.31796">
        <ele>721</ele>
        <time>2023-01-06T14:00:08Z</time>
      </trkpt>
      <trkpt lat="43.6059" lon="6.31795">
        <ele>722</ele>
        <time>2023-01-06T14:00:09Z</time>
      </trkpt>
      <trkpt lat="43.60591" lon="6.31793">
        <ele>722</ele>
        <time>2023-01-06T14:00:10Z</time>
      </trkpt>
      <trkpt lat="43.60591" lon="6.31792">
        <ele>722</ele>
        <time>2023-01-06T14:00:11Z</time>
      </trkpt>
      <trkpt lat="43.60591" lon="6.31791">
        <ele>722</ele>
        <time>2023-01-06T14:00:12Z</time>
      </trkpt>
      <trkpt lat="43.60592" lon="6.3179">
        <ele>722</ele>
        <time>2023-01-06T14:00:13Z</time>
      </trkpt>
      <trkpt lat="43.60592" lon="6.31789">
        <ele>722</ele>
        <time>2023-01-06T14:00:14Z</time>
      </trkpt>
      <trkpt lat="43.60592" lon="6.31787">
        <ele>722</ele>
        <time>2023-01-06T14:00:15Z</time>
      </trkpt>
      <trkpt lat="43.60592" lon="6.31786">
        <ele>722</ele>
        <time>2023-01-06T14:00:16Z</time>
      </trkpt>
      <trkpt lat="43.60592" lon="6.31784">
        <ele>722</ele>
        <time>2023-01-06T14:00:17Z</time>
      </trkpt>
      <trkpt lat="43.60592" lon="6.31783">
        <ele>722</ele>
        <time>2023-01-06T14:00:18Z</time>
      </trkpt>
      <trkpt lat="43.60593" lon="6.31781">
        <ele>722</ele>
        <time>2023-01-06T14:00:19Z</time>
      </trkpt>
      <trkpt lat="43.60593" lon="6.3178">
        <ele>722</ele>
        <time>2023-01-06T14:00:20Z</time>
      </trkpt>
      <trkpt lat="43.60593" lon="6.31779">
        <ele>722</ele>
        <time>2023-01-06T14:00:21Z</time>
      </trkpt>
      <trkpt lat="43.60593" lon="6.31778">
        <ele>722</ele>
        <time>2023-01-06T14:00:22Z</time>
      </trkpt>
      <trkpt lat="43.60594" lon="6.31776">
        <ele>722</ele>
        <time>2023-01-06T14:00:23Z</time>
      </trkpt>
      <trkpt lat="43.60594" lon="6.31775">
        <ele>722</ele>
        <time>2023-01-06T14:00:24Z</time>
      </trkpt>
      <trkpt lat="43.60595" lon="6.31774">
        <ele>722</ele>
        <time>2023-01-06T14:00:25Z</time>
      </trkpt>
      <trkpt lat="43.60595" lon="6.31772">
        <ele>722</ele>
        <time>2023-01-06T14:00:26Z</time>
      </trkpt>
      <trkpt lat="43.60595" lon="6.31771">
        <ele>722</ele>
        <time>2023-01-06T14:00:27Z</time>
      </trkpt>
      <trkpt lat="43.60596" lon="6.3177">
        <ele>722</ele>
        <time>2023-01-06T14:00:28Z</time>
      </trkpt>
      <trkpt lat="43.60596" lon="6.31769">
        <ele>722</ele>
        <time>2023-01-06T14:00:29Z</time>
      </trkpt>
      <trkpt lat="43.60596" lon="6.31767">
        <ele>722</ele>
        <time>2023-01-06T14:00:30Z</time>
      </trkpt>
      <trkpt lat="43.60597" lon="6.31766">
        <ele>722</ele>
        <time>2023-01-06T14:00:31Z</time>
      </trkpt>
      <trkpt lat="43.60597" lon="6.31765">
        <ele>722</ele>
        <time>2023-01-06T14:00:32Z</time>
      </trkpt>
      <trkpt lat="43.60598" lon="6.31763">
        <ele>722</ele>
        <time>2023-01-06T14:00:33Z</time>
      </trkpt>
      <trkpt lat="43.60599" lon="6.31762">
        <ele>722</ele>
        <time>2023-01-06T14:00:34Z</time>
      </trkpt>
      <trkpt lat="43.60599" lon="6.31761">
        <ele>722</ele>
        <time>2023-01-06T14:00:35Z</time>
      </trkpt>
      <trkpt lat="43.606" lon="6.3176">
        <ele>722</ele>
        <time>2023-01-06T14:00:36Z</time>
      </trkpt>
      <trkpt lat="43.606" lon="6.31759">
        <ele>722</ele>
        <time>2023-01-06T14:00:37Z</time>
      </trkpt>
      <trkpt lat="43.60601" lon="6.31757">
        <ele>722</ele>
        <time>2023-01-06T14:00:38Z</time>
      </trkpt>
      <trkpt lat="43.60602" lon="6.31756">
        <ele>722</ele>
        <time>2023-01-06T14:00:39Z</time>
      </trkpt>
      <trkpt lat="43.60602" lon="6.31754">
        <ele>722</ele>
        <time>2023-01-06T14:00:40Z</time>
      </trkpt>
      <trkpt lat="43.60603" lon="6.31753">
        <ele>722</ele>
        <time>2023-01-06T14:00:41Z</time>
      </trkpt>
      <trkpt lat="43.60604" lon="6.31752">
        <ele>722</ele>
        <time>2023-01-06T14:00:42Z</time>
      </trkpt>
      <trkpt lat="43.60604" lon="6.31751">
        <ele>722</ele>
        <time>2023-01-06T14:00:43Z</time>
      </trkpt>
      <trkpt lat="43.60605" lon="6.3175">
        <ele>722</ele>
        <time>2023-01-06T14:00:44Z</time>
      </trkpt>
      <trkpt lat="43.60606" lon="6.31749">
        <ele>721</ele>
        <time>2023-01-06T14:00:45Z</time>
      </trkpt>
      <trkpt lat="43.60607" lon="6.31748">
        <ele>721</ele>
        <time>2023-01-06T14:00:46Z</time>
      </trkpt>
      <trkpt lat="43.60608" lon="6.31747">
        <ele>721</ele>
        <time>2023-01-06T14:00:47Z</time>
      </trkpt>
      <trkpt lat="43.60609" lon="6.31746">
        <ele>720</ele>
        <time>2023-01-06T14:00:48Z</time>
      </trkpt>
      <trkpt lat="43.6061" lon="6.31745">
        <ele>720</ele>
        <time>2023-01-06T14:00:49Z</time>
      </trkpt>
      <trkpt lat="43.60611" lon="6.31744">
        <ele>720</ele>
        <time>2023-01-06T14:00:50Z</time>
      </trkpt>
      <trkpt lat="43.60612" lon="6.31742">
        <ele>720</ele>
        <time>2023-01-06T14:00:51Z</time>
      </trkpt>
      <trkpt lat="43.60613" lon="6.31741">
        <ele>720</ele>
        <time>2023-01-06T14:00:52Z</time>
      </trkpt>
      <trkpt lat="43.60613" lon="6.3174">
        <ele>720</ele>
        <time>2023-01-06T14:00:53Z</time>
      </trkpt>
      <trkpt lat="43.60614" lon="6.31738">
        <ele>720</ele>
        <time>2023-01-06T14:00:54Z</time>
      </trkpt>
      <trkpt lat="43.60614" lon="6.31737">
        <ele>720</ele>
        <time>2023-01-06T14:00:55Z</time>
      </trkpt>
      <trkpt lat="43.60615" lon="6.31736">
        <ele>720</ele>
        <time>2023-01-06T14:00:56Z</time>
      </trkpt>
      <trkpt lat="43.60615" lon="6.31735">
        <ele>720</ele>
        <time>2023-01-06T14:00:57Z</time>
      </trkpt>
      <trkpt lat="43.60616" lon="6.31734">
        <ele>720</ele>
        <time>2023-01-06T14:00:58Z</time>
      </trkpt>
      <trkpt lat="43.60616" lon="6.31732">
        <ele>721</ele>
        <time>2023-01-06T14:00:59Z</time>
      </trkpt>
      <trkpt lat="43.60616" lon="6.31731">
        <ele>721</ele>
        <time>2023-01-06T14:01:00Z</time>
      </trkpt>
      <trkpt lat="43.60616" lon="6.3173">
        <ele>721</ele>
        <time>2023-01-06T14:01:01Z</time>
      </trkpt>
      <trkpt lat="43.60617" lon="6.31729">
        <ele>721</ele>
        <time>2023-01-06T14:01:02Z</time>
      </trkpt>
      <trkpt lat="43.60617" lon="6.31728">
        <ele>721</ele>
        <time>2023-01-06T14:01:03Z</time>
      </trkpt>
      <trkpt lat="43.60618" lon="6.31727">
        <ele>721</ele>
        <time>2023-01-06T14:01:04Z</time>
      </trkpt>
      <trkpt lat="43.60618" lon="6.31726">
        <ele>721</ele>
        <time>2023-01-06T14:01:05Z</time>
      </trkpt>
      <trkpt lat="43.60618" lon="6.31725">
        <ele>721</ele>
        <time>2023-01-06T14:01:06Z</time>
      </trkpt>
      <trkpt lat="43.60619" lon="6.31724">
        <ele>721</ele>
        <time>2023-01-06T14:01:07Z</time>
      </trkpt>
      <trkpt lat="43.60619" lon="6.31722">
        <ele>721</ele>
        <time>2023-01-06T14:01:08Z</time>
      </trkpt>
      <trkpt lat="43.6062" lon="6.31721">
        <ele>721</ele>
        <time>2023-01-06T14:01:09Z</time>
      </trkpt>
      <trkpt lat="43.6062" lon="6.3172">
        <ele>721</ele>
        <time>2023-01-06T14:01:10Z</time>
      </trkpt>
      <trkpt lat="43.60621" lon="6.31719">
        <ele>721</ele>
        <time>2023-01-06T14:01:11Z</time>
      </trkpt>
      <trkpt lat="43.60621" lon="6.31719">
        <ele>721</ele>
        <time>2023-01-06T14:01:12Z</time>
      </trkpt>
      <trkpt lat="43.60622" lon="6.31717">
        <ele>722</ele>
        <time>2023-01-06T14:01:13Z</time>
      </trkpt>
      <trkpt lat="43.60622" lon="6.31716">
        <ele>722</ele>
        <time>2023-01-06T14:01:14Z</time>
      </trkpt>
      <trkpt lat="43.60622" lon="6.31715">
        <ele>722</ele>
        <time>2023-01-06T14:01:15Z</time>
      </trkpt>
      <trkpt lat="43.60623" lon="6.31714">
        <ele>722</ele>
        <time>2023-01-06T14:01:16Z</time>
      </trkpt>
      <trkpt lat="43.60624" lon="6.31713">
        <ele>722</ele>
        <time>2023-01-06T14:01:17Z</time>
      </trkpt>
      <trkpt lat="43.60624" lon="6.31712">
        <ele>722</ele>
        <time>2023-01-06T14:01:18Z</time>
      </trkpt>
      <trkpt lat="43.60625" lon="6.31711">
        <ele>722</ele>
        <time>2023-01-06T14:01:19Z</time>
      </trkpt>
      <trkpt lat="43.60626" lon="6.3171">
        <ele>722</ele>
        <time>2023-01-06T14:01:20Z</time>
      </trkpt>
      <trkpt lat="43.60626" lon="6.31709">
        <ele>722</ele>
        <time>2023-01-06T14:01:21Z</time>
      </trkpt>
      <trkpt lat="43.60627" lon="6.31708">
        <ele>723</ele>
        <time>2023-01-06T14:01:22Z</time>
      </trkpt>
      <trkpt lat="43.60627" lon="6.31707">
        <ele>723</ele>
        <time>2023-01-06T14:01:23Z</time>
      </trkpt>
      <trkpt lat="43.60628" lon="6.31706">
        <ele>723</ele>
        <time>2023-01-06T14:01:24Z</time>
      </trkpt>
      <trkpt lat="43.60629" lon="6.31705">
        <ele>724</ele>
        <time>2023-01-06T14:01:25Z</time>
      </trkpt>
      <trkpt lat="43.60629" lon="6.31704">
        <ele>724</ele>
        <time>2023-01-06T14:01:26Z</time>
      </trkpt>
      <trkpt lat="43.6063" lon="6.31703">
        <ele>724</ele>
        <time>2023-01-06T14:01:27Z</time>
      </trkpt>
      <trkpt lat="43.60631" lon="6.31702">
        <ele>724</ele>
        <time>2023-01-06T14:01:28Z</time>
      </trkpt>
      <trkpt lat="43.60631" lon="6.31701">
        <ele>724</ele>
        <time>2023-01-06T14:01:29Z</time>
      </trkpt>
      <trkpt lat="43.60632" lon="6.317">
        <ele>724</ele>
        <time>2023-01-06T14:01:30Z</time>
      </trkpt>
      <trkpt lat="43.60633" lon="6.31699">
        <ele>724</ele>
        <time>2023-01-06T14:01:31Z</time>
      </trkpt>
      <trkpt lat="43.60634" lon="6.31697">
        <ele>724</ele>
        <time>2023-01-06T14:01:32Z</time>
      </trkpt>
      <trkpt lat="43.60634" lon="6.31696">
        <ele>724</ele>
        <time>2023-01-06T14:01:33Z</time>
      </trkpt>
      <trkpt lat="43.60635" lon="6.31695">
        <ele>724</ele>
        <time>2023-01-06T14:01:34Z</time>
      </trkpt>
      <trkpt lat="43.60635" lon="6.31694">
        <ele>724</ele>
        <time>2023-01-06T14:01:35Z</time>
      </trkpt>
      <trkpt lat="43.60636" lon="6.31693">
        <ele>724</ele>
        <time>2023-01-06T14:01:36Z</time>
      </trkpt>
      <trkpt lat="43.60636" lon="6.31692">
        <ele>724</ele>
        <time>2023-01-06T14:01:37Z</time>
      </trkpt>
      <trkpt lat="43.60637" lon="6.31691">
        <ele>724</ele>
        <time>2023-01-06T14:01:38Z</time>
      </trkpt>
      <trkpt lat="43.60638" lon="6.31691">
        <ele>724</ele>
        <time>2023-01-06T14:01:39Z</time>
      </trkpt>
      <trkpt lat="43.60638" lon="6.3169">
        <ele>724</ele>
        <time>2023-01-06T14:01:40Z</time>
      </trkpt>
      <trkpt lat="43.60639" lon="6.31689">
        <ele>724</ele>
        <time>2023-01-06T14:01:41Z</time>
      </trkpt>
      <trkpt lat="43.60639" lon="6.31689">
        <ele>724</ele>
        <time>2023-01-06T14:01:42Z</time>
      </trkpt>
      <trkpt lat="43.6064" lon="6.31688">
        <ele>724</ele>
        <time>2023-01-06T14:01:43Z</time>
      </trkpt>
      <trkpt lat="43.6064" lon="6.31687">
        <ele>724</ele>
        <time>2023-01-06T14:01:44Z</time>
      </trkpt>
      <trkpt lat="43.60641" lon="6.31685">
        <ele>724</ele>
        <time>2023-01-06T14:01:45Z</time>
      </trkpt>
      <trkpt lat="43.60642" lon="6.31684">
        <ele>724</ele>
        <time>2023-01-06T14:01:46Z</time>
      </trkpt>
      <trkpt lat="43.60642" lon="6.31683">
        <ele>724</ele>
        <time>2023-01-06T14:01:47Z</time>
      </trkpt>
      <trkpt lat="43.60643" lon="6.31682">
        <ele>724</ele>
        <time>2023-01-06T14:01:48Z</time>
      </trkpt>
      <trkpt lat="43.60643" lon="6.31682">
        <ele>724</ele>
        <time>2023-01-06T14:01:49Z</time>
      </trkpt>
      <trkpt lat="43.60644" lon="6.31681">
        <ele>724</ele>
        <time>2023-01-06T14:01:50Z</time>
      </trkpt>
      <trkpt lat="43.60644" lon="6.3168">
        <ele>724</ele>
        <time>2023-01-06T14:01:51Z</time>
      </trkpt>
      <trkpt lat="43.60645" lon="6.31679">
        <ele>724</ele>
        <time>2023-01-06T14:01:52Z</time>
      </trkpt>
      <trkpt lat="43.60645" lon="6.31678">
        <ele>725</ele>
        <time>2023-01-06T14:01:53Z</time>
      </trkpt>
      <trkpt lat="43.60645" lon="6.31677">
        <ele>725</ele>
        <time>2023-01-06T14:01:54Z</time>
      </trkpt>
      <trkpt lat="43.60646" lon="6.31676">
        <ele>725</ele>
        <time>2023-01-06T14:01:55Z</time>
      </trkpt>
      <trkpt lat="43.60646" lon="6.31674">
        <ele>725</ele>
        <time>2023-01-06T14:01:56Z</time>
      </trkpt>
      <trkpt lat="43.60647" lon="6.31673">
        <ele>725</ele>
        <time>2023-01-06T14:01:57Z</time>
      </trkpt>
      <trkpt lat="43.60647" lon="6.31672">
        <ele>725</ele>
        <time>2023-01-06T14:01:58Z</time>
      </trkpt>
      <trkpt lat="43.60648" lon="6.3167">
        <ele>725</ele>
        <time>2023-01-06T14:01:59Z</time>
      </trkpt>
      <trkpt lat="43.60648" lon="6.31669">
        <ele>726</ele>
        <time>2023-01-06T14:02:00Z</time>
      </trkpt>
      <trkpt lat="43.60649" lon="6.31668">
        <ele>727</ele>
        <time>2023-01-06T14:02:01Z</time>
      </trkpt>
      <trkpt lat="43.60649" lon="6.31667">
        <ele>727</ele>
        <time>2023-01-06T14:02:02Z</time>
      </trkpt>
      <trkpt lat="43.60649" lon="6.31666">
        <ele>727</ele>
        <time>2023-01-06T14:02:03Z</time>
      </trkpt>
      <trkpt lat="43.6065" lon="6.31664">
        <ele>728</ele>
        <time>2023-01-06T14:02:04Z</time>
      </trkpt>
      <trkpt lat="43.6065" lon="6.31663">
        <ele>728</ele>
        <time>2023-01-06T14:02:05Z</time>
      </trkpt>
      <trkpt lat="43.60651" lon="6.31663">
        <ele>728</ele>
        <time>2023-01-06T14:02:06Z</time>
      </trkpt>
      <trkpt lat="43.60652" lon="6.31662">
        <ele>728</ele>
        <time>2023-01-06T14:02:07Z</time>
      </trkpt>
      <trkpt lat="43.60652" lon="6.3166">
        <ele>728</ele>
        <time>2023-01-06T14:02:08Z</time>
      </trkpt>
      <trkpt lat="43.60653" lon="6.31659">
        <ele>728</ele>
        <time>2023-01-06T14:02:09Z</time>
      </trkpt>
      <trkpt lat="43.60653" lon="6.31658">
        <ele>728</ele>
        <time>2023-01-06T14:02:10Z</time>
      </trkpt>
      <trkpt lat="43.60654" lon="6.31657">
        <ele>729</ele>
        <time>2023-01-06T14:02:11Z</time>
      </trkpt>
      <trkpt lat="43.60654" lon="6.31656">
        <ele>729</ele>
        <time>2023-01-06T14:02:12Z</time>
      </trkpt>
      <trkpt lat="43.60654" lon="6.31655">
        <ele>729</ele>
        <time>2023-01-06T14:02:13Z</time>
      </trkpt>
      <trkpt lat="43.60655" lon="6.31654">
        <ele>729</ele>
        <time>2023-01-06T14:02:14Z</time>
      </trkpt>
      <trkpt lat="43.60655" lon="6.31653">
        <ele>729</ele>
        <time>2023-01-06T14:02:15Z</time>
      </trkpt>
      <trkpt lat="43.60655" lon="6.31651">
        <ele>729</ele>
        <time>2023-01-06T14:02:16Z</time>
      </trkpt>
      <trkpt lat="43.60655" lon="6.3165">
        <ele>729</ele>
        <time>2023-01-06T14:02:17Z</time>
      </trkpt>
      <trkpt lat="43.60655" lon="6.31649">
        <ele>729</ele>
        <time>2023-01-06T14:02:18Z</time>
      </trkpt>
      <trkpt lat="43.60655" lon="6.31648">
        <ele>729</ele>
        <time>2023-01-06T14:02:19Z</time>
      </trkpt>
      <trkpt lat="43.60655" lon="6.31647">
        <ele>729</ele>
        <time>2023-01-06T14:02:20Z</time>
      </trkpt>
      <trkpt lat="43.60655" lon="6.31646">
        <ele>729</ele>
        <time>2023-01-06T14:02:21Z</time>
      </trkpt>
      <trkpt lat="43.60654" lon="6.31645">
        <ele>729</ele>
        <time>2023-01-06T14:02:22Z</time>
      </trkpt>
      <trkpt lat="43.60654" lon="6.31644">
        <ele>729</ele>
        <time>2023-01-06T14:02:23Z</time>
      </trkpt>
      <trkpt lat="43.60654" lon="6.31643">
        <ele>728</ele>
        <time>2023-01-06T14:02:24Z</time>
      </trkpt>
      <trkpt lat="43.60654" lon="6.31643">
        <ele>728</ele>
        <time>2023-01-06T14:02:25Z</time>
      </trkpt>
      <trkpt lat="43.60654" lon="6.31642">
        <ele>728</ele>
        <time>2023-01-06T14:02:26Z</time>
      </trkpt>
      <trkpt lat="43.60655" lon="6.31641">
        <ele>728</ele>
        <time>2023-01-06T14:02:27Z</time>
      </trkpt>
      <trkpt lat="43.60655" lon="6.3164">
        <ele>728</ele>
        <time>2023-01-06T14:02:28Z</time>
      </trkpt>
      <trkpt lat="43.60656" lon="6.31639">
        <ele>728</ele>
        <time>2023-01-06T14:02:29Z</time>
      </trkpt>
      <trkpt lat="43.60656" lon="6.31638">
        <ele>727</ele>
        <time>2023-01-06T14:02:30Z</time>
      </trkpt>
      <trkpt lat="43.60657" lon="6.31637">
        <ele>727</ele>
        <time>2023-01-06T14:02:31Z</time>
      </trkpt>
      <trkpt lat="43.60657" lon="6.31636">
        <ele>727</ele>
        <time>2023-01-06T14:02:32Z</time>
      </trkpt>
      <trkpt lat="43.60658" lon="6.31634">
        <ele>727</ele>
        <time>2023-01-06T14:02:33Z</time>
      </trkpt>
      <trkpt lat="43.60658" lon="6.31633">
        <ele>727</ele>
        <time>2023-01-06T14:02:34Z</time>
      </trkpt>
      <trkpt lat="43.60659" lon="6.31631">
        <ele>727</ele>
        <time>2023-01-06T14:02:35Z</time>
      </trkpt>
      <trkpt lat="43.6066" lon="6.3163">
        <ele>726</ele>
        <time>2023-01-06T14:02:36Z</time>
      </trkpt>
      <trkpt lat="43.6066" lon="6.31629">
        <ele>726</ele>
        <time>2023-01-06T14:02:37Z</time>
      </trkpt>
      <trkpt lat="43.60661" lon="6.31628">
        <ele>726</ele>
        <time>2023-01-06T14:02:38Z</time>
      </trkpt>
      <trkpt lat="43.60661" lon="6.31627">
        <ele>726</ele>
        <time>2023-01-06T14:02:39Z</time>
      </trkpt>
      <trkpt lat="43.60662" lon="6.31625">
        <ele>726</ele>
        <time>2023-01-06T14:02:40Z</time>
      </trkpt>
      <trkpt lat="43.60662" lon="6.31624">
        <ele>726</ele>
        <time>2023-01-06T14:02:41Z</time>
      </trkpt>
      <trkpt lat="43.60663" lon="6.31623">
        <ele>725</ele>
        <time>2023-01-06T14:02:42Z</time>
      </trkpt>
      <trkpt lat="43.60663" lon="6.31622">
        <ele>725</ele>
        <time>2023-01-06T14:02:43Z</time>
      </trkpt>
      <trkpt lat="43.60664" lon="6.31621">
        <ele>725</ele>
        <time>2023-01-06T14:02:44Z</time>
      </trkpt>
      <trkpt lat="43.60665" lon="6.3162">
        <ele>725</ele>
        <time>2023-01-06T14:02:45Z</time>
      </trkpt>
      <trkpt lat="43.60666" lon="6.31618">
        <ele>725</ele>
        <time>2023-01-06T14:02:46Z</time>
      </trkpt>
      <trkpt lat="43.60666" lon="6.31617">
        <ele>725</ele>
        <time>2023-01-06T14:02:47Z</time>
      </trkpt>
      <trkpt lat="43.60667" lon="6.31616">
        <ele>725</ele>
        <time>2023-01-06T14:02:48Z</time>
      </trkpt>
      <trkpt lat="43.60669" lon="6.31615">
        <ele>725</ele>
        <time>2023-01-06T14:02:49Z</time>
      </trkpt>
      <trkpt lat="43.6067" lon="6.31614">
        <ele>725</ele>
        <time>2023-01-06T14:02:50Z</time>
      </trkpt>
      <trkpt lat="43.6067" lon="6.31613">
        <ele>725</ele>
        <time>2023-01-06T14:02:51Z</time>
      </trkpt>
      <trkpt lat="43.60671" lon="6.31612">
        <ele>725</ele>
        <time>2023-01-06T14:02:52Z</time>
      </trkpt>
      <trkpt lat="43.60671" lon="6.31611">
        <ele>725</ele>
        <time>2023-01-06T14:02:53Z</time>
      </trkpt>
      <trkpt lat="43.60671" lon="6.3161">
        <ele>725</ele>
        <time>2023-01-06T14:02:54Z</time>
      </trkpt>
      <trkpt lat="43.60672" lon="6.31609">
        <ele>725</ele>
        <time>2023-01-06T14:02:55Z</time>
      </trkpt>
      <trkpt lat="43.60672" lon="6.31608">
        <ele>725</ele>
        <time>2023-01-06T14:02:56Z</time>
      </trkpt>
      <trkpt lat="43.60673" lon="6.31607">
        <ele>726</ele>
        <time>2023-01-06T14:02:57Z</time>
      </trkpt>
      <trkpt lat="43.60673" lon="6.31606">
        <ele>726</ele>
        <time>2023-01-06T14:02:58Z</time>
      </trkpt>
      <trkpt lat="43.60673" lon="6.31605">
        <ele>726</ele>
        <time>2023-01-06T14:02:59Z</time>
      </trkpt>
      <trkpt lat="43.60674" lon="6.31603">
        <ele>726</ele>
        <time>2023-01-06T14:03:00Z</time>
      </trkpt>
      <trkpt lat="43.60674" lon="6.31602">
        <ele>726</ele>
        <time>2023-01-06T14:03:01Z</time>
      </trkpt>
      <trkpt lat="43.60675" lon="6.31601">
        <ele>726</ele>
        <time>2023-01-06T14:03:02Z</time>
      </trkpt>
      <trkpt lat="43.60675" lon="6.316">
        <ele>726</ele>
        <time>2023-01-06T14:03:03Z</time>
      </trkpt>
      <trkpt lat="43.60676" lon="6.31599">
        <ele>726</ele>
        <time>2023-01-06T14:03:04Z</time>
      </trkpt>
      <trkpt lat="43.60676" lon="6.31597">
        <ele>727</ele>
        <time>2023-01-06T14:03:05Z</time>
      </trkpt>
      <trkpt lat="43.60677" lon="6.31596">
        <ele>727</ele>
        <time>2023-01-06T14:03:06Z</time>
      </trkpt>
      <trkpt lat="43.60678" lon="6.31595">
        <ele>727</ele>
        <time>2023-01-06T14:03:07Z</time>
      </trkpt>
      <trkpt lat="43.60678" lon="6.31594">
        <ele>728</ele>
        <time>2023-01-06T14:03:08Z</time>
      </trkpt>
      <trkpt lat="43.60679" lon="6.31593">
        <ele>728</ele>
        <time>2023-01-06T14:03:09Z</time>
      </trkpt>
      <trkpt lat="43.60679" lon="6.31591">
        <ele>728</ele>
        <time>2023-01-06T14:03:10Z</time>
      </trkpt>
      <trkpt lat="43.6068" lon="6.3159">
        <ele>728</ele>
        <time>2023-01-06T14:03:11Z</time>
      </trkpt>
      <trkpt lat="43.6068" lon="6.31589">
        <ele>728</ele>
        <time>2023-01-06T14:03:12Z</time>
      </trkpt>
      <trkpt lat="43.60681" lon="6.31588">
        <ele>728</ele>
        <time>2023-01-06T14:03:13Z</time>
      </trkpt>
      <trkpt lat="43.60681" lon="6.31587">
        <ele>729</ele>
        <time>2023-01-06T14:03:14Z</time>
      </trkpt>
      <trkpt lat="43.60682" lon="6.31586">
        <ele>729</ele>
        <time>2023-01-06T14:03:15Z</time>
      </trkpt>
      <trkpt lat="43.60682" lon="6.31585">
        <ele>729</ele>
        <time>2023-01-06T14:03:16Z</time>
      </trkpt>
      <trkpt lat="43.60683" lon="6.31584">
        <ele>729</ele>
        <time>2023-01-06T14:03:17Z</time>
      </trkpt>
      <trkpt lat="43.60683" lon="6.31583">
        <ele>729</ele>
        <time>2023-01-06T14:03:18Z</time>
      </trkpt>
      <trkpt lat="43.60684" lon="6.31582">
        <ele>729</ele>
        <time>2023-01-06T14:03:19Z</time>
      </trkpt>
      <trkpt lat="43.60684" lon="6.31581">
        <ele>729</ele>
        <time>2023-01-06T14:03:20Z</time>
      </trkpt>
      <trkpt lat="43.60685" lon="6.3158">
        <ele>729</ele>
        <time>2023-01-06T14:03:21Z</time>
      </trkpt>
      <trkpt lat="43.60686" lon="6.31579">
        <ele>729</ele>
        <time>2023-01-06T14:03:22Z</time>
      </trkpt>
      <trkpt lat="43.60686" lon="6.31577">
        <ele>728</ele>
        <time>2023-01-06T14:03:23Z</time>
      </trkpt>
      <trkpt lat="43.60687" lon="6.31576">
        <ele>728</ele>
        <time>2023-01-06T14:03:24Z</time>
      </trkpt>
      <trkpt lat="43.60688" lon="6.31575">
        <ele>728</ele>
        <time>2023-01-06T14:03:25Z</time>
      </trkpt>
      <trkpt lat="43.60688" lon="6.31574">
        <ele>728</ele>
        <time>2023-01-06T14:03:26Z</time>
      </trkpt>
      <trkpt lat="43.60689" lon="6.31573">
        <ele>728</ele>
        <time>2023-01-06T14:03:27Z</time>
      </trkpt>
      <trkpt lat="43.60689" lon="6.31572">
        <ele>727</ele>
        <time>2023-01-06T14:03:28Z</time>
      </trkpt>
      <trkpt lat="43.6069" lon="6.3157">
        <ele>727</ele>
        <time>2023-01-06T14:03:29Z</time>
      </trkpt>
      <trkpt lat="43.6069" lon="6.31569">
        <ele>727</ele>
        <time>2023-01-06T14:03:30Z</time>
      </trkpt>
      <trkpt lat="43.6069" lon="6.31568">
        <ele>727</ele>
        <time>2023-01-06T14:03:31Z</time>
      </trkpt>
      <trkpt lat="43.60691" lon="6.31567">
        <ele>727</ele>
        <time>2023-01-06T14:03:32Z</time>
      </trkpt>
      <trkpt lat="43.60691" lon="6.31566">
        <ele>726</ele>
        <time>2023-01-06T14:03:33Z</time>
      </trkpt>
      <trkpt lat="43.60692" lon="6.31564">
        <ele>725</ele>
        <time>2023-01-06T14:03:34Z</time>
      </trkpt>
      <trkpt lat="43.60692" lon="6.31563">
        <ele>725</ele>
        <time>2023-01-06T14:03:35Z</time>
      </trkpt>
      <trkpt lat="43.60693" lon="6.31562">
        <ele>725</ele>
        <time>2023-01-06T14:03:36Z</time>
      </trkpt>
      <trkpt lat="43.60693" lon="6.3156">
        <ele>725</ele>
        <time>2023-01-06T14:03:37Z</time>
      </trkpt>
      <trkpt lat="43.60694" lon="6.31559">
        <ele>725</ele>
        <time>2023-01-06T14:03:38Z</time>
      </trkpt>
      <trkpt lat="43.60694" lon="6.31557">
        <ele>724</ele>
        <time>2023-01-06T14:03:39Z</time>
      </trkpt>
      <trkpt lat="43.60695" lon="6.31556">
        <ele>724</ele>
        <time>2023-01-06T14:03:40Z</time>
      </trkpt>
      <trkpt lat="43.60695" lon="6.31554">
        <ele>724</ele>
        <time>2023-01-06T14:03:41Z</time>
      </trkpt>
      <trkpt lat="43.60696" lon="6.31553">
        <ele>724</ele>
        <time>2023-01-06T14:03:42Z</time>
      </trkpt>
      <trkpt lat="43.60696" lon="6.31552">
        <ele>724</ele>
        <time>2023-01-06T14:03:43Z</time>
      </trkpt>
      <trkpt lat="43.60697" lon="6.31551">
        <ele>724</ele>
        <time>2023-01-06T14:03:44Z</time>
      </trkpt>
      <trkpt lat="43.60698" lon="6.3155">
        <ele>725</ele>
        <time>2023-01-06T14:03:45Z</time>
      </trkpt>
      <trkpt lat="43.60698" lon="6.31549">
        <ele>725</ele>
        <time>2023-01-06T14:03:46Z</time>
      </trkpt>
      <trkpt lat="43.60699" lon="6.31548">
        <ele>725</ele>
        <time>2023-01-06T14:03:47Z</time>
      </trkpt>
      <trkpt lat="43.607" lon="6.31547">
        <ele>725</ele>
        <time>2023-01-06T14:03:48Z</time>
      </trkpt>
      <trkpt lat="43.607" lon="6.31546">
        <ele>725</ele>
        <time>2023-01-06T14:03:49Z</time>
      </trkpt>
      <trkpt lat="43.60701" lon="6.31545">
        <ele>725</ele>
        <time>2023-01-06T14:03:50Z</time>
      </trkpt>
      <trkpt lat="43.60702" lon="6.31544">
        <ele>726</ele>
        <time>2023-01-06T14:03:51Z</time>
      </trkpt>
      <trkpt lat="43.60702" lon="6.31543">
        <ele>726</ele>
        <time>2023-01-06T14:03:52Z</time>
      </trkpt>
      <trkpt lat="43.60703" lon="6.31541">
        <ele>727</ele>
        <time>2023-01-06T14:03:53Z</time>
      </trkpt>
      <trkpt lat="43.60703" lon="6.3154">
        <ele>727</ele>
        <time>2023-01-06T14:03:54Z</time>
      </trkpt>
      <trkpt lat="43.60704" lon="6.31539">
        <ele>727</ele>
        <time>2023-01-06T14:03:55Z</time>
      </trkpt>
      <trkpt lat="43.60704" lon="6.31538">
        <ele>727</ele>
        <time>2023-01-06T14:03:56Z</time>
      </trkpt>
      <trkpt lat="43.60705" lon="6.31537">
        <ele>727</ele>
        <time>2023-01-06T14:03:57Z</time>
      </trkpt>
      <trkpt lat="43.60705" lon="6.31536">
        <ele>727</ele>
        <time>2023-01-06T14:03:58Z</time>
      </trkpt>
      <trkpt lat="43.60706" lon="6.31535">
        <ele>727</ele>
        <time>2023-01-06T14:03:59Z</time>
      </trkpt>
      <trkpt lat="43.60706" lon="6.31534">
        <ele>728</ele>
        <time>2023-01-06T14:04:00Z</time>
      </trkpt>
      <trkpt lat="43.60706" lon="6.31533">
        <ele>728</ele>
        <time>2023-01-06T14:04:01Z</time>
      </trkpt>
      <trkpt lat="43.60707" lon="6.31532">
        <ele>728</ele>
        <time>2023-01-06T14:04:02Z</time>
      </trkpt>
      <trkpt lat="43.60707" lon="6.31531">
        <ele>728</ele>
        <time>2023-01-06T14:04:03Z</time>
      </trkpt>
      <trkpt lat="43.60707" lon="6.31529">
        <ele>728</ele>
        <time>2023-01-06T14:04:04Z</time>
      </trkpt>
      <trkpt lat="43.60707" lon="6.31528">
        <ele>728</ele>
        <time>2023-01-06T14:04:05Z</time>
      </trkpt>
      <trkpt lat="43.60708" lon="6.31527">
        <ele>729</ele>
        <time>2023-01-06T14:04:06Z</time>
      </trkpt>
      <trkpt lat="43.60708" lon="6.31526">
        <ele>729</ele>
        <time>2023-01-06T14:04:07Z</time>
      </trkpt>
      <trkpt lat="43.60708" lon="6.31525">
        <ele>729</ele>
        <time>2023-01-06T14:04:08Z</time>
      </trkpt>
      <trkpt lat="43.60709" lon="6.31524">
        <ele>729</ele>
        <time>2023-01-06T14:04:09Z</time>
      </trkpt>
      <trkpt lat="43.60709" lon="6.31522">
        <ele>729</ele>
        <time>2023-01-06T14:04:10Z</time>
      </trkpt>
      <trkpt lat="43.60709" lon="6.31521">
        <ele>729</ele>
        <time>2023-01-06T14:04:11Z</time>
      </trkpt>
      <trkpt lat="43.60709" lon="6.3152">
        <ele>730</ele>
        <time>2023-01-06T14:04:12Z</time>
      </trkpt>
      <trkpt lat="43.60709" lon="6.31519">
        <ele>730</ele>
        <time>2023-01-06T14:04:13Z</time>
      </trkpt>
      <trkpt lat="43.6071" lon="6.31518">
        <ele>730</ele>
        <time>2023-01-06T14:04:14Z</time>
      </trkpt>
      <trkpt lat="43.6071" lon="6.31517">
        <ele>730</ele>
        <time>2023-01-06T14:04:15Z</time>
      </trkpt>
      <trkpt lat="43.60711" lon="6.31516">
        <ele>730</ele>
        <time>2023-01-06T14:04:16Z</time>
      </trkpt>
      <trkpt lat="43.60711" lon="6.31514">
        <ele>730</ele>
        <time>2023-01-06T14:04:17Z</time>
      </trkpt>
      <trkpt lat="43.60712" lon="6.31513">
        <ele>730</ele>
        <time>2023-01-06T14:04:18Z</time>
      </trkpt>
      <trkpt lat="43.60712" lon="6.31512">
        <ele>730</ele>
        <time>2023-01-06T14:04:19Z</time>
      </trkpt>
      <trkpt lat="43.60712" lon="6.31511">
        <ele>730</ele>
        <time>2023-01-06T14:04:20Z</time>
      </trkpt>
      <trkpt lat="43.60713" lon="6.3151">
        <ele>730</ele>
        <time>2023-01-06T14:04:21Z</time>
      </trkpt>
      <trkpt lat="43.60713" lon="6.31509">
        <ele>731</ele>
        <time>2023-01-06T14:04:22Z</time>
      </trkpt>
      <trkpt lat="43.60713" lon="6.31507">
        <ele>731</ele>
        <time>2023-01-06T14:04:23Z</time>
      </trkpt>
      <trkpt lat="43.60713" lon="6.31506">
        <ele>731</ele>
        <time>2023-01-06T14:04:24Z</time>
      </trkpt>
      <trkpt lat="43.60714" lon="6.31504">
        <ele>732</ele>
        <time>2023-01-06T14:04:25Z</time>
      </trkpt>
      <trkpt lat="43.60714" lon="6.31503">
        <ele>732</ele>
        <time>2023-01-06T14:04:26Z</time>
      </trkpt>
      <trkpt lat="43.60714" lon="6.31502">
        <ele>732</ele>
        <time>2023-01-06T14:04:27Z</time>
      </trkpt>
      <trkpt lat="43.60714" lon="6.315">
        <ele>732</ele>
        <time>2023-01-06T14:04:28Z</time>
      </trkpt>
      <trkpt lat="43.60714" lon="6.31499">
        <ele>733</ele>
        <time>2023-01-06T14:04:29Z</time>
      </trkpt>
      <trkpt lat="43.60715" lon="6.31497">
        <ele>733</ele>
        <time>2023-01-06T14:04:30Z</time>
      </trkpt>
      <trkpt lat="43.60715" lon="6.31496">
        <ele>733</ele>
        <time>2023-01-06T14:04:31Z</time>
      </trkpt>
      <trkpt lat="43.60715" lon="6.31494">
        <ele>733</ele>
        <time>2023-01-06T14:04:32Z</time>
      </trkpt>
      <trkpt lat="43.60715" lon="6.31493">
        <ele>733</ele>
        <time>2023-01-06T14:04:33Z</time>
      </trkpt>
      <trkpt lat="43.60716" lon="6.31492">
        <ele>733</ele>
        <time>2023-01-06T14:04:34Z</time>
      </trkpt>
      <trkpt lat="43.60716" lon="6.31491">
        <ele>734</ele>
        <time>2023-01-06T14:04:35Z</time>
      </trkpt>
      <trkpt lat="43.60716" lon="6.31489">
        <ele>734</ele>
        <time>2023-01-06T14:04:36Z</time>
      </trkpt>
      <trkpt lat="43.60716" lon="6.31488">
        <ele>734</ele>
        <time>2023-01-06T14:04:37Z</time>
      </trkpt>
      <trkpt lat="43.60716" lon="6.31486">
        <ele>734</ele>
        <time>2023-01-06T14:04:38Z</time>
      </trkpt>
      <trkpt lat="43.60716" lon="6.31485">
        <ele>734</ele>
        <time>2023-01-06T14:04:39Z</time>
      </trkpt>
      <trkpt lat="43.60716" lon="6.31484">
        <ele>734</ele>
        <time>2023-01-06T14:04:40Z</time>
      </trkpt>
      <trkpt lat="43.60717" lon="6.31483">
        <ele>735</ele>
        <time>2023-01-06T14:04:41Z</time>
      </trkpt>
      <trkpt lat="43.60717" lon="6.31482">
        <ele>735</ele>
        <time>2023-01-06T14:04:42Z</time>
      </trkpt>
      <trkpt lat="43.60718" lon="6.3148">
        <ele>735</ele>
        <time>2023-01-06T14:04:43Z</time>
      </trkpt>
      <trkpt lat="43.60718" lon="6.31479">
        <ele>735</ele>
        <time>2023-01-06T14:04:44Z</time>
      </trkpt>
      <trkpt lat="43.60719" lon="6.31477">
        <ele>736</ele>
        <time>2023-01-06T14:04:45Z</time>
      </trkpt>
      <trkpt lat="43.60719" lon="6.31476">
        <ele>736</ele>
        <time>2023-01-06T14:04:46Z</time>
      </trkpt>
      <trkpt lat="43.6072" lon="6.31474">
        <ele>736</ele>
        <time>2023-01-06T14:04:47Z</time>
      </trkpt>
      <trkpt lat="43.6072" lon="6.31473">
        <ele>736</ele>
        <time>2023-01-06T14:04:48Z</time>
      </trkpt>
      <trkpt lat="43.6072" lon="6.31472">
        <ele>736</ele>
        <time>2023-01-06T14:04:49Z</time>
      </trkpt>
      <trkpt lat="43.60721" lon="6.31471">
        <ele>736</ele>
        <time>2023-01-06T14:04:50Z</time>
      </trkpt>
      <trkpt lat="43.60721" lon="6.31469">
        <ele>736</ele>
        <time>2023-01-06T14:04:51Z</time>
      </trkpt>
      <trkpt lat="43.60721" lon="6.31468">
        <ele>736</ele>
        <time>2023-01-06T14:04:52Z</time>
      </trkpt>
      <trkpt lat="43.60722" lon="6.31466">
        <ele>736</ele>
        <time>2023-01-06T14:04:53Z</time>
      </trkpt>
      <trkpt lat="43.60722" lon="6.31465">
        <ele>736</ele>
        <time>2023-01-06T14:04:54Z</time>
      </trkpt>
      <trkpt lat="43.60722" lon="6.31464">
        <ele>736</ele>
        <time>2023-01-06T14:04:55Z</time>
      </trkpt>
      <trkpt lat="43.60723" lon="6.31462">
        <ele>736</ele>
        <time>2023-01-06T14:04:56Z</time>
      </trkpt>
      <trkpt lat="43.60724" lon="6.31461">
        <ele>735</ele>
        <time>2023-01-06T14:04:57Z</time>
      </trkpt>
      <trkpt lat="43.60724" lon="6.31459">
        <ele>735</ele>
        <time>2023-01-06T14:04:58Z</time>
      </trkpt>
      <trkpt lat="43.60725" lon="6.31458">
        <ele>735</ele>
        <time>2023-01-06T14:04:59Z</time>
      </trkpt>
      <trkpt lat="43.60726" lon="6.31456">
        <ele>735</ele>
        <time>2023-01-06T14:05:00Z</time>
      </trkpt>
      <trkpt lat="43.60726" lon="6.31455">
        <ele>735</ele>
        <time>2023-01-06T14:05:01Z</time>
      </trkpt>
      <trkpt lat="43.60727" lon="6.31454">
        <ele>735</ele>
        <time>2023-01-06T14:05:02Z</time>
      </trkpt>
      <trkpt lat="43.60728" lon="6.31453">
        <ele>735</ele>
        <time>2023-01-06T14:05:03Z</time>
      </trkpt>
      <trkpt lat="43.60728" lon="6.31451">
        <ele>734</ele>
        <time>2023-01-06T14:05:04Z</time>
      </trkpt>
      <trkpt lat="43.60729" lon="6.3145">
        <ele>735</ele>
        <time>2023-01-06T14:05:05Z</time>
      </trkpt>
      <trkpt lat="43.6073" lon="6.31449">
        <ele>735</ele>
        <time>2023-01-06T14:05:06Z</time>
      </trkpt>
      <trkpt lat="43.60731" lon="6.31448">
        <ele>735</ele>
        <time>2023-01-06T14:05:07Z</time>
      </trkpt>
      <trkpt lat="43.60731" lon="6.31447">
        <ele>735</ele>
        <time>2023-01-06T14:05:08Z</time>
      </trkpt>
      <trkpt lat="43.60732" lon="6.31446">
        <ele>735</ele>
        <time>2023-01-06T14:05:09Z</time>
      </trkpt>
      <trkpt lat="43.60732" lon="6.31445">
        <ele>735</ele>
        <time>2023-01-06T14:05:10Z</time>
      </trkpt>
      <trkpt lat="43.60733" lon="6.31444">
        <ele>735</ele>
        <time>2023-01-06T14:05:11Z</time>
      </trkpt>
      <trkpt lat="43.60734" lon="6.31443">
        <ele>735</ele>
        <time>2023-01-06T14:05:12Z</time>
      </trkpt>
      <trkpt lat="43.60734" lon="6.31442">
        <ele>735</ele>
        <time>2023-01-06T14:05:13Z</time>
      </trkpt>
      <trkpt lat="43.60735" lon="6.31441">
        <ele>735</ele>
        <time>2023-01-06T14:05:14Z</time>
      </trkpt>
      <trkpt lat="43.60735" lon="6.3144">
        <ele>735</ele>
        <time>2023-01-06T14:05:15Z</time>
      </trkpt>
      <trkpt lat="43.60736" lon="6.31439">
        <ele>735</ele>
        <time>2023-01-06T14:05:16Z</time>
      </trkpt>
      <trkpt lat="43.60736" lon="6.31439">
        <ele>735</ele>
        <time>2023-01-06T14:05:17Z</time>
      </trkpt>
      <trkpt lat="43.60736" lon="6.31438">
        <ele>735</ele>
        <time>2023-01-06T14:05:18Z</time>
      </trkpt>
      <trkpt lat="43.60737" lon="6.31438">
        <ele>735</ele>
        <time>2023-01-06T14:05:19Z</time>
      </trkpt>
      <trkpt lat="43.60737" lon="6.31437">
        <ele>735</ele>
        <time>2023-01-06T14:05:20Z</time>
      </trkpt>
      <trkpt lat="43.60738" lon="6.31436">
        <ele>735</ele>
        <time>2023-01-06T14:05:21Z</time>
      </trkpt>
      <trkpt lat="43.60738" lon="6.31436">
        <ele>734</ele>
        <time>2023-01-06T14:05:22Z</time>
      </trkpt>
      <trkpt lat="43.60739" lon="6.31435">
        <ele>734</ele>
        <time>2023-01-06T14:05:23Z</time>
      </trkpt>
      <trkpt lat="43.60739" lon="6.31434">
        <ele>734</ele>
        <time>2023-01-06T14:05:24Z</time>
      </trkpt>
      <trkpt lat="43.6074" lon="6.31434">
        <ele>734</ele>
        <time>2023-01-06T14:05:25Z</time>
      </trkpt>
      <trkpt lat="43.60741" lon="6.31433">
        <ele>734</ele>
        <time>2023-01-06T14:05:26Z</time>
      </trkpt>
      <trkpt lat="43.60741" lon="6.31433">
        <ele>734</ele>
        <time>2023-01-06T14:05:27Z</time>
      </trkpt>
      <trkpt lat="43.60742" lon="6.31433">
        <ele>734</ele>
        <time>2023-01-06T14:05:28Z</time>
      </trkpt>
      <trkpt lat="43.60743" lon="6.31432">
        <ele>732</ele>
        <time>2023-01-06T14:05:29Z</time>
      </trkpt>
      <trkpt lat="43.60744" lon="6.31433">
        <ele>732</ele>
        <time>2023-01-06T14:05:30Z</time>
      </trkpt>
      <trkpt lat="43.60745" lon="6.31433">
        <ele>732</ele>
        <time>2023-01-06T14:05:31Z</time>
      </trkpt>
      <trkpt lat="43.60746" lon="6.31432">
        <ele>732</ele>
        <time>2023-01-06T14:05:32Z</time>
      </trkpt>
      <trkpt lat="43.60747" lon="6.31432">
        <ele>731</ele>
        <time>2023-01-06T14:05:33Z</time>
      </trkpt>
      <trkpt lat="43.60747" lon="6.31431">
        <ele>731</ele>
        <time>2023-01-06T14:05:34Z</time>
      </trkpt>
      <trkpt lat="43.60748" lon="6.31431">
        <ele>731</ele>
        <time>2023-01-06T14:05:35Z</time>
      </trkpt>
      <trkpt lat="43.60749" lon="6.31431">
        <ele>731</ele>
        <time>2023-01-06T14:05:36Z</time>
      </trkpt>
      <trkpt lat="43.6075" lon="6.31431">
        <ele>731</ele>
        <time>2023-01-06T14:05:37Z</time>
      </trkpt>
      <trkpt lat="43.60751" lon="6.31432">
        <ele>731</ele>
        <time>2023-01-06T14:05:38Z</time>
      </trkpt>
      <trkpt lat="43.60751" lon="6.31432">
        <ele>731</ele>
        <time>2023-01-06T14:05:39Z</time>
      </trkpt>
      <trkpt lat="43.60752" lon="6.31432">
        <ele>731</ele>
        <time>2023-01-06T14:05:40Z</time>
      </trkpt>
      <trkpt lat="43.60753" lon="6.31432">
        <ele>731</ele>
        <time>2023-01-06T14:05:41Z</time>
      </trkpt>
      <trkpt lat="43.60754" lon="6.31432">
        <ele>731</ele>
        <time>2023-01-06T14:05:42Z</time>
      </trkpt>
      <trkpt lat="43.60755" lon="6.31432">
        <ele>731</ele>
        <time>2023-01-06T14:05:43Z</time>
      </trkpt>
      <trkpt lat="43.60755" lon="6.31431">
        <ele>731</ele>
        <time>2023-01-06T14:05:44Z</time>
      </trkpt>
      <trkpt lat="43.60756" lon="6.31431">
        <ele>731</ele>
        <time>2023-01-06T14:05:45Z</time>
      </trkpt>
      <trkpt lat="43.60757" lon="6.31431">
        <ele>731</ele>
        <time>2023-01-06T14:05:46Z</time>
      </trkpt>
      <trkpt lat="43.60757" lon="6.31431">
        <ele>731</ele>
        <time>2023-01-06T14:05:47Z</time>
      </trkpt>
      <trkpt lat="43.60758" lon="6.31431">
        <ele>731</ele>
        <time>2023-01-06T14:05:48Z</time>
      </trkpt>
      <trkpt lat="43.60758" lon="6.31431">
        <ele>731</ele>
        <time>2023-01-06T14:05:49Z</time>
      </trkpt>
      <trkpt lat="43.60758" lon="6.31432">
        <ele>731</ele>
        <time>2023-01-06T14:05:50Z</time>
      </trkpt>
      <trkpt lat="43.60759" lon="6.31432">
        <ele>731</ele>
        <time>2023-01-06T14:05:51Z</time>
      </trkpt>
      <trkpt lat="43.60759" lon="6.31433">
        <ele>731</ele>
        <time>2023-01-06T14:05:52Z</time>
      </trkpt>
      <trkpt lat="43.6076" lon="6.31434">
        <ele>731</ele>
        <time>2023-01-06T14:05:53Z</time>
      </trkpt>
      <trkpt lat="43.6076" lon="6.31434">
        <ele>731</ele>
        <time>2023-01-06T14:05:54Z</time>
      </trkpt>
      <trkpt lat="43.60761" lon="6.31435">
        <ele>731</ele>
        <time>2023-01-06T14:05:55Z</time>
      </trkpt>
      <trkpt lat="43.60761" lon="6.31435">
        <ele>731</ele>
        <time>2023-01-06T14:05:56Z</time>
      </trkpt>
      <trkpt lat="43.60762" lon="6.31435">
        <ele>731</ele>
        <time>2023-01-06T14:05:57Z</time>
      </trkpt>
      <trkpt lat="43.60763" lon="6.31436">
        <ele>731</ele>
        <time>2023-01-06T14:05:58Z</time>
      </trkpt>
      <trkpt lat="43.60764" lon="6.31436">
        <ele>731</ele>
        <time>2023-01-06T14:05:59Z</time>
      </trkpt>
      <trkpt lat="43.60765" lon="6.31436">
        <ele>731</ele>
        <time>2023-01-06T14:06:00Z</time>
      </trkpt>
      <trkpt lat="43.60766" lon="6.31437">
        <ele>731</ele>
        <time>2023-01-06T14:06:01Z</time>
      </trkpt>
      <trkpt lat="43.60767" lon="6.31437">
        <ele>731</ele>
        <time>2023-01-06T14:06:02Z</time>
      </trkpt>
      <trkpt lat="43.60768" lon="6.31437">
        <ele>731</ele>
        <time>2023-01-06T14:06:03Z</time>
      </trkpt>
      <trkpt lat="43.60769" lon="6.31437">
        <ele>731</ele>
        <time>2023-01-06T14:06:04Z</time>
      </trkpt>
      <trkpt lat="43.6077" lon="6.31436">
        <ele>731</ele>
        <time>2023-01-06T14:06:05Z</time>
      </trkpt>
      <trkpt lat="43.60771" lon="6.31436">
        <ele>730</ele>
        <time>2023-01-06T14:06:06Z</time>
      </trkpt>
      <trkpt lat="43.60772" lon="6.31436">
        <ele>730</ele>
        <time>2023-01-06T14:06:07Z</time>
      </trkpt>
      <trkpt lat="43.60773" lon="6.31436">
        <ele>730</ele>
        <time>2023-01-06T14:06:08Z</time>
      </trkpt>
      <trkpt lat="43.60774" lon="6.31436">
        <ele>730</ele>
        <time>2023-01-06T14:06:09Z</time>
      </trkpt>
      <trkpt lat="43.60775" lon="6.31436">
        <ele>730</ele>
        <time>2023-01-06T14:06:10Z</time>
      </trkpt>
      <trkpt lat="43.60775" lon="6.31436">
        <ele>730</ele>
        <time>2023-01-06T14:06:11Z</time>
      </trkpt>
      <trkpt lat="43.60776" lon="6.31436">
        <ele>730</ele>
        <time>2023-01-06T14:06:12Z</time>
      </trkpt>
      <trkpt lat="43.60777" lon="6.31435">
        <ele>730</ele>
        <time>2023-01-06T14:06:13Z</time>
      </trkpt>
      <trkpt lat="43.60778" lon="6.31435">
        <ele>730</ele>
        <time>2023-01-06T14:06:14Z</time>
      </trkpt>
      <trkpt lat="43.60778" lon="6.31435">
        <ele>730</ele>
        <time>2023-01-06T14:06:15Z</time>
      </trkpt>
      <trkpt lat="43.60779" lon="6.31435">
        <ele>730</ele>
        <time>2023-01-06T14:06:16Z</time>
      </trkpt>
      <trkpt lat="43.6078" lon="6.31435">
        <ele>730</ele>
        <time>2023-01-06T14:06:17Z</time>
      </trkpt>
      <trkpt lat="43.6078" lon="6.31435">
        <ele>730</ele>
        <time>2023-01-06T14:06:18Z</time>
      </trkpt>
      <trkpt lat="43.60781" lon="6.31436">
        <ele>729</ele>
        <time>2023-01-06T14:06:19Z</time>
      </trkpt>
      <trkpt lat="43.60782" lon="6.31436">
        <ele>729</ele>
        <time>2023-01-06T14:06:20Z</time>
      </trkpt>
      <trkpt lat="43.60782" lon="6.31437">
        <ele>729</ele>
        <time>2023-01-06T14:06:21Z</time>
      </trkpt>
      <trkpt lat="43.60783" lon="6.31437">
        <ele>729</ele>
        <time>2023-01-06T14:06:22Z</time>
      </trkpt>
      <trkpt lat="43.60784" lon="6.31437">
        <ele>729</ele>
        <time>2023-01-06T14:06:23Z</time>
      </trkpt>
      <trkpt lat="43.60784" lon="6.31437">
        <ele>729</ele>
        <time>2023-01-06T14:06:24Z</time>
      </trkpt>
      <trkpt lat="43.60785" lon="6.31438">
        <ele>729</ele>
        <time>2023-01-06T14:06:25Z</time>
      </trkpt>
      <trkpt lat="43.60786" lon="6.31438">
        <ele>729</ele>
        <time>2023-01-06T14:06:26Z</time>
      </trkpt>
      <trkpt lat="43.60787" lon="6.31438">
        <ele>729</ele>
        <time>2023-01-06T14:06:27Z</time>
      </trkpt>
      <trkpt lat="43.60787" lon="6.31439">
        <ele>729</ele>
        <time>2023-01-06T14:06:28Z</time>
      </trkpt>
      <trkpt lat="43.60788" lon="6.31439">
        <ele>729</ele>
        <time>2023-01-06T14:06:29Z</time>
      </trkpt>
      <trkpt lat="43.60789" lon="6.3144">
        <ele>729</ele>
        <time>2023-01-06T14:06:30Z</time>
      </trkpt>
      <trkpt lat="43.6079" lon="6.31442">
        <ele>729</ele>
        <time>2023-01-06T14:06:31Z</time>
      </trkpt>
      <trkpt lat="43.60791" lon="6.31443">
        <ele>729</ele>
        <time>2023-01-06T14:06:32Z</time>
      </trkpt>
      <trkpt lat="43.60792" lon="6.31445">
        <ele>729</ele>
        <time>2023-01-06T14:06:33Z</time>
      </trkpt>
      <trkpt lat="43.60793" lon="6.31446">
        <ele>729</ele>
        <time>2023-01-06T14:06:34Z</time>
      </trkpt>
      <trkpt lat="43.60794" lon="6.31446">
        <ele>729</ele>
        <time>2023-01-06T14:06:35Z</time>
      </trkpt>
      <trkpt lat="43.60795" lon="6.31446">
        <ele>729</ele>
        <time>2023-01-06T14:06:36Z</time>
      </trkpt>
      <trkpt lat="43.60796" lon="6.31446">
        <ele>729</ele>
        <time>2023-01-06T14:06:37Z</time>
      </trkpt>
      <trkpt lat="43.60797" lon="6.31446">
        <ele>729</ele>
        <time>2023-01-06T14:06:38Z</time>
      </trkpt>
      <trkpt lat="43.60798" lon="6.31446">
        <ele>729</ele>
        <time>2023-01-06T14:06:39Z</time>
      </trkpt>
      <trkpt lat="43.60799" lon="6.31445">
        <ele>729</ele>
        <time>2023-01-06T14:06:40Z</time>
      </trkpt>
      <trkpt lat="43.608" lon="6.31445">
        <ele>729</ele>
        <time>2023-01-06T14:06:41Z</time>
      </trkpt>
      <trkpt lat="43.60801" lon="6.31445">
        <ele>729</ele>
        <time>2023-01-06T14:06:42Z</time>
      </trkpt>
      <trkpt lat="43.60803" lon="6.31444">
        <ele>729</ele>
        <time>2023-01-06T14:06:43Z</time>
      </trkpt>
      <trkpt lat="43.60804" lon="6.31443">
        <ele>729</ele>
        <time>2023-01-06T14:06:44Z</time>
      </trkpt>
      <trkpt lat="43.60805" lon="6.31443">
        <ele>729</ele>
        <time>2023-01-06T14:06:45Z</time>
      </trkpt>
      <trkpt lat="43.60805" lon="6.31442">
        <ele>729</ele>
        <time>2023-01-06T14:06:46Z</time>
      </trkpt>
      <trkpt lat="43.60806" lon="6.31442">
        <ele>729</ele>
        <time>2023-01-06T14:06:47Z</time>
      </trkpt>
      <trkpt lat="43.60807" lon="6.31442">
        <ele>729</ele>
        <time>2023-01-06T14:06:48Z</time>
      </trkpt>
      <trkpt lat="43.60808" lon="6.31441">
        <ele>729</ele>
        <time>2023-01-06T14:06:49Z</time>
      </trkpt>
      <trkpt lat="43.60809" lon="6.31441">
        <ele>729</ele>
        <time>2023-01-06T14:06:50Z</time>
      </trkpt>
      <trkpt lat="43.6081" lon="6.3144">
        <ele>729</ele>
        <time>2023-01-06T14:06:51Z</time>
      </trkpt>
      <trkpt lat="43.60811" lon="6.3144">
        <ele>729</ele>
        <time>2023-01-06T14:06:52Z</time>
      </trkpt>
      <trkpt lat="43.60812" lon="6.3144">
        <ele>729</ele>
        <time>2023-01-06T14:06:53Z</time>
      </trkpt>
      <trkpt lat="43.60813" lon="6.31439">
        <ele>729</ele>
        <time>2023-01-06T14:06:54Z</time>
      </trkpt>
      <trkpt lat="43.60814" lon="6.31439">
        <ele>729</ele>
        <time>2023-01-06T14:06:55Z</time>
      </trkpt>
      <trkpt lat="43.60814" lon="6.31439">
        <ele>729</ele>
        <time>2023-01-06T14:06:56Z</time>
      </trkpt>
      <trkpt lat="43.60815" lon="6.31438">
        <ele>729</ele>
        <time>2023-01-06T14:06:57Z</time>
      </trkpt>
      <trkpt lat="43.60816" lon="6.31438">
        <ele>729</ele>
        <time>2023-01-06T14:06:58Z</time>
      </trkpt>
      <trkpt lat="43.60817" lon="6.31438">
        <ele>729</ele>
        <time>2023-01-06T14:06:59Z</time>
      </trkpt>
      <trkpt lat="43.60818" lon="6.31438">
        <ele>729</ele>
        <time>2023-01-06T14:07:00Z</time>
      </trkpt>
      <trkpt lat="43.60819" lon="6.31437">
        <ele>729</ele>
        <time>2023-01-06T14:07:01Z</time>
      </trkpt>
      <trkpt lat="43.6082" lon="6.31437">
        <ele>729</ele>
        <time>2023-01-06T14:07:02Z</time>
      </trkpt>
      <trkpt lat="43.60821" lon="6.31437">
        <ele>729</ele>
        <time>2023-01-06T14:07:03Z</time>
      </trkpt>
      <trkpt lat="43.60821" lon="6.31436">
        <ele>729</ele>
        <time>2023-01-06T14:07:04Z</time>
      </trkpt>
      <trkpt lat="43.60822" lon="6.31436">
        <ele>729</ele>
        <time>2023-01-06T14:07:05Z</time>
      </trkpt>
      <trkpt lat="43.60823" lon="6.31435">
        <ele>728</ele>
        <time>2023-01-06T14:07:06Z</time>
      </trkpt>
      <trkpt lat="43.60824" lon="6.31435">
        <ele>728</ele>
        <time>2023-01-06T14:07:07Z</time>
      </trkpt>
      <trkpt lat="43.60825" lon="6.31434">
        <ele>728</ele>
        <time>2023-01-06T14:07:08Z</time>
      </trkpt>
      <trkpt lat="43.60827" lon="6.31434">
        <ele>728</ele>
        <time>2023-01-06T14:07:09Z</time>
      </trkpt>
      <trkpt lat="43.60829" lon="6.31435">
        <ele>728</ele>
        <time>2023-01-06T14:07:10Z</time>
      </trkpt>
      <trkpt lat="43.6083" lon="6.31435">
        <ele>728</ele>
        <time>2023-01-06T14:07:11Z</time>
      </trkpt>
      <trkpt lat="43.60832" lon="6.31435">
        <ele>728</ele>
        <time>2023-01-06T14:07:12Z</time>
      </trkpt>
      <trkpt lat="43.60833" lon="6.31435">
        <ele>728</ele>
        <time>2023-01-06T14:07:13Z</time>
      </trkpt>
      <trkpt lat="43.60834" lon="6.31434">
        <ele>727</ele>
        <time>2023-01-06T14:07:14Z</time>
      </trkpt>
      <trkpt lat="43.60836" lon="6.31434">
        <ele>727</ele>
        <time>2023-01-06T14:07:15Z</time>
      </trkpt>
      <trkpt lat="43.60837" lon="6.31434">
        <ele>727</ele>
        <time>2023-01-06T14:07:16Z</time>
      </trkpt>
      <trkpt lat="43.60838" lon="6.31433">
        <ele>728</ele>
        <time>2023-01-06T14:07:17Z</time>
      </trkpt>
      <trkpt lat="43.60839" lon="6.31432">
        <ele>728</ele>
        <time>2023-01-06T14:07:18Z</time>
      </trkpt>
      <trkpt lat="43.6084" lon="6.31431">
        <ele>728</ele>
        <time>2023-01-06T14:07:19Z</time>
      </trkpt>
      <trkpt lat="43.60841" lon="6.3143">
        <ele>728</ele>
        <time>2023-01-06T14:07:20Z</time>
      </trkpt>
      <trkpt lat="43.60841" lon="6.31429">
        <ele>728</ele>
        <time>2023-01-06T14:07:21Z</time>
      </trkpt>
      <trkpt lat="43.60842" lon="6.31428">
        <ele>728</ele>
        <time>2023-01-06T14:07:22Z</time>
      </trkpt>
      <trkpt lat="43.60842" lon="6.31427">
        <ele>728</ele>
        <time>2023-01-06T14:07:23Z</time>
      </trkpt>
      <trkpt lat="43.60843" lon="6.31426">
        <ele>729</ele>
        <time>2023-01-06T14:07:24Z</time>
      </trkpt>
      <trkpt lat="43.60844" lon="6.31425">
        <ele>730</ele>
        <time>2023-01-06T14:07:25Z</time>
      </trkpt>
      <trkpt lat="43.60845" lon="6.31425">
        <ele>730</ele>
        <time>2023-01-06T14:07:26Z</time>
      </trkpt>
      <trkpt lat="43.60846" lon="6.31425">
        <ele>730</ele>
        <time>2023-01-06T14:07:27Z</time>
      </trkpt>
      <trkpt lat="43.60847" lon="6.31424">
        <ele>730</ele>
        <time>2023-01-06T14:07:28Z</time>
      </trkpt>
      <trkpt lat="43.60848" lon="6.31424">
        <ele>730</ele>
        <time>2023-01-06T14:07:29Z</time>
      </trkpt>
      <trkpt lat="43.60849" lon="6.31423">
        <ele>731</ele>
        <time>2023-01-06T14:07:30Z</time>
      </trkpt>
      <trkpt lat="43.6085" lon="6.31423">
        <ele>731</ele>
        <time>2023-01-06T14:07:31Z</time>
      </trkpt>
      <trkpt lat="43.60851" lon="6.31422">
        <ele>731</ele>
        <time>2023-01-06T14:07:32Z</time>
      </trkpt>
      <trkpt lat="43.60852" lon="6.31422">
        <ele>731</ele>
        <time>2023-01-06T14:07:33Z</time>
      </trkpt>
      <trkpt lat="43.60853" lon="6.31421">
        <ele>731</ele>
        <time>2023-01-06T14:07:34Z</time>
      </trkpt>
      <trkpt lat="43.60854" lon="6.3142">
        <ele>732</ele>
        <time>2023-01-06T14:07:35Z</time>
      </trkpt>
      <trkpt lat="43.60855" lon="6.31419">
        <ele>732</ele>
        <time>2023-01-06T14:07:36Z</time>
      </trkpt>
      <trkpt lat="43.60856" lon="6.31418">
        <ele>732</ele>
        <time>2023-01-06T14:07:37Z</time>
      </trkpt>
      <trkpt lat="43.60857" lon="6.31417">
        <ele>731</ele>
        <time>2023-01-06T14:07:38Z</time>
      </trkpt>
      <trkpt lat="43.60858" lon="6.31416">
        <ele>731</ele>
        <time>2023-01-06T14:07:39Z</time>
      </trkpt>
      <trkpt lat="43.60858" lon="6.31415">
        <ele>731</ele>
        <time>2023-01-06T14:07:40Z</time>
      </trkpt>
      <trkpt lat="43.60859" lon="6.31414">
        <ele>731</ele>
        <time>2023-01-06T14:07:41Z</time>
      </trkpt>
      <trkpt lat="43.6086" lon="6.31413">
        <ele>731</ele>
        <time>2023-01-06T14:07:42Z</time>
      </trkpt>
      <trkpt lat="43.60861" lon="6.31412">
        <ele>731</ele>
        <time>2023-01-06T14:07:43Z</time>
      </trkpt>
      <trkpt lat="43.60862" lon="6.3141">
        <ele>731</ele>
        <time>2023-01-06T14:07:44Z</time>
      </trkpt>
      <trkpt lat="43.60862" lon="6.31409">
        <ele>731</ele>
        <time>2023-01-06T14:07:45Z</time>
      </trkpt>
      <trkpt lat="43.60863" lon="6.31408">
        <ele>732</ele>
        <time>2023-01-06T14:07:46Z</time>
      </trkpt>
      <trkpt lat="43.60864" lon="6.31407">
        <ele>732</ele>
        <time>2023-01-06T14:07:47Z</time>
      </trkpt>
      <trkpt lat="43.60864" lon="6.31406">
        <ele>732</ele>
        <time>2023-01-06T14:07:48Z</time>
      </trkpt>
      <trkpt lat="43.60865" lon="6.31405">
        <ele>732</ele>
        <time>2023-01-06T14:07:49Z</time>
      </trkpt>
      <trkpt lat="43.60865" lon="6.31404">
        <ele>732</ele>
        <time>2023-01-06T14:07:50Z</time>
      </trkpt>
      <trkpt lat="43.60865" lon="6.31403">
        <ele>732</ele>
        <time>2023-01-06T14:07:51Z</time>
      </trkpt>
      <trkpt lat="43.60866" lon="6.31402">
        <ele>732</ele>
        <time>2023-01-06T14:07:52Z</time>
      </trkpt>
      <trkpt lat="43.60866" lon="6.314">
        <ele>732</ele>
        <time>2023-01-06T14:07:53Z</time>
      </trkpt>
      <trkpt lat="43.60866" lon="6.31399">
        <ele>732</ele>
        <time>2023-01-06T14:07:54Z</time>
      </trkpt>
      <trkpt lat="43.60866" lon="6.31398">
        <ele>732</ele>
        <time>2023-01-06T14:07:55Z</time>
      </trkpt>
      <trkpt lat="43.60867" lon="6.31397">
        <ele>733</ele>
        <time>2023-01-06T14:07:56Z</time>
      </trkpt>
      <trkpt lat="43.60867" lon="6.31396">
        <ele>733</ele>
        <time>2023-01-06T14:07:57Z</time>
      </trkpt>
      <trkpt lat="43.60867" lon="6.31395">
        <ele>733</ele>
        <time>2023-01-06T14:07:58Z</time>
      </trkpt>
      <trkpt lat="43.60868" lon="6.31394">
        <ele>733</ele>
        <time>2023-01-06T14:07:59Z</time>
      </trkpt>
      <trkpt lat="43.60868" lon="6.31393">
        <ele>733</ele>
        <time>2023-01-06T14:08:00Z</time>
      </trkpt>
      <trkpt lat="43.60868" lon="6.31392">
        <ele>733</ele>
        <time>2023-01-06T14:08:01Z</time>
      </trkpt>
      <trkpt lat="43.60869" lon="6.31391">
        <ele>733</ele>
        <time>2023-01-06T14:08:02Z</time>
      </trkpt>
      <trkpt lat="43.60869" lon="6.31389">
        <ele>733</ele>
        <time>2023-01-06T14:08:03Z</time>
      </trkpt>
      <trkpt lat="43.60869" lon="6.31388">
        <ele>734</ele>
        <time>2023-01-06T14:08:04Z</time>
      </trkpt>
      <trkpt lat="43.6087" lon="6.31386">
        <ele>734</ele>
        <time>2023-01-06T14:08:05Z</time>
      </trkpt>
      <trkpt lat="43.6087" lon="6.31385">
        <ele>734</ele>
        <time>2023-01-06T14:08:06Z</time>
      </trkpt>
      <trkpt lat="43.60871" lon="6.31383">
        <ele>734</ele>
        <time>2023-01-06T14:08:07Z</time>
      </trkpt>
      <trkpt lat="43.60871" lon="6.31382">
        <ele>734</ele>
        <time>2023-01-06T14:08:08Z</time>
      </trkpt>
      <trkpt lat="43.60872" lon="6.31381">
        <ele>735</ele>
        <time>2023-01-06T14:08:09Z</time>
      </trkpt>
      <trkpt lat="43.60873" lon="6.3138">
        <ele>735</ele>
        <time>2023-01-06T14:08:10Z</time>
      </trkpt>
      <trkpt lat="43.60873" lon="6.31378">
        <ele>735</ele>
        <time>2023-01-06T14:08:11Z</time>
      </trkpt>
      <trkpt lat="43.60874" lon="6.31377">
        <ele>735</ele>
        <time>2023-01-06T14:08:12Z</time>
      </trkpt>
      <trkpt lat="43.60875" lon="6.31376">
        <ele>735</ele>
        <time>2023-01-06T14:08:13Z</time>
      </trkpt>
      <trkpt lat="43.60876" lon="6.31375">
        <ele>735</ele>
        <time>2023-01-06T14:08:14Z</time>
      </trkpt>
      <trkpt lat="43.60876" lon="6.31374">
        <ele>735</ele>
        <time>2023-01-06T14:08:15Z</time>
      </trkpt>
      <trkpt lat="43.60877" lon="6.31373">
        <ele>736</ele>
        <time>2023-01-06T14:08:16Z</time>
      </trkpt>
      <trkpt lat="43.60878" lon="6.31372">
        <ele>736</ele>
        <time>2023-01-06T14:08:17Z</time>
      </trkpt>
      <trkpt lat="43.60879" lon="6.3137">
        <ele>736</ele>
        <time>2023-01-06T14:08:18Z</time>
      </trkpt>
      <trkpt lat="43.60879" lon="6.31369">
        <ele>737</ele>
        <time>2023-01-06T14:08:19Z</time>
      </trkpt>
      <trkpt lat="43.6088" lon="6.31369">
        <ele>737</ele>
        <time>2023-01-06T14:08:20Z</time>
      </trkpt>
      <trkpt lat="43.6088" lon="6.31367">
        <ele>737</ele>
        <time>2023-01-06T14:08:21Z</time>
      </trkpt>
      <trkpt lat="43.6088" lon="6.31366">
        <ele>737</ele>
        <time>2023-01-06T14:08:22Z</time>
      </trkpt>
      <trkpt lat="43.60881" lon="6.31365">
        <ele>737</ele>
        <time>2023-01-06T14:08:23Z</time>
      </trkpt>
      <trkpt lat="43.60882" lon="6.31364">
        <ele>737</ele>
        <time>2023-01-06T14:08:24Z</time>
      </trkpt>
      <trkpt lat="43.60882" lon="6.31363">
        <ele>737</ele>
        <time>2023-01-06T14:08:25Z</time>
      </trkpt>
      <trkpt lat="43.60883" lon="6.31362">
        <ele>737</ele>
        <time>2023-01-06T14:08:26Z</time>
      </trkpt>
      <trkpt lat="43.60883" lon="6.31361">
        <ele>738</ele>
        <time>2023-01-06T14:08:27Z</time>
      </trkpt>
      <trkpt lat="43.60884" lon="6.3136">
        <ele>739</ele>
        <time>2023-01-06T14:08:28Z</time>
      </trkpt>
      <trkpt lat="43.60884" lon="6.31359">
        <ele>739</ele>
        <time>2023-01-06T14:08:29Z</time>
      </trkpt>
      <trkpt lat="43.60885" lon="6.31358">
        <ele>739</ele>
        <time>2023-01-06T14:08:30Z</time>
      </trkpt>
      <trkpt lat="43.60885" lon="6.31357">
        <ele>739</ele>
        <time>2023-01-06T14:08:31Z</time>
      </trkpt>
      <trkpt lat="43.60885" lon="6.31355">
        <ele>739</ele>
        <time>2023-01-06T14:08:32Z</time>
      </trkpt>
      <trkpt lat="43.60885" lon="6.31354">
        <ele>739</ele>
        <time>2023-01-06T14:08:33Z</time>
      </trkpt>
      <trkpt lat="43.60886" lon="6.31354">
        <ele>739</ele>
        <time>2023-01-06T14:08:34Z</time>
      </trkpt>
      <trkpt lat="43.60886" lon="6.31353">
        <ele>740</ele>
        <time>2023-01-06T14:08:35Z</time>
      </trkpt>
      <trkpt lat="43.60886" lon="6.31351">
        <ele>740</ele>
        <time>2023-01-06T14:08:36Z</time>
      </trkpt>
      <trkpt lat="43.60887" lon="6.3135">
        <ele>740</ele>
        <time>2023-01-06T14:08:37Z</time>
      </trkpt>
      <trkpt lat="43.60887" lon="6.31349">
        <ele>740</ele>
        <time>2023-01-06T14:08:38Z</time>
      </trkpt>
      <trkpt lat="43.60888" lon="6.31347">
        <ele>740</ele>
        <time>2023-01-06T14:08:39Z</time>
      </trkpt>
      <trkpt lat="43.60888" lon="6.31346">
        <ele>741</ele>
        <time>2023-01-06T14:08:40Z</time>
      </trkpt>
      <trkpt lat="43.60888" lon="6.31345">
        <ele>741</ele>
        <time>2023-01-06T14:08:41Z</time>
      </trkpt>
      <trkpt lat="43.60889" lon="6.31344">
        <ele>741</ele>
        <time>2023-01-06T14:08:42Z</time>
      </trkpt>
      <trkpt lat="43.60889" lon="6.31342">
        <ele>741</ele>
        <time>2023-01-06T14:08:43Z</time>
      </trkpt>
      <trkpt lat="43.60889" lon="6.31341">
        <ele>741</ele>
        <time>2023-01-06T14:08:44Z</time>
      </trkpt>
      <trkpt lat="43.60889" lon="6.3134">
        <ele>741</ele>
        <time>2023-01-06T14:08:45Z</time>
      </trkpt>
      <trkpt lat="43.6089" lon="6.31339">
        <ele>741</ele>
        <time>2023-01-06T14:08:46Z</time>
      </trkpt>
      <trkpt lat="43.6089" lon="6.31338">
        <ele>742</ele>
        <time>2023-01-06T14:08:47Z</time>
      </trkpt>
      <trkpt lat="43.60891" lon="6.31337">
        <ele>742</ele>
        <time>2023-01-06T14:08:48Z</time>
      </trkpt>
      <trkpt lat="43.60891" lon="6.31335">
        <ele>742</ele>
        <time>2023-01-06T14:08:49Z</time>
      </trkpt>
      <trkpt lat="43.60891" lon="6.31334">
        <ele>742</ele>
        <time>2023-01-06T14:08:50Z</time>
      </trkpt>
      <trkpt lat="43.60892" lon="6.31333">
        <ele>742</ele>
        <time>2023-01-06T14:08:51Z</time>
      </trkpt>
      <trkpt lat="43.60892" lon="6.31332">
        <ele>742</ele>
        <time>2023-01-06T14:08:52Z</time>
      </trkpt>
      <trkpt lat="43.60892" lon="6.31331">
        <ele>742</ele>
        <time>2023-01-06T14:08:53Z</time>
      </trkpt>
      <trkpt lat="43.60892" lon="6.3133">
        <ele>742</ele>
        <time>2023-01-06T14:08:54Z</time>
      </trkpt>
      <trkpt lat="43.60893" lon="6.31328">
        <ele>742</ele>
        <time>2023-01-06T14:08:55Z</time>
      </trkpt>
      <trkpt lat="43.60893" lon="6.31327">
        <ele>742</ele>
        <time>2023-01-06T14:08:56Z</time>
      </trkpt>
      <trkpt lat="43.60894" lon="6.31326">
        <ele>742</ele>
        <time>2023-01-06T14:08:57Z</time>
      </trkpt>
      <trkpt lat="43.60894" lon="6.31326">
        <ele>742</ele>
        <time>2023-01-06T14:08:58Z</time>
      </trkpt>
      <trkpt lat="43.60895" lon="6.31325">
        <ele>742</ele>
        <time>2023-01-06T14:08:59Z</time>
      </trkpt>
      <trkpt lat="43.60896" lon="6.31325">
        <ele>742</ele>
        <time>2023-01-06T14:09:00Z</time>
      </trkpt>
      <trkpt lat="43.60897" lon="6.31324">
        <ele>742</ele>
        <time>2023-01-06T14:09:01Z</time>
      </trkpt>
      <trkpt lat="43.60897" lon="6.31323">
        <ele>742</ele>
        <time>2023-01-06T14:09:02Z</time>
      </trkpt>
      <trkpt lat="43.60898" lon="6.31322">
        <ele>741</ele>
        <time>2023-01-06T14:09:03Z</time>
      </trkpt>
      <trkpt lat="43.60899" lon="6.31321">
        <ele>741</ele>
        <time>2023-01-06T14:09:04Z</time>
      </trkpt>
      <trkpt lat="43.609" lon="6.3132">
        <ele>741</ele>
        <time>2023-01-06T14:09:05Z</time>
      </trkpt>
      <trkpt lat="43.609" lon="6.31319">
        <ele>741</ele>
        <time>2023-01-06T14:09:06Z</time>
      </trkpt>
      <trkpt lat="43.60901" lon="6.31317">
        <ele>741</ele>
        <time>2023-01-06T14:09:07Z</time>
      </trkpt>
      <trkpt lat="43.60902" lon="6.31316">
        <ele>741</ele>
        <time>2023-01-06T14:09:08Z</time>
      </trkpt>
      <trkpt lat="43.60902" lon="6.31315">
        <ele>741</ele>
        <time>2023-01-06T14:09:09Z</time>
      </trkpt>
      <trkpt lat="43.60902" lon="6.31313">
        <ele>741</ele>
        <time>2023-01-06T14:09:10Z</time>
      </trkpt>
      <trkpt lat="43.60903" lon="6.31312">
        <ele>741</ele>
        <time>2023-01-06T14:09:11Z</time>
      </trkpt>
      <trkpt lat="43.60903" lon="6.31311">
        <ele>741</ele>
        <time>2023-01-06T14:09:12Z</time>
      </trkpt>
      <trkpt lat="43.60904" lon="6.31309">
        <ele>741</ele>
        <time>2023-01-06T14:09:13Z</time>
      </trkpt>
      <trkpt lat="43.60904" lon="6.31308">
        <ele>741</ele>
        <time>2023-01-06T14:09:14Z</time>
      </trkpt>
      <trkpt lat="43.60905" lon="6.31306">
        <ele>741</ele>
        <time>2023-01-06T14:09:15Z</time>
      </trkpt>
      <trkpt lat="43.60905" lon="6.31305">
        <ele>741</ele>
        <time>2023-01-06T14:09:16Z</time>
      </trkpt>
      <trkpt lat="43.60905" lon="6.31304">
        <ele>741</ele>
        <time>2023-01-06T14:09:17Z</time>
      </trkpt>
      <trkpt lat="43.60905" lon="6.31303">
        <ele>741</ele>
        <time>2023-01-06T14:09:18Z</time>
      </trkpt>
      <trkpt lat="43.60906" lon="6.31301">
        <ele>741</ele>
        <time>2023-01-06T14:09:19Z</time>
      </trkpt>
      <trkpt lat="43.60906" lon="6.313">
        <ele>741</ele>
        <time>2023-01-06T14:09:20Z</time>
      </trkpt>
      <trkpt lat="43.60906" lon="6.31298">
        <ele>741</ele>
        <time>2023-01-06T14:09:21Z</time>
      </trkpt>
      <trkpt lat="43.60907" lon="6.31297">
        <ele>740</ele>
        <time>2023-01-06T14:09:22Z</time>
      </trkpt>
      <trkpt lat="43.60907" lon="6.31296">
        <ele>740</ele>
        <time>2023-01-06T14:09:23Z</time>
      </trkpt>
      <trkpt lat="43.60908" lon="6.31294">
        <ele>740</ele>
        <time>2023-01-06T14:09:24Z</time>
      </trkpt>
      <trkpt lat="43.60908" lon="6.31293">
        <ele>740</ele>
        <time>2023-01-06T14:09:25Z</time>
      </trkpt>
      <trkpt lat="43.60908" lon="6.31292">
        <ele>739</ele>
        <time>2023-01-06T14:09:26Z</time>
      </trkpt>
      <trkpt lat="43.60909" lon="6.31291">
        <ele>739</ele>
        <time>2023-01-06T14:09:27Z</time>
      </trkpt>
      <trkpt lat="43.60909" lon="6.3129">
        <ele>739</ele>
        <time>2023-01-06T14:09:28Z</time>
      </trkpt>
      <trkpt lat="43.6091" lon="6.31288">
        <ele>739</ele>
        <time>2023-01-06T14:09:29Z</time>
      </trkpt>
      <trkpt lat="43.60911" lon="6.31287">
        <ele>739</ele>
        <time>2023-01-06T14:09:30Z</time>
      </trkpt>
      <trkpt lat="43.60912" lon="6.31286">
        <ele>739</ele>
        <time>2023-01-06T14:09:31Z</time>
      </trkpt>
      <trkpt lat="43.60913" lon="6.31285">
        <ele>739</ele>
        <time>2023-01-06T14:09:32Z</time>
      </trkpt>
      <trkpt lat="43.60914" lon="6.31284">
        <ele>739</ele>
        <time>2023-01-06T14:09:33Z</time>
      </trkpt>
      <trkpt lat="43.60915" lon="6.31284">
        <ele>739</ele>
        <time>2023-01-06T14:09:34Z</time>
      </trkpt>
      <trkpt lat="43.60916" lon="6.31283">
        <ele>739</ele>
        <time>2023-01-06T14:09:35Z</time>
      </trkpt>
      <trkpt lat="43.60916" lon="6.31282">
        <ele>739</ele>
        <time>2023-01-06T14:09:36Z</time>
      </trkpt>
      <trkpt lat="43.60917" lon="6.31281">
        <ele>739</ele>
        <time>2023-01-06T14:09:37Z</time>
      </trkpt>
      <trkpt lat="43.60918" lon="6.3128">
        <ele>739</ele>
        <time>2023-01-06T14:09:38Z</time>
      </trkpt>
      <trkpt lat="43.60919" lon="6.3128">
        <ele>739</ele>
        <time>2023-01-06T14:09:39Z</time>
      </trkpt>
      <trkpt lat="43.6092" lon="6.31279">
        <ele>740</ele>
        <time>2023-01-06T14:09:40Z</time>
      </trkpt>
      <trkpt lat="43.60921" lon="6.31278">
        <ele>740</ele>
        <time>2023-01-06T14:09:41Z</time>
      </trkpt>
      <trkpt lat="43.60922" lon="6.31277">
        <ele>740</ele>
        <time>2023-01-06T14:09:42Z</time>
      </trkpt>
      <trkpt lat="43.60922" lon="6.31277">
        <ele>740</ele>
        <time>2023-01-06T14:09:43Z</time>
      </trkpt>
      <trkpt lat="43.60923" lon="6.31276">
        <ele>740</ele>
        <time>2023-01-06T14:09:44Z</time>
      </trkpt>
      <trkpt lat="43.60924" lon="6.31275">
        <ele>740</ele>
        <time>2023-01-06T14:09:45Z</time>
      </trkpt>
      <trkpt lat="43.60925" lon="6.31274">
        <ele>740</ele>
        <time>2023-01-06T14:09:46Z</time>
      </trkpt>
      <trkpt lat="43.60926" lon="6.31273">
        <ele>740</ele>
        <time>2023-01-06T14:09:47Z</time>
      </trkpt>
      <trkpt lat="43.60927" lon="6.31272">
        <ele>740</ele>
        <time>2023-01-06T14:09:48Z</time>
      </trkpt>
      <trkpt lat="43.60928" lon="6.31271">
        <ele>740</ele>
        <time>2023-01-06T14:09:49Z</time>
      </trkpt>
      <trkpt lat="43.60928" lon="6.3127">
        <ele>740</ele>
        <time>2023-01-06T14:09:50Z</time>
      </trkpt>
      <trkpt lat="43.60929" lon="6.31269">
        <ele>740</ele>
        <time>2023-01-06T14:09:51Z</time>
      </trkpt>
      <trkpt lat="43.6093" lon="6.31268">
        <ele>740</ele>
        <time>2023-01-06T14:09:52Z</time>
      </trkpt>
      <trkpt lat="43.6093" lon="6.31267">
        <ele>740</ele>
        <time>2023-01-06T14:09:53Z</time>
      </trkpt>
      <trkpt lat="43.60931" lon="6.31266">
        <ele>739</ele>
        <time>2023-01-06T14:09:54Z</time>
      </trkpt>
      <trkpt lat="43.60931" lon="6.31265">
        <ele>739</ele>
        <time>2023-01-06T14:09:55Z</time>
      </trkpt>
      <trkpt lat="43.60932" lon="6.31263">
        <ele>739</ele>
        <time>2023-01-06T14:09:56Z</time>
      </trkpt>
      <trkpt lat="43.60933" lon="6.31262">
        <ele>739</ele>
        <time>2023-01-06T14:09:57Z</time>
      </trkpt>
      <trkpt lat="43.60933" lon="6.31261">
        <ele>739</ele>
        <time>2023-01-06T14:09:58Z</time>
      </trkpt>
      <trkpt lat="43.60934" lon="6.3126">
        <ele>739</ele>
        <time>2023-01-06T14:09:59Z</time>
      </trkpt>
      <trkpt lat="43.60934" lon="6.31259">
        <ele>739</ele>
        <time>2023-01-06T14:10:00Z</time>
      </trkpt>
      <trkpt lat="43.60935" lon="6.31258">
        <ele>739</ele>
        <time>2023-01-06T14:10:01Z</time>
      </trkpt>
      <trkpt lat="43.60936" lon="6.31257">
        <ele>739</ele>
        <time>2023-01-06T14:10:02Z</time>
      </trkpt>
      <trkpt lat="43.60936" lon="6.31256">
        <ele>739</ele>
        <time>2023-01-06T14:10:03Z</time>
      </trkpt>
      <trkpt lat="43.60937" lon="6.31255">
        <ele>739</ele>
        <time>2023-01-06T14:10:04Z</time>
      </trkpt>
      <trkpt lat="43.60938" lon="6.31254">
        <ele>739</ele>
        <time>2023-01-06T14:10:05Z</time>
      </trkpt>
      <trkpt lat="43.60938" lon="6.31253">
        <ele>739</ele>
        <time>2023-01-06T14:10:06Z</time>
      </trkpt>
      <trkpt lat="43.60939" lon="6.31252">
        <ele>739</ele>
        <time>2023-01-06T14:10:07Z</time>
      </trkpt>
      <trkpt lat="43.6094" lon="6.31251">
        <ele>739</ele>
        <time>2023-01-06T14:10:08Z</time>
      </trkpt>
      <trkpt lat="43.60941" lon="6.3125">
        <ele>739</ele>
        <time>2023-01-06T14:10:09Z</time>
      </trkpt>
      <trkpt lat="43.60941" lon="6.31249">
        <ele>739</ele>
        <time>2023-01-06T14:10:10Z</time>
      </trkpt>
      <trkpt lat="43.60942" lon="6.31248">
        <ele>739</ele>
        <time>2023-01-06T14:10:11Z</time>
      </trkpt>
      <trkpt lat="43.60943" lon="6.31248">
        <ele>739</ele>
        <time>2023-01-06T14:10:12Z</time>
      </trkpt>
      <trkpt lat="43.60943" lon="6.31247">
        <ele>739</ele>
        <time>2023-01-06T14:10:13Z</time>
      </trkpt>
      <trkpt lat="43.60944" lon="6.31246">
        <ele>739</ele>
        <time>2023-01-06T14:10:14Z</time>
      </trkpt>
      <trkpt lat="43.60945" lon="6.31245">
        <ele>739</ele>
        <time>2023-01-06T14:10:15Z</time>
      </trkpt>
      <trkpt lat="43.60945" lon="6.31244">
        <ele>739</ele>
        <time>2023-01-06T14:10:16Z</time>
      </trkpt>
      <trkpt lat="43.60946" lon="6.31243">
        <ele>739</ele>
        <time>2023-01-06T14:10:17Z</time>
      </trkpt>
      <trkpt lat="43.60946" lon="6.31242">
        <ele>740</ele>
        <time>2023-01-06T14:10:18Z</time>
      </trkpt>
      <trkpt lat="43.60947" lon="6.31241">
        <ele>740</ele>
        <time>2023-01-06T14:10:19Z</time>
      </trkpt>
      <trkpt lat="43.60947" lon="6.3124">
        <ele>740</ele>
        <time>2023-01-06T14:10:20Z</time>
      </trkpt>
      <trkpt lat="43.60947" lon="6.31239">
        <ele>740</ele>
        <time>2023-01-06T14:10:21Z</time>
      </trkpt>
      <trkpt lat="43.60947" lon="6.31238">
        <ele>740</ele>
        <time>2023-01-06T14:10:22Z</time>
      </trkpt>
      <trkpt lat="43.60947" lon="6.31237">
        <ele>740</ele>
        <time>2023-01-06T14:10:23Z</time>
      </trkpt>
      <trkpt lat="43.60947" lon="6.31236">
        <ele>740</ele>
        <time>2023-01-06T14:10:24Z</time>
      </trkpt>
      <trkpt lat="43.60947" lon="6.31235">
        <ele>740</ele>
        <time>2023-01-06T14:10:25Z</time>
      </trkpt>
      <trkpt lat="43.60948" lon="6.31234">
        <ele>741</ele>
        <time>2023-01-06T14:10:26Z</time>
      </trkpt>
      <trkpt lat="43.60948" lon="6.31233">
        <ele>741</ele>
        <time>2023-01-06T14:10:27Z</time>
      </trkpt>
      <trkpt lat="43.60948" lon="6.31232">
        <ele>741</ele>
        <time>2023-01-06T14:10:28Z</time>
      </trkpt>
      <trkpt lat="43.60948" lon="6.31231">
        <ele>741</ele>
        <time>2023-01-06T14:10:29Z</time>
      </trkpt>
      <trkpt lat="43.60949" lon="6.3123">
        <ele>741</ele>
        <time>2023-01-06T14:10:30Z</time>
      </trkpt>
      <trkpt lat="43.60949" lon="6.31229">
        <ele>741</ele>
        <time>2023-01-06T14:10:31Z</time>
      </trkpt>
      <trkpt lat="43.6095" lon="6.31228">
        <ele>741</ele>
        <time>2023-01-06T14:10:32Z</time>
      </trkpt>
      <trkpt lat="43.6095" lon="6.31227">
        <ele>741</ele>
        <time>2023-01-06T14:10:33Z</time>
      </trkpt>
      <trkpt lat="43.60951" lon="6.31225">
        <ele>740</ele>
        <time>2023-01-06T14:10:34Z</time>
      </trkpt>
      <trkpt lat="43.60952" lon="6.31224">
        <ele>740</ele>
        <time>2023-01-06T14:10:35Z</time>
      </trkpt>
      <trkpt lat="43.60953" lon="6.31223">
        <ele>740</ele>
        <time>2023-01-06T14:10:36Z</time>
      </trkpt>
      <trkpt lat="43.60954" lon="6.31222">
        <ele>740</ele>
        <time>2023-01-06T14:10:37Z</time>
      </trkpt>
      <trkpt lat="43.60955" lon="6.3122">
        <ele>740</ele>
        <time>2023-01-06T14:10:38Z</time>
      </trkpt>
      <trkpt lat="43.60956" lon="6.31219">
        <ele>740</ele>
        <time>2023-01-06T14:10:39Z</time>
      </trkpt>
      <trkpt lat="43.60957" lon="6.31218">
        <ele>740</ele>
        <time>2023-01-06T14:10:40Z</time>
      </trkpt>
      <trkpt lat="43.60958" lon="6.31217">
        <ele>740</ele>
        <time>2023-01-06T14:10:41Z</time>
      </trkpt>
      <trkpt lat="43.60959" lon="6.31216">
        <ele>740</ele>
        <time>2023-01-06T14:10:42Z</time>
      </trkpt>
      <trkpt lat="43.6096" lon="6.31215">
        <ele>740</ele>
        <time>2023-01-06T14:10:43Z</time>
      </trkpt>
      <trkpt lat="43.6096" lon="6.31214">
        <ele>740</ele>
        <time>2023-01-06T14:10:44Z</time>
      </trkpt>
      <trkpt lat="43.60961" lon="6.31212">
        <ele>740</ele>
        <time>2023-01-06T14:10:45Z</time>
      </trkpt>
      <trkpt lat="43.60962" lon="6.31211">
        <ele>740</ele>
        <time>2023-01-06T14:10:46Z</time>
      </trkpt>
      <trkpt lat="43.60962" lon="6.31211">
        <ele>740</ele>
        <time>2023-01-06T14:10:47Z</time>
      </trkpt>
      <trkpt lat="43.60963" lon="6.31209">
        <ele>740</ele>
        <time>2023-01-06T14:10:48Z</time>
      </trkpt>
      <trkpt lat="43.60963" lon="6.31208">
        <ele>741</ele>
        <time>2023-01-06T14:10:49Z</time>
      </trkpt>
      <trkpt lat="43.60964" lon="6.31207">
        <ele>741</ele>
        <time>2023-01-06T14:10:50Z</time>
      </trkpt>
      <trkpt lat="43.60964" lon="6.31206">
        <ele>741</ele>
        <time>2023-01-06T14:10:51Z</time>
      </trkpt>
      <trkpt lat="43.60965" lon="6.31205">
        <ele>741</ele>
        <time>2023-01-06T14:10:52Z</time>
      </trkpt>
      <trkpt lat="43.60965" lon="6.31204">
        <ele>741</ele>
        <time>2023-01-06T14:10:53Z</time>
      </trkpt>
      <trkpt lat="43.60965" lon="6.31202">
        <ele>741</ele>
        <time>2023-01-06T14:10:54Z</time>
      </trkpt>
      <trkpt lat="43.60966" lon="6.312">
        <ele>741</ele>
        <time>2023-01-06T14:10:55Z</time>
      </trkpt>
      <trkpt lat="43.60966" lon="6.31199">
        <ele>741</ele>
        <time>2023-01-06T14:10:56Z</time>
      </trkpt>
      <trkpt lat="43.60967" lon="6.31198">
        <ele>742</ele>
        <time>2023-01-06T14:10:57Z</time>
      </trkpt>
      <trkpt lat="43.60967" lon="6.31197">
        <ele>742</ele>
        <time>2023-01-06T14:10:58Z</time>
      </trkpt>
      <trkpt lat="43.60967" lon="6.31195">
        <ele>742</ele>
        <time>2023-01-06T14:10:59Z</time>
      </trkpt>
      <trkpt lat="43.60967" lon="6.31194">
        <ele>742</ele>
        <time>2023-01-06T14:11:00Z</time>
      </trkpt>
      <trkpt lat="43.60967" lon="6.31192">
        <ele>742</ele>
        <time>2023-01-06T14:11:01Z</time>
      </trkpt>
      <trkpt lat="43.60967" lon="6.31191">
        <ele>742</ele>
        <time>2023-01-06T14:11:02Z</time>
      </trkpt>
      <trkpt lat="43.60967" lon="6.31189">
        <ele>742</ele>
        <time>2023-01-06T14:11:03Z</time>
      </trkpt>
      <trkpt lat="43.60967" lon="6.31188">
        <ele>742</ele>
        <time>2023-01-06T14:11:04Z</time>
      </trkpt>
      <trkpt lat="43.60967" lon="6.31186">
        <ele>742</ele>
        <time>2023-01-06T14:11:05Z</time>
      </trkpt>
      <trkpt lat="43.60967" lon="6.31185">
        <ele>743</ele>
        <time>2023-01-06T14:11:06Z</time>
      </trkpt>
      <trkpt lat="43.60968" lon="6.31184">
        <ele>743</ele>
        <time>2023-01-06T14:11:07Z</time>
      </trkpt>
      <trkpt lat="43.60967" lon="6.31183">
        <ele>744</ele>
        <time>2023-01-06T14:11:08Z</time>
      </trkpt>
      <trkpt lat="43.60967" lon="6.31181">
        <ele>744</ele>
        <time>2023-01-06T14:11:09Z</time>
      </trkpt>
      <trkpt lat="43.60967" lon="6.3118">
        <ele>744</ele>
        <time>2023-01-06T14:11:10Z</time>
      </trkpt>
      <trkpt lat="43.60967" lon="6.31179">
        <ele>744</ele>
        <time>2023-01-06T14:11:11Z</time>
      </trkpt>
      <trkpt lat="43.60967" lon="6.31178">
        <ele>744</ele>
        <time>2023-01-06T14:11:12Z</time>
      </trkpt>
      <trkpt lat="43.60968" lon="6.31177">
        <ele>744</ele>
        <time>2023-01-06T14:11:13Z</time>
      </trkpt>
      <trkpt lat="43.60968" lon="6.31175">
        <ele>744</ele>
        <time>2023-01-06T14:11:14Z</time>
      </trkpt>
      <trkpt lat="43.60968" lon="6.31174">
        <ele>744</ele>
        <time>2023-01-06T14:11:15Z</time>
      </trkpt>
      <trkpt lat="43.60968" lon="6.31173">
        <ele>744</ele>
        <time>2023-01-06T14:11:16Z</time>
      </trkpt>
      <trkpt lat="43.60968" lon="6.31172">
        <ele>744</ele>
        <time>2023-01-06T14:11:17Z</time>
      </trkpt>
      <trkpt lat="43.60968" lon="6.31171">
        <ele>744</ele>
        <time>2023-01-06T14:11:18Z</time>
      </trkpt>
      <trkpt lat="43.60968" lon="6.31169">
        <ele>744</ele>
        <time>2023-01-06T14:11:19Z</time>
      </trkpt>
      <trkpt lat="43.60968" lon="6.31168">
        <ele>744</ele>
        <time>2023-01-06T14:11:20Z</time>
      </trkpt>
      <trkpt lat="43.60968" lon="6.31166">
        <ele>744</ele>
        <time>2023-01-06T14:11:21Z</time>
      </trkpt>
      <trkpt lat="43.60968" lon="6.31165">
        <ele>743</ele>
        <time>2023-01-06T14:11:22Z</time>
      </trkpt>
      <trkpt lat="43.60968" lon="6.31163">
        <ele>743</ele>
        <time>2023-01-06T14:11:23Z</time>
      </trkpt>
      <trkpt lat="43.60968" lon="6.31162">
        <ele>743</ele>
        <time>2023-01-06T14:11:24Z</time>
      </trkpt>
      <trkpt lat="43.60968" lon="6.31161">
        <ele>743</ele>
        <time>2023-01-06T14:11:25Z</time>
      </trkpt>
      <trkpt lat="43.60968" lon="6.31159">
        <ele>743</ele>
        <time>2023-01-06T14:11:26Z</time>
      </trkpt>
      <trkpt lat="43.60969" lon="6.31158">
        <ele>743</ele>
        <time>2023-01-06T14:11:27Z</time>
      </trkpt>
      <trkpt lat="43.60969" lon="6.31156">
        <ele>743</ele>
        <time>2023-01-06T14:11:28Z</time>
      </trkpt>
      <trkpt lat="43.60969" lon="6.31154">
        <ele>743</ele>
        <time>2023-01-06T14:11:29Z</time>
      </trkpt>
      <trkpt lat="43.60969" lon="6.31153">
        <ele>743</ele>
        <time>2023-01-06T14:11:30Z</time>
      </trkpt>
      <trkpt lat="43.60969" lon="6.31151">
        <ele>743</ele>
        <time>2023-01-06T14:11:31Z</time>
      </trkpt>
      <trkpt lat="43.60969" lon="6.3115">
        <ele>743</ele>
        <time>2023-01-06T14:11:32Z</time>
      </trkpt>
      <trkpt lat="43.60969" lon="6.31149">
        <ele>743</ele>
        <time>2023-01-06T14:11:33Z</time>
      </trkpt>
      <trkpt lat="43.60969" lon="6.31147">
        <ele>743</ele>
        <time>2023-01-06T14:11:34Z</time>
      </trkpt>
      <trkpt lat="43.60969" lon="6.31146">
        <ele>742</ele>
        <time>2023-01-06T14:11:35Z</time>
      </trkpt>
      <trkpt lat="43.6097" lon="6.31145">
        <ele>742</ele>
        <time>2023-01-06T14:11:36Z</time>
      </trkpt>
      <trkpt lat="43.6097" lon="6.31143">
        <ele>742</ele>
        <time>2023-01-06T14:11:37Z</time>
      </trkpt>
      <trkpt lat="43.6097" lon="6.31142">
        <ele>742</ele>
        <time>2023-01-06T14:11:38Z</time>
      </trkpt>
      <trkpt lat="43.6097" lon="6.3114">
        <ele>742</ele>
        <time>2023-01-06T14:11:39Z</time>
      </trkpt>
      <trkpt lat="43.6097" lon="6.31139">
        <ele>742</ele>
        <time>2023-01-06T14:11:40Z</time>
      </trkpt>
      <trkpt lat="43.6097" lon="6.31138">
        <ele>742</ele>
        <time>2023-01-06T14:11:41Z</time>
      </trkpt>
      <trkpt lat="43.6097" lon="6.31137">
        <ele>742</ele>
        <time>2023-01-06T14:11:42Z</time>
      </trkpt>
      <trkpt lat="43.6097" lon="6.31135">
        <ele>742</ele>
        <time>2023-01-06T14:11:43Z</time>
      </trkpt>
      <trkpt lat="43.60971" lon="6.31134">
        <ele>742</ele>
        <time>2023-01-06T14:11:44Z</time>
      </trkpt>
      <trkpt lat="43.60971" lon="6.31133">
        <ele>742</ele>
        <time>2023-01-06T14:11:45Z</time>
      </trkpt>
      <trkpt lat="43.60971" lon="6.31131">
        <ele>741</ele>
        <time>2023-01-06T14:11:46Z</time>
      </trkpt>
      <trkpt lat="43.60971" lon="6.3113">
        <ele>741</ele>
        <time>2023-01-06T14:11:47Z</time>
      </trkpt>
      <trkpt lat="43.60971" lon="6.31129">
        <ele>741</ele>
        <time>2023-01-06T14:11:48Z</time>
      </trkpt>
      <trkpt lat="43.60971" lon="6.31127">
        <ele>741</ele>
        <time>2023-01-06T14:11:49Z</time>
      </trkpt>
      <trkpt lat="43.60972" lon="6.31125">
        <ele>742</ele>
        <time>2023-01-06T14:11:50Z</time>
      </trkpt>
      <trkpt lat="43.60972" lon="6.31124">
        <ele>742</ele>
        <time>2023-01-06T14:11:51Z</time>
      </trkpt>
      <trkpt lat="43.60972" lon="6.31122">
        <ele>742</ele>
        <time>2023-01-06T14:11:52Z</time>
      </trkpt>
      <trkpt lat="43.60972" lon="6.3112">
        <ele>742</ele>
        <time>2023-01-06T14:11:53Z</time>
      </trkpt>
      <trkpt lat="43.60972" lon="6.31119">
        <ele>742</ele>
        <time>2023-01-06T14:11:54Z</time>
      </trkpt>
      <trkpt lat="43.60972" lon="6.31118">
        <ele>742</ele>
        <time>2023-01-06T14:11:55Z</time>
      </trkpt>
      <trkpt lat="43.60973" lon="6.31116">
        <ele>743</ele>
        <time>2023-01-06T14:11:56Z</time>
      </trkpt>
      <trkpt lat="43.60973" lon="6.31115">
        <ele>743</ele>
        <time>2023-01-06T14:11:57Z</time>
      </trkpt>
      <trkpt lat="43.60973" lon="6.31114">
        <ele>743</ele>
        <time>2023-01-06T14:11:58Z</time>
      </trkpt>
      <trkpt lat="43.60973" lon="6.31112">
        <ele>743</ele>
        <time>2023-01-06T14:11:59Z</time>
      </trkpt>
      <trkpt lat="43.60973" lon="6.31111">
        <ele>743</ele>
        <time>2023-01-06T14:12:00Z</time>
      </trkpt>
      <trkpt lat="43.60973" lon="6.3111">
        <ele>743</ele>
        <time>2023-01-06T14:12:01Z</time>
      </trkpt>
      <trkpt lat="43.60973" lon="6.31108">
        <ele>743</ele>
        <time>2023-01-06T14:12:02Z</time>
      </trkpt>
      <trkpt lat="43.60974" lon="6.31107">
        <ele>743</ele>
        <time>2023-01-06T14:12:03Z</time>
      </trkpt>
      <trkpt lat="43.60974" lon="6.31106">
        <ele>743</ele>
        <time>2023-01-06T14:12:04Z</time>
      </trkpt>
      <trkpt lat="43.60974" lon="6.31104">
        <ele>742</ele>
        <time>2023-01-06T14:12:05Z</time>
      </trkpt>
      <trkpt lat="43.60974" lon="6.31103">
        <ele>742</ele>
        <time>2023-01-06T14:12:06Z</time>
      </trkpt>
      <trkpt lat="43.60974" lon="6.31101">
        <ele>742</ele>
        <time>2023-01-06T14:12:07Z</time>
      </trkpt>
      <trkpt lat="43.60974" lon="6.31099">
        <ele>742</ele>
        <time>2023-01-06T14:12:08Z</time>
      </trkpt>
      <trkpt lat="43.60974" lon="6.31098">
        <ele>742</ele>
        <time>2023-01-06T14:12:09Z</time>
      </trkpt>
      <trkpt lat="43.60974" lon="6.31097">
        <ele>742</ele>
        <time>2023-01-06T14:12:10Z</time>
      </trkpt>
      <trkpt lat="43.60974" lon="6.31096">
        <ele>742</ele>
        <time>2023-01-06T14:12:11Z</time>
      </trkpt>
      <trkpt lat="43.60974" lon="6.31094">
        <ele>743</ele>
        <time>2023-01-06T14:12:12Z</time>
      </trkpt>
      <trkpt lat="43.60974" lon="6.31093">
        <ele>743</ele>
        <time>2023-01-06T14:12:13Z</time>
      </trkpt>
      <trkpt lat="43.60974" lon="6.31092">
        <ele>743</ele>
        <time>2023-01-06T14:12:14Z</time>
      </trkpt>
      <trkpt lat="43.60974" lon="6.3109">
        <ele>742</ele>
        <time>2023-01-06T14:12:15Z</time>
      </trkpt>
      <trkpt lat="43.60974" lon="6.31089">
        <ele>742</ele>
        <time>2023-01-06T14:12:16Z</time>
      </trkpt>
      <trkpt lat="43.60974" lon="6.31088">
        <ele>742</ele>
        <time>2023-01-06T14:12:17Z</time>
      </trkpt>
      <trkpt lat="43.60974" lon="6.31086">
        <ele>742</ele>
        <time>2023-01-06T14:12:18Z</time>
      </trkpt>
      <trkpt lat="43.60973" lon="6.31085">
        <ele>742</ele>
        <time>2023-01-06T14:12:19Z</time>
      </trkpt>
      <trkpt lat="43.60973" lon="6.31084">
        <ele>742</ele>
        <time>2023-01-06T14:12:20Z</time>
      </trkpt>
      <trkpt lat="43.60973" lon="6.31082">
        <ele>742</ele>
        <time>2023-01-06T14:12:21Z</time>
      </trkpt>
      <trkpt lat="43.60973" lon="6.31081">
        <ele>742</ele>
        <time>2023-01-06T14:12:22Z</time>
      </trkpt>
      <trkpt lat="43.60973" lon="6.3108">
        <ele>742</ele>
        <time>2023-01-06T14:12:23Z</time>
      </trkpt>
      <trkpt lat="43.60973" lon="6.31079">
        <ele>742</ele>
        <time>2023-01-06T14:12:24Z</time>
      </trkpt>
      <trkpt lat="43.60973" lon="6.31078">
        <ele>742</ele>
        <time>2023-01-06T14:12:25Z</time>
      </trkpt>
      <trkpt lat="43.60972" lon="6.31077">
        <ele>741</ele>
        <time>2023-01-06T14:12:26Z</time>
      </trkpt>
      <trkpt lat="43.60973" lon="6.31075">
        <ele>741</ele>
        <time>2023-01-06T14:12:27Z</time>
      </trkpt>
      <trkpt lat="43.60972" lon="6.31074">
        <ele>741</ele>
        <time>2023-01-06T14:12:28Z</time>
      </trkpt>
      <trkpt lat="43.60972" lon="6.31072">
        <ele>741</ele>
        <time>2023-01-06T14:12:29Z</time>
      </trkpt>
      <trkpt lat="43.60972" lon="6.31071">
        <ele>741</ele>
        <time>2023-01-06T14:12:30Z</time>
      </trkpt>
      <trkpt lat="43.60972" lon="6.31069">
        <ele>741</ele>
        <time>2023-01-06T14:12:31Z</time>
      </trkpt>
      <trkpt lat="43.60972" lon="6.31068">
        <ele>741</ele>
        <time>2023-01-06T14:12:32Z</time>
      </trkpt>
      <trkpt lat="43.60972" lon="6.31067">
        <ele>741</ele>
        <time>2023-01-06T14:12:33Z</time>
      </trkpt>
      <trkpt lat="43.60971" lon="6.31066">
        <ele>741</ele>
        <time>2023-01-06T14:12:34Z</time>
      </trkpt>
      <trkpt lat="43.60971" lon="6.31065">
        <ele>741</ele>
        <time>2023-01-06T14:12:35Z</time>
      </trkpt>
      <trkpt lat="43.6097" lon="6.31063">
        <ele>741</ele>
        <time>2023-01-06T14:12:36Z</time>
      </trkpt>
      <trkpt lat="43.6097" lon="6.31062">
        <ele>741</ele>
        <time>2023-01-06T14:12:37Z</time>
      </trkpt>
      <trkpt lat="43.6097" lon="6.31061">
        <ele>741</ele>
        <time>2023-01-06T14:12:38Z</time>
      </trkpt>
      <trkpt lat="43.60969" lon="6.31059">
        <ele>740</ele>
        <time>2023-01-06T14:12:39Z</time>
      </trkpt>
      <trkpt lat="43.60969" lon="6.31058">
        <ele>740</ele>
        <time>2023-01-06T14:12:40Z</time>
      </trkpt>
      <trkpt lat="43.60969" lon="6.31057">
        <ele>740</ele>
        <time>2023-01-06T14:12:41Z</time>
      </trkpt>
      <trkpt lat="43.60969" lon="6.31055">
        <ele>740</ele>
        <time>2023-01-06T14:12:42Z</time>
      </trkpt>
      <trkpt lat="43.60969" lon="6.31054">
        <ele>740</ele>
        <time>2023-01-06T14:12:43Z</time>
      </trkpt>
      <trkpt lat="43.60969" lon="6.31052">
        <ele>740</ele>
        <time>2023-01-06T14:12:44Z</time>
      </trkpt>
      <trkpt lat="43.60969" lon="6.31051">
        <ele>740</ele>
        <time>2023-01-06T14:12:45Z</time>
      </trkpt>
      <trkpt lat="43.60969" lon="6.31049">
        <ele>740</ele>
        <time>2023-01-06T14:12:46Z</time>
      </trkpt>
      <trkpt lat="43.6097" lon="6.31047">
        <ele>740</ele>
        <time>2023-01-06T14:12:47Z</time>
      </trkpt>
      <trkpt lat="43.6097" lon="6.31046">
        <ele>740</ele>
        <time>2023-01-06T14:12:48Z</time>
      </trkpt>
      <trkpt lat="43.6097" lon="6.31045">
        <ele>739</ele>
        <time>2023-01-06T14:12:49Z</time>
      </trkpt>
      <trkpt lat="43.6097" lon="6.31044">
        <ele>739</ele>
        <time>2023-01-06T14:12:50Z</time>
      </trkpt>
      <trkpt lat="43.6097" lon="6.31042">
        <ele>739</ele>
        <time>2023-01-06T14:12:51Z</time>
      </trkpt>
      <trkpt lat="43.60969" lon="6.31041">
        <ele>739</ele>
        <time>2023-01-06T14:12:52Z</time>
      </trkpt>
      <trkpt lat="43.60969" lon="6.3104">
        <ele>739</ele>
        <time>2023-01-06T14:12:53Z</time>
      </trkpt>
      <trkpt lat="43.60968" lon="6.31039">
        <ele>739</ele>
        <time>2023-01-06T14:12:54Z</time>
      </trkpt>
      <trkpt lat="43.60968" lon="6.31038">
        <ele>739</ele>
        <time>2023-01-06T14:12:55Z</time>
      </trkpt>
      <trkpt lat="43.60969" lon="6.31038">
        <ele>739</ele>
        <time>2023-01-06T14:12:56Z</time>
      </trkpt>
      <trkpt lat="43.60969" lon="6.31038">
        <ele>739</ele>
        <time>2023-01-06T14:12:57Z</time>
      </trkpt>
      <trkpt lat="43.60969" lon="6.31039">
        <ele>739</ele>
        <time>2023-01-06T14:12:58Z</time>
      </trkpt>
      <trkpt lat="43.60969" lon="6.31039">
        <ele>738</ele>
        <time>2023-01-06T14:12:59Z</time>
      </trkpt>
      <trkpt lat="43.6097" lon="6.31039">
        <ele>738</ele>
        <time>2023-01-06T14:13:00Z</time>
      </trkpt>
      <trkpt lat="43.6097" lon="6.31039">
        <ele>738</ele>
        <time>2023-01-06T14:13:01Z</time>
      </trkpt>
      <trkpt lat="43.6097" lon="6.31039">
        <ele>738</ele>
        <time>2023-01-06T14:13:02Z</time>
      </trkpt>
      <trkpt lat="43.6097" lon="6.31039">
        <ele>738</ele>
        <time>2023-01-06T14:13:03Z</time>
      </trkpt>
      <trkpt lat="43.6097" lon="6.31039">
        <ele>738</ele>
        <time>2023-01-06T14:13:04Z</time>
      </trkpt>
      <trkpt lat="43.6097" lon="6.31039">
        <ele>738</ele>
        <time>2023-01-06T14:13:05Z</time>
      </trkpt>
      <trkpt lat="43.6097" lon="6.31039">
        <ele>738</ele>
        <time>2023-01-06T14:13:06Z</time>
      </trkpt>
      <trkpt lat="43.6097" lon="6.31039">
        <ele>738</ele>
        <time>2023-01-06T14:13:07Z</time>
      </trkpt>
      <trkpt lat="43.6097" lon="6.31039">
        <ele>738</ele>
        <time>2023-01-06T14:13:08Z</time>
      </trkpt>
      <trkpt lat="43.6097" lon="6.31039">
        <ele>738</ele>
        <time>2023-01-06T14:13:09Z</time>
      </trkpt>
      <trkpt lat="43.6097" lon="6.31039">
        <ele>738</ele>
        <time>2023-01-06T14:13:10Z</time>
      </trkpt>
      <trkpt lat="43.6097" lon="6.31039">
        <ele>738</ele>
        <time>2023-01-06T14:13:11Z</time>
      </trkpt>
      <trkpt lat="43.6097" lon="6.31039">
        <ele>738</ele>
        <time>2023-01-06T14:13:12Z</time>
      </trkpt>
      <trkpt lat="43.6097" lon="6.31039">
        <ele>738</ele>
        <time>2023-01-06T14:13:13Z</time>
      </trkpt>
      <trkpt lat="43.6097" lon="6.31039">
        <ele>738</ele>
        <time>2023-01-06T14:13:14Z</time>
      </trkpt>
      <trkpt lat="43.6097" lon="6.31039">
        <ele>738</ele>
        <time>2023-01-06T14:13:15Z</time>
      </trkpt>
      <trkpt lat="43.6097" lon="6.31039">
        <ele>738</ele>
        <time>2023-01-06T14:13:16Z</time>
      </trkpt>
      <trkpt lat="43.6097" lon="6.31039">
        <ele>738</ele>
        <time>2023-01-06T14:13:17Z</time>
      </trkpt>
      <trkpt lat="43.6097" lon="6.31039">
        <ele>738</ele>
        <time>2023-01-06T14:13:18Z</time>
      </trkpt>
      <trkpt lat="43.60971" lon="6.31041">
        <ele>738</ele>
        <time>2023-01-06T14:13:19Z</time>
      </trkpt>
      <trkpt lat="43.60971" lon="6.31041">
        <ele>738</ele>
        <time>2023-01-06T14:13:20Z</time>
      </trkpt>
      <trkpt lat="43.60971" lon="6.31042">
        <ele>738</ele>
        <time>2023-01-06T14:13:21Z</time>
      </trkpt>
      <trkpt lat="43.60971" lon="6.31042">
        <ele>738</ele>
        <time>2023-01-06T14:13:22Z</time>
      </trkpt>
      <trkpt lat="43.60971" lon="6.31042">
        <ele>738</ele>
        <time>2023-01-06T14:13:23Z</time>
      </trkpt>
      <trkpt lat="43.60971" lon="6.31042">
        <ele>738</ele>
        <time>2023-01-06T14:13:24Z</time>
      </trkpt>
      <trkpt lat="43.60971" lon="6.31042">
        <ele>738</ele>
        <time>2023-01-06T14:13:25Z</time>
      </trkpt>
      <trkpt lat="43.60971" lon="6.31042">
        <ele>738</ele>
        <time>2023-01-06T14:13:26Z</time>
      </trkpt>
      <trkpt lat="43.60971" lon="6.31042">
        <ele>738</ele>
        <time>2023-01-06T14:13:27Z</time>
      </trkpt>
      <trkpt lat="43.60971" lon="6.31042">
        <ele>738</ele>
        <time>2023-01-06T14:13:28Z</time>
      </trkpt>
      <trkpt lat="43.60971" lon="6.31042">
        <ele>738</ele>
        <time>2023-01-06T14:13:29Z</time>
      </trkpt>
      <trkpt lat="43.60971" lon="6.31042">
        <ele>738</ele>
        <time>2023-01-06T14:13:30Z</time>
      </trkpt>
      <trkpt lat="43.60971" lon="6.31042">
        <ele>738</ele>
        <time>2023-01-06T14:13:31Z</time>
      </trkpt>
      <trkpt lat="43.60971" lon="6.31042">
        <ele>738</ele>
        <time>2023-01-06T14:13:32Z</time>
      </trkpt>
      <trkpt lat="43.60971" lon="6.31042">
        <ele>738</ele>
        <time>2023-01-06T14:13:33Z</time>
      </trkpt>
      <trkpt lat="43.60971" lon="6.31042">
        <ele>738</ele>
        <time>2023-01-06T14:13:34Z</time>
      </trkpt>
      <trkpt lat="43.60971" lon="6.31042">
        <ele>738</ele>
        <time>2023-01-06T14:13:35Z</time>
      </trkpt>
      <trkpt lat="43.60971" lon="6.31042">
        <ele>738</ele>
        <time>2023-01-06T14:13:36Z</time>
      </trkpt>
      <trkpt lat="43.60971" lon="6.31042">
        <ele>738</ele>
        <time>2023-01-06T14:13:37Z</time>
      </trkpt>
      <trkpt lat="43.60971" lon="6.31042">
        <ele>738</ele>
        <time>2023-01-06T14:13:38Z</time>
      </trkpt>
      <trkpt lat="43.60971" lon="6.31042">
        <ele>738</ele>
        <time>2023-01-06T14:13:39Z</time>
      </trkpt>
      <trkpt lat="43.60971" lon="6.31042">
        <ele>738</ele>
        <time>2023-01-06T14:13:40Z</time>
      </trkpt>
      <trkpt lat="43.60971" lon="6.31042">
        <ele>738</ele>
        <time>2023-01-06T14:13:41Z</time>
      </trkpt>
      <trkpt lat="43.60971" lon="6.31042">
        <ele>738</ele>
        <time>2023-01-06T14:13:42Z</time>
      </trkpt>
      <trkpt lat="43.60971" lon="6.31042">
        <ele>738</ele>
        <time>2023-01-06T14:13:43Z</time>
      </trkpt>
      <trkpt lat="43.60971" lon="6.31042">
        <ele>738</ele>
        <time>2023-01-06T14:13:44Z</time>
      </trkpt>
      <trkpt lat="43.60971" lon="6.31042">
        <ele>738</ele>
        <time>2023-01-06T14:13:45Z</time>
      </trkpt>
      <trkpt lat="43.60971" lon="6.31042">
        <ele>738</ele>
        <time>2023-01-06T14:13:46Z</time>
      </trkpt>
      <trkpt lat="43.60971" lon="6.31042">
        <ele>738</ele>
        <time>2023-01-06T14:13:47Z</time>
      </trkpt>
      <trkpt lat="43.60971" lon="6.31042">
        <ele>738</ele>
        <time>2023-01-06T14:13:48Z</time>
      </trkpt>
      <trkpt lat="43.60971" lon="6.31042">
        <ele>738</ele>
        <time>2023-01-06T14:13:49Z</time>
      </trkpt>
      <trkpt lat="43.60971" lon="6.31042">
        <ele>738</ele>
        <time>2023-01-06T14:13:50Z</time>
      </trkpt>
      <trkpt lat="43.60971" lon="6.31042">
        <ele>738</ele>
        <time>2023-01-06T14:13:51Z</time>
      </trkpt>
      <trkpt lat="43.60971" lon="6.31042">
        <ele>738</ele>
        <time>2023-01-06T14:13:52Z</time>
      </trkpt>
      <trkpt lat="43.60971" lon="6.31042">
        <ele>738</ele>
        <time>2023-01-06T14:13:53Z</time>
      </trkpt>
      <trkpt lat="43.60971" lon="6.31042">
        <ele>738</ele>
        <time>2023-01-06T14:13:54Z</time>
      </trkpt>
      <trkpt lat="43.60971" lon="6.31042">
        <ele>738</ele>
        <time>2023-01-06T14:13:55Z</time>
      </trkpt>
      <trkpt lat="43.60971" lon="6.31042">
        <ele>738</ele>
        <time>2023-01-06T14:13:56Z</time>
      </trkpt>
      <trkpt lat="43.60971" lon="6.31042">
        <ele>738</ele>
        <time>2023-01-06T14:13:57Z</time>
      </trkpt>
      <trkpt lat="43.60971" lon="6.31042">
        <ele>738</ele>
        <time>2023-01-06T14:13:58Z</time>
      </trkpt>
      <trkpt lat="43.60971" lon="6.31042">
        <ele>738</ele>
        <time>2023-01-06T14:13:59Z</time>
      </trkpt>
      <trkpt lat="43.60971" lon="6.31042">
        <ele>738</ele>
        <time>2023-01-06T14:14:00Z</time>
      </trkpt>
      <trkpt lat="43.60971" lon="6.31042">
        <ele>738</ele>
        <time>2023-01-06T14:14:01Z</time>
      </trkpt>
      <trkpt lat="43.60971" lon="6.31042">
        <ele>738</ele>
        <time>2023-01-06T14:14:02Z</time>
      </trkpt>
      <trkpt lat="43.60971" lon="6.31042">
        <ele>738</ele>
        <time>2023-01-06T14:14:03Z</time>
      </trkpt>
      <trkpt lat="43.60971" lon="6.31042">
        <ele>738</ele>
        <time>2023-01-06T14:14:04Z</time>
      </trkpt>
      <trkpt lat="43.60971" lon="6.31042">
        <ele>738</ele>
        <time>2023-01-06T14:14:05Z</time>
      </trkpt>
      <trkpt lat="43.60971" lon="6.31042">
        <ele>738</ele>
        <time>2023-01-06T14:14:06Z</time>
      </trkpt>
      <trkpt lat="43.60971" lon="6.31042">
        <ele>738</ele>
        <time>2023-01-06T14:14:07Z</time>
      </trkpt>
      <trkpt lat="43.60971" lon="6.31042">
        <ele>738</ele>
        <time>2023-01-06T14:14:08Z</time>
      </trkpt>
      <trkpt lat="43.60971" lon="6.31042">
        <ele>738</ele>
        <time>2023-01-06T14:14:09Z</time>
      </trkpt>
      <trkpt lat="43.60971" lon="6.31042">
        <ele>738</ele>
        <time>2023-01-06T14:14:10Z</time>
      </trkpt>
      <trkpt lat="43.60971" lon="6.31042">
        <ele>738</ele>
        <time>2023-01-06T14:14:11Z</time>
      </trkpt>
      <trkpt lat="43.60971" lon="6.31042">
        <ele>738</ele>
        <time>2023-01-06T14:14:12Z</time>
      </trkpt>
      <trkpt lat="43.60971" lon="6.31042">
        <ele>738</ele>
        <time>2023-01-06T14:14:13Z</time>
      </trkpt>
      <trkpt lat="43.60971" lon="6.31042">
        <ele>738</ele>
        <time>2023-01-06T14:14:14Z</time>
      </trkpt>
      <trkpt lat="43.60971" lon="6.31042">
        <ele>738</ele>
        <time>2023-01-06T14:14:15Z</time>
      </trkpt>
      <trkpt lat="43.60971" lon="6.31042">
        <ele>738</ele>
        <time>2023-01-06T14:14:16Z</time>
      </trkpt>
      <trkpt lat="43.60971" lon="6.31042">
        <ele>738</ele>
        <time>2023-01-06T14:14:17Z</time>
      </trkpt>
      <trkpt lat="43.60971" lon="6.31042">
        <ele>738</ele>
        <time>2023-01-06T14:14:18Z</time>
      </trkpt>
      <trkpt lat="43.60971" lon="6.31042">
        <ele>738</ele>
        <time>2023-01-06T14:14:19Z</time>
      </trkpt>
      <trkpt lat="43.60971" lon="6.31042">
        <ele>738</ele>
        <time>2023-01-06T14:14:20Z</time>
      </trkpt>
      <trkpt lat="43.60971" lon="6.31042">
        <ele>738</ele>
        <time>2023-01-06T14:14:21Z</time>
      </trkpt>
      <trkpt lat="43.60971" lon="6.31042">
        <ele>738</ele>
        <time>2023-01-06T14:14:22Z</time>
      </trkpt>
      <trkpt lat="43.60971" lon="6.31042">
        <ele>738</ele>
        <time>2023-01-06T14:14:23Z</time>
      </trkpt>
      <trkpt lat="43.60971" lon="6.31042">
        <ele>738</ele>
        <time>2023-01-06T14:14:24Z</time>
      </trkpt>
      <trkpt lat="43.60971" lon="6.31042">
        <ele>738</ele>
        <time>2023-01-06T14:14:25Z</time>
      </trkpt>
      <trkpt lat="43.60971" lon="6.31042">
        <ele>738</ele>
        <time>2023-01-06T14:14:26Z</time>
      </trkpt>
      <trkpt lat="43.60971" lon="6.31042">
        <ele>738</ele>
        <time>2023-01-06T14:14:27Z</time>
      </trkpt>
      <trkpt lat="43.60971" lon="6.31042">
        <ele>738</ele>
        <time>2023-01-06T14:14:28Z</time>
      </trkpt>
      <trkpt lat="43.60971" lon="6.31042">
        <ele>738</ele>
        <time>2023-01-06T14:14:29Z</time>
      </trkpt>
      <trkpt lat="43.60971" lon="6.31042">
        <ele>738</ele>
        <time>2023-01-06T14:14:30Z</time>
      </trkpt>
      <trkpt lat="43.60971" lon="6.31042">
        <ele>738</ele>
        <time>2023-01-06T14:14:31Z</time>
      </trkpt>
      <trkpt lat="43.60971" lon="6.31042">
        <ele>738</ele>
        <time>2023-01-06T14:14:32Z</time>
      </trkpt>
      <trkpt lat="43.60971" lon="6.31042">
        <ele>738</ele>
        <time>2023-01-06T14:14:33Z</time>
      </trkpt>
      <trkpt lat="43.60971" lon="6.31042">
        <ele>738</ele>
        <time>2023-01-06T14:14:34Z</time>
      </trkpt>
      <trkpt lat="43.60971" lon="6.31042">
        <ele>738</ele>
        <time>2023-01-06T14:14:35Z</time>
      </trkpt>
      <trkpt lat="43.60971" lon="6.31042">
        <ele>738</ele>
        <time>2023-01-06T14:14:36Z</time>
      </trkpt>
      <trkpt lat="43.60971" lon="6.31042">
        <ele>738</ele>
        <time>2023-01-06T14:14:37Z</time>
      </trkpt>
      <trkpt lat="43.60971" lon="6.31042">
        <ele>738</ele>
        <time>2023-01-06T14:14:38Z</time>
      </trkpt>
      <trkpt lat="43.60971" lon="6.31042">
        <ele>738</ele>
        <time>2023-01-06T14:14:39Z</time>
      </trkpt>
      <trkpt lat="43.60971" lon="6.31042">
        <ele>738</ele>
        <time>2023-01-06T14:14:40Z</time>
      </trkpt>
      <trkpt lat="43.60971" lon="6.31042">
        <ele>738</ele>
        <time>2023-01-06T14:14:41Z</time>
      </trkpt>
      <trkpt lat="43.60971" lon="6.31042">
        <ele>738</ele>
        <time>2023-01-06T14:14:42Z</time>
      </trkpt>
      <trkpt lat="43.60971" lon="6.31042">
        <ele>738</ele>
        <time>2023-01-06T14:14:43Z</time>
      </trkpt>
      <trkpt lat="43.60971" lon="6.31042">
        <ele>738</ele>
        <time>2023-01-06T14:14:44Z</time>
      </trkpt>
      <trkpt lat="43.60971" lon="6.31042">
        <ele>738</ele>
        <time>2023-01-06T14:14:45Z</time>
      </trkpt>
      <trkpt lat="43.60971" lon="6.31042">
        <ele>738</ele>
        <time>2023-01-06T14:14:46Z</time>
      </trkpt>
      <trkpt lat="43.60971" lon="6.31042">
        <ele>738</ele>
        <time>2023-01-06T14:14:47Z</time>
      </trkpt>
      <trkpt lat="43.60971" lon="6.31042">
        <ele>738</ele>
        <time>2023-01-06T14:14:48Z</time>
      </trkpt>
      <trkpt lat="43.60971" lon="6.31042">
        <ele>738</ele>
        <time>2023-01-06T14:14:49Z</time>
      </trkpt>
      <trkpt lat="43.60971" lon="6.31042">
        <ele>738</ele>
        <time>2023-01-06T14:14:50Z</time>
      </trkpt>
      <trkpt lat="43.60971" lon="6.31042">
        <ele>738</ele>
        <time>2023-01-06T14:14:51Z</time>
      </trkpt>
      <trkpt lat="43.60971" lon="6.31042">
        <ele>738</ele>
        <time>2023-01-06T14:14:52Z</time>
      </trkpt>
      <trkpt lat="43.60971" lon="6.31042">
        <ele>738</ele>
        <time>2023-01-06T14:14:53Z</time>
      </trkpt>
      <trkpt lat="43.60971" lon="6.31042">
        <ele>738</ele>
        <time>2023-01-06T14:14:54Z</time>
      </trkpt>
      <trkpt lat="43.60971" lon="6.31042">
        <ele>738</ele>
        <time>2023-01-06T14:14:55Z</time>
      </trkpt>
      <trkpt lat="43.60971" lon="6.31042">
        <ele>738</ele>
        <time>2023-01-06T14:14:56Z</time>
      </trkpt>
      <trkpt lat="43.60971" lon="6.31042">
        <ele>738</ele>
        <time>2023-01-06T14:14:57Z</time>
      </trkpt>
      <trkpt lat="43.60971" lon="6.31042">
        <ele>738</ele>
        <time>2023-01-06T14:14:58Z</time>
      </trkpt>
      <trkpt lat="43.60971" lon="6.31042">
        <ele>738</ele>
        <time>2023-01-06T14:14:59Z</time>
      </trkpt>
      <trkpt lat="43.60971" lon="6.31042">
        <ele>738</ele>
        <time>2023-01-06T14:15:00Z</time>
      </trkpt>
      <trkpt lat="43.60971" lon="6.31042">
        <ele>738</ele>
        <time>2023-01-06T14:15:01Z</time>
      </trkpt>
      <trkpt lat="43.60971" lon="6.31042">
        <ele>738</ele>
        <time>2023-01-06T14:15:02Z</time>
      </trkpt>
      <trkpt lat="43.60971" lon="6.31042">
        <ele>738</ele>
        <time>2023-01-06T14:15:03Z</time>
      </trkpt>
      <trkpt lat="43.60971" lon="6.31042">
        <ele>738</ele>
        <time>2023-01-06T14:15:04Z</time>
      </trkpt>
      <trkpt lat="43.60971" lon="6.31042">
        <ele>738</ele>
        <time>2023-01-06T14:15:05Z</time>
      </trkpt>
      <trkpt lat="43.60971" lon="6.31042">
        <ele>738</ele>
        <time>2023-01-06T14:15:06Z</time>
      </trkpt>
      <trkpt lat="43.60971" lon="6.31042">
        <ele>738</ele>
        <time>2023-01-06T14:15:07Z</time>
      </trkpt>
      <trkpt lat="43.60971" lon="6.31042">
        <ele>738</ele>
        <time>2023-01-06T14:15:08Z</time>
      </trkpt>
      <trkpt lat="43.60971" lon="6.31042">
        <ele>738</ele>
        <time>2023-01-06T14:15:09Z</time>
      </trkpt>
      <trkpt lat="43.60971" lon="6.31042">
        <ele>738</ele>
        <time>2023-01-06T14:15:10Z</time>
      </trkpt>
      <trkpt lat="43.60971" lon="6.31042">
        <ele>738</ele>
        <time>2023-01-06T14:15:11Z</time>
      </trkpt>
      <trkpt lat="43.60971" lon="6.31042">
        <ele>738</ele>
        <time>2023-01-06T14:15:12Z</time>
      </trkpt>
      <trkpt lat="43.60971" lon="6.31042">
        <ele>738</ele>
        <time>2023-01-06T14:15:13Z</time>
      </trkpt>
      <trkpt lat="43.60971" lon="6.31042">
        <ele>738</ele>
        <time>2023-01-06T14:15:14Z</time>
      </trkpt>
      <trkpt lat="43.60971" lon="6.31042">
        <ele>738</ele>
        <time>2023-01-06T14:15:15Z</time>
      </trkpt>
      <trkpt lat="43.60971" lon="6.31042">
        <ele>738</ele>
        <time>2023-01-06T14:15:16Z</time>
      </trkpt>
      <trkpt lat="43.60971" lon="6.31042">
        <ele>738</ele>
        <time>2023-01-06T14:15:17Z</time>
      </trkpt>
      <trkpt lat="43.60971" lon="6.31042">
        <ele>738</ele>
        <time>2023-01-06T14:15:18Z</time>
      </trkpt>
      <trkpt lat="43.60971" lon="6.31042">
        <ele>738</ele>
        <time>2023-01-06T14:15:19Z</time>
      </trkpt>
      <trkpt lat="43.60971" lon="6.31042">
        <ele>738</ele>
        <time>2023-01-06T14:15:20Z</time>
      </trkpt>
      <trkpt lat="43.60971" lon="6.31042">
        <ele>738</ele>
        <time>2023-01-06T14:15:21Z</time>
      </trkpt>
      <trkpt lat="43.60971" lon="6.31042">
        <ele>738</ele>
        <time>2023-01-06T14:15:22Z</time>
      </trkpt>
      <trkpt lat="43.60971" lon="6.31042">
        <ele>738</ele>
        <time>2023-01-06T14:15:23Z</time>
      </trkpt>
      <trkpt lat="43.60971" lon="6.31042">
        <ele>738</ele>
        <time>2023-01-06T14:15:24Z</time>
      </trkpt>
      <trkpt lat="43.60971" lon="6.31042">
        <ele>738</ele>
        <time>2023-01-06T14:15:25Z</time>
      </trkpt>
      <trkpt lat="43.60971" lon="6.31042">
        <ele>738</ele>
        <time>2023-01-06T14:15:26Z</time>
      </trkpt>
      <trkpt lat="43.60971" lon="6.31042">
        <ele>738</ele>
        <time>2023-01-06T14:15:27Z</time>
      </trkpt>
      <trkpt lat="43.60971" lon="6.31042">
        <ele>738</ele>
        <time>2023-01-06T14:15:28Z</time>
      </trkpt>
      <trkpt lat="43.60971" lon="6.31042">
        <ele>738</ele>
        <time>2023-01-06T14:15:29Z</time>
      </trkpt>
      <trkpt lat="43.60971" lon="6.31042">
        <ele>738</ele>
        <time>2023-01-06T14:15:30Z</time>
      </trkpt>
      <trkpt lat="43.60971" lon="6.31042">
        <ele>738</ele>
        <time>2023-01-06T14:15:31Z</time>
      </trkpt>
      <trkpt lat="43.60971" lon="6.31042">
        <ele>738</ele>
        <time>2023-01-06T14:15:32Z</time>
      </trkpt>
      <trkpt lat="43.60971" lon="6.31042">
        <ele>738</ele>
        <time>2023-01-06T14:15:33Z</time>
      </trkpt>
      <trkpt lat="43.60971" lon="6.31042">
        <ele>738</ele>
        <time>2023-01-06T14:15:34Z</time>
      </trkpt>
      <trkpt lat="43.60971" lon="6.31042">
        <ele>738</ele>
        <time>2023-01-06T14:15:35Z</time>
      </trkpt>
      <trkpt lat="43.60971" lon="6.31042">
        <ele>738</ele>
        <time>2023-01-06T14:15:36Z</time>
      </trkpt>
      <trkpt lat="43.60971" lon="6.31042">
        <ele>738</ele>
        <time>2023-01-06T14:15:37Z</time>
      </trkpt>
      <trkpt lat="43.60971" lon="6.31042">
        <ele>738</ele>
        <time>2023-01-06T14:15:38Z</time>
      </trkpt>
      <trkpt lat="43.60971" lon="6.31042">
        <ele>738</ele>
        <time>2023-01-06T14:15:39Z</time>
      </trkpt>
      <trkpt lat="43.60971" lon="6.31042">
        <ele>738</ele>
        <time>2023-01-06T14:15:40Z</time>
      </trkpt>
      <trkpt lat="43.60971" lon="6.31042">
        <ele>738</ele>
        <time>2023-01-06T14:15:41Z</time>
      </trkpt>
      <trkpt lat="43.60971" lon="6.31042">
        <ele>738</ele>
        <time>2023-01-06T14:15:42Z</time>
      </trkpt>
      <trkpt lat="43.60971" lon="6.31042">
        <ele>738</ele>
        <time>2023-01-06T14:15:43Z</time>
      </trkpt>
      <trkpt lat="43.60971" lon="6.31042">
        <ele>738</ele>
        <time>2023-01-06T14:15:44Z</time>
      </trkpt>
      <trkpt lat="43.60971" lon="6.31041">
        <ele>738</ele>
        <time>2023-01-06T14:15:45Z</time>
      </trkpt>
      <trkpt lat="43.6097" lon="6.3104">
        <ele>738</ele>
        <time>2023-01-06T14:15:46Z</time>
      </trkpt>
      <trkpt lat="43.6097" lon="6.3104">
        <ele>738</ele>
        <time>2023-01-06T14:15:47Z</time>
      </trkpt>
      <trkpt lat="43.60969" lon="6.31038">
        <ele>738</ele>
        <time>2023-01-06T14:15:48Z</time>
      </trkpt>
      <trkpt lat="43.60969" lon="6.31038">
        <ele>738</ele>
        <time>2023-01-06T14:15:49Z</time>
      </trkpt>
      <trkpt lat="43.60968" lon="6.31036">
        <ele>738</ele>
        <time>2023-01-06T14:15:50Z</time>
      </trkpt>
      <trkpt lat="43.60968" lon="6.31035">
        <ele>738</ele>
        <time>2023-01-06T14:15:51Z</time>
      </trkpt>
      <trkpt lat="43.60967" lon="6.31034">
        <ele>739</ele>
        <time>2023-01-06T14:15:52Z</time>
      </trkpt>
      <trkpt lat="43.60967" lon="6.31033">
        <ele>739</ele>
        <time>2023-01-06T14:15:53Z</time>
      </trkpt>
      <trkpt lat="43.60966" lon="6.31032">
        <ele>739</ele>
        <time>2023-01-06T14:15:54Z</time>
      </trkpt>
      <trkpt lat="43.60966" lon="6.31032">
        <ele>739</ele>
        <time>2023-01-06T14:15:55Z</time>
      </trkpt>
      <trkpt lat="43.60966" lon="6.31031">
        <ele>739</ele>
        <time>2023-01-06T14:15:56Z</time>
      </trkpt>
      <trkpt lat="43.60966" lon="6.31031">
        <ele>739</ele>
        <time>2023-01-06T14:15:57Z</time>
      </trkpt>
      <trkpt lat="43.60965" lon="6.31031">
        <ele>739</ele>
        <time>2023-01-06T14:15:58Z</time>
      </trkpt>
      <trkpt lat="43.60965" lon="6.3103">
        <ele>739</ele>
        <time>2023-01-06T14:15:59Z</time>
      </trkpt>
      <trkpt lat="43.60965" lon="6.31029">
        <ele>739</ele>
        <time>2023-01-06T14:16:00Z</time>
      </trkpt>
      <trkpt lat="43.60964" lon="6.31028">
        <ele>739</ele>
        <time>2023-01-06T14:16:01Z</time>
      </trkpt>
      <trkpt lat="43.60963" lon="6.31027">
        <ele>739</ele>
        <time>2023-01-06T14:16:02Z</time>
      </trkpt>
      <trkpt lat="43.60962" lon="6.31026">
        <ele>739</ele>
        <time>2023-01-06T14:16:03Z</time>
      </trkpt>
      <trkpt lat="43.60961" lon="6.31025">
        <ele>739</ele>
        <time>2023-01-06T14:16:04Z</time>
      </trkpt>
      <trkpt lat="43.6096" lon="6.31024">
        <ele>739</ele>
        <time>2023-01-06T14:16:05Z</time>
      </trkpt>
      <trkpt lat="43.60959" lon="6.31022">
        <ele>739</ele>
        <time>2023-01-06T14:16:06Z</time>
      </trkpt>
      <trkpt lat="43.60958" lon="6.31022">
        <ele>738</ele>
        <time>2023-01-06T14:16:07Z</time>
      </trkpt>
      <trkpt lat="43.60958" lon="6.31021">
        <ele>738</ele>
        <time>2023-01-06T14:16:08Z</time>
      </trkpt>
      <trkpt lat="43.60957" lon="6.3102">
        <ele>738</ele>
        <time>2023-01-06T14:16:09Z</time>
      </trkpt>
      <trkpt lat="43.60956" lon="6.3102">
        <ele>738</ele>
        <time>2023-01-06T14:16:10Z</time>
      </trkpt>
      <trkpt lat="43.60955" lon="6.31019">
        <ele>738</ele>
        <time>2023-01-06T14:16:11Z</time>
      </trkpt>
      <trkpt lat="43.60953" lon="6.31018">
        <ele>737</ele>
        <time>2023-01-06T14:16:12Z</time>
      </trkpt>
      <trkpt lat="43.60952" lon="6.31017">
        <ele>737</ele>
        <time>2023-01-06T14:16:13Z</time>
      </trkpt>
      <trkpt lat="43.60951" lon="6.31016">
        <ele>737</ele>
        <time>2023-01-06T14:16:14Z</time>
      </trkpt>
      <trkpt lat="43.60949" lon="6.31016">
        <ele>737</ele>
        <time>2023-01-06T14:16:15Z</time>
      </trkpt>
      <trkpt lat="43.60948" lon="6.31016">
        <ele>737</ele>
        <time>2023-01-06T14:16:16Z</time>
      </trkpt>
      <trkpt lat="43.60947" lon="6.31015">
        <ele>737</ele>
        <time>2023-01-06T14:16:17Z</time>
      </trkpt>
      <trkpt lat="43.60946" lon="6.31015">
        <ele>737</ele>
        <time>2023-01-06T14:16:18Z</time>
      </trkpt>
      <trkpt lat="43.60945" lon="6.31015">
        <ele>737</ele>
        <time>2023-01-06T14:16:19Z</time>
      </trkpt>
      <trkpt lat="43.60944" lon="6.31016">
        <ele>737</ele>
        <time>2023-01-06T14:16:20Z</time>
      </trkpt>
      <trkpt lat="43.60943" lon="6.31016">
        <ele>737</ele>
        <time>2023-01-06T14:16:21Z</time>
      </trkpt>
      <trkpt lat="43.60942" lon="6.31016">
        <ele>737</ele>
        <time>2023-01-06T14:16:22Z</time>
      </trkpt>
      <trkpt lat="43.60941" lon="6.31016">
        <ele>737</ele>
        <time>2023-01-06T14:16:23Z</time>
      </trkpt>
      <trkpt lat="43.60941" lon="6.31017">
        <ele>737</ele>
        <time>2023-01-06T14:16:24Z</time>
      </trkpt>
      <trkpt lat="43.6094" lon="6.31017">
        <ele>736</ele>
        <time>2023-01-06T14:16:25Z</time>
      </trkpt>
      <trkpt lat="43.6094" lon="6.31017">
        <ele>736</ele>
        <time>2023-01-06T14:16:26Z</time>
      </trkpt>
      <trkpt lat="43.6094" lon="6.31017">
        <ele>736</ele>
        <time>2023-01-06T14:16:27Z</time>
      </trkpt>
      <trkpt lat="43.6094" lon="6.31017">
        <ele>736</ele>
        <time>2023-01-06T14:16:28Z</time>
      </trkpt>
      <trkpt lat="43.60939" lon="6.31017">
        <ele>736</ele>
        <time>2023-01-06T14:16:29Z</time>
      </trkpt>
      <trkpt lat="43.60939" lon="6.31017">
        <ele>736</ele>
        <time>2023-01-06T14:16:30Z</time>
      </trkpt>
      <trkpt lat="43.60938" lon="6.31018">
        <ele>736</ele>
        <time>2023-01-06T14:16:31Z</time>
      </trkpt>
      <trkpt lat="43.60937" lon="6.31018">
        <ele>736</ele>
        <time>2023-01-06T14:16:32Z</time>
      </trkpt>
      <trkpt lat="43.60936" lon="6.31018">
        <ele>736</ele>
        <time>2023-01-06T14:16:33Z</time>
      </trkpt>
      <trkpt lat="43.60936" lon="6.31018">
        <ele>736</ele>
        <time>2023-01-06T14:16:34Z</time>
      </trkpt>
      <trkpt lat="43.60935" lon="6.31018">
        <ele>736</ele>
        <time>2023-01-06T14:16:35Z</time>
      </trkpt>
      <trkpt lat="43.60935" lon="6.31019">
        <ele>736</ele>
        <time>2023-01-06T14:16:36Z</time>
      </trkpt>
      <trkpt lat="43.60935" lon="6.31019">
        <ele>736</ele>
        <time>2023-01-06T14:16:37Z</time>
      </trkpt>
      <trkpt lat="43.60934" lon="6.31019">
        <ele>736</ele>
        <time>2023-01-06T14:16:38Z</time>
      </trkpt>
      <trkpt lat="43.60934" lon="6.31019">
        <ele>736</ele>
        <time>2023-01-06T14:16:39Z</time>
      </trkpt>
      <trkpt lat="43.60934" lon="6.31019">
        <ele>736</ele>
        <time>2023-01-06T14:16:40Z</time>
      </trkpt>
      <trkpt lat="43.60934" lon="6.31019">
        <ele>736</ele>
        <time>2023-01-06T14:16:41Z</time>
      </trkpt>
      <trkpt lat="43.60933" lon="6.31019">
        <ele>736</ele>
        <time>2023-01-06T14:16:42Z</time>
      </trkpt>
      <trkpt lat="43.60932" lon="6.31019">
        <ele>736</ele>
        <time>2023-01-06T14:16:43Z</time>
      </trkpt>
      <trkpt lat="43.6093" lon="6.31019">
        <ele>736</ele>
        <time>2023-01-06T14:16:44Z</time>
      </trkpt>
      <trkpt lat="43.60928" lon="6.31018">
        <ele>736</ele>
        <time>2023-01-06T14:16:45Z</time>
      </trkpt>
      <trkpt lat="43.60927" lon="6.31018">
        <ele>735</ele>
        <time>2023-01-06T14:16:46Z</time>
      </trkpt>
      <trkpt lat="43.60926" lon="6.31018">
        <ele>735</ele>
        <time>2023-01-06T14:16:47Z</time>
      </trkpt>
      <trkpt lat="43.60926" lon="6.31018">
        <ele>735</ele>
        <time>2023-01-06T14:16:48Z</time>
      </trkpt>
      <trkpt lat="43.60926" lon="6.31018">
        <ele>735</ele>
        <time>2023-01-06T14:16:49Z</time>
      </trkpt>
      <trkpt lat="43.60925" lon="6.31018">
        <ele>735</ele>
        <time>2023-01-06T14:16:50Z</time>
      </trkpt>
      <trkpt lat="43.60925" lon="6.31018">
        <ele>735</ele>
        <time>2023-01-06T14:16:51Z</time>
      </trkpt>
      <trkpt lat="43.60925" lon="6.31018">
        <ele>735</ele>
        <time>2023-01-06T14:16:52Z</time>
      </trkpt>
      <trkpt lat="43.60924" lon="6.31018">
        <ele>735</ele>
        <time>2023-01-06T14:16:53Z</time>
      </trkpt>
      <trkpt lat="43.60923" lon="6.31018">
        <ele>735</ele>
        <time>2023-01-06T14:16:54Z</time>
      </trkpt>
      <trkpt lat="43.60923" lon="6.31018">
        <ele>735</ele>
        <time>2023-01-06T14:16:55Z</time>
      </trkpt>
      <trkpt lat="43.60922" lon="6.31018">
        <ele>735</ele>
        <time>2023-01-06T14:16:56Z</time>
      </trkpt>
      <trkpt lat="43.60922" lon="6.31018">
        <ele>735</ele>
        <time>2023-01-06T14:16:57Z</time>
      </trkpt>
      <trkpt lat="43.60922" lon="6.31018">
        <ele>735</ele>
        <time>2023-01-06T14:16:58Z</time>
      </trkpt>
      <trkpt lat="43.60921" lon="6.31018">
        <ele>735</ele>
        <time>2023-01-06T14:16:59Z</time>
      </trkpt>
      <trkpt lat="43.60921" lon="6.31018">
        <ele>735</ele>
        <time>2023-01-06T14:17:00Z</time>
      </trkpt>
      <trkpt lat="43.60921" lon="6.31018">
        <ele>734</ele>
        <time>2023-01-06T14:17:01Z</time>
      </trkpt>
      <trkpt lat="43.60921" lon="6.31018">
        <ele>734</ele>
        <time>2023-01-06T14:17:02Z</time>
      </trkpt>
      <trkpt lat="43.6092" lon="6.31018">
        <ele>734</ele>
        <time>2023-01-06T14:17:03Z</time>
      </trkpt>
      <trkpt lat="43.6092" lon="6.31018">
        <ele>734</ele>
        <time>2023-01-06T14:17:04Z</time>
      </trkpt>
      <trkpt lat="43.6092" lon="6.31018">
        <ele>734</ele>
        <time>2023-01-06T14:17:05Z</time>
      </trkpt>
      <trkpt lat="43.60919" lon="6.31018">
        <ele>734</ele>
        <time>2023-01-06T14:17:06Z</time>
      </trkpt>
      <trkpt lat="43.60919" lon="6.31018">
        <ele>734</ele>
        <time>2023-01-06T14:17:07Z</time>
      </trkpt>
      <trkpt lat="43.60918" lon="6.31017">
        <ele>734</ele>
        <time>2023-01-06T14:17:08Z</time>
      </trkpt>
      <trkpt lat="43.60918" lon="6.31017">
        <ele>735</ele>
        <time>2023-01-06T14:17:09Z</time>
      </trkpt>
      <trkpt lat="43.60917" lon="6.31016">
        <ele>735</ele>
        <time>2023-01-06T14:17:10Z</time>
      </trkpt>
      <trkpt lat="43.60916" lon="6.31015">
        <ele>735</ele>
        <time>2023-01-06T14:17:11Z</time>
      </trkpt>
      <trkpt lat="43.60915" lon="6.31014">
        <ele>735</ele>
        <time>2023-01-06T14:17:12Z</time>
      </trkpt>
      <trkpt lat="43.60914" lon="6.31013">
        <ele>735</ele>
        <time>2023-01-06T14:17:13Z</time>
      </trkpt>
      <trkpt lat="43.60913" lon="6.31012">
        <ele>735</ele>
        <time>2023-01-06T14:17:14Z</time>
      </trkpt>
      <trkpt lat="43.60912" lon="6.31011">
        <ele>735</ele>
        <time>2023-01-06T14:17:15Z</time>
      </trkpt>
      <trkpt lat="43.60912" lon="6.3101">
        <ele>735</ele>
        <time>2023-01-06T14:17:16Z</time>
      </trkpt>
      <trkpt lat="43.60911" lon="6.31009">
        <ele>735</ele>
        <time>2023-01-06T14:17:17Z</time>
      </trkpt>
      <trkpt lat="43.6091" lon="6.31007">
        <ele>738</ele>
        <time>2023-01-06T14:17:18Z</time>
      </trkpt>
      <trkpt lat="43.6091" lon="6.31006">
        <ele>738</ele>
        <time>2023-01-06T14:17:19Z</time>
      </trkpt>
      <trkpt lat="43.6091" lon="6.31006">
        <ele>739</ele>
        <time>2023-01-06T14:17:20Z</time>
      </trkpt>
      <trkpt lat="43.60909" lon="6.31005">
        <ele>739</ele>
        <time>2023-01-06T14:17:21Z</time>
      </trkpt>
      <trkpt lat="43.60909" lon="6.31005">
        <ele>739</ele>
        <time>2023-01-06T14:17:22Z</time>
      </trkpt>
      <trkpt lat="43.60909" lon="6.31004">
        <ele>739</ele>
        <time>2023-01-06T14:17:23Z</time>
      </trkpt>
      <trkpt lat="43.60909" lon="6.31004">
        <ele>739</ele>
        <time>2023-01-06T14:17:24Z</time>
      </trkpt>
      <trkpt lat="43.60908" lon="6.31002">
        <ele>739</ele>
        <time>2023-01-06T14:17:25Z</time>
      </trkpt>
      <trkpt lat="43.60907" lon="6.31">
        <ele>739</ele>
        <time>2023-01-06T14:17:26Z</time>
      </trkpt>
      <trkpt lat="43.60907" lon="6.30999">
        <ele>740</ele>
        <time>2023-01-06T14:17:27Z</time>
      </trkpt>
      <trkpt lat="43.60906" lon="6.30997">
        <ele>740</ele>
        <time>2023-01-06T14:17:28Z</time>
      </trkpt>
      <trkpt lat="43.60905" lon="6.30995">
        <ele>740</ele>
        <time>2023-01-06T14:17:29Z</time>
      </trkpt>
      <trkpt lat="43.60905" lon="6.30994">
        <ele>740</ele>
        <time>2023-01-06T14:17:30Z</time>
      </trkpt>
      <trkpt lat="43.60904" lon="6.30993">
        <ele>740</ele>
        <time>2023-01-06T14:17:31Z</time>
      </trkpt>
      <trkpt lat="43.60903" lon="6.30991">
        <ele>741</ele>
        <time>2023-01-06T14:17:32Z</time>
      </trkpt>
      <trkpt lat="43.60903" lon="6.3099">
        <ele>741</ele>
        <time>2023-01-06T14:17:33Z</time>
      </trkpt>
      <trkpt lat="43.60902" lon="6.30988">
        <ele>742</ele>
        <time>2023-01-06T14:17:34Z</time>
      </trkpt>
      <trkpt lat="43.60901" lon="6.30987">
        <ele>742</ele>
        <time>2023-01-06T14:17:35Z</time>
      </trkpt>
      <trkpt lat="43.609" lon="6.30985">
        <ele>743</ele>
        <time>2023-01-06T14:17:36Z</time>
      </trkpt>
      <trkpt lat="43.609" lon="6.30984">
        <ele>743</ele>
        <time>2023-01-06T14:17:37Z</time>
      </trkpt>
      <trkpt lat="43.60901" lon="6.30984">
        <ele>743</ele>
        <time>2023-01-06T14:17:38Z</time>
      </trkpt>
      <trkpt lat="43.60901" lon="6.30983">
        <ele>743</ele>
        <time>2023-01-06T14:17:39Z</time>
      </trkpt>
      <trkpt lat="43.60901" lon="6.30984">
        <ele>743</ele>
        <time>2023-01-06T14:17:40Z</time>
      </trkpt>
      <trkpt lat="43.60902" lon="6.30984">
        <ele>743</ele>
        <time>2023-01-06T14:17:41Z</time>
      </trkpt>
      <trkpt lat="43.60902" lon="6.30984">
        <ele>743</ele>
        <time>2023-01-06T14:17:42Z</time>
      </trkpt>
      <trkpt lat="43.60902" lon="6.30984">
        <ele>743</ele>
        <time>2023-01-06T14:17:43Z</time>
      </trkpt>
      <trkpt lat="43.60902" lon="6.30984">
        <ele>743</ele>
        <time>2023-01-06T14:17:44Z</time>
      </trkpt>
      <trkpt lat="43.60902" lon="6.30984">
        <ele>743</ele>
        <time>2023-01-06T14:17:45Z</time>
      </trkpt>
      <trkpt lat="43.60902" lon="6.30984">
        <ele>743</ele>
        <time>2023-01-06T14:17:46Z</time>
      </trkpt>
      <trkpt lat="43.60902" lon="6.30984">
        <ele>743</ele>
        <time>2023-01-06T14:17:47Z</time>
      </trkpt>
      <trkpt lat="43.60902" lon="6.30984">
        <ele>743</ele>
        <time>2023-01-06T14:17:48Z</time>
      </trkpt>
      <trkpt lat="43.60902" lon="6.30984">
        <ele>743</ele>
        <time>2023-01-06T14:17:49Z</time>
      </trkpt>
      <trkpt lat="43.60902" lon="6.30984">
        <ele>743</ele>
        <time>2023-01-06T14:17:50Z</time>
      </trkpt>
      <trkpt lat="43.60902" lon="6.30984">
        <ele>743</ele>
        <time>2023-01-06T14:17:51Z</time>
      </trkpt>
      <trkpt lat="43.60902" lon="6.30984">
        <ele>743</ele>
        <time>2023-01-06T14:17:52Z</time>
      </trkpt>
      <trkpt lat="43.60902" lon="6.30984">
        <ele>743</ele>
        <time>2023-01-06T14:17:53Z</time>
      </trkpt>
      <trkpt lat="43.60902" lon="6.30984">
        <ele>743</ele>
        <time>2023-01-06T14:17:54Z</time>
      </trkpt>
      <trkpt lat="43.60902" lon="6.30984">
        <ele>743</ele>
        <time>2023-01-06T14:17:55Z</time>
      </trkpt>
      <trkpt lat="43.60902" lon="6.30984">
        <ele>743</ele>
        <time>2023-01-06T14:17:56Z</time>
      </trkpt>
      <trkpt lat="43.60902" lon="6.30984">
        <ele>743</ele>
        <time>2023-01-06T14:17:57Z</time>
      </trkpt>
      <trkpt lat="43.60902" lon="6.30984">
        <ele>743</ele>
        <time>2023-01-06T14:17:58Z</time>
      </trkpt>
      <trkpt lat="43.60902" lon="6.30984">
        <ele>743</ele>
        <time>2023-01-06T14:17:59Z</time>
      </trkpt>
      <trkpt lat="43.60902" lon="6.30984">
        <ele>743</ele>
        <time>2023-01-06T14:18:00Z</time>
      </trkpt>
      <trkpt lat="43.60902" lon="6.30984">
        <ele>743</ele>
        <time>2023-01-06T14:18:01Z</time>
      </trkpt>
      <trkpt lat="43.60902" lon="6.30984">
        <ele>743</ele>
        <time>2023-01-06T14:18:02Z</time>
      </trkpt>
      <trkpt lat="43.60902" lon="6.30984">
        <ele>743</ele>
        <time>2023-01-06T14:18:03Z</time>
      </trkpt>
      <trkpt lat="43.60902" lon="6.30984">
        <ele>743</ele>
        <time>2023-01-06T14:18:04Z</time>
      </trkpt>
      <trkpt lat="43.60902" lon="6.30984">
        <ele>743</ele>
        <time>2023-01-06T14:18:05Z</time>
      </trkpt>
      <trkpt lat="43.60902" lon="6.30984">
        <ele>743</ele>
        <time>2023-01-06T14:18:06Z</time>
      </trkpt>
      <trkpt lat="43.60902" lon="6.30984">
        <ele>743</ele>
        <time>2023-01-06T14:18:07Z</time>
      </trkpt>
      <trkpt lat="43.60902" lon="6.30984">
        <ele>743</ele>
        <time>2023-01-06T14:18:08Z</time>
      </trkpt>
      <trkpt lat="43.60902" lon="6.30984">
        <ele>743</ele>
        <time>2023-01-06T14:18:09Z</time>
      </trkpt>
      <trkpt lat="43.60902" lon="6.30984">
        <ele>743</ele>
        <time>2023-01-06T14:18:10Z</time>
      </trkpt>
      <trkpt lat="43.60902" lon="6.30984">
        <ele>743</ele>
        <time>2023-01-06T14:18:11Z</time>
      </trkpt>
      <trkpt lat="43.60902" lon="6.30984">
        <ele>743</ele>
        <time>2023-01-06T14:18:12Z</time>
      </trkpt>
      <trkpt lat="43.60902" lon="6.30984">
        <ele>743</ele>
        <time>2023-01-06T14:18:13Z</time>
      </trkpt>
      <trkpt lat="43.60902" lon="6.30984">
        <ele>743</ele>
        <time>2023-01-06T14:18:14Z</time>
      </trkpt>
      <trkpt lat="43.60902" lon="6.30984">
        <ele>743</ele>
        <time>2023-01-06T14:18:15Z</time>
      </trkpt>
      <trkpt lat="43.60899" lon="6.30983">
        <ele>743</ele>
        <time>2023-01-06T14:18:16Z</time>
      </trkpt>
      <trkpt lat="43.60898" lon="6.30983">
        <ele>743</ele>
        <time>2023-01-06T14:18:17Z</time>
      </trkpt>
      <trkpt lat="43.60898" lon="6.30983">
        <ele>743</ele>
        <time>2023-01-06T14:18:18Z</time>
      </trkpt>
      <trkpt lat="43.60897" lon="6.30982">
        <ele>743</ele>
        <time>2023-01-06T14:18:19Z</time>
      </trkpt>
      <trkpt lat="43.60896" lon="6.30982">
        <ele>743</ele>
        <time>2023-01-06T14:18:20Z</time>
      </trkpt>
      <trkpt lat="43.60895" lon="6.30981">
        <ele>743</ele>
        <time>2023-01-06T14:18:21Z</time>
      </trkpt>
      <trkpt lat="43.60894" lon="6.30981">
        <ele>742</ele>
        <time>2023-01-06T14:18:22Z</time>
      </trkpt>
      <trkpt lat="43.60894" lon="6.3098">
        <ele>742</ele>
        <time>2023-01-06T14:18:23Z</time>
      </trkpt>
      <trkpt lat="43.60893" lon="6.3098">
        <ele>742</ele>
        <time>2023-01-06T14:18:24Z</time>
      </trkpt>
      <trkpt lat="43.60893" lon="6.3098">
        <ele>742</ele>
        <time>2023-01-06T14:18:25Z</time>
      </trkpt>
      <trkpt lat="43.60892" lon="6.30979">
        <ele>742</ele>
        <time>2023-01-06T14:18:26Z</time>
      </trkpt>
      <trkpt lat="43.60891" lon="6.30979">
        <ele>742</ele>
        <time>2023-01-06T14:18:27Z</time>
      </trkpt>
      <trkpt lat="43.60891" lon="6.30978">
        <ele>742</ele>
        <time>2023-01-06T14:18:28Z</time>
      </trkpt>
      <trkpt lat="43.6089" lon="6.30978">
        <ele>741</ele>
        <time>2023-01-06T14:18:29Z</time>
      </trkpt>
      <trkpt lat="43.60889" lon="6.30977">
        <ele>741</ele>
        <time>2023-01-06T14:18:30Z</time>
      </trkpt>
      <trkpt lat="43.60889" lon="6.30976">
        <ele>741</ele>
        <time>2023-01-06T14:18:31Z</time>
      </trkpt>
      <trkpt lat="43.60888" lon="6.30976">
        <ele>741</ele>
        <time>2023-01-06T14:18:32Z</time>
      </trkpt>
      <trkpt lat="43.60887" lon="6.30975">
        <ele>740</ele>
        <time>2023-01-06T14:18:33Z</time>
      </trkpt>
      <trkpt lat="43.60887" lon="6.30975">
        <ele>739</ele>
        <time>2023-01-06T14:18:34Z</time>
      </trkpt>
      <trkpt lat="43.60886" lon="6.30974">
        <ele>739</ele>
        <time>2023-01-06T14:18:35Z</time>
      </trkpt>
      <trkpt lat="43.60886" lon="6.30974">
        <ele>739</ele>
        <time>2023-01-06T14:18:36Z</time>
      </trkpt>
      <trkpt lat="43.60885" lon="6.30974">
        <ele>739</ele>
        <time>2023-01-06T14:18:37Z</time>
      </trkpt>
      <trkpt lat="43.60885" lon="6.30973">
        <ele>739</ele>
        <time>2023-01-06T14:18:38Z</time>
      </trkpt>
      <trkpt lat="43.60884" lon="6.30973">
        <ele>738</ele>
        <time>2023-01-06T14:18:39Z</time>
      </trkpt>
      <trkpt lat="43.60884" lon="6.30973">
        <ele>738</ele>
        <time>2023-01-06T14:18:40Z</time>
      </trkpt>
      <trkpt lat="43.60884" lon="6.30972">
        <ele>738</ele>
        <time>2023-01-06T14:18:41Z</time>
      </trkpt>
      <trkpt lat="43.60883" lon="6.30972">
        <ele>738</ele>
        <time>2023-01-06T14:18:42Z</time>
      </trkpt>
      <trkpt lat="43.60883" lon="6.30971">
        <ele>738</ele>
        <time>2023-01-06T14:18:43Z</time>
      </trkpt>
      <trkpt lat="43.60883" lon="6.30971">
        <ele>738</ele>
        <time>2023-01-06T14:18:44Z</time>
      </trkpt>
      <trkpt lat="43.60882" lon="6.30971">
        <ele>738</ele>
        <time>2023-01-06T14:18:45Z</time>
      </trkpt>
      <trkpt lat="43.60882" lon="6.30971">
        <ele>739</ele>
        <time>2023-01-06T14:18:46Z</time>
      </trkpt>
      <trkpt lat="43.60881" lon="6.3097">
        <ele>739</ele>
        <time>2023-01-06T14:18:47Z</time>
      </trkpt>
      <trkpt lat="43.60881" lon="6.3097">
        <ele>739</ele>
        <time>2023-01-06T14:18:48Z</time>
      </trkpt>
      <trkpt lat="43.6088" lon="6.3097">
        <ele>739</ele>
        <time>2023-01-06T14:18:49Z</time>
      </trkpt>
      <trkpt lat="43.60879" lon="6.30969">
        <ele>738</ele>
        <time>2023-01-06T14:18:50Z</time>
      </trkpt>
      <trkpt lat="43.60877" lon="6.30968">
        <ele>738</ele>
        <time>2023-01-06T14:18:51Z</time>
      </trkpt>
      <trkpt lat="43.60876" lon="6.30968">
        <ele>738</ele>
        <time>2023-01-06T14:18:52Z</time>
      </trkpt>
      <trkpt lat="43.60875" lon="6.30968">
        <ele>737</ele>
        <time>2023-01-06T14:18:53Z</time>
      </trkpt>
      <trkpt lat="43.60874" lon="6.30967">
        <ele>737</ele>
        <time>2023-01-06T14:18:54Z</time>
      </trkpt>
      <trkpt lat="43.60873" lon="6.30967">
        <ele>736</ele>
        <time>2023-01-06T14:18:55Z</time>
      </trkpt>
      <trkpt lat="43.60872" lon="6.30967">
        <ele>735</ele>
        <time>2023-01-06T14:18:56Z</time>
      </trkpt>
      <trkpt lat="43.60871" lon="6.30967">
        <ele>735</ele>
        <time>2023-01-06T14:18:57Z</time>
      </trkpt>
      <trkpt lat="43.60869" lon="6.30967">
        <ele>735</ele>
        <time>2023-01-06T14:18:58Z</time>
      </trkpt>
      <trkpt lat="43.60868" lon="6.30967">
        <ele>735</ele>
        <time>2023-01-06T14:18:59Z</time>
      </trkpt>
      <trkpt lat="43.60867" lon="6.30967">
        <ele>734</ele>
        <time>2023-01-06T14:19:00Z</time>
      </trkpt>
      <trkpt lat="43.60867" lon="6.30966">
        <ele>734</ele>
        <time>2023-01-06T14:19:01Z</time>
      </trkpt>
      <trkpt lat="43.60866" lon="6.30966">
        <ele>733</ele>
        <time>2023-01-06T14:19:02Z</time>
      </trkpt>
      <trkpt lat="43.60865" lon="6.30966">
        <ele>733</ele>
        <time>2023-01-06T14:19:03Z</time>
      </trkpt>
      <trkpt lat="43.60864" lon="6.30966">
        <ele>733</ele>
        <time>2023-01-06T14:19:04Z</time>
      </trkpt>
      <trkpt lat="43.60863" lon="6.30965">
        <ele>733</ele>
        <time>2023-01-06T14:19:05Z</time>
      </trkpt>
      <trkpt lat="43.60863" lon="6.30964">
        <ele>733</ele>
        <time>2023-01-06T14:19:06Z</time>
      </trkpt>
      <trkpt lat="43.60862" lon="6.30963">
        <ele>732</ele>
        <time>2023-01-06T14:19:07Z</time>
      </trkpt>
      <trkpt lat="43.60861" lon="6.30963">
        <ele>732</ele>
        <time>2023-01-06T14:19:08Z</time>
      </trkpt>
      <trkpt lat="43.6086" lon="6.30963">
        <ele>732</ele>
        <time>2023-01-06T14:19:09Z</time>
      </trkpt>
      <trkpt lat="43.60859" lon="6.30962">
        <ele>732</ele>
        <time>2023-01-06T14:19:10Z</time>
      </trkpt>
      <trkpt lat="43.60858" lon="6.30962">
        <ele>732</ele>
        <time>2023-01-06T14:19:11Z</time>
      </trkpt>
      <trkpt lat="43.60857" lon="6.30961">
        <ele>732</ele>
        <time>2023-01-06T14:19:12Z</time>
      </trkpt>
      <trkpt lat="43.60856" lon="6.30961">
        <ele>732</ele>
        <time>2023-01-06T14:19:13Z</time>
      </trkpt>
      <trkpt lat="43.60855" lon="6.3096">
        <ele>732</ele>
        <time>2023-01-06T14:19:14Z</time>
      </trkpt>
      <trkpt lat="43.60855" lon="6.3096">
        <ele>732</ele>
        <time>2023-01-06T14:19:15Z</time>
      </trkpt>
      <trkpt lat="43.60853" lon="6.3096">
        <ele>732</ele>
        <time>2023-01-06T14:19:16Z</time>
      </trkpt>
      <trkpt lat="43.60852" lon="6.3096">
        <ele>732</ele>
        <time>2023-01-06T14:19:17Z</time>
      </trkpt>
      <trkpt lat="43.60851" lon="6.3096">
        <ele>732</ele>
        <time>2023-01-06T14:19:18Z</time>
      </trkpt>
      <trkpt lat="43.6085" lon="6.3096">
        <ele>732</ele>
        <time>2023-01-06T14:19:19Z</time>
      </trkpt>
      <trkpt lat="43.6085" lon="6.30959">
        <ele>732</ele>
        <time>2023-01-06T14:19:20Z</time>
      </trkpt>
      <trkpt lat="43.60849" lon="6.30959">
        <ele>732</ele>
        <time>2023-01-06T14:19:21Z</time>
      </trkpt>
      <trkpt lat="43.60848" lon="6.30959">
        <ele>732</ele>
        <time>2023-01-06T14:19:22Z</time>
      </trkpt>
      <trkpt lat="43.60846" lon="6.30959">
        <ele>732</ele>
        <time>2023-01-06T14:19:23Z</time>
      </trkpt>
      <trkpt lat="43.60845" lon="6.30959">
        <ele>732</ele>
        <time>2023-01-06T14:19:24Z</time>
      </trkpt>
      <trkpt lat="43.60844" lon="6.30959">
        <ele>732</ele>
        <time>2023-01-06T14:19:25Z</time>
      </trkpt>
      <trkpt lat="43.60843" lon="6.30959">
        <ele>732</ele>
        <time>2023-01-06T14:19:26Z</time>
      </trkpt>
      <trkpt lat="43.60842" lon="6.30959">
        <ele>731</ele>
        <time>2023-01-06T14:19:27Z</time>
      </trkpt>
      <trkpt lat="43.60841" lon="6.30959">
        <ele>731</ele>
        <time>2023-01-06T14:19:28Z</time>
      </trkpt>
      <trkpt lat="43.6084" lon="6.30959">
        <ele>731</ele>
        <time>2023-01-06T14:19:29Z</time>
      </trkpt>
      <trkpt lat="43.60839" lon="6.30959">
        <ele>731</ele>
        <time>2023-01-06T14:19:30Z</time>
      </trkpt>
      <trkpt lat="43.60838" lon="6.30959">
        <ele>731</ele>
        <time>2023-01-06T14:19:31Z</time>
      </trkpt>
      <trkpt lat="43.60837" lon="6.3096">
        <ele>731</ele>
        <time>2023-01-06T14:19:32Z</time>
      </trkpt>
      <trkpt lat="43.60836" lon="6.3096">
        <ele>731</ele>
        <time>2023-01-06T14:19:33Z</time>
      </trkpt>
      <trkpt lat="43.60835" lon="6.3096">
        <ele>731</ele>
        <time>2023-01-06T14:19:34Z</time>
      </trkpt>
      <trkpt lat="43.60835" lon="6.3096">
        <ele>731</ele>
        <time>2023-01-06T14:19:35Z</time>
      </trkpt>
      <trkpt lat="43.60834" lon="6.30961">
        <ele>731</ele>
        <time>2023-01-06T14:19:36Z</time>
      </trkpt>
      <trkpt lat="43.60833" lon="6.30961">
        <ele>731</ele>
        <time>2023-01-06T14:19:37Z</time>
      </trkpt>
      <trkpt lat="43.60832" lon="6.30962">
        <ele>731</ele>
        <time>2023-01-06T14:19:38Z</time>
      </trkpt>
      <trkpt lat="43.60831" lon="6.30962">
        <ele>731</ele>
        <time>2023-01-06T14:19:39Z</time>
      </trkpt>
      <trkpt lat="43.60831" lon="6.30963">
        <ele>731</ele>
        <time>2023-01-06T14:19:40Z</time>
      </trkpt>
      <trkpt lat="43.6083" lon="6.30963">
        <ele>731</ele>
        <time>2023-01-06T14:19:41Z</time>
      </trkpt>
      <trkpt lat="43.60829" lon="6.30963">
        <ele>731</ele>
        <time>2023-01-06T14:19:42Z</time>
      </trkpt>
      <trkpt lat="43.60828" lon="6.30963">
        <ele>731</ele>
        <time>2023-01-06T14:19:43Z</time>
      </trkpt>
      <trkpt lat="43.60828" lon="6.30963">
        <ele>731</ele>
        <time>2023-01-06T14:19:44Z</time>
      </trkpt>
      <trkpt lat="43.60827" lon="6.30963">
        <ele>731</ele>
        <time>2023-01-06T14:19:45Z</time>
      </trkpt>
      <trkpt lat="43.60826" lon="6.30963">
        <ele>731</ele>
        <time>2023-01-06T14:19:46Z</time>
      </trkpt>
      <trkpt lat="43.60825" lon="6.30963">
        <ele>731</ele>
        <time>2023-01-06T14:19:47Z</time>
      </trkpt>
      <trkpt lat="43.60824" lon="6.30963">
        <ele>731</ele>
        <time>2023-01-06T14:19:48Z</time>
      </trkpt>
      <trkpt lat="43.60823" lon="6.30963">
        <ele>731</ele>
        <time>2023-01-06T14:19:49Z</time>
      </trkpt>
      <trkpt lat="43.60822" lon="6.30963">
        <ele>731</ele>
        <time>2023-01-06T14:19:50Z</time>
      </trkpt>
      <trkpt lat="43.60821" lon="6.30964">
        <ele>731</ele>
        <time>2023-01-06T14:19:51Z</time>
      </trkpt>
      <trkpt lat="43.6082" lon="6.30964">
        <ele>731</ele>
        <time>2023-01-06T14:19:52Z</time>
      </trkpt>
      <trkpt lat="43.60819" lon="6.30964">
        <ele>731</ele>
        <time>2023-01-06T14:19:53Z</time>
      </trkpt>
      <trkpt lat="43.60819" lon="6.30965">
        <ele>731</ele>
        <time>2023-01-06T14:19:54Z</time>
      </trkpt>
      <trkpt lat="43.60818" lon="6.30965">
        <ele>731</ele>
        <time>2023-01-06T14:19:55Z</time>
      </trkpt>
      <trkpt lat="43.60817" lon="6.30965">
        <ele>731</ele>
        <time>2023-01-06T14:19:56Z</time>
      </trkpt>
      <trkpt lat="43.60816" lon="6.30966">
        <ele>731</ele>
        <time>2023-01-06T14:19:57Z</time>
      </trkpt>
      <trkpt lat="43.60816" lon="6.30966">
        <ele>731</ele>
        <time>2023-01-06T14:19:58Z</time>
      </trkpt>
      <trkpt lat="43.60815" lon="6.30967">
        <ele>731</ele>
        <time>2023-01-06T14:19:59Z</time>
      </trkpt>
      <trkpt lat="43.60814" lon="6.30967">
        <ele>731</ele>
        <time>2023-01-06T14:20:00Z</time>
      </trkpt>
      <trkpt lat="43.60813" lon="6.30967">
        <ele>731</ele>
        <time>2023-01-06T14:20:01Z</time>
      </trkpt>
      <trkpt lat="43.60813" lon="6.30968">
        <ele>731</ele>
        <time>2023-01-06T14:20:02Z</time>
      </trkpt>
      <trkpt lat="43.60812" lon="6.30968">
        <ele>731</ele>
        <time>2023-01-06T14:20:03Z</time>
      </trkpt>
      <trkpt lat="43.60811" lon="6.30968">
        <ele>731</ele>
        <time>2023-01-06T14:20:04Z</time>
      </trkpt>
      <trkpt lat="43.60811" lon="6.30968">
        <ele>731</ele>
        <time>2023-01-06T14:20:05Z</time>
      </trkpt>
      <trkpt lat="43.6081" lon="6.30968">
        <ele>731</ele>
        <time>2023-01-06T14:20:06Z</time>
      </trkpt>
      <trkpt lat="43.6081" lon="6.30968">
        <ele>731</ele>
        <time>2023-01-06T14:20:07Z</time>
      </trkpt>
      <trkpt lat="43.60809" lon="6.30968">
        <ele>731</ele>
        <time>2023-01-06T14:20:08Z</time>
      </trkpt>
      <trkpt lat="43.60809" lon="6.30968">
        <ele>731</ele>
        <time>2023-01-06T14:20:09Z</time>
      </trkpt>
      <trkpt lat="43.60809" lon="6.30968">
        <ele>731</ele>
        <time>2023-01-06T14:20:10Z</time>
      </trkpt>
      <trkpt lat="43.60808" lon="6.30967">
        <ele>731</ele>
        <time>2023-01-06T14:20:11Z</time>
      </trkpt>
      <trkpt lat="43.60807" lon="6.30967">
        <ele>731</ele>
        <time>2023-01-06T14:20:12Z</time>
      </trkpt>
      <trkpt lat="43.60807" lon="6.30967">
        <ele>731</ele>
        <time>2023-01-06T14:20:13Z</time>
      </trkpt>
      <trkpt lat="43.60806" lon="6.30967">
        <ele>731</ele>
        <time>2023-01-06T14:20:14Z</time>
      </trkpt>
      <trkpt lat="43.60806" lon="6.30968">
        <ele>731</ele>
        <time>2023-01-06T14:20:15Z</time>
      </trkpt>
      <trkpt lat="43.60805" lon="6.30968">
        <ele>731</ele>
        <time>2023-01-06T14:20:16Z</time>
      </trkpt>
      <trkpt lat="43.60804" lon="6.30968">
        <ele>731</ele>
        <time>2023-01-06T14:20:17Z</time>
      </trkpt>
      <trkpt lat="43.60803" lon="6.30968">
        <ele>731</ele>
        <time>2023-01-06T14:20:18Z</time>
      </trkpt>
      <trkpt lat="43.60802" lon="6.30969">
        <ele>730</ele>
        <time>2023-01-06T14:20:19Z</time>
      </trkpt>
      <trkpt lat="43.60801" lon="6.30969">
        <ele>730</ele>
        <time>2023-01-06T14:20:20Z</time>
      </trkpt>
      <trkpt lat="43.608" lon="6.3097">
        <ele>730</ele>
        <time>2023-01-06T14:20:21Z</time>
      </trkpt>
      <trkpt lat="43.60799" lon="6.30969">
        <ele>730</ele>
        <time>2023-01-06T14:20:22Z</time>
      </trkpt>
      <trkpt lat="43.60798" lon="6.30969">
        <ele>730</ele>
        <time>2023-01-06T14:20:23Z</time>
      </trkpt>
      <trkpt lat="43.60797" lon="6.30969">
        <ele>730</ele>
        <time>2023-01-06T14:20:24Z</time>
      </trkpt>
      <trkpt lat="43.60796" lon="6.30969">
        <ele>730</ele>
        <time>2023-01-06T14:20:25Z</time>
      </trkpt>
      <trkpt lat="43.60795" lon="6.30969">
        <ele>730</ele>
        <time>2023-01-06T14:20:26Z</time>
      </trkpt>
      <trkpt lat="43.60794" lon="6.3097">
        <ele>730</ele>
        <time>2023-01-06T14:20:27Z</time>
      </trkpt>
      <trkpt lat="43.60793" lon="6.3097">
        <ele>730</ele>
        <time>2023-01-06T14:20:28Z</time>
      </trkpt>
      <trkpt lat="43.60793" lon="6.30971">
        <ele>730</ele>
        <time>2023-01-06T14:20:29Z</time>
      </trkpt>
      <trkpt lat="43.60792" lon="6.30971">
        <ele>731</ele>
        <time>2023-01-06T14:20:30Z</time>
      </trkpt>
      <trkpt lat="43.60791" lon="6.30972">
        <ele>731</ele>
        <time>2023-01-06T14:20:31Z</time>
      </trkpt>
      <trkpt lat="43.6079" lon="6.30972">
        <ele>731</ele>
        <time>2023-01-06T14:20:32Z</time>
      </trkpt>
      <trkpt lat="43.60789" lon="6.30973">
        <ele>731</ele>
        <time>2023-01-06T14:20:33Z</time>
      </trkpt>
      <trkpt lat="43.60789" lon="6.30975">
        <ele>731</ele>
        <time>2023-01-06T14:20:34Z</time>
      </trkpt>
      <trkpt lat="43.60788" lon="6.30976">
        <ele>731</ele>
        <time>2023-01-06T14:20:35Z</time>
      </trkpt>
      <trkpt lat="43.60787" lon="6.30977">
        <ele>731</ele>
        <time>2023-01-06T14:20:36Z</time>
      </trkpt>
      <trkpt lat="43.60786" lon="6.30977">
        <ele>731</ele>
        <time>2023-01-06T14:20:37Z</time>
      </trkpt>
      <trkpt lat="43.60786" lon="6.30978">
        <ele>731</ele>
        <time>2023-01-06T14:20:38Z</time>
      </trkpt>
      <trkpt lat="43.60785" lon="6.30979">
        <ele>731</ele>
        <time>2023-01-06T14:20:39Z</time>
      </trkpt>
      <trkpt lat="43.60784" lon="6.30981">
        <ele>731</ele>
        <time>2023-01-06T14:20:40Z</time>
      </trkpt>
      <trkpt lat="43.60784" lon="6.30982">
        <ele>731</ele>
        <time>2023-01-06T14:20:41Z</time>
      </trkpt>
      <trkpt lat="43.60784" lon="6.30983">
        <ele>731</ele>
        <time>2023-01-06T14:20:42Z</time>
      </trkpt>
      <trkpt lat="43.60783" lon="6.30984">
        <ele>731</ele>
        <time>2023-01-06T14:20:43Z</time>
      </trkpt>
      <trkpt lat="43.60783" lon="6.30986">
        <ele>731</ele>
        <time>2023-01-06T14:20:44Z</time>
      </trkpt>
      <trkpt lat="43.60783" lon="6.30987">
        <ele>731</ele>
        <time>2023-01-06T14:20:45Z</time>
      </trkpt>
      <trkpt lat="43.60783" lon="6.30989">
        <ele>731</ele>
        <time>2023-01-06T14:20:46Z</time>
      </trkpt>
      <trkpt lat="43.60783" lon="6.3099">
        <ele>731</ele>
        <time>2023-01-06T14:20:47Z</time>
      </trkpt>
      <trkpt lat="43.60783" lon="6.30992">
        <ele>731</ele>
        <time>2023-01-06T14:20:48Z</time>
      </trkpt>
      <trkpt lat="43.60784" lon="6.30993">
        <ele>731</ele>
        <time>2023-01-06T14:20:49Z</time>
      </trkpt>
      <trkpt lat="43.60784" lon="6.30994">
        <ele>731</ele>
        <time>2023-01-06T14:20:50Z</time>
      </trkpt>
      <trkpt lat="43.60784" lon="6.30995">
        <ele>732</ele>
        <time>2023-01-06T14:20:51Z</time>
      </trkpt>
      <trkpt lat="43.60784" lon="6.30997">
        <ele>732</ele>
        <time>2023-01-06T14:20:52Z</time>
      </trkpt>
      <trkpt lat="43.60784" lon="6.30998">
        <ele>732</ele>
        <time>2023-01-06T14:20:53Z</time>
      </trkpt>
      <trkpt lat="43.60784" lon="6.30999">
        <ele>732</ele>
        <time>2023-01-06T14:20:54Z</time>
      </trkpt>
      <trkpt lat="43.60783" lon="6.31">
        <ele>732</ele>
        <time>2023-01-06T14:20:55Z</time>
      </trkpt>
      <trkpt lat="43.60783" lon="6.31001">
        <ele>732</ele>
        <time>2023-01-06T14:20:56Z</time>
      </trkpt>
      <trkpt lat="43.60782" lon="6.31002">
        <ele>732</ele>
        <time>2023-01-06T14:20:57Z</time>
      </trkpt>
      <trkpt lat="43.60782" lon="6.31004">
        <ele>733</ele>
        <time>2023-01-06T14:20:58Z</time>
      </trkpt>
      <trkpt lat="43.60781" lon="6.31005">
        <ele>733</ele>
        <time>2023-01-06T14:20:59Z</time>
      </trkpt>
      <trkpt lat="43.6078" lon="6.31006">
        <ele>733</ele>
        <time>2023-01-06T14:21:00Z</time>
      </trkpt>
      <trkpt lat="43.60779" lon="6.31007">
        <ele>733</ele>
        <time>2023-01-06T14:21:01Z</time>
      </trkpt>
      <trkpt lat="43.60778" lon="6.31008">
        <ele>733</ele>
        <time>2023-01-06T14:21:02Z</time>
      </trkpt>
      <trkpt lat="43.60778" lon="6.3101">
        <ele>733</ele>
        <time>2023-01-06T14:21:03Z</time>
      </trkpt>
      <trkpt lat="43.60777" lon="6.31011">
        <ele>733</ele>
        <time>2023-01-06T14:21:04Z</time>
      </trkpt>
      <trkpt lat="43.60776" lon="6.31012">
        <ele>733</ele>
        <time>2023-01-06T14:21:05Z</time>
      </trkpt>
      <trkpt lat="43.60775" lon="6.31013">
        <ele>733</ele>
        <time>2023-01-06T14:21:06Z</time>
      </trkpt>
      <trkpt lat="43.60775" lon="6.31014">
        <ele>734</ele>
        <time>2023-01-06T14:21:07Z</time>
      </trkpt>
      <trkpt lat="43.60774" lon="6.31015">
        <ele>734</ele>
        <time>2023-01-06T14:21:08Z</time>
      </trkpt>
      <trkpt lat="43.60773" lon="6.31016">
        <ele>734</ele>
        <time>2023-01-06T14:21:09Z</time>
      </trkpt>
      <trkpt lat="43.60773" lon="6.31017">
        <ele>734</ele>
        <time>2023-01-06T14:21:10Z</time>
      </trkpt>
      <trkpt lat="43.60772" lon="6.31017">
        <ele>734</ele>
        <time>2023-01-06T14:21:11Z</time>
      </trkpt>
      <trkpt lat="43.60772" lon="6.31018">
        <ele>734</ele>
        <time>2023-01-06T14:21:12Z</time>
      </trkpt>
      <trkpt lat="43.60771" lon="6.31019">
        <ele>734</ele>
        <time>2023-01-06T14:21:13Z</time>
      </trkpt>
      <trkpt lat="43.60771" lon="6.3102">
        <ele>734</ele>
        <time>2023-01-06T14:21:14Z</time>
      </trkpt>
      <trkpt lat="43.6077" lon="6.31021">
        <ele>734</ele>
        <time>2023-01-06T14:21:15Z</time>
      </trkpt>
      <trkpt lat="43.6077" lon="6.31021">
        <ele>734</ele>
        <time>2023-01-06T14:21:16Z</time>
      </trkpt>
      <trkpt lat="43.60769" lon="6.31021">
        <ele>734</ele>
        <time>2023-01-06T14:21:17Z</time>
      </trkpt>
      <trkpt lat="43.60769" lon="6.31022">
        <ele>734</ele>
        <time>2023-01-06T14:21:18Z</time>
      </trkpt>
      <trkpt lat="43.60768" lon="6.31022">
        <ele>734</ele>
        <time>2023-01-06T14:21:19Z</time>
      </trkpt>
      <trkpt lat="43.60768" lon="6.31023">
        <ele>734</ele>
        <time>2023-01-06T14:21:20Z</time>
      </trkpt>
      <trkpt lat="43.60768" lon="6.31024">
        <ele>734</ele>
        <time>2023-01-06T14:21:21Z</time>
      </trkpt>
      <trkpt lat="43.60767" lon="6.31025">
        <ele>734</ele>
        <time>2023-01-06T14:21:22Z</time>
      </trkpt>
      <trkpt lat="43.60766" lon="6.31026">
        <ele>734</ele>
        <time>2023-01-06T14:21:23Z</time>
      </trkpt>
      <trkpt lat="43.60766" lon="6.31027">
        <ele>734</ele>
        <time>2023-01-06T14:21:24Z</time>
      </trkpt>
      <trkpt lat="43.60765" lon="6.31027">
        <ele>734</ele>
        <time>2023-01-06T14:21:25Z</time>
      </trkpt>
      <trkpt lat="43.60765" lon="6.31028">
        <ele>734</ele>
        <time>2023-01-06T14:21:26Z</time>
      </trkpt>
      <trkpt lat="43.60764" lon="6.31029">
        <ele>734</ele>
        <time>2023-01-06T14:21:27Z</time>
      </trkpt>
      <trkpt lat="43.60764" lon="6.3103">
        <ele>734</ele>
        <time>2023-01-06T14:21:28Z</time>
      </trkpt>
      <trkpt lat="43.60763" lon="6.31031">
        <ele>734</ele>
        <time>2023-01-06T14:21:29Z</time>
      </trkpt>
      <trkpt lat="43.60762" lon="6.31032">
        <ele>734</ele>
        <time>2023-01-06T14:21:30Z</time>
      </trkpt>
      <trkpt lat="43.60761" lon="6.31033">
        <ele>734</ele>
        <time>2023-01-06T14:21:31Z</time>
      </trkpt>
      <trkpt lat="43.60761" lon="6.31034">
        <ele>734</ele>
        <time>2023-01-06T14:21:32Z</time>
      </trkpt>
      <trkpt lat="43.6076" lon="6.31034">
        <ele>734</ele>
        <time>2023-01-06T14:21:33Z</time>
      </trkpt>
      <trkpt lat="43.60759" lon="6.31035">
        <ele>734</ele>
        <time>2023-01-06T14:21:34Z</time>
      </trkpt>
      <trkpt lat="43.60759" lon="6.31036">
        <ele>734</ele>
        <time>2023-01-06T14:21:35Z</time>
      </trkpt>
      <trkpt lat="43.60758" lon="6.31037">
        <ele>733</ele>
        <time>2023-01-06T14:21:36Z</time>
      </trkpt>
      <trkpt lat="43.60757" lon="6.31038">
        <ele>733</ele>
        <time>2023-01-06T14:21:37Z</time>
      </trkpt>
      <trkpt lat="43.60756" lon="6.31039">
        <ele>733</ele>
        <time>2023-01-06T14:21:38Z</time>
      </trkpt>
      <trkpt lat="43.60756" lon="6.3104">
        <ele>734</ele>
        <time>2023-01-06T14:21:39Z</time>
      </trkpt>
      <trkpt lat="43.60755" lon="6.31041">
        <ele>734</ele>
        <time>2023-01-06T14:21:40Z</time>
      </trkpt>
      <trkpt lat="43.60754" lon="6.31041">
        <ele>734</ele>
        <time>2023-01-06T14:21:41Z</time>
      </trkpt>
      <trkpt lat="43.60754" lon="6.31042">
        <ele>734</ele>
        <time>2023-01-06T14:21:42Z</time>
      </trkpt>
      <trkpt lat="43.60753" lon="6.31042">
        <ele>734</ele>
        <time>2023-01-06T14:21:43Z</time>
      </trkpt>
      <trkpt lat="43.60752" lon="6.31043">
        <ele>734</ele>
        <time>2023-01-06T14:21:44Z</time>
      </trkpt>
      <trkpt lat="43.60751" lon="6.31044">
        <ele>734</ele>
        <time>2023-01-06T14:21:45Z</time>
      </trkpt>
      <trkpt lat="43.6075" lon="6.31045">
        <ele>734</ele>
        <time>2023-01-06T14:21:46Z</time>
      </trkpt>
      <trkpt lat="43.6075" lon="6.31046">
        <ele>734</ele>
        <time>2023-01-06T14:21:47Z</time>
      </trkpt>
      <trkpt lat="43.60749" lon="6.31046">
        <ele>734</ele>
        <time>2023-01-06T14:21:48Z</time>
      </trkpt>
      <trkpt lat="43.60748" lon="6.31047">
        <ele>734</ele>
        <time>2023-01-06T14:21:49Z</time>
      </trkpt>
      <trkpt lat="43.60747" lon="6.31048">
        <ele>734</ele>
        <time>2023-01-06T14:21:50Z</time>
      </trkpt>
      <trkpt lat="43.60747" lon="6.31049">
        <ele>734</ele>
        <time>2023-01-06T14:21:51Z</time>
      </trkpt>
      <trkpt lat="43.60746" lon="6.31049">
        <ele>734</ele>
        <time>2023-01-06T14:21:52Z</time>
      </trkpt>
      <trkpt lat="43.60745" lon="6.3105">
        <ele>734</ele>
        <time>2023-01-06T14:21:53Z</time>
      </trkpt>
      <trkpt lat="43.60744" lon="6.3105">
        <ele>734</ele>
        <time>2023-01-06T14:21:54Z</time>
      </trkpt>
      <trkpt lat="43.60744" lon="6.3105">
        <ele>734</ele>
        <time>2023-01-06T14:21:55Z</time>
      </trkpt>
      <trkpt lat="43.60743" lon="6.31051">
        <ele>734</ele>
        <time>2023-01-06T14:21:56Z</time>
      </trkpt>
      <trkpt lat="43.60743" lon="6.31051">
        <ele>734</ele>
        <time>2023-01-06T14:21:57Z</time>
      </trkpt>
      <trkpt lat="43.60743" lon="6.31052">
        <ele>734</ele>
        <time>2023-01-06T14:21:58Z</time>
      </trkpt>
      <trkpt lat="43.60743" lon="6.31052">
        <ele>734</ele>
        <time>2023-01-06T14:21:59Z</time>
      </trkpt>
      <trkpt lat="43.60743" lon="6.31053">
        <ele>734</ele>
        <time>2023-01-06T14:22:00Z</time>
      </trkpt>
      <trkpt lat="43.60743" lon="6.31054">
        <ele>734</ele>
        <time>2023-01-06T14:22:01Z</time>
      </trkpt>
      <trkpt lat="43.60743" lon="6.31055">
        <ele>734</ele>
        <time>2023-01-06T14:22:02Z</time>
      </trkpt>
      <trkpt lat="43.60742" lon="6.31056">
        <ele>733</ele>
        <time>2023-01-06T14:22:03Z</time>
      </trkpt>
      <trkpt lat="43.60742" lon="6.31058">
        <ele>733</ele>
        <time>2023-01-06T14:22:04Z</time>
      </trkpt>
      <trkpt lat="43.60741" lon="6.31059">
        <ele>733</ele>
        <time>2023-01-06T14:22:05Z</time>
      </trkpt>
      <trkpt lat="43.6074" lon="6.31061">
        <ele>733</ele>
        <time>2023-01-06T14:22:06Z</time>
      </trkpt>
      <trkpt lat="43.6074" lon="6.31062">
        <ele>734</ele>
        <time>2023-01-06T14:22:07Z</time>
      </trkpt>
      <trkpt lat="43.60739" lon="6.31063">
        <ele>734</ele>
        <time>2023-01-06T14:22:08Z</time>
      </trkpt>
      <trkpt lat="43.60738" lon="6.31064">
        <ele>734</ele>
        <time>2023-01-06T14:22:09Z</time>
      </trkpt>
      <trkpt lat="43.60737" lon="6.31065">
        <ele>734</ele>
        <time>2023-01-06T14:22:10Z</time>
      </trkpt>
      <trkpt lat="43.60736" lon="6.31066">
        <ele>734</ele>
        <time>2023-01-06T14:22:11Z</time>
      </trkpt>
      <trkpt lat="43.60736" lon="6.31067">
        <ele>734</ele>
        <time>2023-01-06T14:22:12Z</time>
      </trkpt>
      <trkpt lat="43.60735" lon="6.31068">
        <ele>734</ele>
        <time>2023-01-06T14:22:13Z</time>
      </trkpt>
      <trkpt lat="43.60734" lon="6.3107">
        <ele>734</ele>
        <time>2023-01-06T14:22:14Z</time>
      </trkpt>
      <trkpt lat="43.60733" lon="6.31071">
        <ele>734</ele>
        <time>2023-01-06T14:22:15Z</time>
      </trkpt>
      <trkpt lat="43.60732" lon="6.31072">
        <ele>734</ele>
        <time>2023-01-06T14:22:16Z</time>
      </trkpt>
      <trkpt lat="43.60731" lon="6.31074">
        <ele>734</ele>
        <time>2023-01-06T14:22:17Z</time>
      </trkpt>
      <trkpt lat="43.60731" lon="6.31075">
        <ele>734</ele>
        <time>2023-01-06T14:22:18Z</time>
      </trkpt>
      <trkpt lat="43.6073" lon="6.31076">
        <ele>734</ele>
        <time>2023-01-06T14:22:19Z</time>
      </trkpt>
      <trkpt lat="43.6073" lon="6.31077">
        <ele>734</ele>
        <time>2023-01-06T14:22:20Z</time>
      </trkpt>
      <trkpt lat="43.60729" lon="6.31078">
        <ele>734</ele>
        <time>2023-01-06T14:22:21Z</time>
      </trkpt>
      <trkpt lat="43.60729" lon="6.31079">
        <ele>734</ele>
        <time>2023-01-06T14:22:22Z</time>
      </trkpt>
      <trkpt lat="43.60728" lon="6.31081">
        <ele>734</ele>
        <time>2023-01-06T14:22:23Z</time>
      </trkpt>
      <trkpt lat="43.60728" lon="6.31082">
        <ele>734</ele>
        <time>2023-01-06T14:22:24Z</time>
      </trkpt>
      <trkpt lat="43.60728" lon="6.31083">
        <ele>734</ele>
        <time>2023-01-06T14:22:25Z</time>
      </trkpt>
      <trkpt lat="43.60728" lon="6.31084">
        <ele>734</ele>
        <time>2023-01-06T14:22:26Z</time>
      </trkpt>
      <trkpt lat="43.60727" lon="6.31085">
        <ele>734</ele>
        <time>2023-01-06T14:22:27Z</time>
      </trkpt>
      <trkpt lat="43.60727" lon="6.31087">
        <ele>734</ele>
        <time>2023-01-06T14:22:28Z</time>
      </trkpt>
      <trkpt lat="43.60726" lon="6.31088">
        <ele>734</ele>
        <time>2023-01-06T14:22:29Z</time>
      </trkpt>
      <trkpt lat="43.60726" lon="6.31089">
        <ele>734</ele>
        <time>2023-01-06T14:22:30Z</time>
      </trkpt>
      <trkpt lat="43.60725" lon="6.3109">
        <ele>734</ele>
        <time>2023-01-06T14:22:31Z</time>
      </trkpt>
      <trkpt lat="43.60724" lon="6.31091">
        <ele>734</ele>
        <time>2023-01-06T14:22:32Z</time>
      </trkpt>
      <trkpt lat="43.60723" lon="6.31091">
        <ele>734</ele>
        <time>2023-01-06T14:22:33Z</time>
      </trkpt>
      <trkpt lat="43.60722" lon="6.31092">
        <ele>733</ele>
        <time>2023-01-06T14:22:34Z</time>
      </trkpt>
      <trkpt lat="43.60721" lon="6.31092">
        <ele>733</ele>
        <time>2023-01-06T14:22:35Z</time>
      </trkpt>
      <trkpt lat="43.6072" lon="6.31092">
        <ele>733</ele>
        <time>2023-01-06T14:22:36Z</time>
      </trkpt>
      <trkpt lat="43.60719" lon="6.31093">
        <ele>733</ele>
        <time>2023-01-06T14:22:37Z</time>
      </trkpt>
      <trkpt lat="43.60718" lon="6.31093">
        <ele>733</ele>
        <time>2023-01-06T14:22:38Z</time>
      </trkpt>
      <trkpt lat="43.60717" lon="6.31092">
        <ele>733</ele>
        <time>2023-01-06T14:22:39Z</time>
      </trkpt>
      <trkpt lat="43.60716" lon="6.31092">
        <ele>733</ele>
        <time>2023-01-06T14:22:40Z</time>
      </trkpt>
      <trkpt lat="43.60714" lon="6.31092">
        <ele>732</ele>
        <time>2023-01-06T14:22:41Z</time>
      </trkpt>
      <trkpt lat="43.60713" lon="6.31091">
        <ele>732</ele>
        <time>2023-01-06T14:22:42Z</time>
      </trkpt>
      <trkpt lat="43.60713" lon="6.31091">
        <ele>732</ele>
        <time>2023-01-06T14:22:43Z</time>
      </trkpt>
      <trkpt lat="43.60711" lon="6.31091">
        <ele>732</ele>
        <time>2023-01-06T14:22:44Z</time>
      </trkpt>
      <trkpt lat="43.6071" lon="6.3109">
        <ele>732</ele>
        <time>2023-01-06T14:22:45Z</time>
      </trkpt>
      <trkpt lat="43.60709" lon="6.3109">
        <ele>731</ele>
        <time>2023-01-06T14:22:46Z</time>
      </trkpt>
      <trkpt lat="43.60709" lon="6.31089">
        <ele>731</ele>
        <time>2023-01-06T14:22:47Z</time>
      </trkpt>
      <trkpt lat="43.60708" lon="6.31088">
        <ele>731</ele>
        <time>2023-01-06T14:22:48Z</time>
      </trkpt>
      <trkpt lat="43.60707" lon="6.31088">
        <ele>731</ele>
        <time>2023-01-06T14:22:49Z</time>
      </trkpt>
      <trkpt lat="43.60706" lon="6.31088">
        <ele>731</ele>
        <time>2023-01-06T14:22:50Z</time>
      </trkpt>
      <trkpt lat="43.60705" lon="6.31087">
        <ele>731</ele>
        <time>2023-01-06T14:22:51Z</time>
      </trkpt>
      <trkpt lat="43.60705" lon="6.31087">
        <ele>731</ele>
        <time>2023-01-06T14:22:52Z</time>
      </trkpt>
      <trkpt lat="43.60704" lon="6.31086">
        <ele>731</ele>
        <time>2023-01-06T14:22:53Z</time>
      </trkpt>
      <trkpt lat="43.60703" lon="6.31086">
        <ele>731</ele>
        <time>2023-01-06T14:22:54Z</time>
      </trkpt>
      <trkpt lat="43.60703" lon="6.31087">
        <ele>731</ele>
        <time>2023-01-06T14:22:55Z</time>
      </trkpt>
      <trkpt lat="43.60702" lon="6.31087">
        <ele>731</ele>
        <time>2023-01-06T14:22:56Z</time>
      </trkpt>
      <trkpt lat="43.60701" lon="6.31087">
        <ele>731</ele>
        <time>2023-01-06T14:22:57Z</time>
      </trkpt>
      <trkpt lat="43.60701" lon="6.31087">
        <ele>731</ele>
        <time>2023-01-06T14:22:58Z</time>
      </trkpt>
      <trkpt lat="43.607" lon="6.31087">
        <ele>731</ele>
        <time>2023-01-06T14:22:59Z</time>
      </trkpt>
      <trkpt lat="43.607" lon="6.31087">
        <ele>731</ele>
        <time>2023-01-06T14:23:00Z</time>
      </trkpt>
      <trkpt lat="43.607" lon="6.31087">
        <ele>731</ele>
        <time>2023-01-06T14:23:01Z</time>
      </trkpt>
      <trkpt lat="43.60699" lon="6.31086">
        <ele>731</ele>
        <time>2023-01-06T14:23:02Z</time>
      </trkpt>
      <trkpt lat="43.60699" lon="6.31086">
        <ele>731</ele>
        <time>2023-01-06T14:23:03Z</time>
      </trkpt>
      <trkpt lat="43.60699" lon="6.31086">
        <ele>731</ele>
        <time>2023-01-06T14:23:04Z</time>
      </trkpt>
      <trkpt lat="43.60699" lon="6.31086">
        <ele>731</ele>
        <time>2023-01-06T14:23:05Z</time>
      </trkpt>
      <trkpt lat="43.607" lon="6.31085">
        <ele>731</ele>
        <time>2023-01-06T14:23:06Z</time>
      </trkpt>
      <trkpt lat="43.607" lon="6.31085">
        <ele>731</ele>
        <time>2023-01-06T14:23:07Z</time>
      </trkpt>
      <trkpt lat="43.607" lon="6.31084">
        <ele>730</ele>
        <time>2023-01-06T14:23:08Z</time>
      </trkpt>
      <trkpt lat="43.607" lon="6.31084">
        <ele>730</ele>
        <time>2023-01-06T14:23:09Z</time>
      </trkpt>
      <trkpt lat="43.607" lon="6.31083">
        <ele>730</ele>
        <time>2023-01-06T14:23:10Z</time>
      </trkpt>
      <trkpt lat="43.607" lon="6.31083">
        <ele>730</ele>
        <time>2023-01-06T14:23:11Z</time>
      </trkpt>
      <trkpt lat="43.60699" lon="6.31082">
        <ele>730</ele>
        <time>2023-01-06T14:23:12Z</time>
      </trkpt>
      <trkpt lat="43.60699" lon="6.31081">
        <ele>730</ele>
        <time>2023-01-06T14:23:13Z</time>
      </trkpt>
      <trkpt lat="43.60698" lon="6.3108">
        <ele>730</ele>
        <time>2023-01-06T14:23:14Z</time>
      </trkpt>
      <trkpt lat="43.60698" lon="6.31079">
        <ele>730</ele>
        <time>2023-01-06T14:23:15Z</time>
      </trkpt>
      <trkpt lat="43.60697" lon="6.31079">
        <ele>730</ele>
        <time>2023-01-06T14:23:16Z</time>
      </trkpt>
      <trkpt lat="43.60697" lon="6.31078">
        <ele>728</ele>
        <time>2023-01-06T14:23:17Z</time>
      </trkpt>
      <trkpt lat="43.60696" lon="6.31077">
        <ele>728</ele>
        <time>2023-01-06T14:23:18Z</time>
      </trkpt>
      <trkpt lat="43.60695" lon="6.31077">
        <ele>728</ele>
        <time>2023-01-06T14:23:19Z</time>
      </trkpt>
      <trkpt lat="43.60695" lon="6.31076">
        <ele>728</ele>
        <time>2023-01-06T14:23:20Z</time>
      </trkpt>
      <trkpt lat="43.60694" lon="6.31075">
        <ele>727</ele>
        <time>2023-01-06T14:23:21Z</time>
      </trkpt>
      <trkpt lat="43.60694" lon="6.31074">
        <ele>727</ele>
        <time>2023-01-06T14:23:22Z</time>
      </trkpt>
      <trkpt lat="43.60694" lon="6.31073">
        <ele>727</ele>
        <time>2023-01-06T14:23:23Z</time>
      </trkpt>
      <trkpt lat="43.60694" lon="6.31072">
        <ele>727</ele>
        <time>2023-01-06T14:23:24Z</time>
      </trkpt>
      <trkpt lat="43.60694" lon="6.31071">
        <ele>727</ele>
        <time>2023-01-06T14:23:25Z</time>
      </trkpt>
      <trkpt lat="43.60693" lon="6.3107">
        <ele>727</ele>
        <time>2023-01-06T14:23:26Z</time>
      </trkpt>
      <trkpt lat="43.60693" lon="6.31069">
        <ele>727</ele>
        <time>2023-01-06T14:23:27Z</time>
      </trkpt>
      <trkpt lat="43.60693" lon="6.31068">
        <ele>727</ele>
        <time>2023-01-06T14:23:28Z</time>
      </trkpt>
      <trkpt lat="43.60693" lon="6.31066">
        <ele>726</ele>
        <time>2023-01-06T14:23:29Z</time>
      </trkpt>
      <trkpt lat="43.60692" lon="6.31065">
        <ele>725</ele>
        <time>2023-01-06T14:23:30Z</time>
      </trkpt>
      <trkpt lat="43.60692" lon="6.31064">
        <ele>725</ele>
        <time>2023-01-06T14:23:31Z</time>
      </trkpt>
      <trkpt lat="43.60692" lon="6.31062">
        <ele>725</ele>
        <time>2023-01-06T14:23:32Z</time>
      </trkpt>
      <trkpt lat="43.60691" lon="6.31061">
        <ele>725</ele>
        <time>2023-01-06T14:23:33Z</time>
      </trkpt>
      <trkpt lat="43.60691" lon="6.31061">
        <ele>725</ele>
        <time>2023-01-06T14:23:34Z</time>
      </trkpt>
      <trkpt lat="43.6069" lon="6.3106">
        <ele>725</ele>
        <time>2023-01-06T14:23:35Z</time>
      </trkpt>
      <trkpt lat="43.6069" lon="6.31059">
        <ele>725</ele>
        <time>2023-01-06T14:23:36Z</time>
      </trkpt>
      <trkpt lat="43.60689" lon="6.31058">
        <ele>724</ele>
        <time>2023-01-06T14:23:37Z</time>
      </trkpt>
      <trkpt lat="43.60688" lon="6.31057">
        <ele>724</ele>
        <time>2023-01-06T14:23:38Z</time>
      </trkpt>
      <trkpt lat="43.60687" lon="6.31056">
        <ele>724</ele>
        <time>2023-01-06T14:23:39Z</time>
      </trkpt>
      <trkpt lat="43.60686" lon="6.31055">
        <ele>724</ele>
        <time>2023-01-06T14:23:40Z</time>
      </trkpt>
      <trkpt lat="43.60686" lon="6.31055">
        <ele>724</ele>
        <time>2023-01-06T14:23:41Z</time>
      </trkpt>
      <trkpt lat="43.60685" lon="6.31054">
        <ele>724</ele>
        <time>2023-01-06T14:23:42Z</time>
      </trkpt>
      <trkpt lat="43.60684" lon="6.31053">
        <ele>724</ele>
        <time>2023-01-06T14:23:43Z</time>
      </trkpt>
      <trkpt lat="43.60683" lon="6.31053">
        <ele>723</ele>
        <time>2023-01-06T14:23:44Z</time>
      </trkpt>
      <trkpt lat="43.60683" lon="6.31052">
        <ele>723</ele>
        <time>2023-01-06T14:23:45Z</time>
      </trkpt>
      <trkpt lat="43.60682" lon="6.31051">
        <ele>723</ele>
        <time>2023-01-06T14:23:46Z</time>
      </trkpt>
      <trkpt lat="43.60681" lon="6.3105">
        <ele>723</ele>
        <time>2023-01-06T14:23:47Z</time>
      </trkpt>
      <trkpt lat="43.6068" lon="6.3105">
        <ele>723</ele>
        <time>2023-01-06T14:23:48Z</time>
      </trkpt>
      <trkpt lat="43.6068" lon="6.31051">
        <ele>723</ele>
        <time>2023-01-06T14:23:49Z</time>
      </trkpt>
      <trkpt lat="43.60679" lon="6.31052">
        <ele>723</ele>
        <time>2023-01-06T14:23:50Z</time>
      </trkpt>
      <trkpt lat="43.60678" lon="6.31051">
        <ele>723</ele>
        <time>2023-01-06T14:23:51Z</time>
      </trkpt>
      <trkpt lat="43.60677" lon="6.3105">
        <ele>723</ele>
        <time>2023-01-06T14:23:52Z</time>
      </trkpt>
      <trkpt lat="43.60677" lon="6.31049">
        <ele>723</ele>
        <time>2023-01-06T14:23:53Z</time>
      </trkpt>
      <trkpt lat="43.60676" lon="6.31049">
        <ele>723</ele>
        <time>2023-01-06T14:23:54Z</time>
      </trkpt>
      <trkpt lat="43.60676" lon="6.31048">
        <ele>723</ele>
        <time>2023-01-06T14:23:55Z</time>
      </trkpt>
      <trkpt lat="43.60675" lon="6.31047">
        <ele>723</ele>
        <time>2023-01-06T14:23:56Z</time>
      </trkpt>
      <trkpt lat="43.60675" lon="6.31046">
        <ele>723</ele>
        <time>2023-01-06T14:23:57Z</time>
      </trkpt>
      <trkpt lat="43.60674" lon="6.31045">
        <ele>723</ele>
        <time>2023-01-06T14:23:58Z</time>
      </trkpt>
      <trkpt lat="43.60673" lon="6.31044">
        <ele>723</ele>
        <time>2023-01-06T14:23:59Z</time>
      </trkpt>
      <trkpt lat="43.60673" lon="6.31043">
        <ele>723</ele>
        <time>2023-01-06T14:24:00Z</time>
      </trkpt>
      <trkpt lat="43.60673" lon="6.31041">
        <ele>723</ele>
        <time>2023-01-06T14:24:01Z</time>
      </trkpt>
      <trkpt lat="43.60673" lon="6.3104">
        <ele>723</ele>
        <time>2023-01-06T14:24:02Z</time>
      </trkpt>
      <trkpt lat="43.60672" lon="6.31039">
        <ele>722</ele>
        <time>2023-01-06T14:24:03Z</time>
      </trkpt>
      <trkpt lat="43.60672" lon="6.31037">
        <ele>722</ele>
        <time>2023-01-06T14:24:04Z</time>
      </trkpt>
      <trkpt lat="43.60672" lon="6.31036">
        <ele>722</ele>
        <time>2023-01-06T14:24:05Z</time>
      </trkpt>
      <trkpt lat="43.60672" lon="6.31034">
        <ele>722</ele>
        <time>2023-01-06T14:24:06Z</time>
      </trkpt>
      <trkpt lat="43.60671" lon="6.31033">
        <ele>722</ele>
        <time>2023-01-06T14:24:07Z</time>
      </trkpt>
      <trkpt lat="43.6067" lon="6.31032">
        <ele>722</ele>
        <time>2023-01-06T14:24:08Z</time>
      </trkpt>
      <trkpt lat="43.6067" lon="6.31031">
        <ele>722</ele>
        <time>2023-01-06T14:24:09Z</time>
      </trkpt>
      <trkpt lat="43.6067" lon="6.3103">
        <ele>722</ele>
        <time>2023-01-06T14:24:10Z</time>
      </trkpt>
      <trkpt lat="43.60669" lon="6.31029">
        <ele>722</ele>
        <time>2023-01-06T14:24:11Z</time>
      </trkpt>
      <trkpt lat="43.60668" lon="6.31028">
        <ele>722</ele>
        <time>2023-01-06T14:24:12Z</time>
      </trkpt>
      <trkpt lat="43.60667" lon="6.31027">
        <ele>722</ele>
        <time>2023-01-06T14:24:13Z</time>
      </trkpt>
      <trkpt lat="43.60666" lon="6.31026">
        <ele>721</ele>
        <time>2023-01-06T14:24:14Z</time>
      </trkpt>
      <trkpt lat="43.60666" lon="6.31025">
        <ele>720</ele>
        <time>2023-01-06T14:24:15Z</time>
      </trkpt>
      <trkpt lat="43.60665" lon="6.31024">
        <ele>720</ele>
        <time>2023-01-06T14:24:16Z</time>
      </trkpt>
      <trkpt lat="43.60664" lon="6.31023">
        <ele>720</ele>
        <time>2023-01-06T14:24:17Z</time>
      </trkpt>
      <trkpt lat="43.60664" lon="6.31022">
        <ele>720</ele>
        <time>2023-01-06T14:24:18Z</time>
      </trkpt>
      <trkpt lat="43.60663" lon="6.31021">
        <ele>719</ele>
        <time>2023-01-06T14:24:19Z</time>
      </trkpt>
      <trkpt lat="43.60662" lon="6.3102">
        <ele>719</ele>
        <time>2023-01-06T14:24:20Z</time>
      </trkpt>
      <trkpt lat="43.60661" lon="6.31019">
        <ele>719</ele>
        <time>2023-01-06T14:24:21Z</time>
      </trkpt>
      <trkpt lat="43.6066" lon="6.31019">
        <ele>719</ele>
        <time>2023-01-06T14:24:22Z</time>
      </trkpt>
      <trkpt lat="43.60659" lon="6.31018">
        <ele>719</ele>
        <time>2023-01-06T14:24:23Z</time>
      </trkpt>
      <trkpt lat="43.60659" lon="6.31017">
        <ele>718</ele>
        <time>2023-01-06T14:24:24Z</time>
      </trkpt>
      <trkpt lat="43.60658" lon="6.31016">
        <ele>718</ele>
        <time>2023-01-06T14:24:25Z</time>
      </trkpt>
      <trkpt lat="43.60657" lon="6.31016">
        <ele>718</ele>
        <time>2023-01-06T14:24:26Z</time>
      </trkpt>
      <trkpt lat="43.60657" lon="6.31015">
        <ele>718</ele>
        <time>2023-01-06T14:24:27Z</time>
      </trkpt>
      <trkpt lat="43.60656" lon="6.31015">
        <ele>717</ele>
        <time>2023-01-06T14:24:28Z</time>
      </trkpt>
      <trkpt lat="43.60655" lon="6.31014">
        <ele>717</ele>
        <time>2023-01-06T14:24:29Z</time>
      </trkpt>
      <trkpt lat="43.60655" lon="6.31013">
        <ele>717</ele>
        <time>2023-01-06T14:24:30Z</time>
      </trkpt>
      <trkpt lat="43.60654" lon="6.31012">
        <ele>717</ele>
        <time>2023-01-06T14:24:31Z</time>
      </trkpt>
      <trkpt lat="43.60654" lon="6.31011">
        <ele>717</ele>
        <time>2023-01-06T14:24:32Z</time>
      </trkpt>
      <trkpt lat="43.60653" lon="6.3101">
        <ele>717</ele>
        <time>2023-01-06T14:24:33Z</time>
      </trkpt>
      <trkpt lat="43.60653" lon="6.31009">
        <ele>717</ele>
        <time>2023-01-06T14:24:34Z</time>
      </trkpt>
      <trkpt lat="43.60652" lon="6.31008">
        <ele>717</ele>
        <time>2023-01-06T14:24:35Z</time>
      </trkpt>
      <trkpt lat="43.60652" lon="6.31007">
        <ele>717</ele>
        <time>2023-01-06T14:24:36Z</time>
      </trkpt>
      <trkpt lat="43.60651" lon="6.31006">
        <ele>717</ele>
        <time>2023-01-06T14:24:37Z</time>
      </trkpt>
      <trkpt lat="43.60651" lon="6.31004">
        <ele>717</ele>
        <time>2023-01-06T14:24:38Z</time>
      </trkpt>
      <trkpt lat="43.6065" lon="6.31003">
        <ele>717</ele>
        <time>2023-01-06T14:24:39Z</time>
      </trkpt>
      <trkpt lat="43.6065" lon="6.31002">
        <ele>717</ele>
        <time>2023-01-06T14:24:40Z</time>
      </trkpt>
      <trkpt lat="43.60649" lon="6.31001">
        <ele>717</ele>
        <time>2023-01-06T14:24:41Z</time>
      </trkpt>
      <trkpt lat="43.60649" lon="6.31">
        <ele>717</ele>
        <time>2023-01-06T14:24:42Z</time>
      </trkpt>
      <trkpt lat="43.60648" lon="6.31">
        <ele>717</ele>
        <time>2023-01-06T14:24:43Z</time>
      </trkpt>
      <trkpt lat="43.60648" lon="6.30999">
        <ele>717</ele>
        <time>2023-01-06T14:24:44Z</time>
      </trkpt>
      <trkpt lat="43.60647" lon="6.30998">
        <ele>717</ele>
        <time>2023-01-06T14:24:45Z</time>
      </trkpt>
      <trkpt lat="43.60646" lon="6.30998">
        <ele>717</ele>
        <time>2023-01-06T14:24:46Z</time>
      </trkpt>
      <trkpt lat="43.60645" lon="6.30997">
        <ele>717</ele>
        <time>2023-01-06T14:24:47Z</time>
      </trkpt>
      <trkpt lat="43.60644" lon="6.30997">
        <ele>717</ele>
        <time>2023-01-06T14:24:48Z</time>
      </trkpt>
      <trkpt lat="43.60643" lon="6.30997">
        <ele>717</ele>
        <time>2023-01-06T14:24:49Z</time>
      </trkpt>
      <trkpt lat="43.60642" lon="6.30996">
        <ele>717</ele>
        <time>2023-01-06T14:24:50Z</time>
      </trkpt>
      <trkpt lat="43.60641" lon="6.30996">
        <ele>717</ele>
        <time>2023-01-06T14:24:51Z</time>
      </trkpt>
      <trkpt lat="43.6064" lon="6.30996">
        <ele>717</ele>
        <time>2023-01-06T14:24:52Z</time>
      </trkpt>
      <trkpt lat="43.60639" lon="6.30996">
        <ele>717</ele>
        <time>2023-01-06T14:24:53Z</time>
      </trkpt>
      <trkpt lat="43.60638" lon="6.30996">
        <ele>717</ele>
        <time>2023-01-06T14:24:54Z</time>
      </trkpt>
      <trkpt lat="43.60637" lon="6.30996">
        <ele>717</ele>
        <time>2023-01-06T14:24:55Z</time>
      </trkpt>
      <trkpt lat="43.60636" lon="6.30996">
        <ele>717</ele>
        <time>2023-01-06T14:24:56Z</time>
      </trkpt>
      <trkpt lat="43.60636" lon="6.30996">
        <ele>717</ele>
        <time>2023-01-06T14:24:57Z</time>
      </trkpt>
      <trkpt lat="43.60635" lon="6.30997">
        <ele>717</ele>
        <time>2023-01-06T14:24:58Z</time>
      </trkpt>
      <trkpt lat="43.60634" lon="6.30997">
        <ele>716</ele>
        <time>2023-01-06T14:24:59Z</time>
      </trkpt>
      <trkpt lat="43.60633" lon="6.30997">
        <ele>716</ele>
        <time>2023-01-06T14:25:00Z</time>
      </trkpt>
      <trkpt lat="43.60632" lon="6.30997">
        <ele>716</ele>
        <time>2023-01-06T14:25:01Z</time>
      </trkpt>
      <trkpt lat="43.60632" lon="6.30996">
        <ele>716</ele>
        <time>2023-01-06T14:25:02Z</time>
      </trkpt>
      <trkpt lat="43.60631" lon="6.30996">
        <ele>715</ele>
        <time>2023-01-06T14:25:03Z</time>
      </trkpt>
      <trkpt lat="43.6063" lon="6.30996">
        <ele>715</ele>
        <time>2023-01-06T14:25:04Z</time>
      </trkpt>
      <trkpt lat="43.60629" lon="6.30995">
        <ele>715</ele>
        <time>2023-01-06T14:25:05Z</time>
      </trkpt>
      <trkpt lat="43.60628" lon="6.30995">
        <ele>715</ele>
        <time>2023-01-06T14:25:06Z</time>
      </trkpt>
      <trkpt lat="43.60627" lon="6.30994">
        <ele>715</ele>
        <time>2023-01-06T14:25:07Z</time>
      </trkpt>
      <trkpt lat="43.60626" lon="6.30993">
        <ele>715</ele>
        <time>2023-01-06T14:25:08Z</time>
      </trkpt>
      <trkpt lat="43.60625" lon="6.30993">
        <ele>715</ele>
        <time>2023-01-06T14:25:09Z</time>
      </trkpt>
      <trkpt lat="43.60624" lon="6.30992">
        <ele>715</ele>
        <time>2023-01-06T14:25:10Z</time>
      </trkpt>
      <trkpt lat="43.60623" lon="6.30992">
        <ele>715</ele>
        <time>2023-01-06T14:25:11Z</time>
      </trkpt>
      <trkpt lat="43.60622" lon="6.30991">
        <ele>715</ele>
        <time>2023-01-06T14:25:12Z</time>
      </trkpt>
      <trkpt lat="43.60621" lon="6.3099">
        <ele>715</ele>
        <time>2023-01-06T14:25:13Z</time>
      </trkpt>
      <trkpt lat="43.6062" lon="6.30989">
        <ele>714</ele>
        <time>2023-01-06T14:25:14Z</time>
      </trkpt>
      <trkpt lat="43.60619" lon="6.30988">
        <ele>714</ele>
        <time>2023-01-06T14:25:15Z</time>
      </trkpt>
      <trkpt lat="43.60618" lon="6.30987">
        <ele>713</ele>
        <time>2023-01-06T14:25:16Z</time>
      </trkpt>
      <trkpt lat="43.60617" lon="6.30986">
        <ele>713</ele>
        <time>2023-01-06T14:25:17Z</time>
      </trkpt>
      <trkpt lat="43.60616" lon="6.30985">
        <ele>713</ele>
        <time>2023-01-06T14:25:18Z</time>
      </trkpt>
      <trkpt lat="43.60614" lon="6.30984">
        <ele>713</ele>
        <time>2023-01-06T14:25:19Z</time>
      </trkpt>
      <trkpt lat="43.60614" lon="6.30983">
        <ele>713</ele>
        <time>2023-01-06T14:25:20Z</time>
      </trkpt>
      <trkpt lat="43.60613" lon="6.30983">
        <ele>713</ele>
        <time>2023-01-06T14:25:21Z</time>
      </trkpt>
      <trkpt lat="43.60612" lon="6.30982">
        <ele>713</ele>
        <time>2023-01-06T14:25:22Z</time>
      </trkpt>
      <trkpt lat="43.60612" lon="6.30981">
        <ele>713</ele>
        <time>2023-01-06T14:25:23Z</time>
      </trkpt>
      <trkpt lat="43.60611" lon="6.30981">
        <ele>713</ele>
        <time>2023-01-06T14:25:24Z</time>
      </trkpt>
      <trkpt lat="43.6061" lon="6.3098">
        <ele>713</ele>
        <time>2023-01-06T14:25:25Z</time>
      </trkpt>
      <trkpt lat="43.6061" lon="6.30979">
        <ele>713</ele>
        <time>2023-01-06T14:25:26Z</time>
      </trkpt>
      <trkpt lat="43.6061" lon="6.30978">
        <ele>713</ele>
        <time>2023-01-06T14:25:27Z</time>
      </trkpt>
      <trkpt lat="43.60609" lon="6.30977">
        <ele>713</ele>
        <time>2023-01-06T14:25:28Z</time>
      </trkpt>
      <trkpt lat="43.60609" lon="6.30976">
        <ele>713</ele>
        <time>2023-01-06T14:25:29Z</time>
      </trkpt>
      <trkpt lat="43.60609" lon="6.30975">
        <ele>713</ele>
        <time>2023-01-06T14:25:30Z</time>
      </trkpt>
      <trkpt lat="43.60608" lon="6.30974">
        <ele>713</ele>
        <time>2023-01-06T14:25:31Z</time>
      </trkpt>
      <trkpt lat="43.60608" lon="6.30973">
        <ele>714</ele>
        <time>2023-01-06T14:25:32Z</time>
      </trkpt>
      <trkpt lat="43.60607" lon="6.30971">
        <ele>714</ele>
        <time>2023-01-06T14:25:33Z</time>
      </trkpt>
      <trkpt lat="43.60607" lon="6.3097">
        <ele>714</ele>
        <time>2023-01-06T14:25:34Z</time>
      </trkpt>
      <trkpt lat="43.60606" lon="6.30969">
        <ele>714</ele>
        <time>2023-01-06T14:25:35Z</time>
      </trkpt>
      <trkpt lat="43.60606" lon="6.30967">
        <ele>715</ele>
        <time>2023-01-06T14:25:36Z</time>
      </trkpt>
      <trkpt lat="43.60605" lon="6.30966">
        <ele>715</ele>
        <time>2023-01-06T14:25:37Z</time>
      </trkpt>
      <trkpt lat="43.60605" lon="6.30965">
        <ele>715</ele>
        <time>2023-01-06T14:25:38Z</time>
      </trkpt>
      <trkpt lat="43.60605" lon="6.30964">
        <ele>715</ele>
        <time>2023-01-06T14:25:39Z</time>
      </trkpt>
      <trkpt lat="43.60605" lon="6.30963">
        <ele>715</ele>
        <time>2023-01-06T14:25:40Z</time>
      </trkpt>
      <trkpt lat="43.60604" lon="6.30962">
        <ele>716</ele>
        <time>2023-01-06T14:25:41Z</time>
      </trkpt>
      <trkpt lat="43.60604" lon="6.30961">
        <ele>716</ele>
        <time>2023-01-06T14:25:42Z</time>
      </trkpt>
      <trkpt lat="43.60604" lon="6.3096">
        <ele>716</ele>
        <time>2023-01-06T14:25:43Z</time>
      </trkpt>
      <trkpt lat="43.60604" lon="6.3096">
        <ele>716</ele>
        <time>2023-01-06T14:25:44Z</time>
      </trkpt>
      <trkpt lat="43.60604" lon="6.30959">
        <ele>716</ele>
        <time>2023-01-06T14:25:45Z</time>
      </trkpt>
      <trkpt lat="43.60604" lon="6.30958">
        <ele>716</ele>
        <time>2023-01-06T14:25:46Z</time>
      </trkpt>
      <trkpt lat="43.60604" lon="6.30958">
        <ele>716</ele>
        <time>2023-01-06T14:25:47Z</time>
      </trkpt>
      <trkpt lat="43.60604" lon="6.30957">
        <ele>716</ele>
        <time>2023-01-06T14:25:48Z</time>
      </trkpt>
      <trkpt lat="43.60604" lon="6.30956">
        <ele>716</ele>
        <time>2023-01-06T14:25:49Z</time>
      </trkpt>
      <trkpt lat="43.60605" lon="6.30955">
        <ele>716</ele>
        <time>2023-01-06T14:25:50Z</time>
      </trkpt>
      <trkpt lat="43.60605" lon="6.30954">
        <ele>716</ele>
        <time>2023-01-06T14:25:51Z</time>
      </trkpt>
      <trkpt lat="43.60605" lon="6.30954">
        <ele>715</ele>
        <time>2023-01-06T14:25:52Z</time>
      </trkpt>
      <trkpt lat="43.60605" lon="6.30953">
        <ele>715</ele>
        <time>2023-01-06T14:25:53Z</time>
      </trkpt>
      <trkpt lat="43.60606" lon="6.30953">
        <ele>715</ele>
        <time>2023-01-06T14:25:54Z</time>
      </trkpt>
      <trkpt lat="43.60606" lon="6.30952">
        <ele>715</ele>
        <time>2023-01-06T14:25:55Z</time>
      </trkpt>
      <trkpt lat="43.60606" lon="6.30951">
        <ele>715</ele>
        <time>2023-01-06T14:25:56Z</time>
      </trkpt>
      <trkpt lat="43.60607" lon="6.30951">
        <ele>714</ele>
        <time>2023-01-06T14:25:57Z</time>
      </trkpt>
      <trkpt lat="43.60607" lon="6.3095">
        <ele>714</ele>
        <time>2023-01-06T14:25:58Z</time>
      </trkpt>
      <trkpt lat="43.60606" lon="6.30949">
        <ele>714</ele>
        <time>2023-01-06T14:25:59Z</time>
      </trkpt>
      <trkpt lat="43.60605" lon="6.30949">
        <ele>714</ele>
        <time>2023-01-06T14:26:00Z</time>
      </trkpt>
      <trkpt lat="43.60604" lon="6.30949">
        <ele>714</ele>
        <time>2023-01-06T14:26:01Z</time>
      </trkpt>
      <trkpt lat="43.60603" lon="6.30948">
        <ele>714</ele>
        <time>2023-01-06T14:26:02Z</time>
      </trkpt>
      <trkpt lat="43.60602" lon="6.30948">
        <ele>714</ele>
        <time>2023-01-06T14:26:03Z</time>
      </trkpt>
      <trkpt lat="43.60602" lon="6.30948">
        <ele>714</ele>
        <time>2023-01-06T14:26:04Z</time>
      </trkpt>
      <trkpt lat="43.60602" lon="6.30948">
        <ele>714</ele>
        <time>2023-01-06T14:26:05Z</time>
      </trkpt>
      <trkpt lat="43.60602" lon="6.30949">
        <ele>714</ele>
        <time>2023-01-06T14:26:06Z</time>
      </trkpt>
      <trkpt lat="43.60603" lon="6.3095">
        <ele>714</ele>
        <time>2023-01-06T14:26:07Z</time>
      </trkpt>
      <trkpt lat="43.60603" lon="6.30951">
        <ele>714</ele>
        <time>2023-01-06T14:26:08Z</time>
      </trkpt>
      <trkpt lat="43.60603" lon="6.30953">
        <ele>714</ele>
        <time>2023-01-06T14:26:09Z</time>
      </trkpt>
      <trkpt lat="43.60604" lon="6.30954">
        <ele>714</ele>
        <time>2023-01-06T14:26:10Z</time>
      </trkpt>
      <trkpt lat="43.60604" lon="6.30955">
        <ele>714</ele>
        <time>2023-01-06T14:26:11Z</time>
      </trkpt>
      <trkpt lat="43.60604" lon="6.30955">
        <ele>714</ele>
        <time>2023-01-06T14:26:12Z</time>
      </trkpt>
      <trkpt lat="43.60604" lon="6.30955">
        <ele>714</ele>
        <time>2023-01-06T14:26:13Z</time>
      </trkpt>
      <trkpt lat="43.60604" lon="6.30955">
        <ele>714</ele>
        <time>2023-01-06T14:26:14Z</time>
      </trkpt>
      <trkpt lat="43.60604" lon="6.30955">
        <ele>714</ele>
        <time>2023-01-06T14:26:15Z</time>
      </trkpt>
      <trkpt lat="43.60604" lon="6.30955">
        <ele>714</ele>
        <time>2023-01-06T14:26:16Z</time>
      </trkpt>
      <trkpt lat="43.60604" lon="6.30955">
        <ele>714</ele>
        <time>2023-01-06T14:26:17Z</time>
      </trkpt>
      <trkpt lat="43.60604" lon="6.30955">
        <ele>714</ele>
        <time>2023-01-06T14:26:18Z</time>
      </trkpt>
      <trkpt lat="43.60604" lon="6.30955">
        <ele>714</ele>
        <time>2023-01-06T14:26:19Z</time>
      </trkpt>
      <trkpt lat="43.60604" lon="6.30955">
        <ele>714</ele>
        <time>2023-01-06T14:26:20Z</time>
      </trkpt>
      <trkpt lat="43.60604" lon="6.30955">
        <ele>714</ele>
        <time>2023-01-06T14:26:21Z</time>
      </trkpt>
      <trkpt lat="43.60604" lon="6.30955">
        <ele>714</ele>
        <time>2023-01-06T14:26:22Z</time>
      </trkpt>
      <trkpt lat="43.60604" lon="6.30955">
        <ele>714</ele>
        <time>2023-01-06T14:26:23Z</time>
      </trkpt>
      <trkpt lat="43.60604" lon="6.30955">
        <ele>714</ele>
        <time>2023-01-06T14:26:24Z</time>
      </trkpt>
      <trkpt lat="43.60604" lon="6.30955">
        <ele>714</ele>
        <time>2023-01-06T14:26:25Z</time>
      </trkpt>
      <trkpt lat="43.60604" lon="6.30955">
        <ele>714</ele>
        <time>2023-01-06T14:26:26Z</time>
      </trkpt>
      <trkpt lat="43.60604" lon="6.30955">
        <ele>714</ele>
        <time>2023-01-06T14:26:27Z</time>
      </trkpt>
      <trkpt lat="43.60604" lon="6.30955">
        <ele>714</ele>
        <time>2023-01-06T14:26:28Z</time>
      </trkpt>
      <trkpt lat="43.60604" lon="6.30955">
        <ele>714</ele>
        <time>2023-01-06T14:26:29Z</time>
      </trkpt>
      <trkpt lat="43.60604" lon="6.30955">
        <ele>714</ele>
        <time>2023-01-06T14:26:30Z</time>
      </trkpt>
      <trkpt lat="43.60607" lon="6.30956">
        <ele>714</ele>
        <time>2023-01-06T14:26:31Z</time>
      </trkpt>
      <trkpt lat="43.60608" lon="6.30956">
        <ele>714</ele>
        <time>2023-01-06T14:26:32Z</time>
      </trkpt>
      <trkpt lat="43.60608" lon="6.30955">
        <ele>714</ele>
        <time>2023-01-06T14:26:33Z</time>
      </trkpt>
      <trkpt lat="43.60608" lon="6.30955">
        <ele>714</ele>
        <time>2023-01-06T14:26:34Z</time>
      </trkpt>
      <trkpt lat="43.60608" lon="6.30955">
        <ele>714</ele>
        <time>2023-01-06T14:26:35Z</time>
      </trkpt>
      <trkpt lat="43.60608" lon="6.30955">
        <ele>714</ele>
        <time>2023-01-06T14:26:36Z</time>
      </trkpt>
      <trkpt lat="43.60608" lon="6.30955">
        <ele>714</ele>
        <time>2023-01-06T14:26:37Z</time>
      </trkpt>
      <trkpt lat="43.60608" lon="6.30955">
        <ele>714</ele>
        <time>2023-01-06T14:26:38Z</time>
      </trkpt>
      <trkpt lat="43.60608" lon="6.30955">
        <ele>714</ele>
        <time>2023-01-06T14:26:39Z</time>
      </trkpt>
      <trkpt lat="43.60608" lon="6.30955">
        <ele>714</ele>
        <time>2023-01-06T14:26:40Z</time>
      </trkpt>
      <trkpt lat="43.60608" lon="6.30955">
        <ele>714</ele>
        <time>2023-01-06T14:26:41Z</time>
      </trkpt>
      <trkpt lat="43.60608" lon="6.30955">
        <ele>714</ele>
        <time>2023-01-06T14:26:42Z</time>
      </trkpt>
      <trkpt lat="43.60608" lon="6.30955">
        <ele>714</ele>
        <time>2023-01-06T14:26:43Z</time>
      </trkpt>
      <trkpt lat="43.60608" lon="6.30955">
        <ele>714</ele>
        <time>2023-01-06T14:26:44Z</time>
      </trkpt>
      <trkpt lat="43.60608" lon="6.30955">
        <ele>714</ele>
        <time>2023-01-06T14:26:45Z</time>
      </trkpt>
      <trkpt lat="43.60608" lon="6.30955">
        <ele>714</ele>
        <time>2023-01-06T14:26:46Z</time>
      </trkpt>
      <trkpt lat="43.60608" lon="6.30955">
        <ele>714</ele>
        <time>2023-01-06T14:26:47Z</time>
      </trkpt>
      <trkpt lat="43.60608" lon="6.30955">
        <ele>714</ele>
        <time>2023-01-06T14:26:48Z</time>
      </trkpt>
      <trkpt lat="43.60608" lon="6.30954">
        <ele>714</ele>
        <time>2023-01-06T14:26:49Z</time>
      </trkpt>
      <trkpt lat="43.60608" lon="6.30954">
        <ele>714</ele>
        <time>2023-01-06T14:26:50Z</time>
      </trkpt>
      <trkpt lat="43.60608" lon="6.30953">
        <ele>714</ele>
        <time>2023-01-06T14:26:51Z</time>
      </trkpt>
      <trkpt lat="43.60609" lon="6.30952">
        <ele>714</ele>
        <time>2023-01-06T14:26:52Z</time>
      </trkpt>
      <trkpt lat="43.60609" lon="6.30951">
        <ele>714</ele>
        <time>2023-01-06T14:26:53Z</time>
      </trkpt>
      <trkpt lat="43.60609" lon="6.3095">
        <ele>714</ele>
        <time>2023-01-06T14:26:54Z</time>
      </trkpt>
      <trkpt lat="43.60609" lon="6.3095">
        <ele>714</ele>
        <time>2023-01-06T14:26:55Z</time>
      </trkpt>
      <trkpt lat="43.60609" lon="6.3095">
        <ele>714</ele>
        <time>2023-01-06T14:26:56Z</time>
      </trkpt>
      <trkpt lat="43.60609" lon="6.3095">
        <ele>714</ele>
        <time>2023-01-06T14:26:57Z</time>
      </trkpt>
      <trkpt lat="43.60609" lon="6.3095">
        <ele>714</ele>
        <time>2023-01-06T14:26:58Z</time>
      </trkpt>
      <trkpt lat="43.60609" lon="6.3095">
        <ele>714</ele>
        <time>2023-01-06T14:26:59Z</time>
      </trkpt>
      <trkpt lat="43.60609" lon="6.3095">
        <ele>714</ele>
        <time>2023-01-06T14:27:00Z</time>
      </trkpt>
      <trkpt lat="43.60609" lon="6.3095">
        <ele>714</ele>
        <time>2023-01-06T14:27:01Z</time>
      </trkpt>
      <trkpt lat="43.60609" lon="6.3095">
        <ele>714</ele>
        <time>2023-01-06T14:27:02Z</time>
      </trkpt>
      <trkpt lat="43.60609" lon="6.3095">
        <ele>714</ele>
        <time>2023-01-06T14:27:03Z</time>
      </trkpt>
      <trkpt lat="43.60609" lon="6.3095">
        <ele>714</ele>
        <time>2023-01-06T14:27:04Z</time>
      </trkpt>
      <trkpt lat="43.60609" lon="6.3095">
        <ele>714</ele>
        <time>2023-01-06T14:27:05Z</time>
      </trkpt>
      <trkpt lat="43.60609" lon="6.3095">
        <ele>714</ele>
        <time>2023-01-06T14:27:06Z</time>
      </trkpt>
      <trkpt lat="43.60609" lon="6.3095">
        <ele>714</ele>
        <time>2023-01-06T14:27:07Z</time>
      </trkpt>
      <trkpt lat="43.60609" lon="6.3095">
        <ele>714</ele>
        <time>2023-01-06T14:27:08Z</time>
      </trkpt>
      <trkpt lat="43.60609" lon="6.3095">
        <ele>714</ele>
        <time>2023-01-06T14:27:09Z</time>
      </trkpt>
      <trkpt lat="43.60609" lon="6.3095">
        <ele>714</ele>
        <time>2023-01-06T14:27:10Z</time>
      </trkpt>
      <trkpt lat="43.60609" lon="6.3095">
        <ele>714</ele>
        <time>2023-01-06T14:27:11Z</time>
      </trkpt>
      <trkpt lat="43.60609" lon="6.3095">
        <ele>714</ele>
        <time>2023-01-06T14:27:12Z</time>
      </trkpt>
      <trkpt lat="43.60609" lon="6.3095">
        <ele>714</ele>
        <time>2023-01-06T14:27:13Z</time>
      </trkpt>
      <trkpt lat="43.60609" lon="6.3095">
        <ele>714</ele>
        <time>2023-01-06T14:27:14Z</time>
      </trkpt>
      <trkpt lat="43.60609" lon="6.3095">
        <ele>714</ele>
        <time>2023-01-06T14:27:15Z</time>
      </trkpt>
      <trkpt lat="43.60609" lon="6.3095">
        <ele>714</ele>
        <time>2023-01-06T14:27:16Z</time>
      </trkpt>
      <trkpt lat="43.60609" lon="6.3095">
        <ele>714</ele>
        <time>2023-01-06T14:27:17Z</time>
      </trkpt>
      <trkpt lat="43.60609" lon="6.3095">
        <ele>714</ele>
        <time>2023-01-06T14:27:18Z</time>
      </trkpt>
      <trkpt lat="43.60609" lon="6.3095">
        <ele>714</ele>
        <time>2023-01-06T14:27:19Z</time>
      </trkpt>
      <trkpt lat="43.60609" lon="6.3095">
        <ele>714</ele>
        <time>2023-01-06T14:27:20Z</time>
      </trkpt>
      <trkpt lat="43.60609" lon="6.3095">
        <ele>714</ele>
        <time>2023-01-06T14:27:21Z</time>
      </trkpt>
      <trkpt lat="43.60609" lon="6.3095">
        <ele>714</ele>
        <time>2023-01-06T14:27:22Z</time>
      </trkpt>
      <trkpt lat="43.60609" lon="6.3095">
        <ele>714</ele>
        <time>2023-01-06T14:27:23Z</time>
      </trkpt>
      <trkpt lat="43.60609" lon="6.3095">
        <ele>714</ele>
        <time>2023-01-06T14:27:24Z</time>
      </trkpt>
      <trkpt lat="43.60609" lon="6.3095">
        <ele>714</ele>
        <time>2023-01-06T14:27:25Z</time>
      </trkpt>
      <trkpt lat="43.60609" lon="6.3095">
        <ele>714</ele>
        <time>2023-01-06T14:27:26Z</time>
      </trkpt>
      <trkpt lat="43.60609" lon="6.3095">
        <ele>714</ele>
        <time>2023-01-06T14:27:27Z</time>
      </trkpt>
      <trkpt lat="43.60609" lon="6.3095">
        <ele>714</ele>
        <time>2023-01-06T14:27:28Z</time>
      </trkpt>
      <trkpt lat="43.60609" lon="6.3095">
        <ele>714</ele>
        <time>2023-01-06T14:27:29Z</time>
      </trkpt>
      <trkpt lat="43.60609" lon="6.3095">
        <ele>714</ele>
        <time>2023-01-06T14:27:30Z</time>
      </trkpt>
      <trkpt lat="43.60609" lon="6.3095">
        <ele>714</ele>
        <time>2023-01-06T14:27:31Z</time>
      </trkpt>
      <trkpt lat="43.60609" lon="6.3095">
        <ele>714</ele>
        <time>2023-01-06T14:27:32Z</time>
      </trkpt>
      <trkpt lat="43.60609" lon="6.3095">
        <ele>714</ele>
        <time>2023-01-06T14:27:33Z</time>
      </trkpt>
      <trkpt lat="43.60609" lon="6.3095">
        <ele>714</ele>
        <time>2023-01-06T14:27:34Z</time>
      </trkpt>
      <trkpt lat="43.60609" lon="6.3095">
        <ele>714</ele>
        <time>2023-01-06T14:27:35Z</time>
      </trkpt>
      <trkpt lat="43.60609" lon="6.3095">
        <ele>714</ele>
        <time>2023-01-06T14:27:36Z</time>
      </trkpt>
      <trkpt lat="43.60609" lon="6.3095">
        <ele>714</ele>
        <time>2023-01-06T14:27:37Z</time>
      </trkpt>
      <trkpt lat="43.60609" lon="6.3095">
        <ele>714</ele>
        <time>2023-01-06T14:27:38Z</time>
      </trkpt>
      <trkpt lat="43.60609" lon="6.3095">
        <ele>714</ele>
        <time>2023-01-06T14:27:39Z</time>
      </trkpt>
      <trkpt lat="43.60609" lon="6.3095">
        <ele>714</ele>
        <time>2023-01-06T14:27:40Z</time>
      </trkpt>
      <trkpt lat="43.60609" lon="6.3095">
        <ele>714</ele>
        <time>2023-01-06T14:27:41Z</time>
      </trkpt>
      <trkpt lat="43.60609" lon="6.3095">
        <ele>714</ele>
        <time>2023-01-06T14:27:42Z</time>
      </trkpt>
      <trkpt lat="43.60609" lon="6.3095">
        <ele>714</ele>
        <time>2023-01-06T14:27:43Z</time>
      </trkpt>
      <trkpt lat="43.60609" lon="6.3095">
        <ele>714</ele>
        <time>2023-01-06T14:27:44Z</time>
      </trkpt>
      <trkpt lat="43.60609" lon="6.3095">
        <ele>714</ele>
        <time>2023-01-06T14:27:45Z</time>
      </trkpt>
      <trkpt lat="43.60609" lon="6.3095">
        <ele>714</ele>
        <time>2023-01-06T14:27:46Z</time>
      </trkpt>
      <trkpt lat="43.60609" lon="6.3095">
        <ele>714</ele>
        <time>2023-01-06T14:27:47Z</time>
      </trkpt>
      <trkpt lat="43.6061" lon="6.30949">
        <ele>714</ele>
        <time>2023-01-06T14:27:48Z</time>
      </trkpt>
      <trkpt lat="43.6061" lon="6.30948">
        <ele>714</ele>
        <time>2023-01-06T14:27:49Z</time>
      </trkpt>
      <trkpt lat="43.6061" lon="6.30949">
        <ele>714</ele>
        <time>2023-01-06T14:27:50Z</time>
      </trkpt>
      <trkpt lat="43.6061" lon="6.30949">
        <ele>714</ele>
        <time>2023-01-06T14:27:51Z</time>
      </trkpt>
      <trkpt lat="43.60611" lon="6.30948">
        <ele>714</ele>
        <time>2023-01-06T14:27:52Z</time>
      </trkpt>
      <trkpt lat="43.60611" lon="6.30948">
        <ele>714</ele>
        <time>2023-01-06T14:27:53Z</time>
      </trkpt>
      <trkpt lat="43.60612" lon="6.30948">
        <ele>714</ele>
        <time>2023-01-06T14:27:54Z</time>
      </trkpt>
      <trkpt lat="43.60612" lon="6.30947">
        <ele>714</ele>
        <time>2023-01-06T14:27:55Z</time>
      </trkpt>
      <trkpt lat="43.60613" lon="6.30946">
        <ele>714</ele>
        <time>2023-01-06T14:27:56Z</time>
      </trkpt>
      <trkpt lat="43.60613" lon="6.30945">
        <ele>714</ele>
        <time>2023-01-06T14:27:57Z</time>
      </trkpt>
      <trkpt lat="43.60614" lon="6.30944">
        <ele>714</ele>
        <time>2023-01-06T14:27:58Z</time>
      </trkpt>
      <trkpt lat="43.60614" lon="6.30943">
        <ele>713</ele>
        <time>2023-01-06T14:27:59Z</time>
      </trkpt>
      <trkpt lat="43.60614" lon="6.30943">
        <ele>712</ele>
        <time>2023-01-06T14:28:00Z</time>
      </trkpt>
      <trkpt lat="43.60615" lon="6.30942">
        <ele>712</ele>
        <time>2023-01-06T14:28:01Z</time>
      </trkpt>
      <trkpt lat="43.60615" lon="6.30941">
        <ele>712</ele>
        <time>2023-01-06T14:28:02Z</time>
      </trkpt>
      <trkpt lat="43.60616" lon="6.30941">
        <ele>712</ele>
        <time>2023-01-06T14:28:03Z</time>
      </trkpt>
      <trkpt lat="43.60616" lon="6.3094">
        <ele>712</ele>
        <time>2023-01-06T14:28:04Z</time>
      </trkpt>
      <trkpt lat="43.60617" lon="6.3094">
        <ele>712</ele>
        <time>2023-01-06T14:28:05Z</time>
      </trkpt>
      <trkpt lat="43.60617" lon="6.30939">
        <ele>712</ele>
        <time>2023-01-06T14:28:06Z</time>
      </trkpt>
      <trkpt lat="43.60618" lon="6.30938">
        <ele>712</ele>
        <time>2023-01-06T14:28:07Z</time>
      </trkpt>
      <trkpt lat="43.60618" lon="6.30937">
        <ele>712</ele>
        <time>2023-01-06T14:28:08Z</time>
      </trkpt>
      <trkpt lat="43.60619" lon="6.30936">
        <ele>712</ele>
        <time>2023-01-06T14:28:09Z</time>
      </trkpt>
      <trkpt lat="43.60619" lon="6.30935">
        <ele>712</ele>
        <time>2023-01-06T14:28:10Z</time>
      </trkpt>
      <trkpt lat="43.6062" lon="6.30934">
        <ele>712</ele>
        <time>2023-01-06T14:28:11Z</time>
      </trkpt>
      <trkpt lat="43.60621" lon="6.30933">
        <ele>712</ele>
        <time>2023-01-06T14:28:12Z</time>
      </trkpt>
      <trkpt lat="43.60621" lon="6.30932">
        <ele>712</ele>
        <time>2023-01-06T14:28:13Z</time>
      </trkpt>
      <trkpt lat="43.60622" lon="6.30931">
        <ele>712</ele>
        <time>2023-01-06T14:28:14Z</time>
      </trkpt>
      <trkpt lat="43.60623" lon="6.3093">
        <ele>712</ele>
        <time>2023-01-06T14:28:15Z</time>
      </trkpt>
      <trkpt lat="43.60623" lon="6.30929">
        <ele>712</ele>
        <time>2023-01-06T14:28:16Z</time>
      </trkpt>
      <trkpt lat="43.60624" lon="6.30928">
        <ele>712</ele>
        <time>2023-01-06T14:28:17Z</time>
      </trkpt>
      <trkpt lat="43.60624" lon="6.30928">
        <ele>712</ele>
        <time>2023-01-06T14:28:18Z</time>
      </trkpt>
      <trkpt lat="43.60624" lon="6.30927">
        <ele>712</ele>
        <time>2023-01-06T14:28:19Z</time>
      </trkpt>
      <trkpt lat="43.60625" lon="6.30926">
        <ele>712</ele>
        <time>2023-01-06T14:28:20Z</time>
      </trkpt>
      <trkpt lat="43.60625" lon="6.30926">
        <ele>712</ele>
        <time>2023-01-06T14:28:21Z</time>
      </trkpt>
      <trkpt lat="43.60625" lon="6.30925">
        <ele>712</ele>
        <time>2023-01-06T14:28:22Z</time>
      </trkpt>
      <trkpt lat="43.60625" lon="6.30923">
        <ele>712</ele>
        <time>2023-01-06T14:28:23Z</time>
      </trkpt>
      <trkpt lat="43.60626" lon="6.30921">
        <ele>712</ele>
        <time>2023-01-06T14:28:24Z</time>
      </trkpt>
      <trkpt lat="43.60626" lon="6.30918">
        <ele>712</ele>
        <time>2023-01-06T14:28:25Z</time>
      </trkpt>
      <trkpt lat="43.60626" lon="6.30916">
        <ele>712</ele>
        <time>2023-01-06T14:28:26Z</time>
      </trkpt>
      <trkpt lat="43.60626" lon="6.30914">
        <ele>712</ele>
        <time>2023-01-06T14:28:27Z</time>
      </trkpt>
      <trkpt lat="43.60627" lon="6.30913">
        <ele>712</ele>
        <time>2023-01-06T14:28:28Z</time>
      </trkpt>
      <trkpt lat="43.60627" lon="6.30911">
        <ele>712</ele>
        <time>2023-01-06T14:28:29Z</time>
      </trkpt>
      <trkpt lat="43.60627" lon="6.30909">
        <ele>712</ele>
        <time>2023-01-06T14:28:30Z</time>
      </trkpt>
      <trkpt lat="43.60627" lon="6.30907">
        <ele>712</ele>
        <time>2023-01-06T14:28:31Z</time>
      </trkpt>
      <trkpt lat="43.60627" lon="6.30906">
        <ele>712</ele>
        <time>2023-01-06T14:28:32Z</time>
      </trkpt>
      <trkpt lat="43.60627" lon="6.30904">
        <ele>712</ele>
        <time>2023-01-06T14:28:33Z</time>
      </trkpt>
      <trkpt lat="43.60626" lon="6.30903">
        <ele>712</ele>
        <time>2023-01-06T14:28:34Z</time>
      </trkpt>
      <trkpt lat="43.60626" lon="6.30902">
        <ele>712</ele>
        <time>2023-01-06T14:28:35Z</time>
      </trkpt>
      <trkpt lat="43.60626" lon="6.309">
        <ele>712</ele>
        <time>2023-01-06T14:28:36Z</time>
      </trkpt>
      <trkpt lat="43.60625" lon="6.30899">
        <ele>712</ele>
        <time>2023-01-06T14:28:37Z</time>
      </trkpt>
      <trkpt lat="43.60625" lon="6.30898">
        <ele>712</ele>
        <time>2023-01-06T14:28:38Z</time>
      </trkpt>
      <trkpt lat="43.60624" lon="6.30897">
        <ele>712</ele>
        <time>2023-01-06T14:28:39Z</time>
      </trkpt>
      <trkpt lat="43.60624" lon="6.30897">
        <ele>712</ele>
        <time>2023-01-06T14:28:40Z</time>
      </trkpt>
      <trkpt lat="43.60623" lon="6.30896">
        <ele>712</ele>
        <time>2023-01-06T14:28:41Z</time>
      </trkpt>
      <trkpt lat="43.60622" lon="6.30895">
        <ele>712</ele>
        <time>2023-01-06T14:28:42Z</time>
      </trkpt>
      <trkpt lat="43.60621" lon="6.30894">
        <ele>712</ele>
        <time>2023-01-06T14:28:43Z</time>
      </trkpt>
      <trkpt lat="43.6062" lon="6.30893">
        <ele>712</ele>
        <time>2023-01-06T14:28:44Z</time>
      </trkpt>
      <trkpt lat="43.6062" lon="6.30892">
        <ele>712</ele>
        <time>2023-01-06T14:28:45Z</time>
      </trkpt>
      <trkpt lat="43.60619" lon="6.30892">
        <ele>712</ele>
        <time>2023-01-06T14:28:46Z</time>
      </trkpt>
      <trkpt lat="43.60618" lon="6.30891">
        <ele>712</ele>
        <time>2023-01-06T14:28:47Z</time>
      </trkpt>
      <trkpt lat="43.60618" lon="6.3089">
        <ele>712</ele>
        <time>2023-01-06T14:28:48Z</time>
      </trkpt>
      <trkpt lat="43.60617" lon="6.30889">
        <ele>712</ele>
        <time>2023-01-06T14:28:49Z</time>
      </trkpt>
      <trkpt lat="43.60617" lon="6.30888">
        <ele>712</ele>
        <time>2023-01-06T14:28:50Z</time>
      </trkpt>
      <trkpt lat="43.60616" lon="6.30887">
        <ele>712</ele>
        <time>2023-01-06T14:28:51Z</time>
      </trkpt>
      <trkpt lat="43.60615" lon="6.30886">
        <ele>712</ele>
        <time>2023-01-06T14:28:52Z</time>
      </trkpt>
      <trkpt lat="43.60615" lon="6.30886">
        <ele>712</ele>
        <time>2023-01-06T14:28:53Z</time>
      </trkpt>
      <trkpt lat="43.60614" lon="6.30886">
        <ele>712</ele>
        <time>2023-01-06T14:28:54Z</time>
      </trkpt>
      <trkpt lat="43.60614" lon="6.30885">
        <ele>712</ele>
        <time>2023-01-06T14:28:55Z</time>
      </trkpt>
      <trkpt lat="43.60614" lon="6.30885">
        <ele>712</ele>
        <time>2023-01-06T14:28:56Z</time>
      </trkpt>
      <trkpt lat="43.60614" lon="6.30884">
        <ele>712</ele>
        <time>2023-01-06T14:28:57Z</time>
      </trkpt>
      <trkpt lat="43.60613" lon="6.30884">
        <ele>712</ele>
        <time>2023-01-06T14:28:58Z</time>
      </trkpt>
      <trkpt lat="43.60613" lon="6.30883">
        <ele>712</ele>
        <time>2023-01-06T14:28:59Z</time>
      </trkpt>
      <trkpt lat="43.60613" lon="6.30883">
        <ele>711</ele>
        <time>2023-01-06T14:29:00Z</time>
      </trkpt>
      <trkpt lat="43.60613" lon="6.30882">
        <ele>711</ele>
        <time>2023-01-06T14:29:01Z</time>
      </trkpt>
      <trkpt lat="43.60612" lon="6.30882">
        <ele>711</ele>
        <time>2023-01-06T14:29:02Z</time>
      </trkpt>
      <trkpt lat="43.60612" lon="6.30881">
        <ele>710</ele>
        <time>2023-01-06T14:29:03Z</time>
      </trkpt>
      <trkpt lat="43.60612" lon="6.30881">
        <ele>710</ele>
        <time>2023-01-06T14:29:04Z</time>
      </trkpt>
      <trkpt lat="43.60611" lon="6.3088">
        <ele>710</ele>
        <time>2023-01-06T14:29:05Z</time>
      </trkpt>
      <trkpt lat="43.60611" lon="6.3088">
        <ele>710</ele>
        <time>2023-01-06T14:29:06Z</time>
      </trkpt>
      <trkpt lat="43.6061" lon="6.3088">
        <ele>710</ele>
        <time>2023-01-06T14:29:07Z</time>
      </trkpt>
      <trkpt lat="43.6061" lon="6.30879">
        <ele>710</ele>
        <time>2023-01-06T14:29:08Z</time>
      </trkpt>
      <trkpt lat="43.6061" lon="6.30879">
        <ele>710</ele>
        <time>2023-01-06T14:29:09Z</time>
      </trkpt>
      <trkpt lat="43.6061" lon="6.30879">
        <ele>710</ele>
        <time>2023-01-06T14:29:10Z</time>
      </trkpt>
      <trkpt lat="43.60609" lon="6.30878">
        <ele>710</ele>
        <time>2023-01-06T14:29:11Z</time>
      </trkpt>
      <trkpt lat="43.60609" lon="6.30878">
        <ele>710</ele>
        <time>2023-01-06T14:29:12Z</time>
      </trkpt>
      <trkpt lat="43.60608" lon="6.30877">
        <ele>710</ele>
        <time>2023-01-06T14:29:13Z</time>
      </trkpt>
      <trkpt lat="43.60607" lon="6.30877">
        <ele>710</ele>
        <time>2023-01-06T14:29:14Z</time>
      </trkpt>
      <trkpt lat="43.60606" lon="6.30876">
        <ele>710</ele>
        <time>2023-01-06T14:29:15Z</time>
      </trkpt>
      <trkpt lat="43.60606" lon="6.30875">
        <ele>709</ele>
        <time>2023-01-06T14:29:16Z</time>
      </trkpt>
      <trkpt lat="43.60605" lon="6.30874">
        <ele>709</ele>
        <time>2023-01-06T14:29:17Z</time>
      </trkpt>
      <trkpt lat="43.60605" lon="6.30874">
        <ele>709</ele>
        <time>2023-01-06T14:29:18Z</time>
      </trkpt>
      <trkpt lat="43.60604" lon="6.30873">
        <ele>709</ele>
        <time>2023-01-06T14:29:19Z</time>
      </trkpt>
      <trkpt lat="43.60603" lon="6.30873">
        <ele>709</ele>
        <time>2023-01-06T14:29:20Z</time>
      </trkpt>
      <trkpt lat="43.60603" lon="6.30873">
        <ele>709</ele>
        <time>2023-01-06T14:29:21Z</time>
      </trkpt>
      <trkpt lat="43.60602" lon="6.30872">
        <ele>709</ele>
        <time>2023-01-06T14:29:22Z</time>
      </trkpt>
      <trkpt lat="43.60602" lon="6.30872">
        <ele>709</ele>
        <time>2023-01-06T14:29:23Z</time>
      </trkpt>
      <trkpt lat="43.60602" lon="6.30871">
        <ele>709</ele>
        <time>2023-01-06T14:29:24Z</time>
      </trkpt>
      <trkpt lat="43.60602" lon="6.30871">
        <ele>709</ele>
        <time>2023-01-06T14:29:25Z</time>
      </trkpt>
      <trkpt lat="43.60601" lon="6.3087">
        <ele>709</ele>
        <time>2023-01-06T14:29:26Z</time>
      </trkpt>
      <trkpt lat="43.606" lon="6.30869">
        <ele>709</ele>
        <time>2023-01-06T14:29:27Z</time>
      </trkpt>
      <trkpt lat="43.606" lon="6.30868">
        <ele>709</ele>
        <time>2023-01-06T14:29:28Z</time>
      </trkpt>
      <trkpt lat="43.60599" lon="6.30867">
        <ele>709</ele>
        <time>2023-01-06T14:29:29Z</time>
      </trkpt>
      <trkpt lat="43.60599" lon="6.30865">
        <ele>709</ele>
        <time>2023-01-06T14:29:30Z</time>
      </trkpt>
      <trkpt lat="43.60598" lon="6.30864">
        <ele>709</ele>
        <time>2023-01-06T14:29:31Z</time>
      </trkpt>
      <trkpt lat="43.60598" lon="6.30863">
        <ele>709</ele>
        <time>2023-01-06T14:29:32Z</time>
      </trkpt>
      <trkpt lat="43.60597" lon="6.30861">
        <ele>709</ele>
        <time>2023-01-06T14:29:33Z</time>
      </trkpt>
      <trkpt lat="43.60597" lon="6.3086">
        <ele>709</ele>
        <time>2023-01-06T14:29:34Z</time>
      </trkpt>
      <trkpt lat="43.60597" lon="6.30858">
        <ele>709</ele>
        <time>2023-01-06T14:29:35Z</time>
      </trkpt>
      <trkpt lat="43.60596" lon="6.30855">
        <ele>709</ele>
        <time>2023-01-06T14:29:36Z</time>
      </trkpt>
      <trkpt lat="43.60596" lon="6.30853">
        <ele>708</ele>
        <time>2023-01-06T14:29:37Z</time>
      </trkpt>
      <trkpt lat="43.60595" lon="6.30851">
        <ele>708</ele>
        <time>2023-01-06T14:29:38Z</time>
      </trkpt>
      <trkpt lat="43.60595" lon="6.3085">
        <ele>708</ele>
        <time>2023-01-06T14:29:39Z</time>
      </trkpt>
      <trkpt lat="43.60594" lon="6.30849">
        <ele>708</ele>
        <time>2023-01-06T14:29:40Z</time>
      </trkpt>
      <trkpt lat="43.60593" lon="6.30848">
        <ele>708</ele>
        <time>2023-01-06T14:29:41Z</time>
      </trkpt>
      <trkpt lat="43.60593" lon="6.30847">
        <ele>708</ele>
        <time>2023-01-06T14:29:42Z</time>
      </trkpt>
      <trkpt lat="43.60592" lon="6.30846">
        <ele>708</ele>
        <time>2023-01-06T14:29:43Z</time>
      </trkpt>
      <trkpt lat="43.60591" lon="6.30846">
        <ele>708</ele>
        <time>2023-01-06T14:29:44Z</time>
      </trkpt>
      <trkpt lat="43.60591" lon="6.30845">
        <ele>708</ele>
        <time>2023-01-06T14:29:45Z</time>
      </trkpt>
      <trkpt lat="43.6059" lon="6.30845">
        <ele>708</ele>
        <time>2023-01-06T14:29:46Z</time>
      </trkpt>
      <trkpt lat="43.6059" lon="6.30845">
        <ele>708</ele>
        <time>2023-01-06T14:29:47Z</time>
      </trkpt>
      <trkpt lat="43.60589" lon="6.30844">
        <ele>708</ele>
        <time>2023-01-06T14:29:48Z</time>
      </trkpt>
      <trkpt lat="43.60588" lon="6.30844">
        <ele>709</ele>
        <time>2023-01-06T14:29:49Z</time>
      </trkpt>
      <trkpt lat="43.60588" lon="6.30844">
        <ele>709</ele>
        <time>2023-01-06T14:29:50Z</time>
      </trkpt>
      <trkpt lat="43.60587" lon="6.30844">
        <ele>709</ele>
        <time>2023-01-06T14:29:51Z</time>
      </trkpt>
      <trkpt lat="43.60587" lon="6.30844">
        <ele>708</ele>
        <time>2023-01-06T14:29:52Z</time>
      </trkpt>
      <trkpt lat="43.60586" lon="6.30843">
        <ele>708</ele>
        <time>2023-01-06T14:29:53Z</time>
      </trkpt>
      <trkpt lat="43.60587" lon="6.30841">
        <ele>708</ele>
        <time>2023-01-06T14:29:54Z</time>
      </trkpt>
      <trkpt lat="43.60587" lon="6.30838">
        <ele>708</ele>
        <time>2023-01-06T14:29:55Z</time>
      </trkpt>
      <trkpt lat="43.60588" lon="6.30836">
        <ele>708</ele>
        <time>2023-01-06T14:29:56Z</time>
      </trkpt>
      <trkpt lat="43.60589" lon="6.30834">
        <ele>708</ele>
        <time>2023-01-06T14:29:57Z</time>
      </trkpt>
      <trkpt lat="43.6059" lon="6.30833">
        <ele>708</ele>
        <time>2023-01-06T14:29:58Z</time>
      </trkpt>
      <trkpt lat="43.60591" lon="6.30833">
        <ele>708</ele>
        <time>2023-01-06T14:29:59Z</time>
      </trkpt>
      <trkpt lat="43.60591" lon="6.30832">
        <ele>708</ele>
        <time>2023-01-06T14:30:00Z</time>
      </trkpt>
      <trkpt lat="43.60592" lon="6.30832">
        <ele>708</ele>
        <time>2023-01-06T14:30:01Z</time>
      </trkpt>
      <trkpt lat="43.60592" lon="6.30832">
        <ele>708</ele>
        <time>2023-01-06T14:30:02Z</time>
      </trkpt>
      <trkpt lat="43.60592" lon="6.30832">
        <ele>708</ele>
        <time>2023-01-06T14:30:03Z</time>
      </trkpt>
      <trkpt lat="43.60592" lon="6.30832">
        <ele>708</ele>
        <time>2023-01-06T14:30:04Z</time>
      </trkpt>
      <trkpt lat="43.60591" lon="6.30831">
        <ele>708</ele>
        <time>2023-01-06T14:30:05Z</time>
      </trkpt>
      <trkpt lat="43.60589" lon="6.30831">
        <ele>708</ele>
        <time>2023-01-06T14:30:06Z</time>
      </trkpt>
      <trkpt lat="43.60588" lon="6.30831">
        <ele>708</ele>
        <time>2023-01-06T14:30:07Z</time>
      </trkpt>
      <trkpt lat="43.60588" lon="6.30831">
        <ele>708</ele>
        <time>2023-01-06T14:30:08Z</time>
      </trkpt>
      <trkpt lat="43.60587" lon="6.30831">
        <ele>708</ele>
        <time>2023-01-06T14:30:09Z</time>
      </trkpt>
      <trkpt lat="43.60586" lon="6.30831">
        <ele>708</ele>
        <time>2023-01-06T14:30:10Z</time>
      </trkpt>
      <trkpt lat="43.60585" lon="6.30831">
        <ele>708</ele>
        <time>2023-01-06T14:30:11Z</time>
      </trkpt>
      <trkpt lat="43.60585" lon="6.30831">
        <ele>708</ele>
        <time>2023-01-06T14:30:12Z</time>
      </trkpt>
      <trkpt lat="43.60584" lon="6.30831">
        <ele>708</ele>
        <time>2023-01-06T14:30:13Z</time>
      </trkpt>
      <trkpt lat="43.60583" lon="6.30831">
        <ele>708</ele>
        <time>2023-01-06T14:30:14Z</time>
      </trkpt>
      <trkpt lat="43.60582" lon="6.30831">
        <ele>708</ele>
        <time>2023-01-06T14:30:15Z</time>
      </trkpt>
      <trkpt lat="43.60581" lon="6.30831">
        <ele>707</ele>
        <time>2023-01-06T14:30:16Z</time>
      </trkpt>
      <trkpt lat="43.6058" lon="6.30831">
        <ele>707</ele>
        <time>2023-01-06T14:30:17Z</time>
      </trkpt>
      <trkpt lat="43.60578" lon="6.3083">
        <ele>707</ele>
        <time>2023-01-06T14:30:18Z</time>
      </trkpt>
      <trkpt lat="43.60577" lon="6.3083">
        <ele>707</ele>
        <time>2023-01-06T14:30:19Z</time>
      </trkpt>
      <trkpt lat="43.60577" lon="6.30831">
        <ele>707</ele>
        <time>2023-01-06T14:30:20Z</time>
      </trkpt>
      <trkpt lat="43.60576" lon="6.30831">
        <ele>707</ele>
        <time>2023-01-06T14:30:21Z</time>
      </trkpt>
      <trkpt lat="43.60576" lon="6.30831">
        <ele>707</ele>
        <time>2023-01-06T14:30:22Z</time>
      </trkpt>
      <trkpt lat="43.60575" lon="6.30831">
        <ele>707</ele>
        <time>2023-01-06T14:30:23Z</time>
      </trkpt>
      <trkpt lat="43.60573" lon="6.30831">
        <ele>707</ele>
        <time>2023-01-06T14:30:24Z</time>
      </trkpt>
      <trkpt lat="43.60572" lon="6.30831">
        <ele>707</ele>
        <time>2023-01-06T14:30:25Z</time>
      </trkpt>
      <trkpt lat="43.6057" lon="6.30831">
        <ele>707</ele>
        <time>2023-01-06T14:30:26Z</time>
      </trkpt>
      <trkpt lat="43.60569" lon="6.30831">
        <ele>707</ele>
        <time>2023-01-06T14:30:27Z</time>
      </trkpt>
      <trkpt lat="43.60568" lon="6.30831">
        <ele>707</ele>
        <time>2023-01-06T14:30:28Z</time>
      </trkpt>
      <trkpt lat="43.60567" lon="6.30832">
        <ele>707</ele>
        <time>2023-01-06T14:30:29Z</time>
      </trkpt>
      <trkpt lat="43.60566" lon="6.30832">
        <ele>707</ele>
        <time>2023-01-06T14:30:30Z</time>
      </trkpt>
      <trkpt lat="43.60565" lon="6.30833">
        <ele>708</ele>
        <time>2023-01-06T14:30:31Z</time>
      </trkpt>
      <trkpt lat="43.60564" lon="6.30834">
        <ele>708</ele>
        <time>2023-01-06T14:30:32Z</time>
      </trkpt>
      <trkpt lat="43.60563" lon="6.30835">
        <ele>708</ele>
        <time>2023-01-06T14:30:33Z</time>
      </trkpt>
      <trkpt lat="43.60562" lon="6.30835">
        <ele>709</ele>
        <time>2023-01-06T14:30:34Z</time>
      </trkpt>
      <trkpt lat="43.60562" lon="6.30836">
        <ele>709</ele>
        <time>2023-01-06T14:30:35Z</time>
      </trkpt>
      <trkpt lat="43.60561" lon="6.30836">
        <ele>709</ele>
        <time>2023-01-06T14:30:36Z</time>
      </trkpt>
      <trkpt lat="43.60561" lon="6.30837">
        <ele>709</ele>
        <time>2023-01-06T14:30:37Z</time>
      </trkpt>
      <trkpt lat="43.6056" lon="6.30838">
        <ele>709</ele>
        <time>2023-01-06T14:30:38Z</time>
      </trkpt>
      <trkpt lat="43.6056" lon="6.30839">
        <ele>709</ele>
        <time>2023-01-06T14:30:39Z</time>
      </trkpt>
      <trkpt lat="43.60559" lon="6.3084">
        <ele>709</ele>
        <time>2023-01-06T14:30:40Z</time>
      </trkpt>
      <trkpt lat="43.60559" lon="6.30841">
        <ele>709</ele>
        <time>2023-01-06T14:30:41Z</time>
      </trkpt>
      <trkpt lat="43.60558" lon="6.30842">
        <ele>709</ele>
        <time>2023-01-06T14:30:42Z</time>
      </trkpt>
      <trkpt lat="43.60558" lon="6.30843">
        <ele>709</ele>
        <time>2023-01-06T14:30:43Z</time>
      </trkpt>
      <trkpt lat="43.60557" lon="6.30843">
        <ele>710</ele>
        <time>2023-01-06T14:30:44Z</time>
      </trkpt>
      <trkpt lat="43.60557" lon="6.30844">
        <ele>710</ele>
        <time>2023-01-06T14:30:45Z</time>
      </trkpt>
      <trkpt lat="43.60556" lon="6.30845">
        <ele>710</ele>
        <time>2023-01-06T14:30:46Z</time>
      </trkpt>
      <trkpt lat="43.60556" lon="6.30846">
        <ele>710</ele>
        <time>2023-01-06T14:30:47Z</time>
      </trkpt>
      <trkpt lat="43.60555" lon="6.30848">
        <ele>710</ele>
        <time>2023-01-06T14:30:48Z</time>
      </trkpt>
      <trkpt lat="43.60554" lon="6.30849">
        <ele>710</ele>
        <time>2023-01-06T14:30:49Z</time>
      </trkpt>
      <trkpt lat="43.60554" lon="6.3085">
        <ele>710</ele>
        <time>2023-01-06T14:30:50Z</time>
      </trkpt>
      <trkpt lat="43.60553" lon="6.30851">
        <ele>709</ele>
        <time>2023-01-06T14:30:51Z</time>
      </trkpt>
      <trkpt lat="43.60553" lon="6.30852">
        <ele>709</ele>
        <time>2023-01-06T14:30:52Z</time>
      </trkpt>
      <trkpt lat="43.60552" lon="6.30853">
        <ele>709</ele>
        <time>2023-01-06T14:30:53Z</time>
      </trkpt>
      <trkpt lat="43.60552" lon="6.30853">
        <ele>709</ele>
        <time>2023-01-06T14:30:54Z</time>
      </trkpt>
      <trkpt lat="43.60551" lon="6.30854">
        <ele>709</ele>
        <time>2023-01-06T14:30:55Z</time>
      </trkpt>
      <trkpt lat="43.60551" lon="6.30854">
        <ele>708</ele>
        <time>2023-01-06T14:30:56Z</time>
      </trkpt>
      <trkpt lat="43.6055" lon="6.30855">
        <ele>708</ele>
        <time>2023-01-06T14:30:57Z</time>
      </trkpt>
      <trkpt lat="43.60549" lon="6.30856">
        <ele>708</ele>
        <time>2023-01-06T14:30:58Z</time>
      </trkpt>
      <trkpt lat="43.60548" lon="6.30857">
        <ele>708</ele>
        <time>2023-01-06T14:30:59Z</time>
      </trkpt>
      <trkpt lat="43.60547" lon="6.30857">
        <ele>708</ele>
        <time>2023-01-06T14:31:00Z</time>
      </trkpt>
      <trkpt lat="43.60546" lon="6.30858">
        <ele>708</ele>
        <time>2023-01-06T14:31:01Z</time>
      </trkpt>
      <trkpt lat="43.60545" lon="6.30859">
        <ele>708</ele>
        <time>2023-01-06T14:31:02Z</time>
      </trkpt>
      <trkpt lat="43.60545" lon="6.30859">
        <ele>708</ele>
        <time>2023-01-06T14:31:03Z</time>
      </trkpt>
      <trkpt lat="43.60543" lon="6.30861">
        <ele>708</ele>
        <time>2023-01-06T14:31:04Z</time>
      </trkpt>
      <trkpt lat="43.60542" lon="6.30862">
        <ele>708</ele>
        <time>2023-01-06T14:31:05Z</time>
      </trkpt>
      <trkpt lat="43.6054" lon="6.30864">
        <ele>708</ele>
        <time>2023-01-06T14:31:06Z</time>
      </trkpt>
      <trkpt lat="43.60539" lon="6.30865">
        <ele>708</ele>
        <time>2023-01-06T14:31:07Z</time>
      </trkpt>
      <trkpt lat="43.60538" lon="6.30866">
        <ele>708</ele>
        <time>2023-01-06T14:31:08Z</time>
      </trkpt>
      <trkpt lat="43.60537" lon="6.30867">
        <ele>708</ele>
        <time>2023-01-06T14:31:09Z</time>
      </trkpt>
      <trkpt lat="43.60536" lon="6.30868">
        <ele>708</ele>
        <time>2023-01-06T14:31:10Z</time>
      </trkpt>
      <trkpt lat="43.60535" lon="6.30869">
        <ele>708</ele>
        <time>2023-01-06T14:31:11Z</time>
      </trkpt>
      <trkpt lat="43.60534" lon="6.3087">
        <ele>708</ele>
        <time>2023-01-06T14:31:12Z</time>
      </trkpt>
      <trkpt lat="43.60533" lon="6.3087">
        <ele>708</ele>
        <time>2023-01-06T14:31:13Z</time>
      </trkpt>
      <trkpt lat="43.60532" lon="6.30871">
        <ele>708</ele>
        <time>2023-01-06T14:31:14Z</time>
      </trkpt>
      <trkpt lat="43.60531" lon="6.30871">
        <ele>708</ele>
        <time>2023-01-06T14:31:15Z</time>
      </trkpt>
      <trkpt lat="43.6053" lon="6.30872">
        <ele>707</ele>
        <time>2023-01-06T14:31:16Z</time>
      </trkpt>
      <trkpt lat="43.60529" lon="6.30873">
        <ele>707</ele>
        <time>2023-01-06T14:31:17Z</time>
      </trkpt>
      <trkpt lat="43.60529" lon="6.30873">
        <ele>707</ele>
        <time>2023-01-06T14:31:18Z</time>
      </trkpt>
      <trkpt lat="43.60528" lon="6.30874">
        <ele>707</ele>
        <time>2023-01-06T14:31:19Z</time>
      </trkpt>
      <trkpt lat="43.60527" lon="6.30875">
        <ele>706</ele>
        <time>2023-01-06T14:31:20Z</time>
      </trkpt>
      <trkpt lat="43.60526" lon="6.30875">
        <ele>706</ele>
        <time>2023-01-06T14:31:21Z</time>
      </trkpt>
      <trkpt lat="43.60526" lon="6.30876">
        <ele>706</ele>
        <time>2023-01-06T14:31:22Z</time>
      </trkpt>
      <trkpt lat="43.60525" lon="6.30877">
        <ele>706</ele>
        <time>2023-01-06T14:31:23Z</time>
      </trkpt>
      <trkpt lat="43.60525" lon="6.30878">
        <ele>706</ele>
        <time>2023-01-06T14:31:24Z</time>
      </trkpt>
      <trkpt lat="43.60524" lon="6.30879">
        <ele>706</ele>
        <time>2023-01-06T14:31:25Z</time>
      </trkpt>
      <trkpt lat="43.60523" lon="6.30879">
        <ele>706</ele>
        <time>2023-01-06T14:31:26Z</time>
      </trkpt>
      <trkpt lat="43.60522" lon="6.3088">
        <ele>705</ele>
        <time>2023-01-06T14:31:27Z</time>
      </trkpt>
      <trkpt lat="43.60522" lon="6.30881">
        <ele>705</ele>
        <time>2023-01-06T14:31:28Z</time>
      </trkpt>
      <trkpt lat="43.60521" lon="6.30882">
        <ele>705</ele>
        <time>2023-01-06T14:31:29Z</time>
      </trkpt>
      <trkpt lat="43.6052" lon="6.30883">
        <ele>705</ele>
        <time>2023-01-06T14:31:30Z</time>
      </trkpt>
      <trkpt lat="43.6052" lon="6.30883">
        <ele>705</ele>
        <time>2023-01-06T14:31:31Z</time>
      </trkpt>
      <trkpt lat="43.60519" lon="6.30884">
        <ele>705</ele>
        <time>2023-01-06T14:31:32Z</time>
      </trkpt>
      <trkpt lat="43.60519" lon="6.30885">
        <ele>705</ele>
        <time>2023-01-06T14:31:33Z</time>
      </trkpt>
      <trkpt lat="43.60518" lon="6.30886">
        <ele>705</ele>
        <time>2023-01-06T14:31:34Z</time>
      </trkpt>
      <trkpt lat="43.60517" lon="6.30887">
        <ele>705</ele>
        <time>2023-01-06T14:31:35Z</time>
      </trkpt>
      <trkpt lat="43.60516" lon="6.30888">
        <ele>705</ele>
        <time>2023-01-06T14:31:36Z</time>
      </trkpt>
      <trkpt lat="43.60516" lon="6.30889">
        <ele>705</ele>
        <time>2023-01-06T14:31:37Z</time>
      </trkpt>
      <trkpt lat="43.60515" lon="6.30891">
        <ele>705</ele>
        <time>2023-01-06T14:31:38Z</time>
      </trkpt>
      <trkpt lat="43.60515" lon="6.30892">
        <ele>705</ele>
        <time>2023-01-06T14:31:39Z</time>
      </trkpt>
      <trkpt lat="43.60514" lon="6.30893">
        <ele>705</ele>
        <time>2023-01-06T14:31:40Z</time>
      </trkpt>
      <trkpt lat="43.60514" lon="6.30894">
        <ele>706</ele>
        <time>2023-01-06T14:31:41Z</time>
      </trkpt>
      <trkpt lat="43.60513" lon="6.30895">
        <ele>706</ele>
        <time>2023-01-06T14:31:42Z</time>
      </trkpt>
      <trkpt lat="43.60513" lon="6.30896">
        <ele>706</ele>
        <time>2023-01-06T14:31:43Z</time>
      </trkpt>
      <trkpt lat="43.60513" lon="6.30898">
        <ele>706</ele>
        <time>2023-01-06T14:31:44Z</time>
      </trkpt>
      <trkpt lat="43.60512" lon="6.30899">
        <ele>706</ele>
        <time>2023-01-06T14:31:45Z</time>
      </trkpt>
      <trkpt lat="43.60512" lon="6.309">
        <ele>706</ele>
        <time>2023-01-06T14:31:46Z</time>
      </trkpt>
      <trkpt lat="43.60511" lon="6.30901">
        <ele>706</ele>
        <time>2023-01-06T14:31:47Z</time>
      </trkpt>
      <trkpt lat="43.60511" lon="6.30902">
        <ele>706</ele>
        <time>2023-01-06T14:31:48Z</time>
      </trkpt>
      <trkpt lat="43.6051" lon="6.30903">
        <ele>706</ele>
        <time>2023-01-06T14:31:49Z</time>
      </trkpt>
      <trkpt lat="43.6051" lon="6.30905">
        <ele>706</ele>
        <time>2023-01-06T14:31:50Z</time>
      </trkpt>
      <trkpt lat="43.6051" lon="6.30906">
        <ele>706</ele>
        <time>2023-01-06T14:31:51Z</time>
      </trkpt>
      <trkpt lat="43.60511" lon="6.30906">
        <ele>707</ele>
        <time>2023-01-06T14:31:52Z</time>
      </trkpt>
      <trkpt lat="43.60511" lon="6.30907">
        <ele>707</ele>
        <time>2023-01-06T14:31:53Z</time>
      </trkpt>
      <trkpt lat="43.60512" lon="6.30908">
        <ele>707</ele>
        <time>2023-01-06T14:31:54Z</time>
      </trkpt>
      <trkpt lat="43.60512" lon="6.30908">
        <ele>707</ele>
        <time>2023-01-06T14:31:55Z</time>
      </trkpt>
      <trkpt lat="43.60513" lon="6.30909">
        <ele>707</ele>
        <time>2023-01-06T14:31:56Z</time>
      </trkpt>
      <trkpt lat="43.60513" lon="6.3091">
        <ele>707</ele>
        <time>2023-01-06T14:31:57Z</time>
      </trkpt>
      <trkpt lat="43.60513" lon="6.3091">
        <ele>707</ele>
        <time>2023-01-06T14:31:58Z</time>
      </trkpt>
      <trkpt lat="43.60513" lon="6.3091">
        <ele>707</ele>
        <time>2023-01-06T14:31:59Z</time>
      </trkpt>
      <trkpt lat="43.60513" lon="6.3091">
        <ele>707</ele>
        <time>2023-01-06T14:32:00Z</time>
      </trkpt>
      <trkpt lat="43.60513" lon="6.30909">
        <ele>707</ele>
        <time>2023-01-06T14:32:01Z</time>
      </trkpt>
      <trkpt lat="43.60513" lon="6.30909">
        <ele>707</ele>
        <time>2023-01-06T14:32:02Z</time>
      </trkpt>
      <trkpt lat="43.60512" lon="6.30909">
        <ele>707</ele>
        <time>2023-01-06T14:32:03Z</time>
      </trkpt>
      <trkpt lat="43.60512" lon="6.30909">
        <ele>707</ele>
        <time>2023-01-06T14:32:04Z</time>
      </trkpt>
      <trkpt lat="43.60511" lon="6.30909">
        <ele>707</ele>
        <time>2023-01-06T14:32:05Z</time>
      </trkpt>
      <trkpt lat="43.60511" lon="6.30909">
        <ele>707</ele>
        <time>2023-01-06T14:32:06Z</time>
      </trkpt>
      <trkpt lat="43.60511" lon="6.30908">
        <ele>707</ele>
        <time>2023-01-06T14:32:07Z</time>
      </trkpt>
      <trkpt lat="43.6051" lon="6.30908">
        <ele>707</ele>
        <time>2023-01-06T14:32:08Z</time>
      </trkpt>
      <trkpt lat="43.6051" lon="6.30908">
        <ele>707</ele>
        <time>2023-01-06T14:32:09Z</time>
      </trkpt>
      <trkpt lat="43.6051" lon="6.30908">
        <ele>707</ele>
        <time>2023-01-06T14:32:10Z</time>
      </trkpt>
      <trkpt lat="43.60509" lon="6.30907">
        <ele>707</ele>
        <time>2023-01-06T14:32:11Z</time>
      </trkpt>
      <trkpt lat="43.60509" lon="6.30907">
        <ele>707</ele>
        <time>2023-01-06T14:32:12Z</time>
      </trkpt>
      <trkpt lat="43.60509" lon="6.30907">
        <ele>707</ele>
        <time>2023-01-06T14:32:13Z</time>
      </trkpt>
      <trkpt lat="43.60509" lon="6.30907">
        <ele>707</ele>
        <time>2023-01-06T14:32:14Z</time>
      </trkpt>
      <trkpt lat="43.60509" lon="6.30907">
        <ele>707</ele>
        <time>2023-01-06T14:32:15Z</time>
      </trkpt>
      <trkpt lat="43.60509" lon="6.30907">
        <ele>707</ele>
        <time>2023-01-06T14:32:16Z</time>
      </trkpt>
      <trkpt lat="43.60509" lon="6.30907">
        <ele>707</ele>
        <time>2023-01-06T14:32:17Z</time>
      </trkpt>
      <trkpt lat="43.60509" lon="6.30907">
        <ele>707</ele>
        <time>2023-01-06T14:32:18Z</time>
      </trkpt>
      <trkpt lat="43.60509" lon="6.30907">
        <ele>707</ele>
        <time>2023-01-06T14:32:19Z</time>
      </trkpt>
      <trkpt lat="43.60509" lon="6.30907">
        <ele>707</ele>
        <time>2023-01-06T14:32:20Z</time>
      </trkpt>
      <trkpt lat="43.60509" lon="6.30907">
        <ele>707</ele>
        <time>2023-01-06T14:32:21Z</time>
      </trkpt>
      <trkpt lat="43.60509" lon="6.30907">
        <ele>707</ele>
        <time>2023-01-06T14:32:22Z</time>
      </trkpt>
      <trkpt lat="43.60509" lon="6.30907">
        <ele>707</ele>
        <time>2023-01-06T14:32:23Z</time>
      </trkpt>
      <trkpt lat="43.60509" lon="6.30907">
        <ele>707</ele>
        <time>2023-01-06T14:32:24Z</time>
      </trkpt>
      <trkpt lat="43.60509" lon="6.30906">
        <ele>707</ele>
        <time>2023-01-06T14:32:25Z</time>
      </trkpt>
      <trkpt lat="43.60509" lon="6.30906">
        <ele>707</ele>
        <time>2023-01-06T14:32:26Z</time>
      </trkpt>
      <trkpt lat="43.60508" lon="6.30906">
        <ele>707</ele>
        <time>2023-01-06T14:32:27Z</time>
      </trkpt>
      <trkpt lat="43.60508" lon="6.30906">
        <ele>707</ele>
        <time>2023-01-06T14:32:28Z</time>
      </trkpt>
      <trkpt lat="43.60507" lon="6.30905">
        <ele>707</ele>
        <time>2023-01-06T14:32:29Z</time>
      </trkpt>
      <trkpt lat="43.60507" lon="6.30905">
        <ele>707</ele>
        <time>2023-01-06T14:32:30Z</time>
      </trkpt>
      <trkpt lat="43.60506" lon="6.30905">
        <ele>707</ele>
        <time>2023-01-06T14:32:31Z</time>
      </trkpt>
      <trkpt lat="43.60505" lon="6.30905">
        <ele>707</ele>
        <time>2023-01-06T14:32:32Z</time>
      </trkpt>
      <trkpt lat="43.60504" lon="6.30905">
        <ele>707</ele>
        <time>2023-01-06T14:32:33Z</time>
      </trkpt>
      <trkpt lat="43.60503" lon="6.30905">
        <ele>707</ele>
        <time>2023-01-06T14:32:34Z</time>
      </trkpt>
      <trkpt lat="43.60502" lon="6.30905">
        <ele>707</ele>
        <time>2023-01-06T14:32:35Z</time>
      </trkpt>
      <trkpt lat="43.60501" lon="6.30905">
        <ele>707</ele>
        <time>2023-01-06T14:32:36Z</time>
      </trkpt>
      <trkpt lat="43.605" lon="6.30905">
        <ele>707</ele>
        <time>2023-01-06T14:32:37Z</time>
      </trkpt>
      <trkpt lat="43.60499" lon="6.30906">
        <ele>707</ele>
        <time>2023-01-06T14:32:38Z</time>
      </trkpt>
      <trkpt lat="43.60498" lon="6.30906">
        <ele>707</ele>
        <time>2023-01-06T14:32:39Z</time>
      </trkpt>
      <trkpt lat="43.60496" lon="6.30906">
        <ele>707</ele>
        <time>2023-01-06T14:32:40Z</time>
      </trkpt>
      <trkpt lat="43.60495" lon="6.30906">
        <ele>707</ele>
        <time>2023-01-06T14:32:41Z</time>
      </trkpt>
      <trkpt lat="43.60493" lon="6.30905">
        <ele>707</ele>
        <time>2023-01-06T14:32:42Z</time>
      </trkpt>
      <trkpt lat="43.60492" lon="6.30906">
        <ele>707</ele>
        <time>2023-01-06T14:32:43Z</time>
      </trkpt>
      <trkpt lat="43.6049" lon="6.30906">
        <ele>707</ele>
        <time>2023-01-06T14:32:44Z</time>
      </trkpt>
      <trkpt lat="43.60489" lon="6.30906">
        <ele>707</ele>
        <time>2023-01-06T14:32:45Z</time>
      </trkpt>
      <trkpt lat="43.60488" lon="6.30906">
        <ele>707</ele>
        <time>2023-01-06T14:32:46Z</time>
      </trkpt>
      <trkpt lat="43.60487" lon="6.30907">
        <ele>707</ele>
        <time>2023-01-06T14:32:47Z</time>
      </trkpt>
      <trkpt lat="43.60487" lon="6.30907">
        <ele>707</ele>
        <time>2023-01-06T14:32:48Z</time>
      </trkpt>
      <trkpt lat="43.60486" lon="6.30907">
        <ele>707</ele>
        <time>2023-01-06T14:32:49Z</time>
      </trkpt>
      <trkpt lat="43.60486" lon="6.30907">
        <ele>707</ele>
        <time>2023-01-06T14:32:50Z</time>
      </trkpt>
      <trkpt lat="43.60486" lon="6.30908">
        <ele>707</ele>
        <time>2023-01-06T14:32:51Z</time>
      </trkpt>
      <trkpt lat="43.60485" lon="6.30908">
        <ele>707</ele>
        <time>2023-01-06T14:32:52Z</time>
      </trkpt>
      <trkpt lat="43.60484" lon="6.30908">
        <ele>707</ele>
        <time>2023-01-06T14:32:53Z</time>
      </trkpt>
      <trkpt lat="43.60483" lon="6.30908">
        <ele>707</ele>
        <time>2023-01-06T14:32:54Z</time>
      </trkpt>
      <trkpt lat="43.60483" lon="6.30908">
        <ele>707</ele>
        <time>2023-01-06T14:32:55Z</time>
      </trkpt>
      <trkpt lat="43.60482" lon="6.30908">
        <ele>707</ele>
        <time>2023-01-06T14:32:56Z</time>
      </trkpt>
      <trkpt lat="43.60482" lon="6.30908">
        <ele>707</ele>
        <time>2023-01-06T14:32:57Z</time>
      </trkpt>
      <trkpt lat="43.60482" lon="6.30908">
        <ele>707</ele>
        <time>2023-01-06T14:32:58Z</time>
      </trkpt>
      <trkpt lat="43.60482" lon="6.30908">
        <ele>707</ele>
        <time>2023-01-06T14:32:59Z</time>
      </trkpt>
      <trkpt lat="43.60482" lon="6.30908">
        <ele>707</ele>
        <time>2023-01-06T14:33:00Z</time>
      </trkpt>
      <trkpt lat="43.60481" lon="6.30908">
        <ele>707</ele>
        <time>2023-01-06T14:33:01Z</time>
      </trkpt>
      <trkpt lat="43.60481" lon="6.30908">
        <ele>707</ele>
        <time>2023-01-06T14:33:02Z</time>
      </trkpt>
      <trkpt lat="43.60481" lon="6.30908">
        <ele>707</ele>
        <time>2023-01-06T14:33:03Z</time>
      </trkpt>
      <trkpt lat="43.60481" lon="6.30908">
        <ele>707</ele>
        <time>2023-01-06T14:33:04Z</time>
      </trkpt>
      <trkpt lat="43.60481" lon="6.30908">
        <ele>707</ele>
        <time>2023-01-06T14:33:05Z</time>
      </trkpt>
      <trkpt lat="43.60481" lon="6.30908">
        <ele>707</ele>
        <time>2023-01-06T14:33:06Z</time>
      </trkpt>
      <trkpt lat="43.6048" lon="6.30908">
        <ele>707</ele>
        <time>2023-01-06T14:33:07Z</time>
      </trkpt>
      <trkpt lat="43.6048" lon="6.30907">
        <ele>707</ele>
        <time>2023-01-06T14:33:08Z</time>
      </trkpt>
      <trkpt lat="43.6048" lon="6.30907">
        <ele>707</ele>
        <time>2023-01-06T14:33:09Z</time>
      </trkpt>
      <trkpt lat="43.6048" lon="6.30906">
        <ele>707</ele>
        <time>2023-01-06T14:33:10Z</time>
      </trkpt>
      <trkpt lat="43.60479" lon="6.30905">
        <ele>707</ele>
        <time>2023-01-06T14:33:11Z</time>
      </trkpt>
      <trkpt lat="43.60479" lon="6.30904">
        <ele>707</ele>
        <time>2023-01-06T14:33:12Z</time>
      </trkpt>
      <trkpt lat="43.60479" lon="6.30903">
        <ele>707</ele>
        <time>2023-01-06T14:33:13Z</time>
      </trkpt>
      <trkpt lat="43.60479" lon="6.30902">
        <ele>707</ele>
        <time>2023-01-06T14:33:14Z</time>
      </trkpt>
      <trkpt lat="43.60478" lon="6.30901">
        <ele>707</ele>
        <time>2023-01-06T14:33:15Z</time>
      </trkpt>
      <trkpt lat="43.60478" lon="6.309">
        <ele>708</ele>
        <time>2023-01-06T14:33:16Z</time>
      </trkpt>
      <trkpt lat="43.60478" lon="6.30899">
        <ele>708</ele>
        <time>2023-01-06T14:33:17Z</time>
      </trkpt>
      <trkpt lat="43.60478" lon="6.30898">
        <ele>708</ele>
        <time>2023-01-06T14:33:18Z</time>
      </trkpt>
      <trkpt lat="43.60477" lon="6.30897">
        <ele>708</ele>
        <time>2023-01-06T14:33:19Z</time>
      </trkpt>
      <trkpt lat="43.60477" lon="6.30895">
        <ele>708</ele>
        <time>2023-01-06T14:33:20Z</time>
      </trkpt>
      <trkpt lat="43.60477" lon="6.30894">
        <ele>708</ele>
        <time>2023-01-06T14:33:21Z</time>
      </trkpt>
      <trkpt lat="43.60477" lon="6.30894">
        <ele>708</ele>
        <time>2023-01-06T14:33:22Z</time>
      </trkpt>
      <trkpt lat="43.60477" lon="6.30893">
        <ele>708</ele>
        <time>2023-01-06T14:33:23Z</time>
      </trkpt>
      <trkpt lat="43.60477" lon="6.30892">
        <ele>708</ele>
        <time>2023-01-06T14:33:24Z</time>
      </trkpt>
      <trkpt lat="43.60476" lon="6.30891">
        <ele>708</ele>
        <time>2023-01-06T14:33:25Z</time>
      </trkpt>
      <trkpt lat="43.60476" lon="6.3089">
        <ele>708</ele>
        <time>2023-01-06T14:33:26Z</time>
      </trkpt>
      <trkpt lat="43.60476" lon="6.30889">
        <ele>709</ele>
        <time>2023-01-06T14:33:27Z</time>
      </trkpt>
      <trkpt lat="43.60476" lon="6.30888">
        <ele>708</ele>
        <time>2023-01-06T14:33:28Z</time>
      </trkpt>
      <trkpt lat="43.60476" lon="6.30887">
        <ele>708</ele>
        <time>2023-01-06T14:33:29Z</time>
      </trkpt>
      <trkpt lat="43.60476" lon="6.30887">
        <ele>708</ele>
        <time>2023-01-06T14:33:30Z</time>
      </trkpt>
      <trkpt lat="43.60475" lon="6.30886">
        <ele>708</ele>
        <time>2023-01-06T14:33:31Z</time>
      </trkpt>
      <trkpt lat="43.60475" lon="6.30885">
        <ele>708</ele>
        <time>2023-01-06T14:33:32Z</time>
      </trkpt>
      <trkpt lat="43.60475" lon="6.30885">
        <ele>708</ele>
        <time>2023-01-06T14:33:33Z</time>
      </trkpt>
      <trkpt lat="43.60475" lon="6.30884">
        <ele>708</ele>
        <time>2023-01-06T14:33:34Z</time>
      </trkpt>
      <trkpt lat="43.60475" lon="6.30884">
        <ele>708</ele>
        <time>2023-01-06T14:33:35Z</time>
      </trkpt>
      <trkpt lat="43.60475" lon="6.30884">
        <ele>708</ele>
        <time>2023-01-06T14:33:36Z</time>
      </trkpt>
      <trkpt lat="43.60475" lon="6.30883">
        <ele>708</ele>
        <time>2023-01-06T14:33:37Z</time>
      </trkpt>
      <trkpt lat="43.60475" lon="6.30883">
        <ele>708</ele>
        <time>2023-01-06T14:33:38Z</time>
      </trkpt>
      <trkpt lat="43.60474" lon="6.30882">
        <ele>708</ele>
        <time>2023-01-06T14:33:39Z</time>
      </trkpt>
      <trkpt lat="43.60474" lon="6.30881">
        <ele>708</ele>
        <time>2023-01-06T14:33:40Z</time>
      </trkpt>
      <trkpt lat="43.60474" lon="6.3088">
        <ele>708</ele>
        <time>2023-01-06T14:33:41Z</time>
      </trkpt>
      <trkpt lat="43.60474" lon="6.30879">
        <ele>708</ele>
        <time>2023-01-06T14:33:42Z</time>
      </trkpt>
      <trkpt lat="43.60473" lon="6.30878">
        <ele>708</ele>
        <time>2023-01-06T14:33:43Z</time>
      </trkpt>
      <trkpt lat="43.60473" lon="6.30878">
        <ele>708</ele>
        <time>2023-01-06T14:33:44Z</time>
      </trkpt>
      <trkpt lat="43.60473" lon="6.30877">
        <ele>708</ele>
        <time>2023-01-06T14:33:45Z</time>
      </trkpt>
      <trkpt lat="43.60473" lon="6.30875">
        <ele>708</ele>
        <time>2023-01-06T14:33:46Z</time>
      </trkpt>
      <trkpt lat="43.60473" lon="6.30874">
        <ele>708</ele>
        <time>2023-01-06T14:33:47Z</time>
      </trkpt>
      <trkpt lat="43.60472" lon="6.30874">
        <ele>708</ele>
        <time>2023-01-06T14:33:48Z</time>
      </trkpt>
      <trkpt lat="43.60472" lon="6.30873">
        <ele>708</ele>
        <time>2023-01-06T14:33:49Z</time>
      </trkpt>
      <trkpt lat="43.60472" lon="6.30872">
        <ele>708</ele>
        <time>2023-01-06T14:33:50Z</time>
      </trkpt>
      <trkpt lat="43.60472" lon="6.30871">
        <ele>708</ele>
        <time>2023-01-06T14:33:51Z</time>
      </trkpt>
      <trkpt lat="43.60471" lon="6.3087">
        <ele>708</ele>
        <time>2023-01-06T14:33:52Z</time>
      </trkpt>
      <trkpt lat="43.60471" lon="6.30869">
        <ele>708</ele>
        <time>2023-01-06T14:33:53Z</time>
      </trkpt>
      <trkpt lat="43.6047" lon="6.30868">
        <ele>708</ele>
        <time>2023-01-06T14:33:54Z</time>
      </trkpt>
      <trkpt lat="43.6047" lon="6.30866">
        <ele>708</ele>
        <time>2023-01-06T14:33:55Z</time>
      </trkpt>
      <trkpt lat="43.60469" lon="6.30864">
        <ele>708</ele>
        <time>2023-01-06T14:33:56Z</time>
      </trkpt>
      <trkpt lat="43.60468" lon="6.30861">
        <ele>708</ele>
        <time>2023-01-06T14:33:57Z</time>
      </trkpt>
      <trkpt lat="43.60468" lon="6.30859">
        <ele>708</ele>
        <time>2023-01-06T14:33:58Z</time>
      </trkpt>
      <trkpt lat="43.60467" lon="6.30857">
        <ele>708</ele>
        <time>2023-01-06T14:33:59Z</time>
      </trkpt>
      <trkpt lat="43.60467" lon="6.30855">
        <ele>708</ele>
        <time>2023-01-06T14:34:00Z</time>
      </trkpt>
      <trkpt lat="43.60466" lon="6.30854">
        <ele>708</ele>
        <time>2023-01-06T14:34:01Z</time>
      </trkpt>
      <trkpt lat="43.60466" lon="6.30852">
        <ele>708</ele>
        <time>2023-01-06T14:34:02Z</time>
      </trkpt>
      <trkpt lat="43.60466" lon="6.30851">
        <ele>708</ele>
        <time>2023-01-06T14:34:03Z</time>
      </trkpt>
      <trkpt lat="43.60465" lon="6.3085">
        <ele>708</ele>
        <time>2023-01-06T14:34:04Z</time>
      </trkpt>
      <trkpt lat="43.60465" lon="6.30848">
        <ele>708</ele>
        <time>2023-01-06T14:34:05Z</time>
      </trkpt>
      <trkpt lat="43.60465" lon="6.30847">
        <ele>708</ele>
        <time>2023-01-06T14:34:06Z</time>
      </trkpt>
      <trkpt lat="43.60465" lon="6.30846">
        <ele>708</ele>
        <time>2023-01-06T14:34:07Z</time>
      </trkpt>
      <trkpt lat="43.60465" lon="6.30846">
        <ele>708</ele>
        <time>2023-01-06T14:34:08Z</time>
      </trkpt>
      <trkpt lat="43.60464" lon="6.30845">
        <ele>708</ele>
        <time>2023-01-06T14:34:09Z</time>
      </trkpt>
      <trkpt lat="43.60464" lon="6.30844">
        <ele>708</ele>
        <time>2023-01-06T14:34:10Z</time>
      </trkpt>
      <trkpt lat="43.60464" lon="6.30843">
        <ele>708</ele>
        <time>2023-01-06T14:34:11Z</time>
      </trkpt>
      <trkpt lat="43.60463" lon="6.30842">
        <ele>708</ele>
        <time>2023-01-06T14:34:12Z</time>
      </trkpt>
      <trkpt lat="43.60463" lon="6.30842">
        <ele>708</ele>
        <time>2023-01-06T14:34:13Z</time>
      </trkpt>
      <trkpt lat="43.60463" lon="6.30841">
        <ele>708</ele>
        <time>2023-01-06T14:34:14Z</time>
      </trkpt>
      <trkpt lat="43.60463" lon="6.30841">
        <ele>708</ele>
        <time>2023-01-06T14:34:15Z</time>
      </trkpt>
      <trkpt lat="43.60463" lon="6.3084">
        <ele>707</ele>
        <time>2023-01-06T14:34:16Z</time>
      </trkpt>
      <trkpt lat="43.60463" lon="6.3084">
        <ele>707</ele>
        <time>2023-01-06T14:34:17Z</time>
      </trkpt>
      <trkpt lat="43.60463" lon="6.3084">
        <ele>707</ele>
        <time>2023-01-06T14:34:18Z</time>
      </trkpt>
      <trkpt lat="43.60462" lon="6.30839">
        <ele>707</ele>
        <time>2023-01-06T14:34:19Z</time>
      </trkpt>
      <trkpt lat="43.60462" lon="6.30839">
        <ele>707</ele>
        <time>2023-01-06T14:34:20Z</time>
      </trkpt>
      <trkpt lat="43.60462" lon="6.30839">
        <ele>707</ele>
        <time>2023-01-06T14:34:21Z</time>
      </trkpt>
      <trkpt lat="43.60462" lon="6.30839">
        <ele>707</ele>
        <time>2023-01-06T14:34:22Z</time>
      </trkpt>
      <trkpt lat="43.60462" lon="6.30839">
        <ele>707</ele>
        <time>2023-01-06T14:34:23Z</time>
      </trkpt>
      <trkpt lat="43.60462" lon="6.30839">
        <ele>707</ele>
        <time>2023-01-06T14:34:24Z</time>
      </trkpt>
      <trkpt lat="43.60462" lon="6.30838">
        <ele>707</ele>
        <time>2023-01-06T14:34:25Z</time>
      </trkpt>
      <trkpt lat="43.60462" lon="6.30838">
        <ele>707</ele>
        <time>2023-01-06T14:34:26Z</time>
      </trkpt>
      <trkpt lat="43.60462" lon="6.30838">
        <ele>707</ele>
        <time>2023-01-06T14:34:27Z</time>
      </trkpt>
      <trkpt lat="43.60462" lon="6.30838">
        <ele>707</ele>
        <time>2023-01-06T14:34:28Z</time>
      </trkpt>
      <trkpt lat="43.60462" lon="6.30837">
        <ele>708</ele>
        <time>2023-01-06T14:34:29Z</time>
      </trkpt>
      <trkpt lat="43.60462" lon="6.30836">
        <ele>708</ele>
        <time>2023-01-06T14:34:30Z</time>
      </trkpt>
      <trkpt lat="43.60461" lon="6.30834">
        <ele>708</ele>
        <time>2023-01-06T14:34:31Z</time>
      </trkpt>
      <trkpt lat="43.60461" lon="6.30831">
        <ele>708</ele>
        <time>2023-01-06T14:34:32Z</time>
      </trkpt>
      <trkpt lat="43.6046" lon="6.30828">
        <ele>708</ele>
        <time>2023-01-06T14:34:33Z</time>
      </trkpt>
      <trkpt lat="43.60459" lon="6.30826">
        <ele>709</ele>
        <time>2023-01-06T14:34:34Z</time>
      </trkpt>
      <trkpt lat="43.60459" lon="6.30824">
        <ele>709</ele>
        <time>2023-01-06T14:34:35Z</time>
      </trkpt>
      <trkpt lat="43.60458" lon="6.30823">
        <ele>709</ele>
        <time>2023-01-06T14:34:36Z</time>
      </trkpt>
      <trkpt lat="43.60458" lon="6.30822">
        <ele>709</ele>
        <time>2023-01-06T14:34:37Z</time>
      </trkpt>
      <trkpt lat="43.60458" lon="6.30821">
        <ele>709</ele>
        <time>2023-01-06T14:34:38Z</time>
      </trkpt>
      <trkpt lat="43.60457" lon="6.3082">
        <ele>709</ele>
        <time>2023-01-06T14:34:39Z</time>
      </trkpt>
      <trkpt lat="43.60457" lon="6.30819">
        <ele>709</ele>
        <time>2023-01-06T14:34:40Z</time>
      </trkpt>
      <trkpt lat="43.60457" lon="6.30818">
        <ele>709</ele>
        <time>2023-01-06T14:34:41Z</time>
      </trkpt>
      <trkpt lat="43.60456" lon="6.30816">
        <ele>709</ele>
        <time>2023-01-06T14:34:42Z</time>
      </trkpt>
      <trkpt lat="43.60455" lon="6.30815">
        <ele>709</ele>
        <time>2023-01-06T14:34:43Z</time>
      </trkpt>
      <trkpt lat="43.60455" lon="6.30814">
        <ele>709</ele>
        <time>2023-01-06T14:34:44Z</time>
      </trkpt>
      <trkpt lat="43.60455" lon="6.30813">
        <ele>709</ele>
        <time>2023-01-06T14:34:45Z</time>
      </trkpt>
      <trkpt lat="43.60454" lon="6.30812">
        <ele>709</ele>
        <time>2023-01-06T14:34:46Z</time>
      </trkpt>
      <trkpt lat="43.60454" lon="6.30812">
        <ele>709</ele>
        <time>2023-01-06T14:34:47Z</time>
      </trkpt>
      <trkpt lat="43.60454" lon="6.30811">
        <ele>709</ele>
        <time>2023-01-06T14:34:48Z</time>
      </trkpt>
      <trkpt lat="43.60454" lon="6.30811">
        <ele>709</ele>
        <time>2023-01-06T14:34:49Z</time>
      </trkpt>
      <trkpt lat="43.60454" lon="6.30811">
        <ele>709</ele>
        <time>2023-01-06T14:34:50Z</time>
      </trkpt>
      <trkpt lat="43.60453" lon="6.3081">
        <ele>709</ele>
        <time>2023-01-06T14:34:51Z</time>
      </trkpt>
      <trkpt lat="43.60453" lon="6.3081">
        <ele>709</ele>
        <time>2023-01-06T14:34:52Z</time>
      </trkpt>
      <trkpt lat="43.60453" lon="6.3081">
        <ele>709</ele>
        <time>2023-01-06T14:34:53Z</time>
      </trkpt>
      <trkpt lat="43.60453" lon="6.30809">
        <ele>709</ele>
        <time>2023-01-06T14:34:54Z</time>
      </trkpt>
      <trkpt lat="43.60453" lon="6.30809">
        <ele>709</ele>
        <time>2023-01-06T14:34:55Z</time>
      </trkpt>
      <trkpt lat="43.60453" lon="6.30809">
        <ele>709</ele>
        <time>2023-01-06T14:34:56Z</time>
      </trkpt>
      <trkpt lat="43.60453" lon="6.30809">
        <ele>709</ele>
        <time>2023-01-06T14:34:57Z</time>
      </trkpt>
      <trkpt lat="43.60453" lon="6.30809">
        <ele>709</ele>
        <time>2023-01-06T14:34:58Z</time>
      </trkpt>
      <trkpt lat="43.60453" lon="6.30809">
        <ele>709</ele>
        <time>2023-01-06T14:34:59Z</time>
      </trkpt>
      <trkpt lat="43.60453" lon="6.30808">
        <ele>709</ele>
        <time>2023-01-06T14:35:00Z</time>
      </trkpt>
      <trkpt lat="43.60453" lon="6.30808">
        <ele>709</ele>
        <time>2023-01-06T14:35:01Z</time>
      </trkpt>
      <trkpt lat="43.60453" lon="6.30808">
        <ele>709</ele>
        <time>2023-01-06T14:35:02Z</time>
      </trkpt>
      <trkpt lat="43.60453" lon="6.30808">
        <ele>709</ele>
        <time>2023-01-06T14:35:03Z</time>
      </trkpt>
      <trkpt lat="43.60452" lon="6.30808">
        <ele>710</ele>
        <time>2023-01-06T14:35:04Z</time>
      </trkpt>
      <trkpt lat="43.60452" lon="6.30807">
        <ele>710</ele>
        <time>2023-01-06T14:35:05Z</time>
      </trkpt>
      <trkpt lat="43.60451" lon="6.30805">
        <ele>710</ele>
        <time>2023-01-06T14:35:06Z</time>
      </trkpt>
      <trkpt lat="43.60451" lon="6.30804">
        <ele>710</ele>
        <time>2023-01-06T14:35:07Z</time>
      </trkpt>
      <trkpt lat="43.6045" lon="6.30802">
        <ele>710</ele>
        <time>2023-01-06T14:35:08Z</time>
      </trkpt>
      <trkpt lat="43.60449" lon="6.30801">
        <ele>710</ele>
        <time>2023-01-06T14:35:09Z</time>
      </trkpt>
      <trkpt lat="43.60449" lon="6.30799">
        <ele>710</ele>
        <time>2023-01-06T14:35:10Z</time>
      </trkpt>
      <trkpt lat="43.60448" lon="6.30797">
        <ele>710</ele>
        <time>2023-01-06T14:35:11Z</time>
      </trkpt>
      <trkpt lat="43.60447" lon="6.30796">
        <ele>710</ele>
        <time>2023-01-06T14:35:12Z</time>
      </trkpt>
      <trkpt lat="43.60447" lon="6.30795">
        <ele>710</ele>
        <time>2023-01-06T14:35:13Z</time>
      </trkpt>
      <trkpt lat="43.60446" lon="6.30794">
        <ele>710</ele>
        <time>2023-01-06T14:35:14Z</time>
      </trkpt>
      <trkpt lat="43.60446" lon="6.30793">
        <ele>710</ele>
        <time>2023-01-06T14:35:15Z</time>
      </trkpt>
      <trkpt lat="43.60446" lon="6.30792">
        <ele>711</ele>
        <time>2023-01-06T14:35:16Z</time>
      </trkpt>
      <trkpt lat="43.60445" lon="6.30791">
        <ele>711</ele>
        <time>2023-01-06T14:35:17Z</time>
      </trkpt>
      <trkpt lat="43.60445" lon="6.3079">
        <ele>711</ele>
        <time>2023-01-06T14:35:18Z</time>
      </trkpt>
      <trkpt lat="43.60444" lon="6.30788">
        <ele>711</ele>
        <time>2023-01-06T14:35:19Z</time>
      </trkpt>
      <trkpt lat="43.60444" lon="6.30787">
        <ele>711</ele>
        <time>2023-01-06T14:35:20Z</time>
      </trkpt>
      <trkpt lat="43.60444" lon="6.30786">
        <ele>711</ele>
        <time>2023-01-06T14:35:21Z</time>
      </trkpt>
      <trkpt lat="43.60443" lon="6.30784">
        <ele>711</ele>
        <time>2023-01-06T14:35:22Z</time>
      </trkpt>
      <trkpt lat="43.60443" lon="6.30783">
        <ele>711</ele>
        <time>2023-01-06T14:35:23Z</time>
      </trkpt>
      <trkpt lat="43.60442" lon="6.30781">
        <ele>711</ele>
        <time>2023-01-06T14:35:24Z</time>
      </trkpt>
      <trkpt lat="43.60442" lon="6.3078">
        <ele>711</ele>
        <time>2023-01-06T14:35:25Z</time>
      </trkpt>
      <trkpt lat="43.60442" lon="6.30778">
        <ele>711</ele>
        <time>2023-01-06T14:35:26Z</time>
      </trkpt>
      <trkpt lat="43.60441" lon="6.30777">
        <ele>711</ele>
        <time>2023-01-06T14:35:27Z</time>
      </trkpt>
      <trkpt lat="43.60441" lon="6.30776">
        <ele>711</ele>
        <time>2023-01-06T14:35:28Z</time>
      </trkpt>
      <trkpt lat="43.60441" lon="6.30775">
        <ele>711</ele>
        <time>2023-01-06T14:35:29Z</time>
      </trkpt>
      <trkpt lat="43.60441" lon="6.30774">
        <ele>711</ele>
        <time>2023-01-06T14:35:30Z</time>
      </trkpt>
      <trkpt lat="43.60441" lon="6.30773">
        <ele>711</ele>
        <time>2023-01-06T14:35:31Z</time>
      </trkpt>
      <trkpt lat="43.6044" lon="6.30773">
        <ele>711</ele>
        <time>2023-01-06T14:35:32Z</time>
      </trkpt>
      <trkpt lat="43.6044" lon="6.30772">
        <ele>711</ele>
        <time>2023-01-06T14:35:33Z</time>
      </trkpt>
      <trkpt lat="43.6044" lon="6.30772">
        <ele>711</ele>
        <time>2023-01-06T14:35:34Z</time>
      </trkpt>
      <trkpt lat="43.6044" lon="6.30771">
        <ele>711</ele>
        <time>2023-01-06T14:35:35Z</time>
      </trkpt>
      <trkpt lat="43.6044" lon="6.30771">
        <ele>711</ele>
        <time>2023-01-06T14:35:36Z</time>
      </trkpt>
      <trkpt lat="43.6044" lon="6.30771">
        <ele>711</ele>
        <time>2023-01-06T14:35:37Z</time>
      </trkpt>
      <trkpt lat="43.6044" lon="6.30771">
        <ele>711</ele>
        <time>2023-01-06T14:35:38Z</time>
      </trkpt>
      <trkpt lat="43.6044" lon="6.3077">
        <ele>711</ele>
        <time>2023-01-06T14:35:39Z</time>
      </trkpt>
      <trkpt lat="43.6044" lon="6.3077">
        <ele>711</ele>
        <time>2023-01-06T14:35:40Z</time>
      </trkpt>
      <trkpt lat="43.6044" lon="6.3077">
        <ele>711</ele>
        <time>2023-01-06T14:35:41Z</time>
      </trkpt>
      <trkpt lat="43.6044" lon="6.3077">
        <ele>711</ele>
        <time>2023-01-06T14:35:42Z</time>
      </trkpt>
      <trkpt lat="43.6044" lon="6.3077">
        <ele>711</ele>
        <time>2023-01-06T14:35:43Z</time>
      </trkpt>
      <trkpt lat="43.6044" lon="6.3077">
        <ele>711</ele>
        <time>2023-01-06T14:35:44Z</time>
      </trkpt>
      <trkpt lat="43.6044" lon="6.30769">
        <ele>711</ele>
        <time>2023-01-06T14:35:45Z</time>
      </trkpt>
      <trkpt lat="43.6044" lon="6.30768">
        <ele>711</ele>
        <time>2023-01-06T14:35:46Z</time>
      </trkpt>
      <trkpt lat="43.6044" lon="6.30767">
        <ele>711</ele>
        <time>2023-01-06T14:35:47Z</time>
      </trkpt>
      <trkpt lat="43.6044" lon="6.30766">
        <ele>712</ele>
        <time>2023-01-06T14:35:48Z</time>
      </trkpt>
      <trkpt lat="43.6044" lon="6.30765">
        <ele>712</ele>
        <time>2023-01-06T14:35:49Z</time>
      </trkpt>
      <trkpt lat="43.6044" lon="6.30764">
        <ele>712</ele>
        <time>2023-01-06T14:35:50Z</time>
      </trkpt>
      <trkpt lat="43.6044" lon="6.30763">
        <ele>712</ele>
        <time>2023-01-06T14:35:51Z</time>
      </trkpt>
      <trkpt lat="43.6044" lon="6.30762">
        <ele>712</ele>
        <time>2023-01-06T14:35:52Z</time>
      </trkpt>
      <trkpt lat="43.60439" lon="6.30762">
        <ele>712</ele>
        <time>2023-01-06T14:35:53Z</time>
      </trkpt>
      <trkpt lat="43.60439" lon="6.30761">
        <ele>712</ele>
        <time>2023-01-06T14:35:54Z</time>
      </trkpt>
      <trkpt lat="43.60439" lon="6.30759">
        <ele>712</ele>
        <time>2023-01-06T14:35:55Z</time>
      </trkpt>
      <trkpt lat="43.60439" lon="6.30758">
        <ele>712</ele>
        <time>2023-01-06T14:35:56Z</time>
      </trkpt>
      <trkpt lat="43.60439" lon="6.30757">
        <ele>712</ele>
        <time>2023-01-06T14:35:57Z</time>
      </trkpt>
      <trkpt lat="43.6044" lon="6.30756">
        <ele>712</ele>
        <time>2023-01-06T14:35:58Z</time>
      </trkpt>
      <trkpt lat="43.6044" lon="6.30755">
        <ele>712</ele>
        <time>2023-01-06T14:35:59Z</time>
      </trkpt>
      <trkpt lat="43.6044" lon="6.30753">
        <ele>711</ele>
        <time>2023-01-06T14:36:00Z</time>
      </trkpt>
      <trkpt lat="43.6044" lon="6.30752">
        <ele>711</ele>
        <time>2023-01-06T14:36:01Z</time>
      </trkpt>
      <trkpt lat="43.60441" lon="6.3075">
        <ele>711</ele>
        <time>2023-01-06T14:36:02Z</time>
      </trkpt>
      <trkpt lat="43.60441" lon="6.30749">
        <ele>711</ele>
        <time>2023-01-06T14:36:03Z</time>
      </trkpt>
      <trkpt lat="43.60442" lon="6.30748">
        <ele>711</ele>
        <time>2023-01-06T14:36:04Z</time>
      </trkpt>
      <trkpt lat="43.60442" lon="6.30747">
        <ele>711</ele>
        <time>2023-01-06T14:36:05Z</time>
      </trkpt>
      <trkpt lat="43.60443" lon="6.30745">
        <ele>711</ele>
        <time>2023-01-06T14:36:06Z</time>
      </trkpt>
      <trkpt lat="43.60443" lon="6.30745">
        <ele>711</ele>
        <time>2023-01-06T14:36:07Z</time>
      </trkpt>
      <trkpt lat="43.60443" lon="6.30744">
        <ele>711</ele>
        <time>2023-01-06T14:36:08Z</time>
      </trkpt>
      <trkpt lat="43.60443" lon="6.30743">
        <ele>711</ele>
        <time>2023-01-06T14:36:09Z</time>
      </trkpt>
      <trkpt lat="43.60444" lon="6.30742">
        <ele>711</ele>
        <time>2023-01-06T14:36:10Z</time>
      </trkpt>
      <trkpt lat="43.60444" lon="6.3074">
        <ele>711</ele>
        <time>2023-01-06T14:36:11Z</time>
      </trkpt>
      <trkpt lat="43.60444" lon="6.3074">
        <ele>711</ele>
        <time>2023-01-06T14:36:12Z</time>
      </trkpt>
      <trkpt lat="43.60445" lon="6.30739">
        <ele>711</ele>
        <time>2023-01-06T14:36:13Z</time>
      </trkpt>
      <trkpt lat="43.60445" lon="6.30738">
        <ele>711</ele>
        <time>2023-01-06T14:36:14Z</time>
      </trkpt>
      <trkpt lat="43.60445" lon="6.30738">
        <ele>711</ele>
        <time>2023-01-06T14:36:15Z</time>
      </trkpt>
      <trkpt lat="43.60445" lon="6.30738">
        <ele>711</ele>
        <time>2023-01-06T14:36:16Z</time>
      </trkpt>
      <trkpt lat="43.60445" lon="6.30737">
        <ele>711</ele>
        <time>2023-01-06T14:36:17Z</time>
      </trkpt>
      <trkpt lat="43.60445" lon="6.30737">
        <ele>711</ele>
        <time>2023-01-06T14:36:18Z</time>
      </trkpt>
      <trkpt lat="43.60446" lon="6.30737">
        <ele>711</ele>
        <time>2023-01-06T14:36:19Z</time>
      </trkpt>
      <trkpt lat="43.60446" lon="6.30737">
        <ele>711</ele>
        <time>2023-01-06T14:36:20Z</time>
      </trkpt>
      <trkpt lat="43.60446" lon="6.30736">
        <ele>711</ele>
        <time>2023-01-06T14:36:21Z</time>
      </trkpt>
      <trkpt lat="43.60446" lon="6.30736">
        <ele>711</ele>
        <time>2023-01-06T14:36:22Z</time>
      </trkpt>
      <trkpt lat="43.60446" lon="6.30736">
        <ele>711</ele>
        <time>2023-01-06T14:36:23Z</time>
      </trkpt>
      <trkpt lat="43.60446" lon="6.30736">
        <ele>711</ele>
        <time>2023-01-06T14:36:24Z</time>
      </trkpt>
      <trkpt lat="43.60446" lon="6.30736">
        <ele>711</ele>
        <time>2023-01-06T14:36:25Z</time>
      </trkpt>
      <trkpt lat="43.60446" lon="6.30736">
        <ele>711</ele>
        <time>2023-01-06T14:36:26Z</time>
      </trkpt>
      <trkpt lat="43.60446" lon="6.30736">
        <ele>711</ele>
        <time>2023-01-06T14:36:27Z</time>
      </trkpt>
      <trkpt lat="43.60446" lon="6.30736">
        <ele>711</ele>
        <time>2023-01-06T14:36:28Z</time>
      </trkpt>
      <trkpt lat="43.60446" lon="6.30736">
        <ele>711</ele>
        <time>2023-01-06T14:36:29Z</time>
      </trkpt>
      <trkpt lat="43.60446" lon="6.30736">
        <ele>711</ele>
        <time>2023-01-06T14:36:30Z</time>
      </trkpt>
      <trkpt lat="43.60446" lon="6.30736">
        <ele>711</ele>
        <time>2023-01-06T14:36:31Z</time>
      </trkpt>
      <trkpt lat="43.60446" lon="6.30736">
        <ele>711</ele>
        <time>2023-01-06T14:36:32Z</time>
      </trkpt>
      <trkpt lat="43.60446" lon="6.30736">
        <ele>711</ele>
        <time>2023-01-06T14:36:33Z</time>
      </trkpt>
      <trkpt lat="43.60446" lon="6.30736">
        <ele>711</ele>
        <time>2023-01-06T14:36:34Z</time>
      </trkpt>
      <trkpt lat="43.60446" lon="6.30736">
        <ele>711</ele>
        <time>2023-01-06T14:36:35Z</time>
      </trkpt>
      <trkpt lat="43.60446" lon="6.30736">
        <ele>711</ele>
        <time>2023-01-06T14:36:36Z</time>
      </trkpt>
      <trkpt lat="43.60446" lon="6.30736">
        <ele>711</ele>
        <time>2023-01-06T14:36:37Z</time>
      </trkpt>
      <trkpt lat="43.60446" lon="6.30735">
        <ele>711</ele>
        <time>2023-01-06T14:36:38Z</time>
      </trkpt>
      <trkpt lat="43.60446" lon="6.30734">
        <ele>711</ele>
        <time>2023-01-06T14:36:39Z</time>
      </trkpt>
      <trkpt lat="43.60446" lon="6.30734">
        <ele>711</ele>
        <time>2023-01-06T14:36:40Z</time>
      </trkpt>
      <trkpt lat="43.60446" lon="6.30734">
        <ele>711</ele>
        <time>2023-01-06T14:36:41Z</time>
      </trkpt>
      <trkpt lat="43.60446" lon="6.30734">
        <ele>711</ele>
        <time>2023-01-06T14:36:42Z</time>
      </trkpt>
      <trkpt lat="43.60446" lon="6.30734">
        <ele>711</ele>
        <time>2023-01-06T14:36:43Z</time>
      </trkpt>
      <trkpt lat="43.60446" lon="6.30734">
        <ele>711</ele>
        <time>2023-01-06T14:36:44Z</time>
      </trkpt>
      <trkpt lat="43.60446" lon="6.30734">
        <ele>711</ele>
        <time>2023-01-06T14:36:45Z</time>
      </trkpt>
      <trkpt lat="43.60446" lon="6.30734">
        <ele>711</ele>
        <time>2023-01-06T14:36:46Z</time>
      </trkpt>
      <trkpt lat="43.60446" lon="6.30734">
        <ele>711</ele>
        <time>2023-01-06T14:36:47Z</time>
      </trkpt>
      <trkpt lat="43.60446" lon="6.30734">
        <ele>711</ele>
        <time>2023-01-06T14:36:48Z</time>
      </trkpt>
      <trkpt lat="43.60446" lon="6.30733">
        <ele>711</ele>
        <time>2023-01-06T14:36:49Z</time>
      </trkpt>
      <trkpt lat="43.60445" lon="6.30732">
        <ele>711</ele>
        <time>2023-01-06T14:36:50Z</time>
      </trkpt>
      <trkpt lat="43.60445" lon="6.30731">
        <ele>711</ele>
        <time>2023-01-06T14:36:51Z</time>
      </trkpt>
      <trkpt lat="43.60444" lon="6.3073">
        <ele>711</ele>
        <time>2023-01-06T14:36:52Z</time>
      </trkpt>
      <trkpt lat="43.60443" lon="6.30729">
        <ele>711</ele>
        <time>2023-01-06T14:36:53Z</time>
      </trkpt>
      <trkpt lat="43.60443" lon="6.30728">
        <ele>711</ele>
        <time>2023-01-06T14:36:54Z</time>
      </trkpt>
      <trkpt lat="43.60442" lon="6.30727">
        <ele>711</ele>
        <time>2023-01-06T14:36:55Z</time>
      </trkpt>
      <trkpt lat="43.60441" lon="6.30727">
        <ele>711</ele>
        <time>2023-01-06T14:36:56Z</time>
      </trkpt>
      <trkpt lat="43.6044" lon="6.30726">
        <ele>711</ele>
        <time>2023-01-06T14:36:57Z</time>
      </trkpt>
      <trkpt lat="43.60439" lon="6.30725">
        <ele>711</ele>
        <time>2023-01-06T14:36:58Z</time>
      </trkpt>
      <trkpt lat="43.60438" lon="6.30724">
        <ele>711</ele>
        <time>2023-01-06T14:36:59Z</time>
      </trkpt>
      <trkpt lat="43.60437" lon="6.30723">
        <ele>712</ele>
        <time>2023-01-06T14:37:00Z</time>
      </trkpt>
      <trkpt lat="43.60436" lon="6.30722">
        <ele>712</ele>
        <time>2023-01-06T14:37:01Z</time>
      </trkpt>
      <trkpt lat="43.60435" lon="6.30721">
        <ele>712</ele>
        <time>2023-01-06T14:37:02Z</time>
      </trkpt>
      <trkpt lat="43.60434" lon="6.3072">
        <ele>712</ele>
        <time>2023-01-06T14:37:03Z</time>
      </trkpt>
      <trkpt lat="43.60434" lon="6.3072">
        <ele>712</ele>
        <time>2023-01-06T14:37:04Z</time>
      </trkpt>
      <trkpt lat="43.60433" lon="6.30719">
        <ele>712</ele>
        <time>2023-01-06T14:37:05Z</time>
      </trkpt>
      <trkpt lat="43.60432" lon="6.30718">
        <ele>712</ele>
        <time>2023-01-06T14:37:06Z</time>
      </trkpt>
      <trkpt lat="43.60432" lon="6.30718">
        <ele>712</ele>
        <time>2023-01-06T14:37:07Z</time>
      </trkpt>
      <trkpt lat="43.60431" lon="6.30717">
        <ele>712</ele>
        <time>2023-01-06T14:37:08Z</time>
      </trkpt>
      <trkpt lat="43.6043" lon="6.30716">
        <ele>712</ele>
        <time>2023-01-06T14:37:09Z</time>
      </trkpt>
      <trkpt lat="43.6043" lon="6.30716">
        <ele>712</ele>
        <time>2023-01-06T14:37:10Z</time>
      </trkpt>
      <trkpt lat="43.60429" lon="6.30716">
        <ele>712</ele>
        <time>2023-01-06T14:37:11Z</time>
      </trkpt>
      <trkpt lat="43.60429" lon="6.30715">
        <ele>712</ele>
        <time>2023-01-06T14:37:12Z</time>
      </trkpt>
      <trkpt lat="43.60428" lon="6.30714">
        <ele>712</ele>
        <time>2023-01-06T14:37:13Z</time>
      </trkpt>
      <trkpt lat="43.60426" lon="6.30713">
        <ele>712</ele>
        <time>2023-01-06T14:37:14Z</time>
      </trkpt>
      <trkpt lat="43.60425" lon="6.30712">
        <ele>712</ele>
        <time>2023-01-06T14:37:15Z</time>
      </trkpt>
      <trkpt lat="43.60424" lon="6.30711">
        <ele>712</ele>
        <time>2023-01-06T14:37:16Z</time>
      </trkpt>
      <trkpt lat="43.60423" lon="6.30711">
        <ele>712</ele>
        <time>2023-01-06T14:37:17Z</time>
      </trkpt>
      <trkpt lat="43.60423" lon="6.3071">
        <ele>712</ele>
        <time>2023-01-06T14:37:18Z</time>
      </trkpt>
      <trkpt lat="43.60422" lon="6.30709">
        <ele>712</ele>
        <time>2023-01-06T14:37:19Z</time>
      </trkpt>
      <trkpt lat="43.60421" lon="6.30708">
        <ele>712</ele>
        <time>2023-01-06T14:37:20Z</time>
      </trkpt>
      <trkpt lat="43.6042" lon="6.30708">
        <ele>712</ele>
        <time>2023-01-06T14:37:21Z</time>
      </trkpt>
      <trkpt lat="43.6042" lon="6.30707">
        <ele>712</ele>
        <time>2023-01-06T14:37:22Z</time>
      </trkpt>
      <trkpt lat="43.60419" lon="6.30707">
        <ele>712</ele>
        <time>2023-01-06T14:37:23Z</time>
      </trkpt>
      <trkpt lat="43.60419" lon="6.30706">
        <ele>712</ele>
        <time>2023-01-06T14:37:24Z</time>
      </trkpt>
      <trkpt lat="43.60418" lon="6.30705">
        <ele>712</ele>
        <time>2023-01-06T14:37:25Z</time>
      </trkpt>
      <trkpt lat="43.60416" lon="6.30704">
        <ele>711</ele>
        <time>2023-01-06T14:37:26Z</time>
      </trkpt>
      <trkpt lat="43.60415" lon="6.30703">
        <ele>711</ele>
        <time>2023-01-06T14:37:27Z</time>
      </trkpt>
      <trkpt lat="43.60415" lon="6.30703">
        <ele>711</ele>
        <time>2023-01-06T14:37:28Z</time>
      </trkpt>
      <trkpt lat="43.60414" lon="6.30702">
        <ele>711</ele>
        <time>2023-01-06T14:37:29Z</time>
      </trkpt>
      <trkpt lat="43.60414" lon="6.30702">
        <ele>711</ele>
        <time>2023-01-06T14:37:30Z</time>
      </trkpt>
      <trkpt lat="43.60414" lon="6.30702">
        <ele>711</ele>
        <time>2023-01-06T14:37:31Z</time>
      </trkpt>
      <trkpt lat="43.60413" lon="6.30701">
        <ele>711</ele>
        <time>2023-01-06T14:37:32Z</time>
      </trkpt>
      <trkpt lat="43.60413" lon="6.30701">
        <ele>711</ele>
        <time>2023-01-06T14:37:33Z</time>
      </trkpt>
      <trkpt lat="43.60413" lon="6.30701">
        <ele>711</ele>
        <time>2023-01-06T14:37:34Z</time>
      </trkpt>
      <trkpt lat="43.60412" lon="6.307">
        <ele>711</ele>
        <time>2023-01-06T14:37:35Z</time>
      </trkpt>
      <trkpt lat="43.60412" lon="6.307">
        <ele>711</ele>
        <time>2023-01-06T14:37:36Z</time>
      </trkpt>
      <trkpt lat="43.60411" lon="6.30699">
        <ele>711</ele>
        <time>2023-01-06T14:37:37Z</time>
      </trkpt>
      <trkpt lat="43.60411" lon="6.30699">
        <ele>711</ele>
        <time>2023-01-06T14:37:38Z</time>
      </trkpt>
      <trkpt lat="43.6041" lon="6.30698">
        <ele>711</ele>
        <time>2023-01-06T14:37:39Z</time>
      </trkpt>
      <trkpt lat="43.6041" lon="6.30698">
        <ele>711</ele>
        <time>2023-01-06T14:37:40Z</time>
      </trkpt>
      <trkpt lat="43.6041" lon="6.30698">
        <ele>711</ele>
        <time>2023-01-06T14:37:41Z</time>
      </trkpt>
      <trkpt lat="43.6041" lon="6.30697">
        <ele>711</ele>
        <time>2023-01-06T14:37:42Z</time>
      </trkpt>
      <trkpt lat="43.60409" lon="6.30696">
        <ele>711</ele>
        <time>2023-01-06T14:37:43Z</time>
      </trkpt>
      <trkpt lat="43.60408" lon="6.30695">
        <ele>711</ele>
        <time>2023-01-06T14:37:44Z</time>
      </trkpt>
      <trkpt lat="43.60408" lon="6.30694">
        <ele>711</ele>
        <time>2023-01-06T14:37:45Z</time>
      </trkpt>
      <trkpt lat="43.60407" lon="6.30694">
        <ele>711</ele>
        <time>2023-01-06T14:37:46Z</time>
      </trkpt>
      <trkpt lat="43.60406" lon="6.30693">
        <ele>712</ele>
        <time>2023-01-06T14:37:47Z</time>
      </trkpt>
      <trkpt lat="43.60406" lon="6.30692">
        <ele>712</ele>
        <time>2023-01-06T14:37:48Z</time>
      </trkpt>
      <trkpt lat="43.60405" lon="6.30691">
        <ele>712</ele>
        <time>2023-01-06T14:37:49Z</time>
      </trkpt>
      <trkpt lat="43.60405" lon="6.3069">
        <ele>712</ele>
        <time>2023-01-06T14:37:50Z</time>
      </trkpt>
      <trkpt lat="43.60404" lon="6.30689">
        <ele>712</ele>
        <time>2023-01-06T14:37:51Z</time>
      </trkpt>
      <trkpt lat="43.60404" lon="6.30688">
        <ele>712</ele>
        <time>2023-01-06T14:37:52Z</time>
      </trkpt>
      <trkpt lat="43.60403" lon="6.30687">
        <ele>712</ele>
        <time>2023-01-06T14:37:53Z</time>
      </trkpt>
      <trkpt lat="43.60403" lon="6.30686">
        <ele>712</ele>
        <time>2023-01-06T14:37:54Z</time>
      </trkpt>
      <trkpt lat="43.60402" lon="6.30685">
        <ele>712</ele>
        <time>2023-01-06T14:37:55Z</time>
      </trkpt>
      <trkpt lat="43.60402" lon="6.30683">
        <ele>712</ele>
        <time>2023-01-06T14:37:56Z</time>
      </trkpt>
      <trkpt lat="43.60402" lon="6.30681">
        <ele>712</ele>
        <time>2023-01-06T14:37:57Z</time>
      </trkpt>
      <trkpt lat="43.60401" lon="6.3068">
        <ele>712</ele>
        <time>2023-01-06T14:37:58Z</time>
      </trkpt>
      <trkpt lat="43.604" lon="6.30679">
        <ele>712</ele>
        <time>2023-01-06T14:37:59Z</time>
      </trkpt>
      <trkpt lat="43.60399" lon="6.30678">
        <ele>713</ele>
        <time>2023-01-06T14:38:00Z</time>
      </trkpt>
      <trkpt lat="43.60398" lon="6.30677">
        <ele>713</ele>
        <time>2023-01-06T14:38:01Z</time>
      </trkpt>
      <trkpt lat="43.60398" lon="6.30675">
        <ele>713</ele>
        <time>2023-01-06T14:38:02Z</time>
      </trkpt>
      <trkpt lat="43.60397" lon="6.30674">
        <ele>713</ele>
        <time>2023-01-06T14:38:03Z</time>
      </trkpt>
      <trkpt lat="43.60396" lon="6.30673">
        <ele>713</ele>
        <time>2023-01-06T14:38:04Z</time>
      </trkpt>
      <trkpt lat="43.60395" lon="6.30672">
        <ele>713</ele>
        <time>2023-01-06T14:38:05Z</time>
      </trkpt>
      <trkpt lat="43.60394" lon="6.30671">
        <ele>713</ele>
        <time>2023-01-06T14:38:06Z</time>
      </trkpt>
      <trkpt lat="43.60393" lon="6.3067">
        <ele>713</ele>
        <time>2023-01-06T14:38:07Z</time>
      </trkpt>
      <trkpt lat="43.60391" lon="6.30667">
        <ele>713</ele>
        <time>2023-01-06T14:38:08Z</time>
      </trkpt>
      <trkpt lat="43.60389" lon="6.30664">
        <ele>713</ele>
        <time>2023-01-06T14:38:09Z</time>
      </trkpt>
      <trkpt lat="43.60388" lon="6.30662">
        <ele>713</ele>
        <time>2023-01-06T14:38:10Z</time>
      </trkpt>
      <trkpt lat="43.60386" lon="6.30659">
        <ele>713</ele>
        <time>2023-01-06T14:38:11Z</time>
      </trkpt>
      <trkpt lat="43.60384" lon="6.30657">
        <ele>713</ele>
        <time>2023-01-06T14:38:12Z</time>
      </trkpt>
      <trkpt lat="43.60383" lon="6.30655">
        <ele>713</ele>
        <time>2023-01-06T14:38:13Z</time>
      </trkpt>
      <trkpt lat="43.60382" lon="6.30654">
        <ele>713</ele>
        <time>2023-01-06T14:38:14Z</time>
      </trkpt>
      <trkpt lat="43.60381" lon="6.30652">
        <ele>713</ele>
        <time>2023-01-06T14:38:15Z</time>
      </trkpt>
      <trkpt lat="43.6038" lon="6.30651">
        <ele>714</ele>
        <time>2023-01-06T14:38:16Z</time>
      </trkpt>
      <trkpt lat="43.6038" lon="6.30649">
        <ele>715</ele>
        <time>2023-01-06T14:38:17Z</time>
      </trkpt>
      <trkpt lat="43.6038" lon="6.30649">
        <ele>715</ele>
        <time>2023-01-06T14:38:18Z</time>
      </trkpt>
      <trkpt lat="43.60379" lon="6.30648">
        <ele>715</ele>
        <time>2023-01-06T14:38:19Z</time>
      </trkpt>
      <trkpt lat="43.60379" lon="6.30648">
        <ele>715</ele>
        <time>2023-01-06T14:38:20Z</time>
      </trkpt>
      <trkpt lat="43.60379" lon="6.30647">
        <ele>716</ele>
        <time>2023-01-06T14:38:21Z</time>
      </trkpt>
      <trkpt lat="43.60379" lon="6.30647">
        <ele>716</ele>
        <time>2023-01-06T14:38:22Z</time>
      </trkpt>
      <trkpt lat="43.60379" lon="6.30647">
        <ele>716</ele>
        <time>2023-01-06T14:38:23Z</time>
      </trkpt>
      <trkpt lat="43.60379" lon="6.30646">
        <ele>716</ele>
        <time>2023-01-06T14:38:24Z</time>
      </trkpt>
      <trkpt lat="43.60379" lon="6.30646">
        <ele>716</ele>
        <time>2023-01-06T14:38:25Z</time>
      </trkpt>
      <trkpt lat="43.60378" lon="6.30645">
        <ele>716</ele>
        <time>2023-01-06T14:38:26Z</time>
      </trkpt>
      <trkpt lat="43.60378" lon="6.30645">
        <ele>716</ele>
        <time>2023-01-06T14:38:27Z</time>
      </trkpt>
      <trkpt lat="43.60378" lon="6.30645">
        <ele>716</ele>
        <time>2023-01-06T14:38:28Z</time>
      </trkpt>
      <trkpt lat="43.60378" lon="6.30644">
        <ele>716</ele>
        <time>2023-01-06T14:38:29Z</time>
      </trkpt>
      <trkpt lat="43.60378" lon="6.30644">
        <ele>716</ele>
        <time>2023-01-06T14:38:30Z</time>
      </trkpt>
      <trkpt lat="43.60378" lon="6.30644">
        <ele>716</ele>
        <time>2023-01-06T14:38:31Z</time>
      </trkpt>
      <trkpt lat="43.60378" lon="6.30644">
        <ele>716</ele>
        <time>2023-01-06T14:38:32Z</time>
      </trkpt>
      <trkpt lat="43.60378" lon="6.30644">
        <ele>716</ele>
        <time>2023-01-06T14:38:33Z</time>
      </trkpt>
      <trkpt lat="43.60378" lon="6.30644">
        <ele>716</ele>
        <time>2023-01-06T14:38:34Z</time>
      </trkpt>
      <trkpt lat="43.60378" lon="6.30644">
        <ele>716</ele>
        <time>2023-01-06T14:38:35Z</time>
      </trkpt>
      <trkpt lat="43.60378" lon="6.30644">
        <ele>716</ele>
        <time>2023-01-06T14:38:36Z</time>
      </trkpt>
      <trkpt lat="43.60377" lon="6.30644">
        <ele>716</ele>
        <time>2023-01-06T14:38:37Z</time>
      </trkpt>
      <trkpt lat="43.60377" lon="6.30645">
        <ele>716</ele>
        <time>2023-01-06T14:38:38Z</time>
      </trkpt>
      <trkpt lat="43.60377" lon="6.30644">
        <ele>716</ele>
        <time>2023-01-06T14:38:39Z</time>
      </trkpt>
      <trkpt lat="43.60377" lon="6.30644">
        <ele>716</ele>
        <time>2023-01-06T14:38:40Z</time>
      </trkpt>
      <trkpt lat="43.60376" lon="6.30643">
        <ele>716</ele>
        <time>2023-01-06T14:38:41Z</time>
      </trkpt>
      <trkpt lat="43.60376" lon="6.30643">
        <ele>716</ele>
        <time>2023-01-06T14:38:42Z</time>
      </trkpt>
      <trkpt lat="43.60376" lon="6.30642">
        <ele>716</ele>
        <time>2023-01-06T14:38:43Z</time>
      </trkpt>
      <trkpt lat="43.60376" lon="6.30641">
        <ele>716</ele>
        <time>2023-01-06T14:38:44Z</time>
      </trkpt>
      <trkpt lat="43.60376" lon="6.30641">
        <ele>716</ele>
        <time>2023-01-06T14:38:45Z</time>
      </trkpt>
      <trkpt lat="43.60376" lon="6.3064">
        <ele>716</ele>
        <time>2023-01-06T14:38:46Z</time>
      </trkpt>
      <trkpt lat="43.60376" lon="6.30639">
        <ele>716</ele>
        <time>2023-01-06T14:38:47Z</time>
      </trkpt>
      <trkpt lat="43.60376" lon="6.30638">
        <ele>716</ele>
        <time>2023-01-06T14:38:48Z</time>
      </trkpt>
      <trkpt lat="43.60376" lon="6.30637">
        <ele>716</ele>
        <time>2023-01-06T14:38:49Z</time>
      </trkpt>
      <trkpt lat="43.60376" lon="6.30637">
        <ele>716</ele>
        <time>2023-01-06T14:38:50Z</time>
      </trkpt>
      <trkpt lat="43.60376" lon="6.30636">
        <ele>716</ele>
        <time>2023-01-06T14:38:51Z</time>
      </trkpt>
      <trkpt lat="43.60376" lon="6.30635">
        <ele>716</ele>
        <time>2023-01-06T14:38:52Z</time>
      </trkpt>
      <trkpt lat="43.60376" lon="6.30635">
        <ele>716</ele>
        <time>2023-01-06T14:38:53Z</time>
      </trkpt>
      <trkpt lat="43.60376" lon="6.30634">
        <ele>717</ele>
        <time>2023-01-06T14:38:54Z</time>
      </trkpt>
      <trkpt lat="43.60376" lon="6.30633">
        <ele>718</ele>
        <time>2023-01-06T14:38:55Z</time>
      </trkpt>
      <trkpt lat="43.60376" lon="6.30632">
        <ele>718</ele>
        <time>2023-01-06T14:38:56Z</time>
      </trkpt>
      <trkpt lat="43.60376" lon="6.30631">
        <ele>718</ele>
        <time>2023-01-06T14:38:57Z</time>
      </trkpt>
      <trkpt lat="43.60375" lon="6.30629">
        <ele>718</ele>
        <time>2023-01-06T14:38:58Z</time>
      </trkpt>
      <trkpt lat="43.60374" lon="6.30628">
        <ele>718</ele>
        <time>2023-01-06T14:38:59Z</time>
      </trkpt>
      <trkpt lat="43.60374" lon="6.30627">
        <ele>718</ele>
        <time>2023-01-06T14:39:00Z</time>
      </trkpt>
      <trkpt lat="43.60373" lon="6.30626">
        <ele>718</ele>
        <time>2023-01-06T14:39:01Z</time>
      </trkpt>
      <trkpt lat="43.60373" lon="6.30625">
        <ele>718</ele>
        <time>2023-01-06T14:39:02Z</time>
      </trkpt>
      <trkpt lat="43.60373" lon="6.30625">
        <ele>718</ele>
        <time>2023-01-06T14:39:03Z</time>
      </trkpt>
      <trkpt lat="43.60373" lon="6.30624">
        <ele>718</ele>
        <time>2023-01-06T14:39:04Z</time>
      </trkpt>
      <trkpt lat="43.60373" lon="6.30624">
        <ele>718</ele>
        <time>2023-01-06T14:39:05Z</time>
      </trkpt>
      <trkpt lat="43.60373" lon="6.30624">
        <ele>718</ele>
        <time>2023-01-06T14:39:06Z</time>
      </trkpt>
      <trkpt lat="43.60373" lon="6.30623">
        <ele>718</ele>
        <time>2023-01-06T14:39:07Z</time>
      </trkpt>
      <trkpt lat="43.60373" lon="6.30623">
        <ele>718</ele>
        <time>2023-01-06T14:39:08Z</time>
      </trkpt>
      <trkpt lat="43.60373" lon="6.30623">
        <ele>718</ele>
        <time>2023-01-06T14:39:09Z</time>
      </trkpt>
      <trkpt lat="43.60373" lon="6.30623">
        <ele>718</ele>
        <time>2023-01-06T14:39:10Z</time>
      </trkpt>
      <trkpt lat="43.60372" lon="6.30622">
        <ele>718</ele>
        <time>2023-01-06T14:39:11Z</time>
      </trkpt>
      <trkpt lat="43.60372" lon="6.30622">
        <ele>718</ele>
        <time>2023-01-06T14:39:12Z</time>
      </trkpt>
      <trkpt lat="43.60372" lon="6.30621">
        <ele>718</ele>
        <time>2023-01-06T14:39:13Z</time>
      </trkpt>
      <trkpt lat="43.60371" lon="6.30621">
        <ele>718</ele>
        <time>2023-01-06T14:39:14Z</time>
      </trkpt>
      <trkpt lat="43.60371" lon="6.3062">
        <ele>718</ele>
        <time>2023-01-06T14:39:15Z</time>
      </trkpt>
      <trkpt lat="43.6037" lon="6.30619">
        <ele>718</ele>
        <time>2023-01-06T14:39:16Z</time>
      </trkpt>
      <trkpt lat="43.6037" lon="6.30618">
        <ele>718</ele>
        <time>2023-01-06T14:39:17Z</time>
      </trkpt>
      <trkpt lat="43.60369" lon="6.30617">
        <ele>718</ele>
        <time>2023-01-06T14:39:18Z</time>
      </trkpt>
      <trkpt lat="43.60368" lon="6.30616">
        <ele>718</ele>
        <time>2023-01-06T14:39:19Z</time>
      </trkpt>
      <trkpt lat="43.60367" lon="6.30616">
        <ele>717</ele>
        <time>2023-01-06T14:39:20Z</time>
      </trkpt>
      <trkpt lat="43.60367" lon="6.30616">
        <ele>717</ele>
        <time>2023-01-06T14:39:21Z</time>
      </trkpt>
      <trkpt lat="43.60366" lon="6.30616">
        <ele>717</ele>
        <time>2023-01-06T14:39:22Z</time>
      </trkpt>
      <trkpt lat="43.60366" lon="6.30616">
        <ele>717</ele>
        <time>2023-01-06T14:39:23Z</time>
      </trkpt>
      <trkpt lat="43.60366" lon="6.30616">
        <ele>717</ele>
        <time>2023-01-06T14:39:24Z</time>
      </trkpt>
      <trkpt lat="43.60365" lon="6.30616">
        <ele>717</ele>
        <time>2023-01-06T14:39:25Z</time>
      </trkpt>
      <trkpt lat="43.60365" lon="6.30616">
        <ele>717</ele>
        <time>2023-01-06T14:39:26Z</time>
      </trkpt>
      <trkpt lat="43.60364" lon="6.30616">
        <ele>717</ele>
        <time>2023-01-06T14:39:27Z</time>
      </trkpt>
      <trkpt lat="43.60363" lon="6.30616">
        <ele>717</ele>
        <time>2023-01-06T14:39:28Z</time>
      </trkpt>
      <trkpt lat="43.60362" lon="6.30616">
        <ele>717</ele>
        <time>2023-01-06T14:39:29Z</time>
      </trkpt>
      <trkpt lat="43.60362" lon="6.30616">
        <ele>717</ele>
        <time>2023-01-06T14:39:30Z</time>
      </trkpt>
      <trkpt lat="43.60362" lon="6.30616">
        <ele>717</ele>
        <time>2023-01-06T14:39:31Z</time>
      </trkpt>
      <trkpt lat="43.60361" lon="6.30616">
        <ele>717</ele>
        <time>2023-01-06T14:39:32Z</time>
      </trkpt>
      <trkpt lat="43.60361" lon="6.30616">
        <ele>716</ele>
        <time>2023-01-06T14:39:33Z</time>
      </trkpt>
      <trkpt lat="43.60361" lon="6.30616">
        <ele>716</ele>
        <time>2023-01-06T14:39:34Z</time>
      </trkpt>
      <trkpt lat="43.60361" lon="6.30616">
        <ele>716</ele>
        <time>2023-01-06T14:39:35Z</time>
      </trkpt>
      <trkpt lat="43.6036" lon="6.30616">
        <ele>716</ele>
        <time>2023-01-06T14:39:36Z</time>
      </trkpt>
      <trkpt lat="43.6036" lon="6.30616">
        <ele>716</ele>
        <time>2023-01-06T14:39:37Z</time>
      </trkpt>
      <trkpt lat="43.6036" lon="6.30616">
        <ele>716</ele>
        <time>2023-01-06T14:39:38Z</time>
      </trkpt>
      <trkpt lat="43.6036" lon="6.30616">
        <ele>716</ele>
        <time>2023-01-06T14:39:39Z</time>
      </trkpt>
      <trkpt lat="43.6036" lon="6.30616">
        <ele>716</ele>
        <time>2023-01-06T14:39:40Z</time>
      </trkpt>
      <trkpt lat="43.6036" lon="6.30616">
        <ele>716</ele>
        <time>2023-01-06T14:39:41Z</time>
      </trkpt>
      <trkpt lat="43.6036" lon="6.30616">
        <ele>716</ele>
        <time>2023-01-06T14:39:42Z</time>
      </trkpt>
      <trkpt lat="43.6036" lon="6.30616">
        <ele>716</ele>
        <time>2023-01-06T14:39:43Z</time>
      </trkpt>
      <trkpt lat="43.6036" lon="6.30616">
        <ele>716</ele>
        <time>2023-01-06T14:39:44Z</time>
      </trkpt>
      <trkpt lat="43.6036" lon="6.30616">
        <ele>716</ele>
        <time>2023-01-06T14:39:45Z</time>
      </trkpt>
      <trkpt lat="43.6036" lon="6.30616">
        <ele>716</ele>
        <time>2023-01-06T14:39:46Z</time>
      </trkpt>
      <trkpt lat="43.6036" lon="6.30616">
        <ele>716</ele>
        <time>2023-01-06T14:39:47Z</time>
      </trkpt>
      <trkpt lat="43.6036" lon="6.30616">
        <ele>716</ele>
        <time>2023-01-06T14:39:48Z</time>
      </trkpt>
      <trkpt lat="43.6036" lon="6.30616">
        <ele>716</ele>
        <time>2023-01-06T14:39:49Z</time>
      </trkpt>
      <trkpt lat="43.60359" lon="6.30615">
        <ele>716</ele>
        <time>2023-01-06T14:39:50Z</time>
      </trkpt>
      <trkpt lat="43.60359" lon="6.30614">
        <ele>716</ele>
        <time>2023-01-06T14:39:51Z</time>
      </trkpt>
      <trkpt lat="43.60359" lon="6.30614">
        <ele>716</ele>
        <time>2023-01-06T14:39:52Z</time>
      </trkpt>
      <trkpt lat="43.60358" lon="6.30613">
        <ele>716</ele>
        <time>2023-01-06T14:39:53Z</time>
      </trkpt>
      <trkpt lat="43.60358" lon="6.30612">
        <ele>716</ele>
        <time>2023-01-06T14:39:54Z</time>
      </trkpt>
      <trkpt lat="43.60357" lon="6.30611">
        <ele>716</ele>
        <time>2023-01-06T14:39:55Z</time>
      </trkpt>
      <trkpt lat="43.60357" lon="6.3061">
        <ele>716</ele>
        <time>2023-01-06T14:39:56Z</time>
      </trkpt>
      <trkpt lat="43.60357" lon="6.30609">
        <ele>717</ele>
        <time>2023-01-06T14:39:57Z</time>
      </trkpt>
      <trkpt lat="43.60357" lon="6.30609">
        <ele>717</ele>
        <time>2023-01-06T14:39:58Z</time>
      </trkpt>
      <trkpt lat="43.60357" lon="6.30608">
        <ele>717</ele>
        <time>2023-01-06T14:39:59Z</time>
      </trkpt>
      <trkpt lat="43.60357" lon="6.30606">
        <ele>718</ele>
        <time>2023-01-06T14:40:00Z</time>
      </trkpt>
      <trkpt lat="43.60357" lon="6.30604">
        <ele>718</ele>
        <time>2023-01-06T14:40:01Z</time>
      </trkpt>
      <trkpt lat="43.60356" lon="6.30601">
        <ele>718</ele>
        <time>2023-01-06T14:40:02Z</time>
      </trkpt>
      <trkpt lat="43.60356" lon="6.30599">
        <ele>718</ele>
        <time>2023-01-06T14:40:03Z</time>
      </trkpt>
      <trkpt lat="43.60356" lon="6.30597">
        <ele>718</ele>
        <time>2023-01-06T14:40:04Z</time>
      </trkpt>
      <trkpt lat="43.60355" lon="6.30596">
        <ele>718</ele>
        <time>2023-01-06T14:40:05Z</time>
      </trkpt>
      <trkpt lat="43.60355" lon="6.30595">
        <ele>718</ele>
        <time>2023-01-06T14:40:06Z</time>
      </trkpt>
      <trkpt lat="43.60355" lon="6.30593">
        <ele>718</ele>
        <time>2023-01-06T14:40:07Z</time>
      </trkpt>
      <trkpt lat="43.60355" lon="6.30592">
        <ele>718</ele>
        <time>2023-01-06T14:40:08Z</time>
      </trkpt>
      <trkpt lat="43.60355" lon="6.30592">
        <ele>718</ele>
        <time>2023-01-06T14:40:09Z</time>
      </trkpt>
      <trkpt lat="43.60355" lon="6.30591">
        <ele>718</ele>
        <time>2023-01-06T14:40:10Z</time>
      </trkpt>
      <trkpt lat="43.60355" lon="6.30591">
        <ele>718</ele>
        <time>2023-01-06T14:40:11Z</time>
      </trkpt>
      <trkpt lat="43.60355" lon="6.3059">
        <ele>718</ele>
        <time>2023-01-06T14:40:12Z</time>
      </trkpt>
      <trkpt lat="43.60355" lon="6.3059">
        <ele>718</ele>
        <time>2023-01-06T14:40:13Z</time>
      </trkpt>
      <trkpt lat="43.60355" lon="6.3059">
        <ele>718</ele>
        <time>2023-01-06T14:40:14Z</time>
      </trkpt>
      <trkpt lat="43.60355" lon="6.30589">
        <ele>718</ele>
        <time>2023-01-06T14:40:15Z</time>
      </trkpt>
      <trkpt lat="43.60355" lon="6.30588">
        <ele>718</ele>
        <time>2023-01-06T14:40:16Z</time>
      </trkpt>
      <trkpt lat="43.60355" lon="6.30585">
        <ele>717</ele>
        <time>2023-01-06T14:40:17Z</time>
      </trkpt>
      <trkpt lat="43.60354" lon="6.30583">
        <ele>717</ele>
        <time>2023-01-06T14:40:18Z</time>
      </trkpt>
      <trkpt lat="43.60354" lon="6.30583">
        <ele>717</ele>
        <time>2023-01-06T14:40:19Z</time>
      </trkpt>
      <trkpt lat="43.60354" lon="6.30582">
        <ele>717</ele>
        <time>2023-01-06T14:40:20Z</time>
      </trkpt>
      <trkpt lat="43.60354" lon="6.30582">
        <ele>717</ele>
        <time>2023-01-06T14:40:21Z</time>
      </trkpt>
      <trkpt lat="43.60354" lon="6.30582">
        <ele>717</ele>
        <time>2023-01-06T14:40:22Z</time>
      </trkpt>
      <trkpt lat="43.60354" lon="6.30581">
        <ele>717</ele>
        <time>2023-01-06T14:40:23Z</time>
      </trkpt>
      <trkpt lat="43.60354" lon="6.30581">
        <ele>717</ele>
        <time>2023-01-06T14:40:24Z</time>
      </trkpt>
      <trkpt lat="43.60354" lon="6.30581">
        <ele>717</ele>
        <time>2023-01-06T14:40:25Z</time>
      </trkpt>
      <trkpt lat="43.60354" lon="6.30581">
        <ele>717</ele>
        <time>2023-01-06T14:40:26Z</time>
      </trkpt>
      <trkpt lat="43.60353" lon="6.3058">
        <ele>717</ele>
        <time>2023-01-06T14:40:27Z</time>
      </trkpt>
      <trkpt lat="43.60353" lon="6.3058">
        <ele>717</ele>
        <time>2023-01-06T14:40:28Z</time>
      </trkpt>
      <trkpt lat="43.60353" lon="6.30579">
        <ele>717</ele>
        <time>2023-01-06T14:40:29Z</time>
      </trkpt>
      <trkpt lat="43.60352" lon="6.30579">
        <ele>717</ele>
        <time>2023-01-06T14:40:30Z</time>
      </trkpt>
      <trkpt lat="43.60352" lon="6.30579">
        <ele>717</ele>
        <time>2023-01-06T14:40:31Z</time>
      </trkpt>
      <trkpt lat="43.60352" lon="6.30578">
        <ele>717</ele>
        <time>2023-01-06T14:40:32Z</time>
      </trkpt>
      <trkpt lat="43.60352" lon="6.30578">
        <ele>717</ele>
        <time>2023-01-06T14:40:33Z</time>
      </trkpt>
      <trkpt lat="43.60352" lon="6.30578">
        <ele>717</ele>
        <time>2023-01-06T14:40:34Z</time>
      </trkpt>
      <trkpt lat="43.60351" lon="6.30578">
        <ele>717</ele>
        <time>2023-01-06T14:40:35Z</time>
      </trkpt>
      <trkpt lat="43.60351" lon="6.30578">
        <ele>717</ele>
        <time>2023-01-06T14:40:36Z</time>
      </trkpt>
      <trkpt lat="43.60351" lon="6.30577">
        <ele>717</ele>
        <time>2023-01-06T14:40:37Z</time>
      </trkpt>
      <trkpt lat="43.60351" lon="6.30577">
        <ele>717</ele>
        <time>2023-01-06T14:40:38Z</time>
      </trkpt>
      <trkpt lat="43.60351" lon="6.30576">
        <ele>717</ele>
        <time>2023-01-06T14:40:39Z</time>
      </trkpt>
      <trkpt lat="43.6035" lon="6.30575">
        <ele>717</ele>
        <time>2023-01-06T14:40:40Z</time>
      </trkpt>
      <trkpt lat="43.60349" lon="6.30573">
        <ele>718</ele>
        <time>2023-01-06T14:40:41Z</time>
      </trkpt>
      <trkpt lat="43.60348" lon="6.30571">
        <ele>718</ele>
        <time>2023-01-06T14:40:42Z</time>
      </trkpt>
      <trkpt lat="43.60347" lon="6.3057">
        <ele>718</ele>
        <time>2023-01-06T14:40:43Z</time>
      </trkpt>
      <trkpt lat="43.60347" lon="6.30569">
        <ele>718</ele>
        <time>2023-01-06T14:40:44Z</time>
      </trkpt>
      <trkpt lat="43.60347" lon="6.30568">
        <ele>718</ele>
        <time>2023-01-06T14:40:45Z</time>
      </trkpt>
      <trkpt lat="43.60346" lon="6.30568">
        <ele>718</ele>
        <time>2023-01-06T14:40:46Z</time>
      </trkpt>
      <trkpt lat="43.60346" lon="6.30567">
        <ele>718</ele>
        <time>2023-01-06T14:40:47Z</time>
      </trkpt>
      <trkpt lat="43.60346" lon="6.30566">
        <ele>718</ele>
        <time>2023-01-06T14:40:48Z</time>
      </trkpt>
      <trkpt lat="43.60345" lon="6.30564">
        <ele>718</ele>
        <time>2023-01-06T14:40:49Z</time>
      </trkpt>
      <trkpt lat="43.60344" lon="6.30563">
        <ele>718</ele>
        <time>2023-01-06T14:40:50Z</time>
      </trkpt>
      <trkpt lat="43.60344" lon="6.30563">
        <ele>718</ele>
        <time>2023-01-06T14:40:51Z</time>
      </trkpt>
      <trkpt lat="43.60344" lon="6.30562">
        <ele>718</ele>
        <time>2023-01-06T14:40:52Z</time>
      </trkpt>
      <trkpt lat="43.60343" lon="6.30562">
        <ele>718</ele>
        <time>2023-01-06T14:40:53Z</time>
      </trkpt>
      <trkpt lat="43.60343" lon="6.30561">
        <ele>718</ele>
        <time>2023-01-06T14:40:54Z</time>
      </trkpt>
      <trkpt lat="43.60343" lon="6.30561">
        <ele>718</ele>
        <time>2023-01-06T14:40:55Z</time>
      </trkpt>
      <trkpt lat="43.60342" lon="6.3056">
        <ele>718</ele>
        <time>2023-01-06T14:40:56Z</time>
      </trkpt>
      <trkpt lat="43.60342" lon="6.3056">
        <ele>718</ele>
        <time>2023-01-06T14:40:57Z</time>
      </trkpt>
      <trkpt lat="43.60341" lon="6.30559">
        <ele>718</ele>
        <time>2023-01-06T14:40:58Z</time>
      </trkpt>
      <trkpt lat="43.60341" lon="6.30559">
        <ele>718</ele>
        <time>2023-01-06T14:40:59Z</time>
      </trkpt>
      <trkpt lat="43.60341" lon="6.30558">
        <ele>717</ele>
        <time>2023-01-06T14:41:00Z</time>
      </trkpt>
      <trkpt lat="43.6034" lon="6.30558">
        <ele>717</ele>
        <time>2023-01-06T14:41:01Z</time>
      </trkpt>
      <trkpt lat="43.6034" lon="6.30557">
        <ele>717</ele>
        <time>2023-01-06T14:41:02Z</time>
      </trkpt>
      <trkpt lat="43.6034" lon="6.30557">
        <ele>718</ele>
        <time>2023-01-06T14:41:03Z</time>
      </trkpt>
      <trkpt lat="43.60339" lon="6.30555">
        <ele>718</ele>
        <time>2023-01-06T14:41:04Z</time>
      </trkpt>
      <trkpt lat="43.60338" lon="6.30553">
        <ele>718</ele>
        <time>2023-01-06T14:41:05Z</time>
      </trkpt>
      <trkpt lat="43.60337" lon="6.30551">
        <ele>718</ele>
        <time>2023-01-06T14:41:06Z</time>
      </trkpt>
      <trkpt lat="43.60336" lon="6.3055">
        <ele>718</ele>
        <time>2023-01-06T14:41:07Z</time>
      </trkpt>
      <trkpt lat="43.60335" lon="6.30549">
        <ele>718</ele>
        <time>2023-01-06T14:41:08Z</time>
      </trkpt>
      <trkpt lat="43.60335" lon="6.30549">
        <ele>718</ele>
        <time>2023-01-06T14:41:09Z</time>
      </trkpt>
      <trkpt lat="43.60334" lon="6.30548">
        <ele>718</ele>
        <time>2023-01-06T14:41:10Z</time>
      </trkpt>
      <trkpt lat="43.60334" lon="6.30547">
        <ele>718</ele>
        <time>2023-01-06T14:41:11Z</time>
      </trkpt>
      <trkpt lat="43.60333" lon="6.30547">
        <ele>718</ele>
        <time>2023-01-06T14:41:12Z</time>
      </trkpt>
      <trkpt lat="43.60333" lon="6.30546">
        <ele>718</ele>
        <time>2023-01-06T14:41:13Z</time>
      </trkpt>
      <trkpt lat="43.60332" lon="6.30546">
        <ele>718</ele>
        <time>2023-01-06T14:41:14Z</time>
      </trkpt>
      <trkpt lat="43.60331" lon="6.30545">
        <ele>718</ele>
        <time>2023-01-06T14:41:15Z</time>
      </trkpt>
      <trkpt lat="43.6033" lon="6.30544">
        <ele>718</ele>
        <time>2023-01-06T14:41:16Z</time>
      </trkpt>
      <trkpt lat="43.6033" lon="6.30544">
        <ele>718</ele>
        <time>2023-01-06T14:41:17Z</time>
      </trkpt>
      <trkpt lat="43.60329" lon="6.30543">
        <ele>718</ele>
        <time>2023-01-06T14:41:18Z</time>
      </trkpt>
      <trkpt lat="43.60329" lon="6.30543">
        <ele>718</ele>
        <time>2023-01-06T14:41:19Z</time>
      </trkpt>
      <trkpt lat="43.60329" lon="6.30542">
        <ele>718</ele>
        <time>2023-01-06T14:41:20Z</time>
      </trkpt>
      <trkpt lat="43.60329" lon="6.30542">
        <ele>718</ele>
        <time>2023-01-06T14:41:21Z</time>
      </trkpt>
      <trkpt lat="43.60328" lon="6.30542">
        <ele>718</ele>
        <time>2023-01-06T14:41:22Z</time>
      </trkpt>
      <trkpt lat="43.60328" lon="6.30542">
        <ele>718</ele>
        <time>2023-01-06T14:41:23Z</time>
      </trkpt>
      <trkpt lat="43.60328" lon="6.30541">
        <ele>718</ele>
        <time>2023-01-06T14:41:24Z</time>
      </trkpt>
      <trkpt lat="43.60328" lon="6.30541">
        <ele>718</ele>
        <time>2023-01-06T14:41:25Z</time>
      </trkpt>
      <trkpt lat="43.60328" lon="6.30541">
        <ele>718</ele>
        <time>2023-01-06T14:41:26Z</time>
      </trkpt>
      <trkpt lat="43.60327" lon="6.30541">
        <ele>718</ele>
        <time>2023-01-06T14:41:27Z</time>
      </trkpt>
      <trkpt lat="43.60327" lon="6.30541">
        <ele>718</ele>
        <time>2023-01-06T14:41:28Z</time>
      </trkpt>
      <trkpt lat="43.60327" lon="6.30541">
        <ele>718</ele>
        <time>2023-01-06T14:41:29Z</time>
      </trkpt>
      <trkpt lat="43.60327" lon="6.30541">
        <ele>718</ele>
        <time>2023-01-06T14:41:30Z</time>
      </trkpt>
      <trkpt lat="43.60327" lon="6.30541">
        <ele>718</ele>
        <time>2023-01-06T14:41:31Z</time>
      </trkpt>
      <trkpt lat="43.60327" lon="6.30541">
        <ele>718</ele>
        <time>2023-01-06T14:41:32Z</time>
      </trkpt>
      <trkpt lat="43.60327" lon="6.30541">
        <ele>718</ele>
        <time>2023-01-06T14:41:33Z</time>
      </trkpt>
      <trkpt lat="43.60327" lon="6.30541">
        <ele>718</ele>
        <time>2023-01-06T14:41:34Z</time>
      </trkpt>
      <trkpt lat="43.60327" lon="6.30541">
        <ele>718</ele>
        <time>2023-01-06T14:41:35Z</time>
      </trkpt>
      <trkpt lat="43.60327" lon="6.30541">
        <ele>718</ele>
        <time>2023-01-06T14:41:36Z</time>
      </trkpt>
      <trkpt lat="43.60327" lon="6.30541">
        <ele>718</ele>
        <time>2023-01-06T14:41:37Z</time>
      </trkpt>
      <trkpt lat="43.60327" lon="6.30541">
        <ele>718</ele>
        <time>2023-01-06T14:41:38Z</time>
      </trkpt>
      <trkpt lat="43.60327" lon="6.30541">
        <ele>718</ele>
        <time>2023-01-06T14:41:39Z</time>
      </trkpt>
      <trkpt lat="43.60327" lon="6.30541">
        <ele>718</ele>
        <time>2023-01-06T14:41:40Z</time>
      </trkpt>
      <trkpt lat="43.60327" lon="6.30541">
        <ele>718</ele>
        <time>2023-01-06T14:41:41Z</time>
      </trkpt>
      <trkpt lat="43.60327" lon="6.30541">
        <ele>718</ele>
        <time>2023-01-06T14:41:42Z</time>
      </trkpt>
      <trkpt lat="43.60327" lon="6.30541">
        <ele>718</ele>
        <time>2023-01-06T14:41:43Z</time>
      </trkpt>
      <trkpt lat="43.60327" lon="6.30541">
        <ele>718</ele>
        <time>2023-01-06T14:41:44Z</time>
      </trkpt>
      <trkpt lat="43.60327" lon="6.30541">
        <ele>718</ele>
        <time>2023-01-06T14:41:45Z</time>
      </trkpt>
      <trkpt lat="43.60327" lon="6.30541">
        <ele>718</ele>
        <time>2023-01-06T14:41:46Z</time>
      </trkpt>
      <trkpt lat="43.60327" lon="6.30541">
        <ele>718</ele>
        <time>2023-01-06T14:41:47Z</time>
      </trkpt>
      <trkpt lat="43.60327" lon="6.30541">
        <ele>718</ele>
        <time>2023-01-06T14:41:48Z</time>
      </trkpt>
      <trkpt lat="43.60327" lon="6.30541">
        <ele>718</ele>
        <time>2023-01-06T14:41:49Z</time>
      </trkpt>
      <trkpt lat="43.60327" lon="6.30541">
        <ele>718</ele>
        <time>2023-01-06T14:41:50Z</time>
      </trkpt>
      <trkpt lat="43.60327" lon="6.30541">
        <ele>718</ele>
        <time>2023-01-06T14:41:51Z</time>
      </trkpt>
      <trkpt lat="43.60327" lon="6.30541">
        <ele>718</ele>
        <time>2023-01-06T14:41:52Z</time>
      </trkpt>
      <trkpt lat="43.60327" lon="6.30541">
        <ele>718</ele>
        <time>2023-01-06T14:41:53Z</time>
      </trkpt>
      <trkpt lat="43.60327" lon="6.3054">
        <ele>718</ele>
        <time>2023-01-06T14:41:54Z</time>
      </trkpt>
      <trkpt lat="43.60327" lon="6.3054">
        <ele>718</ele>
        <time>2023-01-06T14:41:55Z</time>
      </trkpt>
      <trkpt lat="43.60327" lon="6.3054">
        <ele>718</ele>
        <time>2023-01-06T14:41:56Z</time>
      </trkpt>
      <trkpt lat="43.60327" lon="6.3054">
        <ele>718</ele>
        <time>2023-01-06T14:41:57Z</time>
      </trkpt>
      <trkpt lat="43.60327" lon="6.3054">
        <ele>718</ele>
        <time>2023-01-06T14:41:58Z</time>
      </trkpt>
      <trkpt lat="43.60326" lon="6.3054">
        <ele>718</ele>
        <time>2023-01-06T14:41:59Z</time>
      </trkpt>
      <trkpt lat="43.60326" lon="6.3054">
        <ele>718</ele>
        <time>2023-01-06T14:42:00Z</time>
      </trkpt>
      <trkpt lat="43.60326" lon="6.3054">
        <ele>718</ele>
        <time>2023-01-06T14:42:01Z</time>
      </trkpt>
      <trkpt lat="43.60326" lon="6.3054">
        <ele>718</ele>
        <time>2023-01-06T14:42:02Z</time>
      </trkpt>
      <trkpt lat="43.60326" lon="6.3054">
        <ele>718</ele>
        <time>2023-01-06T14:42:03Z</time>
      </trkpt>
      <trkpt lat="43.60326" lon="6.3054">
        <ele>718</ele>
        <time>2023-01-06T14:42:04Z</time>
      </trkpt>
      <trkpt lat="43.60326" lon="6.3054">
        <ele>718</ele>
        <time>2023-01-06T14:42:05Z</time>
      </trkpt>
      <trkpt lat="43.60326" lon="6.3054">
        <ele>718</ele>
        <time>2023-01-06T14:42:06Z</time>
      </trkpt>
      <trkpt lat="43.60326" lon="6.3054">
        <ele>718</ele>
        <time>2023-01-06T14:42:07Z</time>
      </trkpt>
      <trkpt lat="43.60326" lon="6.3054">
        <ele>718</ele>
        <time>2023-01-06T14:42:08Z</time>
      </trkpt>
      <trkpt lat="43.60325" lon="6.3054">
        <ele>718</ele>
        <time>2023-01-06T14:42:09Z</time>
      </trkpt>
      <trkpt lat="43.60325" lon="6.3054">
        <ele>718</ele>
        <time>2023-01-06T14:42:10Z</time>
      </trkpt>
      <trkpt lat="43.60325" lon="6.3054">
        <ele>718</ele>
        <time>2023-01-06T14:42:11Z</time>
      </trkpt>
      <trkpt lat="43.60325" lon="6.3054">
        <ele>718</ele>
        <time>2023-01-06T14:42:12Z</time>
      </trkpt>
      <trkpt lat="43.60325" lon="6.3054">
        <ele>718</ele>
        <time>2023-01-06T14:42:13Z</time>
      </trkpt>
      <trkpt lat="43.60325" lon="6.3054">
        <ele>718</ele>
        <time>2023-01-06T14:42:14Z</time>
      </trkpt>
      <trkpt lat="43.60325" lon="6.3054">
        <ele>718</ele>
        <time>2023-01-06T14:42:15Z</time>
      </trkpt>
      <trkpt lat="43.60325" lon="6.3054">
        <ele>718</ele>
        <time>2023-01-06T14:42:16Z</time>
      </trkpt>
      <trkpt lat="43.60325" lon="6.3054">
        <ele>718</ele>
        <time>2023-01-06T14:42:17Z</time>
      </trkpt>
      <trkpt lat="43.60325" lon="6.30539">
        <ele>718</ele>
        <time>2023-01-06T14:42:18Z</time>
      </trkpt>
      <trkpt lat="43.60325" lon="6.3054">
        <ele>718</ele>
        <time>2023-01-06T14:42:19Z</time>
      </trkpt>
      <trkpt lat="43.60325" lon="6.30539">
        <ele>718</ele>
        <time>2023-01-06T14:42:20Z</time>
      </trkpt>
      <trkpt lat="43.60325" lon="6.30539">
        <ele>718</ele>
        <time>2023-01-06T14:42:21Z</time>
      </trkpt>
      <trkpt lat="43.60325" lon="6.30539">
        <ele>718</ele>
        <time>2023-01-06T14:42:22Z</time>
      </trkpt>
      <trkpt lat="43.60325" lon="6.30539">
        <ele>718</ele>
        <time>2023-01-06T14:42:23Z</time>
      </trkpt>
      <trkpt lat="43.60325" lon="6.30539">
        <ele>718</ele>
        <time>2023-01-06T14:42:24Z</time>
      </trkpt>
      <trkpt lat="43.60325" lon="6.30539">
        <ele>718</ele>
        <time>2023-01-06T14:42:25Z</time>
      </trkpt>
      <trkpt lat="43.60325" lon="6.30539">
        <ele>718</ele>
        <time>2023-01-06T14:42:26Z</time>
      </trkpt>
      <trkpt lat="43.60325" lon="6.30539">
        <ele>718</ele>
        <time>2023-01-06T14:42:27Z</time>
      </trkpt>
      <trkpt lat="43.60325" lon="6.30539">
        <ele>718</ele>
        <time>2023-01-06T14:42:28Z</time>
      </trkpt>
      <trkpt lat="43.60325" lon="6.30539">
        <ele>718</ele>
        <time>2023-01-06T14:42:29Z</time>
      </trkpt>
      <trkpt lat="43.60325" lon="6.30539">
        <ele>718</ele>
        <time>2023-01-06T14:42:30Z</time>
      </trkpt>
      <trkpt lat="43.60325" lon="6.30539">
        <ele>718</ele>
        <time>2023-01-06T14:42:31Z</time>
      </trkpt>
      <trkpt lat="43.60325" lon="6.30539">
        <ele>718</ele>
        <time>2023-01-06T14:42:32Z</time>
      </trkpt>
      <trkpt lat="43.60325" lon="6.30539">
        <ele>718</ele>
        <time>2023-01-06T14:42:33Z</time>
      </trkpt>
      <trkpt lat="43.60325" lon="6.30539">
        <ele>718</ele>
        <time>2023-01-06T14:42:34Z</time>
      </trkpt>
      <trkpt lat="43.60325" lon="6.30539">
        <ele>718</ele>
        <time>2023-01-06T14:42:35Z</time>
      </trkpt>
      <trkpt lat="43.60325" lon="6.30539">
        <ele>718</ele>
        <time>2023-01-06T14:42:36Z</time>
      </trkpt>
      <trkpt lat="43.60325" lon="6.30539">
        <ele>718</ele>
        <time>2023-01-06T14:42:37Z</time>
      </trkpt>
      <trkpt lat="43.60325" lon="6.30539">
        <ele>718</ele>
        <time>2023-01-06T14:42:38Z</time>
      </trkpt>
      <trkpt lat="43.60325" lon="6.30539">
        <ele>718</ele>
        <time>2023-01-06T14:42:39Z</time>
      </trkpt>
      <trkpt lat="43.60325" lon="6.30539">
        <ele>718</ele>
        <time>2023-01-06T14:42:40Z</time>
      </trkpt>
      <trkpt lat="43.60325" lon="6.30539">
        <ele>718</ele>
        <time>2023-01-06T14:42:41Z</time>
      </trkpt>
      <trkpt lat="43.60325" lon="6.30539">
        <ele>718</ele>
        <time>2023-01-06T14:42:42Z</time>
      </trkpt>
      <trkpt lat="43.60325" lon="6.30539">
        <ele>718</ele>
        <time>2023-01-06T14:42:43Z</time>
      </trkpt>
      <trkpt lat="43.60325" lon="6.30539">
        <ele>718</ele>
        <time>2023-01-06T14:42:44Z</time>
      </trkpt>
      <trkpt lat="43.60325" lon="6.3054">
        <ele>718</ele>
        <time>2023-01-06T14:42:45Z</time>
      </trkpt>
      <trkpt lat="43.60325" lon="6.3054">
        <ele>718</ele>
        <time>2023-01-06T14:42:46Z</time>
      </trkpt>
      <trkpt lat="43.60325" lon="6.3054">
        <ele>718</ele>
        <time>2023-01-06T14:42:47Z</time>
      </trkpt>
      <trkpt lat="43.60325" lon="6.3054">
        <ele>718</ele>
        <time>2023-01-06T14:42:48Z</time>
      </trkpt>
      <trkpt lat="43.60325" lon="6.3054">
        <ele>718</ele>
        <time>2023-01-06T14:42:49Z</time>
      </trkpt>
      <trkpt lat="43.60325" lon="6.3054">
        <ele>718</ele>
        <time>2023-01-06T14:42:50Z</time>
      </trkpt>
      <trkpt lat="43.60325" lon="6.3054">
        <ele>718</ele>
        <time>2023-01-06T14:42:51Z</time>
      </trkpt>
      <trkpt lat="43.60325" lon="6.3054">
        <ele>718</ele>
        <time>2023-01-06T14:42:52Z</time>
      </trkpt>
      <trkpt lat="43.60325" lon="6.3054">
        <ele>718</ele>
        <time>2023-01-06T14:42:53Z</time>
      </trkpt>
      <trkpt lat="43.60325" lon="6.3054">
        <ele>718</ele>
        <time>2023-01-06T14:42:54Z</time>
      </trkpt>
      <trkpt lat="43.60325" lon="6.3054">
        <ele>718</ele>
        <time>2023-01-06T14:42:55Z</time>
      </trkpt>
      <trkpt lat="43.60325" lon="6.3054">
        <ele>718</ele>
        <time>2023-01-06T14:42:56Z</time>
      </trkpt>
      <trkpt lat="43.60325" lon="6.3054">
        <ele>718</ele>
        <time>2023-01-06T14:42:57Z</time>
      </trkpt>
      <trkpt lat="43.60325" lon="6.3054">
        <ele>718</ele>
        <time>2023-01-06T14:42:58Z</time>
      </trkpt>
      <trkpt lat="43.60325" lon="6.3054">
        <ele>718</ele>
        <time>2023-01-06T14:42:59Z</time>
      </trkpt>
      <trkpt lat="43.60325" lon="6.3054">
        <ele>718</ele>
        <time>2023-01-06T14:43:00Z</time>
      </trkpt>
      <trkpt lat="43.60325" lon="6.3054">
        <ele>718</ele>
        <time>2023-01-06T14:43:01Z</time>
      </trkpt>
      <trkpt lat="43.60325" lon="6.3054">
        <ele>718</ele>
        <time>2023-01-06T14:43:02Z</time>
      </trkpt>
      <trkpt lat="43.60325" lon="6.3054">
        <ele>718</ele>
        <time>2023-01-06T14:43:03Z</time>
      </trkpt>
      <trkpt lat="43.60325" lon="6.3054">
        <ele>718</ele>
        <time>2023-01-06T14:43:04Z</time>
      </trkpt>
      <trkpt lat="43.60325" lon="6.3054">
        <ele>718</ele>
        <time>2023-01-06T14:43:05Z</time>
      </trkpt>
      <trkpt lat="43.60325" lon="6.30539">
        <ele>718</ele>
        <time>2023-01-06T14:43:06Z</time>
      </trkpt>
      <trkpt lat="43.60325" lon="6.30539">
        <ele>718</ele>
        <time>2023-01-06T14:43:07Z</time>
      </trkpt>
      <trkpt lat="43.60325" lon="6.30539">
        <ele>718</ele>
        <time>2023-01-06T14:43:08Z</time>
      </trkpt>
      <trkpt lat="43.60325" lon="6.30539">
        <ele>718</ele>
        <time>2023-01-06T14:43:09Z</time>
      </trkpt>
      <trkpt lat="43.60325" lon="6.30539">
        <ele>718</ele>
        <time>2023-01-06T14:43:10Z</time>
      </trkpt>
      <trkpt lat="43.60325" lon="6.30539">
        <ele>718</ele>
        <time>2023-01-06T14:43:11Z</time>
      </trkpt>
      <trkpt lat="43.60325" lon="6.30539">
        <ele>718</ele>
        <time>2023-01-06T14:43:12Z</time>
      </trkpt>
      <trkpt lat="43.60325" lon="6.30539">
        <ele>718</ele>
        <time>2023-01-06T14:43:13Z</time>
      </trkpt>
      <trkpt lat="43.60325" lon="6.30539">
        <ele>718</ele>
        <time>2023-01-06T14:43:14Z</time>
      </trkpt>
      <trkpt lat="43.60325" lon="6.30539">
        <ele>718</ele>
        <time>2023-01-06T14:43:15Z</time>
      </trkpt>
      <trkpt lat="43.60325" lon="6.30539">
        <ele>718</ele>
        <time>2023-01-06T14:43:16Z</time>
      </trkpt>
      <trkpt lat="43.60325" lon="6.30539">
        <ele>718</ele>
        <time>2023-01-06T14:43:17Z</time>
      </trkpt>
      <trkpt lat="43.60325" lon="6.30539">
        <ele>718</ele>
        <time>2023-01-06T14:43:18Z</time>
      </trkpt>
      <trkpt lat="43.60325" lon="6.30539">
        <ele>718</ele>
        <time>2023-01-06T14:43:19Z</time>
      </trkpt>
      <trkpt lat="43.60325" lon="6.30539">
        <ele>718</ele>
        <time>2023-01-06T14:43:20Z</time>
      </trkpt>
      <trkpt lat="43.60325" lon="6.30539">
        <ele>718</ele>
        <time>2023-01-06T14:43:21Z</time>
      </trkpt>
      <trkpt lat="43.60325" lon="6.30539">
        <ele>718</ele>
        <time>2023-01-06T14:43:22Z</time>
      </trkpt>
      <trkpt lat="43.60325" lon="6.30539">
        <ele>718</ele>
        <time>2023-01-06T14:43:23Z</time>
      </trkpt>
      <trkpt lat="43.60325" lon="6.30539">
        <ele>718</ele>
        <time>2023-01-06T14:43:24Z</time>
      </trkpt>
      <trkpt lat="43.60325" lon="6.30539">
        <ele>718</ele>
        <time>2023-01-06T14:43:25Z</time>
      </trkpt>
      <trkpt lat="43.60325" lon="6.30539">
        <ele>718</ele>
        <time>2023-01-06T14:43:26Z</time>
      </trkpt>
      <trkpt lat="43.60325" lon="6.30539">
        <ele>718</ele>
        <time>2023-01-06T14:43:27Z</time>
      </trkpt>
      <trkpt lat="43.60325" lon="6.30539">
        <ele>718</ele>
        <time>2023-01-06T14:43:28Z</time>
      </trkpt>
      <trkpt lat="43.60325" lon="6.30539">
        <ele>718</ele>
        <time>2023-01-06T14:43:29Z</time>
      </trkpt>
      <trkpt lat="43.60325" lon="6.30539">
        <ele>718</ele>
        <time>2023-01-06T14:43:30Z</time>
      </trkpt>
      <trkpt lat="43.60325" lon="6.30539">
        <ele>718</ele>
        <time>2023-01-06T14:43:31Z</time>
      </trkpt>
      <trkpt lat="43.60325" lon="6.30539">
        <ele>718</ele>
        <time>2023-01-06T14:43:32Z</time>
      </trkpt>
      <trkpt lat="43.60325" lon="6.30539">
        <ele>718</ele>
        <time>2023-01-06T14:43:33Z</time>
      </trkpt>
      <trkpt lat="43.60325" lon="6.30539">
        <ele>718</ele>
        <time>2023-01-06T14:43:34Z</time>
      </trkpt>
      <trkpt lat="43.60325" lon="6.30539">
        <ele>718</ele>
        <time>2023-01-06T14:43:35Z</time>
      </trkpt>
      <trkpt lat="43.60325" lon="6.30539">
        <ele>718</ele>
        <time>2023-01-06T14:43:36Z</time>
      </trkpt>
      <trkpt lat="43.60325" lon="6.30539">
        <ele>718</ele>
        <time>2023-01-06T14:43:37Z</time>
      </trkpt>
      <trkpt lat="43.60325" lon="6.30539">
        <ele>718</ele>
        <time>2023-01-06T14:43:38Z</time>
      </trkpt>
      <trkpt lat="43.60325" lon="6.30539">
        <ele>718</ele>
        <time>2023-01-06T14:43:39Z</time>
      </trkpt>
      <trkpt lat="43.60325" lon="6.30539">
        <ele>718</ele>
        <time>2023-01-06T14:43:40Z</time>
      </trkpt>
      <trkpt lat="43.60325" lon="6.30539">
        <ele>718</ele>
        <time>2023-01-06T14:43:41Z</time>
      </trkpt>
      <trkpt lat="43.60325" lon="6.30539">
        <ele>718</ele>
        <time>2023-01-06T14:43:42Z</time>
      </trkpt>
      <trkpt lat="43.60325" lon="6.30539">
        <ele>718</ele>
        <time>2023-01-06T14:43:43Z</time>
      </trkpt>
      <trkpt lat="43.60325" lon="6.30539">
        <ele>718</ele>
        <time>2023-01-06T14:43:44Z</time>
      </trkpt>
      <trkpt lat="43.60325" lon="6.30539">
        <ele>718</ele>
        <time>2023-01-06T14:43:45Z</time>
      </trkpt>
      <trkpt lat="43.60325" lon="6.30539">
        <ele>718</ele>
        <time>2023-01-06T14:43:46Z</time>
      </trkpt>
      <trkpt lat="43.60325" lon="6.30539">
        <ele>718</ele>
        <time>2023-01-06T14:43:47Z</time>
      </trkpt>
      <trkpt lat="43.60325" lon="6.30539">
        <ele>718</ele>
        <time>2023-01-06T14:43:48Z</time>
      </trkpt>
      <trkpt lat="43.60325" lon="6.30539">
        <ele>718</ele>
        <time>2023-01-06T14:43:49Z</time>
      </trkpt>
      <trkpt lat="43.60325" lon="6.30539">
        <ele>718</ele>
        <time>2023-01-06T14:43:50Z</time>
      </trkpt>
      <trkpt lat="43.60325" lon="6.30539">
        <ele>718</ele>
        <time>2023-01-06T14:43:51Z</time>
      </trkpt>
      <trkpt lat="43.60325" lon="6.30539">
        <ele>718</ele>
        <time>2023-01-06T14:43:52Z</time>
      </trkpt>
      <trkpt lat="43.60325" lon="6.30539">
        <ele>718</ele>
        <time>2023-01-06T14:43:53Z</time>
      </trkpt>
      <trkpt lat="43.60325" lon="6.30539">
        <ele>718</ele>
        <time>2023-01-06T14:43:54Z</time>
      </trkpt>
      <trkpt lat="43.60323" lon="6.30537">
        <ele>718</ele>
        <time>2023-01-06T14:43:55Z</time>
      </trkpt>
      <trkpt lat="43.60324" lon="6.30538">
        <ele>718</ele>
        <time>2023-01-06T14:43:56Z</time>
      </trkpt>
      <trkpt lat="43.60324" lon="6.30538">
        <ele>718</ele>
        <time>2023-01-06T14:43:57Z</time>
      </trkpt>
      <trkpt lat="43.60324" lon="6.30537">
        <ele>718</ele>
        <time>2023-01-06T14:43:58Z</time>
      </trkpt>
      <trkpt lat="43.60323" lon="6.30537">
        <ele>718</ele>
        <time>2023-01-06T14:43:59Z</time>
      </trkpt>
      <trkpt lat="43.60323" lon="6.30536">
        <ele>720</ele>
        <time>2023-01-06T14:44:00Z</time>
      </trkpt>
      <trkpt lat="43.60323" lon="6.30536">
        <ele>720</ele>
        <time>2023-01-06T14:44:01Z</time>
      </trkpt>
      <trkpt lat="43.60323" lon="6.30535">
        <ele>720</ele>
        <time>2023-01-06T14:44:02Z</time>
      </trkpt>
      <trkpt lat="43.60322" lon="6.30534">
        <ele>720</ele>
        <time>2023-01-06T14:44:03Z</time>
      </trkpt>
      <trkpt lat="43.60322" lon="6.30533">
        <ele>720</ele>
        <time>2023-01-06T14:44:04Z</time>
      </trkpt>
      <trkpt lat="43.60322" lon="6.30532">
        <ele>720</ele>
        <time>2023-01-06T14:44:05Z</time>
      </trkpt>
      <trkpt lat="43.60321" lon="6.30531">
        <ele>719</ele>
        <time>2023-01-06T14:44:06Z</time>
      </trkpt>
      <trkpt lat="43.60321" lon="6.3053">
        <ele>719</ele>
        <time>2023-01-06T14:44:07Z</time>
      </trkpt>
      <trkpt lat="43.60321" lon="6.3053">
        <ele>719</ele>
        <time>2023-01-06T14:44:08Z</time>
      </trkpt>
      <trkpt lat="43.6032" lon="6.30529">
        <ele>719</ele>
        <time>2023-01-06T14:44:09Z</time>
      </trkpt>
      <trkpt lat="43.6032" lon="6.30529">
        <ele>719</ele>
        <time>2023-01-06T14:44:10Z</time>
      </trkpt>
      <trkpt lat="43.6032" lon="6.30529">
        <ele>719</ele>
        <time>2023-01-06T14:44:11Z</time>
      </trkpt>
      <trkpt lat="43.6032" lon="6.30529">
        <ele>719</ele>
        <time>2023-01-06T14:44:12Z</time>
      </trkpt>
      <trkpt lat="43.60319" lon="6.30528">
        <ele>719</ele>
        <time>2023-01-06T14:44:13Z</time>
      </trkpt>
      <trkpt lat="43.60319" lon="6.30527">
        <ele>719</ele>
        <time>2023-01-06T14:44:14Z</time>
      </trkpt>
      <trkpt lat="43.60318" lon="6.30525">
        <ele>719</ele>
        <time>2023-01-06T14:44:15Z</time>
      </trkpt>
      <trkpt lat="43.60317" lon="6.30524">
        <ele>719</ele>
        <time>2023-01-06T14:44:16Z</time>
      </trkpt>
      <trkpt lat="43.60317" lon="6.30523">
        <ele>718</ele>
        <time>2023-01-06T14:44:17Z</time>
      </trkpt>
      <trkpt lat="43.60316" lon="6.30522">
        <ele>718</ele>
        <time>2023-01-06T14:44:18Z</time>
      </trkpt>
      <trkpt lat="43.60316" lon="6.30521">
        <ele>718</ele>
        <time>2023-01-06T14:44:19Z</time>
      </trkpt>
      <trkpt lat="43.60315" lon="6.30521">
        <ele>718</ele>
        <time>2023-01-06T14:44:20Z</time>
      </trkpt>
      <trkpt lat="43.60315" lon="6.3052">
        <ele>718</ele>
        <time>2023-01-06T14:44:21Z</time>
      </trkpt>
      <trkpt lat="43.60314" lon="6.3052">
        <ele>718</ele>
        <time>2023-01-06T14:44:22Z</time>
      </trkpt>
      <trkpt lat="43.60314" lon="6.30519">
        <ele>718</ele>
        <time>2023-01-06T14:44:23Z</time>
      </trkpt>
      <trkpt lat="43.60313" lon="6.30519">
        <ele>718</ele>
        <time>2023-01-06T14:44:24Z</time>
      </trkpt>
      <trkpt lat="43.60313" lon="6.30518">
        <ele>718</ele>
        <time>2023-01-06T14:44:25Z</time>
      </trkpt>
      <trkpt lat="43.60312" lon="6.30518">
        <ele>718</ele>
        <time>2023-01-06T14:44:26Z</time>
      </trkpt>
      <trkpt lat="43.60311" lon="6.30517">
        <ele>718</ele>
        <time>2023-01-06T14:44:27Z</time>
      </trkpt>
      <trkpt lat="43.6031" lon="6.30517">
        <ele>718</ele>
        <time>2023-01-06T14:44:28Z</time>
      </trkpt>
      <trkpt lat="43.6031" lon="6.30516">
        <ele>718</ele>
        <time>2023-01-06T14:44:29Z</time>
      </trkpt>
      <trkpt lat="43.60309" lon="6.30516">
        <ele>718</ele>
        <time>2023-01-06T14:44:30Z</time>
      </trkpt>
      <trkpt lat="43.60308" lon="6.30515">
        <ele>717</ele>
        <time>2023-01-06T14:44:31Z</time>
      </trkpt>
      <trkpt lat="43.60308" lon="6.30515">
        <ele>717</ele>
        <time>2023-01-06T14:44:32Z</time>
      </trkpt>
      <trkpt lat="43.60307" lon="6.30515">
        <ele>717</ele>
        <time>2023-01-06T14:44:33Z</time>
      </trkpt>
      <trkpt lat="43.60306" lon="6.30514">
        <ele>717</ele>
        <time>2023-01-06T14:44:34Z</time>
      </trkpt>
      <trkpt lat="43.60306" lon="6.30514">
        <ele>717</ele>
        <time>2023-01-06T14:44:35Z</time>
      </trkpt>
      <trkpt lat="43.60305" lon="6.30513">
        <ele>717</ele>
        <time>2023-01-06T14:44:36Z</time>
      </trkpt>
      <trkpt lat="43.60305" lon="6.30513">
        <ele>717</ele>
        <time>2023-01-06T14:44:37Z</time>
      </trkpt>
      <trkpt lat="43.60304" lon="6.30512">
        <ele>717</ele>
        <time>2023-01-06T14:44:38Z</time>
      </trkpt>
      <trkpt lat="43.60304" lon="6.30512">
        <ele>717</ele>
        <time>2023-01-06T14:44:39Z</time>
      </trkpt>
      <trkpt lat="43.60304" lon="6.30512">
        <ele>717</ele>
        <time>2023-01-06T14:44:40Z</time>
      </trkpt>
      <trkpt lat="43.60303" lon="6.30511">
        <ele>717</ele>
        <time>2023-01-06T14:44:41Z</time>
      </trkpt>
      <trkpt lat="43.60303" lon="6.30511">
        <ele>717</ele>
        <time>2023-01-06T14:44:42Z</time>
      </trkpt>
      <trkpt lat="43.60302" lon="6.3051">
        <ele>717</ele>
        <time>2023-01-06T14:44:43Z</time>
      </trkpt>
      <trkpt lat="43.60302" lon="6.3051">
        <ele>717</ele>
        <time>2023-01-06T14:44:44Z</time>
      </trkpt>
      <trkpt lat="43.60301" lon="6.30509">
        <ele>717</ele>
        <time>2023-01-06T14:44:45Z</time>
      </trkpt>
      <trkpt lat="43.60301" lon="6.30509">
        <ele>716</ele>
        <time>2023-01-06T14:44:46Z</time>
      </trkpt>
      <trkpt lat="43.60301" lon="6.30509">
        <ele>716</ele>
        <time>2023-01-06T14:44:47Z</time>
      </trkpt>
      <trkpt lat="43.603" lon="6.30508">
        <ele>716</ele>
        <time>2023-01-06T14:44:48Z</time>
      </trkpt>
      <trkpt lat="43.603" lon="6.30508">
        <ele>716</ele>
        <time>2023-01-06T14:44:49Z</time>
      </trkpt>
      <trkpt lat="43.603" lon="6.30508">
        <ele>716</ele>
        <time>2023-01-06T14:44:50Z</time>
      </trkpt>
      <trkpt lat="43.603" lon="6.30508">
        <ele>716</ele>
        <time>2023-01-06T14:44:51Z</time>
      </trkpt>
      <trkpt lat="43.60299" lon="6.30507">
        <ele>716</ele>
        <time>2023-01-06T14:44:52Z</time>
      </trkpt>
      <trkpt lat="43.60299" lon="6.30507">
        <ele>716</ele>
        <time>2023-01-06T14:44:53Z</time>
      </trkpt>
      <trkpt lat="43.60298" lon="6.30507">
        <ele>716</ele>
        <time>2023-01-06T14:44:54Z</time>
      </trkpt>
      <trkpt lat="43.60297" lon="6.30506">
        <ele>716</ele>
        <time>2023-01-06T14:44:55Z</time>
      </trkpt>
      <trkpt lat="43.60296" lon="6.30506">
        <ele>716</ele>
        <time>2023-01-06T14:44:56Z</time>
      </trkpt>
      <trkpt lat="43.60295" lon="6.30506">
        <ele>716</ele>
        <time>2023-01-06T14:44:57Z</time>
      </trkpt>
      <trkpt lat="43.60294" lon="6.30505">
        <ele>716</ele>
        <time>2023-01-06T14:44:58Z</time>
      </trkpt>
      <trkpt lat="43.60294" lon="6.30505">
        <ele>716</ele>
        <time>2023-01-06T14:44:59Z</time>
      </trkpt>
      <trkpt lat="43.60292" lon="6.30504">
        <ele>716</ele>
        <time>2023-01-06T14:45:00Z</time>
      </trkpt>
      <trkpt lat="43.60291" lon="6.30504">
        <ele>716</ele>
        <time>2023-01-06T14:45:01Z</time>
      </trkpt>
      <trkpt lat="43.6029" lon="6.30504">
        <ele>717</ele>
        <time>2023-01-06T14:45:02Z</time>
      </trkpt>
      <trkpt lat="43.60289" lon="6.30503">
        <ele>717</ele>
        <time>2023-01-06T14:45:03Z</time>
      </trkpt>
      <trkpt lat="43.60289" lon="6.30503">
        <ele>717</ele>
        <time>2023-01-06T14:45:04Z</time>
      </trkpt>
      <trkpt lat="43.60288" lon="6.30502">
        <ele>717</ele>
        <time>2023-01-06T14:45:05Z</time>
      </trkpt>
      <trkpt lat="43.60288" lon="6.30502">
        <ele>717</ele>
        <time>2023-01-06T14:45:06Z</time>
      </trkpt>
      <trkpt lat="43.60287" lon="6.30502">
        <ele>717</ele>
        <time>2023-01-06T14:45:07Z</time>
      </trkpt>
      <trkpt lat="43.60287" lon="6.30502">
        <ele>717</ele>
        <time>2023-01-06T14:45:08Z</time>
      </trkpt>
      <trkpt lat="43.60287" lon="6.30501">
        <ele>717</ele>
        <time>2023-01-06T14:45:09Z</time>
      </trkpt>
      <trkpt lat="43.60286" lon="6.30501">
        <ele>717</ele>
        <time>2023-01-06T14:45:10Z</time>
      </trkpt>
      <trkpt lat="43.60286" lon="6.30501">
        <ele>717</ele>
        <time>2023-01-06T14:45:11Z</time>
      </trkpt>
      <trkpt lat="43.60286" lon="6.30501">
        <ele>717</ele>
        <time>2023-01-06T14:45:12Z</time>
      </trkpt>
      <trkpt lat="43.60286" lon="6.30501">
        <ele>717</ele>
        <time>2023-01-06T14:45:13Z</time>
      </trkpt>
      <trkpt lat="43.60286" lon="6.30501">
        <ele>717</ele>
        <time>2023-01-06T14:45:14Z</time>
      </trkpt>
      <trkpt lat="43.60285" lon="6.30501">
        <ele>717</ele>
        <time>2023-01-06T14:45:15Z</time>
      </trkpt>
      <trkpt lat="43.60285" lon="6.30501">
        <ele>717</ele>
        <time>2023-01-06T14:45:16Z</time>
      </trkpt>
      <trkpt lat="43.60285" lon="6.30501">
        <ele>717</ele>
        <time>2023-01-06T14:45:17Z</time>
      </trkpt>
      <trkpt lat="43.60285" lon="6.30501">
        <ele>717</ele>
        <time>2023-01-06T14:45:18Z</time>
      </trkpt>
      <trkpt lat="43.60285" lon="6.30501">
        <ele>717</ele>
        <time>2023-01-06T14:45:19Z</time>
      </trkpt>
      <trkpt lat="43.60285" lon="6.30501">
        <ele>717</ele>
        <time>2023-01-06T14:45:20Z</time>
      </trkpt>
      <trkpt lat="43.60285" lon="6.30501">
        <ele>717</ele>
        <time>2023-01-06T14:45:21Z</time>
      </trkpt>
      <trkpt lat="43.60285" lon="6.30501">
        <ele>717</ele>
        <time>2023-01-06T14:45:22Z</time>
      </trkpt>
      <trkpt lat="43.60285" lon="6.30501">
        <ele>717</ele>
        <time>2023-01-06T14:45:23Z</time>
      </trkpt>
      <trkpt lat="43.60285" lon="6.30501">
        <ele>717</ele>
        <time>2023-01-06T14:45:24Z</time>
      </trkpt>
      <trkpt lat="43.60285" lon="6.30501">
        <ele>717</ele>
        <time>2023-01-06T14:45:25Z</time>
      </trkpt>
      <trkpt lat="43.60285" lon="6.305">
        <ele>717</ele>
        <time>2023-01-06T14:45:26Z</time>
      </trkpt>
      <trkpt lat="43.60285" lon="6.305">
        <ele>717</ele>
        <time>2023-01-06T14:45:27Z</time>
      </trkpt>
      <trkpt lat="43.60285" lon="6.305">
        <ele>717</ele>
        <time>2023-01-06T14:45:28Z</time>
      </trkpt>
      <trkpt lat="43.60285" lon="6.30501">
        <ele>717</ele>
        <time>2023-01-06T14:45:29Z</time>
      </trkpt>
      <trkpt lat="43.60284" lon="6.305">
        <ele>717</ele>
        <time>2023-01-06T14:45:30Z</time>
      </trkpt>
      <trkpt lat="43.60284" lon="6.305">
        <ele>717</ele>
        <time>2023-01-06T14:45:31Z</time>
      </trkpt>
      <trkpt lat="43.60284" lon="6.305">
        <ele>717</ele>
        <time>2023-01-06T14:45:32Z</time>
      </trkpt>
      <trkpt lat="43.60283" lon="6.30499">
        <ele>717</ele>
        <time>2023-01-06T14:45:33Z</time>
      </trkpt>
      <trkpt lat="43.60283" lon="6.30499">
        <ele>717</ele>
        <time>2023-01-06T14:45:34Z</time>
      </trkpt>
      <trkpt lat="43.60282" lon="6.30499">
        <ele>717</ele>
        <time>2023-01-06T14:45:35Z</time>
      </trkpt>
      <trkpt lat="43.60282" lon="6.30498">
        <ele>717</ele>
        <time>2023-01-06T14:45:36Z</time>
      </trkpt>
      <trkpt lat="43.60281" lon="6.30498">
        <ele>717</ele>
        <time>2023-01-06T14:45:37Z</time>
      </trkpt>
      <trkpt lat="43.6028" lon="6.30497">
        <ele>717</ele>
        <time>2023-01-06T14:45:38Z</time>
      </trkpt>
      <trkpt lat="43.60279" lon="6.30496">
        <ele>717</ele>
        <time>2023-01-06T14:45:39Z</time>
      </trkpt>
      <trkpt lat="43.60278" lon="6.30495">
        <ele>716</ele>
        <time>2023-01-06T14:45:40Z</time>
      </trkpt>
      <trkpt lat="43.60277" lon="6.30494">
        <ele>716</ele>
        <time>2023-01-06T14:45:41Z</time>
      </trkpt>
      <trkpt lat="43.60276" lon="6.30493">
        <ele>716</ele>
        <time>2023-01-06T14:45:42Z</time>
      </trkpt>
      <trkpt lat="43.60275" lon="6.30492">
        <ele>716</ele>
        <time>2023-01-06T14:45:43Z</time>
      </trkpt>
      <trkpt lat="43.60274" lon="6.30491">
        <ele>716</ele>
        <time>2023-01-06T14:45:44Z</time>
      </trkpt>
      <trkpt lat="43.60273" lon="6.30491">
        <ele>716</ele>
        <time>2023-01-06T14:45:45Z</time>
      </trkpt>
      <trkpt lat="43.60272" lon="6.3049">
        <ele>716</ele>
        <time>2023-01-06T14:45:46Z</time>
      </trkpt>
      <trkpt lat="43.60271" lon="6.30489">
        <ele>716</ele>
        <time>2023-01-06T14:45:47Z</time>
      </trkpt>
      <trkpt lat="43.60269" lon="6.30488">
        <ele>715</ele>
        <time>2023-01-06T14:45:48Z</time>
      </trkpt>
      <trkpt lat="43.60268" lon="6.30487">
        <ele>715</ele>
        <time>2023-01-06T14:45:49Z</time>
      </trkpt>
      <trkpt lat="43.60267" lon="6.30486">
        <ele>715</ele>
        <time>2023-01-06T14:45:50Z</time>
      </trkpt>
      <trkpt lat="43.60266" lon="6.30485">
        <ele>715</ele>
        <time>2023-01-06T14:45:51Z</time>
      </trkpt>
      <trkpt lat="43.60265" lon="6.30484">
        <ele>715</ele>
        <time>2023-01-06T14:45:52Z</time>
      </trkpt>
      <trkpt lat="43.60263" lon="6.30483">
        <ele>715</ele>
        <time>2023-01-06T14:45:53Z</time>
      </trkpt>
      <trkpt lat="43.60261" lon="6.30482">
        <ele>715</ele>
        <time>2023-01-06T14:45:54Z</time>
      </trkpt>
      <trkpt lat="43.60259" lon="6.30481">
        <ele>715</ele>
        <time>2023-01-06T14:45:55Z</time>
      </trkpt>
      <trkpt lat="43.60258" lon="6.30481">
        <ele>715</ele>
        <time>2023-01-06T14:45:56Z</time>
      </trkpt>
      <trkpt lat="43.60257" lon="6.30481">
        <ele>715</ele>
        <time>2023-01-06T14:45:57Z</time>
      </trkpt>
      <trkpt lat="43.60256" lon="6.30481">
        <ele>715</ele>
        <time>2023-01-06T14:45:58Z</time>
      </trkpt>
      <trkpt lat="43.60255" lon="6.30481">
        <ele>715</ele>
        <time>2023-01-06T14:45:59Z</time>
      </trkpt>
      <trkpt lat="43.60255" lon="6.30481">
        <ele>714</ele>
        <time>2023-01-06T14:46:00Z</time>
      </trkpt>
      <trkpt lat="43.60254" lon="6.30481">
        <ele>714</ele>
        <time>2023-01-06T14:46:01Z</time>
      </trkpt>
      <trkpt lat="43.60253" lon="6.30481">
        <ele>712</ele>
        <time>2023-01-06T14:46:02Z</time>
      </trkpt>
      <trkpt lat="43.60253" lon="6.30482">
        <ele>712</ele>
        <time>2023-01-06T14:46:03Z</time>
      </trkpt>
      <trkpt lat="43.60252" lon="6.30482">
        <ele>712</ele>
        <time>2023-01-06T14:46:04Z</time>
      </trkpt>
      <trkpt lat="43.60251" lon="6.30482">
        <ele>712</ele>
        <time>2023-01-06T14:46:05Z</time>
      </trkpt>
      <trkpt lat="43.60251" lon="6.30482">
        <ele>712</ele>
        <time>2023-01-06T14:46:06Z</time>
      </trkpt>
      <trkpt lat="43.6025" lon="6.30482">
        <ele>712</ele>
        <time>2023-01-06T14:46:07Z</time>
      </trkpt>
      <trkpt lat="43.60249" lon="6.30482">
        <ele>712</ele>
        <time>2023-01-06T14:46:08Z</time>
      </trkpt>
      <trkpt lat="43.60249" lon="6.30482">
        <ele>712</ele>
        <time>2023-01-06T14:46:09Z</time>
      </trkpt>
      <trkpt lat="43.60247" lon="6.30482">
        <ele>712</ele>
        <time>2023-01-06T14:46:10Z</time>
      </trkpt>
      <trkpt lat="43.60246" lon="6.30482">
        <ele>712</ele>
        <time>2023-01-06T14:46:11Z</time>
      </trkpt>
      <trkpt lat="43.60245" lon="6.30482">
        <ele>712</ele>
        <time>2023-01-06T14:46:12Z</time>
      </trkpt>
      <trkpt lat="43.60244" lon="6.30481">
        <ele>712</ele>
        <time>2023-01-06T14:46:13Z</time>
      </trkpt>
      <trkpt lat="43.60243" lon="6.30481">
        <ele>711</ele>
        <time>2023-01-06T14:46:14Z</time>
      </trkpt>
      <trkpt lat="43.60243" lon="6.30481">
        <ele>711</ele>
        <time>2023-01-06T14:46:15Z</time>
      </trkpt>
      <trkpt lat="43.60242" lon="6.30481">
        <ele>711</ele>
        <time>2023-01-06T14:46:16Z</time>
      </trkpt>
      <trkpt lat="43.60241" lon="6.30481">
        <ele>711</ele>
        <time>2023-01-06T14:46:17Z</time>
      </trkpt>
      <trkpt lat="43.6024" lon="6.3048">
        <ele>711</ele>
        <time>2023-01-06T14:46:18Z</time>
      </trkpt>
      <trkpt lat="43.6024" lon="6.3048">
        <ele>711</ele>
        <time>2023-01-06T14:46:19Z</time>
      </trkpt>
      <trkpt lat="43.60239" lon="6.3048">
        <ele>711</ele>
        <time>2023-01-06T14:46:20Z</time>
      </trkpt>
      <trkpt lat="43.60238" lon="6.30479">
        <ele>711</ele>
        <time>2023-01-06T14:46:21Z</time>
      </trkpt>
      <trkpt lat="43.60238" lon="6.30479">
        <ele>711</ele>
        <time>2023-01-06T14:46:22Z</time>
      </trkpt>
      <trkpt lat="43.60237" lon="6.30478">
        <ele>711</ele>
        <time>2023-01-06T14:46:23Z</time>
      </trkpt>
      <trkpt lat="43.60236" lon="6.30479">
        <ele>711</ele>
        <time>2023-01-06T14:46:24Z</time>
      </trkpt>
      <trkpt lat="43.60235" lon="6.30479">
        <ele>711</ele>
        <time>2023-01-06T14:46:25Z</time>
      </trkpt>
      <trkpt lat="43.60235" lon="6.30479">
        <ele>711</ele>
        <time>2023-01-06T14:46:26Z</time>
      </trkpt>
      <trkpt lat="43.60234" lon="6.3048">
        <ele>710</ele>
        <time>2023-01-06T14:46:27Z</time>
      </trkpt>
      <trkpt lat="43.60233" lon="6.3048">
        <ele>710</ele>
        <time>2023-01-06T14:46:28Z</time>
      </trkpt>
      <trkpt lat="43.60232" lon="6.30481">
        <ele>710</ele>
        <time>2023-01-06T14:46:29Z</time>
      </trkpt>
      <trkpt lat="43.60231" lon="6.30481">
        <ele>710</ele>
        <time>2023-01-06T14:46:30Z</time>
      </trkpt>
      <trkpt lat="43.6023" lon="6.30481">
        <ele>709</ele>
        <time>2023-01-06T14:46:31Z</time>
      </trkpt>
      <trkpt lat="43.6023" lon="6.30481">
        <ele>709</ele>
        <time>2023-01-06T14:46:32Z</time>
      </trkpt>
      <trkpt lat="43.60229" lon="6.30481">
        <ele>709</ele>
        <time>2023-01-06T14:46:33Z</time>
      </trkpt>
      <trkpt lat="43.60229" lon="6.30483">
        <ele>709</ele>
        <time>2023-01-06T14:46:34Z</time>
      </trkpt>
      <trkpt lat="43.60228" lon="6.30484">
        <ele>709</ele>
        <time>2023-01-06T14:46:35Z</time>
      </trkpt>
      <trkpt lat="43.60228" lon="6.30484">
        <ele>709</ele>
        <time>2023-01-06T14:46:36Z</time>
      </trkpt>
      <trkpt lat="43.60227" lon="6.30484">
        <ele>709</ele>
        <time>2023-01-06T14:46:37Z</time>
      </trkpt>
      <trkpt lat="43.60226" lon="6.30484">
        <ele>709</ele>
        <time>2023-01-06T14:46:38Z</time>
      </trkpt>
      <trkpt lat="43.60225" lon="6.30483">
        <ele>708</ele>
        <time>2023-01-06T14:46:39Z</time>
      </trkpt>
      <trkpt lat="43.60224" lon="6.30483">
        <ele>708</ele>
        <time>2023-01-06T14:46:40Z</time>
      </trkpt>
      <trkpt lat="43.60223" lon="6.30482">
        <ele>708</ele>
        <time>2023-01-06T14:46:41Z</time>
      </trkpt>
      <trkpt lat="43.60222" lon="6.30482">
        <ele>708</ele>
        <time>2023-01-06T14:46:42Z</time>
      </trkpt>
      <trkpt lat="43.60221" lon="6.30481">
        <ele>708</ele>
        <time>2023-01-06T14:46:43Z</time>
      </trkpt>
      <trkpt lat="43.60221" lon="6.3048">
        <ele>708</ele>
        <time>2023-01-06T14:46:44Z</time>
      </trkpt>
      <trkpt lat="43.6022" lon="6.3048">
        <ele>708</ele>
        <time>2023-01-06T14:46:45Z</time>
      </trkpt>
      <trkpt lat="43.60219" lon="6.30479">
        <ele>708</ele>
        <time>2023-01-06T14:46:46Z</time>
      </trkpt>
      <trkpt lat="43.60219" lon="6.30479">
        <ele>708</ele>
        <time>2023-01-06T14:46:47Z</time>
      </trkpt>
      <trkpt lat="43.60218" lon="6.30479">
        <ele>708</ele>
        <time>2023-01-06T14:46:48Z</time>
      </trkpt>
      <trkpt lat="43.60217" lon="6.30478">
        <ele>708</ele>
        <time>2023-01-06T14:46:49Z</time>
      </trkpt>
      <trkpt lat="43.60217" lon="6.30478">
        <ele>709</ele>
        <time>2023-01-06T14:46:50Z</time>
      </trkpt>
      <trkpt lat="43.60216" lon="6.30477">
        <ele>709</ele>
        <time>2023-01-06T14:46:51Z</time>
      </trkpt>
      <trkpt lat="43.60215" lon="6.30477">
        <ele>709</ele>
        <time>2023-01-06T14:46:52Z</time>
      </trkpt>
      <trkpt lat="43.60214" lon="6.30477">
        <ele>709</ele>
        <time>2023-01-06T14:46:53Z</time>
      </trkpt>
      <trkpt lat="43.60213" lon="6.30476">
        <ele>709</ele>
        <time>2023-01-06T14:46:54Z</time>
      </trkpt>
      <trkpt lat="43.60212" lon="6.30476">
        <ele>709</ele>
        <time>2023-01-06T14:46:55Z</time>
      </trkpt>
      <trkpt lat="43.60211" lon="6.30476">
        <ele>709</ele>
        <time>2023-01-06T14:46:56Z</time>
      </trkpt>
      <trkpt lat="43.6021" lon="6.30476">
        <ele>709</ele>
        <time>2023-01-06T14:46:57Z</time>
      </trkpt>
      <trkpt lat="43.60209" lon="6.30476">
        <ele>709</ele>
        <time>2023-01-06T14:46:58Z</time>
      </trkpt>
      <trkpt lat="43.60208" lon="6.30476">
        <ele>709</ele>
        <time>2023-01-06T14:46:59Z</time>
      </trkpt>
      <trkpt lat="43.60208" lon="6.30476">
        <ele>708</ele>
        <time>2023-01-06T14:47:00Z</time>
      </trkpt>
      <trkpt lat="43.60207" lon="6.30476">
        <ele>708</ele>
        <time>2023-01-06T14:47:01Z</time>
      </trkpt>
      <trkpt lat="43.60206" lon="6.30476">
        <ele>707</ele>
        <time>2023-01-06T14:47:02Z</time>
      </trkpt>
      <trkpt lat="43.60205" lon="6.30476">
        <ele>707</ele>
        <time>2023-01-06T14:47:03Z</time>
      </trkpt>
      <trkpt lat="43.60204" lon="6.30476">
        <ele>707</ele>
        <time>2023-01-06T14:47:04Z</time>
      </trkpt>
      <trkpt lat="43.60203" lon="6.30476">
        <ele>707</ele>
        <time>2023-01-06T14:47:05Z</time>
      </trkpt>
      <trkpt lat="43.60202" lon="6.30476">
        <ele>707</ele>
        <time>2023-01-06T14:47:06Z</time>
      </trkpt>
      <trkpt lat="43.60201" lon="6.30476">
        <ele>707</ele>
        <time>2023-01-06T14:47:07Z</time>
      </trkpt>
      <trkpt lat="43.602" lon="6.30475">
        <ele>707</ele>
        <time>2023-01-06T14:47:08Z</time>
      </trkpt>
      <trkpt lat="43.602" lon="6.30475">
        <ele>707</ele>
        <time>2023-01-06T14:47:09Z</time>
      </trkpt>
      <trkpt lat="43.60199" lon="6.30474">
        <ele>707</ele>
        <time>2023-01-06T14:47:10Z</time>
      </trkpt>
      <trkpt lat="43.60198" lon="6.30474">
        <ele>707</ele>
        <time>2023-01-06T14:47:11Z</time>
      </trkpt>
      <trkpt lat="43.60197" lon="6.30474">
        <ele>707</ele>
        <time>2023-01-06T14:47:12Z</time>
      </trkpt>
      <trkpt lat="43.60196" lon="6.30474">
        <ele>707</ele>
        <time>2023-01-06T14:47:13Z</time>
      </trkpt>
      <trkpt lat="43.60195" lon="6.30475">
        <ele>706</ele>
        <time>2023-01-06T14:47:14Z</time>
      </trkpt>
      <trkpt lat="43.60194" lon="6.30475">
        <ele>706</ele>
        <time>2023-01-06T14:47:15Z</time>
      </trkpt>
      <trkpt lat="43.60193" lon="6.30475">
        <ele>706</ele>
        <time>2023-01-06T14:47:16Z</time>
      </trkpt>
      <trkpt lat="43.60192" lon="6.30475">
        <ele>705</ele>
        <time>2023-01-06T14:47:17Z</time>
      </trkpt>
      <trkpt lat="43.60191" lon="6.30475">
        <ele>705</ele>
        <time>2023-01-06T14:47:18Z</time>
      </trkpt>
      <trkpt lat="43.60191" lon="6.30475">
        <ele>705</ele>
        <time>2023-01-06T14:47:19Z</time>
      </trkpt>
      <trkpt lat="43.6019" lon="6.30475">
        <ele>705</ele>
        <time>2023-01-06T14:47:20Z</time>
      </trkpt>
      <trkpt lat="43.60189" lon="6.30474">
        <ele>705</ele>
        <time>2023-01-06T14:47:21Z</time>
      </trkpt>
      <trkpt lat="43.60188" lon="6.30474">
        <ele>705</ele>
        <time>2023-01-06T14:47:22Z</time>
      </trkpt>
      <trkpt lat="43.60187" lon="6.30474">
        <ele>705</ele>
        <time>2023-01-06T14:47:23Z</time>
      </trkpt>
      <trkpt lat="43.60187" lon="6.30474">
        <ele>705</ele>
        <time>2023-01-06T14:47:24Z</time>
      </trkpt>
      <trkpt lat="43.60186" lon="6.30473">
        <ele>705</ele>
        <time>2023-01-06T14:47:25Z</time>
      </trkpt>
      <trkpt lat="43.60185" lon="6.30473">
        <ele>705</ele>
        <time>2023-01-06T14:47:26Z</time>
      </trkpt>
      <trkpt lat="43.60185" lon="6.30473">
        <ele>705</ele>
        <time>2023-01-06T14:47:27Z</time>
      </trkpt>
      <trkpt lat="43.60184" lon="6.30473">
        <ele>705</ele>
        <time>2023-01-06T14:47:28Z</time>
      </trkpt>
      <trkpt lat="43.60183" lon="6.30473">
        <ele>705</ele>
        <time>2023-01-06T14:47:29Z</time>
      </trkpt>
      <trkpt lat="43.60183" lon="6.30473">
        <ele>705</ele>
        <time>2023-01-06T14:47:30Z</time>
      </trkpt>
      <trkpt lat="43.60182" lon="6.30473">
        <ele>705</ele>
        <time>2023-01-06T14:47:31Z</time>
      </trkpt>
      <trkpt lat="43.60181" lon="6.30474">
        <ele>705</ele>
        <time>2023-01-06T14:47:32Z</time>
      </trkpt>
      <trkpt lat="43.60181" lon="6.30474">
        <ele>705</ele>
        <time>2023-01-06T14:47:33Z</time>
      </trkpt>
      <trkpt lat="43.6018" lon="6.30474">
        <ele>705</ele>
        <time>2023-01-06T14:47:34Z</time>
      </trkpt>
      <trkpt lat="43.60179" lon="6.30474">
        <ele>705</ele>
        <time>2023-01-06T14:47:35Z</time>
      </trkpt>
      <trkpt lat="43.60178" lon="6.30474">
        <ele>705</ele>
        <time>2023-01-06T14:47:36Z</time>
      </trkpt>
      <trkpt lat="43.60178" lon="6.30474">
        <ele>705</ele>
        <time>2023-01-06T14:47:37Z</time>
      </trkpt>
      <trkpt lat="43.60177" lon="6.30474">
        <ele>705</ele>
        <time>2023-01-06T14:47:38Z</time>
      </trkpt>
      <trkpt lat="43.60176" lon="6.30475">
        <ele>705</ele>
        <time>2023-01-06T14:47:39Z</time>
      </trkpt>
      <trkpt lat="43.60175" lon="6.30475">
        <ele>704</ele>
        <time>2023-01-06T14:47:40Z</time>
      </trkpt>
      <trkpt lat="43.60174" lon="6.30476">
        <ele>704</ele>
        <time>2023-01-06T14:47:41Z</time>
      </trkpt>
      <trkpt lat="43.60173" lon="6.30477">
        <ele>704</ele>
        <time>2023-01-06T14:47:42Z</time>
      </trkpt>
      <trkpt lat="43.60172" lon="6.30477">
        <ele>704</ele>
        <time>2023-01-06T14:47:43Z</time>
      </trkpt>
      <trkpt lat="43.60172" lon="6.30478">
        <ele>704</ele>
        <time>2023-01-06T14:47:44Z</time>
      </trkpt>
      <trkpt lat="43.60171" lon="6.30479">
        <ele>704</ele>
        <time>2023-01-06T14:47:45Z</time>
      </trkpt>
      <trkpt lat="43.6017" lon="6.3048">
        <ele>704</ele>
        <time>2023-01-06T14:47:46Z</time>
      </trkpt>
      <trkpt lat="43.6017" lon="6.30481">
        <ele>704</ele>
        <time>2023-01-06T14:47:47Z</time>
      </trkpt>
      <trkpt lat="43.60169" lon="6.30483">
        <ele>704</ele>
        <time>2023-01-06T14:47:48Z</time>
      </trkpt>
      <trkpt lat="43.60169" lon="6.30484">
        <ele>704</ele>
        <time>2023-01-06T14:47:49Z</time>
      </trkpt>
      <trkpt lat="43.60168" lon="6.30485">
        <ele>704</ele>
        <time>2023-01-06T14:47:50Z</time>
      </trkpt>
      <trkpt lat="43.60168" lon="6.30486">
        <ele>703</ele>
        <time>2023-01-06T14:47:51Z</time>
      </trkpt>
      <trkpt lat="43.60167" lon="6.30487">
        <ele>703</ele>
        <time>2023-01-06T14:47:52Z</time>
      </trkpt>
      <trkpt lat="43.60167" lon="6.30488">
        <ele>703</ele>
        <time>2023-01-06T14:47:53Z</time>
      </trkpt>
      <trkpt lat="43.60166" lon="6.3049">
        <ele>703</ele>
        <time>2023-01-06T14:47:54Z</time>
      </trkpt>
      <trkpt lat="43.60166" lon="6.30491">
        <ele>703</ele>
        <time>2023-01-06T14:47:55Z</time>
      </trkpt>
      <trkpt lat="43.60165" lon="6.30493">
        <ele>703</ele>
        <time>2023-01-06T14:47:56Z</time>
      </trkpt>
      <trkpt lat="43.60165" lon="6.30494">
        <ele>703</ele>
        <time>2023-01-06T14:47:57Z</time>
      </trkpt>
      <trkpt lat="43.60164" lon="6.30495">
        <ele>703</ele>
        <time>2023-01-06T14:47:58Z</time>
      </trkpt>
      <trkpt lat="43.60163" lon="6.30496">
        <ele>703</ele>
        <time>2023-01-06T14:47:59Z</time>
      </trkpt>
      <trkpt lat="43.60163" lon="6.30497">
        <ele>703</ele>
        <time>2023-01-06T14:48:00Z</time>
      </trkpt>
      <trkpt lat="43.60162" lon="6.30498">
        <ele>703</ele>
        <time>2023-01-06T14:48:01Z</time>
      </trkpt>
      <trkpt lat="43.60162" lon="6.30499">
        <ele>703</ele>
        <time>2023-01-06T14:48:02Z</time>
      </trkpt>
      <trkpt lat="43.60161" lon="6.30499">
        <ele>704</ele>
        <time>2023-01-06T14:48:03Z</time>
      </trkpt>
      <trkpt lat="43.60161" lon="6.305">
        <ele>704</ele>
        <time>2023-01-06T14:48:04Z</time>
      </trkpt>
      <trkpt lat="43.6016" lon="6.30501">
        <ele>704</ele>
        <time>2023-01-06T14:48:05Z</time>
      </trkpt>
      <trkpt lat="43.6016" lon="6.30501">
        <ele>704</ele>
        <time>2023-01-06T14:48:06Z</time>
      </trkpt>
      <trkpt lat="43.60159" lon="6.30502">
        <ele>704</ele>
        <time>2023-01-06T14:48:07Z</time>
      </trkpt>
      <trkpt lat="43.60159" lon="6.30503">
        <ele>704</ele>
        <time>2023-01-06T14:48:08Z</time>
      </trkpt>
      <trkpt lat="43.60158" lon="6.30503">
        <ele>704</ele>
        <time>2023-01-06T14:48:09Z</time>
      </trkpt>
      <trkpt lat="43.60157" lon="6.30504">
        <ele>704</ele>
        <time>2023-01-06T14:48:10Z</time>
      </trkpt>
      <trkpt lat="43.60156" lon="6.30504">
        <ele>704</ele>
        <time>2023-01-06T14:48:11Z</time>
      </trkpt>
      <trkpt lat="43.60155" lon="6.30504">
        <ele>704</ele>
        <time>2023-01-06T14:48:12Z</time>
      </trkpt>
      <trkpt lat="43.60155" lon="6.30505">
        <ele>704</ele>
        <time>2023-01-06T14:48:13Z</time>
      </trkpt>
      <trkpt lat="43.60154" lon="6.30506">
        <ele>704</ele>
        <time>2023-01-06T14:48:14Z</time>
      </trkpt>
      <trkpt lat="43.60153" lon="6.30507">
        <ele>705</ele>
        <time>2023-01-06T14:48:15Z</time>
      </trkpt>
      <trkpt lat="43.60152" lon="6.30507">
        <ele>705</ele>
        <time>2023-01-06T14:48:16Z</time>
      </trkpt>
      <trkpt lat="43.60151" lon="6.30508">
        <ele>705</ele>
        <time>2023-01-06T14:48:17Z</time>
      </trkpt>
      <trkpt lat="43.6015" lon="6.30508">
        <ele>705</ele>
        <time>2023-01-06T14:48:18Z</time>
      </trkpt>
      <trkpt lat="43.60148" lon="6.30508">
        <ele>705</ele>
        <time>2023-01-06T14:48:19Z</time>
      </trkpt>
      <trkpt lat="43.60148" lon="6.30509">
        <ele>705</ele>
        <time>2023-01-06T14:48:20Z</time>
      </trkpt>
      <trkpt lat="43.60147" lon="6.30509">
        <ele>705</ele>
        <time>2023-01-06T14:48:21Z</time>
      </trkpt>
      <trkpt lat="43.60146" lon="6.3051">
        <ele>704</ele>
        <time>2023-01-06T14:48:22Z</time>
      </trkpt>
      <trkpt lat="43.60145" lon="6.30511">
        <ele>704</ele>
        <time>2023-01-06T14:48:23Z</time>
      </trkpt>
      <trkpt lat="43.60144" lon="6.30511">
        <ele>704</ele>
        <time>2023-01-06T14:48:24Z</time>
      </trkpt>
      <trkpt lat="43.60143" lon="6.30512">
        <ele>704</ele>
        <time>2023-01-06T14:48:25Z</time>
      </trkpt>
      <trkpt lat="43.60142" lon="6.30512">
        <ele>704</ele>
        <time>2023-01-06T14:48:26Z</time>
      </trkpt>
      <trkpt lat="43.60141" lon="6.30513">
        <ele>704</ele>
        <time>2023-01-06T14:48:27Z</time>
      </trkpt>
      <trkpt lat="43.60141" lon="6.30513">
        <ele>704</ele>
        <time>2023-01-06T14:48:28Z</time>
      </trkpt>
      <trkpt lat="43.6014" lon="6.30514">
        <ele>704</ele>
        <time>2023-01-06T14:48:29Z</time>
      </trkpt>
      <trkpt lat="43.60139" lon="6.30515">
        <ele>704</ele>
        <time>2023-01-06T14:48:30Z</time>
      </trkpt>
      <trkpt lat="43.6014" lon="6.30516">
        <ele>704</ele>
        <time>2023-01-06T14:48:31Z</time>
      </trkpt>
      <trkpt lat="43.6014" lon="6.30517">
        <ele>704</ele>
        <time>2023-01-06T14:48:32Z</time>
      </trkpt>
      <trkpt lat="43.6014" lon="6.30518">
        <ele>705</ele>
        <time>2023-01-06T14:48:33Z</time>
      </trkpt>
      <trkpt lat="43.6014" lon="6.30519">
        <ele>705</ele>
        <time>2023-01-06T14:48:34Z</time>
      </trkpt>
      <trkpt lat="43.6014" lon="6.3052">
        <ele>705</ele>
        <time>2023-01-06T14:48:35Z</time>
      </trkpt>
      <trkpt lat="43.60141" lon="6.30521">
        <ele>705</ele>
        <time>2023-01-06T14:48:36Z</time>
      </trkpt>
      <trkpt lat="43.60142" lon="6.30521">
        <ele>705</ele>
        <time>2023-01-06T14:48:37Z</time>
      </trkpt>
      <trkpt lat="43.60142" lon="6.30521">
        <ele>705</ele>
        <time>2023-01-06T14:48:38Z</time>
      </trkpt>
      <trkpt lat="43.60143" lon="6.30521">
        <ele>705</ele>
        <time>2023-01-06T14:48:39Z</time>
      </trkpt>
      <trkpt lat="43.60143" lon="6.30521">
        <ele>705</ele>
        <time>2023-01-06T14:48:40Z</time>
      </trkpt>
      <trkpt lat="43.60143" lon="6.30521">
        <ele>705</ele>
        <time>2023-01-06T14:48:41Z</time>
      </trkpt>
      <trkpt lat="43.60143" lon="6.30521">
        <ele>705</ele>
        <time>2023-01-06T14:48:42Z</time>
      </trkpt>
      <trkpt lat="43.60143" lon="6.30521">
        <ele>705</ele>
        <time>2023-01-06T14:48:43Z</time>
      </trkpt>
      <trkpt lat="43.60143" lon="6.30521">
        <ele>705</ele>
        <time>2023-01-06T14:48:44Z</time>
      </trkpt>
      <trkpt lat="43.60143" lon="6.30521">
        <ele>705</ele>
        <time>2023-01-06T14:48:45Z</time>
      </trkpt>
      <trkpt lat="43.60143" lon="6.30521">
        <ele>705</ele>
        <time>2023-01-06T14:48:46Z</time>
      </trkpt>
      <trkpt lat="43.60143" lon="6.30521">
        <ele>705</ele>
        <time>2023-01-06T14:48:47Z</time>
      </trkpt>
      <trkpt lat="43.60143" lon="6.30521">
        <ele>705</ele>
        <time>2023-01-06T14:48:48Z</time>
      </trkpt>
      <trkpt lat="43.60143" lon="6.30521">
        <ele>705</ele>
        <time>2023-01-06T14:48:49Z</time>
      </trkpt>
      <trkpt lat="43.60143" lon="6.30521">
        <ele>705</ele>
        <time>2023-01-06T14:48:50Z</time>
      </trkpt>
      <trkpt lat="43.60143" lon="6.30521">
        <ele>705</ele>
        <time>2023-01-06T14:48:51Z</time>
      </trkpt>
      <trkpt lat="43.60143" lon="6.30521">
        <ele>705</ele>
        <time>2023-01-06T14:48:52Z</time>
      </trkpt>
      <trkpt lat="43.60143" lon="6.30521">
        <ele>705</ele>
        <time>2023-01-06T14:48:53Z</time>
      </trkpt>
      <trkpt lat="43.60143" lon="6.30521">
        <ele>705</ele>
        <time>2023-01-06T14:48:54Z</time>
      </trkpt>
      <trkpt lat="43.60143" lon="6.30521">
        <ele>705</ele>
        <time>2023-01-06T14:48:55Z</time>
      </trkpt>
      <trkpt lat="43.60143" lon="6.30521">
        <ele>705</ele>
        <time>2023-01-06T14:48:56Z</time>
      </trkpt>
      <trkpt lat="43.60143" lon="6.30521">
        <ele>705</ele>
        <time>2023-01-06T14:48:57Z</time>
      </trkpt>
      <trkpt lat="43.60143" lon="6.30521">
        <ele>705</ele>
        <time>2023-01-06T14:48:58Z</time>
      </trkpt>
      <trkpt lat="43.60143" lon="6.30521">
        <ele>705</ele>
        <time>2023-01-06T14:48:59Z</time>
      </trkpt>
      <trkpt lat="43.60143" lon="6.30521">
        <ele>705</ele>
        <time>2023-01-06T14:49:00Z</time>
      </trkpt>
      <trkpt lat="43.60143" lon="6.30521">
        <ele>705</ele>
        <time>2023-01-06T14:49:01Z</time>
      </trkpt>
      <trkpt lat="43.60143" lon="6.30521">
        <ele>705</ele>
        <time>2023-01-06T14:49:02Z</time>
      </trkpt>
      <trkpt lat="43.60141" lon="6.30517">
        <ele>705</ele>
        <time>2023-01-06T14:49:03Z</time>
      </trkpt>
      <trkpt lat="43.60141" lon="6.30517">
        <ele>705</ele>
        <time>2023-01-06T14:49:04Z</time>
      </trkpt>
      <trkpt lat="43.60142" lon="6.30517">
        <ele>705</ele>
        <time>2023-01-06T14:49:05Z</time>
      </trkpt>
      <trkpt lat="43.60142" lon="6.30518">
        <ele>705</ele>
        <time>2023-01-06T14:49:06Z</time>
      </trkpt>
      <trkpt lat="43.60142" lon="6.30518">
        <ele>705</ele>
        <time>2023-01-06T14:49:07Z</time>
      </trkpt>
      <trkpt lat="43.60143" lon="6.30518">
        <ele>705</ele>
        <time>2023-01-06T14:49:08Z</time>
      </trkpt>
      <trkpt lat="43.60143" lon="6.30518">
        <ele>705</ele>
        <time>2023-01-06T14:49:09Z</time>
      </trkpt>
      <trkpt lat="43.60143" lon="6.30518">
        <ele>705</ele>
        <time>2023-01-06T14:49:10Z</time>
      </trkpt>
      <trkpt lat="43.60143" lon="6.30518">
        <ele>705</ele>
        <time>2023-01-06T14:49:11Z</time>
      </trkpt>
      <trkpt lat="43.60143" lon="6.30518">
        <ele>705</ele>
        <time>2023-01-06T14:49:12Z</time>
      </trkpt>
      <trkpt lat="43.60143" lon="6.30519">
        <ele>705</ele>
        <time>2023-01-06T14:49:13Z</time>
      </trkpt>
      <trkpt lat="43.60143" lon="6.30519">
        <ele>705</ele>
        <time>2023-01-06T14:49:14Z</time>
      </trkpt>
      <trkpt lat="43.60144" lon="6.30519">
        <ele>705</ele>
        <time>2023-01-06T14:49:15Z</time>
      </trkpt>
      <trkpt lat="43.60144" lon="6.30519">
        <ele>705</ele>
        <time>2023-01-06T14:49:16Z</time>
      </trkpt>
      <trkpt lat="43.60144" lon="6.30519">
        <ele>705</ele>
        <time>2023-01-06T14:49:17Z</time>
      </trkpt>
      <trkpt lat="43.60144" lon="6.30519">
        <ele>705</ele>
        <time>2023-01-06T14:49:18Z</time>
      </trkpt>
      <trkpt lat="43.60144" lon="6.30519">
        <ele>705</ele>
        <time>2023-01-06T14:49:19Z</time>
      </trkpt>
      <trkpt lat="43.60144" lon="6.30519">
        <ele>705</ele>
        <time>2023-01-06T14:49:20Z</time>
      </trkpt>
      <trkpt lat="43.60144" lon="6.30519">
        <ele>705</ele>
        <time>2023-01-06T14:49:21Z</time>
      </trkpt>
      <trkpt lat="43.60144" lon="6.30519">
        <ele>705</ele>
        <time>2023-01-06T14:49:22Z</time>
      </trkpt>
      <trkpt lat="43.60144" lon="6.30519">
        <ele>705</ele>
        <time>2023-01-06T14:49:23Z</time>
      </trkpt>
      <trkpt lat="43.60144" lon="6.30519">
        <ele>705</ele>
        <time>2023-01-06T14:49:24Z</time>
      </trkpt>
      <trkpt lat="43.60143" lon="6.30517">
        <ele>705</ele>
        <time>2023-01-06T14:49:25Z</time>
      </trkpt>
      <trkpt lat="43.60142" lon="6.30517">
        <ele>705</ele>
        <time>2023-01-06T14:49:26Z</time>
      </trkpt>
      <trkpt lat="43.60141" lon="6.30517">
        <ele>705</ele>
        <time>2023-01-06T14:49:27Z</time>
      </trkpt>
      <trkpt lat="43.60141" lon="6.30517">
        <ele>705</ele>
        <time>2023-01-06T14:49:28Z</time>
      </trkpt>
      <trkpt lat="43.60141" lon="6.30517">
        <ele>705</ele>
        <time>2023-01-06T14:49:29Z</time>
      </trkpt>
      <trkpt lat="43.60141" lon="6.30517">
        <ele>705</ele>
        <time>2023-01-06T14:49:30Z</time>
      </trkpt>
      <trkpt lat="43.60141" lon="6.30517">
        <ele>705</ele>
        <time>2023-01-06T14:49:31Z</time>
      </trkpt>
      <trkpt lat="43.60141" lon="6.30517">
        <ele>705</ele>
        <time>2023-01-06T14:49:32Z</time>
      </trkpt>
      <trkpt lat="43.60141" lon="6.30517">
        <ele>705</ele>
        <time>2023-01-06T14:49:33Z</time>
      </trkpt>
      <trkpt lat="43.60141" lon="6.30517">
        <ele>705</ele>
        <time>2023-01-06T14:49:34Z</time>
      </trkpt>
      <trkpt lat="43.60141" lon="6.30517">
        <ele>705</ele>
        <time>2023-01-06T14:49:35Z</time>
      </trkpt>
      <trkpt lat="43.60141" lon="6.30517">
        <ele>705</ele>
        <time>2023-01-06T14:49:36Z</time>
      </trkpt>
      <trkpt lat="43.60141" lon="6.30517">
        <ele>705</ele>
        <time>2023-01-06T14:49:37Z</time>
      </trkpt>
      <trkpt lat="43.60141" lon="6.30517">
        <ele>705</ele>
        <time>2023-01-06T14:49:38Z</time>
      </trkpt>
      <trkpt lat="43.60141" lon="6.30517">
        <ele>705</ele>
        <time>2023-01-06T14:49:39Z</time>
      </trkpt>
      <trkpt lat="43.60141" lon="6.30517">
        <ele>705</ele>
        <time>2023-01-06T14:49:40Z</time>
      </trkpt>
      <trkpt lat="43.60141" lon="6.30517">
        <ele>705</ele>
        <time>2023-01-06T14:49:41Z</time>
      </trkpt>
      <trkpt lat="43.60141" lon="6.30517">
        <ele>705</ele>
        <time>2023-01-06T14:49:42Z</time>
      </trkpt>
      <trkpt lat="43.60141" lon="6.30517">
        <ele>705</ele>
        <time>2023-01-06T14:49:43Z</time>
      </trkpt>
      <trkpt lat="43.60141" lon="6.30517">
        <ele>705</ele>
        <time>2023-01-06T14:49:44Z</time>
      </trkpt>
      <trkpt lat="43.60141" lon="6.30517">
        <ele>705</ele>
        <time>2023-01-06T14:49:45Z</time>
      </trkpt>
      <trkpt lat="43.60141" lon="6.30517">
        <ele>705</ele>
        <time>2023-01-06T14:49:46Z</time>
      </trkpt>
      <trkpt lat="43.60141" lon="6.30517">
        <ele>705</ele>
        <time>2023-01-06T14:49:47Z</time>
      </trkpt>
      <trkpt lat="43.60141" lon="6.30517">
        <ele>705</ele>
        <time>2023-01-06T14:49:48Z</time>
      </trkpt>
      <trkpt lat="43.60141" lon="6.30517">
        <ele>705</ele>
        <time>2023-01-06T14:49:49Z</time>
      </trkpt>
      <trkpt lat="43.60141" lon="6.30517">
        <ele>705</ele>
        <time>2023-01-06T14:49:50Z</time>
      </trkpt>
      <trkpt lat="43.60141" lon="6.30517">
        <ele>705</ele>
        <time>2023-01-06T14:49:51Z</time>
      </trkpt>
      <trkpt lat="43.60141" lon="6.30517">
        <ele>705</ele>
        <time>2023-01-06T14:49:52Z</time>
      </trkpt>
      <trkpt lat="43.60141" lon="6.30517">
        <ele>705</ele>
        <time>2023-01-06T14:49:53Z</time>
      </trkpt>
      <trkpt lat="43.60141" lon="6.30517">
        <ele>705</ele>
        <time>2023-01-06T14:49:54Z</time>
      </trkpt>
      <trkpt lat="43.60141" lon="6.30517">
        <ele>705</ele>
        <time>2023-01-06T14:49:55Z</time>
      </trkpt>
      <trkpt lat="43.60141" lon="6.30517">
        <ele>705</ele>
        <time>2023-01-06T14:49:56Z</time>
      </trkpt>
      <trkpt lat="43.60141" lon="6.30517">
        <ele>705</ele>
        <time>2023-01-06T14:49:57Z</time>
      </trkpt>
      <trkpt lat="43.60141" lon="6.30517">
        <ele>705</ele>
        <time>2023-01-06T14:49:58Z</time>
      </trkpt>
      <trkpt lat="43.60141" lon="6.30517">
        <ele>705</ele>
        <time>2023-01-06T14:49:59Z</time>
      </trkpt>
      <trkpt lat="43.60141" lon="6.30517">
        <ele>705</ele>
        <time>2023-01-06T14:50:00Z</time>
      </trkpt>
      <trkpt lat="43.60141" lon="6.30517">
        <ele>705</ele>
        <time>2023-01-06T14:50:01Z</time>
      </trkpt>
      <trkpt lat="43.60141" lon="6.30517">
        <ele>705</ele>
        <time>2023-01-06T14:50:02Z</time>
      </trkpt>
      <trkpt lat="43.60141" lon="6.30517">
        <ele>705</ele>
        <time>2023-01-06T14:50:03Z</time>
      </trkpt>
      <trkpt lat="43.60141" lon="6.30517">
        <ele>705</ele>
        <time>2023-01-06T14:50:04Z</time>
      </trkpt>
      <trkpt lat="43.60141" lon="6.30517">
        <ele>705</ele>
        <time>2023-01-06T14:50:05Z</time>
      </trkpt>
      <trkpt lat="43.60141" lon="6.30517">
        <ele>705</ele>
        <time>2023-01-06T14:50:06Z</time>
      </trkpt>
      <trkpt lat="43.6014" lon="6.30513">
        <ele>705</ele>
        <time>2023-01-06T14:50:07Z</time>
      </trkpt>
      <trkpt lat="43.6014" lon="6.30512">
        <ele>705</ele>
        <time>2023-01-06T14:50:08Z</time>
      </trkpt>
      <trkpt lat="43.60139" lon="6.30511">
        <ele>705</ele>
        <time>2023-01-06T14:50:09Z</time>
      </trkpt>
      <trkpt lat="43.60139" lon="6.30511">
        <ele>705</ele>
        <time>2023-01-06T14:50:10Z</time>
      </trkpt>
      <trkpt lat="43.60139" lon="6.3051">
        <ele>705</ele>
        <time>2023-01-06T14:50:11Z</time>
      </trkpt>
      <trkpt lat="43.60139" lon="6.30509">
        <ele>705</ele>
        <time>2023-01-06T14:50:12Z</time>
      </trkpt>
      <trkpt lat="43.60138" lon="6.30509">
        <ele>705</ele>
        <time>2023-01-06T14:50:13Z</time>
      </trkpt>
      <trkpt lat="43.60138" lon="6.30508">
        <ele>705</ele>
        <time>2023-01-06T14:50:14Z</time>
      </trkpt>
      <trkpt lat="43.60138" lon="6.30508">
        <ele>705</ele>
        <time>2023-01-06T14:50:15Z</time>
      </trkpt>
      <trkpt lat="43.60138" lon="6.30508">
        <ele>705</ele>
        <time>2023-01-06T14:50:16Z</time>
      </trkpt>
      <trkpt lat="43.60138" lon="6.30508">
        <ele>705</ele>
        <time>2023-01-06T14:50:17Z</time>
      </trkpt>
      <trkpt lat="43.60138" lon="6.30508">
        <ele>705</ele>
        <time>2023-01-06T14:50:18Z</time>
      </trkpt>
      <trkpt lat="43.60138" lon="6.30508">
        <ele>705</ele>
        <time>2023-01-06T14:50:19Z</time>
      </trkpt>
      <trkpt lat="43.60138" lon="6.30508">
        <ele>705</ele>
        <time>2023-01-06T14:50:20Z</time>
      </trkpt>
      <trkpt lat="43.60138" lon="6.30508">
        <ele>705</ele>
        <time>2023-01-06T14:50:21Z</time>
      </trkpt>
      <trkpt lat="43.60138" lon="6.30508">
        <ele>705</ele>
        <time>2023-01-06T14:50:22Z</time>
      </trkpt>
      <trkpt lat="43.60138" lon="6.30508">
        <ele>705</ele>
        <time>2023-01-06T14:50:23Z</time>
      </trkpt>
      <trkpt lat="43.60138" lon="6.30508">
        <ele>705</ele>
        <time>2023-01-06T14:50:24Z</time>
      </trkpt>
      <trkpt lat="43.60138" lon="6.30508">
        <ele>705</ele>
        <time>2023-01-06T14:50:25Z</time>
      </trkpt>
      <trkpt lat="43.60138" lon="6.30509">
        <ele>705</ele>
        <time>2023-01-06T14:50:26Z</time>
      </trkpt>
      <trkpt lat="43.60137" lon="6.30508">
        <ele>705</ele>
        <time>2023-01-06T14:50:28Z</time>
      </trkpt>
      <trkpt lat="43.60137" lon="6.30507">
        <ele>705</ele>
        <time>2023-01-06T14:50:29Z</time>
      </trkpt>
      <trkpt lat="43.60136" lon="6.30507">
        <ele>705</ele>
        <time>2023-01-06T14:50:30Z</time>
      </trkpt>
      <trkpt lat="43.60136" lon="6.30508">
        <ele>705</ele>
        <time>2023-01-06T14:50:31Z</time>
      </trkpt>
      <trkpt lat="43.60136" lon="6.30508">
        <ele>705</ele>
        <time>2023-01-06T14:50:32Z</time>
      </trkpt>
      <trkpt lat="43.60136" lon="6.30509">
        <ele>705</ele>
        <time>2023-01-06T14:50:33Z</time>
      </trkpt>
      <trkpt lat="43.60137" lon="6.30509">
        <ele>705</ele>
        <time>2023-01-06T14:50:34Z</time>
      </trkpt>
      <trkpt lat="43.60137" lon="6.3051">
        <ele>705</ele>
        <time>2023-01-06T14:50:35Z</time>
      </trkpt>
      <trkpt lat="43.60137" lon="6.3051">
        <ele>705</ele>
        <time>2023-01-06T14:50:36Z</time>
      </trkpt>
      <trkpt lat="43.60137" lon="6.30511">
        <ele>705</ele>
        <time>2023-01-06T14:50:37Z</time>
      </trkpt>
      <trkpt lat="43.60137" lon="6.30511">
        <ele>705</ele>
        <time>2023-01-06T14:50:38Z</time>
      </trkpt>
      <trkpt lat="43.60138" lon="6.30511">
        <ele>705</ele>
        <time>2023-01-06T14:50:39Z</time>
      </trkpt>
      <trkpt lat="43.60138" lon="6.30511">
        <ele>705</ele>
        <time>2023-01-06T14:50:40Z</time>
      </trkpt>
      <trkpt lat="43.60138" lon="6.30511">
        <ele>705</ele>
        <time>2023-01-06T14:50:41Z</time>
      </trkpt>
      <trkpt lat="43.60138" lon="6.30512">
        <ele>705</ele>
        <time>2023-01-06T14:50:42Z</time>
      </trkpt>
      <trkpt lat="43.60138" lon="6.30512">
        <ele>705</ele>
        <time>2023-01-06T14:50:43Z</time>
      </trkpt>
      <trkpt lat="43.60138" lon="6.30512">
        <ele>705</ele>
        <time>2023-01-06T14:50:44Z</time>
      </trkpt>
      <trkpt lat="43.60138" lon="6.30512">
        <ele>705</ele>
        <time>2023-01-06T14:50:45Z</time>
      </trkpt>
      <trkpt lat="43.60139" lon="6.30512">
        <ele>705</ele>
        <time>2023-01-06T14:50:46Z</time>
      </trkpt>
      <trkpt lat="43.60139" lon="6.30512">
        <ele>705</ele>
        <time>2023-01-06T14:50:47Z</time>
      </trkpt>
      <trkpt lat="43.60139" lon="6.30512">
        <ele>705</ele>
        <time>2023-01-06T14:50:48Z</time>
      </trkpt>
      <trkpt lat="43.60139" lon="6.30512">
        <ele>705</ele>
        <time>2023-01-06T14:50:49Z</time>
      </trkpt>
      <trkpt lat="43.60139" lon="6.30512">
        <ele>705</ele>
        <time>2023-01-06T14:50:50Z</time>
      </trkpt>
      <trkpt lat="43.60139" lon="6.30512">
        <ele>705</ele>
        <time>2023-01-06T14:50:51Z</time>
      </trkpt>
      <trkpt lat="43.60139" lon="6.30512">
        <ele>705</ele>
        <time>2023-01-06T14:50:52Z</time>
      </trkpt>
      <trkpt lat="43.60139" lon="6.30512">
        <ele>705</ele>
        <time>2023-01-06T14:50:53Z</time>
      </trkpt>
      <trkpt lat="43.60139" lon="6.30512">
        <ele>705</ele>
        <time>2023-01-06T14:50:54Z</time>
      </trkpt>
      <trkpt lat="43.60139" lon="6.30512">
        <ele>705</ele>
        <time>2023-01-06T14:50:55Z</time>
      </trkpt>
      <trkpt lat="43.60139" lon="6.30512">
        <ele>705</ele>
        <time>2023-01-06T14:50:56Z</time>
      </trkpt>
      <trkpt lat="43.60139" lon="6.30512">
        <ele>705</ele>
        <time>2023-01-06T14:50:57Z</time>
      </trkpt>
      <trkpt lat="43.60139" lon="6.30512">
        <ele>705</ele>
        <time>2023-01-06T14:50:58Z</time>
      </trkpt>
      <trkpt lat="43.60139" lon="6.30512">
        <ele>705</ele>
        <time>2023-01-06T14:50:59Z</time>
      </trkpt>
      <trkpt lat="43.60139" lon="6.30512">
        <ele>705</ele>
        <time>2023-01-06T14:51:00Z</time>
      </trkpt>
      <trkpt lat="43.60139" lon="6.30512">
        <ele>705</ele>
        <time>2023-01-06T14:51:01Z</time>
      </trkpt>
      <trkpt lat="43.60139" lon="6.30512">
        <ele>705</ele>
        <time>2023-01-06T14:51:02Z</time>
      </trkpt>
      <trkpt lat="43.60139" lon="6.30512">
        <ele>705</ele>
        <time>2023-01-06T14:51:03Z</time>
      </trkpt>
      <trkpt lat="43.60139" lon="6.30512">
        <ele>705</ele>
        <time>2023-01-06T14:51:04Z</time>
      </trkpt>
      <trkpt lat="43.60139" lon="6.30512">
        <ele>705</ele>
        <time>2023-01-06T14:51:05Z</time>
      </trkpt>
      <trkpt lat="43.60139" lon="6.30512">
        <ele>705</ele>
        <time>2023-01-06T14:51:06Z</time>
      </trkpt>
      <trkpt lat="43.60139" lon="6.30512">
        <ele>705</ele>
        <time>2023-01-06T14:51:07Z</time>
      </trkpt>
      <trkpt lat="43.60139" lon="6.30512">
        <ele>705</ele>
        <time>2023-01-06T14:51:08Z</time>
      </trkpt>
      <trkpt lat="43.60139" lon="6.30512">
        <ele>705</ele>
        <time>2023-01-06T14:51:09Z</time>
      </trkpt>
      <trkpt lat="43.60139" lon="6.30512">
        <ele>705</ele>
        <time>2023-01-06T14:51:10Z</time>
      </trkpt>
      <trkpt lat="43.60139" lon="6.30512">
        <ele>705</ele>
        <time>2023-01-06T14:51:11Z</time>
      </trkpt>
      <trkpt lat="43.60139" lon="6.30512">
        <ele>705</ele>
        <time>2023-01-06T14:51:12Z</time>
      </trkpt>
      <trkpt lat="43.60139" lon="6.30512">
        <ele>705</ele>
        <time>2023-01-06T14:51:13Z</time>
      </trkpt>
      <trkpt lat="43.60139" lon="6.30512">
        <ele>705</ele>
        <time>2023-01-06T14:51:14Z</time>
      </trkpt>
      <trkpt lat="43.60139" lon="6.30512">
        <ele>705</ele>
        <time>2023-01-06T14:51:15Z</time>
      </trkpt>
      <trkpt lat="43.60139" lon="6.30512">
        <ele>705</ele>
        <time>2023-01-06T14:51:16Z</time>
      </trkpt>
      <trkpt lat="43.60139" lon="6.30512">
        <ele>705</ele>
        <time>2023-01-06T14:51:17Z</time>
      </trkpt>
      <trkpt lat="43.60139" lon="6.30512">
        <ele>705</ele>
        <time>2023-01-06T14:51:18Z</time>
      </trkpt>
      <trkpt lat="43.60139" lon="6.30512">
        <ele>705</ele>
        <time>2023-01-06T14:51:19Z</time>
      </trkpt>
      <trkpt lat="43.60139" lon="6.30512">
        <ele>705</ele>
        <time>2023-01-06T14:51:20Z</time>
      </trkpt>
      <trkpt lat="43.60139" lon="6.30512">
        <ele>705</ele>
        <time>2023-01-06T14:51:21Z</time>
      </trkpt>
      <trkpt lat="43.60139" lon="6.30512">
        <ele>705</ele>
        <time>2023-01-06T14:51:22Z</time>
      </trkpt>
      <trkpt lat="43.60139" lon="6.30512">
        <ele>705</ele>
        <time>2023-01-06T14:51:23Z</time>
      </trkpt>
      <trkpt lat="43.60139" lon="6.30512">
        <ele>705</ele>
        <time>2023-01-06T14:51:24Z</time>
      </trkpt>
      <trkpt lat="43.60139" lon="6.30512">
        <ele>705</ele>
        <time>2023-01-06T14:51:25Z</time>
      </trkpt>
      <trkpt lat="43.60139" lon="6.30512">
        <ele>705</ele>
        <time>2023-01-06T14:51:26Z</time>
      </trkpt>
      <trkpt lat="43.60139" lon="6.30512">
        <ele>705</ele>
        <time>2023-01-06T14:51:27Z</time>
      </trkpt>
      <trkpt lat="43.60139" lon="6.30512">
        <ele>705</ele>
        <time>2023-01-06T14:51:28Z</time>
      </trkpt>
      <trkpt lat="43.60139" lon="6.30512">
        <ele>705</ele>
        <time>2023-01-06T14:51:29Z</time>
      </trkpt>
      <trkpt lat="43.60139" lon="6.30512">
        <ele>705</ele>
        <time>2023-01-06T14:51:30Z</time>
      </trkpt>
      <trkpt lat="43.60139" lon="6.30512">
        <ele>705</ele>
        <time>2023-01-06T14:51:31Z</time>
      </trkpt>
      <trkpt lat="43.60139" lon="6.30512">
        <ele>705</ele>
        <time>2023-01-06T14:51:32Z</time>
      </trkpt>
      <trkpt lat="43.60139" lon="6.30512">
        <ele>705</ele>
        <time>2023-01-06T14:51:33Z</time>
      </trkpt>
      <trkpt lat="43.60139" lon="6.30512">
        <ele>705</ele>
        <time>2023-01-06T14:51:34Z</time>
      </trkpt>
      <trkpt lat="43.60139" lon="6.30512">
        <ele>705</ele>
        <time>2023-01-06T14:51:35Z</time>
      </trkpt>
      <trkpt lat="43.60139" lon="6.30512">
        <ele>705</ele>
        <time>2023-01-06T14:51:36Z</time>
      </trkpt>
      <trkpt lat="43.60139" lon="6.30512">
        <ele>705</ele>
        <time>2023-01-06T14:51:37Z</time>
      </trkpt>
      <trkpt lat="43.60139" lon="6.30512">
        <ele>705</ele>
        <time>2023-01-06T14:51:38Z</time>
      </trkpt>
      <trkpt lat="43.60139" lon="6.30512">
        <ele>705</ele>
        <time>2023-01-06T14:51:39Z</time>
      </trkpt>
      <trkpt lat="43.60139" lon="6.30512">
        <ele>705</ele>
        <time>2023-01-06T14:51:40Z</time>
      </trkpt>
      <trkpt lat="43.60139" lon="6.30512">
        <ele>705</ele>
        <time>2023-01-06T14:51:41Z</time>
      </trkpt>
      <trkpt lat="43.60139" lon="6.30512">
        <ele>705</ele>
        <time>2023-01-06T14:51:42Z</time>
      </trkpt>
      <trkpt lat="43.60139" lon="6.30512">
        <ele>705</ele>
        <time>2023-01-06T14:51:43Z</time>
      </trkpt>
      <trkpt lat="43.60139" lon="6.30512">
        <ele>705</ele>
        <time>2023-01-06T14:51:44Z</time>
      </trkpt>
      <trkpt lat="43.60139" lon="6.30512">
        <ele>705</ele>
        <time>2023-01-06T14:51:45Z</time>
      </trkpt>
      <trkpt lat="43.60139" lon="6.30512">
        <ele>705</ele>
        <time>2023-01-06T14:51:46Z</time>
      </trkpt>
      <trkpt lat="43.60139" lon="6.30512">
        <ele>705</ele>
        <time>2023-01-06T14:51:47Z</time>
      </trkpt>
      <trkpt lat="43.60139" lon="6.30512">
        <ele>705</ele>
        <time>2023-01-06T14:51:48Z</time>
      </trkpt>
      <trkpt lat="43.60139" lon="6.30512">
        <ele>705</ele>
        <time>2023-01-06T14:51:49Z</time>
      </trkpt>
      <trkpt lat="43.60139" lon="6.30512">
        <ele>705</ele>
        <time>2023-01-06T14:51:50Z</time>
      </trkpt>
      <trkpt lat="43.60139" lon="6.30512">
        <ele>705</ele>
        <time>2023-01-06T14:51:51Z</time>
      </trkpt>
      <trkpt lat="43.60139" lon="6.30512">
        <ele>705</ele>
        <time>2023-01-06T14:51:52Z</time>
      </trkpt>
      <trkpt lat="43.60139" lon="6.30512">
        <ele>705</ele>
        <time>2023-01-06T14:51:53Z</time>
      </trkpt>
      <trkpt lat="43.60139" lon="6.30512">
        <ele>705</ele>
        <time>2023-01-06T14:51:54Z</time>
      </trkpt>
      <trkpt lat="43.60139" lon="6.30512">
        <ele>705</ele>
        <time>2023-01-06T14:51:55Z</time>
      </trkpt>
      <trkpt lat="43.60139" lon="6.30512">
        <ele>705</ele>
        <time>2023-01-06T14:51:56Z</time>
      </trkpt>
      <trkpt lat="43.60139" lon="6.30512">
        <ele>705</ele>
        <time>2023-01-06T14:51:57Z</time>
      </trkpt>
      <trkpt lat="43.60139" lon="6.30512">
        <ele>705</ele>
        <time>2023-01-06T14:51:58Z</time>
      </trkpt>
      <trkpt lat="43.60139" lon="6.30512">
        <ele>705</ele>
        <time>2023-01-06T14:51:59Z</time>
      </trkpt>
      <trkpt lat="43.60139" lon="6.30512">
        <ele>704</ele>
        <time>2023-01-06T14:52:00Z</time>
      </trkpt>
      <trkpt lat="43.60139" lon="6.30512">
        <ele>704</ele>
        <time>2023-01-06T14:52:01Z</time>
      </trkpt>
      <trkpt lat="43.60139" lon="6.30512">
        <ele>704</ele>
        <time>2023-01-06T14:52:02Z</time>
      </trkpt>
      <trkpt lat="43.60139" lon="6.30512">
        <ele>704</ele>
        <time>2023-01-06T14:52:03Z</time>
      </trkpt>
      <trkpt lat="43.60139" lon="6.30512">
        <ele>704</ele>
        <time>2023-01-06T14:52:04Z</time>
      </trkpt>
      <trkpt lat="43.60139" lon="6.30512">
        <ele>704</ele>
        <time>2023-01-06T14:52:05Z</time>
      </trkpt>
      <trkpt lat="43.60139" lon="6.30512">
        <ele>704</ele>
        <time>2023-01-06T14:52:06Z</time>
      </trkpt>
      <trkpt lat="43.60139" lon="6.30512">
        <ele>704</ele>
        <time>2023-01-06T14:52:07Z</time>
      </trkpt>
      <trkpt lat="43.60139" lon="6.30512">
        <ele>704</ele>
        <time>2023-01-06T14:52:08Z</time>
      </trkpt>
      <trkpt lat="43.60139" lon="6.30512">
        <ele>704</ele>
        <time>2023-01-06T14:52:09Z</time>
      </trkpt>
      <trkpt lat="43.60139" lon="6.30512">
        <ele>704</ele>
        <time>2023-01-06T14:52:10Z</time>
      </trkpt>
      <trkpt lat="43.60139" lon="6.30512">
        <ele>704</ele>
        <time>2023-01-06T14:52:11Z</time>
      </trkpt>
      <trkpt lat="43.60139" lon="6.30512">
        <ele>704</ele>
        <time>2023-01-06T14:52:12Z</time>
      </trkpt>
      <trkpt lat="43.60139" lon="6.30512">
        <ele>704</ele>
        <time>2023-01-06T14:52:13Z</time>
      </trkpt>
      <trkpt lat="43.60139" lon="6.30512">
        <ele>704</ele>
        <time>2023-01-06T14:52:14Z</time>
      </trkpt>
      <trkpt lat="43.60139" lon="6.30512">
        <ele>704</ele>
        <time>2023-01-06T14:52:15Z</time>
      </trkpt>
      <trkpt lat="43.60139" lon="6.30512">
        <ele>704</ele>
        <time>2023-01-06T14:52:16Z</time>
      </trkpt>
      <trkpt lat="43.60139" lon="6.30512">
        <ele>704</ele>
        <time>2023-01-06T14:52:17Z</time>
      </trkpt>
      <trkpt lat="43.60139" lon="6.30512">
        <ele>704</ele>
        <time>2023-01-06T14:52:18Z</time>
      </trkpt>
      <trkpt lat="43.60139" lon="6.30512">
        <ele>704</ele>
        <time>2023-01-06T14:52:19Z</time>
      </trkpt>
      <trkpt lat="43.60139" lon="6.30512">
        <ele>704</ele>
        <time>2023-01-06T14:52:20Z</time>
      </trkpt>
      <trkpt lat="43.60139" lon="6.30512">
        <ele>704</ele>
        <time>2023-01-06T14:52:21Z</time>
      </trkpt>
      <trkpt lat="43.60139" lon="6.30512">
        <ele>704</ele>
        <time>2023-01-06T14:52:22Z</time>
      </trkpt>
      <trkpt lat="43.60138" lon="6.30514">
        <ele>704</ele>
        <time>2023-01-06T14:52:23Z</time>
      </trkpt>
      <trkpt lat="43.60138" lon="6.30514">
        <ele>704</ele>
        <time>2023-01-06T14:52:24Z</time>
      </trkpt>
      <trkpt lat="43.60138" lon="6.30514">
        <ele>704</ele>
        <time>2023-01-06T14:52:25Z</time>
      </trkpt>
      <trkpt lat="43.60138" lon="6.30514">
        <ele>704</ele>
        <time>2023-01-06T14:52:26Z</time>
      </trkpt>
      <trkpt lat="43.60138" lon="6.30514">
        <ele>704</ele>
        <time>2023-01-06T14:52:27Z</time>
      </trkpt>
      <trkpt lat="43.60138" lon="6.30514">
        <ele>704</ele>
        <time>2023-01-06T14:52:28Z</time>
      </trkpt>
      <trkpt lat="43.60138" lon="6.30514">
        <ele>704</ele>
        <time>2023-01-06T14:52:29Z</time>
      </trkpt>
      <trkpt lat="43.60138" lon="6.30514">
        <ele>704</ele>
        <time>2023-01-06T14:52:30Z</time>
      </trkpt>
      <trkpt lat="43.60138" lon="6.30514">
        <ele>704</ele>
        <time>2023-01-06T14:52:31Z</time>
      </trkpt>
      <trkpt lat="43.60138" lon="6.30514">
        <ele>704</ele>
        <time>2023-01-06T14:52:32Z</time>
      </trkpt>
      <trkpt lat="43.60138" lon="6.30514">
        <ele>704</ele>
        <time>2023-01-06T14:52:33Z</time>
      </trkpt>
      <trkpt lat="43.60138" lon="6.30514">
        <ele>704</ele>
        <time>2023-01-06T14:52:34Z</time>
      </trkpt>
      <trkpt lat="43.60138" lon="6.30514">
        <ele>704</ele>
        <time>2023-01-06T14:52:35Z</time>
      </trkpt>
      <trkpt lat="43.60138" lon="6.30514">
        <ele>704</ele>
        <time>2023-01-06T14:52:36Z</time>
      </trkpt>
      <trkpt lat="43.60138" lon="6.30514">
        <ele>704</ele>
        <time>2023-01-06T14:52:37Z</time>
      </trkpt>
      <trkpt lat="43.60138" lon="6.30514">
        <ele>704</ele>
        <time>2023-01-06T14:52:38Z</time>
      </trkpt>
      <trkpt lat="43.60138" lon="6.30514">
        <ele>704</ele>
        <time>2023-01-06T14:52:39Z</time>
      </trkpt>
      <trkpt lat="43.60138" lon="6.30514">
        <ele>704</ele>
        <time>2023-01-06T14:52:40Z</time>
      </trkpt>
      <trkpt lat="43.60138" lon="6.30514">
        <ele>704</ele>
        <time>2023-01-06T14:52:41Z</time>
      </trkpt>
      <trkpt lat="43.60138" lon="6.30514">
        <ele>704</ele>
        <time>2023-01-06T14:52:42Z</time>
      </trkpt>
      <trkpt lat="43.60138" lon="6.30514">
        <ele>704</ele>
        <time>2023-01-06T14:52:43Z</time>
      </trkpt>
      <trkpt lat="43.60138" lon="6.30514">
        <ele>704</ele>
        <time>2023-01-06T14:52:44Z</time>
      </trkpt>
      <trkpt lat="43.60138" lon="6.30514">
        <ele>704</ele>
        <time>2023-01-06T14:52:45Z</time>
      </trkpt>
      <trkpt lat="43.60138" lon="6.30514">
        <ele>704</ele>
        <time>2023-01-06T14:52:46Z</time>
      </trkpt>
      <trkpt lat="43.60138" lon="6.30514">
        <ele>704</ele>
        <time>2023-01-06T14:52:47Z</time>
      </trkpt>
      <trkpt lat="43.60138" lon="6.30514">
        <ele>704</ele>
        <time>2023-01-06T14:52:48Z</time>
      </trkpt>
      <trkpt lat="43.60138" lon="6.30514">
        <ele>704</ele>
        <time>2023-01-06T14:52:49Z</time>
      </trkpt>
      <trkpt lat="43.60138" lon="6.30514">
        <ele>704</ele>
        <time>2023-01-06T14:52:50Z</time>
      </trkpt>
      <trkpt lat="43.60138" lon="6.30514">
        <ele>704</ele>
        <time>2023-01-06T14:52:51Z</time>
      </trkpt>
      <trkpt lat="43.60138" lon="6.30514">
        <ele>704</ele>
        <time>2023-01-06T14:52:52Z</time>
      </trkpt>
      <trkpt lat="43.60138" lon="6.30514">
        <ele>704</ele>
        <time>2023-01-06T14:52:53Z</time>
      </trkpt>
      <trkpt lat="43.60138" lon="6.30514">
        <ele>704</ele>
        <time>2023-01-06T14:52:54Z</time>
      </trkpt>
      <trkpt lat="43.60138" lon="6.30514">
        <ele>704</ele>
        <time>2023-01-06T14:52:55Z</time>
      </trkpt>
      <trkpt lat="43.60138" lon="6.30514">
        <ele>704</ele>
        <time>2023-01-06T14:52:56Z</time>
      </trkpt>
      <trkpt lat="43.60138" lon="6.30514">
        <ele>704</ele>
        <time>2023-01-06T14:52:57Z</time>
      </trkpt>
      <trkpt lat="43.60138" lon="6.30514">
        <ele>704</ele>
        <time>2023-01-06T14:52:58Z</time>
      </trkpt>
      <trkpt lat="43.60138" lon="6.30514">
        <ele>704</ele>
        <time>2023-01-06T14:52:59Z</time>
      </trkpt>
      <trkpt lat="43.60138" lon="6.30514">
        <ele>704</ele>
        <time>2023-01-06T14:53:00Z</time>
      </trkpt>
      <trkpt lat="43.60138" lon="6.30514">
        <ele>704</ele>
        <time>2023-01-06T14:53:01Z</time>
      </trkpt>
      <trkpt lat="43.60138" lon="6.30514">
        <ele>704</ele>
        <time>2023-01-06T14:53:02Z</time>
      </trkpt>
      <trkpt lat="43.60138" lon="6.30514">
        <ele>704</ele>
        <time>2023-01-06T14:53:03Z</time>
      </trkpt>
      <trkpt lat="43.60138" lon="6.30514">
        <ele>704</ele>
        <time>2023-01-06T14:53:04Z</time>
      </trkpt>
      <trkpt lat="43.60138" lon="6.30514">
        <ele>704</ele>
        <time>2023-01-06T14:53:05Z</time>
      </trkpt>
      <trkpt lat="43.60138" lon="6.30514">
        <ele>704</ele>
        <time>2023-01-06T14:53:06Z</time>
      </trkpt>
      <trkpt lat="43.60138" lon="6.30514">
        <ele>704</ele>
        <time>2023-01-06T14:53:07Z</time>
      </trkpt>
      <trkpt lat="43.60138" lon="6.30514">
        <ele>704</ele>
        <time>2023-01-06T14:53:08Z</time>
      </trkpt>
      <trkpt lat="43.60138" lon="6.30514">
        <ele>704</ele>
        <time>2023-01-06T14:53:09Z</time>
      </trkpt>
      <trkpt lat="43.60138" lon="6.30514">
        <ele>704</ele>
        <time>2023-01-06T14:53:10Z</time>
      </trkpt>
      <trkpt lat="43.60138" lon="6.30514">
        <ele>704</ele>
        <time>2023-01-06T14:53:11Z</time>
      </trkpt>
      <trkpt lat="43.60138" lon="6.30514">
        <ele>704</ele>
        <time>2023-01-06T14:53:12Z</time>
      </trkpt>
      <trkpt lat="43.60138" lon="6.30514">
        <ele>704</ele>
        <time>2023-01-06T14:53:13Z</time>
      </trkpt>
      <trkpt lat="43.60138" lon="6.30514">
        <ele>704</ele>
        <time>2023-01-06T14:53:14Z</time>
      </trkpt>
      <trkpt lat="43.60138" lon="6.30514">
        <ele>704</ele>
        <time>2023-01-06T14:53:15Z</time>
      </trkpt>
      <trkpt lat="43.60138" lon="6.30514">
        <ele>704</ele>
        <time>2023-01-06T14:53:16Z</time>
      </trkpt>
      <trkpt lat="43.60138" lon="6.30514">
        <ele>704</ele>
        <time>2023-01-06T14:53:17Z</time>
      </trkpt>
      <trkpt lat="43.60138" lon="6.30514">
        <ele>704</ele>
        <time>2023-01-06T14:53:18Z</time>
      </trkpt>
      <trkpt lat="43.60138" lon="6.30514">
        <ele>704</ele>
        <time>2023-01-06T14:53:19Z</time>
      </trkpt>
      <trkpt lat="43.60138" lon="6.30514">
        <ele>704</ele>
        <time>2023-01-06T14:53:20Z</time>
      </trkpt>
      <trkpt lat="43.60138" lon="6.30514">
        <ele>704</ele>
        <time>2023-01-06T14:53:21Z</time>
      </trkpt>
      <trkpt lat="43.60138" lon="6.30514">
        <ele>704</ele>
        <time>2023-01-06T14:53:22Z</time>
      </trkpt>
      <trkpt lat="43.60138" lon="6.30514">
        <ele>704</ele>
        <time>2023-01-06T14:53:23Z</time>
      </trkpt>
      <trkpt lat="43.60138" lon="6.30514">
        <ele>704</ele>
        <time>2023-01-06T14:53:24Z</time>
      </trkpt>
      <trkpt lat="43.60138" lon="6.30514">
        <ele>704</ele>
        <time>2023-01-06T14:53:25Z</time>
      </trkpt>
      <trkpt lat="43.60138" lon="6.30514">
        <ele>704</ele>
        <time>2023-01-06T14:53:26Z</time>
      </trkpt>
      <trkpt lat="43.60138" lon="6.30514">
        <ele>704</ele>
        <time>2023-01-06T14:53:27Z</time>
      </trkpt>
      <trkpt lat="43.60138" lon="6.30514">
        <ele>704</ele>
        <time>2023-01-06T14:53:28Z</time>
      </trkpt>
      <trkpt lat="43.60138" lon="6.30514">
        <ele>704</ele>
        <time>2023-01-06T14:53:29Z</time>
      </trkpt>
      <trkpt lat="43.60138" lon="6.30514">
        <ele>704</ele>
        <time>2023-01-06T14:53:30Z</time>
      </trkpt>
      <trkpt lat="43.60138" lon="6.30514">
        <ele>704</ele>
        <time>2023-01-06T14:53:31Z</time>
      </trkpt>
      <trkpt lat="43.60138" lon="6.30514">
        <ele>704</ele>
        <time>2023-01-06T14:53:32Z</time>
      </trkpt>
      <trkpt lat="43.60138" lon="6.30515">
        <ele>704</ele>
        <time>2023-01-06T14:53:33Z</time>
      </trkpt>
      <trkpt lat="43.60138" lon="6.30515">
        <ele>704</ele>
        <time>2023-01-06T14:53:34Z</time>
      </trkpt>
      <trkpt lat="43.60138" lon="6.30515">
        <ele>704</ele>
        <time>2023-01-06T14:53:35Z</time>
      </trkpt>
      <trkpt lat="43.60138" lon="6.30515">
        <ele>704</ele>
        <time>2023-01-06T14:53:36Z</time>
      </trkpt>
      <trkpt lat="43.60138" lon="6.30515">
        <ele>704</ele>
        <time>2023-01-06T14:53:37Z</time>
      </trkpt>
      <trkpt lat="43.60138" lon="6.30515">
        <ele>704</ele>
        <time>2023-01-06T14:53:38Z</time>
      </trkpt>
      <trkpt lat="43.60138" lon="6.30515">
        <ele>704</ele>
        <time>2023-01-06T14:53:39Z</time>
      </trkpt>
      <trkpt lat="43.60138" lon="6.30515">
        <ele>704</ele>
        <time>2023-01-06T14:53:40Z</time>
      </trkpt>
      <trkpt lat="43.60138" lon="6.30515">
        <ele>704</ele>
        <time>2023-01-06T14:53:41Z</time>
      </trkpt>
      <trkpt lat="43.60138" lon="6.30515">
        <ele>704</ele>
        <time>2023-01-06T14:53:42Z</time>
      </trkpt>
      <trkpt lat="43.60138" lon="6.30515">
        <ele>704</ele>
        <time>2023-01-06T14:53:43Z</time>
      </trkpt>
      <trkpt lat="43.60138" lon="6.30515">
        <ele>704</ele>
        <time>2023-01-06T14:53:44Z</time>
      </trkpt>
      <trkpt lat="43.60138" lon="6.30515">
        <ele>704</ele>
        <time>2023-01-06T14:53:45Z</time>
      </trkpt>
      <trkpt lat="43.60138" lon="6.30515">
        <ele>704</ele>
        <time>2023-01-06T14:53:46Z</time>
      </trkpt>
      <trkpt lat="43.60138" lon="6.30515">
        <ele>704</ele>
        <time>2023-01-06T14:53:47Z</time>
      </trkpt>
      <trkpt lat="43.60138" lon="6.30515">
        <ele>704</ele>
        <time>2023-01-06T14:53:48Z</time>
      </trkpt>
      <trkpt lat="43.60138" lon="6.30515">
        <ele>704</ele>
        <time>2023-01-06T14:53:49Z</time>
      </trkpt>
      <trkpt lat="43.60138" lon="6.30515">
        <ele>704</ele>
        <time>2023-01-06T14:53:50Z</time>
      </trkpt>
      <trkpt lat="43.60138" lon="6.30515">
        <ele>704</ele>
        <time>2023-01-06T14:53:51Z</time>
      </trkpt>
      <trkpt lat="43.60138" lon="6.30515">
        <ele>704</ele>
        <time>2023-01-06T14:53:52Z</time>
      </trkpt>
      <trkpt lat="43.60138" lon="6.30515">
        <ele>704</ele>
        <time>2023-01-06T14:53:53Z</time>
      </trkpt>
      <trkpt lat="43.60138" lon="6.30515">
        <ele>704</ele>
        <time>2023-01-06T14:53:54Z</time>
      </trkpt>
      <trkpt lat="43.60138" lon="6.30514">
        <ele>704</ele>
        <time>2023-01-06T14:53:55Z</time>
      </trkpt>
      <trkpt lat="43.60138" lon="6.30514">
        <ele>704</ele>
        <time>2023-01-06T14:53:56Z</time>
      </trkpt>
      <trkpt lat="43.60138" lon="6.30514">
        <ele>704</ele>
        <time>2023-01-06T14:53:57Z</time>
      </trkpt>
      <trkpt lat="43.60138" lon="6.30515">
        <ele>704</ele>
        <time>2023-01-06T14:53:58Z</time>
      </trkpt>
      <trkpt lat="43.60138" lon="6.30515">
        <ele>704</ele>
        <time>2023-01-06T14:53:59Z</time>
      </trkpt>
      <trkpt lat="43.60138" lon="6.30515">
        <ele>704</ele>
        <time>2023-01-06T14:54:00Z</time>
      </trkpt>
      <trkpt lat="43.60138" lon="6.30515">
        <ele>704</ele>
        <time>2023-01-06T14:54:01Z</time>
      </trkpt>
      <trkpt lat="43.60138" lon="6.30515">
        <ele>704</ele>
        <time>2023-01-06T14:54:02Z</time>
      </trkpt>
      <trkpt lat="43.60138" lon="6.30515">
        <ele>704</ele>
        <time>2023-01-06T14:54:03Z</time>
      </trkpt>
      <trkpt lat="43.60138" lon="6.30515">
        <ele>704</ele>
        <time>2023-01-06T14:54:04Z</time>
      </trkpt>
      <trkpt lat="43.60138" lon="6.30515">
        <ele>704</ele>
        <time>2023-01-06T14:54:05Z</time>
      </trkpt>
      <trkpt lat="43.60138" lon="6.30515">
        <ele>704</ele>
        <time>2023-01-06T14:54:06Z</time>
      </trkpt>
      <trkpt lat="43.60138" lon="6.30515">
        <ele>704</ele>
        <time>2023-01-06T14:54:07Z</time>
      </trkpt>
      <trkpt lat="43.60138" lon="6.30515">
        <ele>704</ele>
        <time>2023-01-06T14:54:08Z</time>
      </trkpt>
      <trkpt lat="43.60138" lon="6.30515">
        <ele>704</ele>
        <time>2023-01-06T14:54:09Z</time>
      </trkpt>
      <trkpt lat="43.60138" lon="6.30515">
        <ele>704</ele>
        <time>2023-01-06T14:54:10Z</time>
      </trkpt>
      <trkpt lat="43.60138" lon="6.30515">
        <ele>704</ele>
        <time>2023-01-06T14:54:11Z</time>
      </trkpt>
      <trkpt lat="43.60138" lon="6.30515">
        <ele>704</ele>
        <time>2023-01-06T14:54:12Z</time>
      </trkpt>
      <trkpt lat="43.60137" lon="6.30515">
        <ele>704</ele>
        <time>2023-01-06T14:54:13Z</time>
      </trkpt>
      <trkpt lat="43.60137" lon="6.30515">
        <ele>704</ele>
        <time>2023-01-06T14:54:14Z</time>
      </trkpt>
      <trkpt lat="43.60137" lon="6.30515">
        <ele>704</ele>
        <time>2023-01-06T14:54:15Z</time>
      </trkpt>
      <trkpt lat="43.60137" lon="6.30514">
        <ele>705</ele>
        <time>2023-01-06T14:54:16Z</time>
      </trkpt>
      <trkpt lat="43.60137" lon="6.30514">
        <ele>705</ele>
        <time>2023-01-06T14:54:17Z</time>
      </trkpt>
      <trkpt lat="43.60137" lon="6.30513">
        <ele>705</ele>
        <time>2023-01-06T14:54:18Z</time>
      </trkpt>
      <trkpt lat="43.60137" lon="6.30512">
        <ele>705</ele>
        <time>2023-01-06T14:54:19Z</time>
      </trkpt>
      <trkpt lat="43.60137" lon="6.30512">
        <ele>705</ele>
        <time>2023-01-06T14:54:20Z</time>
      </trkpt>
      <trkpt lat="43.60137" lon="6.30511">
        <ele>705</ele>
        <time>2023-01-06T14:54:21Z</time>
      </trkpt>
      <trkpt lat="43.60137" lon="6.3051">
        <ele>705</ele>
        <time>2023-01-06T14:54:22Z</time>
      </trkpt>
      <trkpt lat="43.60137" lon="6.30509">
        <ele>705</ele>
        <time>2023-01-06T14:54:23Z</time>
      </trkpt>
      <trkpt lat="43.60137" lon="6.30508">
        <ele>705</ele>
        <time>2023-01-06T14:54:24Z</time>
      </trkpt>
      <trkpt lat="43.60137" lon="6.30507">
        <ele>705</ele>
        <time>2023-01-06T14:54:25Z</time>
      </trkpt>
      <trkpt lat="43.60137" lon="6.30506">
        <ele>705</ele>
        <time>2023-01-06T14:54:26Z</time>
      </trkpt>
      <trkpt lat="43.60136" lon="6.30505">
        <ele>705</ele>
        <time>2023-01-06T14:54:27Z</time>
      </trkpt>
      <trkpt lat="43.60136" lon="6.30504">
        <ele>705</ele>
        <time>2023-01-06T14:54:28Z</time>
      </trkpt>
      <trkpt lat="43.60136" lon="6.30503">
        <ele>705</ele>
        <time>2023-01-06T14:54:29Z</time>
      </trkpt>
      <trkpt lat="43.60136" lon="6.30502">
        <ele>705</ele>
        <time>2023-01-06T14:54:30Z</time>
      </trkpt>
      <trkpt lat="43.60136" lon="6.305">
        <ele>705</ele>
        <time>2023-01-06T14:54:31Z</time>
      </trkpt>
      <trkpt lat="43.60136" lon="6.30499">
        <ele>705</ele>
        <time>2023-01-06T14:54:32Z</time>
      </trkpt>
      <trkpt lat="43.60136" lon="6.30498">
        <ele>705</ele>
        <time>2023-01-06T14:54:33Z</time>
      </trkpt>
      <trkpt lat="43.60136" lon="6.30497">
        <ele>705</ele>
        <time>2023-01-06T14:54:34Z</time>
      </trkpt>
      <trkpt lat="43.60136" lon="6.30496">
        <ele>705</ele>
        <time>2023-01-06T14:54:35Z</time>
      </trkpt>
      <trkpt lat="43.60135" lon="6.30495">
        <ele>706</ele>
        <time>2023-01-06T14:54:36Z</time>
      </trkpt>
      <trkpt lat="43.60135" lon="6.30494">
        <ele>706</ele>
        <time>2023-01-06T14:54:37Z</time>
      </trkpt>
      <trkpt lat="43.60135" lon="6.30493">
        <ele>706</ele>
        <time>2023-01-06T14:54:38Z</time>
      </trkpt>
      <trkpt lat="43.60135" lon="6.30492">
        <ele>706</ele>
        <time>2023-01-06T14:54:39Z</time>
      </trkpt>
      <trkpt lat="43.60134" lon="6.3049">
        <ele>706</ele>
        <time>2023-01-06T14:54:40Z</time>
      </trkpt>
      <trkpt lat="43.60134" lon="6.30489">
        <ele>707</ele>
        <time>2023-01-06T14:54:41Z</time>
      </trkpt>
      <trkpt lat="43.60134" lon="6.30488">
        <ele>707</ele>
        <time>2023-01-06T14:54:42Z</time>
      </trkpt>
      <trkpt lat="43.60134" lon="6.30487">
        <ele>707</ele>
        <time>2023-01-06T14:54:43Z</time>
      </trkpt>
      <trkpt lat="43.60134" lon="6.30485">
        <ele>707</ele>
        <time>2023-01-06T14:54:44Z</time>
      </trkpt>
      <trkpt lat="43.60135" lon="6.30484">
        <ele>707</ele>
        <time>2023-01-06T14:54:45Z</time>
      </trkpt>
      <trkpt lat="43.60135" lon="6.30483">
        <ele>707</ele>
        <time>2023-01-06T14:54:46Z</time>
      </trkpt>
      <trkpt lat="43.60135" lon="6.30482">
        <ele>707</ele>
        <time>2023-01-06T14:54:47Z</time>
      </trkpt>
      <trkpt lat="43.60135" lon="6.3048">
        <ele>708</ele>
        <time>2023-01-06T14:54:48Z</time>
      </trkpt>
      <trkpt lat="43.60135" lon="6.30479">
        <ele>708</ele>
        <time>2023-01-06T14:54:49Z</time>
      </trkpt>
      <trkpt lat="43.60134" lon="6.30477">
        <ele>708</ele>
        <time>2023-01-06T14:54:50Z</time>
      </trkpt>
      <trkpt lat="43.60134" lon="6.30475">
        <ele>708</ele>
        <time>2023-01-06T14:54:51Z</time>
      </trkpt>
      <trkpt lat="43.60133" lon="6.30474">
        <ele>708</ele>
        <time>2023-01-06T14:54:52Z</time>
      </trkpt>
      <trkpt lat="43.60133" lon="6.30472">
        <ele>708</ele>
        <time>2023-01-06T14:54:53Z</time>
      </trkpt>
      <trkpt lat="43.60132" lon="6.30471">
        <ele>708</ele>
        <time>2023-01-06T14:54:54Z</time>
      </trkpt>
      <trkpt lat="43.60132" lon="6.3047">
        <ele>709</ele>
        <time>2023-01-06T14:54:55Z</time>
      </trkpt>
      <trkpt lat="43.60131" lon="6.30469">
        <ele>709</ele>
        <time>2023-01-06T14:54:56Z</time>
      </trkpt>
      <trkpt lat="43.60131" lon="6.30467">
        <ele>709</ele>
        <time>2023-01-06T14:54:57Z</time>
      </trkpt>
      <trkpt lat="43.60131" lon="6.30467">
        <ele>709</ele>
        <time>2023-01-06T14:54:58Z</time>
      </trkpt>
      <trkpt lat="43.60131" lon="6.30466">
        <ele>709</ele>
        <time>2023-01-06T14:54:59Z</time>
      </trkpt>
      <trkpt lat="43.6013" lon="6.30464">
        <ele>709</ele>
        <time>2023-01-06T14:55:00Z</time>
      </trkpt>
      <trkpt lat="43.60131" lon="6.30463">
        <ele>709</ele>
        <time>2023-01-06T14:55:01Z</time>
      </trkpt>
      <trkpt lat="43.6013" lon="6.30461">
        <ele>709</ele>
        <time>2023-01-06T14:55:02Z</time>
      </trkpt>
      <trkpt lat="43.6013" lon="6.3046">
        <ele>709</ele>
        <time>2023-01-06T14:55:03Z</time>
      </trkpt>
      <trkpt lat="43.6013" lon="6.30459">
        <ele>709</ele>
        <time>2023-01-06T14:55:04Z</time>
      </trkpt>
      <trkpt lat="43.6013" lon="6.30458">
        <ele>709</ele>
        <time>2023-01-06T14:55:05Z</time>
      </trkpt>
      <trkpt lat="43.60129" lon="6.30457">
        <ele>709</ele>
        <time>2023-01-06T14:55:06Z</time>
      </trkpt>
      <trkpt lat="43.60129" lon="6.30456">
        <ele>708</ele>
        <time>2023-01-06T14:55:07Z</time>
      </trkpt>
      <trkpt lat="43.60128" lon="6.30455">
        <ele>708</ele>
        <time>2023-01-06T14:55:08Z</time>
      </trkpt>
      <trkpt lat="43.60127" lon="6.30454">
        <ele>708</ele>
        <time>2023-01-06T14:55:09Z</time>
      </trkpt>
      <trkpt lat="43.60126" lon="6.30453">
        <ele>708</ele>
        <time>2023-01-06T14:55:10Z</time>
      </trkpt>
      <trkpt lat="43.60125" lon="6.30452">
        <ele>708</ele>
        <time>2023-01-06T14:55:11Z</time>
      </trkpt>
      <trkpt lat="43.60125" lon="6.30451">
        <ele>708</ele>
        <time>2023-01-06T14:55:12Z</time>
      </trkpt>
      <trkpt lat="43.60125" lon="6.30449">
        <ele>708</ele>
        <time>2023-01-06T14:55:13Z</time>
      </trkpt>
      <trkpt lat="43.60124" lon="6.30448">
        <ele>708</ele>
        <time>2023-01-06T14:55:14Z</time>
      </trkpt>
      <trkpt lat="43.60123" lon="6.30447">
        <ele>708</ele>
        <time>2023-01-06T14:55:15Z</time>
      </trkpt>
      <trkpt lat="43.60123" lon="6.30447">
        <ele>709</ele>
        <time>2023-01-06T14:55:16Z</time>
      </trkpt>
      <trkpt lat="43.60122" lon="6.30446">
        <ele>709</ele>
        <time>2023-01-06T14:55:17Z</time>
      </trkpt>
      <trkpt lat="43.60121" lon="6.30446">
        <ele>709</ele>
        <time>2023-01-06T14:55:18Z</time>
      </trkpt>
      <trkpt lat="43.60119" lon="6.30445">
        <ele>709</ele>
        <time>2023-01-06T14:55:19Z</time>
      </trkpt>
      <trkpt lat="43.60118" lon="6.30445">
        <ele>709</ele>
        <time>2023-01-06T14:55:20Z</time>
      </trkpt>
      <trkpt lat="43.60117" lon="6.30444">
        <ele>709</ele>
        <time>2023-01-06T14:55:21Z</time>
      </trkpt>
      <trkpt lat="43.60116" lon="6.30443">
        <ele>709</ele>
        <time>2023-01-06T14:55:22Z</time>
      </trkpt>
      <trkpt lat="43.60115" lon="6.30443">
        <ele>708</ele>
        <time>2023-01-06T14:55:23Z</time>
      </trkpt>
      <trkpt lat="43.60114" lon="6.30442">
        <ele>708</ele>
        <time>2023-01-06T14:55:24Z</time>
      </trkpt>
      <trkpt lat="43.60113" lon="6.30441">
        <ele>708</ele>
        <time>2023-01-06T14:55:25Z</time>
      </trkpt>
      <trkpt lat="43.60112" lon="6.30441">
        <ele>708</ele>
        <time>2023-01-06T14:55:26Z</time>
      </trkpt>
      <trkpt lat="43.60111" lon="6.3044">
        <ele>708</ele>
        <time>2023-01-06T14:55:27Z</time>
      </trkpt>
      <trkpt lat="43.6011" lon="6.30439">
        <ele>708</ele>
        <time>2023-01-06T14:55:28Z</time>
      </trkpt>
      <trkpt lat="43.60109" lon="6.30439">
        <ele>708</ele>
        <time>2023-01-06T14:55:29Z</time>
      </trkpt>
      <trkpt lat="43.60108" lon="6.30438">
        <ele>709</ele>
        <time>2023-01-06T14:55:30Z</time>
      </trkpt>
      <trkpt lat="43.60107" lon="6.30437">
        <ele>709</ele>
        <time>2023-01-06T14:55:31Z</time>
      </trkpt>
      <trkpt lat="43.60106" lon="6.30436">
        <ele>709</ele>
        <time>2023-01-06T14:55:32Z</time>
      </trkpt>
      <trkpt lat="43.60104" lon="6.30436">
        <ele>709</ele>
        <time>2023-01-06T14:55:33Z</time>
      </trkpt>
      <trkpt lat="43.60103" lon="6.30435">
        <ele>709</ele>
        <time>2023-01-06T14:55:34Z</time>
      </trkpt>
      <trkpt lat="43.60102" lon="6.30435">
        <ele>709</ele>
        <time>2023-01-06T14:55:35Z</time>
      </trkpt>
      <trkpt lat="43.60101" lon="6.30434">
        <ele>709</ele>
        <time>2023-01-06T14:55:36Z</time>
      </trkpt>
      <trkpt lat="43.601" lon="6.30434">
        <ele>709</ele>
        <time>2023-01-06T14:55:37Z</time>
      </trkpt>
      <trkpt lat="43.60099" lon="6.30434">
        <ele>709</ele>
        <time>2023-01-06T14:55:38Z</time>
      </trkpt>
      <trkpt lat="43.60098" lon="6.30433">
        <ele>709</ele>
        <time>2023-01-06T14:55:39Z</time>
      </trkpt>
      <trkpt lat="43.60097" lon="6.30433">
        <ele>709</ele>
        <time>2023-01-06T14:55:40Z</time>
      </trkpt>
      <trkpt lat="43.60096" lon="6.30433">
        <ele>709</ele>
        <time>2023-01-06T14:55:41Z</time>
      </trkpt>
      <trkpt lat="43.60095" lon="6.30432">
        <ele>709</ele>
        <time>2023-01-06T14:55:42Z</time>
      </trkpt>
      <trkpt lat="43.60094" lon="6.30431">
        <ele>710</ele>
        <time>2023-01-06T14:55:43Z</time>
      </trkpt>
      <trkpt lat="43.60093" lon="6.30431">
        <ele>710</ele>
        <time>2023-01-06T14:55:44Z</time>
      </trkpt>
      <trkpt lat="43.60092" lon="6.3043">
        <ele>710</ele>
        <time>2023-01-06T14:55:45Z</time>
      </trkpt>
      <trkpt lat="43.60091" lon="6.3043">
        <ele>710</ele>
        <time>2023-01-06T14:55:46Z</time>
      </trkpt>
      <trkpt lat="43.6009" lon="6.3043">
        <ele>710</ele>
        <time>2023-01-06T14:55:47Z</time>
      </trkpt>
      <trkpt lat="43.60089" lon="6.3043">
        <ele>710</ele>
        <time>2023-01-06T14:55:48Z</time>
      </trkpt>
      <trkpt lat="43.60088" lon="6.3043">
        <ele>710</ele>
        <time>2023-01-06T14:55:49Z</time>
      </trkpt>
      <trkpt lat="43.60087" lon="6.30431">
        <ele>710</ele>
        <time>2023-01-06T14:55:50Z</time>
      </trkpt>
      <trkpt lat="43.60086" lon="6.30431">
        <ele>710</ele>
        <time>2023-01-06T14:55:51Z</time>
      </trkpt>
      <trkpt lat="43.60086" lon="6.30431">
        <ele>710</ele>
        <time>2023-01-06T14:55:52Z</time>
      </trkpt>
      <trkpt lat="43.60084" lon="6.3043">
        <ele>710</ele>
        <time>2023-01-06T14:55:53Z</time>
      </trkpt>
      <trkpt lat="43.60083" lon="6.3043">
        <ele>710</ele>
        <time>2023-01-06T14:55:54Z</time>
      </trkpt>
      <trkpt lat="43.60082" lon="6.3043">
        <ele>710</ele>
        <time>2023-01-06T14:55:55Z</time>
      </trkpt>
      <trkpt lat="43.60081" lon="6.3043">
        <ele>710</ele>
        <time>2023-01-06T14:55:56Z</time>
      </trkpt>
      <trkpt lat="43.6008" lon="6.3043">
        <ele>710</ele>
        <time>2023-01-06T14:55:57Z</time>
      </trkpt>
      <trkpt lat="43.60079" lon="6.3043">
        <ele>710</ele>
        <time>2023-01-06T14:55:58Z</time>
      </trkpt>
      <trkpt lat="43.60078" lon="6.3043">
        <ele>710</ele>
        <time>2023-01-06T14:55:59Z</time>
      </trkpt>
      <trkpt lat="43.60077" lon="6.3043">
        <ele>710</ele>
        <time>2023-01-06T14:56:00Z</time>
      </trkpt>
      <trkpt lat="43.60076" lon="6.3043">
        <ele>710</ele>
        <time>2023-01-06T14:56:01Z</time>
      </trkpt>
      <trkpt lat="43.60075" lon="6.3043">
        <ele>710</ele>
        <time>2023-01-06T14:56:02Z</time>
      </trkpt>
      <trkpt lat="43.60075" lon="6.3043">
        <ele>710</ele>
        <time>2023-01-06T14:56:03Z</time>
      </trkpt>
      <trkpt lat="43.60074" lon="6.30431">
        <ele>710</ele>
        <time>2023-01-06T14:56:04Z</time>
      </trkpt>
      <trkpt lat="43.60073" lon="6.30431">
        <ele>710</ele>
        <time>2023-01-06T14:56:05Z</time>
      </trkpt>
      <trkpt lat="43.60072" lon="6.30431">
        <ele>710</ele>
        <time>2023-01-06T14:56:06Z</time>
      </trkpt>
      <trkpt lat="43.60071" lon="6.30431">
        <ele>710</ele>
        <time>2023-01-06T14:56:07Z</time>
      </trkpt>
      <trkpt lat="43.6007" lon="6.30432">
        <ele>710</ele>
        <time>2023-01-06T14:56:08Z</time>
      </trkpt>
      <trkpt lat="43.60069" lon="6.30432">
        <ele>710</ele>
        <time>2023-01-06T14:56:09Z</time>
      </trkpt>
      <trkpt lat="43.60068" lon="6.30432">
        <ele>710</ele>
        <time>2023-01-06T14:56:10Z</time>
      </trkpt>
      <trkpt lat="43.60067" lon="6.30433">
        <ele>710</ele>
        <time>2023-01-06T14:56:11Z</time>
      </trkpt>
      <trkpt lat="43.60067" lon="6.30433">
        <ele>710</ele>
        <time>2023-01-06T14:56:12Z</time>
      </trkpt>
      <trkpt lat="43.60066" lon="6.30433">
        <ele>710</ele>
        <time>2023-01-06T14:56:13Z</time>
      </trkpt>
      <trkpt lat="43.60065" lon="6.30433">
        <ele>710</ele>
        <time>2023-01-06T14:56:14Z</time>
      </trkpt>
      <trkpt lat="43.60064" lon="6.30434">
        <ele>710</ele>
        <time>2023-01-06T14:56:15Z</time>
      </trkpt>
      <trkpt lat="43.60063" lon="6.30434">
        <ele>709</ele>
        <time>2023-01-06T14:56:16Z</time>
      </trkpt>
      <trkpt lat="43.60061" lon="6.30434">
        <ele>709</ele>
        <time>2023-01-06T14:56:17Z</time>
      </trkpt>
      <trkpt lat="43.6006" lon="6.30435">
        <ele>709</ele>
        <time>2023-01-06T14:56:18Z</time>
      </trkpt>
      <trkpt lat="43.60059" lon="6.30435">
        <ele>709</ele>
        <time>2023-01-06T14:56:19Z</time>
      </trkpt>
      <trkpt lat="43.60058" lon="6.30435">
        <ele>709</ele>
        <time>2023-01-06T14:56:20Z</time>
      </trkpt>
      <trkpt lat="43.60057" lon="6.30436">
        <ele>709</ele>
        <time>2023-01-06T14:56:21Z</time>
      </trkpt>
      <trkpt lat="43.60056" lon="6.30436">
        <ele>709</ele>
        <time>2023-01-06T14:56:22Z</time>
      </trkpt>
      <trkpt lat="43.60055" lon="6.30436">
        <ele>709</ele>
        <time>2023-01-06T14:56:23Z</time>
      </trkpt>
      <trkpt lat="43.60054" lon="6.30437">
        <ele>709</ele>
        <time>2023-01-06T14:56:24Z</time>
      </trkpt>
      <trkpt lat="43.60053" lon="6.30437">
        <ele>709</ele>
        <time>2023-01-06T14:56:25Z</time>
      </trkpt>
      <trkpt lat="43.60052" lon="6.30438">
        <ele>710</ele>
        <time>2023-01-06T14:56:26Z</time>
      </trkpt>
      <trkpt lat="43.60051" lon="6.30438">
        <ele>710</ele>
        <time>2023-01-06T14:56:27Z</time>
      </trkpt>
      <trkpt lat="43.6005" lon="6.30439">
        <ele>711</ele>
        <time>2023-01-06T14:56:28Z</time>
      </trkpt>
      <trkpt lat="43.60049" lon="6.30438">
        <ele>711</ele>
        <time>2023-01-06T14:56:29Z</time>
      </trkpt>
      <trkpt lat="43.60048" lon="6.30438">
        <ele>711</ele>
        <time>2023-01-06T14:56:30Z</time>
      </trkpt>
      <trkpt lat="43.60047" lon="6.30437">
        <ele>712</ele>
        <time>2023-01-06T14:56:31Z</time>
      </trkpt>
      <trkpt lat="43.60046" lon="6.30437">
        <ele>712</ele>
        <time>2023-01-06T14:56:32Z</time>
      </trkpt>
      <trkpt lat="43.60045" lon="6.30437">
        <ele>712</ele>
        <time>2023-01-06T14:56:33Z</time>
      </trkpt>
      <trkpt lat="43.60044" lon="6.30437">
        <ele>712</ele>
        <time>2023-01-06T14:56:34Z</time>
      </trkpt>
      <trkpt lat="43.60043" lon="6.30437">
        <ele>712</ele>
        <time>2023-01-06T14:56:35Z</time>
      </trkpt>
      <trkpt lat="43.60042" lon="6.30437">
        <ele>713</ele>
        <time>2023-01-06T14:56:36Z</time>
      </trkpt>
      <trkpt lat="43.60041" lon="6.30437">
        <ele>713</ele>
        <time>2023-01-06T14:56:37Z</time>
      </trkpt>
      <trkpt lat="43.60039" lon="6.30437">
        <ele>713</ele>
        <time>2023-01-06T14:56:38Z</time>
      </trkpt>
      <trkpt lat="43.60038" lon="6.30437">
        <ele>713</ele>
        <time>2023-01-06T14:56:39Z</time>
      </trkpt>
      <trkpt lat="43.60038" lon="6.30437">
        <ele>713</ele>
        <time>2023-01-06T14:56:40Z</time>
      </trkpt>
      <trkpt lat="43.60037" lon="6.30437">
        <ele>713</ele>
        <time>2023-01-06T14:56:41Z</time>
      </trkpt>
      <trkpt lat="43.60036" lon="6.30437">
        <ele>713</ele>
        <time>2023-01-06T14:56:42Z</time>
      </trkpt>
      <trkpt lat="43.60035" lon="6.30437">
        <ele>713</ele>
        <time>2023-01-06T14:56:43Z</time>
      </trkpt>
      <trkpt lat="43.60034" lon="6.30438">
        <ele>713</ele>
        <time>2023-01-06T14:56:44Z</time>
      </trkpt>
      <trkpt lat="43.60033" lon="6.30438">
        <ele>712</ele>
        <time>2023-01-06T14:56:45Z</time>
      </trkpt>
      <trkpt lat="43.60032" lon="6.30438">
        <ele>712</ele>
        <time>2023-01-06T14:56:46Z</time>
      </trkpt>
      <trkpt lat="43.60031" lon="6.30439">
        <ele>712</ele>
        <time>2023-01-06T14:56:47Z</time>
      </trkpt>
      <trkpt lat="43.6003" lon="6.30439">
        <ele>712</ele>
        <time>2023-01-06T14:56:48Z</time>
      </trkpt>
      <trkpt lat="43.60029" lon="6.30439">
        <ele>712</ele>
        <time>2023-01-06T14:56:49Z</time>
      </trkpt>
      <trkpt lat="43.60028" lon="6.3044">
        <ele>712</ele>
        <time>2023-01-06T14:56:50Z</time>
      </trkpt>
      <trkpt lat="43.60027" lon="6.3044">
        <ele>712</ele>
        <time>2023-01-06T14:56:51Z</time>
      </trkpt>
      <trkpt lat="43.60026" lon="6.3044">
        <ele>712</ele>
        <time>2023-01-06T14:56:52Z</time>
      </trkpt>
      <trkpt lat="43.60026" lon="6.3044">
        <ele>712</ele>
        <time>2023-01-06T14:56:53Z</time>
      </trkpt>
      <trkpt lat="43.60025" lon="6.30441">
        <ele>712</ele>
        <time>2023-01-06T14:56:54Z</time>
      </trkpt>
      <trkpt lat="43.60024" lon="6.30442">
        <ele>712</ele>
        <time>2023-01-06T14:56:55Z</time>
      </trkpt>
      <trkpt lat="43.60023" lon="6.30442">
        <ele>712</ele>
        <time>2023-01-06T14:56:56Z</time>
      </trkpt>
      <trkpt lat="43.60022" lon="6.30443">
        <ele>711</ele>
        <time>2023-01-06T14:56:57Z</time>
      </trkpt>
      <trkpt lat="43.60021" lon="6.30444">
        <ele>711</ele>
        <time>2023-01-06T14:56:58Z</time>
      </trkpt>
      <trkpt lat="43.60021" lon="6.30444">
        <ele>711</ele>
        <time>2023-01-06T14:56:59Z</time>
      </trkpt>
      <trkpt lat="43.60021" lon="6.30445">
        <ele>710</ele>
        <time>2023-01-06T14:57:00Z</time>
      </trkpt>
      <trkpt lat="43.6002" lon="6.30446">
        <ele>710</ele>
        <time>2023-01-06T14:57:01Z</time>
      </trkpt>
      <trkpt lat="43.60019" lon="6.30447">
        <ele>710</ele>
        <time>2023-01-06T14:57:02Z</time>
      </trkpt>
      <trkpt lat="43.60018" lon="6.30447">
        <ele>710</ele>
        <time>2023-01-06T14:57:03Z</time>
      </trkpt>
      <trkpt lat="43.60017" lon="6.30448">
        <ele>710</ele>
        <time>2023-01-06T14:57:04Z</time>
      </trkpt>
      <trkpt lat="43.60016" lon="6.30448">
        <ele>710</ele>
        <time>2023-01-06T14:57:05Z</time>
      </trkpt>
      <trkpt lat="43.60015" lon="6.30448">
        <ele>710</ele>
        <time>2023-01-06T14:57:06Z</time>
      </trkpt>
      <trkpt lat="43.60015" lon="6.30449">
        <ele>711</ele>
        <time>2023-01-06T14:57:07Z</time>
      </trkpt>
      <trkpt lat="43.60014" lon="6.3045">
        <ele>711</ele>
        <time>2023-01-06T14:57:08Z</time>
      </trkpt>
      <trkpt lat="43.60013" lon="6.3045">
        <ele>711</ele>
        <time>2023-01-06T14:57:09Z</time>
      </trkpt>
      <trkpt lat="43.60012" lon="6.30451">
        <ele>711</ele>
        <time>2023-01-06T14:57:10Z</time>
      </trkpt>
      <trkpt lat="43.60011" lon="6.30452">
        <ele>711</ele>
        <time>2023-01-06T14:57:11Z</time>
      </trkpt>
      <trkpt lat="43.6001" lon="6.30453">
        <ele>711</ele>
        <time>2023-01-06T14:57:12Z</time>
      </trkpt>
      <trkpt lat="43.6001" lon="6.30454">
        <ele>712</ele>
        <time>2023-01-06T14:57:13Z</time>
      </trkpt>
      <trkpt lat="43.60009" lon="6.30454">
        <ele>712</ele>
        <time>2023-01-06T14:57:14Z</time>
      </trkpt>
      <trkpt lat="43.60008" lon="6.30455">
        <ele>712</ele>
        <time>2023-01-06T14:57:15Z</time>
      </trkpt>
      <trkpt lat="43.60007" lon="6.30456">
        <ele>713</ele>
        <time>2023-01-06T14:57:16Z</time>
      </trkpt>
      <trkpt lat="43.60006" lon="6.30456">
        <ele>713</ele>
        <time>2023-01-06T14:57:17Z</time>
      </trkpt>
      <trkpt lat="43.60005" lon="6.30457">
        <ele>713</ele>
        <time>2023-01-06T14:57:18Z</time>
      </trkpt>
      <trkpt lat="43.60004" lon="6.30458">
        <ele>713</ele>
        <time>2023-01-06T14:57:19Z</time>
      </trkpt>
      <trkpt lat="43.60004" lon="6.30458">
        <ele>713</ele>
        <time>2023-01-06T14:57:20Z</time>
      </trkpt>
      <trkpt lat="43.60003" lon="6.30459">
        <ele>713</ele>
        <time>2023-01-06T14:57:21Z</time>
      </trkpt>
      <trkpt lat="43.60002" lon="6.3046">
        <ele>713</ele>
        <time>2023-01-06T14:57:22Z</time>
      </trkpt>
      <trkpt lat="43.60001" lon="6.3046">
        <ele>713</ele>
        <time>2023-01-06T14:57:23Z</time>
      </trkpt>
      <trkpt lat="43.6" lon="6.3046">
        <ele>713</ele>
        <time>2023-01-06T14:57:24Z</time>
      </trkpt>
      <trkpt lat="43.59999" lon="6.30461">
        <ele>713</ele>
        <time>2023-01-06T14:57:25Z</time>
      </trkpt>
      <trkpt lat="43.59999" lon="6.30462">
        <ele>713</ele>
        <time>2023-01-06T14:57:26Z</time>
      </trkpt>
      <trkpt lat="43.59998" lon="6.30462">
        <ele>713</ele>
        <time>2023-01-06T14:57:27Z</time>
      </trkpt>
      <trkpt lat="43.59997" lon="6.30462">
        <ele>713</ele>
        <time>2023-01-06T14:57:28Z</time>
      </trkpt>
      <trkpt lat="43.59996" lon="6.30462">
        <ele>712</ele>
        <time>2023-01-06T14:57:29Z</time>
      </trkpt>
      <trkpt lat="43.59995" lon="6.30462">
        <ele>712</ele>
        <time>2023-01-06T14:57:30Z</time>
      </trkpt>
      <trkpt lat="43.59994" lon="6.30463">
        <ele>712</ele>
        <time>2023-01-06T14:57:31Z</time>
      </trkpt>
      <trkpt lat="43.59993" lon="6.30463">
        <ele>712</ele>
        <time>2023-01-06T14:57:32Z</time>
      </trkpt>
      <trkpt lat="43.59992" lon="6.30463">
        <ele>712</ele>
        <time>2023-01-06T14:57:33Z</time>
      </trkpt>
      <trkpt lat="43.59991" lon="6.30463">
        <ele>712</ele>
        <time>2023-01-06T14:57:34Z</time>
      </trkpt>
      <trkpt lat="43.5999" lon="6.30463">
        <ele>711</ele>
        <time>2023-01-06T14:57:35Z</time>
      </trkpt>
      <trkpt lat="43.5999" lon="6.30463">
        <ele>711</ele>
        <time>2023-01-06T14:57:36Z</time>
      </trkpt>
      <trkpt lat="43.59989" lon="6.30463">
        <ele>711</ele>
        <time>2023-01-06T14:57:37Z</time>
      </trkpt>
      <trkpt lat="43.59988" lon="6.30463">
        <ele>711</ele>
        <time>2023-01-06T14:57:38Z</time>
      </trkpt>
      <trkpt lat="43.59987" lon="6.30463">
        <ele>709</ele>
        <time>2023-01-06T14:57:39Z</time>
      </trkpt>
      <trkpt lat="43.59986" lon="6.30464">
        <ele>708</ele>
        <time>2023-01-06T14:57:40Z</time>
      </trkpt>
      <trkpt lat="43.59985" lon="6.30464">
        <ele>708</ele>
        <time>2023-01-06T14:57:41Z</time>
      </trkpt>
      <trkpt lat="43.59984" lon="6.30465">
        <ele>707</ele>
        <time>2023-01-06T14:57:42Z</time>
      </trkpt>
      <trkpt lat="43.59983" lon="6.30465">
        <ele>707</ele>
        <time>2023-01-06T14:57:43Z</time>
      </trkpt>
      <trkpt lat="43.59982" lon="6.30466">
        <ele>707</ele>
        <time>2023-01-06T14:57:44Z</time>
      </trkpt>
      <trkpt lat="43.59981" lon="6.30466">
        <ele>707</ele>
        <time>2023-01-06T14:57:45Z</time>
      </trkpt>
      <trkpt lat="43.59981" lon="6.30466">
        <ele>707</ele>
        <time>2023-01-06T14:57:46Z</time>
      </trkpt>
      <trkpt lat="43.5998" lon="6.30466">
        <ele>707</ele>
        <time>2023-01-06T14:57:47Z</time>
      </trkpt>
      <trkpt lat="43.59979" lon="6.30467">
        <ele>707</ele>
        <time>2023-01-06T14:57:48Z</time>
      </trkpt>
      <trkpt lat="43.59978" lon="6.30467">
        <ele>706</ele>
        <time>2023-01-06T14:57:49Z</time>
      </trkpt>
      <trkpt lat="43.59977" lon="6.30467">
        <ele>706</ele>
        <time>2023-01-06T14:57:50Z</time>
      </trkpt>
      <trkpt lat="43.59976" lon="6.30468">
        <ele>706</ele>
        <time>2023-01-06T14:57:51Z</time>
      </trkpt>
      <trkpt lat="43.59975" lon="6.30468">
        <ele>706</ele>
        <time>2023-01-06T14:57:52Z</time>
      </trkpt>
      <trkpt lat="43.59974" lon="6.30468">
        <ele>706</ele>
        <time>2023-01-06T14:57:53Z</time>
      </trkpt>
      <trkpt lat="43.59973" lon="6.30468">
        <ele>706</ele>
        <time>2023-01-06T14:57:54Z</time>
      </trkpt>
      <trkpt lat="43.59973" lon="6.30468">
        <ele>705</ele>
        <time>2023-01-06T14:57:55Z</time>
      </trkpt>
      <trkpt lat="43.59972" lon="6.30469">
        <ele>705</ele>
        <time>2023-01-06T14:57:56Z</time>
      </trkpt>
      <trkpt lat="43.59971" lon="6.30469">
        <ele>705</ele>
        <time>2023-01-06T14:57:57Z</time>
      </trkpt>
      <trkpt lat="43.5997" lon="6.3047">
        <ele>705</ele>
        <time>2023-01-06T14:57:58Z</time>
      </trkpt>
      <trkpt lat="43.59969" lon="6.3047">
        <ele>705</ele>
        <time>2023-01-06T14:57:59Z</time>
      </trkpt>
      <trkpt lat="43.59968" lon="6.3047">
        <ele>705</ele>
        <time>2023-01-06T14:58:00Z</time>
      </trkpt>
      <trkpt lat="43.59967" lon="6.3047">
        <ele>704</ele>
        <time>2023-01-06T14:58:01Z</time>
      </trkpt>
      <trkpt lat="43.59966" lon="6.3047">
        <ele>704</ele>
        <time>2023-01-06T14:58:02Z</time>
      </trkpt>
      <trkpt lat="43.59965" lon="6.3047">
        <ele>704</ele>
        <time>2023-01-06T14:58:03Z</time>
      </trkpt>
      <trkpt lat="43.59964" lon="6.3047">
        <ele>704</ele>
        <time>2023-01-06T14:58:04Z</time>
      </trkpt>
      <trkpt lat="43.59963" lon="6.30471">
        <ele>703</ele>
        <time>2023-01-06T14:58:05Z</time>
      </trkpt>
      <trkpt lat="43.59962" lon="6.30471">
        <ele>703</ele>
        <time>2023-01-06T14:58:06Z</time>
      </trkpt>
      <trkpt lat="43.59961" lon="6.30471">
        <ele>703</ele>
        <time>2023-01-06T14:58:07Z</time>
      </trkpt>
      <trkpt lat="43.5996" lon="6.30471">
        <ele>703</ele>
        <time>2023-01-06T14:58:08Z</time>
      </trkpt>
      <trkpt lat="43.59959" lon="6.30472">
        <ele>703</ele>
        <time>2023-01-06T14:58:09Z</time>
      </trkpt>
      <trkpt lat="43.59958" lon="6.30472">
        <ele>703</ele>
        <time>2023-01-06T14:58:10Z</time>
      </trkpt>
      <trkpt lat="43.59957" lon="6.30472">
        <ele>703</ele>
        <time>2023-01-06T14:58:11Z</time>
      </trkpt>
      <trkpt lat="43.59956" lon="6.30472">
        <ele>703</ele>
        <time>2023-01-06T14:58:12Z</time>
      </trkpt>
      <trkpt lat="43.59955" lon="6.30473">
        <ele>702</ele>
        <time>2023-01-06T14:58:13Z</time>
      </trkpt>
      <trkpt lat="43.59954" lon="6.30473">
        <ele>702</ele>
        <time>2023-01-06T14:58:14Z</time>
      </trkpt>
      <trkpt lat="43.59952" lon="6.30473">
        <ele>702</ele>
        <time>2023-01-06T14:58:15Z</time>
      </trkpt>
      <trkpt lat="43.59951" lon="6.30474">
        <ele>702</ele>
        <time>2023-01-06T14:58:16Z</time>
      </trkpt>
      <trkpt lat="43.5995" lon="6.30474">
        <ele>701</ele>
        <time>2023-01-06T14:58:17Z</time>
      </trkpt>
      <trkpt lat="43.59949" lon="6.30475">
        <ele>701</ele>
        <time>2023-01-06T14:58:18Z</time>
      </trkpt>
      <trkpt lat="43.59948" lon="6.30476">
        <ele>701</ele>
        <time>2023-01-06T14:58:19Z</time>
      </trkpt>
      <trkpt lat="43.59947" lon="6.30476">
        <ele>701</ele>
        <time>2023-01-06T14:58:20Z</time>
      </trkpt>
      <trkpt lat="43.59946" lon="6.30476">
        <ele>701</ele>
        <time>2023-01-06T14:58:21Z</time>
      </trkpt>
      <trkpt lat="43.59945" lon="6.30476">
        <ele>701</ele>
        <time>2023-01-06T14:58:22Z</time>
      </trkpt>
      <trkpt lat="43.59944" lon="6.30477">
        <ele>701</ele>
        <time>2023-01-06T14:58:23Z</time>
      </trkpt>
      <trkpt lat="43.59943" lon="6.30477">
        <ele>701</ele>
        <time>2023-01-06T14:58:24Z</time>
      </trkpt>
      <trkpt lat="43.59942" lon="6.30477">
        <ele>701</ele>
        <time>2023-01-06T14:58:25Z</time>
      </trkpt>
      <trkpt lat="43.59941" lon="6.30477">
        <ele>701</ele>
        <time>2023-01-06T14:58:26Z</time>
      </trkpt>
      <trkpt lat="43.5994" lon="6.30478">
        <ele>701</ele>
        <time>2023-01-06T14:58:27Z</time>
      </trkpt>
      <trkpt lat="43.59939" lon="6.30478">
        <ele>701</ele>
        <time>2023-01-06T14:58:28Z</time>
      </trkpt>
      <trkpt lat="43.59937" lon="6.30478">
        <ele>701</ele>
        <time>2023-01-06T14:58:29Z</time>
      </trkpt>
      <trkpt lat="43.59936" lon="6.30478">
        <ele>701</ele>
        <time>2023-01-06T14:58:30Z</time>
      </trkpt>
      <trkpt lat="43.59935" lon="6.30478">
        <ele>701</ele>
        <time>2023-01-06T14:58:31Z</time>
      </trkpt>
      <trkpt lat="43.59934" lon="6.30478">
        <ele>701</ele>
        <time>2023-01-06T14:58:32Z</time>
      </trkpt>
      <trkpt lat="43.59933" lon="6.30478">
        <ele>701</ele>
        <time>2023-01-06T14:58:33Z</time>
      </trkpt>
      <trkpt lat="43.59932" lon="6.30479">
        <ele>701</ele>
        <time>2023-01-06T14:58:34Z</time>
      </trkpt>
      <trkpt lat="43.59931" lon="6.30479">
        <ele>701</ele>
        <time>2023-01-06T14:58:35Z</time>
      </trkpt>
      <trkpt lat="43.5993" lon="6.30479">
        <ele>701</ele>
        <time>2023-01-06T14:58:36Z</time>
      </trkpt>
      <trkpt lat="43.59929" lon="6.30479">
        <ele>701</ele>
        <time>2023-01-06T14:58:37Z</time>
      </trkpt>
      <trkpt lat="43.59928" lon="6.30479">
        <ele>702</ele>
        <time>2023-01-06T14:58:38Z</time>
      </trkpt>
      <trkpt lat="43.59927" lon="6.30479">
        <ele>702</ele>
        <time>2023-01-06T14:58:39Z</time>
      </trkpt>
      <trkpt lat="43.59926" lon="6.3048">
        <ele>702</ele>
        <time>2023-01-06T14:58:40Z</time>
      </trkpt>
      <trkpt lat="43.59925" lon="6.3048">
        <ele>702</ele>
        <time>2023-01-06T14:58:41Z</time>
      </trkpt>
      <trkpt lat="43.59923" lon="6.3048">
        <ele>702</ele>
        <time>2023-01-06T14:58:42Z</time>
      </trkpt>
      <trkpt lat="43.59922" lon="6.3048">
        <ele>702</ele>
        <time>2023-01-06T14:58:43Z</time>
      </trkpt>
      <trkpt lat="43.59921" lon="6.3048">
        <ele>702</ele>
        <time>2023-01-06T14:58:44Z</time>
      </trkpt>
      <trkpt lat="43.5992" lon="6.30479">
        <ele>702</ele>
        <time>2023-01-06T14:58:45Z</time>
      </trkpt>
      <trkpt lat="43.59919" lon="6.30479">
        <ele>702</ele>
        <time>2023-01-06T14:58:46Z</time>
      </trkpt>
      <trkpt lat="43.59918" lon="6.30479">
        <ele>702</ele>
        <time>2023-01-06T14:58:47Z</time>
      </trkpt>
      <trkpt lat="43.59917" lon="6.30479">
        <ele>702</ele>
        <time>2023-01-06T14:58:48Z</time>
      </trkpt>
      <trkpt lat="43.59916" lon="6.30479">
        <ele>702</ele>
        <time>2023-01-06T14:58:49Z</time>
      </trkpt>
      <trkpt lat="43.59915" lon="6.30478">
        <ele>702</ele>
        <time>2023-01-06T14:58:50Z</time>
      </trkpt>
      <trkpt lat="43.59914" lon="6.30478">
        <ele>702</ele>
        <time>2023-01-06T14:58:51Z</time>
      </trkpt>
      <trkpt lat="43.59913" lon="6.30478">
        <ele>702</ele>
        <time>2023-01-06T14:58:52Z</time>
      </trkpt>
      <trkpt lat="43.59912" lon="6.30478">
        <ele>702</ele>
        <time>2023-01-06T14:58:53Z</time>
      </trkpt>
      <trkpt lat="43.59911" lon="6.30479">
        <ele>702</ele>
        <time>2023-01-06T14:58:54Z</time>
      </trkpt>
      <trkpt lat="43.5991" lon="6.30479">
        <ele>702</ele>
        <time>2023-01-06T14:58:55Z</time>
      </trkpt>
      <trkpt lat="43.59909" lon="6.30479">
        <ele>703</ele>
        <time>2023-01-06T14:58:56Z</time>
      </trkpt>
      <trkpt lat="43.59908" lon="6.30479">
        <ele>703</ele>
        <time>2023-01-06T14:58:57Z</time>
      </trkpt>
      <trkpt lat="43.59907" lon="6.30479">
        <ele>703</ele>
        <time>2023-01-06T14:58:58Z</time>
      </trkpt>
      <trkpt lat="43.59906" lon="6.30479">
        <ele>703</ele>
        <time>2023-01-06T14:58:59Z</time>
      </trkpt>
      <trkpt lat="43.59905" lon="6.30479">
        <ele>703</ele>
        <time>2023-01-06T14:59:00Z</time>
      </trkpt>
      <trkpt lat="43.59904" lon="6.30479">
        <ele>703</ele>
        <time>2023-01-06T14:59:01Z</time>
      </trkpt>
      <trkpt lat="43.59903" lon="6.30479">
        <ele>703</ele>
        <time>2023-01-06T14:59:02Z</time>
      </trkpt>
      <trkpt lat="43.59902" lon="6.30479">
        <ele>703</ele>
        <time>2023-01-06T14:59:03Z</time>
      </trkpt>
      <trkpt lat="43.599" lon="6.30479">
        <ele>703</ele>
        <time>2023-01-06T14:59:04Z</time>
      </trkpt>
      <trkpt lat="43.59899" lon="6.30479">
        <ele>703</ele>
        <time>2023-01-06T14:59:05Z</time>
      </trkpt>
      <trkpt lat="43.59898" lon="6.30478">
        <ele>703</ele>
        <time>2023-01-06T14:59:06Z</time>
      </trkpt>
      <trkpt lat="43.59897" lon="6.30478">
        <ele>703</ele>
        <time>2023-01-06T14:59:07Z</time>
      </trkpt>
      <trkpt lat="43.59896" lon="6.30478">
        <ele>703</ele>
        <time>2023-01-06T14:59:08Z</time>
      </trkpt>
      <trkpt lat="43.59895" lon="6.30478">
        <ele>703</ele>
        <time>2023-01-06T14:59:09Z</time>
      </trkpt>
      <trkpt lat="43.59894" lon="6.30478">
        <ele>703</ele>
        <time>2023-01-06T14:59:10Z</time>
      </trkpt>
      <trkpt lat="43.59893" lon="6.30478">
        <ele>703</ele>
        <time>2023-01-06T14:59:11Z</time>
      </trkpt>
      <trkpt lat="43.59892" lon="6.30478">
        <ele>703</ele>
        <time>2023-01-06T14:59:12Z</time>
      </trkpt>
      <trkpt lat="43.59891" lon="6.30478">
        <ele>703</ele>
        <time>2023-01-06T14:59:13Z</time>
      </trkpt>
      <trkpt lat="43.5989" lon="6.30478">
        <ele>703</ele>
        <time>2023-01-06T14:59:14Z</time>
      </trkpt>
      <trkpt lat="43.59889" lon="6.30478">
        <ele>703</ele>
        <time>2023-01-06T14:59:15Z</time>
      </trkpt>
      <trkpt lat="43.59888" lon="6.30478">
        <ele>703</ele>
        <time>2023-01-06T14:59:16Z</time>
      </trkpt>
      <trkpt lat="43.59887" lon="6.30478">
        <ele>703</ele>
        <time>2023-01-06T14:59:17Z</time>
      </trkpt>
      <trkpt lat="43.59887" lon="6.30479">
        <ele>703</ele>
        <time>2023-01-06T14:59:18Z</time>
      </trkpt>
      <trkpt lat="43.59886" lon="6.30479">
        <ele>703</ele>
        <time>2023-01-06T14:59:19Z</time>
      </trkpt>
      <trkpt lat="43.59885" lon="6.30478">
        <ele>703</ele>
        <time>2023-01-06T14:59:20Z</time>
      </trkpt>
      <trkpt lat="43.59885" lon="6.30478">
        <ele>703</ele>
        <time>2023-01-06T14:59:21Z</time>
      </trkpt>
      <trkpt lat="43.59884" lon="6.30479">
        <ele>703</ele>
        <time>2023-01-06T14:59:22Z</time>
      </trkpt>
      <trkpt lat="43.59883" lon="6.30479">
        <ele>703</ele>
        <time>2023-01-06T14:59:23Z</time>
      </trkpt>
      <trkpt lat="43.59882" lon="6.30479">
        <ele>703</ele>
        <time>2023-01-06T14:59:24Z</time>
      </trkpt>
      <trkpt lat="43.59882" lon="6.30479">
        <ele>703</ele>
        <time>2023-01-06T14:59:25Z</time>
      </trkpt>
      <trkpt lat="43.59881" lon="6.3048">
        <ele>703</ele>
        <time>2023-01-06T14:59:26Z</time>
      </trkpt>
      <trkpt lat="43.5988" lon="6.3048">
        <ele>703</ele>
        <time>2023-01-06T14:59:27Z</time>
      </trkpt>
      <trkpt lat="43.59879" lon="6.30481">
        <ele>703</ele>
        <time>2023-01-06T14:59:28Z</time>
      </trkpt>
      <trkpt lat="43.59878" lon="6.3048">
        <ele>703</ele>
        <time>2023-01-06T14:59:29Z</time>
      </trkpt>
      <trkpt lat="43.59877" lon="6.30481">
        <ele>703</ele>
        <time>2023-01-06T14:59:30Z</time>
      </trkpt>
      <trkpt lat="43.59876" lon="6.30481">
        <ele>703</ele>
        <time>2023-01-06T14:59:31Z</time>
      </trkpt>
      <trkpt lat="43.59875" lon="6.30481">
        <ele>703</ele>
        <time>2023-01-06T14:59:32Z</time>
      </trkpt>
      <trkpt lat="43.59874" lon="6.30481">
        <ele>702</ele>
        <time>2023-01-06T14:59:33Z</time>
      </trkpt>
      <trkpt lat="43.59874" lon="6.30481">
        <ele>702</ele>
        <time>2023-01-06T14:59:34Z</time>
      </trkpt>
      <trkpt lat="43.59873" lon="6.3048">
        <ele>702</ele>
        <time>2023-01-06T14:59:35Z</time>
      </trkpt>
      <trkpt lat="43.59872" lon="6.3048">
        <ele>702</ele>
        <time>2023-01-06T14:59:36Z</time>
      </trkpt>
      <trkpt lat="43.59871" lon="6.3048">
        <ele>702</ele>
        <time>2023-01-06T14:59:37Z</time>
      </trkpt>
      <trkpt lat="43.5987" lon="6.3048">
        <ele>702</ele>
        <time>2023-01-06T14:59:38Z</time>
      </trkpt>
      <trkpt lat="43.59869" lon="6.3048">
        <ele>702</ele>
        <time>2023-01-06T14:59:39Z</time>
      </trkpt>
      <trkpt lat="43.59868" lon="6.3048">
        <ele>702</ele>
        <time>2023-01-06T14:59:40Z</time>
      </trkpt>
      <trkpt lat="43.59867" lon="6.3048">
        <ele>702</ele>
        <time>2023-01-06T14:59:41Z</time>
      </trkpt>
      <trkpt lat="43.59867" lon="6.3048">
        <ele>701</ele>
        <time>2023-01-06T14:59:42Z</time>
      </trkpt>
      <trkpt lat="43.59866" lon="6.3048">
        <ele>701</ele>
        <time>2023-01-06T14:59:43Z</time>
      </trkpt>
      <trkpt lat="43.59865" lon="6.3048">
        <ele>701</ele>
        <time>2023-01-06T14:59:44Z</time>
      </trkpt>
      <trkpt lat="43.59864" lon="6.30481">
        <ele>700</ele>
        <time>2023-01-06T14:59:45Z</time>
      </trkpt>
      <trkpt lat="43.59863" lon="6.30481">
        <ele>700</ele>
        <time>2023-01-06T14:59:46Z</time>
      </trkpt>
      <trkpt lat="43.59863" lon="6.30481">
        <ele>700</ele>
        <time>2023-01-06T14:59:47Z</time>
      </trkpt>
      <trkpt lat="43.59862" lon="6.30481">
        <ele>700</ele>
        <time>2023-01-06T14:59:48Z</time>
      </trkpt>
      <trkpt lat="43.59861" lon="6.30482">
        <ele>700</ele>
        <time>2023-01-06T14:59:49Z</time>
      </trkpt>
      <trkpt lat="43.5986" lon="6.30482">
        <ele>700</ele>
        <time>2023-01-06T14:59:50Z</time>
      </trkpt>
      <trkpt lat="43.59859" lon="6.30482">
        <ele>700</ele>
        <time>2023-01-06T14:59:51Z</time>
      </trkpt>
      <trkpt lat="43.59858" lon="6.30482">
        <ele>699</ele>
        <time>2023-01-06T14:59:52Z</time>
      </trkpt>
      <trkpt lat="43.59857" lon="6.30482">
        <ele>699</ele>
        <time>2023-01-06T14:59:53Z</time>
      </trkpt>
      <trkpt lat="43.59856" lon="6.30482">
        <ele>699</ele>
        <time>2023-01-06T14:59:54Z</time>
      </trkpt>
      <trkpt lat="43.59855" lon="6.30482">
        <ele>699</ele>
        <time>2023-01-06T14:59:55Z</time>
      </trkpt>
      <trkpt lat="43.59854" lon="6.30483">
        <ele>699</ele>
        <time>2023-01-06T14:59:56Z</time>
      </trkpt>
      <trkpt lat="43.59853" lon="6.30483">
        <ele>699</ele>
        <time>2023-01-06T14:59:57Z</time>
      </trkpt>
      <trkpt lat="43.59852" lon="6.30484">
        <ele>699</ele>
        <time>2023-01-06T14:59:58Z</time>
      </trkpt>
      <trkpt lat="43.59851" lon="6.30484">
        <ele>699</ele>
        <time>2023-01-06T14:59:59Z</time>
      </trkpt>
      <trkpt lat="43.5985" lon="6.30485">
        <ele>700</ele>
        <time>2023-01-06T15:00:00Z</time>
      </trkpt>
      <trkpt lat="43.59849" lon="6.30485">
        <ele>701</ele>
        <time>2023-01-06T15:00:01Z</time>
      </trkpt>
      <trkpt lat="43.59849" lon="6.30485">
        <ele>701</ele>
        <time>2023-01-06T15:00:02Z</time>
      </trkpt>
      <trkpt lat="43.59848" lon="6.30485">
        <ele>701</ele>
        <time>2023-01-06T15:00:03Z</time>
      </trkpt>
      <trkpt lat="43.59847" lon="6.30486">
        <ele>701</ele>
        <time>2023-01-06T15:00:04Z</time>
      </trkpt>
      <trkpt lat="43.59846" lon="6.30486">
        <ele>701</ele>
        <time>2023-01-06T15:00:05Z</time>
      </trkpt>
      <trkpt lat="43.59846" lon="6.30487">
        <ele>701</ele>
        <time>2023-01-06T15:00:06Z</time>
      </trkpt>
      <trkpt lat="43.59845" lon="6.30487">
        <ele>701</ele>
        <time>2023-01-06T15:00:07Z</time>
      </trkpt>
      <trkpt lat="43.59844" lon="6.30488">
        <ele>701</ele>
        <time>2023-01-06T15:00:08Z</time>
      </trkpt>
      <trkpt lat="43.59843" lon="6.30488">
        <ele>701</ele>
        <time>2023-01-06T15:00:09Z</time>
      </trkpt>
      <trkpt lat="43.59842" lon="6.30489">
        <ele>701</ele>
        <time>2023-01-06T15:00:10Z</time>
      </trkpt>
      <trkpt lat="43.59842" lon="6.30489">
        <ele>701</ele>
        <time>2023-01-06T15:00:11Z</time>
      </trkpt>
      <trkpt lat="43.59841" lon="6.30489">
        <ele>701</ele>
        <time>2023-01-06T15:00:12Z</time>
      </trkpt>
      <trkpt lat="43.5984" lon="6.30489">
        <ele>701</ele>
        <time>2023-01-06T15:00:13Z</time>
      </trkpt>
      <trkpt lat="43.59839" lon="6.3049">
        <ele>700</ele>
        <time>2023-01-06T15:00:14Z</time>
      </trkpt>
      <trkpt lat="43.59838" lon="6.30491">
        <ele>700</ele>
        <time>2023-01-06T15:00:15Z</time>
      </trkpt>
      <trkpt lat="43.59837" lon="6.30492">
        <ele>699</ele>
        <time>2023-01-06T15:00:16Z</time>
      </trkpt>
      <trkpt lat="43.59837" lon="6.30493">
        <ele>699</ele>
        <time>2023-01-06T15:00:17Z</time>
      </trkpt>
      <trkpt lat="43.59836" lon="6.30494">
        <ele>699</ele>
        <time>2023-01-06T15:00:18Z</time>
      </trkpt>
      <trkpt lat="43.59835" lon="6.30494">
        <ele>699</ele>
        <time>2023-01-06T15:00:19Z</time>
      </trkpt>
      <trkpt lat="43.59834" lon="6.30494">
        <ele>699</ele>
        <time>2023-01-06T15:00:20Z</time>
      </trkpt>
      <trkpt lat="43.59832" lon="6.30494">
        <ele>699</ele>
        <time>2023-01-06T15:00:21Z</time>
      </trkpt>
      <trkpt lat="43.59831" lon="6.30494">
        <ele>699</ele>
        <time>2023-01-06T15:00:22Z</time>
      </trkpt>
      <trkpt lat="43.5983" lon="6.30495">
        <ele>699</ele>
        <time>2023-01-06T15:00:23Z</time>
      </trkpt>
      <trkpt lat="43.59829" lon="6.30495">
        <ele>699</ele>
        <time>2023-01-06T15:00:24Z</time>
      </trkpt>
      <trkpt lat="43.59828" lon="6.30496">
        <ele>699</ele>
        <time>2023-01-06T15:00:25Z</time>
      </trkpt>
      <trkpt lat="43.59827" lon="6.30496">
        <ele>699</ele>
        <time>2023-01-06T15:00:26Z</time>
      </trkpt>
      <trkpt lat="43.59826" lon="6.30497">
        <ele>698</ele>
        <time>2023-01-06T15:00:27Z</time>
      </trkpt>
      <trkpt lat="43.59825" lon="6.30497">
        <ele>698</ele>
        <time>2023-01-06T15:00:28Z</time>
      </trkpt>
      <trkpt lat="43.59824" lon="6.30498">
        <ele>698</ele>
        <time>2023-01-06T15:00:29Z</time>
      </trkpt>
      <trkpt lat="43.59823" lon="6.30499">
        <ele>698</ele>
        <time>2023-01-06T15:00:30Z</time>
      </trkpt>
      <trkpt lat="43.59822" lon="6.30499">
        <ele>698</ele>
        <time>2023-01-06T15:00:31Z</time>
      </trkpt>
      <trkpt lat="43.59821" lon="6.305">
        <ele>698</ele>
        <time>2023-01-06T15:00:32Z</time>
      </trkpt>
      <trkpt lat="43.5982" lon="6.305">
        <ele>698</ele>
        <time>2023-01-06T15:00:33Z</time>
      </trkpt>
      <trkpt lat="43.59819" lon="6.305">
        <ele>697</ele>
        <time>2023-01-06T15:00:34Z</time>
      </trkpt>
      <trkpt lat="43.59818" lon="6.30501">
        <ele>697</ele>
        <time>2023-01-06T15:00:35Z</time>
      </trkpt>
      <trkpt lat="43.59817" lon="6.30501">
        <ele>697</ele>
        <time>2023-01-06T15:00:36Z</time>
      </trkpt>
      <trkpt lat="43.59816" lon="6.30502">
        <ele>697</ele>
        <time>2023-01-06T15:00:37Z</time>
      </trkpt>
      <trkpt lat="43.59815" lon="6.30502">
        <ele>697</ele>
        <time>2023-01-06T15:00:38Z</time>
      </trkpt>
      <trkpt lat="43.59814" lon="6.30503">
        <ele>697</ele>
        <time>2023-01-06T15:00:39Z</time>
      </trkpt>
      <trkpt lat="43.59813" lon="6.30503">
        <ele>697</ele>
        <time>2023-01-06T15:00:40Z</time>
      </trkpt>
      <trkpt lat="43.59812" lon="6.30503">
        <ele>696</ele>
        <time>2023-01-06T15:00:41Z</time>
      </trkpt>
      <trkpt lat="43.59811" lon="6.30503">
        <ele>696</ele>
        <time>2023-01-06T15:00:42Z</time>
      </trkpt>
      <trkpt lat="43.5981" lon="6.30503">
        <ele>696</ele>
        <time>2023-01-06T15:00:43Z</time>
      </trkpt>
      <trkpt lat="43.59809" lon="6.30504">
        <ele>696</ele>
        <time>2023-01-06T15:00:44Z</time>
      </trkpt>
      <trkpt lat="43.59808" lon="6.30504">
        <ele>696</ele>
        <time>2023-01-06T15:00:45Z</time>
      </trkpt>
      <trkpt lat="43.59807" lon="6.30505">
        <ele>696</ele>
        <time>2023-01-06T15:00:46Z</time>
      </trkpt>
      <trkpt lat="43.59806" lon="6.30505">
        <ele>696</ele>
        <time>2023-01-06T15:00:47Z</time>
      </trkpt>
      <trkpt lat="43.59805" lon="6.30506">
        <ele>696</ele>
        <time>2023-01-06T15:00:48Z</time>
      </trkpt>
      <trkpt lat="43.59804" lon="6.30506">
        <ele>695</ele>
        <time>2023-01-06T15:00:49Z</time>
      </trkpt>
      <trkpt lat="43.59804" lon="6.30507">
        <ele>695</ele>
        <time>2023-01-06T15:00:50Z</time>
      </trkpt>
      <trkpt lat="43.59803" lon="6.30507">
        <ele>695</ele>
        <time>2023-01-06T15:00:51Z</time>
      </trkpt>
      <trkpt lat="43.59802" lon="6.30507">
        <ele>695</ele>
        <time>2023-01-06T15:00:52Z</time>
      </trkpt>
      <trkpt lat="43.59801" lon="6.30508">
        <ele>695</ele>
        <time>2023-01-06T15:00:53Z</time>
      </trkpt>
      <trkpt lat="43.598" lon="6.30508">
        <ele>694</ele>
        <time>2023-01-06T15:00:54Z</time>
      </trkpt>
      <trkpt lat="43.598" lon="6.30509">
        <ele>694</ele>
        <time>2023-01-06T15:00:55Z</time>
      </trkpt>
      <trkpt lat="43.59799" lon="6.30509">
        <ele>694</ele>
        <time>2023-01-06T15:00:56Z</time>
      </trkpt>
      <trkpt lat="43.59798" lon="6.3051">
        <ele>694</ele>
        <time>2023-01-06T15:00:57Z</time>
      </trkpt>
      <trkpt lat="43.59797" lon="6.3051">
        <ele>694</ele>
        <time>2023-01-06T15:00:58Z</time>
      </trkpt>
      <trkpt lat="43.59796" lon="6.3051">
        <ele>694</ele>
        <time>2023-01-06T15:00:59Z</time>
      </trkpt>
      <trkpt lat="43.59795" lon="6.30511">
        <ele>694</ele>
        <time>2023-01-06T15:01:00Z</time>
      </trkpt>
      <trkpt lat="43.59794" lon="6.30511">
        <ele>694</ele>
        <time>2023-01-06T15:01:01Z</time>
      </trkpt>
      <trkpt lat="43.59793" lon="6.30511">
        <ele>694</ele>
        <time>2023-01-06T15:01:02Z</time>
      </trkpt>
      <trkpt lat="43.59792" lon="6.30511">
        <ele>694</ele>
        <time>2023-01-06T15:01:03Z</time>
      </trkpt>
      <trkpt lat="43.59791" lon="6.30511">
        <ele>695</ele>
        <time>2023-01-06T15:01:04Z</time>
      </trkpt>
      <trkpt lat="43.5979" lon="6.30512">
        <ele>695</ele>
        <time>2023-01-06T15:01:05Z</time>
      </trkpt>
      <trkpt lat="43.59789" lon="6.30512">
        <ele>695</ele>
        <time>2023-01-06T15:01:06Z</time>
      </trkpt>
      <trkpt lat="43.59788" lon="6.30512">
        <ele>695</ele>
        <time>2023-01-06T15:01:07Z</time>
      </trkpt>
      <trkpt lat="43.59787" lon="6.30512">
        <ele>695</ele>
        <time>2023-01-06T15:01:08Z</time>
      </trkpt>
      <trkpt lat="43.59786" lon="6.30513">
        <ele>695</ele>
        <time>2023-01-06T15:01:09Z</time>
      </trkpt>
      <trkpt lat="43.59785" lon="6.30513">
        <ele>695</ele>
        <time>2023-01-06T15:01:10Z</time>
      </trkpt>
      <trkpt lat="43.59784" lon="6.30514">
        <ele>695</ele>
        <time>2023-01-06T15:01:11Z</time>
      </trkpt>
      <trkpt lat="43.59783" lon="6.30515">
        <ele>695</ele>
        <time>2023-01-06T15:01:12Z</time>
      </trkpt>
      <trkpt lat="43.59783" lon="6.30515">
        <ele>695</ele>
        <time>2023-01-06T15:01:13Z</time>
      </trkpt>
      <trkpt lat="43.59782" lon="6.30516">
        <ele>696</ele>
        <time>2023-01-06T15:01:14Z</time>
      </trkpt>
      <trkpt lat="43.5978" lon="6.30516">
        <ele>696</ele>
        <time>2023-01-06T15:01:15Z</time>
      </trkpt>
      <trkpt lat="43.59779" lon="6.30516">
        <ele>696</ele>
        <time>2023-01-06T15:01:16Z</time>
      </trkpt>
      <trkpt lat="43.59778" lon="6.30517">
        <ele>696</ele>
        <time>2023-01-06T15:01:17Z</time>
      </trkpt>
      <trkpt lat="43.59777" lon="6.30517">
        <ele>696</ele>
        <time>2023-01-06T15:01:18Z</time>
      </trkpt>
      <trkpt lat="43.59776" lon="6.30517">
        <ele>696</ele>
        <time>2023-01-06T15:01:19Z</time>
      </trkpt>
      <trkpt lat="43.59775" lon="6.30517">
        <ele>696</ele>
        <time>2023-01-06T15:01:20Z</time>
      </trkpt>
      <trkpt lat="43.59774" lon="6.30517">
        <ele>696</ele>
        <time>2023-01-06T15:01:21Z</time>
      </trkpt>
      <trkpt lat="43.59773" lon="6.30517">
        <ele>696</ele>
        <time>2023-01-06T15:01:22Z</time>
      </trkpt>
      <trkpt lat="43.59772" lon="6.30517">
        <ele>696</ele>
        <time>2023-01-06T15:01:23Z</time>
      </trkpt>
      <trkpt lat="43.59771" lon="6.30518">
        <ele>696</ele>
        <time>2023-01-06T15:01:24Z</time>
      </trkpt>
      <trkpt lat="43.5977" lon="6.30518">
        <ele>696</ele>
        <time>2023-01-06T15:01:25Z</time>
      </trkpt>
      <trkpt lat="43.59769" lon="6.30518">
        <ele>696</ele>
        <time>2023-01-06T15:01:26Z</time>
      </trkpt>
      <trkpt lat="43.59768" lon="6.30519">
        <ele>695</ele>
        <time>2023-01-06T15:01:27Z</time>
      </trkpt>
      <trkpt lat="43.59767" lon="6.30519">
        <ele>695</ele>
        <time>2023-01-06T15:01:28Z</time>
      </trkpt>
      <trkpt lat="43.59766" lon="6.30519">
        <ele>695</ele>
        <time>2023-01-06T15:01:29Z</time>
      </trkpt>
      <trkpt lat="43.59765" lon="6.30519">
        <ele>695</ele>
        <time>2023-01-06T15:01:30Z</time>
      </trkpt>
      <trkpt lat="43.59764" lon="6.30519">
        <ele>695</ele>
        <time>2023-01-06T15:01:31Z</time>
      </trkpt>
      <trkpt lat="43.59763" lon="6.3052">
        <ele>695</ele>
        <time>2023-01-06T15:01:32Z</time>
      </trkpt>
      <trkpt lat="43.59762" lon="6.3052">
        <ele>695</ele>
        <time>2023-01-06T15:01:33Z</time>
      </trkpt>
      <trkpt lat="43.59761" lon="6.30521">
        <ele>695</ele>
        <time>2023-01-06T15:01:34Z</time>
      </trkpt>
      <trkpt lat="43.5976" lon="6.30521">
        <ele>695</ele>
        <time>2023-01-06T15:01:35Z</time>
      </trkpt>
      <trkpt lat="43.59759" lon="6.30521">
        <ele>695</ele>
        <time>2023-01-06T15:01:36Z</time>
      </trkpt>
      <trkpt lat="43.59758" lon="6.30521">
        <ele>695</ele>
        <time>2023-01-06T15:01:37Z</time>
      </trkpt>
      <trkpt lat="43.59757" lon="6.30521">
        <ele>695</ele>
        <time>2023-01-06T15:01:38Z</time>
      </trkpt>
      <trkpt lat="43.59756" lon="6.30521">
        <ele>695</ele>
        <time>2023-01-06T15:01:39Z</time>
      </trkpt>
      <trkpt lat="43.59755" lon="6.30521">
        <ele>695</ele>
        <time>2023-01-06T15:01:40Z</time>
      </trkpt>
      <trkpt lat="43.59754" lon="6.30521">
        <ele>694</ele>
        <time>2023-01-06T15:01:41Z</time>
      </trkpt>
      <trkpt lat="43.59753" lon="6.30522">
        <ele>694</ele>
        <time>2023-01-06T15:01:42Z</time>
      </trkpt>
      <trkpt lat="43.59752" lon="6.30522">
        <ele>694</ele>
        <time>2023-01-06T15:01:43Z</time>
      </trkpt>
      <trkpt lat="43.59751" lon="6.30523">
        <ele>694</ele>
        <time>2023-01-06T15:01:44Z</time>
      </trkpt>
      <trkpt lat="43.59751" lon="6.30523">
        <ele>694</ele>
        <time>2023-01-06T15:01:45Z</time>
      </trkpt>
      <trkpt lat="43.59749" lon="6.30523">
        <ele>693</ele>
        <time>2023-01-06T15:01:46Z</time>
      </trkpt>
      <trkpt lat="43.59748" lon="6.30523">
        <ele>693</ele>
        <time>2023-01-06T15:01:47Z</time>
      </trkpt>
      <trkpt lat="43.59747" lon="6.30523">
        <ele>693</ele>
        <time>2023-01-06T15:01:48Z</time>
      </trkpt>
      <trkpt lat="43.59746" lon="6.30524">
        <ele>693</ele>
        <time>2023-01-06T15:01:49Z</time>
      </trkpt>
      <trkpt lat="43.59745" lon="6.30524">
        <ele>693</ele>
        <time>2023-01-06T15:01:50Z</time>
      </trkpt>
      <trkpt lat="43.59744" lon="6.30525">
        <ele>692</ele>
        <time>2023-01-06T15:01:51Z</time>
      </trkpt>
      <trkpt lat="43.59742" lon="6.30525">
        <ele>691</ele>
        <time>2023-01-06T15:01:52Z</time>
      </trkpt>
      <trkpt lat="43.59741" lon="6.30526">
        <ele>691</ele>
        <time>2023-01-06T15:01:53Z</time>
      </trkpt>
      <trkpt lat="43.5974" lon="6.30526">
        <ele>691</ele>
        <time>2023-01-06T15:01:54Z</time>
      </trkpt>
      <trkpt lat="43.59739" lon="6.30526">
        <ele>691</ele>
        <time>2023-01-06T15:01:55Z</time>
      </trkpt>
      <trkpt lat="43.59738" lon="6.30527">
        <ele>691</ele>
        <time>2023-01-06T15:01:56Z</time>
      </trkpt>
      <trkpt lat="43.59737" lon="6.30527">
        <ele>691</ele>
        <time>2023-01-06T15:01:57Z</time>
      </trkpt>
      <trkpt lat="43.59735" lon="6.30528">
        <ele>691</ele>
        <time>2023-01-06T15:01:58Z</time>
      </trkpt>
      <trkpt lat="43.59734" lon="6.30528">
        <ele>691</ele>
        <time>2023-01-06T15:01:59Z</time>
      </trkpt>
      <trkpt lat="43.59733" lon="6.30528">
        <ele>691</ele>
        <time>2023-01-06T15:02:00Z</time>
      </trkpt>
      <trkpt lat="43.59732" lon="6.30528">
        <ele>691</ele>
        <time>2023-01-06T15:02:01Z</time>
      </trkpt>
      <trkpt lat="43.59731" lon="6.30528">
        <ele>691</ele>
        <time>2023-01-06T15:02:02Z</time>
      </trkpt>
      <trkpt lat="43.5973" lon="6.30529">
        <ele>691</ele>
        <time>2023-01-06T15:02:03Z</time>
      </trkpt>
      <trkpt lat="43.59729" lon="6.30529">
        <ele>691</ele>
        <time>2023-01-06T15:02:04Z</time>
      </trkpt>
      <trkpt lat="43.59728" lon="6.30529">
        <ele>691</ele>
        <time>2023-01-06T15:02:05Z</time>
      </trkpt>
      <trkpt lat="43.59727" lon="6.3053">
        <ele>691</ele>
        <time>2023-01-06T15:02:06Z</time>
      </trkpt>
      <trkpt lat="43.59726" lon="6.3053">
        <ele>691</ele>
        <time>2023-01-06T15:02:07Z</time>
      </trkpt>
      <trkpt lat="43.59725" lon="6.30531">
        <ele>691</ele>
        <time>2023-01-06T15:02:08Z</time>
      </trkpt>
      <trkpt lat="43.59724" lon="6.30531">
        <ele>691</ele>
        <time>2023-01-06T15:02:09Z</time>
      </trkpt>
      <trkpt lat="43.59723" lon="6.30532">
        <ele>691</ele>
        <time>2023-01-06T15:02:10Z</time>
      </trkpt>
      <trkpt lat="43.59722" lon="6.30532">
        <ele>691</ele>
        <time>2023-01-06T15:02:11Z</time>
      </trkpt>
      <trkpt lat="43.59721" lon="6.30532">
        <ele>691</ele>
        <time>2023-01-06T15:02:12Z</time>
      </trkpt>
      <trkpt lat="43.5972" lon="6.30532">
        <ele>691</ele>
        <time>2023-01-06T15:02:13Z</time>
      </trkpt>
      <trkpt lat="43.59719" lon="6.30532">
        <ele>691</ele>
        <time>2023-01-06T15:02:14Z</time>
      </trkpt>
      <trkpt lat="43.59717" lon="6.30532">
        <ele>691</ele>
        <time>2023-01-06T15:02:15Z</time>
      </trkpt>
      <trkpt lat="43.59716" lon="6.30532">
        <ele>691</ele>
        <time>2023-01-06T15:02:16Z</time>
      </trkpt>
      <trkpt lat="43.59715" lon="6.30532">
        <ele>691</ele>
        <time>2023-01-06T15:02:17Z</time>
      </trkpt>
      <trkpt lat="43.59714" lon="6.30532">
        <ele>691</ele>
        <time>2023-01-06T15:02:18Z</time>
      </trkpt>
      <trkpt lat="43.59713" lon="6.30533">
        <ele>691</ele>
        <time>2023-01-06T15:02:19Z</time>
      </trkpt>
      <trkpt lat="43.59711" lon="6.30533">
        <ele>691</ele>
        <time>2023-01-06T15:02:20Z</time>
      </trkpt>
      <trkpt lat="43.5971" lon="6.30533">
        <ele>691</ele>
        <time>2023-01-06T15:02:21Z</time>
      </trkpt>
      <trkpt lat="43.59709" lon="6.30534">
        <ele>691</ele>
        <time>2023-01-06T15:02:22Z</time>
      </trkpt>
      <trkpt lat="43.59708" lon="6.30534">
        <ele>691</ele>
        <time>2023-01-06T15:02:23Z</time>
      </trkpt>
      <trkpt lat="43.59707" lon="6.30534">
        <ele>691</ele>
        <time>2023-01-06T15:02:24Z</time>
      </trkpt>
      <trkpt lat="43.59706" lon="6.30534">
        <ele>691</ele>
        <time>2023-01-06T15:02:25Z</time>
      </trkpt>
      <trkpt lat="43.59705" lon="6.30534">
        <ele>691</ele>
        <time>2023-01-06T15:02:26Z</time>
      </trkpt>
      <trkpt lat="43.59704" lon="6.30533">
        <ele>691</ele>
        <time>2023-01-06T15:02:27Z</time>
      </trkpt>
      <trkpt lat="43.59703" lon="6.30533">
        <ele>691</ele>
        <time>2023-01-06T15:02:28Z</time>
      </trkpt>
      <trkpt lat="43.59702" lon="6.30532">
        <ele>690</ele>
        <time>2023-01-06T15:02:29Z</time>
      </trkpt>
      <trkpt lat="43.59701" lon="6.30532">
        <ele>690</ele>
        <time>2023-01-06T15:02:30Z</time>
      </trkpt>
      <trkpt lat="43.597" lon="6.30532">
        <ele>690</ele>
        <time>2023-01-06T15:02:31Z</time>
      </trkpt>
      <trkpt lat="43.59699" lon="6.30532">
        <ele>690</ele>
        <time>2023-01-06T15:02:32Z</time>
      </trkpt>
      <trkpt lat="43.59698" lon="6.30532">
        <ele>690</ele>
        <time>2023-01-06T15:02:33Z</time>
      </trkpt>
      <trkpt lat="43.59697" lon="6.30533">
        <ele>690</ele>
        <time>2023-01-06T15:02:34Z</time>
      </trkpt>
      <trkpt lat="43.59696" lon="6.30534">
        <ele>690</ele>
        <time>2023-01-06T15:02:35Z</time>
      </trkpt>
      <trkpt lat="43.59695" lon="6.30534">
        <ele>690</ele>
        <time>2023-01-06T15:02:36Z</time>
      </trkpt>
      <trkpt lat="43.59694" lon="6.30534">
        <ele>690</ele>
        <time>2023-01-06T15:02:37Z</time>
      </trkpt>
      <trkpt lat="43.59693" lon="6.30534">
        <ele>690</ele>
        <time>2023-01-06T15:02:38Z</time>
      </trkpt>
      <trkpt lat="43.59692" lon="6.30533">
        <ele>690</ele>
        <time>2023-01-06T15:02:39Z</time>
      </trkpt>
      <trkpt lat="43.59692" lon="6.30533">
        <ele>690</ele>
        <time>2023-01-06T15:02:40Z</time>
      </trkpt>
      <trkpt lat="43.59691" lon="6.30533">
        <ele>690</ele>
        <time>2023-01-06T15:02:41Z</time>
      </trkpt>
      <trkpt lat="43.5969" lon="6.30533">
        <ele>690</ele>
        <time>2023-01-06T15:02:42Z</time>
      </trkpt>
      <trkpt lat="43.59689" lon="6.30533">
        <ele>690</ele>
        <time>2023-01-06T15:02:43Z</time>
      </trkpt>
      <trkpt lat="43.59689" lon="6.30533">
        <ele>690</ele>
        <time>2023-01-06T15:02:44Z</time>
      </trkpt>
      <trkpt lat="43.59688" lon="6.30533">
        <ele>690</ele>
        <time>2023-01-06T15:02:45Z</time>
      </trkpt>
      <trkpt lat="43.59687" lon="6.30534">
        <ele>690</ele>
        <time>2023-01-06T15:02:46Z</time>
      </trkpt>
      <trkpt lat="43.59686" lon="6.30534">
        <ele>691</ele>
        <time>2023-01-06T15:02:47Z</time>
      </trkpt>
      <trkpt lat="43.59686" lon="6.30534">
        <ele>691</ele>
        <time>2023-01-06T15:02:48Z</time>
      </trkpt>
      <trkpt lat="43.59685" lon="6.30534">
        <ele>691</ele>
        <time>2023-01-06T15:02:49Z</time>
      </trkpt>
      <trkpt lat="43.59684" lon="6.30534">
        <ele>691</ele>
        <time>2023-01-06T15:02:50Z</time>
      </trkpt>
      <trkpt lat="43.59684" lon="6.30535">
        <ele>691</ele>
        <time>2023-01-06T15:02:51Z</time>
      </trkpt>
      <trkpt lat="43.59683" lon="6.30535">
        <ele>691</ele>
        <time>2023-01-06T15:02:52Z</time>
      </trkpt>
      <trkpt lat="43.59682" lon="6.30536">
        <ele>691</ele>
        <time>2023-01-06T15:02:53Z</time>
      </trkpt>
      <trkpt lat="43.59681" lon="6.30536">
        <ele>691</ele>
        <time>2023-01-06T15:02:54Z</time>
      </trkpt>
      <trkpt lat="43.5968" lon="6.30536">
        <ele>691</ele>
        <time>2023-01-06T15:02:55Z</time>
      </trkpt>
      <trkpt lat="43.59679" lon="6.30537">
        <ele>690</ele>
        <time>2023-01-06T15:02:56Z</time>
      </trkpt>
      <trkpt lat="43.59678" lon="6.30537">
        <ele>690</ele>
        <time>2023-01-06T15:02:57Z</time>
      </trkpt>
      <trkpt lat="43.59677" lon="6.30538">
        <ele>690</ele>
        <time>2023-01-06T15:02:58Z</time>
      </trkpt>
      <trkpt lat="43.59676" lon="6.30538">
        <ele>690</ele>
        <time>2023-01-06T15:02:59Z</time>
      </trkpt>
      <trkpt lat="43.59675" lon="6.30538">
        <ele>689</ele>
        <time>2023-01-06T15:03:00Z</time>
      </trkpt>
      <trkpt lat="43.59674" lon="6.30539">
        <ele>689</ele>
        <time>2023-01-06T15:03:01Z</time>
      </trkpt>
      <trkpt lat="43.59673" lon="6.3054">
        <ele>689</ele>
        <time>2023-01-06T15:03:02Z</time>
      </trkpt>
      <trkpt lat="43.59672" lon="6.3054">
        <ele>689</ele>
        <time>2023-01-06T15:03:03Z</time>
      </trkpt>
      <trkpt lat="43.59671" lon="6.30541">
        <ele>689</ele>
        <time>2023-01-06T15:03:04Z</time>
      </trkpt>
      <trkpt lat="43.5967" lon="6.30541">
        <ele>689</ele>
        <time>2023-01-06T15:03:05Z</time>
      </trkpt>
      <trkpt lat="43.59669" lon="6.30542">
        <ele>689</ele>
        <time>2023-01-06T15:03:06Z</time>
      </trkpt>
      <trkpt lat="43.59668" lon="6.30542">
        <ele>689</ele>
        <time>2023-01-06T15:03:07Z</time>
      </trkpt>
      <trkpt lat="43.59667" lon="6.30542">
        <ele>689</ele>
        <time>2023-01-06T15:03:08Z</time>
      </trkpt>
      <trkpt lat="43.59666" lon="6.30543">
        <ele>689</ele>
        <time>2023-01-06T15:03:09Z</time>
      </trkpt>
      <trkpt lat="43.59665" lon="6.30542">
        <ele>689</ele>
        <time>2023-01-06T15:03:10Z</time>
      </trkpt>
      <trkpt lat="43.59664" lon="6.30542">
        <ele>689</ele>
        <time>2023-01-06T15:03:11Z</time>
      </trkpt>
      <trkpt lat="43.59663" lon="6.30541">
        <ele>690</ele>
        <time>2023-01-06T15:03:12Z</time>
      </trkpt>
      <trkpt lat="43.59662" lon="6.30541">
        <ele>690</ele>
        <time>2023-01-06T15:03:13Z</time>
      </trkpt>
      <trkpt lat="43.59661" lon="6.30541">
        <ele>690</ele>
        <time>2023-01-06T15:03:14Z</time>
      </trkpt>
      <trkpt lat="43.5966" lon="6.30541">
        <ele>690</ele>
        <time>2023-01-06T15:03:15Z</time>
      </trkpt>
      <trkpt lat="43.59658" lon="6.30541">
        <ele>690</ele>
        <time>2023-01-06T15:03:16Z</time>
      </trkpt>
      <trkpt lat="43.59657" lon="6.3054">
        <ele>690</ele>
        <time>2023-01-06T15:03:17Z</time>
      </trkpt>
      <trkpt lat="43.59656" lon="6.30539">
        <ele>690</ele>
        <time>2023-01-06T15:03:18Z</time>
      </trkpt>
      <trkpt lat="43.59655" lon="6.30539">
        <ele>690</ele>
        <time>2023-01-06T15:03:19Z</time>
      </trkpt>
      <trkpt lat="43.59654" lon="6.30539">
        <ele>690</ele>
        <time>2023-01-06T15:03:20Z</time>
      </trkpt>
      <trkpt lat="43.59653" lon="6.30539">
        <ele>690</ele>
        <time>2023-01-06T15:03:21Z</time>
      </trkpt>
      <trkpt lat="43.59652" lon="6.30539">
        <ele>690</ele>
        <time>2023-01-06T15:03:22Z</time>
      </trkpt>
      <trkpt lat="43.59651" lon="6.30539">
        <ele>690</ele>
        <time>2023-01-06T15:03:23Z</time>
      </trkpt>
      <trkpt lat="43.5965" lon="6.30539">
        <ele>690</ele>
        <time>2023-01-06T15:03:24Z</time>
      </trkpt>
      <trkpt lat="43.59648" lon="6.3054">
        <ele>690</ele>
        <time>2023-01-06T15:03:25Z</time>
      </trkpt>
      <trkpt lat="43.59648" lon="6.3054">
        <ele>690</ele>
        <time>2023-01-06T15:03:26Z</time>
      </trkpt>
      <trkpt lat="43.59647" lon="6.30541">
        <ele>690</ele>
        <time>2023-01-06T15:03:27Z</time>
      </trkpt>
      <trkpt lat="43.59646" lon="6.30541">
        <ele>690</ele>
        <time>2023-01-06T15:03:28Z</time>
      </trkpt>
      <trkpt lat="43.59645" lon="6.3054">
        <ele>690</ele>
        <time>2023-01-06T15:03:29Z</time>
      </trkpt>
      <trkpt lat="43.59645" lon="6.3054">
        <ele>690</ele>
        <time>2023-01-06T15:03:30Z</time>
      </trkpt>
      <trkpt lat="43.59644" lon="6.30539">
        <ele>690</ele>
        <time>2023-01-06T15:03:31Z</time>
      </trkpt>
      <trkpt lat="43.59643" lon="6.3054">
        <ele>690</ele>
        <time>2023-01-06T15:03:32Z</time>
      </trkpt>
      <trkpt lat="43.59642" lon="6.30541">
        <ele>690</ele>
        <time>2023-01-06T15:03:33Z</time>
      </trkpt>
      <trkpt lat="43.59641" lon="6.30541">
        <ele>690</ele>
        <time>2023-01-06T15:03:34Z</time>
      </trkpt>
      <trkpt lat="43.59641" lon="6.30541">
        <ele>690</ele>
        <time>2023-01-06T15:03:35Z</time>
      </trkpt>
      <trkpt lat="43.5964" lon="6.3054">
        <ele>690</ele>
        <time>2023-01-06T15:03:36Z</time>
      </trkpt>
      <trkpt lat="43.59639" lon="6.3054">
        <ele>690</ele>
        <time>2023-01-06T15:03:37Z</time>
      </trkpt>
      <trkpt lat="43.59638" lon="6.30539">
        <ele>690</ele>
        <time>2023-01-06T15:03:38Z</time>
      </trkpt>
      <trkpt lat="43.59637" lon="6.30538">
        <ele>690</ele>
        <time>2023-01-06T15:03:39Z</time>
      </trkpt>
      <trkpt lat="43.59636" lon="6.30538">
        <ele>689</ele>
        <time>2023-01-06T15:03:40Z</time>
      </trkpt>
      <trkpt lat="43.59635" lon="6.30537">
        <ele>689</ele>
        <time>2023-01-06T15:03:41Z</time>
      </trkpt>
      <trkpt lat="43.59634" lon="6.30537">
        <ele>689</ele>
        <time>2023-01-06T15:03:42Z</time>
      </trkpt>
      <trkpt lat="43.59632" lon="6.30537">
        <ele>689</ele>
        <time>2023-01-06T15:03:43Z</time>
      </trkpt>
      <trkpt lat="43.59631" lon="6.30537">
        <ele>689</ele>
        <time>2023-01-06T15:03:44Z</time>
      </trkpt>
      <trkpt lat="43.5963" lon="6.30537">
        <ele>689</ele>
        <time>2023-01-06T15:03:45Z</time>
      </trkpt>
      <trkpt lat="43.59629" lon="6.30538">
        <ele>689</ele>
        <time>2023-01-06T15:03:46Z</time>
      </trkpt>
      <trkpt lat="43.59628" lon="6.30538">
        <ele>689</ele>
        <time>2023-01-06T15:03:47Z</time>
      </trkpt>
      <trkpt lat="43.59626" lon="6.30538">
        <ele>688</ele>
        <time>2023-01-06T15:03:48Z</time>
      </trkpt>
      <trkpt lat="43.59625" lon="6.30538">
        <ele>688</ele>
        <time>2023-01-06T15:03:49Z</time>
      </trkpt>
      <trkpt lat="43.59624" lon="6.30538">
        <ele>688</ele>
        <time>2023-01-06T15:03:50Z</time>
      </trkpt>
      <trkpt lat="43.59623" lon="6.30538">
        <ele>688</ele>
        <time>2023-01-06T15:03:51Z</time>
      </trkpt>
      <trkpt lat="43.59622" lon="6.30538">
        <ele>688</ele>
        <time>2023-01-06T15:03:52Z</time>
      </trkpt>
      <trkpt lat="43.59621" lon="6.30539">
        <ele>688</ele>
        <time>2023-01-06T15:03:53Z</time>
      </trkpt>
      <trkpt lat="43.5962" lon="6.30539">
        <ele>688</ele>
        <time>2023-01-06T15:03:54Z</time>
      </trkpt>
      <trkpt lat="43.5962" lon="6.30539">
        <ele>688</ele>
        <time>2023-01-06T15:03:55Z</time>
      </trkpt>
      <trkpt lat="43.59619" lon="6.30538">
        <ele>688</ele>
        <time>2023-01-06T15:03:56Z</time>
      </trkpt>
      <trkpt lat="43.59618" lon="6.30538">
        <ele>688</ele>
        <time>2023-01-06T15:03:57Z</time>
      </trkpt>
      <trkpt lat="43.59617" lon="6.30537">
        <ele>688</ele>
        <time>2023-01-06T15:03:58Z</time>
      </trkpt>
      <trkpt lat="43.59616" lon="6.30536">
        <ele>688</ele>
        <time>2023-01-06T15:03:59Z</time>
      </trkpt>
      <trkpt lat="43.59616" lon="6.30534">
        <ele>688</ele>
        <time>2023-01-06T15:04:00Z</time>
      </trkpt>
      <trkpt lat="43.59615" lon="6.30532">
        <ele>688</ele>
        <time>2023-01-06T15:04:01Z</time>
      </trkpt>
      <trkpt lat="43.59615" lon="6.30531">
        <ele>688</ele>
        <time>2023-01-06T15:04:02Z</time>
      </trkpt>
      <trkpt lat="43.59615" lon="6.30529">
        <ele>688</ele>
        <time>2023-01-06T15:04:03Z</time>
      </trkpt>
      <trkpt lat="43.59614" lon="6.30528">
        <ele>688</ele>
        <time>2023-01-06T15:04:04Z</time>
      </trkpt>
      <trkpt lat="43.59615" lon="6.30526">
        <ele>688</ele>
        <time>2023-01-06T15:04:05Z</time>
      </trkpt>
      <trkpt lat="43.59615" lon="6.30525">
        <ele>687</ele>
        <time>2023-01-06T15:04:06Z</time>
      </trkpt>
      <trkpt lat="43.59615" lon="6.30523">
        <ele>687</ele>
        <time>2023-01-06T15:04:07Z</time>
      </trkpt>
      <trkpt lat="43.59615" lon="6.30521">
        <ele>687</ele>
        <time>2023-01-06T15:04:08Z</time>
      </trkpt>
      <trkpt lat="43.59615" lon="6.3052">
        <ele>687</ele>
        <time>2023-01-06T15:04:09Z</time>
      </trkpt>
      <trkpt lat="43.59616" lon="6.30518">
        <ele>687</ele>
        <time>2023-01-06T15:04:10Z</time>
      </trkpt>
      <trkpt lat="43.59616" lon="6.30517">
        <ele>687</ele>
        <time>2023-01-06T15:04:11Z</time>
      </trkpt>
      <trkpt lat="43.59616" lon="6.30516">
        <ele>687</ele>
        <time>2023-01-06T15:04:12Z</time>
      </trkpt>
      <trkpt lat="43.59616" lon="6.30514">
        <ele>686</ele>
        <time>2023-01-06T15:04:13Z</time>
      </trkpt>
      <trkpt lat="43.59616" lon="6.30514">
        <ele>686</ele>
        <time>2023-01-06T15:04:14Z</time>
      </trkpt>
      <trkpt lat="43.59617" lon="6.30513">
        <ele>686</ele>
        <time>2023-01-06T15:04:15Z</time>
      </trkpt>
      <trkpt lat="43.59617" lon="6.30512">
        <ele>684</ele>
        <time>2023-01-06T15:04:16Z</time>
      </trkpt>
      <trkpt lat="43.59617" lon="6.30511">
        <ele>684</ele>
        <time>2023-01-06T15:04:17Z</time>
      </trkpt>
      <trkpt lat="43.59618" lon="6.3051">
        <ele>684</ele>
        <time>2023-01-06T15:04:18Z</time>
      </trkpt>
      <trkpt lat="43.59618" lon="6.3051">
        <ele>684</ele>
        <time>2023-01-06T15:04:19Z</time>
      </trkpt>
      <trkpt lat="43.59618" lon="6.30509">
        <ele>684</ele>
        <time>2023-01-06T15:04:20Z</time>
      </trkpt>
      <trkpt lat="43.59618" lon="6.30509">
        <ele>684</ele>
        <time>2023-01-06T15:04:21Z</time>
      </trkpt>
      <trkpt lat="43.59618" lon="6.30507">
        <ele>684</ele>
        <time>2023-01-06T15:04:22Z</time>
      </trkpt>
      <trkpt lat="43.59618" lon="6.30506">
        <ele>683</ele>
        <time>2023-01-06T15:04:23Z</time>
      </trkpt>
      <trkpt lat="43.59618" lon="6.30505">
        <ele>683</ele>
        <time>2023-01-06T15:04:24Z</time>
      </trkpt>
      <trkpt lat="43.59619" lon="6.30504">
        <ele>683</ele>
        <time>2023-01-06T15:04:25Z</time>
      </trkpt>
      <trkpt lat="43.59619" lon="6.30504">
        <ele>683</ele>
        <time>2023-01-06T15:04:26Z</time>
      </trkpt>
      <trkpt lat="43.59618" lon="6.30503">
        <ele>683</ele>
        <time>2023-01-06T15:04:27Z</time>
      </trkpt>
      <trkpt lat="43.59617" lon="6.30502">
        <ele>683</ele>
        <time>2023-01-06T15:04:28Z</time>
      </trkpt>
      <trkpt lat="43.59617" lon="6.30502">
        <ele>683</ele>
        <time>2023-01-06T15:04:29Z</time>
      </trkpt>
      <trkpt lat="43.59616" lon="6.30501">
        <ele>683</ele>
        <time>2023-01-06T15:04:30Z</time>
      </trkpt>
      <trkpt lat="43.59615" lon="6.305">
        <ele>683</ele>
        <time>2023-01-06T15:04:31Z</time>
      </trkpt>
      <trkpt lat="43.59615" lon="6.305">
        <ele>683</ele>
        <time>2023-01-06T15:04:32Z</time>
      </trkpt>
      <trkpt lat="43.59614" lon="6.305">
        <ele>682</ele>
        <time>2023-01-06T15:04:33Z</time>
      </trkpt>
      <trkpt lat="43.59614" lon="6.305">
        <ele>682</ele>
        <time>2023-01-06T15:04:34Z</time>
      </trkpt>
      <trkpt lat="43.59614" lon="6.305">
        <ele>682</ele>
        <time>2023-01-06T15:04:35Z</time>
      </trkpt>
      <trkpt lat="43.59613" lon="6.305">
        <ele>682</ele>
        <time>2023-01-06T15:04:36Z</time>
      </trkpt>
      <trkpt lat="43.59613" lon="6.305">
        <ele>682</ele>
        <time>2023-01-06T15:04:37Z</time>
      </trkpt>
      <trkpt lat="43.59612" lon="6.305">
        <ele>682</ele>
        <time>2023-01-06T15:04:38Z</time>
      </trkpt>
      <trkpt lat="43.59612" lon="6.305">
        <ele>683</ele>
        <time>2023-01-06T15:04:39Z</time>
      </trkpt>
      <trkpt lat="43.59611" lon="6.30501">
        <ele>683</ele>
        <time>2023-01-06T15:04:40Z</time>
      </trkpt>
      <trkpt lat="43.5961" lon="6.30501">
        <ele>682</ele>
        <time>2023-01-06T15:04:41Z</time>
      </trkpt>
      <trkpt lat="43.59609" lon="6.30501">
        <ele>682</ele>
        <time>2023-01-06T15:04:42Z</time>
      </trkpt>
      <trkpt lat="43.59608" lon="6.30501">
        <ele>682</ele>
        <time>2023-01-06T15:04:43Z</time>
      </trkpt>
      <trkpt lat="43.59608" lon="6.30501">
        <ele>683</ele>
        <time>2023-01-06T15:04:44Z</time>
      </trkpt>
      <trkpt lat="43.59607" lon="6.305">
        <ele>683</ele>
        <time>2023-01-06T15:04:45Z</time>
      </trkpt>
      <trkpt lat="43.59606" lon="6.305">
        <ele>683</ele>
        <time>2023-01-06T15:04:46Z</time>
      </trkpt>
      <trkpt lat="43.59606" lon="6.30499">
        <ele>683</ele>
        <time>2023-01-06T15:04:47Z</time>
      </trkpt>
      <trkpt lat="43.59605" lon="6.30498">
        <ele>682</ele>
        <time>2023-01-06T15:04:48Z</time>
      </trkpt>
      <trkpt lat="43.59604" lon="6.30497">
        <ele>682</ele>
        <time>2023-01-06T15:04:49Z</time>
      </trkpt>
      <trkpt lat="43.59604" lon="6.30496">
        <ele>682</ele>
        <time>2023-01-06T15:04:50Z</time>
      </trkpt>
      <trkpt lat="43.59603" lon="6.30496">
        <ele>682</ele>
        <time>2023-01-06T15:04:51Z</time>
      </trkpt>
      <trkpt lat="43.59602" lon="6.30495">
        <ele>682</ele>
        <time>2023-01-06T15:04:52Z</time>
      </trkpt>
      <trkpt lat="43.59601" lon="6.30494">
        <ele>682</ele>
        <time>2023-01-06T15:04:53Z</time>
      </trkpt>
      <trkpt lat="43.596" lon="6.30494">
        <ele>682</ele>
        <time>2023-01-06T15:04:54Z</time>
      </trkpt>
      <trkpt lat="43.59599" lon="6.30494">
        <ele>682</ele>
        <time>2023-01-06T15:04:55Z</time>
      </trkpt>
      <trkpt lat="43.59598" lon="6.30494">
        <ele>682</ele>
        <time>2023-01-06T15:04:56Z</time>
      </trkpt>
      <trkpt lat="43.59597" lon="6.30494">
        <ele>683</ele>
        <time>2023-01-06T15:04:57Z</time>
      </trkpt>
      <trkpt lat="43.59596" lon="6.30493">
        <ele>683</ele>
        <time>2023-01-06T15:04:58Z</time>
      </trkpt>
      <trkpt lat="43.59595" lon="6.30492">
        <ele>683</ele>
        <time>2023-01-06T15:04:59Z</time>
      </trkpt>
      <trkpt lat="43.59594" lon="6.30491">
        <ele>683</ele>
        <time>2023-01-06T15:05:00Z</time>
      </trkpt>
      <trkpt lat="43.59594" lon="6.30489">
        <ele>683</ele>
        <time>2023-01-06T15:05:01Z</time>
      </trkpt>
      <trkpt lat="43.59595" lon="6.30488">
        <ele>683</ele>
        <time>2023-01-06T15:05:02Z</time>
      </trkpt>
      <trkpt lat="43.59595" lon="6.30487">
        <ele>683</ele>
        <time>2023-01-06T15:05:03Z</time>
      </trkpt>
      <trkpt lat="43.59595" lon="6.30486">
        <ele>683</ele>
        <time>2023-01-06T15:05:04Z</time>
      </trkpt>
      <trkpt lat="43.59594" lon="6.30485">
        <ele>683</ele>
        <time>2023-01-06T15:05:05Z</time>
      </trkpt>
      <trkpt lat="43.59593" lon="6.30484">
        <ele>683</ele>
        <time>2023-01-06T15:05:06Z</time>
      </trkpt>
      <trkpt lat="43.59593" lon="6.30483">
        <ele>683</ele>
        <time>2023-01-06T15:05:07Z</time>
      </trkpt>
      <trkpt lat="43.59592" lon="6.30482">
        <ele>683</ele>
        <time>2023-01-06T15:05:08Z</time>
      </trkpt>
      <trkpt lat="43.59591" lon="6.30481">
        <ele>683</ele>
        <time>2023-01-06T15:05:09Z</time>
      </trkpt>
      <trkpt lat="43.59591" lon="6.3048">
        <ele>683</ele>
        <time>2023-01-06T15:05:10Z</time>
      </trkpt>
      <trkpt lat="43.5959" lon="6.3048">
        <ele>683</ele>
        <time>2023-01-06T15:05:11Z</time>
      </trkpt>
      <trkpt lat="43.5959" lon="6.3048">
        <ele>683</ele>
        <time>2023-01-06T15:05:12Z</time>
      </trkpt>
      <trkpt lat="43.59589" lon="6.3048">
        <ele>683</ele>
        <time>2023-01-06T15:05:13Z</time>
      </trkpt>
      <trkpt lat="43.59589" lon="6.3048">
        <ele>683</ele>
        <time>2023-01-06T15:05:14Z</time>
      </trkpt>
      <trkpt lat="43.59589" lon="6.30479">
        <ele>683</ele>
        <time>2023-01-06T15:05:15Z</time>
      </trkpt>
      <trkpt lat="43.59588" lon="6.30479">
        <ele>683</ele>
        <time>2023-01-06T15:05:16Z</time>
      </trkpt>
      <trkpt lat="43.59588" lon="6.30479">
        <ele>683</ele>
        <time>2023-01-06T15:05:17Z</time>
      </trkpt>
      <trkpt lat="43.59587" lon="6.30479">
        <ele>683</ele>
        <time>2023-01-06T15:05:18Z</time>
      </trkpt>
      <trkpt lat="43.59587" lon="6.30478">
        <ele>682</ele>
        <time>2023-01-06T15:05:19Z</time>
      </trkpt>
      <trkpt lat="43.59587" lon="6.30479">
        <ele>682</ele>
        <time>2023-01-06T15:05:20Z</time>
      </trkpt>
      <trkpt lat="43.59586" lon="6.30479">
        <ele>682</ele>
        <time>2023-01-06T15:05:21Z</time>
      </trkpt>
      <trkpt lat="43.59586" lon="6.30479">
        <ele>682</ele>
        <time>2023-01-06T15:05:22Z</time>
      </trkpt>
      <trkpt lat="43.59586" lon="6.30479">
        <ele>682</ele>
        <time>2023-01-06T15:05:23Z</time>
      </trkpt>
      <trkpt lat="43.59586" lon="6.30479">
        <ele>682</ele>
        <time>2023-01-06T15:05:24Z</time>
      </trkpt>
      <trkpt lat="43.59585" lon="6.30479">
        <ele>682</ele>
        <time>2023-01-06T15:05:25Z</time>
      </trkpt>
      <trkpt lat="43.59585" lon="6.30479">
        <ele>682</ele>
        <time>2023-01-06T15:05:26Z</time>
      </trkpt>
      <trkpt lat="43.59584" lon="6.3048">
        <ele>682</ele>
        <time>2023-01-06T15:05:27Z</time>
      </trkpt>
      <trkpt lat="43.59584" lon="6.30481">
        <ele>682</ele>
        <time>2023-01-06T15:05:28Z</time>
      </trkpt>
      <trkpt lat="43.59583" lon="6.30481">
        <ele>682</ele>
        <time>2023-01-06T15:05:29Z</time>
      </trkpt>
      <trkpt lat="43.59583" lon="6.30482">
        <ele>681</ele>
        <time>2023-01-06T15:05:30Z</time>
      </trkpt>
      <trkpt lat="43.59582" lon="6.30482">
        <ele>681</ele>
        <time>2023-01-06T15:05:31Z</time>
      </trkpt>
      <trkpt lat="43.59581" lon="6.30482">
        <ele>681</ele>
        <time>2023-01-06T15:05:32Z</time>
      </trkpt>
      <trkpt lat="43.5958" lon="6.30482">
        <ele>681</ele>
        <time>2023-01-06T15:05:33Z</time>
      </trkpt>
      <trkpt lat="43.59579" lon="6.30482">
        <ele>681</ele>
        <time>2023-01-06T15:05:34Z</time>
      </trkpt>
      <trkpt lat="43.59578" lon="6.30483">
        <ele>681</ele>
        <time>2023-01-06T15:05:35Z</time>
      </trkpt>
      <trkpt lat="43.59577" lon="6.30483">
        <ele>680</ele>
        <time>2023-01-06T15:05:36Z</time>
      </trkpt>
      <trkpt lat="43.59576" lon="6.30484">
        <ele>679</ele>
        <time>2023-01-06T15:05:37Z</time>
      </trkpt>
      <trkpt lat="43.59575" lon="6.30484">
        <ele>679</ele>
        <time>2023-01-06T15:05:38Z</time>
      </trkpt>
      <trkpt lat="43.59574" lon="6.30485">
        <ele>679</ele>
        <time>2023-01-06T15:05:39Z</time>
      </trkpt>
      <trkpt lat="43.59573" lon="6.30485">
        <ele>679</ele>
        <time>2023-01-06T15:05:40Z</time>
      </trkpt>
      <trkpt lat="43.59572" lon="6.30485">
        <ele>679</ele>
        <time>2023-01-06T15:05:41Z</time>
      </trkpt>
      <trkpt lat="43.59571" lon="6.30485">
        <ele>679</ele>
        <time>2023-01-06T15:05:42Z</time>
      </trkpt>
      <trkpt lat="43.5957" lon="6.30485">
        <ele>678</ele>
        <time>2023-01-06T15:05:43Z</time>
      </trkpt>
      <trkpt lat="43.59569" lon="6.30486">
        <ele>678</ele>
        <time>2023-01-06T15:05:44Z</time>
      </trkpt>
      <trkpt lat="43.59568" lon="6.30486">
        <ele>678</ele>
        <time>2023-01-06T15:05:45Z</time>
      </trkpt>
      <trkpt lat="43.59567" lon="6.30486">
        <ele>678</ele>
        <time>2023-01-06T15:05:46Z</time>
      </trkpt>
      <trkpt lat="43.59566" lon="6.30485">
        <ele>678</ele>
        <time>2023-01-06T15:05:47Z</time>
      </trkpt>
      <trkpt lat="43.59565" lon="6.30486">
        <ele>677</ele>
        <time>2023-01-06T15:05:48Z</time>
      </trkpt>
      <trkpt lat="43.59564" lon="6.30486">
        <ele>677</ele>
        <time>2023-01-06T15:05:49Z</time>
      </trkpt>
      <trkpt lat="43.59563" lon="6.30487">
        <ele>677</ele>
        <time>2023-01-06T15:05:50Z</time>
      </trkpt>
      <trkpt lat="43.59562" lon="6.30487">
        <ele>676</ele>
        <time>2023-01-06T15:05:51Z</time>
      </trkpt>
      <trkpt lat="43.59561" lon="6.30486">
        <ele>676</ele>
        <time>2023-01-06T15:05:52Z</time>
      </trkpt>
      <trkpt lat="43.59561" lon="6.30486">
        <ele>676</ele>
        <time>2023-01-06T15:05:53Z</time>
      </trkpt>
      <trkpt lat="43.5956" lon="6.30486">
        <ele>676</ele>
        <time>2023-01-06T15:05:54Z</time>
      </trkpt>
      <trkpt lat="43.59559" lon="6.30486">
        <ele>676</ele>
        <time>2023-01-06T15:05:55Z</time>
      </trkpt>
      <trkpt lat="43.59558" lon="6.30484">
        <ele>676</ele>
        <time>2023-01-06T15:05:56Z</time>
      </trkpt>
      <trkpt lat="43.59556" lon="6.30482">
        <ele>676</ele>
        <time>2023-01-06T15:05:57Z</time>
      </trkpt>
      <trkpt lat="43.59555" lon="6.30482">
        <ele>676</ele>
        <time>2023-01-06T15:05:58Z</time>
      </trkpt>
      <trkpt lat="43.59554" lon="6.30482">
        <ele>676</ele>
        <time>2023-01-06T15:05:59Z</time>
      </trkpt>
      <trkpt lat="43.59553" lon="6.30482">
        <ele>675</ele>
        <time>2023-01-06T15:06:00Z</time>
      </trkpt>
      <trkpt lat="43.59552" lon="6.30482">
        <ele>675</ele>
        <time>2023-01-06T15:06:01Z</time>
      </trkpt>
      <trkpt lat="43.59551" lon="6.30483">
        <ele>675</ele>
        <time>2023-01-06T15:06:02Z</time>
      </trkpt>
      <trkpt lat="43.5955" lon="6.30483">
        <ele>675</ele>
        <time>2023-01-06T15:06:03Z</time>
      </trkpt>
      <trkpt lat="43.59549" lon="6.30483">
        <ele>675</ele>
        <time>2023-01-06T15:06:04Z</time>
      </trkpt>
      <trkpt lat="43.59548" lon="6.30483">
        <ele>675</ele>
        <time>2023-01-06T15:06:05Z</time>
      </trkpt>
      <trkpt lat="43.59547" lon="6.30483">
        <ele>674</ele>
        <time>2023-01-06T15:06:06Z</time>
      </trkpt>
      <trkpt lat="43.59546" lon="6.30483">
        <ele>674</ele>
        <time>2023-01-06T15:06:07Z</time>
      </trkpt>
      <trkpt lat="43.59546" lon="6.30483">
        <ele>674</ele>
        <time>2023-01-06T15:06:08Z</time>
      </trkpt>
      <trkpt lat="43.59545" lon="6.30484">
        <ele>674</ele>
        <time>2023-01-06T15:06:09Z</time>
      </trkpt>
      <trkpt lat="43.59544" lon="6.30484">
        <ele>674</ele>
        <time>2023-01-06T15:06:10Z</time>
      </trkpt>
      <trkpt lat="43.59543" lon="6.30484">
        <ele>674</ele>
        <time>2023-01-06T15:06:11Z</time>
      </trkpt>
      <trkpt lat="43.59542" lon="6.30485">
        <ele>674</ele>
        <time>2023-01-06T15:06:12Z</time>
      </trkpt>
      <trkpt lat="43.59541" lon="6.30484">
        <ele>674</ele>
        <time>2023-01-06T15:06:13Z</time>
      </trkpt>
      <trkpt lat="43.59541" lon="6.30484">
        <ele>674</ele>
        <time>2023-01-06T15:06:14Z</time>
      </trkpt>
      <trkpt lat="43.5954" lon="6.30483">
        <ele>673</ele>
        <time>2023-01-06T15:06:15Z</time>
      </trkpt>
      <trkpt lat="43.59539" lon="6.30483">
        <ele>673</ele>
        <time>2023-01-06T15:06:16Z</time>
      </trkpt>
      <trkpt lat="43.59538" lon="6.30483">
        <ele>672</ele>
        <time>2023-01-06T15:06:17Z</time>
      </trkpt>
      <trkpt lat="43.59538" lon="6.30483">
        <ele>672</ele>
        <time>2023-01-06T15:06:18Z</time>
      </trkpt>
      <trkpt lat="43.59537" lon="6.30482">
        <ele>672</ele>
        <time>2023-01-06T15:06:19Z</time>
      </trkpt>
      <trkpt lat="43.59536" lon="6.30481">
        <ele>672</ele>
        <time>2023-01-06T15:06:20Z</time>
      </trkpt>
      <trkpt lat="43.59535" lon="6.3048">
        <ele>672</ele>
        <time>2023-01-06T15:06:21Z</time>
      </trkpt>
      <trkpt lat="43.59535" lon="6.3048">
        <ele>672</ele>
        <time>2023-01-06T15:06:22Z</time>
      </trkpt>
      <trkpt lat="43.59534" lon="6.30479">
        <ele>671</ele>
        <time>2023-01-06T15:06:23Z</time>
      </trkpt>
      <trkpt lat="43.59533" lon="6.30479">
        <ele>671</ele>
        <time>2023-01-06T15:06:24Z</time>
      </trkpt>
      <trkpt lat="43.59532" lon="6.30478">
        <ele>671</ele>
        <time>2023-01-06T15:06:25Z</time>
      </trkpt>
      <trkpt lat="43.59531" lon="6.30478">
        <ele>671</ele>
        <time>2023-01-06T15:06:26Z</time>
      </trkpt>
      <trkpt lat="43.5953" lon="6.30478">
        <ele>671</ele>
        <time>2023-01-06T15:06:27Z</time>
      </trkpt>
      <trkpt lat="43.5953" lon="6.30478">
        <ele>671</ele>
        <time>2023-01-06T15:06:28Z</time>
      </trkpt>
      <trkpt lat="43.59529" lon="6.30479">
        <ele>671</ele>
        <time>2023-01-06T15:06:29Z</time>
      </trkpt>
      <trkpt lat="43.59529" lon="6.30479">
        <ele>670</ele>
        <time>2023-01-06T15:06:30Z</time>
      </trkpt>
      <trkpt lat="43.59528" lon="6.30479">
        <ele>670</ele>
        <time>2023-01-06T15:06:31Z</time>
      </trkpt>
      <trkpt lat="43.59527" lon="6.30479">
        <ele>670</ele>
        <time>2023-01-06T15:06:32Z</time>
      </trkpt>
      <trkpt lat="43.59526" lon="6.3048">
        <ele>670</ele>
        <time>2023-01-06T15:06:33Z</time>
      </trkpt>
      <trkpt lat="43.59525" lon="6.3048">
        <ele>670</ele>
        <time>2023-01-06T15:06:34Z</time>
      </trkpt>
      <trkpt lat="43.59524" lon="6.3048">
        <ele>670</ele>
        <time>2023-01-06T15:06:35Z</time>
      </trkpt>
      <trkpt lat="43.59523" lon="6.30481">
        <ele>670</ele>
        <time>2023-01-06T15:06:36Z</time>
      </trkpt>
      <trkpt lat="43.59522" lon="6.30481">
        <ele>670</ele>
        <time>2023-01-06T15:06:37Z</time>
      </trkpt>
      <trkpt lat="43.59521" lon="6.30481">
        <ele>670</ele>
        <time>2023-01-06T15:06:38Z</time>
      </trkpt>
      <trkpt lat="43.5952" lon="6.30481">
        <ele>670</ele>
        <time>2023-01-06T15:06:39Z</time>
      </trkpt>
      <trkpt lat="43.59519" lon="6.30482">
        <ele>670</ele>
        <time>2023-01-06T15:06:40Z</time>
      </trkpt>
      <trkpt lat="43.59518" lon="6.30482">
        <ele>670</ele>
        <time>2023-01-06T15:06:41Z</time>
      </trkpt>
      <trkpt lat="43.59517" lon="6.30482">
        <ele>670</ele>
        <time>2023-01-06T15:06:42Z</time>
      </trkpt>
      <trkpt lat="43.59516" lon="6.30482">
        <ele>670</ele>
        <time>2023-01-06T15:06:43Z</time>
      </trkpt>
      <trkpt lat="43.59515" lon="6.30482">
        <ele>670</ele>
        <time>2023-01-06T15:06:44Z</time>
      </trkpt>
      <trkpt lat="43.59514" lon="6.30482">
        <ele>670</ele>
        <time>2023-01-06T15:06:45Z</time>
      </trkpt>
      <trkpt lat="43.59513" lon="6.30482">
        <ele>671</ele>
        <time>2023-01-06T15:06:46Z</time>
      </trkpt>
      <trkpt lat="43.59512" lon="6.30482">
        <ele>671</ele>
        <time>2023-01-06T15:06:47Z</time>
      </trkpt>
      <trkpt lat="43.59511" lon="6.30482">
        <ele>671</ele>
        <time>2023-01-06T15:06:48Z</time>
      </trkpt>
      <trkpt lat="43.5951" lon="6.30481">
        <ele>671</ele>
        <time>2023-01-06T15:06:49Z</time>
      </trkpt>
      <trkpt lat="43.59509" lon="6.30481">
        <ele>671</ele>
        <time>2023-01-06T15:06:50Z</time>
      </trkpt>
      <trkpt lat="43.59508" lon="6.30481">
        <ele>671</ele>
        <time>2023-01-06T15:06:51Z</time>
      </trkpt>
      <trkpt lat="43.59507" lon="6.3048">
        <ele>670</ele>
        <time>2023-01-06T15:06:52Z</time>
      </trkpt>
      <trkpt lat="43.59507" lon="6.3048">
        <ele>670</ele>
        <time>2023-01-06T15:06:53Z</time>
      </trkpt>
      <trkpt lat="43.59506" lon="6.3048">
        <ele>670</ele>
        <time>2023-01-06T15:06:54Z</time>
      </trkpt>
      <trkpt lat="43.59505" lon="6.3048">
        <ele>670</ele>
        <time>2023-01-06T15:06:55Z</time>
      </trkpt>
      <trkpt lat="43.59505" lon="6.30479">
        <ele>670</ele>
        <time>2023-01-06T15:06:56Z</time>
      </trkpt>
      <trkpt lat="43.59504" lon="6.30478">
        <ele>670</ele>
        <time>2023-01-06T15:06:57Z</time>
      </trkpt>
      <trkpt lat="43.59503" lon="6.30478">
        <ele>670</ele>
        <time>2023-01-06T15:06:58Z</time>
      </trkpt>
      <trkpt lat="43.59502" lon="6.30477">
        <ele>670</ele>
        <time>2023-01-06T15:06:59Z</time>
      </trkpt>
      <trkpt lat="43.59502" lon="6.30477">
        <ele>669</ele>
        <time>2023-01-06T15:07:00Z</time>
      </trkpt>
      <trkpt lat="43.59501" lon="6.30476">
        <ele>669</ele>
        <time>2023-01-06T15:07:01Z</time>
      </trkpt>
      <trkpt lat="43.59501" lon="6.30476">
        <ele>669</ele>
        <time>2023-01-06T15:07:02Z</time>
      </trkpt>
      <trkpt lat="43.595" lon="6.30475">
        <ele>669</ele>
        <time>2023-01-06T15:07:03Z</time>
      </trkpt>
      <trkpt lat="43.59499" lon="6.30475">
        <ele>669</ele>
        <time>2023-01-06T15:07:04Z</time>
      </trkpt>
      <trkpt lat="43.59498" lon="6.30475">
        <ele>669</ele>
        <time>2023-01-06T15:07:05Z</time>
      </trkpt>
      <trkpt lat="43.59497" lon="6.30474">
        <ele>669</ele>
        <time>2023-01-06T15:07:06Z</time>
      </trkpt>
      <trkpt lat="43.59496" lon="6.30475">
        <ele>668</ele>
        <time>2023-01-06T15:07:07Z</time>
      </trkpt>
      <trkpt lat="43.59496" lon="6.30474">
        <ele>668</ele>
        <time>2023-01-06T15:07:08Z</time>
      </trkpt>
      <trkpt lat="43.59495" lon="6.30473">
        <ele>668</ele>
        <time>2023-01-06T15:07:09Z</time>
      </trkpt>
      <trkpt lat="43.59495" lon="6.30472">
        <ele>668</ele>
        <time>2023-01-06T15:07:10Z</time>
      </trkpt>
      <trkpt lat="43.59494" lon="6.30471">
        <ele>668</ele>
        <time>2023-01-06T15:07:11Z</time>
      </trkpt>
      <trkpt lat="43.59493" lon="6.3047">
        <ele>668</ele>
        <time>2023-01-06T15:07:12Z</time>
      </trkpt>
      <trkpt lat="43.59493" lon="6.3047">
        <ele>668</ele>
        <time>2023-01-06T15:07:13Z</time>
      </trkpt>
      <trkpt lat="43.59492" lon="6.30469">
        <ele>668</ele>
        <time>2023-01-06T15:07:14Z</time>
      </trkpt>
      <trkpt lat="43.59491" lon="6.30469">
        <ele>668</ele>
        <time>2023-01-06T15:07:15Z</time>
      </trkpt>
      <trkpt lat="43.5949" lon="6.30469">
        <ele>667</ele>
        <time>2023-01-06T15:07:16Z</time>
      </trkpt>
      <trkpt lat="43.59489" lon="6.30469">
        <ele>667</ele>
        <time>2023-01-06T15:07:17Z</time>
      </trkpt>
      <trkpt lat="43.59488" lon="6.30468">
        <ele>667</ele>
        <time>2023-01-06T15:07:18Z</time>
      </trkpt>
      <trkpt lat="43.59487" lon="6.30468">
        <ele>667</ele>
        <time>2023-01-06T15:07:19Z</time>
      </trkpt>
      <trkpt lat="43.59486" lon="6.30469">
        <ele>667</ele>
        <time>2023-01-06T15:07:20Z</time>
      </trkpt>
      <trkpt lat="43.59486" lon="6.30469">
        <ele>667</ele>
        <time>2023-01-06T15:07:21Z</time>
      </trkpt>
      <trkpt lat="43.59485" lon="6.30469">
        <ele>667</ele>
        <time>2023-01-06T15:07:22Z</time>
      </trkpt>
      <trkpt lat="43.59484" lon="6.30469">
        <ele>667</ele>
        <time>2023-01-06T15:07:23Z</time>
      </trkpt>
      <trkpt lat="43.59483" lon="6.3047">
        <ele>667</ele>
        <time>2023-01-06T15:07:24Z</time>
      </trkpt>
      <trkpt lat="43.59482" lon="6.3047">
        <ele>667</ele>
        <time>2023-01-06T15:07:25Z</time>
      </trkpt>
      <trkpt lat="43.59481" lon="6.3047">
        <ele>667</ele>
        <time>2023-01-06T15:07:26Z</time>
      </trkpt>
      <trkpt lat="43.59481" lon="6.3047">
        <ele>667</ele>
        <time>2023-01-06T15:07:27Z</time>
      </trkpt>
      <trkpt lat="43.59481" lon="6.30469">
        <ele>667</ele>
        <time>2023-01-06T15:07:28Z</time>
      </trkpt>
      <trkpt lat="43.59481" lon="6.30467">
        <ele>667</ele>
        <time>2023-01-06T15:07:29Z</time>
      </trkpt>
      <trkpt lat="43.5948" lon="6.30466">
        <ele>666</ele>
        <time>2023-01-06T15:07:30Z</time>
      </trkpt>
      <trkpt lat="43.5948" lon="6.30465">
        <ele>666</ele>
        <time>2023-01-06T15:07:31Z</time>
      </trkpt>
      <trkpt lat="43.59479" lon="6.30464">
        <ele>666</ele>
        <time>2023-01-06T15:07:32Z</time>
      </trkpt>
      <trkpt lat="43.59478" lon="6.30463">
        <ele>666</ele>
        <time>2023-01-06T15:07:33Z</time>
      </trkpt>
      <trkpt lat="43.59477" lon="6.30463">
        <ele>666</ele>
        <time>2023-01-06T15:07:34Z</time>
      </trkpt>
      <trkpt lat="43.59476" lon="6.30462">
        <ele>666</ele>
        <time>2023-01-06T15:07:35Z</time>
      </trkpt>
      <trkpt lat="43.59475" lon="6.30461">
        <ele>665</ele>
        <time>2023-01-06T15:07:36Z</time>
      </trkpt>
      <trkpt lat="43.59474" lon="6.30461">
        <ele>665</ele>
        <time>2023-01-06T15:07:37Z</time>
      </trkpt>
      <trkpt lat="43.59473" lon="6.30461">
        <ele>665</ele>
        <time>2023-01-06T15:07:38Z</time>
      </trkpt>
      <trkpt lat="43.59472" lon="6.3046">
        <ele>665</ele>
        <time>2023-01-06T15:07:39Z</time>
      </trkpt>
      <trkpt lat="43.59471" lon="6.30461">
        <ele>665</ele>
        <time>2023-01-06T15:07:40Z</time>
      </trkpt>
      <trkpt lat="43.5947" lon="6.3046">
        <ele>665</ele>
        <time>2023-01-06T15:07:41Z</time>
      </trkpt>
      <trkpt lat="43.59469" lon="6.30459">
        <ele>665</ele>
        <time>2023-01-06T15:07:42Z</time>
      </trkpt>
      <trkpt lat="43.59468" lon="6.30458">
        <ele>665</ele>
        <time>2023-01-06T15:07:43Z</time>
      </trkpt>
      <trkpt lat="43.59467" lon="6.30458">
        <ele>665</ele>
        <time>2023-01-06T15:07:44Z</time>
      </trkpt>
      <trkpt lat="43.59467" lon="6.30458">
        <ele>665</ele>
        <time>2023-01-06T15:07:45Z</time>
      </trkpt>
      <trkpt lat="43.59466" lon="6.30457">
        <ele>665</ele>
        <time>2023-01-06T15:07:46Z</time>
      </trkpt>
      <trkpt lat="43.59465" lon="6.30457">
        <ele>665</ele>
        <time>2023-01-06T15:07:47Z</time>
      </trkpt>
      <trkpt lat="43.59465" lon="6.30456">
        <ele>665</ele>
        <time>2023-01-06T15:07:48Z</time>
      </trkpt>
      <trkpt lat="43.59464" lon="6.30456">
        <ele>666</ele>
        <time>2023-01-06T15:07:49Z</time>
      </trkpt>
      <trkpt lat="43.59463" lon="6.30456">
        <ele>666</ele>
        <time>2023-01-06T15:07:50Z</time>
      </trkpt>
      <trkpt lat="43.59462" lon="6.30456">
        <ele>666</ele>
        <time>2023-01-06T15:07:51Z</time>
      </trkpt>
      <trkpt lat="43.59461" lon="6.30456">
        <ele>666</ele>
        <time>2023-01-06T15:07:52Z</time>
      </trkpt>
      <trkpt lat="43.59461" lon="6.30455">
        <ele>666</ele>
        <time>2023-01-06T15:07:53Z</time>
      </trkpt>
      <trkpt lat="43.59461" lon="6.30453">
        <ele>665</ele>
        <time>2023-01-06T15:07:54Z</time>
      </trkpt>
      <trkpt lat="43.5946" lon="6.30451">
        <ele>665</ele>
        <time>2023-01-06T15:07:55Z</time>
      </trkpt>
      <trkpt lat="43.5946" lon="6.3045">
        <ele>665</ele>
        <time>2023-01-06T15:07:56Z</time>
      </trkpt>
      <trkpt lat="43.59459" lon="6.30449">
        <ele>665</ele>
        <time>2023-01-06T15:07:57Z</time>
      </trkpt>
      <trkpt lat="43.59458" lon="6.30448">
        <ele>665</ele>
        <time>2023-01-06T15:07:58Z</time>
      </trkpt>
      <trkpt lat="43.59458" lon="6.30448">
        <ele>664</ele>
        <time>2023-01-06T15:07:59Z</time>
      </trkpt>
      <trkpt lat="43.59457" lon="6.30447">
        <ele>664</ele>
        <time>2023-01-06T15:08:00Z</time>
      </trkpt>
      <trkpt lat="43.59456" lon="6.30446">
        <ele>664</ele>
        <time>2023-01-06T15:08:01Z</time>
      </trkpt>
      <trkpt lat="43.59455" lon="6.30445">
        <ele>664</ele>
        <time>2023-01-06T15:08:02Z</time>
      </trkpt>
      <trkpt lat="43.59454" lon="6.30443">
        <ele>663</ele>
        <time>2023-01-06T15:08:03Z</time>
      </trkpt>
      <trkpt lat="43.59453" lon="6.30442">
        <ele>663</ele>
        <time>2023-01-06T15:08:04Z</time>
      </trkpt>
      <trkpt lat="43.59453" lon="6.3044">
        <ele>663</ele>
        <time>2023-01-06T15:08:05Z</time>
      </trkpt>
      <trkpt lat="43.59452" lon="6.30439">
        <ele>663</ele>
        <time>2023-01-06T15:08:06Z</time>
      </trkpt>
      <trkpt lat="43.59452" lon="6.30437">
        <ele>664</ele>
        <time>2023-01-06T15:08:07Z</time>
      </trkpt>
      <trkpt lat="43.59451" lon="6.30436">
        <ele>664</ele>
        <time>2023-01-06T15:08:08Z</time>
      </trkpt>
      <trkpt lat="43.5945" lon="6.30435">
        <ele>663</ele>
        <time>2023-01-06T15:08:09Z</time>
      </trkpt>
      <trkpt lat="43.59449" lon="6.30434">
        <ele>663</ele>
        <time>2023-01-06T15:08:10Z</time>
      </trkpt>
      <trkpt lat="43.59449" lon="6.30433">
        <ele>663</ele>
        <time>2023-01-06T15:08:11Z</time>
      </trkpt>
      <trkpt lat="43.59448" lon="6.30432">
        <ele>663</ele>
        <time>2023-01-06T15:08:12Z</time>
      </trkpt>
      <trkpt lat="43.59448" lon="6.3043">
        <ele>663</ele>
        <time>2023-01-06T15:08:13Z</time>
      </trkpt>
      <trkpt lat="43.59448" lon="6.30429">
        <ele>663</ele>
        <time>2023-01-06T15:08:14Z</time>
      </trkpt>
      <trkpt lat="43.59448" lon="6.30428">
        <ele>663</ele>
        <time>2023-01-06T15:08:15Z</time>
      </trkpt>
      <trkpt lat="43.59447" lon="6.30427">
        <ele>663</ele>
        <time>2023-01-06T15:08:16Z</time>
      </trkpt>
      <trkpt lat="43.59447" lon="6.30427">
        <ele>663</ele>
        <time>2023-01-06T15:08:17Z</time>
      </trkpt>
      <trkpt lat="43.59446" lon="6.30426">
        <ele>663</ele>
        <time>2023-01-06T15:08:18Z</time>
      </trkpt>
      <trkpt lat="43.59445" lon="6.30425">
        <ele>663</ele>
        <time>2023-01-06T15:08:19Z</time>
      </trkpt>
      <trkpt lat="43.59445" lon="6.30425">
        <ele>663</ele>
        <time>2023-01-06T15:08:20Z</time>
      </trkpt>
      <trkpt lat="43.59444" lon="6.30425">
        <ele>663</ele>
        <time>2023-01-06T15:08:21Z</time>
      </trkpt>
      <trkpt lat="43.59444" lon="6.30425">
        <ele>663</ele>
        <time>2023-01-06T15:08:22Z</time>
      </trkpt>
      <trkpt lat="43.59444" lon="6.30425">
        <ele>663</ele>
        <time>2023-01-06T15:08:23Z</time>
      </trkpt>
      <trkpt lat="43.59444" lon="6.30425">
        <ele>663</ele>
        <time>2023-01-06T15:08:24Z</time>
      </trkpt>
      <trkpt lat="43.59444" lon="6.30425">
        <ele>663</ele>
        <time>2023-01-06T15:08:25Z</time>
      </trkpt>
      <trkpt lat="43.59444" lon="6.30425">
        <ele>663</ele>
        <time>2023-01-06T15:08:26Z</time>
      </trkpt>
      <trkpt lat="43.59444" lon="6.30425">
        <ele>663</ele>
        <time>2023-01-06T15:08:27Z</time>
      </trkpt>
      <trkpt lat="43.59444" lon="6.30425">
        <ele>663</ele>
        <time>2023-01-06T15:08:28Z</time>
      </trkpt>
      <trkpt lat="43.59444" lon="6.30425">
        <ele>663</ele>
        <time>2023-01-06T15:08:29Z</time>
      </trkpt>
      <trkpt lat="43.59444" lon="6.30425">
        <ele>663</ele>
        <time>2023-01-06T15:08:30Z</time>
      </trkpt>
      <trkpt lat="43.59444" lon="6.30425">
        <ele>663</ele>
        <time>2023-01-06T15:08:31Z</time>
      </trkpt>
      <trkpt lat="43.59444" lon="6.30425">
        <ele>663</ele>
        <time>2023-01-06T15:08:32Z</time>
      </trkpt>
      <trkpt lat="43.59444" lon="6.30425">
        <ele>663</ele>
        <time>2023-01-06T15:08:33Z</time>
      </trkpt>
      <trkpt lat="43.59444" lon="6.30425">
        <ele>663</ele>
        <time>2023-01-06T15:08:34Z</time>
      </trkpt>
      <trkpt lat="43.59444" lon="6.30425">
        <ele>663</ele>
        <time>2023-01-06T15:08:35Z</time>
      </trkpt>
      <trkpt lat="43.59448" lon="6.30425">
        <ele>663</ele>
        <time>2023-01-06T15:08:36Z</time>
      </trkpt>
      <trkpt lat="43.59448" lon="6.30425">
        <ele>663</ele>
        <time>2023-01-06T15:08:37Z</time>
      </trkpt>
      <trkpt lat="43.59448" lon="6.30424">
        <ele>663</ele>
        <time>2023-01-06T15:08:38Z</time>
      </trkpt>
      <trkpt lat="43.59448" lon="6.30424">
        <ele>663</ele>
        <time>2023-01-06T15:08:39Z</time>
      </trkpt>
      <trkpt lat="43.59448" lon="6.30424">
        <ele>663</ele>
        <time>2023-01-06T15:08:40Z</time>
      </trkpt>
      <trkpt lat="43.59449" lon="6.30424">
        <ele>663</ele>
        <time>2023-01-06T15:08:41Z</time>
      </trkpt>
      <trkpt lat="43.59449" lon="6.30424">
        <ele>663</ele>
        <time>2023-01-06T15:08:42Z</time>
      </trkpt>
      <trkpt lat="43.59449" lon="6.30424">
        <ele>663</ele>
        <time>2023-01-06T15:08:43Z</time>
      </trkpt>
      <trkpt lat="43.59449" lon="6.30424">
        <ele>663</ele>
        <time>2023-01-06T15:08:44Z</time>
      </trkpt>
      <trkpt lat="43.59449" lon="6.30424">
        <ele>663</ele>
        <time>2023-01-06T15:08:45Z</time>
      </trkpt>
      <trkpt lat="43.59449" lon="6.30424">
        <ele>663</ele>
        <time>2023-01-06T15:08:46Z</time>
      </trkpt>
      <trkpt lat="43.59449" lon="6.30424">
        <ele>663</ele>
        <time>2023-01-06T15:08:47Z</time>
      </trkpt>
      <trkpt lat="43.59449" lon="6.30424">
        <ele>663</ele>
        <time>2023-01-06T15:08:48Z</time>
      </trkpt>
      <trkpt lat="43.59449" lon="6.30424">
        <ele>663</ele>
        <time>2023-01-06T15:08:49Z</time>
      </trkpt>
      <trkpt lat="43.59449" lon="6.30424">
        <ele>663</ele>
        <time>2023-01-06T15:08:50Z</time>
      </trkpt>
      <trkpt lat="43.59449" lon="6.30424">
        <ele>663</ele>
        <time>2023-01-06T15:08:51Z</time>
      </trkpt>
      <trkpt lat="43.59449" lon="6.30424">
        <ele>663</ele>
        <time>2023-01-06T15:08:52Z</time>
      </trkpt>
      <trkpt lat="43.59449" lon="6.30424">
        <ele>663</ele>
        <time>2023-01-06T15:08:53Z</time>
      </trkpt>
      <trkpt lat="43.59449" lon="6.30424">
        <ele>663</ele>
        <time>2023-01-06T15:08:54Z</time>
      </trkpt>
      <trkpt lat="43.59449" lon="6.30424">
        <ele>663</ele>
        <time>2023-01-06T15:08:55Z</time>
      </trkpt>
      <trkpt lat="43.59449" lon="6.30424">
        <ele>663</ele>
        <time>2023-01-06T15:08:56Z</time>
      </trkpt>
      <trkpt lat="43.59449" lon="6.30424">
        <ele>663</ele>
        <time>2023-01-06T15:08:57Z</time>
      </trkpt>
      <trkpt lat="43.59449" lon="6.30424">
        <ele>663</ele>
        <time>2023-01-06T15:08:58Z</time>
      </trkpt>
      <trkpt lat="43.59449" lon="6.30424">
        <ele>663</ele>
        <time>2023-01-06T15:08:59Z</time>
      </trkpt>
      <trkpt lat="43.59449" lon="6.30424">
        <ele>663</ele>
        <time>2023-01-06T15:09:00Z</time>
      </trkpt>
      <trkpt lat="43.59449" lon="6.30424">
        <ele>663</ele>
        <time>2023-01-06T15:09:01Z</time>
      </trkpt>
      <trkpt lat="43.59449" lon="6.30424">
        <ele>663</ele>
        <time>2023-01-06T15:09:02Z</time>
      </trkpt>
      <trkpt lat="43.59449" lon="6.30424">
        <ele>663</ele>
        <time>2023-01-06T15:09:03Z</time>
      </trkpt>
      <trkpt lat="43.59449" lon="6.30424">
        <ele>663</ele>
        <time>2023-01-06T15:09:04Z</time>
      </trkpt>
      <trkpt lat="43.59449" lon="6.30424">
        <ele>663</ele>
        <time>2023-01-06T15:09:05Z</time>
      </trkpt>
      <trkpt lat="43.59449" lon="6.30424">
        <ele>663</ele>
        <time>2023-01-06T15:09:06Z</time>
      </trkpt>
      <trkpt lat="43.59449" lon="6.30424">
        <ele>663</ele>
        <time>2023-01-06T15:09:07Z</time>
      </trkpt>
      <trkpt lat="43.59452" lon="6.30423">
        <ele>663</ele>
        <time>2023-01-06T15:09:08Z</time>
      </trkpt>
      <trkpt lat="43.59452" lon="6.30423">
        <ele>663</ele>
        <time>2023-01-06T15:09:09Z</time>
      </trkpt>
      <trkpt lat="43.59452" lon="6.30423">
        <ele>663</ele>
        <time>2023-01-06T15:09:10Z</time>
      </trkpt>
      <trkpt lat="43.59452" lon="6.30423">
        <ele>663</ele>
        <time>2023-01-06T15:09:11Z</time>
      </trkpt>
      <trkpt lat="43.59452" lon="6.30422">
        <ele>663</ele>
        <time>2023-01-06T15:09:12Z</time>
      </trkpt>
      <trkpt lat="43.59452" lon="6.30422">
        <ele>663</ele>
        <time>2023-01-06T15:09:13Z</time>
      </trkpt>
      <trkpt lat="43.59452" lon="6.30422">
        <ele>663</ele>
        <time>2023-01-06T15:09:14Z</time>
      </trkpt>
      <trkpt lat="43.59452" lon="6.30422">
        <ele>663</ele>
        <time>2023-01-06T15:09:15Z</time>
      </trkpt>
      <trkpt lat="43.59452" lon="6.30422">
        <ele>663</ele>
        <time>2023-01-06T15:09:16Z</time>
      </trkpt>
      <trkpt lat="43.59452" lon="6.30422">
        <ele>663</ele>
        <time>2023-01-06T15:09:17Z</time>
      </trkpt>
      <trkpt lat="43.59452" lon="6.30422">
        <ele>663</ele>
        <time>2023-01-06T15:09:18Z</time>
      </trkpt>
      <trkpt lat="43.59452" lon="6.30422">
        <ele>663</ele>
        <time>2023-01-06T15:09:19Z</time>
      </trkpt>
      <trkpt lat="43.59452" lon="6.30422">
        <ele>663</ele>
        <time>2023-01-06T15:09:20Z</time>
      </trkpt>
      <trkpt lat="43.59452" lon="6.30422">
        <ele>663</ele>
        <time>2023-01-06T15:09:21Z</time>
      </trkpt>
      <trkpt lat="43.59452" lon="6.30422">
        <ele>663</ele>
        <time>2023-01-06T15:09:22Z</time>
      </trkpt>
      <trkpt lat="43.59452" lon="6.30422">
        <ele>663</ele>
        <time>2023-01-06T15:09:23Z</time>
      </trkpt>
      <trkpt lat="43.59452" lon="6.30422">
        <ele>663</ele>
        <time>2023-01-06T15:09:24Z</time>
      </trkpt>
      <trkpt lat="43.59452" lon="6.30422">
        <ele>663</ele>
        <time>2023-01-06T15:09:25Z</time>
      </trkpt>
      <trkpt lat="43.59452" lon="6.30422">
        <ele>663</ele>
        <time>2023-01-06T15:09:26Z</time>
      </trkpt>
      <trkpt lat="43.59452" lon="6.30422">
        <ele>663</ele>
        <time>2023-01-06T15:09:27Z</time>
      </trkpt>
      <trkpt lat="43.59452" lon="6.30422">
        <ele>663</ele>
        <time>2023-01-06T15:09:28Z</time>
      </trkpt>
      <trkpt lat="43.59452" lon="6.30422">
        <ele>663</ele>
        <time>2023-01-06T15:09:29Z</time>
      </trkpt>
      <trkpt lat="43.59452" lon="6.30422">
        <ele>663</ele>
        <time>2023-01-06T15:09:30Z</time>
      </trkpt>
      <trkpt lat="43.59452" lon="6.30422">
        <ele>663</ele>
        <time>2023-01-06T15:09:31Z</time>
      </trkpt>
      <trkpt lat="43.59452" lon="6.30422">
        <ele>663</ele>
        <time>2023-01-06T15:09:32Z</time>
      </trkpt>
      <trkpt lat="43.59452" lon="6.30421">
        <ele>663</ele>
        <time>2023-01-06T15:09:33Z</time>
      </trkpt>
      <trkpt lat="43.59452" lon="6.30421">
        <ele>663</ele>
        <time>2023-01-06T15:09:34Z</time>
      </trkpt>
      <trkpt lat="43.59452" lon="6.30421">
        <ele>663</ele>
        <time>2023-01-06T15:09:35Z</time>
      </trkpt>
      <trkpt lat="43.59452" lon="6.3042">
        <ele>663</ele>
        <time>2023-01-06T15:09:36Z</time>
      </trkpt>
      <trkpt lat="43.59453" lon="6.3042">
        <ele>663</ele>
        <time>2023-01-06T15:09:37Z</time>
      </trkpt>
      <trkpt lat="43.59453" lon="6.3042">
        <ele>663</ele>
        <time>2023-01-06T15:09:38Z</time>
      </trkpt>
      <trkpt lat="43.59453" lon="6.3042">
        <ele>663</ele>
        <time>2023-01-06T15:09:39Z</time>
      </trkpt>
      <trkpt lat="43.59453" lon="6.3042">
        <ele>663</ele>
        <time>2023-01-06T15:09:40Z</time>
      </trkpt>
      <trkpt lat="43.59453" lon="6.3042">
        <ele>663</ele>
        <time>2023-01-06T15:09:41Z</time>
      </trkpt>
      <trkpt lat="43.59453" lon="6.30419">
        <ele>663</ele>
        <time>2023-01-06T15:09:42Z</time>
      </trkpt>
      <trkpt lat="43.59453" lon="6.30419">
        <ele>663</ele>
        <time>2023-01-06T15:09:43Z</time>
      </trkpt>
      <trkpt lat="43.59453" lon="6.30419">
        <ele>663</ele>
        <time>2023-01-06T15:09:44Z</time>
      </trkpt>
      <trkpt lat="43.59453" lon="6.30419">
        <ele>663</ele>
        <time>2023-01-06T15:09:45Z</time>
      </trkpt>
      <trkpt lat="43.59453" lon="6.30419">
        <ele>663</ele>
        <time>2023-01-06T15:09:46Z</time>
      </trkpt>
      <trkpt lat="43.59453" lon="6.30419">
        <ele>663</ele>
        <time>2023-01-06T15:09:47Z</time>
      </trkpt>
      <trkpt lat="43.59453" lon="6.30419">
        <ele>663</ele>
        <time>2023-01-06T15:09:48Z</time>
      </trkpt>
      <trkpt lat="43.59453" lon="6.30419">
        <ele>663</ele>
        <time>2023-01-06T15:09:49Z</time>
      </trkpt>
      <trkpt lat="43.59453" lon="6.30419">
        <ele>663</ele>
        <time>2023-01-06T15:09:50Z</time>
      </trkpt>
      <trkpt lat="43.59453" lon="6.30419">
        <ele>663</ele>
        <time>2023-01-06T15:09:51Z</time>
      </trkpt>
      <trkpt lat="43.59453" lon="6.30419">
        <ele>663</ele>
        <time>2023-01-06T15:09:52Z</time>
      </trkpt>
      <trkpt lat="43.59453" lon="6.30418">
        <ele>663</ele>
        <time>2023-01-06T15:09:53Z</time>
      </trkpt>
      <trkpt lat="43.59453" lon="6.30418">
        <ele>663</ele>
        <time>2023-01-06T15:09:54Z</time>
      </trkpt>
      <trkpt lat="43.59453" lon="6.30418">
        <ele>663</ele>
        <time>2023-01-06T15:09:55Z</time>
      </trkpt>
      <trkpt lat="43.59453" lon="6.30418">
        <ele>663</ele>
        <time>2023-01-06T15:09:56Z</time>
      </trkpt>
      <trkpt lat="43.59453" lon="6.30418">
        <ele>663</ele>
        <time>2023-01-06T15:09:57Z</time>
      </trkpt>
      <trkpt lat="43.59453" lon="6.30418">
        <ele>663</ele>
        <time>2023-01-06T15:09:58Z</time>
      </trkpt>
      <trkpt lat="43.59453" lon="6.30418">
        <ele>663</ele>
        <time>2023-01-06T15:09:59Z</time>
      </trkpt>
      <trkpt lat="43.59453" lon="6.30418">
        <ele>663</ele>
        <time>2023-01-06T15:10:00Z</time>
      </trkpt>
      <trkpt lat="43.59453" lon="6.30418">
        <ele>663</ele>
        <time>2023-01-06T15:10:01Z</time>
      </trkpt>
      <trkpt lat="43.59453" lon="6.30418">
        <ele>663</ele>
        <time>2023-01-06T15:10:02Z</time>
      </trkpt>
      <trkpt lat="43.59453" lon="6.30418">
        <ele>663</ele>
        <time>2023-01-06T15:10:03Z</time>
      </trkpt>
      <trkpt lat="43.59453" lon="6.30418">
        <ele>663</ele>
        <time>2023-01-06T15:10:04Z</time>
      </trkpt>
      <trkpt lat="43.59453" lon="6.30418">
        <ele>663</ele>
        <time>2023-01-06T15:10:05Z</time>
      </trkpt>
      <trkpt lat="43.59453" lon="6.30418">
        <ele>663</ele>
        <time>2023-01-06T15:10:06Z</time>
      </trkpt>
      <trkpt lat="43.59453" lon="6.30418">
        <ele>663</ele>
        <time>2023-01-06T15:10:07Z</time>
      </trkpt>
      <trkpt lat="43.59453" lon="6.30418">
        <ele>663</ele>
        <time>2023-01-06T15:10:08Z</time>
      </trkpt>
      <trkpt lat="43.59453" lon="6.30418">
        <ele>663</ele>
        <time>2023-01-06T15:10:09Z</time>
      </trkpt>
      <trkpt lat="43.59453" lon="6.30418">
        <ele>663</ele>
        <time>2023-01-06T15:10:10Z</time>
      </trkpt>
      <trkpt lat="43.59453" lon="6.30418">
        <ele>663</ele>
        <time>2023-01-06T15:10:11Z</time>
      </trkpt>
      <trkpt lat="43.59453" lon="6.30418">
        <ele>663</ele>
        <time>2023-01-06T15:10:12Z</time>
      </trkpt>
      <trkpt lat="43.59453" lon="6.30418">
        <ele>663</ele>
        <time>2023-01-06T15:10:13Z</time>
      </trkpt>
      <trkpt lat="43.59453" lon="6.30418">
        <ele>663</ele>
        <time>2023-01-06T15:10:14Z</time>
      </trkpt>
      <trkpt lat="43.59453" lon="6.30418">
        <ele>663</ele>
        <time>2023-01-06T15:10:15Z</time>
      </trkpt>
      <trkpt lat="43.59453" lon="6.30419">
        <ele>663</ele>
        <time>2023-01-06T15:10:16Z</time>
      </trkpt>
      <trkpt lat="43.59453" lon="6.30419">
        <ele>663</ele>
        <time>2023-01-06T15:10:17Z</time>
      </trkpt>
      <trkpt lat="43.59453" lon="6.30419">
        <ele>663</ele>
        <time>2023-01-06T15:10:18Z</time>
      </trkpt>
      <trkpt lat="43.59453" lon="6.30419">
        <ele>663</ele>
        <time>2023-01-06T15:10:19Z</time>
      </trkpt>
      <trkpt lat="43.59453" lon="6.30419">
        <ele>663</ele>
        <time>2023-01-06T15:10:20Z</time>
      </trkpt>
      <trkpt lat="43.59453" lon="6.30418">
        <ele>663</ele>
        <time>2023-01-06T15:10:21Z</time>
      </trkpt>
      <trkpt lat="43.59453" lon="6.30418">
        <ele>663</ele>
        <time>2023-01-06T15:10:22Z</time>
      </trkpt>
      <trkpt lat="43.59453" lon="6.30418">
        <ele>663</ele>
        <time>2023-01-06T15:10:23Z</time>
      </trkpt>
      <trkpt lat="43.59453" lon="6.30417">
        <ele>663</ele>
        <time>2023-01-06T15:10:24Z</time>
      </trkpt>
      <trkpt lat="43.59453" lon="6.30417">
        <ele>663</ele>
        <time>2023-01-06T15:10:25Z</time>
      </trkpt>
      <trkpt lat="43.59453" lon="6.30417">
        <ele>663</ele>
        <time>2023-01-06T15:10:26Z</time>
      </trkpt>
      <trkpt lat="43.59453" lon="6.30417">
        <ele>663</ele>
        <time>2023-01-06T15:10:27Z</time>
      </trkpt>
      <trkpt lat="43.59453" lon="6.30417">
        <ele>663</ele>
        <time>2023-01-06T15:10:28Z</time>
      </trkpt>
      <trkpt lat="43.59453" lon="6.30418">
        <ele>663</ele>
        <time>2023-01-06T15:10:29Z</time>
      </trkpt>
      <trkpt lat="43.59453" lon="6.30418">
        <ele>663</ele>
        <time>2023-01-06T15:10:30Z</time>
      </trkpt>
      <trkpt lat="43.59453" lon="6.30418">
        <ele>663</ele>
        <time>2023-01-06T15:10:31Z</time>
      </trkpt>
      <trkpt lat="43.59453" lon="6.30417">
        <ele>663</ele>
        <time>2023-01-06T15:10:32Z</time>
      </trkpt>
      <trkpt lat="43.59453" lon="6.30417">
        <ele>663</ele>
        <time>2023-01-06T15:10:33Z</time>
      </trkpt>
      <trkpt lat="43.59453" lon="6.30417">
        <ele>663</ele>
        <time>2023-01-06T15:10:34Z</time>
      </trkpt>
      <trkpt lat="43.59453" lon="6.30417">
        <ele>663</ele>
        <time>2023-01-06T15:10:35Z</time>
      </trkpt>
      <trkpt lat="43.59453" lon="6.30417">
        <ele>663</ele>
        <time>2023-01-06T15:10:36Z</time>
      </trkpt>
      <trkpt lat="43.59453" lon="6.30417">
        <ele>663</ele>
        <time>2023-01-06T15:10:37Z</time>
      </trkpt>
      <trkpt lat="43.59453" lon="6.30417">
        <ele>663</ele>
        <time>2023-01-06T15:10:38Z</time>
      </trkpt>
      <trkpt lat="43.59453" lon="6.30417">
        <ele>663</ele>
        <time>2023-01-06T15:10:39Z</time>
      </trkpt>
      <trkpt lat="43.59453" lon="6.30417">
        <ele>663</ele>
        <time>2023-01-06T15:10:40Z</time>
      </trkpt>
      <trkpt lat="43.59453" lon="6.30417">
        <ele>663</ele>
        <time>2023-01-06T15:10:41Z</time>
      </trkpt>
      <trkpt lat="43.59453" lon="6.30417">
        <ele>663</ele>
        <time>2023-01-06T15:10:42Z</time>
      </trkpt>
      <trkpt lat="43.59453" lon="6.30417">
        <ele>663</ele>
        <time>2023-01-06T15:10:43Z</time>
      </trkpt>
      <trkpt lat="43.59453" lon="6.30417">
        <ele>663</ele>
        <time>2023-01-06T15:10:44Z</time>
      </trkpt>
      <trkpt lat="43.59453" lon="6.30417">
        <ele>663</ele>
        <time>2023-01-06T15:10:45Z</time>
      </trkpt>
      <trkpt lat="43.59453" lon="6.30417">
        <ele>663</ele>
        <time>2023-01-06T15:10:46Z</time>
      </trkpt>
      <trkpt lat="43.59453" lon="6.30417">
        <ele>663</ele>
        <time>2023-01-06T15:10:47Z</time>
      </trkpt>
      <trkpt lat="43.59453" lon="6.30417">
        <ele>663</ele>
        <time>2023-01-06T15:10:48Z</time>
      </trkpt>
      <trkpt lat="43.59453" lon="6.30417">
        <ele>663</ele>
        <time>2023-01-06T15:10:49Z</time>
      </trkpt>
      <trkpt lat="43.59453" lon="6.30417">
        <ele>663</ele>
        <time>2023-01-06T15:10:50Z</time>
      </trkpt>
      <trkpt lat="43.59453" lon="6.30417">
        <ele>663</ele>
        <time>2023-01-06T15:10:51Z</time>
      </trkpt>
      <trkpt lat="43.59453" lon="6.30417">
        <ele>663</ele>
        <time>2023-01-06T15:10:52Z</time>
      </trkpt>
      <trkpt lat="43.59453" lon="6.30417">
        <ele>663</ele>
        <time>2023-01-06T15:10:53Z</time>
      </trkpt>
      <trkpt lat="43.59453" lon="6.30417">
        <ele>663</ele>
        <time>2023-01-06T15:10:54Z</time>
      </trkpt>
      <trkpt lat="43.59453" lon="6.30417">
        <ele>663</ele>
        <time>2023-01-06T15:10:55Z</time>
      </trkpt>
      <trkpt lat="43.59453" lon="6.30417">
        <ele>663</ele>
        <time>2023-01-06T15:10:56Z</time>
      </trkpt>
      <trkpt lat="43.59453" lon="6.30417">
        <ele>663</ele>
        <time>2023-01-06T15:10:57Z</time>
      </trkpt>
      <trkpt lat="43.59453" lon="6.30417">
        <ele>663</ele>
        <time>2023-01-06T15:10:58Z</time>
      </trkpt>
      <trkpt lat="43.59453" lon="6.30417">
        <ele>663</ele>
        <time>2023-01-06T15:10:59Z</time>
      </trkpt>
      <trkpt lat="43.59453" lon="6.30417">
        <ele>663</ele>
        <time>2023-01-06T15:11:00Z</time>
      </trkpt>
      <trkpt lat="43.59453" lon="6.30417">
        <ele>663</ele>
        <time>2023-01-06T15:11:01Z</time>
      </trkpt>
      <trkpt lat="43.59453" lon="6.30417">
        <ele>663</ele>
        <time>2023-01-06T15:11:02Z</time>
      </trkpt>
      <trkpt lat="43.59453" lon="6.30417">
        <ele>663</ele>
        <time>2023-01-06T15:11:03Z</time>
      </trkpt>
      <trkpt lat="43.59453" lon="6.30417">
        <ele>663</ele>
        <time>2023-01-06T15:11:04Z</time>
      </trkpt>
      <trkpt lat="43.59453" lon="6.30417">
        <ele>663</ele>
        <time>2023-01-06T15:11:05Z</time>
      </trkpt>
    </trkseg>
  </trk>
</gpx>